<?xml version="1.0" encoding="utf-8"?>
<gpx creator="Wikiloc - https://www.wikiloc.com; modified by GPX Track Cleaner from GPX Viewer plugin (WordPress) " version="1.1" xmlns="http://www.topografix.com/GPX/1/1" xmlns:xsi="http://www.w3.org/2001/XMLSchema-instance" xsi:schemaLocation="http://www.topografix.com/GPX/1/1 http://www.topografix.com/GPX/1/1/gpx.xsd">

	<trk>
		<name>13 Nafarroa Xtrem 2020 - 68K</name>
		<cmt> distance: 75 km, up: 6126 m, down: 6126 m</cmt>
		<desc>1 track points, , elevation data replaced</desc>
		<trkseg>
			<trkpt lat="42.931471" lon="-1.506056">
				<ele>534</ele>
				<time>2018-04-28T19:10:30Z</time>
			</trkpt>
			<trkpt lat="42.931533" lon="-1.506026">
				<ele>534</ele>
				<time>2018-04-28T19:10:33Z</time>
			</trkpt>
			<trkpt lat="42.931577" lon="-1.505996">
				<ele>534</ele>
				<time>2018-04-28T19:10:35Z</time>
			</trkpt>
			<trkpt lat="42.93164" lon="-1.505976">
				<ele>534</ele>
				<time>2018-04-28T19:10:39Z</time>
			</trkpt>
			<trkpt lat="42.931697" lon="-1.505955">
				<ele>534</ele>
				<time>2018-04-28T19:10:42Z</time>
			</trkpt>
			<trkpt lat="42.93174" lon="-1.505914">
				<ele>534</ele>
				<time>2018-04-28T19:10:44Z</time>
			</trkpt>
			<trkpt lat="42.931786" lon="-1.505896">
				<ele>534</ele>
				<time>2018-04-28T19:10:48Z</time>
			</trkpt>
			<trkpt lat="42.931831" lon="-1.505897">
				<ele>534</ele>
				<time>2018-04-28T19:10:51Z</time>
			</trkpt>
			<trkpt lat="42.931886" lon="-1.505878">
				<ele>534</ele>
				<time>2018-04-28T19:10:54Z</time>
			</trkpt>
			<trkpt lat="42.931942" lon="-1.50584">
				<ele>534</ele>
				<time>2018-04-28T19:10:57Z</time>
			</trkpt>
			<trkpt lat="42.932007" lon="-1.50581">
				<ele>534</ele>
				<time>2018-04-28T19:11:00Z</time>
			</trkpt>
			<trkpt lat="42.932057" lon="-1.505772">
				<ele>534</ele>
				<time>2018-04-28T19:11:02Z</time>
			</trkpt>
			<trkpt lat="42.932117" lon="-1.505743">
				<ele>534</ele>
				<time>2018-04-28T19:11:05Z</time>
			</trkpt>
			<trkpt lat="42.932147" lon="-1.505697">
				<ele>534</ele>
				<time>2018-04-28T19:11:07Z</time>
			</trkpt>
			<trkpt lat="42.932191" lon="-1.505683">
				<ele>534</ele>
				<time>2018-04-28T19:11:09Z</time>
			</trkpt>
			<trkpt lat="42.932235" lon="-1.505665">
				<ele>534</ele>
				<time>2018-04-28T19:11:11Z</time>
			</trkpt>
			<trkpt lat="42.932308" lon="-1.505657">
				<ele>534</ele>
				<time>2018-04-28T19:11:14Z</time>
			</trkpt>
			<trkpt lat="42.932367" lon="-1.505638">
				<ele>534</ele>
				<time>2018-04-28T19:11:17Z</time>
			</trkpt>
			<trkpt lat="42.932413" lon="-1.505629">
				<ele>534</ele>
				<time>2018-04-28T19:11:19Z</time>
			</trkpt>
			<trkpt lat="42.932473" lon="-1.505595">
				<ele>534</ele>
				<time>2018-04-28T19:11:22Z</time>
			</trkpt>
			<trkpt lat="42.932534" lon="-1.505559">
				<ele>534</ele>
				<time>2018-04-28T19:11:25Z</time>
			</trkpt>
			<trkpt lat="42.932578" lon="-1.505541">
				<ele>534</ele>
				<time>2018-04-28T19:11:27Z</time>
			</trkpt>
			<trkpt lat="42.932625" lon="-1.505522">
				<ele>534</ele>
				<time>2018-04-28T19:11:29Z</time>
			</trkpt>
			<trkpt lat="42.932674" lon="-1.505517">
				<ele>534</ele>
				<time>2018-04-28T19:11:31Z</time>
			</trkpt>
			<trkpt lat="42.932734" lon="-1.505502">
				<ele>534</ele>
				<time>2018-04-28T19:11:34Z</time>
			</trkpt>
			<trkpt lat="42.932782" lon="-1.505506">
				<ele>534</ele>
				<time>2018-04-28T19:11:36Z</time>
			</trkpt>
			<trkpt lat="42.932828" lon="-1.505501">
				<ele>534</ele>
				<time>2018-04-28T19:11:38Z</time>
			</trkpt>
			<trkpt lat="42.932881" lon="-1.505488">
				<ele>534</ele>
				<time>2018-04-28T19:11:40Z</time>
			</trkpt>
			<trkpt lat="42.932947" lon="-1.505456">
				<ele>534</ele>
				<time>2018-04-28T19:11:43Z</time>
			</trkpt>
			<trkpt lat="42.932994" lon="-1.50544">
				<ele>534</ele>
				<time>2018-04-28T19:11:45Z</time>
			</trkpt>
			<trkpt lat="42.933059" lon="-1.505423">
				<ele>534</ele>
				<time>2018-04-28T19:11:48Z</time>
			</trkpt>
			<trkpt lat="42.933104" lon="-1.505409">
				<ele>534</ele>
				<time>2018-04-28T19:11:50Z</time>
			</trkpt>
			<trkpt lat="42.933154" lon="-1.505403">
				<ele>534</ele>
				<time>2018-04-28T19:11:52Z</time>
			</trkpt>
			<trkpt lat="42.933194" lon="-1.505345">
				<ele>534</ele>
				<time>2018-04-28T19:11:55Z</time>
			</trkpt>
			<trkpt lat="42.933216" lon="-1.505283">
				<ele>534</ele>
				<time>2018-04-28T19:12:00Z</time>
			</trkpt>
			<trkpt lat="42.93326" lon="-1.505218">
				<ele>534</ele>
				<time>2018-04-28T19:12:04Z</time>
			</trkpt>
			<trkpt lat="42.933291" lon="-1.50516">
				<ele>534</ele>
				<time>2018-04-28T19:12:06Z</time>
			</trkpt>
			<trkpt lat="42.933333" lon="-1.505107">
				<ele>534</ele>
				<time>2018-04-28T19:12:09Z</time>
			</trkpt>
			<trkpt lat="42.933352" lon="-1.505037">
				<ele>543</ele>
				<time>2018-04-28T19:12:11Z</time>
			</trkpt>
			<trkpt lat="42.933379" lon="-1.504985">
				<ele>543</ele>
				<time>2018-04-28T19:12:13Z</time>
			</trkpt>
			<trkpt lat="42.933415" lon="-1.504931">
				<ele>543</ele>
				<time>2018-04-28T19:12:16Z</time>
			</trkpt>
			<trkpt lat="42.933451" lon="-1.504868">
				<ele>543</ele>
				<time>2018-04-28T19:12:18Z</time>
			</trkpt>
			<trkpt lat="42.933456" lon="-1.504797">
				<ele>543</ele>
				<time>2018-04-28T19:12:20Z</time>
			</trkpt>
			<trkpt lat="42.933449" lon="-1.504694">
				<ele>543</ele>
				<time>2018-04-28T19:12:23Z</time>
			</trkpt>
			<trkpt lat="42.93343" lon="-1.504634">
				<ele>543</ele>
				<time>2018-04-28T19:12:25Z</time>
			</trkpt>
			<trkpt lat="42.933432" lon="-1.504547">
				<ele>543</ele>
				<time>2018-04-28T19:12:28Z</time>
			</trkpt>
			<trkpt lat="42.933419" lon="-1.504455">
				<ele>543</ele>
				<time>2018-04-28T19:12:31Z</time>
			</trkpt>
			<trkpt lat="42.933415" lon="-1.504379">
				<ele>543</ele>
				<time>2018-04-28T19:12:33Z</time>
			</trkpt>
			<trkpt lat="42.933411" lon="-1.504309">
				<ele>543</ele>
				<time>2018-04-28T19:12:35Z</time>
			</trkpt>
			<trkpt lat="42.933404" lon="-1.504241">
				<ele>543</ele>
				<time>2018-04-28T19:12:37Z</time>
			</trkpt>
			<trkpt lat="42.933373" lon="-1.504182">
				<ele>543</ele>
				<time>2018-04-28T19:12:40Z</time>
			</trkpt>
			<trkpt lat="42.93333" lon="-1.504157">
				<ele>527</ele>
				<time>2018-04-28T19:12:42Z</time>
			</trkpt>
			<trkpt lat="42.933277" lon="-1.504149">
				<ele>527</ele>
				<time>2018-04-28T19:12:45Z</time>
			</trkpt>
			<trkpt lat="42.93322" lon="-1.504129">
				<ele>527</ele>
				<time>2018-04-28T19:12:48Z</time>
			</trkpt>
			<trkpt lat="42.933165" lon="-1.504106">
				<ele>527</ele>
				<time>2018-04-28T19:12:51Z</time>
			</trkpt>
			<trkpt lat="42.933115" lon="-1.5041">
				<ele>527</ele>
				<time>2018-04-28T19:12:53Z</time>
			</trkpt>
			<trkpt lat="42.933056" lon="-1.504109">
				<ele>527</ele>
				<time>2018-04-28T19:12:55Z</time>
			</trkpt>
			<trkpt lat="42.93307" lon="-1.504095">
				<ele>527</ele>
				<time>2018-04-28T08:00:47Z</time>
			</trkpt>
			<trkpt lat="42.933167" lon="-1.504089">
				<ele>527</ele>
				<time>2018-04-28T08:00:49Z</time>
			</trkpt>
			<trkpt lat="42.933218" lon="-1.504075">
				<ele>527</ele>
				<time>2018-04-28T08:00:50Z</time>
			</trkpt>
			<trkpt lat="42.933297" lon="-1.50407">
				<ele>527</ele>
				<time>2018-04-28T08:00:52Z</time>
			</trkpt>
			<trkpt lat="42.93337" lon="-1.504048">
				<ele>531</ele>
				<time>2018-04-28T08:00:54Z</time>
			</trkpt>
			<trkpt lat="42.93343" lon="-1.504028">
				<ele>531</ele>
				<time>2018-04-28T08:00:56Z</time>
			</trkpt>
			<trkpt lat="42.933483" lon="-1.504004">
				<ele>531</ele>
				<time>2018-04-28T08:00:58Z</time>
			</trkpt>
			<trkpt lat="42.933548" lon="-1.503979">
				<ele>531</ele>
				<time>2018-04-28T08:01:00Z</time>
			</trkpt>
			<trkpt lat="42.933617" lon="-1.503974">
				<ele>531</ele>
				<time>2018-04-28T08:01:02Z</time>
			</trkpt>
			<trkpt lat="42.933673" lon="-1.503963">
				<ele>531</ele>
				<time>2018-04-28T08:01:04Z</time>
			</trkpt>
			<trkpt lat="42.933734" lon="-1.503961">
				<ele>531</ele>
				<time>2018-04-28T08:01:06Z</time>
			</trkpt>
			<trkpt lat="42.933786" lon="-1.503958">
				<ele>531</ele>
				<time>2018-04-28T08:01:07Z</time>
			</trkpt>
			<trkpt lat="42.933835" lon="-1.503945">
				<ele>531</ele>
				<time>2018-04-28T08:01:09Z</time>
			</trkpt>
			<trkpt lat="42.933893" lon="-1.503929">
				<ele>531</ele>
				<time>2018-04-28T08:01:11Z</time>
			</trkpt>
			<trkpt lat="42.933948" lon="-1.503903">
				<ele>531</ele>
				<time>2018-04-28T08:01:13Z</time>
			</trkpt>
			<trkpt lat="42.934003" lon="-1.503902">
				<ele>531</ele>
				<time>2018-04-28T08:01:15Z</time>
			</trkpt>
			<trkpt lat="42.934077" lon="-1.503886">
				<ele>531</ele>
				<time>2018-04-28T08:01:17Z</time>
			</trkpt>
			<trkpt lat="42.934138" lon="-1.503861">
				<ele>531</ele>
				<time>2018-04-28T08:01:19Z</time>
			</trkpt>
			<trkpt lat="42.934203" lon="-1.503853">
				<ele>531</ele>
				<time>2018-04-28T08:01:21Z</time>
			</trkpt>
			<trkpt lat="42.934274" lon="-1.503836">
				<ele>531</ele>
				<time>2018-04-28T08:01:23Z</time>
			</trkpt>
			<trkpt lat="42.934326" lon="-1.503832">
				<ele>531</ele>
				<time>2018-04-28T08:01:25Z</time>
			</trkpt>
			<trkpt lat="42.934387" lon="-1.503822">
				<ele>531</ele>
				<time>2018-04-28T08:01:27Z</time>
			</trkpt>
			<trkpt lat="42.934444" lon="-1.503809">
				<ele>531</ele>
				<time>2018-04-28T08:01:29Z</time>
			</trkpt>
			<trkpt lat="42.934502" lon="-1.503798">
				<ele>531</ele>
				<time>2018-04-28T08:01:31Z</time>
			</trkpt>
			<trkpt lat="42.934556" lon="-1.503772">
				<ele>531</ele>
				<time>2018-04-28T08:01:33Z</time>
			</trkpt>
			<trkpt lat="42.934608" lon="-1.503733">
				<ele>531</ele>
				<time>2018-04-28T08:01:35Z</time>
			</trkpt>
			<trkpt lat="42.934649" lon="-1.503685">
				<ele>531</ele>
				<time>2018-04-28T08:01:37Z</time>
			</trkpt>
			<trkpt lat="42.934702" lon="-1.503633">
				<ele>531</ele>
				<time>2018-04-28T08:01:39Z</time>
			</trkpt>
			<trkpt lat="42.934744" lon="-1.503601">
				<ele>531</ele>
				<time>2018-04-28T08:01:41Z</time>
			</trkpt>
			<trkpt lat="42.934803" lon="-1.503559">
				<ele>531</ele>
				<time>2018-04-28T08:01:43Z</time>
			</trkpt>
			<trkpt lat="42.934857" lon="-1.503531">
				<ele>531</ele>
				<time>2018-04-28T08:01:45Z</time>
			</trkpt>
			<trkpt lat="42.934918" lon="-1.503491">
				<ele>531</ele>
				<time>2018-04-28T08:01:47Z</time>
			</trkpt>
			<trkpt lat="42.934976" lon="-1.503466">
				<ele>531</ele>
				<time>2018-04-28T08:01:49Z</time>
			</trkpt>
			<trkpt lat="42.935046" lon="-1.503427">
				<ele>531</ele>
				<time>2018-04-28T08:01:51Z</time>
			</trkpt>
			<trkpt lat="42.935111" lon="-1.503413">
				<ele>531</ele>
				<time>2018-04-28T08:01:53Z</time>
			</trkpt>
			<trkpt lat="42.935177" lon="-1.503402">
				<ele>531</ele>
				<time>2018-04-28T08:01:55Z</time>
			</trkpt>
			<trkpt lat="42.935234" lon="-1.503393">
				<ele>531</ele>
				<time>2018-04-28T08:01:57Z</time>
			</trkpt>
			<trkpt lat="42.935301" lon="-1.503376">
				<ele>531</ele>
				<time>2018-04-28T08:01:59Z</time>
			</trkpt>
			<trkpt lat="42.935369" lon="-1.503365">
				<ele>531</ele>
				<time>2018-04-28T08:02:01Z</time>
			</trkpt>
			<trkpt lat="42.935429" lon="-1.503365">
				<ele>531</ele>
				<time>2018-04-28T08:02:03Z</time>
			</trkpt>
			<trkpt lat="42.93548" lon="-1.503339">
				<ele>531</ele>
				<time>2018-04-28T08:02:05Z</time>
			</trkpt>
			<trkpt lat="42.935528" lon="-1.503321">
				<ele>531</ele>
				<time>2018-04-28T08:02:07Z</time>
			</trkpt>
			<trkpt lat="42.935584" lon="-1.503303">
				<ele>531</ele>
				<time>2018-04-28T08:02:09Z</time>
			</trkpt>
			<trkpt lat="42.935637" lon="-1.503275">
				<ele>531</ele>
				<time>2018-04-28T08:02:11Z</time>
			</trkpt>
			<trkpt lat="42.935687" lon="-1.50325">
				<ele>531</ele>
				<time>2018-04-28T08:02:13Z</time>
			</trkpt>
			<trkpt lat="42.935742" lon="-1.503238">
				<ele>531</ele>
				<time>2018-04-28T08:02:15Z</time>
			</trkpt>
			<trkpt lat="42.935802" lon="-1.503206">
				<ele>531</ele>
				<time>2018-04-28T08:02:17Z</time>
			</trkpt>
			<trkpt lat="42.935865" lon="-1.503175">
				<ele>531</ele>
				<time>2018-04-28T08:02:19Z</time>
			</trkpt>
			<trkpt lat="42.935917" lon="-1.503145">
				<ele>531</ele>
				<time>2018-04-28T08:02:21Z</time>
			</trkpt>
			<trkpt lat="42.935978" lon="-1.503122">
				<ele>531</ele>
				<time>2018-04-28T08:02:23Z</time>
			</trkpt>
			<trkpt lat="42.93604" lon="-1.503105">
				<ele>531</ele>
				<time>2018-04-28T08:02:25Z</time>
			</trkpt>
			<trkpt lat="42.936115" lon="-1.503104">
				<ele>531</ele>
				<time>2018-04-28T08:02:27Z</time>
			</trkpt>
			<trkpt lat="42.936178" lon="-1.503115">
				<ele>531</ele>
				<time>2018-04-28T08:02:29Z</time>
			</trkpt>
			<trkpt lat="42.936241" lon="-1.503115">
				<ele>531</ele>
				<time>2018-04-28T08:02:31Z</time>
			</trkpt>
			<trkpt lat="42.936298" lon="-1.503122">
				<ele>531</ele>
				<time>2018-04-28T08:02:33Z</time>
			</trkpt>
			<trkpt lat="42.936365" lon="-1.503126">
				<ele>531</ele>
				<time>2018-04-28T08:02:35Z</time>
			</trkpt>
			<trkpt lat="42.936429" lon="-1.503124">
				<ele>531</ele>
				<time>2018-04-28T08:02:37Z</time>
			</trkpt>
			<trkpt lat="42.936489" lon="-1.503142">
				<ele>531</ele>
				<time>2018-04-28T08:02:39Z</time>
			</trkpt>
			<trkpt lat="42.936547" lon="-1.503149">
				<ele>531</ele>
				<time>2018-04-28T08:02:41Z</time>
			</trkpt>
			<trkpt lat="42.936605" lon="-1.50317">
				<ele>531</ele>
				<time>2018-04-28T08:02:43Z</time>
			</trkpt>
			<trkpt lat="42.936671" lon="-1.503178">
				<ele>531</ele>
				<time>2018-04-28T08:02:45Z</time>
			</trkpt>
			<trkpt lat="42.936732" lon="-1.503189">
				<ele>531</ele>
				<time>2018-04-28T08:02:47Z</time>
			</trkpt>
			<trkpt lat="42.9368" lon="-1.50321">
				<ele>531</ele>
				<time>2018-04-28T08:02:49Z</time>
			</trkpt>
			<trkpt lat="42.936857" lon="-1.503235">
				<ele>531</ele>
				<time>2018-04-28T08:02:51Z</time>
			</trkpt>
			<trkpt lat="42.936923" lon="-1.503259">
				<ele>531</ele>
				<time>2018-04-28T08:02:53Z</time>
			</trkpt>
			<trkpt lat="42.936986" lon="-1.503275">
				<ele>531</ele>
				<time>2018-04-28T08:02:55Z</time>
			</trkpt>
			<trkpt lat="42.93705" lon="-1.503306">
				<ele>531</ele>
				<time>2018-04-28T08:02:57Z</time>
			</trkpt>
			<trkpt lat="42.937104" lon="-1.503313">
				<ele>531</ele>
				<time>2018-04-28T08:02:59Z</time>
			</trkpt>
			<trkpt lat="42.937158" lon="-1.503346">
				<ele>531</ele>
				<time>2018-04-28T08:03:01Z</time>
			</trkpt>
			<trkpt lat="42.937223" lon="-1.503369">
				<ele>531</ele>
				<time>2018-04-28T08:03:03Z</time>
			</trkpt>
			<trkpt lat="42.937283" lon="-1.503379">
				<ele>531</ele>
				<time>2018-04-28T08:03:05Z</time>
			</trkpt>
			<trkpt lat="42.937343" lon="-1.503403">
				<ele>531</ele>
				<time>2018-04-28T08:03:07Z</time>
			</trkpt>
			<trkpt lat="42.9374" lon="-1.503416">
				<ele>531</ele>
				<time>2018-04-28T08:03:09Z</time>
			</trkpt>
			<trkpt lat="42.937457" lon="-1.50343">
				<ele>531</ele>
				<time>2018-04-28T08:03:11Z</time>
			</trkpt>
			<trkpt lat="42.937514" lon="-1.503452">
				<ele>532</ele>
				<time>2018-04-28T08:03:13Z</time>
			</trkpt>
			<trkpt lat="42.937566" lon="-1.503464">
				<ele>532</ele>
				<time>2018-04-28T08:03:15Z</time>
			</trkpt>
			<trkpt lat="42.93763" lon="-1.503484">
				<ele>532</ele>
				<time>2018-04-28T08:03:17Z</time>
			</trkpt>
			<trkpt lat="42.937685" lon="-1.503491">
				<ele>532</ele>
				<time>2018-04-28T08:03:19Z</time>
			</trkpt>
			<trkpt lat="42.937745" lon="-1.503516">
				<ele>532</ele>
				<time>2018-04-28T08:03:21Z</time>
			</trkpt>
			<trkpt lat="42.937808" lon="-1.503525">
				<ele>532</ele>
				<time>2018-04-28T08:03:23Z</time>
			</trkpt>
			<trkpt lat="42.937867" lon="-1.503538">
				<ele>532</ele>
				<time>2018-04-28T08:03:25Z</time>
			</trkpt>
			<trkpt lat="42.937919" lon="-1.503549">
				<ele>532</ele>
				<time>2018-04-28T08:03:27Z</time>
			</trkpt>
			<trkpt lat="42.937969" lon="-1.50356">
				<ele>532</ele>
				<time>2018-04-28T08:03:29Z</time>
			</trkpt>
			<trkpt lat="42.938019" lon="-1.503574">
				<ele>532</ele>
				<time>2018-04-28T08:03:31Z</time>
			</trkpt>
			<trkpt lat="42.938071" lon="-1.503578">
				<ele>532</ele>
				<time>2018-04-28T08:03:33Z</time>
			</trkpt>
			<trkpt lat="42.938122" lon="-1.503582">
				<ele>532</ele>
				<time>2018-04-28T08:03:35Z</time>
			</trkpt>
			<trkpt lat="42.938191" lon="-1.503576">
				<ele>532</ele>
				<time>2018-04-28T08:03:37Z</time>
			</trkpt>
			<trkpt lat="42.938249" lon="-1.50358">
				<ele>532</ele>
				<time>2018-04-28T08:03:39Z</time>
			</trkpt>
			<trkpt lat="42.938303" lon="-1.503588">
				<ele>532</ele>
				<time>2018-04-28T08:03:41Z</time>
			</trkpt>
			<trkpt lat="42.938358" lon="-1.503588">
				<ele>532</ele>
				<time>2018-04-28T08:03:43Z</time>
			</trkpt>
			<trkpt lat="42.938414" lon="-1.503589">
				<ele>532</ele>
				<time>2018-04-28T08:03:45Z</time>
			</trkpt>
			<trkpt lat="42.938471" lon="-1.503601">
				<ele>532</ele>
				<time>2018-04-28T08:03:47Z</time>
			</trkpt>
			<trkpt lat="42.938532" lon="-1.503606">
				<ele>532</ele>
				<time>2018-04-28T08:03:49Z</time>
			</trkpt>
			<trkpt lat="42.938594" lon="-1.503599">
				<ele>532</ele>
				<time>2018-04-28T08:03:51Z</time>
			</trkpt>
			<trkpt lat="42.938649" lon="-1.50358">
				<ele>532</ele>
				<time>2018-04-28T08:03:53Z</time>
			</trkpt>
			<trkpt lat="42.938715" lon="-1.503587">
				<ele>532</ele>
				<time>2018-04-28T08:03:55Z</time>
			</trkpt>
			<trkpt lat="42.938775" lon="-1.503603">
				<ele>532</ele>
				<time>2018-04-28T08:03:57Z</time>
			</trkpt>
			<trkpt lat="42.938838" lon="-1.503604">
				<ele>532</ele>
				<time>2018-04-28T08:03:59Z</time>
			</trkpt>
			<trkpt lat="42.938889" lon="-1.503598">
				<ele>532</ele>
				<time>2018-04-28T08:04:01Z</time>
			</trkpt>
			<trkpt lat="42.938945" lon="-1.503592">
				<ele>532</ele>
				<time>2018-04-28T08:04:03Z</time>
			</trkpt>
			<trkpt lat="42.939001" lon="-1.503598">
				<ele>532</ele>
				<time>2018-04-28T08:04:05Z</time>
			</trkpt>
			<trkpt lat="42.939061" lon="-1.503595">
				<ele>532</ele>
				<time>2018-04-28T08:04:07Z</time>
			</trkpt>
			<trkpt lat="42.939117" lon="-1.503586">
				<ele>532</ele>
				<time>2018-04-28T08:04:09Z</time>
			</trkpt>
			<trkpt lat="42.939178" lon="-1.503584">
				<ele>532</ele>
				<time>2018-04-28T08:04:11Z</time>
			</trkpt>
			<trkpt lat="42.939239" lon="-1.503585">
				<ele>532</ele>
				<time>2018-04-28T08:04:13Z</time>
			</trkpt>
			<trkpt lat="42.939301" lon="-1.503585">
				<ele>532</ele>
				<time>2018-04-28T08:04:15Z</time>
			</trkpt>
			<trkpt lat="42.939361" lon="-1.503585">
				<ele>532</ele>
				<time>2018-04-28T08:04:17Z</time>
			</trkpt>
			<trkpt lat="42.939415" lon="-1.503585">
				<ele>532</ele>
				<time>2018-04-28T08:04:19Z</time>
			</trkpt>
			<trkpt lat="42.939485" lon="-1.503588">
				<ele>532</ele>
				<time>2018-04-28T08:04:21Z</time>
			</trkpt>
			<trkpt lat="42.939546" lon="-1.503575">
				<ele>532</ele>
				<time>2018-04-28T08:04:23Z</time>
			</trkpt>
			<trkpt lat="42.939599" lon="-1.503587">
				<ele>535</ele>
				<time>2018-04-28T08:04:25Z</time>
			</trkpt>
			<trkpt lat="42.939661" lon="-1.503585">
				<ele>535</ele>
				<time>2018-04-28T08:04:27Z</time>
			</trkpt>
			<trkpt lat="42.939723" lon="-1.503585">
				<ele>535</ele>
				<time>2018-04-28T08:04:29Z</time>
			</trkpt>
			<trkpt lat="42.939778" lon="-1.503578">
				<ele>535</ele>
				<time>2018-04-28T08:04:31Z</time>
			</trkpt>
			<trkpt lat="42.939835" lon="-1.503575">
				<ele>535</ele>
				<time>2018-04-28T08:04:33Z</time>
			</trkpt>
			<trkpt lat="42.939896" lon="-1.503563">
				<ele>535</ele>
				<time>2018-04-28T08:04:35Z</time>
			</trkpt>
			<trkpt lat="42.93996" lon="-1.503557">
				<ele>535</ele>
				<time>2018-04-28T08:04:37Z</time>
			</trkpt>
			<trkpt lat="42.940022" lon="-1.503557">
				<ele>535</ele>
				<time>2018-04-28T08:04:39Z</time>
			</trkpt>
			<trkpt lat="42.940082" lon="-1.503543">
				<ele>535</ele>
				<time>2018-04-28T08:04:41Z</time>
			</trkpt>
			<trkpt lat="42.940148" lon="-1.503528">
				<ele>535</ele>
				<time>2018-04-28T08:04:43Z</time>
			</trkpt>
			<trkpt lat="42.940201" lon="-1.503532">
				<ele>535</ele>
				<time>2018-04-28T08:04:45Z</time>
			</trkpt>
			<trkpt lat="42.940257" lon="-1.503525">
				<ele>535</ele>
				<time>2018-04-28T08:04:47Z</time>
			</trkpt>
			<trkpt lat="42.940304" lon="-1.503527">
				<ele>535</ele>
				<time>2018-04-28T08:04:49Z</time>
			</trkpt>
			<trkpt lat="42.940361" lon="-1.50352">
				<ele>535</ele>
				<time>2018-04-28T08:04:51Z</time>
			</trkpt>
			<trkpt lat="42.940412" lon="-1.503499">
				<ele>535</ele>
				<time>2018-04-28T08:04:53Z</time>
			</trkpt>
			<trkpt lat="42.940459" lon="-1.503496">
				<ele>535</ele>
				<time>2018-04-28T08:04:55Z</time>
			</trkpt>
			<trkpt lat="42.940527" lon="-1.503486">
				<ele>535</ele>
				<time>2018-04-28T08:04:57Z</time>
			</trkpt>
			<trkpt lat="42.940591" lon="-1.503487">
				<ele>535</ele>
				<time>2018-04-28T08:04:59Z</time>
			</trkpt>
			<trkpt lat="42.940657" lon="-1.503486">
				<ele>535</ele>
				<time>2018-04-28T08:05:01Z</time>
			</trkpt>
			<trkpt lat="42.940719" lon="-1.503491">
				<ele>535</ele>
				<time>2018-04-28T08:05:03Z</time>
			</trkpt>
			<trkpt lat="42.940784" lon="-1.503495">
				<ele>535</ele>
				<time>2018-04-28T08:05:05Z</time>
			</trkpt>
			<trkpt lat="42.940839" lon="-1.503485">
				<ele>535</ele>
				<time>2018-04-28T08:05:07Z</time>
			</trkpt>
			<trkpt lat="42.940896" lon="-1.503474">
				<ele>535</ele>
				<time>2018-04-28T08:05:09Z</time>
			</trkpt>
			<trkpt lat="42.940953" lon="-1.503472">
				<ele>535</ele>
				<time>2018-04-28T08:05:11Z</time>
			</trkpt>
			<trkpt lat="42.941014" lon="-1.503467">
				<ele>535</ele>
				<time>2018-04-28T08:05:13Z</time>
			</trkpt>
			<trkpt lat="42.94107" lon="-1.503472">
				<ele>535</ele>
				<time>2018-04-28T08:05:15Z</time>
			</trkpt>
			<trkpt lat="42.941126" lon="-1.503466">
				<ele>535</ele>
				<time>2018-04-28T08:05:17Z</time>
			</trkpt>
			<trkpt lat="42.941192" lon="-1.503456">
				<ele>535</ele>
				<time>2018-04-28T08:05:19Z</time>
			</trkpt>
			<trkpt lat="42.941252" lon="-1.50344">
				<ele>535</ele>
				<time>2018-04-28T08:05:21Z</time>
			</trkpt>
			<trkpt lat="42.9413" lon="-1.503443">
				<ele>535</ele>
				<time>2018-04-28T08:05:23Z</time>
			</trkpt>
			<trkpt lat="42.941355" lon="-1.503434">
				<ele>535</ele>
				<time>2018-04-28T08:05:25Z</time>
			</trkpt>
			<trkpt lat="42.941415" lon="-1.503433">
				<ele>535</ele>
				<time>2018-04-28T08:05:27Z</time>
			</trkpt>
			<trkpt lat="42.941474" lon="-1.503429">
				<ele>535</ele>
				<time>2018-04-28T08:05:29Z</time>
			</trkpt>
			<trkpt lat="42.941532" lon="-1.503428">
				<ele>535</ele>
				<time>2018-04-28T08:05:31Z</time>
			</trkpt>
			<trkpt lat="42.941594" lon="-1.503408">
				<ele>535</ele>
				<time>2018-04-28T08:05:33Z</time>
			</trkpt>
			<trkpt lat="42.941651" lon="-1.5034">
				<ele>535</ele>
				<time>2018-04-28T08:05:35Z</time>
			</trkpt>
			<trkpt lat="42.941708" lon="-1.503398">
				<ele>537</ele>
				<time>2018-04-28T08:05:37Z</time>
			</trkpt>
			<trkpt lat="42.941764" lon="-1.503408">
				<ele>537</ele>
				<time>2018-04-28T08:05:39Z</time>
			</trkpt>
			<trkpt lat="42.941819" lon="-1.503415">
				<ele>537</ele>
				<time>2018-04-28T08:05:41Z</time>
			</trkpt>
			<trkpt lat="42.941879" lon="-1.503416">
				<ele>537</ele>
				<time>2018-04-28T08:05:43Z</time>
			</trkpt>
			<trkpt lat="42.941941" lon="-1.503401">
				<ele>537</ele>
				<time>2018-04-28T08:05:45Z</time>
			</trkpt>
			<trkpt lat="42.941998" lon="-1.503392">
				<ele>537</ele>
				<time>2018-04-28T08:05:47Z</time>
			</trkpt>
			<trkpt lat="42.942061" lon="-1.50337">
				<ele>537</ele>
				<time>2018-04-28T08:05:49Z</time>
			</trkpt>
			<trkpt lat="42.942112" lon="-1.503368">
				<ele>537</ele>
				<time>2018-04-28T08:05:51Z</time>
			</trkpt>
			<trkpt lat="42.942175" lon="-1.503363">
				<ele>537</ele>
				<time>2018-04-28T08:05:53Z</time>
			</trkpt>
			<trkpt lat="42.942226" lon="-1.503356">
				<ele>537</ele>
				<time>2018-04-28T08:05:55Z</time>
			</trkpt>
			<trkpt lat="42.942281" lon="-1.503361">
				<ele>537</ele>
				<time>2018-04-28T08:05:57Z</time>
			</trkpt>
			<trkpt lat="42.942338" lon="-1.503354">
				<ele>537</ele>
				<time>2018-04-28T08:05:59Z</time>
			</trkpt>
			<trkpt lat="42.942399" lon="-1.503357">
				<ele>537</ele>
				<time>2018-04-28T08:06:01Z</time>
			</trkpt>
			<trkpt lat="42.942455" lon="-1.503339">
				<ele>537</ele>
				<time>2018-04-28T08:06:03Z</time>
			</trkpt>
			<trkpt lat="42.942516" lon="-1.503343">
				<ele>537</ele>
				<time>2018-04-28T08:06:05Z</time>
			</trkpt>
			<trkpt lat="42.942574" lon="-1.503344">
				<ele>537</ele>
				<time>2018-04-28T08:06:07Z</time>
			</trkpt>
			<trkpt lat="42.942644" lon="-1.503345">
				<ele>537</ele>
				<time>2018-04-28T08:06:10Z</time>
			</trkpt>
			<trkpt lat="42.942709" lon="-1.50334">
				<ele>537</ele>
				<time>2018-04-28T08:06:12Z</time>
			</trkpt>
			<trkpt lat="42.942766" lon="-1.503327">
				<ele>537</ele>
				<time>2018-04-28T08:06:14Z</time>
			</trkpt>
			<trkpt lat="42.942827" lon="-1.503323">
				<ele>537</ele>
				<time>2018-04-28T08:06:16Z</time>
			</trkpt>
			<trkpt lat="42.942879" lon="-1.503323">
				<ele>537</ele>
				<time>2018-04-28T08:06:18Z</time>
			</trkpt>
			<trkpt lat="42.942929" lon="-1.503304">
				<ele>537</ele>
				<time>2018-04-28T08:06:20Z</time>
			</trkpt>
			<trkpt lat="42.942988" lon="-1.503298">
				<ele>537</ele>
				<time>2018-04-28T08:06:22Z</time>
			</trkpt>
			<trkpt lat="42.943048" lon="-1.503288">
				<ele>537</ele>
				<time>2018-04-28T08:06:24Z</time>
			</trkpt>
			<trkpt lat="42.943101" lon="-1.503281">
				<ele>537</ele>
				<time>2018-04-28T08:06:26Z</time>
			</trkpt>
			<trkpt lat="42.943156" lon="-1.503274">
				<ele>537</ele>
				<time>2018-04-28T08:06:28Z</time>
			</trkpt>
			<trkpt lat="42.943202" lon="-1.503273">
				<ele>537</ele>
				<time>2018-04-28T08:06:30Z</time>
			</trkpt>
			<trkpt lat="42.943253" lon="-1.503263">
				<ele>537</ele>
				<time>2018-04-28T08:06:32Z</time>
			</trkpt>
			<trkpt lat="42.943304" lon="-1.503257">
				<ele>537</ele>
				<time>2018-04-28T08:06:34Z</time>
			</trkpt>
			<trkpt lat="42.943361" lon="-1.503244">
				<ele>537</ele>
				<time>2018-04-28T08:06:36Z</time>
			</trkpt>
			<trkpt lat="42.943417" lon="-1.503208">
				<ele>537</ele>
				<time>2018-04-28T08:06:38Z</time>
			</trkpt>
			<trkpt lat="42.943475" lon="-1.503181">
				<ele>537</ele>
				<time>2018-04-28T08:06:40Z</time>
			</trkpt>
			<trkpt lat="42.943525" lon="-1.503174">
				<ele>537</ele>
				<time>2018-04-28T08:06:42Z</time>
			</trkpt>
			<trkpt lat="42.943578" lon="-1.503151">
				<ele>537</ele>
				<time>2018-04-28T08:06:44Z</time>
			</trkpt>
			<trkpt lat="42.943636" lon="-1.503135">
				<ele>537</ele>
				<time>2018-04-28T08:06:46Z</time>
			</trkpt>
			<trkpt lat="42.94368" lon="-1.503099">
				<ele>537</ele>
				<time>2018-04-28T08:06:48Z</time>
			</trkpt>
			<trkpt lat="42.943721" lon="-1.50307">
				<ele>537</ele>
				<time>2018-04-28T08:06:50Z</time>
			</trkpt>
			<trkpt lat="42.943787" lon="-1.503038">
				<ele>548</ele>
				<time>2018-04-28T08:06:53Z</time>
			</trkpt>
			<trkpt lat="42.943842" lon="-1.503002">
				<ele>548</ele>
				<time>2018-04-28T08:06:55Z</time>
			</trkpt>
			<trkpt lat="42.943911" lon="-1.502958">
				<ele>548</ele>
				<time>2018-04-28T08:06:57Z</time>
			</trkpt>
			<trkpt lat="42.943957" lon="-1.502914">
				<ele>548</ele>
				<time>2018-04-28T08:06:59Z</time>
			</trkpt>
			<trkpt lat="42.944009" lon="-1.502873">
				<ele>548</ele>
				<time>2018-04-28T08:07:01Z</time>
			</trkpt>
			<trkpt lat="42.94405" lon="-1.50283">
				<ele>548</ele>
				<time>2018-04-28T08:07:03Z</time>
			</trkpt>
			<trkpt lat="42.944106" lon="-1.502789">
				<ele>548</ele>
				<time>2018-04-28T08:07:05Z</time>
			</trkpt>
			<trkpt lat="42.94417" lon="-1.502734">
				<ele>548</ele>
				<time>2018-04-28T08:07:08Z</time>
			</trkpt>
			<trkpt lat="42.94421" lon="-1.502693">
				<ele>548</ele>
				<time>2018-04-28T08:07:10Z</time>
			</trkpt>
			<trkpt lat="42.944258" lon="-1.502664">
				<ele>548</ele>
				<time>2018-04-28T08:07:12Z</time>
			</trkpt>
			<trkpt lat="42.944313" lon="-1.502621">
				<ele>548</ele>
				<time>2018-04-28T08:07:14Z</time>
			</trkpt>
			<trkpt lat="42.944357" lon="-1.502573">
				<ele>548</ele>
				<time>2018-04-28T08:07:16Z</time>
			</trkpt>
			<trkpt lat="42.944405" lon="-1.502537">
				<ele>548</ele>
				<time>2018-04-28T08:07:18Z</time>
			</trkpt>
			<trkpt lat="42.944461" lon="-1.502502">
				<ele>548</ele>
				<time>2018-04-28T08:07:20Z</time>
			</trkpt>
			<trkpt lat="42.944507" lon="-1.502469">
				<ele>548</ele>
				<time>2018-04-28T08:07:22Z</time>
			</trkpt>
			<trkpt lat="42.944563" lon="-1.502433">
				<ele>548</ele>
				<time>2018-04-28T08:07:24Z</time>
			</trkpt>
			<trkpt lat="42.944618" lon="-1.502409">
				<ele>548</ele>
				<time>2018-04-28T08:07:26Z</time>
			</trkpt>
			<trkpt lat="42.944667" lon="-1.502388">
				<ele>548</ele>
				<time>2018-04-28T08:07:28Z</time>
			</trkpt>
			<trkpt lat="42.944723" lon="-1.502357">
				<ele>548</ele>
				<time>2018-04-28T08:07:30Z</time>
			</trkpt>
			<trkpt lat="42.944787" lon="-1.50233">
				<ele>548</ele>
				<time>2018-04-28T08:07:32Z</time>
			</trkpt>
			<trkpt lat="42.944838" lon="-1.502317">
				<ele>548</ele>
				<time>2018-04-28T08:07:34Z</time>
			</trkpt>
			<trkpt lat="42.944884" lon="-1.502279">
				<ele>548</ele>
				<time>2018-04-28T08:07:36Z</time>
			</trkpt>
			<trkpt lat="42.944932" lon="-1.502243">
				<ele>548</ele>
				<time>2018-04-28T08:07:38Z</time>
			</trkpt>
			<trkpt lat="42.945" lon="-1.502212">
				<ele>548</ele>
				<time>2018-04-28T08:07:40Z</time>
			</trkpt>
			<trkpt lat="42.945071" lon="-1.502183">
				<ele>548</ele>
				<time>2018-04-28T08:07:42Z</time>
			</trkpt>
			<trkpt lat="42.945124" lon="-1.502168">
				<ele>548</ele>
				<time>2018-04-28T08:07:44Z</time>
			</trkpt>
			<trkpt lat="42.945188" lon="-1.502168">
				<ele>548</ele>
				<time>2018-04-28T08:07:46Z</time>
			</trkpt>
			<trkpt lat="42.945257" lon="-1.502171">
				<ele>548</ele>
				<time>2018-04-28T08:07:48Z</time>
			</trkpt>
			<trkpt lat="42.945324" lon="-1.502133">
				<ele>548</ele>
				<time>2018-04-28T08:07:50Z</time>
			</trkpt>
			<trkpt lat="42.945381" lon="-1.502089">
				<ele>548</ele>
				<time>2018-04-28T08:07:52Z</time>
			</trkpt>
			<trkpt lat="42.945445" lon="-1.50203">
				<ele>538</ele>
				<time>2018-04-28T08:07:54Z</time>
			</trkpt>
			<trkpt lat="42.945489" lon="-1.501961">
				<ele>538</ele>
				<time>2018-04-28T08:07:56Z</time>
			</trkpt>
			<trkpt lat="42.945536" lon="-1.501881">
				<ele>538</ele>
				<time>2018-04-28T08:07:58Z</time>
			</trkpt>
			<trkpt lat="42.945565" lon="-1.501817">
				<ele>538</ele>
				<time>2018-04-28T08:08:00Z</time>
			</trkpt>
			<trkpt lat="42.945591" lon="-1.501739">
				<ele>538</ele>
				<time>2018-04-28T08:08:02Z</time>
			</trkpt>
			<trkpt lat="42.945588" lon="-1.501646">
				<ele>538</ele>
				<time>2018-04-28T08:08:04Z</time>
			</trkpt>
			<trkpt lat="42.945581" lon="-1.501579">
				<ele>538</ele>
				<time>2018-04-28T08:08:06Z</time>
			</trkpt>
			<trkpt lat="42.945591" lon="-1.501502">
				<ele>538</ele>
				<time>2018-04-28T08:08:08Z</time>
			</trkpt>
			<trkpt lat="42.945589" lon="-1.501439">
				<ele>538</ele>
				<time>2018-04-28T08:08:10Z</time>
			</trkpt>
			<trkpt lat="42.945603" lon="-1.50137">
				<ele>538</ele>
				<time>2018-04-28T08:08:12Z</time>
			</trkpt>
			<trkpt lat="42.945618" lon="-1.5013">
				<ele>538</ele>
				<time>2018-04-28T08:08:14Z</time>
			</trkpt>
			<trkpt lat="42.945668" lon="-1.501231">
				<ele>538</ele>
				<time>2018-04-28T08:08:16Z</time>
			</trkpt>
			<trkpt lat="42.945663" lon="-1.501177">
				<ele>538</ele>
				<time>2018-04-28T08:08:18Z</time>
			</trkpt>
			<trkpt lat="42.945675" lon="-1.501113">
				<ele>538</ele>
				<time>2018-04-28T08:08:20Z</time>
			</trkpt>
			<trkpt lat="42.945716" lon="-1.501055">
				<ele>538</ele>
				<time>2018-04-28T08:08:22Z</time>
			</trkpt>
			<trkpt lat="42.945776" lon="-1.501023">
				<ele>538</ele>
				<time>2018-04-28T08:08:24Z</time>
			</trkpt>
			<trkpt lat="42.945837" lon="-1.500992">
				<ele>556</ele>
				<time>2018-04-28T08:08:26Z</time>
			</trkpt>
			<trkpt lat="42.945909" lon="-1.500983">
				<ele>556</ele>
				<time>2018-04-28T08:08:28Z</time>
			</trkpt>
			<trkpt lat="42.945966" lon="-1.500979">
				<ele>556</ele>
				<time>2018-04-28T08:08:30Z</time>
			</trkpt>
			<trkpt lat="42.946013" lon="-1.500977">
				<ele>556</ele>
				<time>2018-04-28T08:08:32Z</time>
			</trkpt>
			<trkpt lat="42.94608" lon="-1.500957">
				<ele>556</ele>
				<time>2018-04-28T08:08:35Z</time>
			</trkpt>
			<trkpt lat="42.946136" lon="-1.500933">
				<ele>556</ele>
				<time>2018-04-28T08:08:38Z</time>
			</trkpt>
			<trkpt lat="42.946183" lon="-1.500926">
				<ele>556</ele>
				<time>2018-04-28T08:08:40Z</time>
			</trkpt>
			<trkpt lat="42.946245" lon="-1.50091">
				<ele>556</ele>
				<time>2018-04-28T08:08:43Z</time>
			</trkpt>
			<trkpt lat="42.946296" lon="-1.50092">
				<ele>556</ele>
				<time>2018-04-28T08:08:46Z</time>
			</trkpt>
			<trkpt lat="42.946344" lon="-1.500935">
				<ele>556</ele>
				<time>2018-04-28T08:08:49Z</time>
			</trkpt>
			<trkpt lat="42.946395" lon="-1.500924">
				<ele>556</ele>
				<time>2018-04-28T08:08:54Z</time>
			</trkpt>
			<trkpt lat="42.94644" lon="-1.500929">
				<ele>556</ele>
				<time>2018-04-28T08:08:57Z</time>
			</trkpt>
			<trkpt lat="42.946492" lon="-1.500934">
				<ele>556</ele>
				<time>2018-04-28T08:09:01Z</time>
			</trkpt>
			<trkpt lat="42.946545" lon="-1.500924">
				<ele>556</ele>
				<time>2018-04-28T08:09:03Z</time>
			</trkpt>
			<trkpt lat="42.946596" lon="-1.500951">
				<ele>556</ele>
				<time>2018-04-28T08:09:05Z</time>
			</trkpt>
			<trkpt lat="42.946639" lon="-1.500997">
				<ele>556</ele>
				<time>2018-04-28T08:09:08Z</time>
			</trkpt>
			<trkpt lat="42.946678" lon="-1.501042">
				<ele>556</ele>
				<time>2018-04-28T08:09:10Z</time>
			</trkpt>
			<trkpt lat="42.946729" lon="-1.501083">
				<ele>556</ele>
				<time>2018-04-28T08:09:13Z</time>
			</trkpt>
			<trkpt lat="42.946774" lon="-1.501091">
				<ele>556</ele>
				<time>2018-04-28T08:09:15Z</time>
			</trkpt>
			<trkpt lat="42.946832" lon="-1.50111">
				<ele>556</ele>
				<time>2018-04-28T08:09:18Z</time>
			</trkpt>
			<trkpt lat="42.946891" lon="-1.501115">
				<ele>556</ele>
				<time>2018-04-28T08:09:21Z</time>
			</trkpt>
			<trkpt lat="42.946941" lon="-1.501133">
				<ele>556</ele>
				<time>2018-04-28T08:09:24Z</time>
			</trkpt>
			<trkpt lat="42.946989" lon="-1.501153">
				<ele>556</ele>
				<time>2018-04-28T08:09:26Z</time>
			</trkpt>
			<trkpt lat="42.947052" lon="-1.501185">
				<ele>556</ele>
				<time>2018-04-28T08:09:29Z</time>
			</trkpt>
			<trkpt lat="42.947097" lon="-1.501202">
				<ele>556</ele>
				<time>2018-04-28T08:09:31Z</time>
			</trkpt>
			<trkpt lat="42.947165" lon="-1.501215">
				<ele>556</ele>
				<time>2018-04-28T08:09:34Z</time>
			</trkpt>
			<trkpt lat="42.947222" lon="-1.501233">
				<ele>556</ele>
				<time>2018-04-28T08:09:36Z</time>
			</trkpt>
			<trkpt lat="42.94728" lon="-1.501254">
				<ele>556</ele>
				<time>2018-04-28T08:09:38Z</time>
			</trkpt>
			<trkpt lat="42.94734" lon="-1.501252">
				<ele>556</ele>
				<time>2018-04-28T08:09:40Z</time>
			</trkpt>
			<trkpt lat="42.947396" lon="-1.50124">
				<ele>556</ele>
				<time>2018-04-28T08:09:42Z</time>
			</trkpt>
			<trkpt lat="42.947446" lon="-1.50123">
				<ele>556</ele>
				<time>2018-04-28T08:09:44Z</time>
			</trkpt>
			<trkpt lat="42.94751" lon="-1.501193">
				<ele>556</ele>
				<time>2018-04-28T08:09:46Z</time>
			</trkpt>
			<trkpt lat="42.947555" lon="-1.501174">
				<ele>556</ele>
				<time>2018-04-28T08:09:48Z</time>
			</trkpt>
			<trkpt lat="42.947603" lon="-1.501191">
				<ele>556</ele>
				<time>2018-04-28T08:09:51Z</time>
			</trkpt>
			<trkpt lat="42.947615" lon="-1.501258">
				<ele>556</ele>
				<time>2018-04-28T08:09:55Z</time>
			</trkpt>
			<trkpt lat="42.947612" lon="-1.501325">
				<ele>556</ele>
				<time>2018-04-28T08:09:57Z</time>
			</trkpt>
			<trkpt lat="42.947618" lon="-1.50141">
				<ele>556</ele>
				<time>2018-04-28T08:09:59Z</time>
			</trkpt>
			<trkpt lat="42.94764" lon="-1.501474">
				<ele>556</ele>
				<time>2018-04-28T08:10:01Z</time>
			</trkpt>
			<trkpt lat="42.947667" lon="-1.501538">
				<ele>556</ele>
				<time>2018-04-28T08:10:03Z</time>
			</trkpt>
			<trkpt lat="42.947708" lon="-1.501592">
				<ele>556</ele>
				<time>2018-04-28T08:10:06Z</time>
			</trkpt>
			<trkpt lat="42.947742" lon="-1.501646">
				<ele>556</ele>
				<time>2018-04-28T08:10:08Z</time>
			</trkpt>
			<trkpt lat="42.947786" lon="-1.50172">
				<ele>556</ele>
				<time>2018-04-28T08:10:11Z</time>
			</trkpt>
			<trkpt lat="42.947824" lon="-1.501777">
				<ele>556</ele>
				<time>2018-04-28T08:10:13Z</time>
			</trkpt>
			<trkpt lat="42.947862" lon="-1.50182">
				<ele>556</ele>
				<time>2018-04-28T08:10:15Z</time>
			</trkpt>
			<trkpt lat="42.947893" lon="-1.501871">
				<ele>556</ele>
				<time>2018-04-28T08:10:17Z</time>
			</trkpt>
			<trkpt lat="42.94792" lon="-1.501929">
				<ele>630</ele>
				<time>2018-04-28T08:10:19Z</time>
			</trkpt>
			<trkpt lat="42.947957" lon="-1.501987">
				<ele>630</ele>
				<time>2018-04-28T08:10:21Z</time>
			</trkpt>
			<trkpt lat="42.947997" lon="-1.502027">
				<ele>630</ele>
				<time>2018-04-28T08:10:23Z</time>
			</trkpt>
			<trkpt lat="42.94803" lon="-1.502091">
				<ele>593</ele>
				<time>2018-04-28T08:10:25Z</time>
			</trkpt>
			<trkpt lat="42.948063" lon="-1.502138">
				<ele>593</ele>
				<time>2018-04-28T08:10:27Z</time>
			</trkpt>
			<trkpt lat="42.94811" lon="-1.502189">
				<ele>593</ele>
				<time>2018-04-28T08:10:30Z</time>
			</trkpt>
			<trkpt lat="42.948148" lon="-1.50223">
				<ele>593</ele>
				<time>2018-04-28T08:10:33Z</time>
			</trkpt>
			<trkpt lat="42.948189" lon="-1.502275">
				<ele>593</ele>
				<time>2018-04-28T08:10:37Z</time>
			</trkpt>
			<trkpt lat="42.94823" lon="-1.502309">
				<ele>593</ele>
				<time>2018-04-28T08:10:40Z</time>
			</trkpt>
			<trkpt lat="42.948276" lon="-1.502349">
				<ele>593</ele>
				<time>2018-04-28T08:10:43Z</time>
			</trkpt>
			<trkpt lat="42.948316" lon="-1.502405">
				<ele>593</ele>
				<time>2018-04-28T08:10:47Z</time>
			</trkpt>
			<trkpt lat="42.948357" lon="-1.502456">
				<ele>593</ele>
				<time>2018-04-28T08:10:50Z</time>
			</trkpt>
			<trkpt lat="42.948398" lon="-1.50251">
				<ele>593</ele>
				<time>2018-04-28T08:10:53Z</time>
			</trkpt>
			<trkpt lat="42.948433" lon="-1.502578">
				<ele>593</ele>
				<time>2018-04-28T08:10:57Z</time>
			</trkpt>
			<trkpt lat="42.948457" lon="-1.502632">
				<ele>593</ele>
				<time>2018-04-28T08:11:00Z</time>
			</trkpt>
			<trkpt lat="42.948479" lon="-1.502687">
				<ele>593</ele>
				<time>2018-04-28T08:11:03Z</time>
			</trkpt>
			<trkpt lat="42.948505" lon="-1.502746">
				<ele>593</ele>
				<time>2018-04-28T08:11:07Z</time>
			</trkpt>
			<trkpt lat="42.948545" lon="-1.502784">
				<ele>593</ele>
				<time>2018-04-28T08:11:11Z</time>
			</trkpt>
			<trkpt lat="42.948593" lon="-1.50283">
				<ele>593</ele>
				<time>2018-04-28T08:11:15Z</time>
			</trkpt>
			<trkpt lat="42.948626" lon="-1.502872">
				<ele>593</ele>
				<time>2018-04-28T08:11:19Z</time>
			</trkpt>
			<trkpt lat="42.94865" lon="-1.502942">
				<ele>593</ele>
				<time>2018-04-28T08:11:23Z</time>
			</trkpt>
			<trkpt lat="42.948665" lon="-1.503001">
				<ele>593</ele>
				<time>2018-04-28T08:11:27Z</time>
			</trkpt>
			<trkpt lat="42.948698" lon="-1.503049">
				<ele>593</ele>
				<time>2018-04-28T08:11:31Z</time>
			</trkpt>
			<trkpt lat="42.948743" lon="-1.503083">
				<ele>593</ele>
				<time>2018-04-28T08:11:36Z</time>
			</trkpt>
			<trkpt lat="42.948784" lon="-1.503143">
				<ele>593</ele>
				<time>2018-04-28T08:11:40Z</time>
			</trkpt>
			<trkpt lat="42.948816" lon="-1.503186">
				<ele>593</ele>
				<time>2018-04-28T08:11:43Z</time>
			</trkpt>
			<trkpt lat="42.948852" lon="-1.503223">
				<ele>593</ele>
				<time>2018-04-28T08:11:47Z</time>
			</trkpt>
			<trkpt lat="42.948876" lon="-1.503284">
				<ele>593</ele>
				<time>2018-04-28T08:11:52Z</time>
			</trkpt>
			<trkpt lat="42.948918" lon="-1.503332">
				<ele>593</ele>
				<time>2018-04-28T08:11:56Z</time>
			</trkpt>
			<trkpt lat="42.948945" lon="-1.503382">
				<ele>593</ele>
				<time>2018-04-28T08:12:00Z</time>
			</trkpt>
			<trkpt lat="42.948987" lon="-1.503422">
				<ele>593</ele>
				<time>2018-04-28T08:12:06Z</time>
			</trkpt>
			<trkpt lat="42.949032" lon="-1.503452">
				<ele>593</ele>
				<time>2018-04-28T08:12:10Z</time>
			</trkpt>
			<trkpt lat="42.949082" lon="-1.503474">
				<ele>593</ele>
				<time>2018-04-28T08:12:15Z</time>
			</trkpt>
			<trkpt lat="42.949119" lon="-1.50351">
				<ele>593</ele>
				<time>2018-04-28T08:12:19Z</time>
			</trkpt>
			<trkpt lat="42.949154" lon="-1.503565">
				<ele>593</ele>
				<time>2018-04-28T08:12:24Z</time>
			</trkpt>
			<trkpt lat="42.94917" lon="-1.503623">
				<ele>593</ele>
				<time>2018-04-28T08:12:27Z</time>
			</trkpt>
			<trkpt lat="42.949191" lon="-1.503678">
				<ele>593</ele>
				<time>2018-04-28T08:12:30Z</time>
			</trkpt>
			<trkpt lat="42.949208" lon="-1.503742">
				<ele>593</ele>
				<time>2018-04-28T08:12:34Z</time>
			</trkpt>
			<trkpt lat="42.949234" lon="-1.503807">
				<ele>593</ele>
				<time>2018-04-28T08:12:38Z</time>
			</trkpt>
			<trkpt lat="42.949244" lon="-1.50387">
				<ele>593</ele>
				<time>2018-04-28T08:12:42Z</time>
			</trkpt>
			<trkpt lat="42.94925" lon="-1.503945">
				<ele>593</ele>
				<time>2018-04-28T08:12:47Z</time>
			</trkpt>
			<trkpt lat="42.949263" lon="-1.504008">
				<ele>593</ele>
				<time>2018-04-28T08:12:52Z</time>
			</trkpt>
			<trkpt lat="42.949249" lon="-1.504089">
				<ele>593</ele>
				<time>2018-04-28T08:12:57Z</time>
			</trkpt>
			<trkpt lat="42.949263" lon="-1.504158">
				<ele>593</ele>
				<time>2018-04-28T08:13:01Z</time>
			</trkpt>
			<trkpt lat="42.949273" lon="-1.50422">
				<ele>581</ele>
				<time>2018-04-28T08:13:05Z</time>
			</trkpt>
			<trkpt lat="42.949292" lon="-1.504282">
				<ele>581</ele>
				<time>2018-04-28T08:13:08Z</time>
			</trkpt>
			<trkpt lat="42.9493" lon="-1.504357">
				<ele>581</ele>
				<time>2018-04-28T08:13:12Z</time>
			</trkpt>
			<trkpt lat="42.949312" lon="-1.504424">
				<ele>581</ele>
				<time>2018-04-28T08:13:17Z</time>
			</trkpt>
			<trkpt lat="42.94932" lon="-1.504484">
				<ele>581</ele>
				<time>2018-04-28T08:13:23Z</time>
			</trkpt>
			<trkpt lat="42.949327" lon="-1.504548">
				<ele>581</ele>
				<time>2018-04-28T08:13:27Z</time>
			</trkpt>
			<trkpt lat="42.949334" lon="-1.504623">
				<ele>581</ele>
				<time>2018-04-28T08:13:31Z</time>
			</trkpt>
			<trkpt lat="42.949361" lon="-1.504683">
				<ele>581</ele>
				<time>2018-04-28T08:13:34Z</time>
			</trkpt>
			<trkpt lat="42.94939" lon="-1.504735">
				<ele>581</ele>
				<time>2018-04-28T08:13:39Z</time>
			</trkpt>
			<trkpt lat="42.949419" lon="-1.504783">
				<ele>581</ele>
				<time>2018-04-28T08:13:43Z</time>
			</trkpt>
			<trkpt lat="42.949438" lon="-1.504854">
				<ele>581</ele>
				<time>2018-04-28T08:13:47Z</time>
			</trkpt>
			<trkpt lat="42.949462" lon="-1.504924">
				<ele>581</ele>
				<time>2018-04-28T08:13:51Z</time>
			</trkpt>
			<trkpt lat="42.949495" lon="-1.50497">
				<ele>581</ele>
				<time>2018-04-28T08:13:56Z</time>
			</trkpt>
			<trkpt lat="42.949513" lon="-1.505032">
				<ele>581</ele>
				<time>2018-04-28T08:14:00Z</time>
			</trkpt>
			<trkpt lat="42.949548" lon="-1.505078">
				<ele>581</ele>
				<time>2018-04-28T08:14:04Z</time>
			</trkpt>
			<trkpt lat="42.949579" lon="-1.505125">
				<ele>581</ele>
				<time>2018-04-28T08:14:08Z</time>
			</trkpt>
			<trkpt lat="42.949604" lon="-1.50519">
				<ele>581</ele>
				<time>2018-04-28T08:14:13Z</time>
			</trkpt>
			<trkpt lat="42.949617" lon="-1.505251">
				<ele>581</ele>
				<time>2018-04-28T08:14:17Z</time>
			</trkpt>
			<trkpt lat="42.949616" lon="-1.505323">
				<ele>581</ele>
				<time>2018-04-28T08:14:21Z</time>
			</trkpt>
			<trkpt lat="42.949637" lon="-1.505393">
				<ele>581</ele>
				<time>2018-04-28T08:14:25Z</time>
			</trkpt>
			<trkpt lat="42.94965" lon="-1.505459">
				<ele>581</ele>
				<time>2018-04-28T08:14:30Z</time>
			</trkpt>
			<trkpt lat="42.949671" lon="-1.505525">
				<ele>581</ele>
				<time>2018-04-28T08:14:34Z</time>
			</trkpt>
			<trkpt lat="42.94969" lon="-1.505586">
				<ele>581</ele>
				<time>2018-04-28T08:14:38Z</time>
			</trkpt>
			<trkpt lat="42.949702" lon="-1.505656">
				<ele>581</ele>
				<time>2018-04-28T08:14:42Z</time>
			</trkpt>
			<trkpt lat="42.949727" lon="-1.505712">
				<ele>581</ele>
				<time>2018-04-28T08:14:46Z</time>
			</trkpt>
			<trkpt lat="42.949736" lon="-1.505786">
				<ele>581</ele>
				<time>2018-04-28T08:14:51Z</time>
			</trkpt>
			<trkpt lat="42.94973" lon="-1.50586">
				<ele>581</ele>
				<time>2018-04-28T08:14:55Z</time>
			</trkpt>
			<trkpt lat="42.949751" lon="-1.505927">
				<ele>581</ele>
				<time>2018-04-28T08:14:58Z</time>
			</trkpt>
			<trkpt lat="42.949768" lon="-1.505999">
				<ele>581</ele>
				<time>2018-04-28T08:15:03Z</time>
			</trkpt>
			<trkpt lat="42.949778" lon="-1.506079">
				<ele>581</ele>
				<time>2018-04-28T08:15:09Z</time>
			</trkpt>
			<trkpt lat="42.949797" lon="-1.506136">
				<ele>581</ele>
				<time>2018-04-28T08:15:14Z</time>
			</trkpt>
			<trkpt lat="42.94981" lon="-1.506201">
				<ele>581</ele>
				<time>2018-04-28T08:15:17Z</time>
			</trkpt>
			<trkpt lat="42.949818" lon="-1.506269">
				<ele>577</ele>
				<time>2018-04-28T08:15:21Z</time>
			</trkpt>
			<trkpt lat="42.949829" lon="-1.506342">
				<ele>577</ele>
				<time>2018-04-28T08:15:26Z</time>
			</trkpt>
			<trkpt lat="42.949834" lon="-1.506411">
				<ele>577</ele>
				<time>2018-04-28T08:15:29Z</time>
			</trkpt>
			<trkpt lat="42.949838" lon="-1.506472">
				<ele>577</ele>
				<time>2018-04-28T08:15:31Z</time>
			</trkpt>
			<trkpt lat="42.949843" lon="-1.50656">
				<ele>577</ele>
				<time>2018-04-28T08:15:34Z</time>
			</trkpt>
			<trkpt lat="42.949857" lon="-1.50662">
				<ele>577</ele>
				<time>2018-04-28T08:15:36Z</time>
			</trkpt>
			<trkpt lat="42.949864" lon="-1.506688">
				<ele>577</ele>
				<time>2018-04-28T08:15:38Z</time>
			</trkpt>
			<trkpt lat="42.949862" lon="-1.506751">
				<ele>577</ele>
				<time>2018-04-28T08:15:40Z</time>
			</trkpt>
			<trkpt lat="42.949878" lon="-1.50681">
				<ele>577</ele>
				<time>2018-04-28T08:15:42Z</time>
			</trkpt>
			<trkpt lat="42.949887" lon="-1.506888">
				<ele>577</ele>
				<time>2018-04-28T08:15:44Z</time>
			</trkpt>
			<trkpt lat="42.949901" lon="-1.50695">
				<ele>577</ele>
				<time>2018-04-28T08:15:46Z</time>
			</trkpt>
			<trkpt lat="42.949916" lon="-1.507026">
				<ele>577</ele>
				<time>2018-04-28T08:15:48Z</time>
			</trkpt>
			<trkpt lat="42.949931" lon="-1.507091">
				<ele>577</ele>
				<time>2018-04-28T08:15:50Z</time>
			</trkpt>
			<trkpt lat="42.949952" lon="-1.507159">
				<ele>577</ele>
				<time>2018-04-28T08:15:52Z</time>
			</trkpt>
			<trkpt lat="42.949961" lon="-1.507223">
				<ele>577</ele>
				<time>2018-04-28T08:15:54Z</time>
			</trkpt>
			<trkpt lat="42.949973" lon="-1.507294">
				<ele>577</ele>
				<time>2018-04-28T08:15:56Z</time>
			</trkpt>
			<trkpt lat="42.949981" lon="-1.507362">
				<ele>577</ele>
				<time>2018-04-28T08:15:58Z</time>
			</trkpt>
			<trkpt lat="42.949985" lon="-1.507441">
				<ele>577</ele>
				<time>2018-04-28T08:16:00Z</time>
			</trkpt>
			<trkpt lat="42.949988" lon="-1.507505">
				<ele>577</ele>
				<time>2018-04-28T08:16:02Z</time>
			</trkpt>
			<trkpt lat="42.94999" lon="-1.50759">
				<ele>577</ele>
				<time>2018-04-28T08:16:05Z</time>
			</trkpt>
			<trkpt lat="42.949993" lon="-1.507686">
				<ele>577</ele>
				<time>2018-04-28T08:16:08Z</time>
			</trkpt>
			<trkpt lat="42.949998" lon="-1.507747">
				<ele>577</ele>
				<time>2018-04-28T08:16:10Z</time>
			</trkpt>
			<trkpt lat="42.950008" lon="-1.507808">
				<ele>692</ele>
				<time>2018-04-28T08:16:12Z</time>
			</trkpt>
			<trkpt lat="42.950015" lon="-1.507873">
				<ele>692</ele>
				<time>2018-04-28T08:16:14Z</time>
			</trkpt>
			<trkpt lat="42.950011" lon="-1.507935">
				<ele>692</ele>
				<time>2018-04-28T08:16:16Z</time>
			</trkpt>
			<trkpt lat="42.950014" lon="-1.508006">
				<ele>692</ele>
				<time>2018-04-28T08:16:18Z</time>
			</trkpt>
			<trkpt lat="42.950012" lon="-1.508088">
				<ele>692</ele>
				<time>2018-04-28T08:16:21Z</time>
			</trkpt>
			<trkpt lat="42.950007" lon="-1.508163">
				<ele>692</ele>
				<time>2018-04-28T08:16:24Z</time>
			</trkpt>
			<trkpt lat="42.950008" lon="-1.508228">
				<ele>692</ele>
				<time>2018-04-28T08:16:26Z</time>
			</trkpt>
			<trkpt lat="42.950001" lon="-1.508292">
				<ele>692</ele>
				<time>2018-04-28T08:16:28Z</time>
			</trkpt>
			<trkpt lat="42.949999" lon="-1.508386">
				<ele>579</ele>
				<time>2018-04-28T08:16:31Z</time>
			</trkpt>
			<trkpt lat="42.950008" lon="-1.508447">
				<ele>580</ele>
				<time>2018-04-28T08:16:33Z</time>
			</trkpt>
			<trkpt lat="42.950043" lon="-1.508511">
				<ele>580</ele>
				<time>2018-04-28T08:16:36Z</time>
			</trkpt>
			<trkpt lat="42.950098" lon="-1.508552">
				<ele>580</ele>
				<time>2018-04-28T08:16:39Z</time>
			</trkpt>
			<trkpt lat="42.950161" lon="-1.508583">
				<ele>580</ele>
				<time>2018-04-28T08:16:42Z</time>
			</trkpt>
			<trkpt lat="42.950223" lon="-1.508625">
				<ele>580</ele>
				<time>2018-04-28T08:16:45Z</time>
			</trkpt>
			<trkpt lat="42.950277" lon="-1.508623">
				<ele>580</ele>
				<time>2018-04-28T08:16:47Z</time>
			</trkpt>
			<trkpt lat="42.950345" lon="-1.508615">
				<ele>580</ele>
				<time>2018-04-28T08:16:50Z</time>
			</trkpt>
			<trkpt lat="42.950387" lon="-1.508584">
				<ele>580</ele>
				<time>2018-04-28T08:16:52Z</time>
			</trkpt>
			<trkpt lat="42.950428" lon="-1.508553">
				<ele>580</ele>
				<time>2018-04-28T08:16:54Z</time>
			</trkpt>
			<trkpt lat="42.950471" lon="-1.508525">
				<ele>580</ele>
				<time>2018-04-28T08:16:56Z</time>
			</trkpt>
			<trkpt lat="42.950534" lon="-1.508494">
				<ele>580</ele>
				<time>2018-04-28T08:16:59Z</time>
			</trkpt>
			<trkpt lat="42.950581" lon="-1.508478">
				<ele>580</ele>
				<time>2018-04-28T08:17:01Z</time>
			</trkpt>
			<trkpt lat="42.950628" lon="-1.50845">
				<ele>580</ele>
				<time>2018-04-28T08:17:03Z</time>
			</trkpt>
			<trkpt lat="42.950666" lon="-1.508375">
				<ele>580</ele>
				<time>2018-04-28T08:17:06Z</time>
			</trkpt>
			<trkpt lat="42.950699" lon="-1.508308">
				<ele>692</ele>
				<time>2018-04-28T08:17:08Z</time>
			</trkpt>
			<trkpt lat="42.95073" lon="-1.508255">
				<ele>692</ele>
				<time>2018-04-28T08:17:10Z</time>
			</trkpt>
			<trkpt lat="42.950779" lon="-1.508204">
				<ele>692</ele>
				<time>2018-04-28T08:17:12Z</time>
			</trkpt>
			<trkpt lat="42.950831" lon="-1.508145">
				<ele>692</ele>
				<time>2018-04-28T08:17:14Z</time>
			</trkpt>
			<trkpt lat="42.950877" lon="-1.508102">
				<ele>692</ele>
				<time>2018-04-28T08:17:16Z</time>
			</trkpt>
			<trkpt lat="42.950931" lon="-1.508051">
				<ele>692</ele>
				<time>2018-04-28T08:17:18Z</time>
			</trkpt>
			<trkpt lat="42.950975" lon="-1.507999">
				<ele>692</ele>
				<time>2018-04-28T08:17:20Z</time>
			</trkpt>
			<trkpt lat="42.951018" lon="-1.507946">
				<ele>692</ele>
				<time>2018-04-28T08:17:22Z</time>
			</trkpt>
			<trkpt lat="42.951062" lon="-1.507917">
				<ele>692</ele>
				<time>2018-04-28T08:17:24Z</time>
			</trkpt>
			<trkpt lat="42.95113" lon="-1.507896">
				<ele>692</ele>
				<time>2018-04-28T08:17:26Z</time>
			</trkpt>
			<trkpt lat="42.951199" lon="-1.507869">
				<ele>692</ele>
				<time>2018-04-28T08:17:28Z</time>
			</trkpt>
			<trkpt lat="42.951259" lon="-1.507824">
				<ele>692</ele>
				<time>2018-04-28T08:17:30Z</time>
			</trkpt>
			<trkpt lat="42.951301" lon="-1.507799">
				<ele>692</ele>
				<time>2018-04-28T08:17:32Z</time>
			</trkpt>
			<trkpt lat="42.951347" lon="-1.507769">
				<ele>692</ele>
				<time>2018-04-28T08:17:34Z</time>
			</trkpt>
			<trkpt lat="42.951409" lon="-1.507748">
				<ele>692</ele>
				<time>2018-04-28T08:17:36Z</time>
			</trkpt>
			<trkpt lat="42.951466" lon="-1.507752">
				<ele>692</ele>
				<time>2018-04-28T08:17:38Z</time>
			</trkpt>
			<trkpt lat="42.951511" lon="-1.507796">
				<ele>692</ele>
				<time>2018-04-28T08:17:40Z</time>
			</trkpt>
			<trkpt lat="42.951557" lon="-1.507832">
				<ele>692</ele>
				<time>2018-04-28T08:17:42Z</time>
			</trkpt>
			<trkpt lat="42.951622" lon="-1.507885">
				<ele>692</ele>
				<time>2018-04-28T08:17:44Z</time>
			</trkpt>
			<trkpt lat="42.951666" lon="-1.50793">
				<ele>692</ele>
				<time>2018-04-28T08:17:46Z</time>
			</trkpt>
			<trkpt lat="42.951719" lon="-1.507988">
				<ele>692</ele>
				<time>2018-04-28T08:17:48Z</time>
			</trkpt>
			<trkpt lat="42.951776" lon="-1.508033">
				<ele>692</ele>
				<time>2018-04-28T08:17:50Z</time>
			</trkpt>
			<trkpt lat="42.951843" lon="-1.508069">
				<ele>692</ele>
				<time>2018-04-28T08:17:52Z</time>
			</trkpt>
			<trkpt lat="42.951901" lon="-1.508102">
				<ele>692</ele>
				<time>2018-04-28T08:17:54Z</time>
			</trkpt>
			<trkpt lat="42.951973" lon="-1.508139">
				<ele>692</ele>
				<time>2018-04-28T08:17:56Z</time>
			</trkpt>
			<trkpt lat="42.952037" lon="-1.508173">
				<ele>692</ele>
				<time>2018-04-28T08:17:58Z</time>
			</trkpt>
			<trkpt lat="42.952104" lon="-1.508216">
				<ele>669</ele>
				<time>2018-04-28T08:18:00Z</time>
			</trkpt>
			<trkpt lat="42.952161" lon="-1.508254">
				<ele>669</ele>
				<time>2018-04-28T08:18:02Z</time>
			</trkpt>
			<trkpt lat="42.952228" lon="-1.508261">
				<ele>669</ele>
				<time>2018-04-28T08:18:04Z</time>
			</trkpt>
			<trkpt lat="42.952295" lon="-1.50827">
				<ele>669</ele>
				<time>2018-04-28T08:18:06Z</time>
			</trkpt>
			<trkpt lat="42.952368" lon="-1.50828">
				<ele>669</ele>
				<time>2018-04-28T08:18:08Z</time>
			</trkpt>
			<trkpt lat="42.952424" lon="-1.508279">
				<ele>669</ele>
				<time>2018-04-28T08:18:10Z</time>
			</trkpt>
			<trkpt lat="42.952479" lon="-1.508279">
				<ele>669</ele>
				<time>2018-04-28T08:18:12Z</time>
			</trkpt>
			<trkpt lat="42.952537" lon="-1.508262">
				<ele>669</ele>
				<time>2018-04-28T08:18:14Z</time>
			</trkpt>
			<trkpt lat="42.952592" lon="-1.508261">
				<ele>669</ele>
				<time>2018-04-28T08:18:16Z</time>
			</trkpt>
			<trkpt lat="42.952635" lon="-1.508242">
				<ele>669</ele>
				<time>2018-04-28T08:18:18Z</time>
			</trkpt>
			<trkpt lat="42.952692" lon="-1.508238">
				<ele>669</ele>
				<time>2018-04-28T08:18:20Z</time>
			</trkpt>
			<trkpt lat="42.952758" lon="-1.508186">
				<ele>669</ele>
				<time>2018-04-28T08:18:22Z</time>
			</trkpt>
			<trkpt lat="42.952815" lon="-1.508139">
				<ele>669</ele>
				<time>2018-04-28T08:18:24Z</time>
			</trkpt>
			<trkpt lat="42.952859" lon="-1.508083">
				<ele>669</ele>
				<time>2018-04-28T08:18:26Z</time>
			</trkpt>
			<trkpt lat="42.9529" lon="-1.508027">
				<ele>669</ele>
				<time>2018-04-28T08:18:28Z</time>
			</trkpt>
			<trkpt lat="42.952955" lon="-1.507957">
				<ele>669</ele>
				<time>2018-04-28T08:18:31Z</time>
			</trkpt>
			<trkpt lat="42.952998" lon="-1.507881">
				<ele>669</ele>
				<time>2018-04-28T08:18:33Z</time>
			</trkpt>
			<trkpt lat="42.953047" lon="-1.507821">
				<ele>669</ele>
				<time>2018-04-28T08:18:35Z</time>
			</trkpt>
			<trkpt lat="42.953085" lon="-1.507757">
				<ele>669</ele>
				<time>2018-04-28T08:18:37Z</time>
			</trkpt>
			<trkpt lat="42.953146" lon="-1.507711">
				<ele>669</ele>
				<time>2018-04-28T08:18:39Z</time>
			</trkpt>
			<trkpt lat="42.953199" lon="-1.507641">
				<ele>669</ele>
				<time>2018-04-28T08:18:41Z</time>
			</trkpt>
			<trkpt lat="42.953239" lon="-1.507594">
				<ele>669</ele>
				<time>2018-04-28T08:18:43Z</time>
			</trkpt>
			<trkpt lat="42.953293" lon="-1.507565">
				<ele>669</ele>
				<time>2018-04-28T08:18:45Z</time>
			</trkpt>
			<trkpt lat="42.95336" lon="-1.507547">
				<ele>669</ele>
				<time>2018-04-28T08:18:47Z</time>
			</trkpt>
			<trkpt lat="42.953431" lon="-1.50752">
				<ele>669</ele>
				<time>2018-04-28T08:18:49Z</time>
			</trkpt>
			<trkpt lat="42.953497" lon="-1.507501">
				<ele>669</ele>
				<time>2018-04-28T08:18:51Z</time>
			</trkpt>
			<trkpt lat="42.953571" lon="-1.507486">
				<ele>669</ele>
				<time>2018-04-28T08:18:53Z</time>
			</trkpt>
			<trkpt lat="42.953633" lon="-1.507475">
				<ele>669</ele>
				<time>2018-04-28T08:18:55Z</time>
			</trkpt>
			<trkpt lat="42.953692" lon="-1.507428">
				<ele>669</ele>
				<time>2018-04-28T08:18:57Z</time>
			</trkpt>
			<trkpt lat="42.953742" lon="-1.507373">
				<ele>669</ele>
				<time>2018-04-28T08:18:59Z</time>
			</trkpt>
			<trkpt lat="42.953788" lon="-1.507338">
				<ele>669</ele>
				<time>2018-04-28T08:19:01Z</time>
			</trkpt>
			<trkpt lat="42.953837" lon="-1.507308">
				<ele>669</ele>
				<time>2018-04-28T08:19:03Z</time>
			</trkpt>
			<trkpt lat="42.953903" lon="-1.507293">
				<ele>669</ele>
				<time>2018-04-28T08:19:06Z</time>
			</trkpt>
			<trkpt lat="42.953968" lon="-1.507289">
				<ele>669</ele>
				<time>2018-04-28T08:19:09Z</time>
			</trkpt>
			<trkpt lat="42.954016" lon="-1.507314">
				<ele>669</ele>
				<time>2018-04-28T08:19:11Z</time>
			</trkpt>
			<trkpt lat="42.954071" lon="-1.507345">
				<ele>669</ele>
				<time>2018-04-28T08:19:13Z</time>
			</trkpt>
			<trkpt lat="42.954122" lon="-1.507359">
				<ele>669</ele>
				<time>2018-04-28T08:19:15Z</time>
			</trkpt>
			<trkpt lat="42.954174" lon="-1.507364">
				<ele>614</ele>
				<time>2018-04-28T08:19:17Z</time>
			</trkpt>
			<trkpt lat="42.954218" lon="-1.507351">
				<ele>614</ele>
				<time>2018-04-28T08:19:19Z</time>
			</trkpt>
			<trkpt lat="42.954268" lon="-1.507345">
				<ele>614</ele>
				<time>2018-04-28T08:19:21Z</time>
			</trkpt>
			<trkpt lat="42.954326" lon="-1.507363">
				<ele>614</ele>
				<time>2018-04-28T08:19:24Z</time>
			</trkpt>
			<trkpt lat="42.95438" lon="-1.507375">
				<ele>614</ele>
				<time>2018-04-28T08:19:26Z</time>
			</trkpt>
			<trkpt lat="42.95443" lon="-1.507371">
				<ele>614</ele>
				<time>2018-04-28T08:19:28Z</time>
			</trkpt>
			<trkpt lat="42.954491" lon="-1.507344">
				<ele>614</ele>
				<time>2018-04-28T08:19:31Z</time>
			</trkpt>
			<trkpt lat="42.95453" lon="-1.507299">
				<ele>614</ele>
				<time>2018-04-28T08:19:33Z</time>
			</trkpt>
			<trkpt lat="42.954571" lon="-1.507233">
				<ele>614</ele>
				<time>2018-04-28T08:19:35Z</time>
			</trkpt>
			<trkpt lat="42.954602" lon="-1.507183">
				<ele>614</ele>
				<time>2018-04-28T08:19:37Z</time>
			</trkpt>
			<trkpt lat="42.954636" lon="-1.507139">
				<ele>614</ele>
				<time>2018-04-28T08:19:39Z</time>
			</trkpt>
			<trkpt lat="42.954669" lon="-1.507085">
				<ele>614</ele>
				<time>2018-04-28T08:19:41Z</time>
			</trkpt>
			<trkpt lat="42.954705" lon="-1.507013">
				<ele>614</ele>
				<time>2018-04-28T08:19:44Z</time>
			</trkpt>
			<trkpt lat="42.954737" lon="-1.506955">
				<ele>614</ele>
				<time>2018-04-28T08:19:46Z</time>
			</trkpt>
			<trkpt lat="42.95477" lon="-1.506895">
				<ele>614</ele>
				<time>2018-04-28T08:19:48Z</time>
			</trkpt>
			<trkpt lat="42.954805" lon="-1.506847">
				<ele>614</ele>
				<time>2018-04-28T08:19:50Z</time>
			</trkpt>
			<trkpt lat="42.954834" lon="-1.506778">
				<ele>614</ele>
				<time>2018-04-28T08:19:52Z</time>
			</trkpt>
			<trkpt lat="42.954866" lon="-1.506704">
				<ele>614</ele>
				<time>2018-04-28T08:19:54Z</time>
			</trkpt>
			<trkpt lat="42.954907" lon="-1.506643">
				<ele>614</ele>
				<time>2018-04-28T08:19:56Z</time>
			</trkpt>
			<trkpt lat="42.954935" lon="-1.506565">
				<ele>614</ele>
				<time>2018-04-28T08:19:58Z</time>
			</trkpt>
			<trkpt lat="42.954972" lon="-1.506469">
				<ele>614</ele>
				<time>2018-04-28T08:20:00Z</time>
			</trkpt>
			<trkpt lat="42.954995" lon="-1.506396">
				<ele>614</ele>
				<time>2018-04-28T08:20:02Z</time>
			</trkpt>
			<trkpt lat="42.955025" lon="-1.506327">
				<ele>614</ele>
				<time>2018-04-28T08:20:04Z</time>
			</trkpt>
			<trkpt lat="42.95504" lon="-1.506243">
				<ele>625</ele>
				<time>2018-04-28T08:20:06Z</time>
			</trkpt>
			<trkpt lat="42.955059" lon="-1.506161">
				<ele>625</ele>
				<time>2018-04-28T08:20:08Z</time>
			</trkpt>
			<trkpt lat="42.955072" lon="-1.506075">
				<ele>625</ele>
				<time>2018-04-28T08:20:10Z</time>
			</trkpt>
			<trkpt lat="42.955079" lon="-1.505991">
				<ele>625</ele>
				<time>2018-04-28T08:20:12Z</time>
			</trkpt>
			<trkpt lat="42.955088" lon="-1.505898">
				<ele>625</ele>
				<time>2018-04-28T08:20:14Z</time>
			</trkpt>
			<trkpt lat="42.955079" lon="-1.505811">
				<ele>625</ele>
				<time>2018-04-28T08:20:16Z</time>
			</trkpt>
			<trkpt lat="42.955087" lon="-1.505736">
				<ele>625</ele>
				<time>2018-04-28T08:20:18Z</time>
			</trkpt>
			<trkpt lat="42.955106" lon="-1.505651">
				<ele>625</ele>
				<time>2018-04-28T08:20:20Z</time>
			</trkpt>
			<trkpt lat="42.95512" lon="-1.505563">
				<ele>625</ele>
				<time>2018-04-28T08:20:22Z</time>
			</trkpt>
			<trkpt lat="42.955152" lon="-1.505479">
				<ele>625</ele>
				<time>2018-04-28T08:20:24Z</time>
			</trkpt>
			<trkpt lat="42.955162" lon="-1.505401">
				<ele>625</ele>
				<time>2018-04-28T08:20:26Z</time>
			</trkpt>
			<trkpt lat="42.955183" lon="-1.505303">
				<ele>625</ele>
				<time>2018-04-28T08:20:29Z</time>
			</trkpt>
			<trkpt lat="42.955205" lon="-1.505217">
				<ele>625</ele>
				<time>2018-04-28T08:20:31Z</time>
			</trkpt>
			<trkpt lat="42.955208" lon="-1.505119">
				<ele>625</ele>
				<time>2018-04-28T08:20:33Z</time>
			</trkpt>
			<trkpt lat="42.955209" lon="-1.505029">
				<ele>625</ele>
				<time>2018-04-28T08:20:35Z</time>
			</trkpt>
			<trkpt lat="42.955206" lon="-1.504944">
				<ele>625</ele>
				<time>2018-04-28T08:20:37Z</time>
			</trkpt>
			<trkpt lat="42.955198" lon="-1.504871">
				<ele>625</ele>
				<time>2018-04-28T08:20:39Z</time>
			</trkpt>
			<trkpt lat="42.955191" lon="-1.504786">
				<ele>625</ele>
				<time>2018-04-28T08:20:41Z</time>
			</trkpt>
			<trkpt lat="42.955181" lon="-1.504694">
				<ele>625</ele>
				<time>2018-04-28T08:20:43Z</time>
			</trkpt>
			<trkpt lat="42.955186" lon="-1.504595">
				<ele>625</ele>
				<time>2018-04-28T08:20:45Z</time>
			</trkpt>
			<trkpt lat="42.955196" lon="-1.50449">
				<ele>625</ele>
				<time>2018-04-28T08:20:47Z</time>
			</trkpt>
			<trkpt lat="42.955205" lon="-1.50439">
				<ele>625</ele>
				<time>2018-04-28T08:20:49Z</time>
			</trkpt>
			<trkpt lat="42.955225" lon="-1.504295">
				<ele>625</ele>
				<time>2018-04-28T08:20:51Z</time>
			</trkpt>
			<trkpt lat="42.955236" lon="-1.504219">
				<ele>625</ele>
				<time>2018-04-28T08:20:53Z</time>
			</trkpt>
			<trkpt lat="42.955248" lon="-1.504133">
				<ele>620</ele>
				<time>2018-04-28T08:20:55Z</time>
			</trkpt>
			<trkpt lat="42.955255" lon="-1.504046">
				<ele>620</ele>
				<time>2018-04-28T08:20:57Z</time>
			</trkpt>
			<trkpt lat="42.955254" lon="-1.503953">
				<ele>620</ele>
				<time>2018-04-28T08:20:59Z</time>
			</trkpt>
			<trkpt lat="42.955256" lon="-1.503873">
				<ele>620</ele>
				<time>2018-04-28T08:21:01Z</time>
			</trkpt>
			<trkpt lat="42.955261" lon="-1.503805">
				<ele>620</ele>
				<time>2018-04-28T08:21:03Z</time>
			</trkpt>
			<trkpt lat="42.955277" lon="-1.503717">
				<ele>620</ele>
				<time>2018-04-28T08:21:05Z</time>
			</trkpt>
			<trkpt lat="42.955293" lon="-1.503613">
				<ele>620</ele>
				<time>2018-04-28T08:21:07Z</time>
			</trkpt>
			<trkpt lat="42.955317" lon="-1.503512">
				<ele>620</ele>
				<time>2018-04-28T08:21:09Z</time>
			</trkpt>
			<trkpt lat="42.955315" lon="-1.503442">
				<ele>620</ele>
				<time>2018-04-28T08:21:11Z</time>
			</trkpt>
			<trkpt lat="42.95533" lon="-1.503361">
				<ele>620</ele>
				<time>2018-04-28T08:21:13Z</time>
			</trkpt>
			<trkpt lat="42.955343" lon="-1.503268">
				<ele>620</ele>
				<time>2018-04-28T08:21:15Z</time>
			</trkpt>
			<trkpt lat="42.955357" lon="-1.503203">
				<ele>620</ele>
				<time>2018-04-28T08:21:17Z</time>
			</trkpt>
			<trkpt lat="42.955365" lon="-1.50313">
				<ele>620</ele>
				<time>2018-04-28T08:21:19Z</time>
			</trkpt>
			<trkpt lat="42.955374" lon="-1.503061">
				<ele>620</ele>
				<time>2018-04-28T08:21:21Z</time>
			</trkpt>
			<trkpt lat="42.955377" lon="-1.502982">
				<ele>620</ele>
				<time>2018-04-28T08:21:23Z</time>
			</trkpt>
			<trkpt lat="42.955382" lon="-1.502898">
				<ele>620</ele>
				<time>2018-04-28T08:21:25Z</time>
			</trkpt>
			<trkpt lat="42.955385" lon="-1.502798">
				<ele>620</ele>
				<time>2018-04-28T08:21:27Z</time>
			</trkpt>
			<trkpt lat="42.95539" lon="-1.50272">
				<ele>620</ele>
				<time>2018-04-28T08:21:29Z</time>
			</trkpt>
			<trkpt lat="42.955399" lon="-1.502643">
				<ele>620</ele>
				<time>2018-04-28T08:21:31Z</time>
			</trkpt>
			<trkpt lat="42.955401" lon="-1.502552">
				<ele>620</ele>
				<time>2018-04-28T08:21:33Z</time>
			</trkpt>
			<trkpt lat="42.955399" lon="-1.502478">
				<ele>620</ele>
				<time>2018-04-28T08:21:35Z</time>
			</trkpt>
			<trkpt lat="42.955381" lon="-1.502409">
				<ele>620</ele>
				<time>2018-04-28T08:21:37Z</time>
			</trkpt>
			<trkpt lat="42.955389" lon="-1.502331">
				<ele>620</ele>
				<time>2018-04-28T08:21:39Z</time>
			</trkpt>
			<trkpt lat="42.955394" lon="-1.502231">
				<ele>620</ele>
				<time>2018-04-28T08:21:42Z</time>
			</trkpt>
			<trkpt lat="42.955407" lon="-1.502142">
				<ele>620</ele>
				<time>2018-04-28T08:21:44Z</time>
			</trkpt>
			<trkpt lat="42.955422" lon="-1.502075">
				<ele>633</ele>
				<time>2018-04-28T08:21:45Z</time>
			</trkpt>
			<trkpt lat="42.955449" lon="-1.501989">
				<ele>633</ele>
				<time>2018-04-28T08:21:47Z</time>
			</trkpt>
			<trkpt lat="42.955463" lon="-1.501921">
				<ele>633</ele>
				<time>2018-04-28T08:21:49Z</time>
			</trkpt>
			<trkpt lat="42.955474" lon="-1.501844">
				<ele>633</ele>
				<time>2018-04-28T08:21:51Z</time>
			</trkpt>
			<trkpt lat="42.955492" lon="-1.501754">
				<ele>633</ele>
				<time>2018-04-28T08:21:53Z</time>
			</trkpt>
			<trkpt lat="42.955502" lon="-1.501661">
				<ele>633</ele>
				<time>2018-04-28T08:21:55Z</time>
			</trkpt>
			<trkpt lat="42.955496" lon="-1.501597">
				<ele>633</ele>
				<time>2018-04-28T08:21:57Z</time>
			</trkpt>
			<trkpt lat="42.955502" lon="-1.501515">
				<ele>633</ele>
				<time>2018-04-28T08:21:59Z</time>
			</trkpt>
			<trkpt lat="42.955506" lon="-1.501428">
				<ele>633</ele>
				<time>2018-04-28T08:22:01Z</time>
			</trkpt>
			<trkpt lat="42.955526" lon="-1.501338">
				<ele>633</ele>
				<time>2018-04-28T08:22:03Z</time>
			</trkpt>
			<trkpt lat="42.95554" lon="-1.501257">
				<ele>633</ele>
				<time>2018-04-28T08:22:05Z</time>
			</trkpt>
			<trkpt lat="42.955557" lon="-1.501186">
				<ele>633</ele>
				<time>2018-04-28T08:22:07Z</time>
			</trkpt>
			<trkpt lat="42.955573" lon="-1.501086">
				<ele>633</ele>
				<time>2018-04-28T08:22:09Z</time>
			</trkpt>
			<trkpt lat="42.95559" lon="-1.500995">
				<ele>633</ele>
				<time>2018-04-28T08:22:11Z</time>
			</trkpt>
			<trkpt lat="42.955598" lon="-1.500911">
				<ele>633</ele>
				<time>2018-04-28T08:22:13Z</time>
			</trkpt>
			<trkpt lat="42.955613" lon="-1.50084">
				<ele>633</ele>
				<time>2018-04-28T08:22:15Z</time>
			</trkpt>
			<trkpt lat="42.955629" lon="-1.500752">
				<ele>633</ele>
				<time>2018-04-28T08:22:17Z</time>
			</trkpt>
			<trkpt lat="42.955641" lon="-1.500671">
				<ele>633</ele>
				<time>2018-04-28T08:22:19Z</time>
			</trkpt>
			<trkpt lat="42.955648" lon="-1.500597">
				<ele>633</ele>
				<time>2018-04-28T08:22:21Z</time>
			</trkpt>
			<trkpt lat="42.955661" lon="-1.500517">
				<ele>633</ele>
				<time>2018-04-28T08:22:23Z</time>
			</trkpt>
			<trkpt lat="42.955683" lon="-1.500454">
				<ele>633</ele>
				<time>2018-04-28T08:22:25Z</time>
			</trkpt>
			<trkpt lat="42.955709" lon="-1.500386">
				<ele>633</ele>
				<time>2018-04-28T08:22:27Z</time>
			</trkpt>
			<trkpt lat="42.955736" lon="-1.500317">
				<ele>633</ele>
				<time>2018-04-28T08:22:29Z</time>
			</trkpt>
			<trkpt lat="42.955774" lon="-1.500257">
				<ele>633</ele>
				<time>2018-04-28T08:22:31Z</time>
			</trkpt>
			<trkpt lat="42.955807" lon="-1.500198">
				<ele>633</ele>
				<time>2018-04-28T08:22:33Z</time>
			</trkpt>
			<trkpt lat="42.955839" lon="-1.50014">
				<ele>633</ele>
				<time>2018-04-28T08:22:35Z</time>
			</trkpt>
			<trkpt lat="42.955875" lon="-1.500053">
				<ele>633</ele>
				<time>2018-04-28T08:22:38Z</time>
			</trkpt>
			<trkpt lat="42.955906" lon="-1.499988">
				<ele>686</ele>
				<time>2018-04-28T08:22:40Z</time>
			</trkpt>
			<trkpt lat="42.955965" lon="-1.499948">
				<ele>686</ele>
				<time>2018-04-28T08:22:43Z</time>
			</trkpt>
			<trkpt lat="42.956007" lon="-1.49992">
				<ele>686</ele>
				<time>2018-04-28T08:22:45Z</time>
			</trkpt>
			<trkpt lat="42.956063" lon="-1.499871">
				<ele>686</ele>
				<time>2018-04-28T08:22:47Z</time>
			</trkpt>
			<trkpt lat="42.956123" lon="-1.499805">
				<ele>686</ele>
				<time>2018-04-28T08:22:49Z</time>
			</trkpt>
			<trkpt lat="42.95617" lon="-1.499761">
				<ele>686</ele>
				<time>2018-04-28T08:22:51Z</time>
			</trkpt>
			<trkpt lat="42.956219" lon="-1.49973">
				<ele>686</ele>
				<time>2018-04-28T08:22:53Z</time>
			</trkpt>
			<trkpt lat="42.956265" lon="-1.49967">
				<ele>598</ele>
				<time>2018-04-28T08:22:55Z</time>
			</trkpt>
			<trkpt lat="42.956326" lon="-1.499631">
				<ele>598</ele>
				<time>2018-04-28T08:22:57Z</time>
			</trkpt>
			<trkpt lat="42.956389" lon="-1.499594">
				<ele>598</ele>
				<time>2018-04-28T08:22:59Z</time>
			</trkpt>
			<trkpt lat="42.956446" lon="-1.499545">
				<ele>598</ele>
				<time>2018-04-28T08:23:01Z</time>
			</trkpt>
			<trkpt lat="42.956498" lon="-1.499507">
				<ele>598</ele>
				<time>2018-04-28T08:23:03Z</time>
			</trkpt>
			<trkpt lat="42.956558" lon="-1.499469">
				<ele>598</ele>
				<time>2018-04-28T08:23:05Z</time>
			</trkpt>
			<trkpt lat="42.956609" lon="-1.499445">
				<ele>598</ele>
				<time>2018-04-28T08:23:07Z</time>
			</trkpt>
			<trkpt lat="42.956671" lon="-1.499448">
				<ele>598</ele>
				<time>2018-04-28T08:23:09Z</time>
			</trkpt>
			<trkpt lat="42.956739" lon="-1.499431">
				<ele>598</ele>
				<time>2018-04-28T08:23:11Z</time>
			</trkpt>
			<trkpt lat="42.956801" lon="-1.4994">
				<ele>598</ele>
				<time>2018-04-28T08:23:13Z</time>
			</trkpt>
			<trkpt lat="42.956859" lon="-1.499364">
				<ele>598</ele>
				<time>2018-04-28T08:23:15Z</time>
			</trkpt>
			<trkpt lat="42.956934" lon="-1.499296">
				<ele>598</ele>
				<time>2018-04-28T08:23:17Z</time>
			</trkpt>
			<trkpt lat="42.956973" lon="-1.499259">
				<ele>598</ele>
				<time>2018-04-28T08:23:18Z</time>
			</trkpt>
			<trkpt lat="42.957015" lon="-1.499173">
				<ele>598</ele>
				<time>2018-04-28T08:23:20Z</time>
			</trkpt>
			<trkpt lat="42.957004" lon="-1.499073">
				<ele>598</ele>
				<time>2018-04-28T08:23:22Z</time>
			</trkpt>
			<trkpt lat="42.957013" lon="-1.498994">
				<ele>598</ele>
				<time>2018-04-28T08:23:24Z</time>
			</trkpt>
			<trkpt lat="42.957008" lon="-1.498914">
				<ele>598</ele>
				<time>2018-04-28T08:23:26Z</time>
			</trkpt>
			<trkpt lat="42.956992" lon="-1.498834">
				<ele>598</ele>
				<time>2018-04-28T08:23:28Z</time>
			</trkpt>
			<trkpt lat="42.956982" lon="-1.498765">
				<ele>598</ele>
				<time>2018-04-28T08:23:30Z</time>
			</trkpt>
			<trkpt lat="42.956996" lon="-1.498706">
				<ele>598</ele>
				<time>2018-04-28T08:23:32Z</time>
			</trkpt>
			<trkpt lat="42.95701" lon="-1.498621">
				<ele>598</ele>
				<time>2018-04-28T08:23:35Z</time>
			</trkpt>
			<trkpt lat="42.957037" lon="-1.498564">
				<ele>598</ele>
				<time>2018-04-28T08:23:37Z</time>
			</trkpt>
			<trkpt lat="42.95708" lon="-1.498502">
				<ele>598</ele>
				<time>2018-04-28T08:23:40Z</time>
			</trkpt>
			<trkpt lat="42.957114" lon="-1.49844">
				<ele>598</ele>
				<time>2018-04-28T08:23:43Z</time>
			</trkpt>
			<trkpt lat="42.957165" lon="-1.49839">
				<ele>598</ele>
				<time>2018-04-28T08:23:45Z</time>
			</trkpt>
			<trkpt lat="42.957208" lon="-1.498356">
				<ele>598</ele>
				<time>2018-04-28T08:23:47Z</time>
			</trkpt>
			<trkpt lat="42.957238" lon="-1.498291">
				<ele>598</ele>
				<time>2018-04-28T08:23:49Z</time>
			</trkpt>
			<trkpt lat="42.957279" lon="-1.498217">
				<ele>598</ele>
				<time>2018-04-28T08:23:51Z</time>
			</trkpt>
			<trkpt lat="42.957311" lon="-1.498172">
				<ele>598</ele>
				<time>2018-04-28T08:23:53Z</time>
			</trkpt>
			<trkpt lat="42.95735" lon="-1.498126">
				<ele>598</ele>
				<time>2018-04-28T08:23:55Z</time>
			</trkpt>
			<trkpt lat="42.957387" lon="-1.49807">
				<ele>598</ele>
				<time>2018-04-28T08:23:57Z</time>
			</trkpt>
			<trkpt lat="42.957432" lon="-1.498005">
				<ele>598</ele>
				<time>2018-04-28T08:23:59Z</time>
			</trkpt>
			<trkpt lat="42.957471" lon="-1.497945">
				<ele>598</ele>
				<time>2018-04-28T08:24:01Z</time>
			</trkpt>
			<trkpt lat="42.957528" lon="-1.49795">
				<ele>598</ele>
				<time>2018-04-28T08:24:04Z</time>
			</trkpt>
			<trkpt lat="42.957585" lon="-1.497933">
				<ele>598</ele>
				<time>2018-04-28T08:24:07Z</time>
			</trkpt>
			<trkpt lat="42.95763" lon="-1.497905">
				<ele>661</ele>
				<time>2018-04-28T08:24:09Z</time>
			</trkpt>
			<trkpt lat="42.95768" lon="-1.497909">
				<ele>661</ele>
				<time>2018-04-28T08:24:11Z</time>
			</trkpt>
			<trkpt lat="42.957727" lon="-1.497926">
				<ele>598</ele>
				<time>2018-04-28T08:24:13Z</time>
			</trkpt>
			<trkpt lat="42.957743" lon="-1.497989">
				<ele>598</ele>
				<time>2018-04-28T08:24:16Z</time>
			</trkpt>
			<trkpt lat="42.957796" lon="-1.498036">
				<ele>598</ele>
				<time>2018-04-28T08:24:19Z</time>
			</trkpt>
			<trkpt lat="42.957859" lon="-1.498087">
				<ele>598</ele>
				<time>2018-04-28T08:24:21Z</time>
			</trkpt>
			<trkpt lat="42.95794" lon="-1.498084">
				<ele>598</ele>
				<time>2018-04-28T08:24:23Z</time>
			</trkpt>
			<trkpt lat="42.958013" lon="-1.498111">
				<ele>598</ele>
				<time>2018-04-28T08:24:25Z</time>
			</trkpt>
			<trkpt lat="42.958068" lon="-1.498125">
				<ele>598</ele>
				<time>2018-04-28T08:24:27Z</time>
			</trkpt>
			<trkpt lat="42.958123" lon="-1.498133">
				<ele>598</ele>
				<time>2018-04-28T08:24:29Z</time>
			</trkpt>
			<trkpt lat="42.958177" lon="-1.498176">
				<ele>598</ele>
				<time>2018-04-28T08:24:31Z</time>
			</trkpt>
			<trkpt lat="42.958232" lon="-1.498211">
				<ele>598</ele>
				<time>2018-04-28T08:24:33Z</time>
			</trkpt>
			<trkpt lat="42.958273" lon="-1.498249">
				<ele>598</ele>
				<time>2018-04-28T08:24:35Z</time>
			</trkpt>
			<trkpt lat="42.958325" lon="-1.498296">
				<ele>598</ele>
				<time>2018-04-28T08:24:37Z</time>
			</trkpt>
			<trkpt lat="42.95839" lon="-1.49828">
				<ele>610</ele>
				<time>2018-04-28T08:24:39Z</time>
			</trkpt>
			<trkpt lat="42.958435" lon="-1.498278">
				<ele>610</ele>
				<time>2018-04-28T08:24:41Z</time>
			</trkpt>
			<trkpt lat="42.958487" lon="-1.498271">
				<ele>610</ele>
				<time>2018-04-28T08:24:43Z</time>
			</trkpt>
			<trkpt lat="42.958532" lon="-1.498251">
				<ele>610</ele>
				<time>2018-04-28T08:24:45Z</time>
			</trkpt>
			<trkpt lat="42.958574" lon="-1.498209">
				<ele>610</ele>
				<time>2018-04-28T08:24:47Z</time>
			</trkpt>
			<trkpt lat="42.958624" lon="-1.49818">
				<ele>610</ele>
				<time>2018-04-28T08:24:49Z</time>
			</trkpt>
			<trkpt lat="42.95868" lon="-1.498165">
				<ele>610</ele>
				<time>2018-04-28T08:24:51Z</time>
			</trkpt>
			<trkpt lat="42.958727" lon="-1.498148">
				<ele>610</ele>
				<time>2018-04-28T08:24:53Z</time>
			</trkpt>
			<trkpt lat="42.958781" lon="-1.498116">
				<ele>610</ele>
				<time>2018-04-28T08:24:55Z</time>
			</trkpt>
			<trkpt lat="42.958835" lon="-1.498097">
				<ele>610</ele>
				<time>2018-04-28T08:24:57Z</time>
			</trkpt>
			<trkpt lat="42.95889" lon="-1.498087">
				<ele>610</ele>
				<time>2018-04-28T08:24:59Z</time>
			</trkpt>
			<trkpt lat="42.958938" lon="-1.498093">
				<ele>610</ele>
				<time>2018-04-28T08:25:01Z</time>
			</trkpt>
			<trkpt lat="42.959002" lon="-1.49809">
				<ele>610</ele>
				<time>2018-04-28T08:25:03Z</time>
			</trkpt>
			<trkpt lat="42.959049" lon="-1.498114">
				<ele>610</ele>
				<time>2018-04-28T08:25:05Z</time>
			</trkpt>
			<trkpt lat="42.959089" lon="-1.498176">
				<ele>610</ele>
				<time>2018-04-28T08:25:08Z</time>
			</trkpt>
			<trkpt lat="42.959117" lon="-1.498248">
				<ele>610</ele>
				<time>2018-04-28T08:25:11Z</time>
			</trkpt>
			<trkpt lat="42.95914" lon="-1.498325">
				<ele>610</ele>
				<time>2018-04-28T08:25:13Z</time>
			</trkpt>
			<trkpt lat="42.959175" lon="-1.498383">
				<ele>610</ele>
				<time>2018-04-28T08:25:16Z</time>
			</trkpt>
			<trkpt lat="42.959211" lon="-1.498421">
				<ele>610</ele>
				<time>2018-04-28T08:25:18Z</time>
			</trkpt>
			<trkpt lat="42.959256" lon="-1.498453">
				<ele>610</ele>
				<time>2018-04-28T08:25:20Z</time>
			</trkpt>
			<trkpt lat="42.959316" lon="-1.498487">
				<ele>610</ele>
				<time>2018-04-28T08:25:22Z</time>
			</trkpt>
			<trkpt lat="42.959371" lon="-1.498535">
				<ele>610</ele>
				<time>2018-04-28T08:25:24Z</time>
			</trkpt>
			<trkpt lat="42.959418" lon="-1.498578">
				<ele>610</ele>
				<time>2018-04-28T08:25:26Z</time>
			</trkpt>
			<trkpt lat="42.959472" lon="-1.4986">
				<ele>610</ele>
				<time>2018-04-28T08:25:28Z</time>
			</trkpt>
			<trkpt lat="42.959511" lon="-1.498634">
				<ele>610</ele>
				<time>2018-04-28T08:25:30Z</time>
			</trkpt>
			<trkpt lat="42.959581" lon="-1.498645">
				<ele>610</ele>
				<time>2018-04-28T08:25:32Z</time>
			</trkpt>
			<trkpt lat="42.959652" lon="-1.498647">
				<ele>610</ele>
				<time>2018-04-28T08:25:34Z</time>
			</trkpt>
			<trkpt lat="42.959711" lon="-1.498639">
				<ele>610</ele>
				<time>2018-04-28T08:25:36Z</time>
			</trkpt>
			<trkpt lat="42.95976" lon="-1.498606">
				<ele>610</ele>
				<time>2018-04-28T08:25:38Z</time>
			</trkpt>
			<trkpt lat="42.959811" lon="-1.498569">
				<ele>610</ele>
				<time>2018-04-28T08:25:40Z</time>
			</trkpt>
			<trkpt lat="42.95986" lon="-1.498604">
				<ele>610</ele>
				<time>2018-04-28T08:25:43Z</time>
			</trkpt>
			<trkpt lat="42.959909" lon="-1.498526">
				<ele>610</ele>
				<time>2018-04-28T08:25:48Z</time>
			</trkpt>
			<trkpt lat="42.959914" lon="-1.498452">
				<ele>610</ele>
				<time>2018-04-28T08:25:53Z</time>
			</trkpt>
			<trkpt lat="42.95989" lon="-1.498381">
				<ele>610</ele>
				<time>2018-04-28T08:25:58Z</time>
			</trkpt>
			<trkpt lat="42.959886" lon="-1.498296">
				<ele>610</ele>
				<time>2018-04-28T08:26:03Z</time>
			</trkpt>
			<trkpt lat="42.959873" lon="-1.498225">
				<ele>610</ele>
				<time>2018-04-28T08:26:07Z</time>
			</trkpt>
			<trkpt lat="42.959925" lon="-1.498175">
				<ele>610</ele>
				<time>2018-04-28T08:26:15Z</time>
			</trkpt>
			<trkpt lat="42.959969" lon="-1.498156">
				<ele>610</ele>
				<time>2018-04-28T08:26:24Z</time>
			</trkpt>
			<trkpt lat="42.959987" lon="-1.498086">
				<ele>610</ele>
				<time>2018-04-28T08:26:30Z</time>
			</trkpt>
			<trkpt lat="42.959993" lon="-1.498019">
				<ele>610</ele>
				<time>2018-04-28T08:26:34Z</time>
			</trkpt>
			<trkpt lat="42.959994" lon="-1.497956">
				<ele>610</ele>
				<time>2018-04-28T08:26:38Z</time>
			</trkpt>
			<trkpt lat="42.959996" lon="-1.497888">
				<ele>621</ele>
				<time>2018-04-28T08:26:42Z</time>
			</trkpt>
			<trkpt lat="42.959988" lon="-1.497817">
				<ele>621</ele>
				<time>2018-04-28T08:26:48Z</time>
			</trkpt>
			<trkpt lat="42.959997" lon="-1.497736">
				<ele>621</ele>
				<time>2018-04-28T08:26:54Z</time>
			</trkpt>
			<trkpt lat="42.960021" lon="-1.497663">
				<ele>621</ele>
				<time>2018-04-28T08:26:58Z</time>
			</trkpt>
			<trkpt lat="42.960048" lon="-1.497612">
				<ele>621</ele>
				<time>2018-04-28T08:27:02Z</time>
			</trkpt>
			<trkpt lat="42.960078" lon="-1.497566">
				<ele>621</ele>
				<time>2018-04-28T08:27:05Z</time>
			</trkpt>
			<trkpt lat="42.96011" lon="-1.497518">
				<ele>621</ele>
				<time>2018-04-28T08:27:08Z</time>
			</trkpt>
			<trkpt lat="42.960124" lon="-1.497439">
				<ele>621</ele>
				<time>2018-04-28T08:27:12Z</time>
			</trkpt>
			<trkpt lat="42.96014" lon="-1.49738">
				<ele>621</ele>
				<time>2018-04-28T08:27:14Z</time>
			</trkpt>
			<trkpt lat="42.960149" lon="-1.497315">
				<ele>621</ele>
				<time>2018-04-28T08:27:19Z</time>
			</trkpt>
			<trkpt lat="42.960162" lon="-1.497233">
				<ele>621</ele>
				<time>2018-04-28T08:27:23Z</time>
			</trkpt>
			<trkpt lat="42.960173" lon="-1.497157">
				<ele>621</ele>
				<time>2018-04-28T08:27:27Z</time>
			</trkpt>
			<trkpt lat="42.960173" lon="-1.497095">
				<ele>621</ele>
				<time>2018-04-28T08:27:30Z</time>
			</trkpt>
			<trkpt lat="42.960192" lon="-1.49702">
				<ele>621</ele>
				<time>2018-04-28T08:27:33Z</time>
			</trkpt>
			<trkpt lat="42.960228" lon="-1.496954">
				<ele>621</ele>
				<time>2018-04-28T08:27:36Z</time>
			</trkpt>
			<trkpt lat="42.960266" lon="-1.49691">
				<ele>621</ele>
				<time>2018-04-28T08:27:39Z</time>
			</trkpt>
			<trkpt lat="42.960302" lon="-1.496844">
				<ele>621</ele>
				<time>2018-04-28T08:27:43Z</time>
			</trkpt>
			<trkpt lat="42.960359" lon="-1.496822">
				<ele>621</ele>
				<time>2018-04-28T08:27:50Z</time>
			</trkpt>
			<trkpt lat="42.960408" lon="-1.496831">
				<ele>621</ele>
				<time>2018-04-28T08:27:54Z</time>
			</trkpt>
			<trkpt lat="42.960447" lon="-1.496784">
				<ele>642</ele>
				<time>2018-04-28T08:27:57Z</time>
			</trkpt>
			<trkpt lat="42.960517" lon="-1.496724">
				<ele>642</ele>
				<time>2018-04-28T08:28:00Z</time>
			</trkpt>
			<trkpt lat="42.960578" lon="-1.496691">
				<ele>642</ele>
				<time>2018-04-28T08:28:02Z</time>
			</trkpt>
			<trkpt lat="42.960634" lon="-1.496666">
				<ele>642</ele>
				<time>2018-04-28T08:28:05Z</time>
			</trkpt>
			<trkpt lat="42.960684" lon="-1.496656">
				<ele>642</ele>
				<time>2018-04-28T08:28:07Z</time>
			</trkpt>
			<trkpt lat="42.960725" lon="-1.496625">
				<ele>642</ele>
				<time>2018-04-28T08:28:09Z</time>
			</trkpt>
			<trkpt lat="42.960776" lon="-1.496572">
				<ele>642</ele>
				<time>2018-04-28T08:28:12Z</time>
			</trkpt>
			<trkpt lat="42.960795" lon="-1.496514">
				<ele>642</ele>
				<time>2018-04-28T08:28:14Z</time>
			</trkpt>
			<trkpt lat="42.960828" lon="-1.496465">
				<ele>642</ele>
				<time>2018-04-28T08:28:16Z</time>
			</trkpt>
			<trkpt lat="42.96087" lon="-1.496436">
				<ele>642</ele>
				<time>2018-04-28T08:28:19Z</time>
			</trkpt>
			<trkpt lat="42.960915" lon="-1.496433">
				<ele>642</ele>
				<time>2018-04-28T08:28:22Z</time>
			</trkpt>
			<trkpt lat="42.960948" lon="-1.496386">
				<ele>642</ele>
				<time>2018-04-28T08:28:26Z</time>
			</trkpt>
			<trkpt lat="42.96099" lon="-1.496344">
				<ele>642</ele>
				<time>2018-04-28T08:28:29Z</time>
			</trkpt>
			<trkpt lat="42.961029" lon="-1.496312">
				<ele>642</ele>
				<time>2018-04-28T08:28:31Z</time>
			</trkpt>
			<trkpt lat="42.961071" lon="-1.496275">
				<ele>642</ele>
				<time>2018-04-28T08:28:34Z</time>
			</trkpt>
			<trkpt lat="42.961128" lon="-1.496267">
				<ele>642</ele>
				<time>2018-04-28T08:28:37Z</time>
			</trkpt>
			<trkpt lat="42.96117" lon="-1.496245">
				<ele>642</ele>
				<time>2018-04-28T08:28:39Z</time>
			</trkpt>
			<trkpt lat="42.961216" lon="-1.496241">
				<ele>642</ele>
				<time>2018-04-28T08:28:42Z</time>
			</trkpt>
			<trkpt lat="42.961262" lon="-1.496208">
				<ele>642</ele>
				<time>2018-04-28T08:28:46Z</time>
			</trkpt>
			<trkpt lat="42.961287" lon="-1.496151">
				<ele>642</ele>
				<time>2018-04-28T08:28:49Z</time>
			</trkpt>
			<trkpt lat="42.961298" lon="-1.496084">
				<ele>642</ele>
				<time>2018-04-28T08:28:52Z</time>
			</trkpt>
			<trkpt lat="42.961347" lon="-1.496044">
				<ele>642</ele>
				<time>2018-04-28T08:28:58Z</time>
			</trkpt>
			<trkpt lat="42.961393" lon="-1.495965">
				<ele>642</ele>
				<time>2018-04-28T08:29:01Z</time>
			</trkpt>
			<trkpt lat="42.961444" lon="-1.495911">
				<ele>642</ele>
				<time>2018-04-28T08:29:03Z</time>
			</trkpt>
			<trkpt lat="42.961488" lon="-1.495895">
				<ele>642</ele>
				<time>2018-04-28T08:29:05Z</time>
			</trkpt>
			<trkpt lat="42.96153" lon="-1.495874">
				<ele>642</ele>
				<time>2018-04-28T08:29:08Z</time>
			</trkpt>
			<trkpt lat="42.961568" lon="-1.495813">
				<ele>655</ele>
				<time>2018-04-28T08:29:11Z</time>
			</trkpt>
			<trkpt lat="42.961602" lon="-1.495765">
				<ele>655</ele>
				<time>2018-04-28T08:29:16Z</time>
			</trkpt>
			<trkpt lat="42.961595" lon="-1.495689">
				<ele>655</ele>
				<time>2018-04-28T08:29:20Z</time>
			</trkpt>
			<trkpt lat="42.961603" lon="-1.495621">
				<ele>655</ele>
				<time>2018-04-28T08:29:22Z</time>
			</trkpt>
			<trkpt lat="42.961631" lon="-1.495546">
				<ele>655</ele>
				<time>2018-04-28T08:29:25Z</time>
			</trkpt>
			<trkpt lat="42.961662" lon="-1.495501">
				<ele>655</ele>
				<time>2018-04-28T08:29:30Z</time>
			</trkpt>
			<trkpt lat="42.961673" lon="-1.495434">
				<ele>655</ele>
				<time>2018-04-28T08:29:38Z</time>
			</trkpt>
			<trkpt lat="42.961681" lon="-1.495358">
				<ele>655</ele>
				<time>2018-04-28T08:29:41Z</time>
			</trkpt>
			<trkpt lat="42.961696" lon="-1.495299">
				<ele>655</ele>
				<time>2018-04-28T08:29:45Z</time>
			</trkpt>
			<trkpt lat="42.96174" lon="-1.495259">
				<ele>655</ele>
				<time>2018-04-28T08:29:52Z</time>
			</trkpt>
			<trkpt lat="42.961783" lon="-1.495238">
				<ele>655</ele>
				<time>2018-04-28T08:29:57Z</time>
			</trkpt>
			<trkpt lat="42.961804" lon="-1.495178">
				<ele>655</ele>
				<time>2018-04-28T08:30:07Z</time>
			</trkpt>
			<trkpt lat="42.961819" lon="-1.495103">
				<ele>655</ele>
				<time>2018-04-28T08:30:12Z</time>
			</trkpt>
			<trkpt lat="42.961814" lon="-1.495041">
				<ele>655</ele>
				<time>2018-04-28T08:30:15Z</time>
			</trkpt>
			<trkpt lat="42.961845" lon="-1.494985">
				<ele>655</ele>
				<time>2018-04-28T08:30:19Z</time>
			</trkpt>
			<trkpt lat="42.961834" lon="-1.494917">
				<ele>655</ele>
				<time>2018-04-28T08:30:23Z</time>
			</trkpt>
			<trkpt lat="42.961806" lon="-1.494855">
				<ele>655</ele>
				<time>2018-04-28T08:30:27Z</time>
			</trkpt>
			<trkpt lat="42.961789" lon="-1.494792">
				<ele>655</ele>
				<time>2018-04-28T08:30:30Z</time>
			</trkpt>
			<trkpt lat="42.961774" lon="-1.494711">
				<ele>655</ele>
				<time>2018-04-28T08:30:34Z</time>
			</trkpt>
			<trkpt lat="42.961771" lon="-1.494636">
				<ele>655</ele>
				<time>2018-04-28T08:30:39Z</time>
			</trkpt>
			<trkpt lat="42.961779" lon="-1.49457">
				<ele>655</ele>
				<time>2018-04-28T08:30:42Z</time>
			</trkpt>
			<trkpt lat="42.961754" lon="-1.494516">
				<ele>655</ele>
				<time>2018-04-28T08:30:53Z</time>
			</trkpt>
			<trkpt lat="42.961742" lon="-1.494434">
				<ele>655</ele>
				<time>2018-04-28T08:30:57Z</time>
			</trkpt>
			<trkpt lat="42.961761" lon="-1.49436">
				<ele>655</ele>
				<time>2018-04-28T08:31:00Z</time>
			</trkpt>
			<trkpt lat="42.961742" lon="-1.494294">
				<ele>655</ele>
				<time>2018-04-28T08:31:05Z</time>
			</trkpt>
			<trkpt lat="42.961714" lon="-1.494228">
				<ele>655</ele>
				<time>2018-04-28T08:31:09Z</time>
			</trkpt>
			<trkpt lat="42.961676" lon="-1.494179">
				<ele>655</ele>
				<time>2018-04-28T08:31:12Z</time>
			</trkpt>
			<trkpt lat="42.961639" lon="-1.494134">
				<ele>655</ele>
				<time>2018-04-28T08:31:16Z</time>
			</trkpt>
			<trkpt lat="42.961604" lon="-1.494074">
				<ele>655</ele>
				<time>2018-04-28T08:31:20Z</time>
			</trkpt>
			<trkpt lat="42.961577" lon="-1.494005">
				<ele>655</ele>
				<time>2018-04-28T08:31:25Z</time>
			</trkpt>
			<trkpt lat="42.961565" lon="-1.493942">
				<ele>655</ele>
				<time>2018-04-28T08:31:32Z</time>
			</trkpt>
			<trkpt lat="42.961585" lon="-1.493885">
				<ele>655</ele>
				<time>2018-04-28T08:31:39Z</time>
			</trkpt>
			<trkpt lat="42.961591" lon="-1.493809">
				<ele>655</ele>
				<time>2018-04-28T08:31:44Z</time>
			</trkpt>
			<trkpt lat="42.961569" lon="-1.493751">
				<ele>655</ele>
				<time>2018-04-28T08:31:49Z</time>
			</trkpt>
			<trkpt lat="42.961535" lon="-1.493699">
				<ele>701</ele>
				<time>2018-04-28T08:31:53Z</time>
			</trkpt>
			<trkpt lat="42.961569" lon="-1.493653">
				<ele>701</ele>
				<time>2018-04-28T08:31:58Z</time>
			</trkpt>
			<trkpt lat="42.96163" lon="-1.493663">
				<ele>701</ele>
				<time>2018-04-28T08:32:02Z</time>
			</trkpt>
			<trkpt lat="42.961676" lon="-1.493664">
				<ele>701</ele>
				<time>2018-04-28T08:32:05Z</time>
			</trkpt>
			<trkpt lat="42.961719" lon="-1.49364">
				<ele>701</ele>
				<time>2018-04-28T08:32:09Z</time>
			</trkpt>
			<trkpt lat="42.961765" lon="-1.493612">
				<ele>701</ele>
				<time>2018-04-28T08:32:13Z</time>
			</trkpt>
			<trkpt lat="42.96182" lon="-1.493574">
				<ele>701</ele>
				<time>2018-04-28T08:32:18Z</time>
			</trkpt>
			<trkpt lat="42.961863" lon="-1.493552">
				<ele>701</ele>
				<time>2018-04-28T08:32:22Z</time>
			</trkpt>
			<trkpt lat="42.961904" lon="-1.493503">
				<ele>701</ele>
				<time>2018-04-28T08:32:26Z</time>
			</trkpt>
			<trkpt lat="42.961941" lon="-1.49346">
				<ele>701</ele>
				<time>2018-04-28T08:32:31Z</time>
			</trkpt>
			<trkpt lat="42.961973" lon="-1.493409">
				<ele>701</ele>
				<time>2018-04-28T08:32:35Z</time>
			</trkpt>
			<trkpt lat="42.962011" lon="-1.493352">
				<ele>701</ele>
				<time>2018-04-28T08:32:39Z</time>
			</trkpt>
			<trkpt lat="42.962075" lon="-1.493322">
				<ele>701</ele>
				<time>2018-04-28T08:32:42Z</time>
			</trkpt>
			<trkpt lat="42.962123" lon="-1.493263">
				<ele>701</ele>
				<time>2018-04-28T08:32:45Z</time>
			</trkpt>
			<trkpt lat="42.962167" lon="-1.493209">
				<ele>701</ele>
				<time>2018-04-28T08:32:47Z</time>
			</trkpt>
			<trkpt lat="42.962231" lon="-1.493203">
				<ele>701</ele>
				<time>2018-04-28T08:32:51Z</time>
			</trkpt>
			<trkpt lat="42.962276" lon="-1.493163">
				<ele>701</ele>
				<time>2018-04-28T08:32:54Z</time>
			</trkpt>
			<trkpt lat="42.962328" lon="-1.493153">
				<ele>701</ele>
				<time>2018-04-28T08:32:57Z</time>
			</trkpt>
			<trkpt lat="42.962374" lon="-1.4931">
				<ele>701</ele>
				<time>2018-04-28T08:32:59Z</time>
			</trkpt>
			<trkpt lat="42.962432" lon="-1.493071">
				<ele>701</ele>
				<time>2018-04-28T08:33:01Z</time>
			</trkpt>
			<trkpt lat="42.96249" lon="-1.493098">
				<ele>701</ele>
				<time>2018-04-28T08:33:04Z</time>
			</trkpt>
			<trkpt lat="42.962543" lon="-1.493105">
				<ele>747</ele>
				<time>2018-04-28T08:33:07Z</time>
			</trkpt>
			<trkpt lat="42.962589" lon="-1.493132">
				<ele>747</ele>
				<time>2018-04-28T08:33:12Z</time>
			</trkpt>
			<trkpt lat="42.962637" lon="-1.493178">
				<ele>747</ele>
				<time>2018-04-28T08:33:14Z</time>
			</trkpt>
			<trkpt lat="42.962669" lon="-1.493238">
				<ele>747</ele>
				<time>2018-04-28T08:33:17Z</time>
			</trkpt>
			<trkpt lat="42.962697" lon="-1.493289">
				<ele>747</ele>
				<time>2018-04-28T08:33:20Z</time>
			</trkpt>
			<trkpt lat="42.962747" lon="-1.493322">
				<ele>747</ele>
				<time>2018-04-28T08:33:23Z</time>
			</trkpt>
			<trkpt lat="42.962785" lon="-1.493391">
				<ele>747</ele>
				<time>2018-04-28T08:33:26Z</time>
			</trkpt>
			<trkpt lat="42.962798" lon="-1.493455">
				<ele>747</ele>
				<time>2018-04-28T08:33:28Z</time>
			</trkpt>
			<trkpt lat="42.962824" lon="-1.493521">
				<ele>747</ele>
				<time>2018-04-28T08:33:31Z</time>
			</trkpt>
			<trkpt lat="42.962847" lon="-1.493582">
				<ele>747</ele>
				<time>2018-04-28T08:33:33Z</time>
			</trkpt>
			<trkpt lat="42.962878" lon="-1.49363">
				<ele>747</ele>
				<time>2018-04-28T08:33:35Z</time>
			</trkpt>
			<trkpt lat="42.96289" lon="-1.49371">
				<ele>747</ele>
				<time>2018-04-28T08:33:38Z</time>
			</trkpt>
			<trkpt lat="42.962877" lon="-1.49378">
				<ele>730</ele>
				<time>2018-04-28T08:33:43Z</time>
			</trkpt>
			<trkpt lat="42.962863" lon="-1.49385">
				<ele>730</ele>
				<time>2018-04-28T08:33:46Z</time>
			</trkpt>
			<trkpt lat="42.962847" lon="-1.493912">
				<ele>730</ele>
				<time>2018-04-28T08:33:49Z</time>
			</trkpt>
			<trkpt lat="42.962827" lon="-1.493968">
				<ele>730</ele>
				<time>2018-04-28T08:33:52Z</time>
			</trkpt>
			<trkpt lat="42.962816" lon="-1.494058">
				<ele>730</ele>
				<time>2018-04-28T08:33:57Z</time>
			</trkpt>
			<trkpt lat="42.962842" lon="-1.494118">
				<ele>730</ele>
				<time>2018-04-28T08:34:00Z</time>
			</trkpt>
			<trkpt lat="42.96286" lon="-1.494175">
				<ele>730</ele>
				<time>2018-04-28T08:34:02Z</time>
			</trkpt>
			<trkpt lat="42.962867" lon="-1.494243">
				<ele>730</ele>
				<time>2018-04-28T08:34:04Z</time>
			</trkpt>
			<trkpt lat="42.962897" lon="-1.49429">
				<ele>730</ele>
				<time>2018-04-28T08:34:06Z</time>
			</trkpt>
			<trkpt lat="42.962918" lon="-1.494345">
				<ele>730</ele>
				<time>2018-04-28T08:34:08Z</time>
			</trkpt>
			<trkpt lat="42.962955" lon="-1.494383">
				<ele>730</ele>
				<time>2018-04-28T08:34:11Z</time>
			</trkpt>
			<trkpt lat="42.962997" lon="-1.494419">
				<ele>730</ele>
				<time>2018-04-28T08:34:15Z</time>
			</trkpt>
			<trkpt lat="42.963055" lon="-1.494414">
				<ele>730</ele>
				<time>2018-04-28T08:34:20Z</time>
			</trkpt>
			<trkpt lat="42.963099" lon="-1.494446">
				<ele>730</ele>
				<time>2018-04-28T08:34:25Z</time>
			</trkpt>
			<trkpt lat="42.963151" lon="-1.494462">
				<ele>730</ele>
				<time>2018-04-28T08:34:29Z</time>
			</trkpt>
			<trkpt lat="42.96319" lon="-1.49451">
				<ele>730</ele>
				<time>2018-04-28T08:34:33Z</time>
			</trkpt>
			<trkpt lat="42.963236" lon="-1.494527">
				<ele>730</ele>
				<time>2018-04-28T08:34:38Z</time>
			</trkpt>
			<trkpt lat="42.963273" lon="-1.494571">
				<ele>730</ele>
				<time>2018-04-28T08:34:44Z</time>
			</trkpt>
			<trkpt lat="42.963305" lon="-1.494617">
				<ele>730</ele>
				<time>2018-04-28T08:34:48Z</time>
			</trkpt>
			<trkpt lat="42.963347" lon="-1.494647">
				<ele>730</ele>
				<time>2018-04-28T08:34:52Z</time>
			</trkpt>
			<trkpt lat="42.963392" lon="-1.494669">
				<ele>730</ele>
				<time>2018-04-28T08:34:55Z</time>
			</trkpt>
			<trkpt lat="42.963445" lon="-1.49469">
				<ele>730</ele>
				<time>2018-04-28T08:35:01Z</time>
			</trkpt>
			<trkpt lat="42.963488" lon="-1.494713">
				<ele>730</ele>
				<time>2018-04-28T08:35:07Z</time>
			</trkpt>
			<trkpt lat="42.963531" lon="-1.494759">
				<ele>730</ele>
				<time>2018-04-28T08:35:13Z</time>
			</trkpt>
			<trkpt lat="42.963574" lon="-1.49478">
				<ele>730</ele>
				<time>2018-04-28T08:35:18Z</time>
			</trkpt>
			<trkpt lat="42.963631" lon="-1.494758">
				<ele>730</ele>
				<time>2018-04-28T08:35:24Z</time>
			</trkpt>
			<trkpt lat="42.963675" lon="-1.49478">
				<ele>730</ele>
				<time>2018-04-28T08:35:29Z</time>
			</trkpt>
			<trkpt lat="42.963739" lon="-1.494781">
				<ele>730</ele>
				<time>2018-04-28T08:35:35Z</time>
			</trkpt>
			<trkpt lat="42.963784" lon="-1.494793">
				<ele>730</ele>
				<time>2018-04-28T08:35:40Z</time>
			</trkpt>
			<trkpt lat="42.963812" lon="-1.494854">
				<ele>730</ele>
				<time>2018-04-28T08:35:46Z</time>
			</trkpt>
			<trkpt lat="42.963854" lon="-1.494904">
				<ele>730</ele>
				<time>2018-04-28T08:35:53Z</time>
			</trkpt>
			<trkpt lat="42.96389" lon="-1.494946">
				<ele>730</ele>
				<time>2018-04-28T08:36:00Z</time>
			</trkpt>
			<trkpt lat="42.963895" lon="-1.495019">
				<ele>730</ele>
				<time>2018-04-28T08:36:05Z</time>
			</trkpt>
			<trkpt lat="42.96394" lon="-1.495055">
				<ele>730</ele>
				<time>2018-04-28T08:36:11Z</time>
			</trkpt>
			<trkpt lat="42.963986" lon="-1.495066">
				<ele>730</ele>
				<time>2018-04-28T08:36:17Z</time>
			</trkpt>
			<trkpt lat="42.964031" lon="-1.495043">
				<ele>730</ele>
				<time>2018-04-28T08:36:22Z</time>
			</trkpt>
			<trkpt lat="42.964078" lon="-1.495078">
				<ele>730</ele>
				<time>2018-04-28T08:36:26Z</time>
			</trkpt>
			<trkpt lat="42.964089" lon="-1.495143">
				<ele>730</ele>
				<time>2018-04-28T08:36:31Z</time>
			</trkpt>
			<trkpt lat="42.964136" lon="-1.495178">
				<ele>730</ele>
				<time>2018-04-28T08:36:38Z</time>
			</trkpt>
			<trkpt lat="42.964188" lon="-1.495194">
				<ele>730</ele>
				<time>2018-04-28T08:36:43Z</time>
			</trkpt>
			<trkpt lat="42.964238" lon="-1.495214">
				<ele>730</ele>
				<time>2018-04-28T08:36:48Z</time>
			</trkpt>
			<trkpt lat="42.964275" lon="-1.495268">
				<ele>730</ele>
				<time>2018-04-28T08:36:53Z</time>
			</trkpt>
			<trkpt lat="42.964323" lon="-1.495297">
				<ele>730</ele>
				<time>2018-04-28T08:36:59Z</time>
			</trkpt>
			<trkpt lat="42.964346" lon="-1.495358">
				<ele>730</ele>
				<time>2018-04-28T08:37:03Z</time>
			</trkpt>
			<trkpt lat="42.96437" lon="-1.495429">
				<ele>730</ele>
				<time>2018-04-28T08:37:07Z</time>
			</trkpt>
			<trkpt lat="42.96439" lon="-1.495496">
				<ele>730</ele>
				<time>2018-04-28T08:37:12Z</time>
			</trkpt>
			<trkpt lat="42.964416" lon="-1.495564">
				<ele>730</ele>
				<time>2018-04-28T08:37:16Z</time>
			</trkpt>
			<trkpt lat="42.964459" lon="-1.49561">
				<ele>730</ele>
				<time>2018-04-28T08:37:20Z</time>
			</trkpt>
			<trkpt lat="42.964511" lon="-1.495626">
				<ele>730</ele>
				<time>2018-04-28T08:37:25Z</time>
			</trkpt>
			<trkpt lat="42.964556" lon="-1.495642">
				<ele>730</ele>
				<time>2018-04-28T08:37:29Z</time>
			</trkpt>
			<trkpt lat="42.964605" lon="-1.495667">
				<ele>793</ele>
				<time>2018-04-28T08:37:33Z</time>
			</trkpt>
			<trkpt lat="42.964646" lon="-1.4957">
				<ele>793</ele>
				<time>2018-04-28T08:37:37Z</time>
			</trkpt>
			<trkpt lat="42.964686" lon="-1.495737">
				<ele>793</ele>
				<time>2018-04-28T08:37:41Z</time>
			</trkpt>
			<trkpt lat="42.964727" lon="-1.49579">
				<ele>793</ele>
				<time>2018-04-28T08:37:46Z</time>
			</trkpt>
			<trkpt lat="42.964753" lon="-1.495842">
				<ele>818</ele>
				<time>2018-04-28T08:37:51Z</time>
			</trkpt>
			<trkpt lat="42.964796" lon="-1.495869">
				<ele>818</ele>
				<time>2018-04-28T08:37:55Z</time>
			</trkpt>
			<trkpt lat="42.964838" lon="-1.4959">
				<ele>818</ele>
				<time>2018-04-28T08:38:01Z</time>
			</trkpt>
			<trkpt lat="42.964909" lon="-1.495887">
				<ele>818</ele>
				<time>2018-04-28T08:38:04Z</time>
			</trkpt>
			<trkpt lat="42.964971" lon="-1.495887">
				<ele>818</ele>
				<time>2018-04-28T08:38:06Z</time>
			</trkpt>
			<trkpt lat="42.965026" lon="-1.49588">
				<ele>818</ele>
				<time>2018-04-28T08:38:08Z</time>
			</trkpt>
			<trkpt lat="42.965096" lon="-1.495865">
				<ele>818</ele>
				<time>2018-04-28T08:38:11Z</time>
			</trkpt>
			<trkpt lat="42.965151" lon="-1.495837">
				<ele>818</ele>
				<time>2018-04-28T08:38:13Z</time>
			</trkpt>
			<trkpt lat="42.965204" lon="-1.495832">
				<ele>793</ele>
				<time>2018-04-28T08:38:16Z</time>
			</trkpt>
			<trkpt lat="42.965262" lon="-1.49583">
				<ele>793</ele>
				<time>2018-04-28T08:38:18Z</time>
			</trkpt>
			<trkpt lat="42.965321" lon="-1.495815">
				<ele>793</ele>
				<time>2018-04-28T08:38:20Z</time>
			</trkpt>
			<trkpt lat="42.96537" lon="-1.495805">
				<ele>793</ele>
				<time>2018-04-28T08:38:22Z</time>
			</trkpt>
			<trkpt lat="42.965416" lon="-1.495801">
				<ele>793</ele>
				<time>2018-04-28T08:38:24Z</time>
			</trkpt>
			<trkpt lat="42.965472" lon="-1.495804">
				<ele>793</ele>
				<time>2018-04-28T08:38:26Z</time>
			</trkpt>
			<trkpt lat="42.965518" lon="-1.495795">
				<ele>793</ele>
				<time>2018-04-28T08:38:29Z</time>
			</trkpt>
			<trkpt lat="42.96554" lon="-1.495714">
				<ele>793</ele>
				<time>2018-04-28T08:38:33Z</time>
			</trkpt>
			<trkpt lat="42.965549" lon="-1.495649">
				<ele>793</ele>
				<time>2018-04-28T08:38:38Z</time>
			</trkpt>
			<trkpt lat="42.96556" lon="-1.495579">
				<ele>793</ele>
				<time>2018-04-28T08:38:42Z</time>
			</trkpt>
			<trkpt lat="42.965538" lon="-1.495501">
				<ele>793</ele>
				<time>2018-04-28T08:38:47Z</time>
			</trkpt>
			<trkpt lat="42.965534" lon="-1.495426">
				<ele>793</ele>
				<time>2018-04-28T08:38:52Z</time>
			</trkpt>
			<trkpt lat="42.965543" lon="-1.495361">
				<ele>793</ele>
				<time>2018-04-28T08:38:55Z</time>
			</trkpt>
			<trkpt lat="42.965545" lon="-1.495286">
				<ele>793</ele>
				<time>2018-04-28T08:38:58Z</time>
			</trkpt>
			<trkpt lat="42.965525" lon="-1.495211">
				<ele>793</ele>
				<time>2018-04-28T08:39:01Z</time>
			</trkpt>
			<trkpt lat="42.965519" lon="-1.495148">
				<ele>793</ele>
				<time>2018-04-28T08:39:04Z</time>
			</trkpt>
			<trkpt lat="42.965552" lon="-1.495085">
				<ele>793</ele>
				<time>2018-04-28T08:39:07Z</time>
			</trkpt>
			<trkpt lat="42.965557" lon="-1.495001">
				<ele>793</ele>
				<time>2018-04-28T08:39:11Z</time>
			</trkpt>
			<trkpt lat="42.965574" lon="-1.494917">
				<ele>793</ele>
				<time>2018-04-28T08:39:15Z</time>
			</trkpt>
			<trkpt lat="42.96557" lon="-1.494828">
				<ele>793</ele>
				<time>2018-04-28T08:39:17Z</time>
			</trkpt>
			<trkpt lat="42.965562" lon="-1.494764">
				<ele>793</ele>
				<time>2018-04-28T08:39:19Z</time>
			</trkpt>
			<trkpt lat="42.965547" lon="-1.494686">
				<ele>793</ele>
				<time>2018-04-28T08:39:21Z</time>
			</trkpt>
			<trkpt lat="42.965549" lon="-1.494617">
				<ele>793</ele>
				<time>2018-04-28T08:39:23Z</time>
			</trkpt>
			<trkpt lat="42.965525" lon="-1.494542">
				<ele>793</ele>
				<time>2018-04-28T08:39:26Z</time>
			</trkpt>
			<trkpt lat="42.965509" lon="-1.494447">
				<ele>793</ele>
				<time>2018-04-28T08:39:29Z</time>
			</trkpt>
			<trkpt lat="42.965502" lon="-1.494348">
				<ele>793</ele>
				<time>2018-04-28T08:39:32Z</time>
			</trkpt>
			<trkpt lat="42.965488" lon="-1.494285">
				<ele>793</ele>
				<time>2018-04-28T08:39:34Z</time>
			</trkpt>
			<trkpt lat="42.965486" lon="-1.494216">
				<ele>793</ele>
				<time>2018-04-28T08:39:37Z</time>
			</trkpt>
			<trkpt lat="42.9655" lon="-1.494135">
				<ele>793</ele>
				<time>2018-04-28T08:39:40Z</time>
			</trkpt>
			<trkpt lat="42.965504" lon="-1.494066">
				<ele>793</ele>
				<time>2018-04-28T08:39:42Z</time>
			</trkpt>
			<trkpt lat="42.965498" lon="-1.494001">
				<ele>793</ele>
				<time>2018-04-28T08:39:44Z</time>
			</trkpt>
			<trkpt lat="42.965481" lon="-1.493922">
				<ele>793</ele>
				<time>2018-04-28T08:39:47Z</time>
			</trkpt>
			<trkpt lat="42.965494" lon="-1.493847">
				<ele>793</ele>
				<time>2018-04-28T08:39:49Z</time>
			</trkpt>
			<trkpt lat="42.965538" lon="-1.493812">
				<ele>793</ele>
				<time>2018-04-28T08:39:52Z</time>
			</trkpt>
			<trkpt lat="42.965565" lon="-1.493755">
				<ele>793</ele>
				<time>2018-04-28T08:39:57Z</time>
			</trkpt>
			<trkpt lat="42.965598" lon="-1.493706">
				<ele>793</ele>
				<time>2018-04-28T08:40:01Z</time>
			</trkpt>
			<trkpt lat="42.965639" lon="-1.493678">
				<ele>793</ele>
				<time>2018-04-28T08:40:05Z</time>
			</trkpt>
			<trkpt lat="42.965682" lon="-1.493651">
				<ele>793</ele>
				<time>2018-04-28T08:40:12Z</time>
			</trkpt>
			<trkpt lat="42.965718" lon="-1.493601">
				<ele>793</ele>
				<time>2018-04-28T08:40:16Z</time>
			</trkpt>
			<trkpt lat="42.965765" lon="-1.493571">
				<ele>793</ele>
				<time>2018-04-28T08:40:20Z</time>
			</trkpt>
			<trkpt lat="42.965808" lon="-1.493547">
				<ele>793</ele>
				<time>2018-04-28T08:40:24Z</time>
			</trkpt>
			<trkpt lat="42.96587" lon="-1.493549">
				<ele>793</ele>
				<time>2018-04-28T08:40:31Z</time>
			</trkpt>
			<trkpt lat="42.965918" lon="-1.493525">
				<ele>793</ele>
				<time>2018-04-28T08:40:37Z</time>
			</trkpt>
			<trkpt lat="42.965967" lon="-1.493508">
				<ele>793</ele>
				<time>2018-04-28T08:40:40Z</time>
			</trkpt>
			<trkpt lat="42.966009" lon="-1.493543">
				<ele>793</ele>
				<time>2018-04-28T08:40:47Z</time>
			</trkpt>
			<trkpt lat="42.966035" lon="-1.493612">
				<ele>793</ele>
				<time>2018-04-28T08:40:52Z</time>
			</trkpt>
			<trkpt lat="42.966036" lon="-1.493681">
				<ele>793</ele>
				<time>2018-04-28T08:40:56Z</time>
			</trkpt>
			<trkpt lat="42.966053" lon="-1.493742">
				<ele>793</ele>
				<time>2018-04-28T08:41:02Z</time>
			</trkpt>
			<trkpt lat="42.966062" lon="-1.493803">
				<ele>793</ele>
				<time>2018-04-28T08:41:06Z</time>
			</trkpt>
			<trkpt lat="42.966083" lon="-1.493865">
				<ele>793</ele>
				<time>2018-04-28T08:41:10Z</time>
			</trkpt>
			<trkpt lat="42.966126" lon="-1.493883">
				<ele>793</ele>
				<time>2018-04-28T08:41:14Z</time>
			</trkpt>
			<trkpt lat="42.966183" lon="-1.493851">
				<ele>793</ele>
				<time>2018-04-28T08:41:18Z</time>
			</trkpt>
			<trkpt lat="42.966239" lon="-1.493862">
				<ele>793</ele>
				<time>2018-04-28T08:41:23Z</time>
			</trkpt>
			<trkpt lat="42.966288" lon="-1.49386">
				<ele>793</ele>
				<time>2018-04-28T08:41:27Z</time>
			</trkpt>
			<trkpt lat="42.966339" lon="-1.493849">
				<ele>793</ele>
				<time>2018-04-28T08:41:34Z</time>
			</trkpt>
			<trkpt lat="42.966392" lon="-1.493793">
				<ele>793</ele>
				<time>2018-04-28T08:41:37Z</time>
			</trkpt>
			<trkpt lat="42.966395" lon="-1.493855">
				<ele>793</ele>
				<time>2018-04-28T08:41:42Z</time>
			</trkpt>
			<trkpt lat="42.966416" lon="-1.493931">
				<ele>793</ele>
				<time>2018-04-28T08:41:47Z</time>
			</trkpt>
			<trkpt lat="42.966422" lon="-1.49401">
				<ele>793</ele>
				<time>2018-04-28T08:41:52Z</time>
			</trkpt>
			<trkpt lat="42.96647" lon="-1.49403">
				<ele>793</ele>
				<time>2018-04-28T08:41:56Z</time>
			</trkpt>
			<trkpt lat="42.966513" lon="-1.494065">
				<ele>793</ele>
				<time>2018-04-28T08:42:00Z</time>
			</trkpt>
			<trkpt lat="42.966557" lon="-1.494089">
				<ele>793</ele>
				<time>2018-04-28T08:42:04Z</time>
			</trkpt>
			<trkpt lat="42.966611" lon="-1.494096">
				<ele>793</ele>
				<time>2018-04-28T08:42:09Z</time>
			</trkpt>
			<trkpt lat="42.966655" lon="-1.494076">
				<ele>793</ele>
				<time>2018-04-28T08:42:13Z</time>
			</trkpt>
			<trkpt lat="42.966703" lon="-1.494063">
				<ele>876</ele>
				<time>2018-04-28T08:42:16Z</time>
			</trkpt>
			<trkpt lat="42.966754" lon="-1.494054">
				<ele>876</ele>
				<time>2018-04-28T08:42:20Z</time>
			</trkpt>
			<trkpt lat="42.966821" lon="-1.494027">
				<ele>876</ele>
				<time>2018-04-28T08:42:25Z</time>
			</trkpt>
			<trkpt lat="42.966874" lon="-1.494021">
				<ele>876</ele>
				<time>2018-04-28T08:42:30Z</time>
			</trkpt>
			<trkpt lat="42.966924" lon="-1.494025">
				<ele>876</ele>
				<time>2018-04-28T08:42:34Z</time>
			</trkpt>
			<trkpt lat="42.966972" lon="-1.494024">
				<ele>876</ele>
				<time>2018-04-28T08:42:38Z</time>
			</trkpt>
			<trkpt lat="42.96703" lon="-1.494032">
				<ele>876</ele>
				<time>2018-04-28T08:42:45Z</time>
			</trkpt>
			<trkpt lat="42.967072" lon="-1.494063">
				<ele>876</ele>
				<time>2018-04-28T08:42:52Z</time>
			</trkpt>
			<trkpt lat="42.967124" lon="-1.494044">
				<ele>876</ele>
				<time>2018-04-28T08:42:57Z</time>
			</trkpt>
			<trkpt lat="42.967163" lon="-1.494112">
				<ele>876</ele>
				<time>2018-04-28T08:43:06Z</time>
			</trkpt>
			<trkpt lat="42.967175" lon="-1.494176">
				<ele>876</ele>
				<time>2018-04-28T08:43:11Z</time>
			</trkpt>
			<trkpt lat="42.967192" lon="-1.494234">
				<ele>876</ele>
				<time>2018-04-28T08:43:16Z</time>
			</trkpt>
			<trkpt lat="42.967214" lon="-1.4943">
				<ele>876</ele>
				<time>2018-04-28T08:43:22Z</time>
			</trkpt>
			<trkpt lat="42.967231" lon="-1.494364">
				<ele>876</ele>
				<time>2018-04-28T08:43:27Z</time>
			</trkpt>
			<trkpt lat="42.967249" lon="-1.494431">
				<ele>876</ele>
				<time>2018-04-28T08:43:33Z</time>
			</trkpt>
			<trkpt lat="42.967258" lon="-1.494493">
				<ele>876</ele>
				<time>2018-04-28T08:43:39Z</time>
			</trkpt>
			<trkpt lat="42.967261" lon="-1.494559">
				<ele>876</ele>
				<time>2018-04-28T08:43:43Z</time>
			</trkpt>
			<trkpt lat="42.967257" lon="-1.494622">
				<ele>876</ele>
				<time>2018-04-28T08:43:47Z</time>
			</trkpt>
			<trkpt lat="42.967288" lon="-1.494673">
				<ele>876</ele>
				<time>2018-04-28T08:43:52Z</time>
			</trkpt>
			<trkpt lat="42.967326" lon="-1.494709">
				<ele>876</ele>
				<time>2018-04-28T08:43:59Z</time>
			</trkpt>
			<trkpt lat="42.967365" lon="-1.49475">
				<ele>876</ele>
				<time>2018-04-28T08:44:03Z</time>
			</trkpt>
			<trkpt lat="42.967387" lon="-1.494806">
				<ele>876</ele>
				<time>2018-04-28T08:44:08Z</time>
			</trkpt>
			<trkpt lat="42.96739" lon="-1.494878">
				<ele>876</ele>
				<time>2018-04-28T08:44:14Z</time>
			</trkpt>
			<trkpt lat="42.967433" lon="-1.494925">
				<ele>876</ele>
				<time>2018-04-28T08:44:20Z</time>
			</trkpt>
			<trkpt lat="42.967465" lon="-1.494974">
				<ele>876</ele>
				<time>2018-04-28T08:44:26Z</time>
			</trkpt>
			<trkpt lat="42.967486" lon="-1.495046">
				<ele>876</ele>
				<time>2018-04-28T08:44:32Z</time>
			</trkpt>
			<trkpt lat="42.967519" lon="-1.495109">
				<ele>876</ele>
				<time>2018-04-28T08:44:40Z</time>
			</trkpt>
			<trkpt lat="42.967552" lon="-1.495173">
				<ele>876</ele>
				<time>2018-04-28T08:44:45Z</time>
			</trkpt>
			<trkpt lat="42.967585" lon="-1.495231">
				<ele>876</ele>
				<time>2018-04-28T08:44:50Z</time>
			</trkpt>
			<trkpt lat="42.967611" lon="-1.495285">
				<ele>876</ele>
				<time>2018-04-28T08:44:56Z</time>
			</trkpt>
			<trkpt lat="42.967645" lon="-1.495332">
				<ele>876</ele>
				<time>2018-04-28T08:45:03Z</time>
			</trkpt>
			<trkpt lat="42.96768" lon="-1.495376">
				<ele>876</ele>
				<time>2018-04-28T08:45:07Z</time>
			</trkpt>
			<trkpt lat="42.967685" lon="-1.495448">
				<ele>876</ele>
				<time>2018-04-28T08:45:11Z</time>
			</trkpt>
			<trkpt lat="42.967692" lon="-1.495513">
				<ele>876</ele>
				<time>2018-04-28T08:45:16Z</time>
			</trkpt>
			<trkpt lat="42.967711" lon="-1.495569">
				<ele>876</ele>
				<time>2018-04-28T08:45:24Z</time>
			</trkpt>
			<trkpt lat="42.967752" lon="-1.495595">
				<ele>876</ele>
				<time>2018-04-28T08:45:29Z</time>
			</trkpt>
			<trkpt lat="42.967791" lon="-1.495635">
				<ele>876</ele>
				<time>2018-04-28T08:45:34Z</time>
			</trkpt>
			<trkpt lat="42.967826" lon="-1.495681">
				<ele>876</ele>
				<time>2018-04-28T08:45:39Z</time>
			</trkpt>
			<trkpt lat="42.967862" lon="-1.495633">
				<ele>876</ele>
				<time>2018-04-28T08:45:45Z</time>
			</trkpt>
			<trkpt lat="42.967913" lon="-1.495612">
				<ele>876</ele>
				<time>2018-04-28T08:45:48Z</time>
			</trkpt>
			<trkpt lat="42.967956" lon="-1.495591">
				<ele>876</ele>
				<time>2018-04-28T08:45:50Z</time>
			</trkpt>
			<trkpt lat="42.968004" lon="-1.495582">
				<ele>876</ele>
				<time>2018-04-28T08:45:53Z</time>
			</trkpt>
			<trkpt lat="42.968036" lon="-1.495625">
				<ele>876</ele>
				<time>2018-04-28T08:45:59Z</time>
			</trkpt>
			<trkpt lat="42.968073" lon="-1.495694">
				<ele>876</ele>
				<time>2018-04-28T08:46:03Z</time>
			</trkpt>
			<trkpt lat="42.968121" lon="-1.495716">
				<ele>876</ele>
				<time>2018-04-28T08:46:09Z</time>
			</trkpt>
			<trkpt lat="42.96813" lon="-1.495777">
				<ele>876</ele>
				<time>2018-04-28T08:46:13Z</time>
			</trkpt>
			<trkpt lat="42.968127" lon="-1.495849">
				<ele>905</ele>
				<time>2018-04-28T08:46:17Z</time>
			</trkpt>
			<trkpt lat="42.968145" lon="-1.495919">
				<ele>905</ele>
				<time>2018-04-28T08:46:21Z</time>
			</trkpt>
			<trkpt lat="42.968159" lon="-1.495986">
				<ele>905</ele>
				<time>2018-04-28T08:46:25Z</time>
			</trkpt>
			<trkpt lat="42.968204" lon="-1.496026">
				<ele>905</ele>
				<time>2018-04-28T08:46:30Z</time>
			</trkpt>
			<trkpt lat="42.968231" lon="-1.496078">
				<ele>905</ele>
				<time>2018-04-28T08:46:34Z</time>
			</trkpt>
			<trkpt lat="42.96827" lon="-1.496124">
				<ele>905</ele>
				<time>2018-04-28T08:46:38Z</time>
			</trkpt>
			<trkpt lat="42.968299" lon="-1.496179">
				<ele>905</ele>
				<time>2018-04-28T08:46:43Z</time>
			</trkpt>
			<trkpt lat="42.968328" lon="-1.496229">
				<ele>905</ele>
				<time>2018-04-28T08:46:46Z</time>
			</trkpt>
			<trkpt lat="42.96837" lon="-1.496279">
				<ele>905</ele>
				<time>2018-04-28T08:46:53Z</time>
			</trkpt>
			<trkpt lat="42.968415" lon="-1.496316">
				<ele>905</ele>
				<time>2018-04-28T08:46:58Z</time>
			</trkpt>
			<trkpt lat="42.968458" lon="-1.496334">
				<ele>905</ele>
				<time>2018-04-28T08:47:04Z</time>
			</trkpt>
			<trkpt lat="42.968511" lon="-1.496343">
				<ele>905</ele>
				<time>2018-04-28T08:47:09Z</time>
			</trkpt>
			<trkpt lat="42.968556" lon="-1.496366">
				<ele>905</ele>
				<time>2018-04-28T08:47:15Z</time>
			</trkpt>
			<trkpt lat="42.968607" lon="-1.496374">
				<ele>905</ele>
				<time>2018-04-28T08:47:22Z</time>
			</trkpt>
			<trkpt lat="42.968655" lon="-1.49638">
				<ele>905</ele>
				<time>2018-04-28T08:47:25Z</time>
			</trkpt>
			<trkpt lat="42.968708" lon="-1.496369">
				<ele>905</ele>
				<time>2018-04-28T08:47:30Z</time>
			</trkpt>
			<trkpt lat="42.968751" lon="-1.496346">
				<ele>956</ele>
				<time>2018-04-28T08:47:35Z</time>
			</trkpt>
			<trkpt lat="42.968801" lon="-1.496345">
				<ele>956</ele>
				<time>2018-04-28T08:47:41Z</time>
			</trkpt>
			<trkpt lat="42.968847" lon="-1.496357">
				<ele>956</ele>
				<time>2018-04-28T08:47:47Z</time>
			</trkpt>
			<trkpt lat="42.968893" lon="-1.496368">
				<ele>956</ele>
				<time>2018-04-28T08:47:55Z</time>
			</trkpt>
			<trkpt lat="42.968918" lon="-1.496426">
				<ele>956</ele>
				<time>2018-04-28T08:48:00Z</time>
			</trkpt>
			<trkpt lat="42.968961" lon="-1.496462">
				<ele>956</ele>
				<time>2018-04-28T08:48:11Z</time>
			</trkpt>
			<trkpt lat="42.968997" lon="-1.496502">
				<ele>956</ele>
				<time>2018-04-28T08:48:18Z</time>
			</trkpt>
			<trkpt lat="42.969041" lon="-1.496538">
				<ele>956</ele>
				<time>2018-04-28T08:48:25Z</time>
			</trkpt>
			<trkpt lat="42.969095" lon="-1.496527">
				<ele>956</ele>
				<time>2018-04-28T08:48:31Z</time>
			</trkpt>
			<trkpt lat="42.969145" lon="-1.496525">
				<ele>956</ele>
				<time>2018-04-28T08:48:36Z</time>
			</trkpt>
			<trkpt lat="42.969189" lon="-1.496546">
				<ele>956</ele>
				<time>2018-04-28T08:48:41Z</time>
			</trkpt>
			<trkpt lat="42.969225" lon="-1.496593">
				<ele>956</ele>
				<time>2018-04-28T08:48:46Z</time>
			</trkpt>
			<trkpt lat="42.969253" lon="-1.496644">
				<ele>956</ele>
				<time>2018-04-28T08:48:52Z</time>
			</trkpt>
			<trkpt lat="42.969298" lon="-1.496683">
				<ele>956</ele>
				<time>2018-04-28T08:48:57Z</time>
			</trkpt>
			<trkpt lat="42.969355" lon="-1.496657">
				<ele>956</ele>
				<time>2018-04-28T08:49:01Z</time>
			</trkpt>
			<trkpt lat="42.969403" lon="-1.496641">
				<ele>956</ele>
				<time>2018-04-28T08:49:03Z</time>
			</trkpt>
			<trkpt lat="42.969447" lon="-1.496614">
				<ele>956</ele>
				<time>2018-04-28T08:49:05Z</time>
			</trkpt>
			<trkpt lat="42.969485" lon="-1.496577">
				<ele>956</ele>
				<time>2018-04-28T08:49:07Z</time>
			</trkpt>
			<trkpt lat="42.969539" lon="-1.496557">
				<ele>956</ele>
				<time>2018-04-28T08:49:09Z</time>
			</trkpt>
			<trkpt lat="42.969593" lon="-1.496514">
				<ele>956</ele>
				<time>2018-04-28T08:49:12Z</time>
			</trkpt>
			<trkpt lat="42.969633" lon="-1.496476">
				<ele>956</ele>
				<time>2018-04-28T08:49:14Z</time>
			</trkpt>
			<trkpt lat="42.969684" lon="-1.49644">
				<ele>956</ele>
				<time>2018-04-28T08:49:16Z</time>
			</trkpt>
			<trkpt lat="42.969731" lon="-1.49639">
				<ele>956</ele>
				<time>2018-04-28T08:49:18Z</time>
			</trkpt>
			<trkpt lat="42.969786" lon="-1.49634">
				<ele>956</ele>
				<time>2018-04-28T08:49:20Z</time>
			</trkpt>
			<trkpt lat="42.969829" lon="-1.496283">
				<ele>956</ele>
				<time>2018-04-28T08:49:22Z</time>
			</trkpt>
			<trkpt lat="42.969871" lon="-1.496244">
				<ele>956</ele>
				<time>2018-04-28T08:49:24Z</time>
			</trkpt>
			<trkpt lat="42.969921" lon="-1.496211">
				<ele>956</ele>
				<time>2018-04-28T08:49:26Z</time>
			</trkpt>
			<trkpt lat="42.969966" lon="-1.496159">
				<ele>956</ele>
				<time>2018-04-28T08:49:28Z</time>
			</trkpt>
			<trkpt lat="42.970003" lon="-1.496097">
				<ele>956</ele>
				<time>2018-04-28T08:49:30Z</time>
			</trkpt>
			<trkpt lat="42.970046" lon="-1.496039">
				<ele>956</ele>
				<time>2018-04-28T08:49:32Z</time>
			</trkpt>
			<trkpt lat="42.970081" lon="-1.495975">
				<ele>956</ele>
				<time>2018-04-28T08:49:34Z</time>
			</trkpt>
			<trkpt lat="42.970125" lon="-1.495903">
				<ele>956</ele>
				<time>2018-04-28T08:49:36Z</time>
			</trkpt>
			<trkpt lat="42.97017" lon="-1.49584">
				<ele>956</ele>
				<time>2018-04-28T08:49:38Z</time>
			</trkpt>
			<trkpt lat="42.970212" lon="-1.495776">
				<ele>925</ele>
				<time>2018-04-28T08:49:40Z</time>
			</trkpt>
			<trkpt lat="42.970248" lon="-1.495702">
				<ele>925</ele>
				<time>2018-04-28T08:49:42Z</time>
			</trkpt>
			<trkpt lat="42.970278" lon="-1.495641">
				<ele>925</ele>
				<time>2018-04-28T08:49:44Z</time>
			</trkpt>
			<trkpt lat="42.970301" lon="-1.495562">
				<ele>925</ele>
				<time>2018-04-28T08:49:46Z</time>
			</trkpt>
			<trkpt lat="42.97032" lon="-1.495488">
				<ele>925</ele>
				<time>2018-04-28T08:49:48Z</time>
			</trkpt>
			<trkpt lat="42.970325" lon="-1.495405">
				<ele>925</ele>
				<time>2018-04-28T08:49:50Z</time>
			</trkpt>
			<trkpt lat="42.970324" lon="-1.495331">
				<ele>925</ele>
				<time>2018-04-28T08:49:52Z</time>
			</trkpt>
			<trkpt lat="42.970328" lon="-1.495255">
				<ele>925</ele>
				<time>2018-04-28T08:49:54Z</time>
			</trkpt>
			<trkpt lat="42.970332" lon="-1.495162">
				<ele>925</ele>
				<time>2018-04-28T08:49:56Z</time>
			</trkpt>
			<trkpt lat="42.970345" lon="-1.495085">
				<ele>925</ele>
				<time>2018-04-28T08:49:58Z</time>
			</trkpt>
			<trkpt lat="42.970358" lon="-1.495002">
				<ele>925</ele>
				<time>2018-04-28T08:50:00Z</time>
			</trkpt>
			<trkpt lat="42.970367" lon="-1.494917">
				<ele>925</ele>
				<time>2018-04-28T08:50:02Z</time>
			</trkpt>
			<trkpt lat="42.970373" lon="-1.494834">
				<ele>925</ele>
				<time>2018-04-28T08:50:04Z</time>
			</trkpt>
			<trkpt lat="42.970376" lon="-1.494746">
				<ele>925</ele>
				<time>2018-04-28T08:50:06Z</time>
			</trkpt>
			<trkpt lat="42.970375" lon="-1.494671">
				<ele>925</ele>
				<time>2018-04-28T08:50:08Z</time>
			</trkpt>
			<trkpt lat="42.970386" lon="-1.494587">
				<ele>925</ele>
				<time>2018-04-28T08:50:11Z</time>
			</trkpt>
			<trkpt lat="42.970396" lon="-1.494515">
				<ele>925</ele>
				<time>2018-04-28T08:50:13Z</time>
			</trkpt>
			<trkpt lat="42.970409" lon="-1.494438">
				<ele>925</ele>
				<time>2018-04-28T08:50:16Z</time>
			</trkpt>
			<trkpt lat="42.970429" lon="-1.494359">
				<ele>925</ele>
				<time>2018-04-28T08:50:19Z</time>
			</trkpt>
			<trkpt lat="42.970436" lon="-1.49429">
				<ele>925</ele>
				<time>2018-04-28T08:50:21Z</time>
			</trkpt>
			<trkpt lat="42.970452" lon="-1.494232">
				<ele>925</ele>
				<time>2018-04-28T08:50:23Z</time>
			</trkpt>
			<trkpt lat="42.970459" lon="-1.494167">
				<ele>925</ele>
				<time>2018-04-28T08:50:25Z</time>
			</trkpt>
			<trkpt lat="42.970472" lon="-1.494102">
				<ele>925</ele>
				<time>2018-04-28T08:50:27Z</time>
			</trkpt>
			<trkpt lat="42.970495" lon="-1.494039">
				<ele>925</ele>
				<time>2018-04-28T08:50:29Z</time>
			</trkpt>
			<trkpt lat="42.970507" lon="-1.493967">
				<ele>925</ele>
				<time>2018-04-28T08:50:31Z</time>
			</trkpt>
			<trkpt lat="42.970511" lon="-1.493892">
				<ele>925</ele>
				<time>2018-04-28T08:50:34Z</time>
			</trkpt>
			<trkpt lat="42.970517" lon="-1.493825">
				<ele>925</ele>
				<time>2018-04-28T08:50:36Z</time>
			</trkpt>
			<trkpt lat="42.970512" lon="-1.493748">
				<ele>925</ele>
				<time>2018-04-28T08:50:38Z</time>
			</trkpt>
			<trkpt lat="42.970508" lon="-1.493676">
				<ele>925</ele>
				<time>2018-04-28T08:50:40Z</time>
			</trkpt>
			<trkpt lat="42.970518" lon="-1.493614">
				<ele>925</ele>
				<time>2018-04-28T08:50:42Z</time>
			</trkpt>
			<trkpt lat="42.970521" lon="-1.493542">
				<ele>925</ele>
				<time>2018-04-28T08:50:44Z</time>
			</trkpt>
			<trkpt lat="42.970524" lon="-1.493452">
				<ele>925</ele>
				<time>2018-04-28T08:50:47Z</time>
			</trkpt>
			<trkpt lat="42.970531" lon="-1.493361">
				<ele>925</ele>
				<time>2018-04-28T08:50:50Z</time>
			</trkpt>
			<trkpt lat="42.970536" lon="-1.4933">
				<ele>925</ele>
				<time>2018-04-28T08:50:52Z</time>
			</trkpt>
			<trkpt lat="42.970544" lon="-1.493213">
				<ele>925</ele>
				<time>2018-04-28T08:50:55Z</time>
			</trkpt>
			<trkpt lat="42.970553" lon="-1.493151">
				<ele>925</ele>
				<time>2018-04-28T08:50:57Z</time>
			</trkpt>
			<trkpt lat="42.970556" lon="-1.493075">
				<ele>925</ele>
				<time>2018-04-28T08:51:00Z</time>
			</trkpt>
			<trkpt lat="42.970567" lon="-1.493014">
				<ele>925</ele>
				<time>2018-04-28T08:51:02Z</time>
			</trkpt>
			<trkpt lat="42.970584" lon="-1.492954">
				<ele>925</ele>
				<time>2018-04-28T08:51:04Z</time>
			</trkpt>
			<trkpt lat="42.970606" lon="-1.4929">
				<ele>925</ele>
				<time>2018-04-28T08:51:06Z</time>
			</trkpt>
			<trkpt lat="42.970652" lon="-1.492848">
				<ele>925</ele>
				<time>2018-04-28T08:51:09Z</time>
			</trkpt>
			<trkpt lat="42.97069" lon="-1.492793">
				<ele>925</ele>
				<time>2018-04-28T08:51:12Z</time>
			</trkpt>
			<trkpt lat="42.970717" lon="-1.492736">
				<ele>925</ele>
				<time>2018-04-28T08:51:14Z</time>
			</trkpt>
			<trkpt lat="42.970749" lon="-1.492681">
				<ele>925</ele>
				<time>2018-04-28T08:51:16Z</time>
			</trkpt>
			<trkpt lat="42.970783" lon="-1.492613">
				<ele>925</ele>
				<time>2018-04-28T08:51:18Z</time>
			</trkpt>
			<trkpt lat="42.970814" lon="-1.492554">
				<ele>925</ele>
				<time>2018-04-28T08:51:20Z</time>
			</trkpt>
			<trkpt lat="42.970842" lon="-1.492493">
				<ele>946</ele>
				<time>2018-04-28T08:51:23Z</time>
			</trkpt>
			<trkpt lat="42.970869" lon="-1.492409">
				<ele>946</ele>
				<time>2018-04-28T08:51:26Z</time>
			</trkpt>
			<trkpt lat="42.970896" lon="-1.492352">
				<ele>946</ele>
				<time>2018-04-28T08:51:28Z</time>
			</trkpt>
			<trkpt lat="42.970913" lon="-1.492293">
				<ele>946</ele>
				<time>2018-04-28T08:51:30Z</time>
			</trkpt>
			<trkpt lat="42.970938" lon="-1.49222">
				<ele>946</ele>
				<time>2018-04-28T08:51:32Z</time>
			</trkpt>
			<trkpt lat="42.970963" lon="-1.492156">
				<ele>946</ele>
				<time>2018-04-28T08:51:34Z</time>
			</trkpt>
			<trkpt lat="42.970984" lon="-1.492092">
				<ele>946</ele>
				<time>2018-04-28T08:51:36Z</time>
			</trkpt>
			<trkpt lat="42.971009" lon="-1.492027">
				<ele>946</ele>
				<time>2018-04-28T08:51:38Z</time>
			</trkpt>
			<trkpt lat="42.971029" lon="-1.491958">
				<ele>946</ele>
				<time>2018-04-28T08:51:40Z</time>
			</trkpt>
			<trkpt lat="42.971055" lon="-1.491895">
				<ele>946</ele>
				<time>2018-04-28T08:51:42Z</time>
			</trkpt>
			<trkpt lat="42.97108" lon="-1.491827">
				<ele>946</ele>
				<time>2018-04-28T08:51:44Z</time>
			</trkpt>
			<trkpt lat="42.971102" lon="-1.49177">
				<ele>946</ele>
				<time>2018-04-28T08:51:46Z</time>
			</trkpt>
			<trkpt lat="42.971126" lon="-1.4917">
				<ele>946</ele>
				<time>2018-04-28T08:51:48Z</time>
			</trkpt>
			<trkpt lat="42.971157" lon="-1.491633">
				<ele>957</ele>
				<time>2018-04-28T08:51:50Z</time>
			</trkpt>
			<trkpt lat="42.971182" lon="-1.491579">
				<ele>957</ele>
				<time>2018-04-28T08:51:52Z</time>
			</trkpt>
			<trkpt lat="42.971214" lon="-1.491516">
				<ele>957</ele>
				<time>2018-04-28T08:51:54Z</time>
			</trkpt>
			<trkpt lat="42.97124" lon="-1.491454">
				<ele>957</ele>
				<time>2018-04-28T08:51:56Z</time>
			</trkpt>
			<trkpt lat="42.971265" lon="-1.491383">
				<ele>957</ele>
				<time>2018-04-28T08:51:58Z</time>
			</trkpt>
			<trkpt lat="42.971303" lon="-1.491301">
				<ele>957</ele>
				<time>2018-04-28T08:52:01Z</time>
			</trkpt>
			<trkpt lat="42.971331" lon="-1.49125">
				<ele>957</ele>
				<time>2018-04-28T08:52:03Z</time>
			</trkpt>
			<trkpt lat="42.971355" lon="-1.491189">
				<ele>957</ele>
				<time>2018-04-28T08:52:05Z</time>
			</trkpt>
			<trkpt lat="42.971381" lon="-1.49111">
				<ele>957</ele>
				<time>2018-04-28T08:52:07Z</time>
			</trkpt>
			<trkpt lat="42.971412" lon="-1.491038">
				<ele>957</ele>
				<time>2018-04-28T08:52:09Z</time>
			</trkpt>
			<trkpt lat="42.971439" lon="-1.490965">
				<ele>957</ele>
				<time>2018-04-28T08:52:11Z</time>
			</trkpt>
			<trkpt lat="42.971462" lon="-1.490897">
				<ele>957</ele>
				<time>2018-04-28T08:52:13Z</time>
			</trkpt>
			<trkpt lat="42.971491" lon="-1.490835">
				<ele>957</ele>
				<time>2018-04-28T08:52:15Z</time>
			</trkpt>
			<trkpt lat="42.971517" lon="-1.490772">
				<ele>957</ele>
				<time>2018-04-28T08:52:17Z</time>
			</trkpt>
			<trkpt lat="42.971538" lon="-1.490707">
				<ele>957</ele>
				<time>2018-04-28T08:52:19Z</time>
			</trkpt>
			<trkpt lat="42.971564" lon="-1.490641">
				<ele>957</ele>
				<time>2018-04-28T08:52:21Z</time>
			</trkpt>
			<trkpt lat="42.971594" lon="-1.490565">
				<ele>957</ele>
				<time>2018-04-28T08:52:23Z</time>
			</trkpt>
			<trkpt lat="42.971626" lon="-1.490496">
				<ele>957</ele>
				<time>2018-04-28T08:52:25Z</time>
			</trkpt>
			<trkpt lat="42.971651" lon="-1.490414">
				<ele>957</ele>
				<time>2018-04-28T08:52:27Z</time>
			</trkpt>
			<trkpt lat="42.971678" lon="-1.490347">
				<ele>957</ele>
				<time>2018-04-28T08:52:29Z</time>
			</trkpt>
			<trkpt lat="42.971703" lon="-1.49028">
				<ele>957</ele>
				<time>2018-04-28T08:52:31Z</time>
			</trkpt>
			<trkpt lat="42.971729" lon="-1.490209">
				<ele>957</ele>
				<time>2018-04-28T08:52:33Z</time>
			</trkpt>
			<trkpt lat="42.971751" lon="-1.490138">
				<ele>957</ele>
				<time>2018-04-28T08:52:35Z</time>
			</trkpt>
			<trkpt lat="42.971772" lon="-1.490068">
				<ele>957</ele>
				<time>2018-04-28T08:52:37Z</time>
			</trkpt>
			<trkpt lat="42.971792" lon="-1.489996">
				<ele>957</ele>
				<time>2018-04-28T08:52:39Z</time>
			</trkpt>
			<trkpt lat="42.971815" lon="-1.489922">
				<ele>957</ele>
				<time>2018-04-28T08:52:41Z</time>
			</trkpt>
			<trkpt lat="42.971829" lon="-1.489845">
				<ele>957</ele>
				<time>2018-04-28T08:52:43Z</time>
			</trkpt>
			<trkpt lat="42.971865" lon="-1.489778">
				<ele>957</ele>
				<time>2018-04-28T08:52:45Z</time>
			</trkpt>
			<trkpt lat="42.971891" lon="-1.489728">
				<ele>957</ele>
				<time>2018-04-28T08:52:47Z</time>
			</trkpt>
			<trkpt lat="42.971915" lon="-1.489669">
				<ele>957</ele>
				<time>2018-04-28T08:52:49Z</time>
			</trkpt>
			<trkpt lat="42.971961" lon="-1.489607">
				<ele>957</ele>
				<time>2018-04-28T08:52:52Z</time>
			</trkpt>
			<trkpt lat="42.971996" lon="-1.489547">
				<ele>942</ele>
				<time>2018-04-28T08:52:54Z</time>
			</trkpt>
			<trkpt lat="42.972027" lon="-1.489488">
				<ele>942</ele>
				<time>2018-04-28T08:52:56Z</time>
			</trkpt>
			<trkpt lat="42.972062" lon="-1.489426">
				<ele>942</ele>
				<time>2018-04-28T08:52:58Z</time>
			</trkpt>
			<trkpt lat="42.972103" lon="-1.489353">
				<ele>942</ele>
				<time>2018-04-28T08:53:00Z</time>
			</trkpt>
			<trkpt lat="42.972137" lon="-1.489288">
				<ele>942</ele>
				<time>2018-04-28T08:53:02Z</time>
			</trkpt>
			<trkpt lat="42.972181" lon="-1.489229">
				<ele>942</ele>
				<time>2018-04-28T08:53:04Z</time>
			</trkpt>
			<trkpt lat="42.97222" lon="-1.489182">
				<ele>942</ele>
				<time>2018-04-28T08:53:06Z</time>
			</trkpt>
			<trkpt lat="42.972277" lon="-1.489141">
				<ele>942</ele>
				<time>2018-04-28T08:53:08Z</time>
			</trkpt>
			<trkpt lat="42.972323" lon="-1.489115">
				<ele>942</ele>
				<time>2018-04-28T08:53:10Z</time>
			</trkpt>
			<trkpt lat="42.97237" lon="-1.489111">
				<ele>942</ele>
				<time>2018-04-28T08:53:12Z</time>
			</trkpt>
			<trkpt lat="42.972431" lon="-1.489091">
				<ele>942</ele>
				<time>2018-04-28T08:53:14Z</time>
			</trkpt>
			<trkpt lat="42.972499" lon="-1.48905">
				<ele>942</ele>
				<time>2018-04-28T08:53:16Z</time>
			</trkpt>
			<trkpt lat="42.972548" lon="-1.488993">
				<ele>942</ele>
				<time>2018-04-28T08:53:18Z</time>
			</trkpt>
			<trkpt lat="42.972588" lon="-1.488926">
				<ele>942</ele>
				<time>2018-04-28T08:53:20Z</time>
			</trkpt>
			<trkpt lat="42.972635" lon="-1.488855">
				<ele>942</ele>
				<time>2018-04-28T08:53:22Z</time>
			</trkpt>
			<trkpt lat="42.97266" lon="-1.488788">
				<ele>942</ele>
				<time>2018-04-28T08:53:24Z</time>
			</trkpt>
			<trkpt lat="42.972697" lon="-1.48874">
				<ele>942</ele>
				<time>2018-04-28T08:53:26Z</time>
			</trkpt>
			<trkpt lat="42.972737" lon="-1.488674">
				<ele>942</ele>
				<time>2018-04-28T08:53:28Z</time>
			</trkpt>
			<trkpt lat="42.972768" lon="-1.488603">
				<ele>942</ele>
				<time>2018-04-28T08:53:30Z</time>
			</trkpt>
			<trkpt lat="42.972811" lon="-1.488546">
				<ele>942</ele>
				<time>2018-04-28T08:53:32Z</time>
			</trkpt>
			<trkpt lat="42.972846" lon="-1.488483">
				<ele>942</ele>
				<time>2018-04-28T08:53:34Z</time>
			</trkpt>
			<trkpt lat="42.972868" lon="-1.488422">
				<ele>942</ele>
				<time>2018-04-28T08:53:36Z</time>
			</trkpt>
			<trkpt lat="42.972893" lon="-1.488334">
				<ele>942</ele>
				<time>2018-04-28T08:53:38Z</time>
			</trkpt>
			<trkpt lat="42.972922" lon="-1.488253">
				<ele>933</ele>
				<time>2018-04-28T08:53:40Z</time>
			</trkpt>
			<trkpt lat="42.972948" lon="-1.488176">
				<ele>933</ele>
				<time>2018-04-28T08:53:42Z</time>
			</trkpt>
			<trkpt lat="42.972979" lon="-1.488107">
				<ele>933</ele>
				<time>2018-04-28T08:53:44Z</time>
			</trkpt>
			<trkpt lat="42.973002" lon="-1.488028">
				<ele>933</ele>
				<time>2018-04-28T08:53:46Z</time>
			</trkpt>
			<trkpt lat="42.97303" lon="-1.487959">
				<ele>933</ele>
				<time>2018-04-28T08:53:48Z</time>
			</trkpt>
			<trkpt lat="42.97307" lon="-1.487893">
				<ele>933</ele>
				<time>2018-04-28T08:53:50Z</time>
			</trkpt>
			<trkpt lat="42.973096" lon="-1.487822">
				<ele>933</ele>
				<time>2018-04-28T08:53:52Z</time>
			</trkpt>
			<trkpt lat="42.973097" lon="-1.487756">
				<ele>933</ele>
				<time>2018-04-28T08:53:54Z</time>
			</trkpt>
			<trkpt lat="42.973107" lon="-1.487683">
				<ele>933</ele>
				<time>2018-04-28T08:53:56Z</time>
			</trkpt>
			<trkpt lat="42.973122" lon="-1.487615">
				<ele>933</ele>
				<time>2018-04-28T08:53:58Z</time>
			</trkpt>
			<trkpt lat="42.973151" lon="-1.487556">
				<ele>933</ele>
				<time>2018-04-28T08:54:00Z</time>
			</trkpt>
			<trkpt lat="42.973201" lon="-1.48748">
				<ele>957</ele>
				<time>2018-04-28T08:54:02Z</time>
			</trkpt>
			<trkpt lat="42.973246" lon="-1.487426">
				<ele>957</ele>
				<time>2018-04-28T08:54:04Z</time>
			</trkpt>
			<trkpt lat="42.973283" lon="-1.487362">
				<ele>957</ele>
				<time>2018-04-28T08:54:06Z</time>
			</trkpt>
			<trkpt lat="42.973326" lon="-1.487296">
				<ele>957</ele>
				<time>2018-04-28T08:54:08Z</time>
			</trkpt>
			<trkpt lat="42.973356" lon="-1.487237">
				<ele>957</ele>
				<time>2018-04-28T08:54:10Z</time>
			</trkpt>
			<trkpt lat="42.973392" lon="-1.48717">
				<ele>957</ele>
				<time>2018-04-28T08:54:12Z</time>
			</trkpt>
			<trkpt lat="42.973431" lon="-1.487114">
				<ele>957</ele>
				<time>2018-04-28T08:54:14Z</time>
			</trkpt>
			<trkpt lat="42.973471" lon="-1.487076">
				<ele>957</ele>
				<time>2018-04-28T08:54:16Z</time>
			</trkpt>
			<trkpt lat="42.973512" lon="-1.487031">
				<ele>957</ele>
				<time>2018-04-28T08:54:18Z</time>
			</trkpt>
			<trkpt lat="42.973549" lon="-1.486987">
				<ele>957</ele>
				<time>2018-04-28T08:54:20Z</time>
			</trkpt>
			<trkpt lat="42.973596" lon="-1.486955">
				<ele>957</ele>
				<time>2018-04-28T08:54:22Z</time>
			</trkpt>
			<trkpt lat="42.973637" lon="-1.486911">
				<ele>957</ele>
				<time>2018-04-28T08:54:24Z</time>
			</trkpt>
			<trkpt lat="42.973674" lon="-1.486868">
				<ele>957</ele>
				<time>2018-04-28T08:54:26Z</time>
			</trkpt>
			<trkpt lat="42.973715" lon="-1.48683">
				<ele>957</ele>
				<time>2018-04-28T08:54:28Z</time>
			</trkpt>
			<trkpt lat="42.973764" lon="-1.486798">
				<ele>957</ele>
				<time>2018-04-28T08:54:30Z</time>
			</trkpt>
			<trkpt lat="42.973814" lon="-1.486777">
				<ele>957</ele>
				<time>2018-04-28T08:54:32Z</time>
			</trkpt>
			<trkpt lat="42.973858" lon="-1.48675">
				<ele>957</ele>
				<time>2018-04-28T08:54:34Z</time>
			</trkpt>
			<trkpt lat="42.973899" lon="-1.486715">
				<ele>957</ele>
				<time>2018-04-28T08:54:36Z</time>
			</trkpt>
			<trkpt lat="42.973956" lon="-1.486671">
				<ele>957</ele>
				<time>2018-04-28T08:54:39Z</time>
			</trkpt>
			<trkpt lat="42.974004" lon="-1.48663">
				<ele>957</ele>
				<time>2018-04-28T08:54:41Z</time>
			</trkpt>
			<trkpt lat="42.974048" lon="-1.486579">
				<ele>957</ele>
				<time>2018-04-28T08:54:44Z</time>
			</trkpt>
			<trkpt lat="42.974093" lon="-1.486512">
				<ele>957</ele>
				<time>2018-04-28T08:54:47Z</time>
			</trkpt>
			<trkpt lat="42.974132" lon="-1.486471">
				<ele>957</ele>
				<time>2018-04-28T08:54:49Z</time>
			</trkpt>
			<trkpt lat="42.974175" lon="-1.486436">
				<ele>957</ele>
				<time>2018-04-28T08:54:51Z</time>
			</trkpt>
			<trkpt lat="42.974221" lon="-1.486404">
				<ele>957</ele>
				<time>2018-04-28T08:54:53Z</time>
			</trkpt>
			<trkpt lat="42.974259" lon="-1.486351">
				<ele>957</ele>
				<time>2018-04-28T08:54:55Z</time>
			</trkpt>
			<trkpt lat="42.974286" lon="-1.486293">
				<ele>957</ele>
				<time>2018-04-28T08:54:57Z</time>
			</trkpt>
			<trkpt lat="42.974335" lon="-1.486228">
				<ele>957</ele>
				<time>2018-04-28T08:55:00Z</time>
			</trkpt>
			<trkpt lat="42.974358" lon="-1.486171">
				<ele>957</ele>
				<time>2018-04-28T08:55:02Z</time>
			</trkpt>
			<trkpt lat="42.974396" lon="-1.486103">
				<ele>957</ele>
				<time>2018-04-28T08:55:05Z</time>
			</trkpt>
			<trkpt lat="42.974423" lon="-1.486045">
				<ele>957</ele>
				<time>2018-04-28T08:55:07Z</time>
			</trkpt>
			<trkpt lat="42.974461" lon="-1.485974">
				<ele>957</ele>
				<time>2018-04-28T08:55:09Z</time>
			</trkpt>
			<trkpt lat="42.974494" lon="-1.485932">
				<ele>957</ele>
				<time>2018-04-28T08:55:11Z</time>
			</trkpt>
			<trkpt lat="42.974521" lon="-1.485875">
				<ele>957</ele>
				<time>2018-04-28T08:55:13Z</time>
			</trkpt>
			<trkpt lat="42.974551" lon="-1.485818">
				<ele>957</ele>
				<time>2018-04-28T08:55:15Z</time>
			</trkpt>
			<trkpt lat="42.974584" lon="-1.485754">
				<ele>957</ele>
				<time>2018-04-28T08:55:18Z</time>
			</trkpt>
			<trkpt lat="42.97462" lon="-1.485704">
				<ele>957</ele>
				<time>2018-04-28T08:55:21Z</time>
			</trkpt>
			<trkpt lat="42.974649" lon="-1.485645">
				<ele>957</ele>
				<time>2018-04-28T08:55:24Z</time>
			</trkpt>
			<trkpt lat="42.974677" lon="-1.485568">
				<ele>957</ele>
				<time>2018-04-28T08:55:27Z</time>
			</trkpt>
			<trkpt lat="42.974718" lon="-1.485505">
				<ele>957</ele>
				<time>2018-04-28T08:55:30Z</time>
			</trkpt>
			<trkpt lat="42.974743" lon="-1.485442">
				<ele>957</ele>
				<time>2018-04-28T08:55:33Z</time>
			</trkpt>
			<trkpt lat="42.974787" lon="-1.485391">
				<ele>935</ele>
				<time>2018-04-28T08:55:36Z</time>
			</trkpt>
			<trkpt lat="42.974837" lon="-1.485376">
				<ele>935</ele>
				<time>2018-04-28T08:55:39Z</time>
			</trkpt>
			<trkpt lat="42.974888" lon="-1.485351">
				<ele>935</ele>
				<time>2018-04-28T08:55:42Z</time>
			</trkpt>
			<trkpt lat="42.97495" lon="-1.485313">
				<ele>935</ele>
				<time>2018-04-28T08:55:45Z</time>
			</trkpt>
			<trkpt lat="42.974991" lon="-1.485265">
				<ele>935</ele>
				<time>2018-04-28T08:55:47Z</time>
			</trkpt>
			<trkpt lat="42.975036" lon="-1.48522">
				<ele>991</ele>
				<time>2018-04-28T08:55:50Z</time>
			</trkpt>
			<trkpt lat="42.97508" lon="-1.485184">
				<ele>991</ele>
				<time>2018-04-28T08:55:53Z</time>
			</trkpt>
			<trkpt lat="42.975115" lon="-1.485144">
				<ele>991</ele>
				<time>2018-04-28T08:55:56Z</time>
			</trkpt>
			<trkpt lat="42.975288" lon="-1.48499">
				<ele>991</ele>
				<time>2018-04-28T08:56:03Z</time>
			</trkpt>
			<trkpt lat="42.97531" lon="-1.485078">
				<ele>991</ele>
				<time>2018-04-28T08:56:04Z</time>
			</trkpt>
			<trkpt lat="42.975357" lon="-1.485002">
				<ele>991</ele>
				<time>2018-04-28T08:56:05Z</time>
			</trkpt>
			<trkpt lat="42.975381" lon="-1.484893">
				<ele>991</ele>
				<time>2018-04-28T08:56:07Z</time>
			</trkpt>
			<trkpt lat="42.975434" lon="-1.484883">
				<ele>991</ele>
				<time>2018-04-28T08:56:10Z</time>
			</trkpt>
			<trkpt lat="42.975498" lon="-1.484856">
				<ele>991</ele>
				<time>2018-04-28T08:56:13Z</time>
			</trkpt>
			<trkpt lat="42.975529" lon="-1.484806">
				<ele>991</ele>
				<time>2018-04-28T08:56:17Z</time>
			</trkpt>
			<trkpt lat="42.975555" lon="-1.484751">
				<ele>991</ele>
				<time>2018-04-28T08:56:21Z</time>
			</trkpt>
			<trkpt lat="42.975594" lon="-1.484702">
				<ele>991</ele>
				<time>2018-04-28T08:56:25Z</time>
			</trkpt>
			<trkpt lat="42.975634" lon="-1.484649">
				<ele>991</ele>
				<time>2018-04-28T08:56:28Z</time>
			</trkpt>
			<trkpt lat="42.975665" lon="-1.484593">
				<ele>991</ele>
				<time>2018-04-28T08:56:32Z</time>
			</trkpt>
			<trkpt lat="42.975736" lon="-1.48466">
				<ele>991</ele>
				<time>2019-05-09T16:33:26Z</time>
			</trkpt>
			<trkpt lat="42.975787" lon="-1.484702">
				<ele>991</ele>
				<time>2019-05-09T16:33:32Z</time>
			</trkpt>
			<trkpt lat="42.975807" lon="-1.48476">
				<ele>991</ele>
				<time>2019-05-09T16:33:47Z</time>
			</trkpt>
			<trkpt lat="42.975852" lon="-1.484797">
				<ele>991</ele>
				<time>2019-05-09T16:33:56Z</time>
			</trkpt>
			<trkpt lat="42.975894" lon="-1.48484">
				<ele>991</ele>
				<time>2019-05-09T16:34:01Z</time>
			</trkpt>
			<trkpt lat="42.975934" lon="-1.484922">
				<ele>991</ele>
				<time>2019-05-09T16:34:10Z</time>
			</trkpt>
			<trkpt lat="42.97596" lon="-1.484977">
				<ele>991</ele>
				<time>2019-05-09T16:34:18Z</time>
			</trkpt>
			<trkpt lat="42.976004" lon="-1.485046">
				<ele>991</ele>
				<time>2019-05-09T16:34:25Z</time>
			</trkpt>
			<trkpt lat="42.97604" lon="-1.48509">
				<ele>991</ele>
				<time>2019-05-09T16:34:32Z</time>
			</trkpt>
			<trkpt lat="42.976079" lon="-1.485128">
				<ele>991</ele>
				<time>2019-05-09T16:34:35Z</time>
			</trkpt>
			<trkpt lat="42.976133" lon="-1.485183">
				<ele>991</ele>
				<time>2019-05-09T16:34:43Z</time>
			</trkpt>
			<trkpt lat="42.976173" lon="-1.485216">
				<ele>991</ele>
				<time>2019-05-09T16:34:55Z</time>
			</trkpt>
			<trkpt lat="42.976236" lon="-1.485254">
				<ele>991</ele>
				<time>2019-05-09T16:34:59Z</time>
			</trkpt>
			<trkpt lat="42.976282" lon="-1.485255">
				<ele>991</ele>
				<time>2019-05-09T16:35:07Z</time>
			</trkpt>
			<trkpt lat="42.976341" lon="-1.485274">
				<ele>991</ele>
				<time>2019-05-09T16:35:25Z</time>
			</trkpt>
			<trkpt lat="42.976391" lon="-1.485303">
				<ele>991</ele>
				<time>2019-05-09T16:35:32Z</time>
			</trkpt>
			<trkpt lat="42.976461" lon="-1.485349">
				<ele>991</ele>
				<time>2019-05-09T16:35:34Z</time>
			</trkpt>
			<trkpt lat="42.976533" lon="-1.485398">
				<ele>991</ele>
				<time>2019-05-09T16:35:41Z</time>
			</trkpt>
			<trkpt lat="42.976604" lon="-1.485464">
				<ele>977</ele>
				<time>2019-05-09T16:35:59Z</time>
			</trkpt>
			<trkpt lat="42.976651" lon="-1.485509">
				<ele>977</ele>
				<time>2019-05-09T16:36:04Z</time>
			</trkpt>
			<trkpt lat="42.976693" lon="-1.485539">
				<ele>977</ele>
				<time>2019-05-09T16:36:22Z</time>
			</trkpt>
			<trkpt lat="42.976755" lon="-1.485562">
				<ele>977</ele>
				<time>2019-05-09T16:36:24Z</time>
			</trkpt>
			<trkpt lat="42.976803" lon="-1.485576">
				<ele>977</ele>
				<time>2019-05-09T16:36:30Z</time>
			</trkpt>
			<trkpt lat="42.976884" lon="-1.485638">
				<ele>977</ele>
				<time>2019-05-09T16:36:34Z</time>
			</trkpt>
			<trkpt lat="42.976922" lon="-1.485671">
				<ele>977</ele>
				<time>2019-05-09T16:36:44Z</time>
			</trkpt>
			<trkpt lat="42.976962" lon="-1.48572">
				<ele>977</ele>
				<time>2019-05-09T16:36:50Z</time>
			</trkpt>
			<trkpt lat="42.977022" lon="-1.485778">
				<ele>977</ele>
				<time>2019-05-09T16:36:58Z</time>
			</trkpt>
			<trkpt lat="42.977065" lon="-1.485819">
				<ele>977</ele>
				<time>2019-05-09T16:37:05Z</time>
			</trkpt>
			<trkpt lat="42.977107" lon="-1.485869">
				<ele>1096</ele>
				<time>2019-05-09T16:37:09Z</time>
			</trkpt>
			<trkpt lat="42.977147" lon="-1.485918">
				<ele>1096</ele>
				<time>2019-05-09T16:37:16Z</time>
			</trkpt>
			<trkpt lat="42.977225" lon="-1.485905">
				<ele>1096</ele>
				<time>2019-05-09T16:37:25Z</time>
			</trkpt>
			<trkpt lat="42.977293" lon="-1.485864">
				<ele>1096</ele>
				<time>2019-05-09T16:37:55Z</time>
			</trkpt>
			<trkpt lat="42.977328" lon="-1.485821">
				<ele>1096</ele>
				<time>2019-05-09T16:38:12Z</time>
			</trkpt>
			<trkpt lat="42.977371" lon="-1.485857">
				<ele>1096</ele>
				<time>2019-05-09T16:38:19Z</time>
			</trkpt>
			<trkpt lat="42.977416" lon="-1.485907">
				<ele>1096</ele>
				<time>2019-05-09T16:38:22Z</time>
			</trkpt>
			<trkpt lat="42.977462" lon="-1.485975">
				<ele>1096</ele>
				<time>2019-05-09T16:38:25Z</time>
			</trkpt>
			<trkpt lat="42.977495" lon="-1.486019">
				<ele>1096</ele>
				<time>2019-05-09T16:38:27Z</time>
			</trkpt>
			<trkpt lat="42.977531" lon="-1.486066">
				<ele>1096</ele>
				<time>2019-05-09T16:38:30Z</time>
			</trkpt>
			<trkpt lat="42.977575" lon="-1.486116">
				<ele>1096</ele>
				<time>2019-05-09T16:38:35Z</time>
			</trkpt>
			<trkpt lat="42.97763" lon="-1.486143">
				<ele>1096</ele>
				<time>2019-05-09T16:39:07Z</time>
			</trkpt>
			<trkpt lat="42.977677" lon="-1.486148">
				<ele>1096</ele>
				<time>2019-05-09T16:39:17Z</time>
			</trkpt>
			<trkpt lat="42.977748" lon="-1.486184">
				<ele>1096</ele>
				<time>2019-05-09T16:39:24Z</time>
			</trkpt>
			<trkpt lat="42.977786" lon="-1.486219">
				<ele>1096</ele>
				<time>2019-05-09T16:39:36Z</time>
			</trkpt>
			<trkpt lat="42.977825" lon="-1.486258">
				<ele>1096</ele>
				<time>2019-05-09T16:40:21Z</time>
			</trkpt>
			<trkpt lat="42.977998" lon="-1.486236">
				<ele>1096</ele>
				<time>2019-05-09T16:40:29Z</time>
			</trkpt>
			<trkpt lat="42.978052" lon="-1.486236">
				<ele>1096</ele>
				<time>2019-05-09T16:41:03Z</time>
			</trkpt>
			<trkpt lat="42.978122" lon="-1.486161">
				<ele>1096</ele>
				<time>2019-05-09T16:41:13Z</time>
			</trkpt>
			<trkpt lat="42.978284" lon="-1.486102">
				<ele>1096</ele>
				<time>2019-05-09T16:41:20Z</time>
			</trkpt>
			<trkpt lat="42.978341" lon="-1.486085">
				<ele>1096</ele>
				<time>2019-05-09T16:41:25Z</time>
			</trkpt>
			<trkpt lat="42.978391" lon="-1.486064">
				<ele>1096</ele>
				<time>2019-05-09T16:41:45Z</time>
			</trkpt>
			<trkpt lat="42.978459" lon="-1.486142">
				<ele>1096</ele>
				<time>2019-05-09T16:42:02Z</time>
			</trkpt>
			<trkpt lat="42.978528" lon="-1.486195">
				<ele>1096</ele>
				<time>2019-05-09T16:42:11Z</time>
			</trkpt>
			<trkpt lat="42.978587" lon="-1.486218">
				<ele>1096</ele>
				<time>2019-05-09T16:42:15Z</time>
			</trkpt>
			<trkpt lat="42.978632" lon="-1.486227">
				<ele>1096</ele>
				<time>2019-05-09T16:42:24Z</time>
			</trkpt>
			<trkpt lat="42.978725" lon="-1.486249">
				<ele>1096</ele>
				<time>2019-05-09T16:42:29Z</time>
			</trkpt>
			<trkpt lat="42.978757" lon="-1.486293">
				<ele>1096</ele>
				<time>2019-05-09T16:42:37Z</time>
			</trkpt>
			<trkpt lat="42.978848" lon="-1.486386">
				<ele>1096</ele>
				<time>2019-05-09T16:43:12Z</time>
			</trkpt>
			<trkpt lat="42.978898" lon="-1.486345">
				<ele>1096</ele>
				<time>2019-05-09T16:43:21Z</time>
			</trkpt>
			<trkpt lat="42.978941" lon="-1.486304">
				<ele>1096</ele>
				<time>2019-05-09T16:43:24Z</time>
			</trkpt>
			<trkpt lat="42.978997" lon="-1.48627">
				<ele>1096</ele>
				<time>2019-05-09T16:43:27Z</time>
			</trkpt>
			<trkpt lat="42.979044" lon="-1.486241">
				<ele>1096</ele>
				<time>2019-05-09T16:43:30Z</time>
			</trkpt>
			<trkpt lat="42.979091" lon="-1.486228">
				<ele>1096</ele>
				<time>2019-05-09T16:43:33Z</time>
			</trkpt>
			<trkpt lat="42.979144" lon="-1.48623">
				<ele>1096</ele>
				<time>2019-05-09T16:43:36Z</time>
			</trkpt>
			<trkpt lat="42.979204" lon="-1.486227">
				<ele>1137</ele>
				<time>2019-05-09T16:43:38Z</time>
			</trkpt>
			<trkpt lat="42.979262" lon="-1.486193">
				<ele>1137</ele>
				<time>2019-05-09T16:43:43Z</time>
			</trkpt>
			<trkpt lat="42.979319" lon="-1.486162">
				<ele>1137</ele>
				<time>2019-05-09T16:43:45Z</time>
			</trkpt>
			<trkpt lat="42.979442" lon="-1.486098">
				<ele>1137</ele>
				<time>2019-05-09T16:43:48Z</time>
			</trkpt>
			<trkpt lat="42.979578" lon="-1.486034">
				<ele>1137</ele>
				<time>2019-05-09T16:43:54Z</time>
			</trkpt>
			<trkpt lat="42.979634" lon="-1.486009">
				<ele>1137</ele>
				<time>2019-05-09T16:43:59Z</time>
			</trkpt>
			<trkpt lat="42.979682" lon="-1.485991">
				<ele>1137</ele>
				<time>2019-05-09T16:44:01Z</time>
			</trkpt>
			<trkpt lat="42.979817" lon="-1.485952">
				<ele>1137</ele>
				<time>2019-05-09T16:44:04Z</time>
			</trkpt>
			<trkpt lat="42.979869" lon="-1.485933">
				<ele>1137</ele>
				<time>2019-05-09T16:44:08Z</time>
			</trkpt>
			<trkpt lat="42.979917" lon="-1.485908">
				<ele>1137</ele>
				<time>2019-05-09T16:44:14Z</time>
			</trkpt>
			<trkpt lat="42.979975" lon="-1.485876">
				<ele>1137</ele>
				<time>2019-05-09T16:44:17Z</time>
			</trkpt>
			<trkpt lat="42.980044" lon="-1.485834">
				<ele>1137</ele>
				<time>2019-05-09T16:44:21Z</time>
			</trkpt>
			<trkpt lat="42.980095" lon="-1.485814">
				<ele>1137</ele>
				<time>2019-05-09T16:44:27Z</time>
			</trkpt>
			<trkpt lat="42.980138" lon="-1.485794">
				<ele>1137</ele>
				<time>2019-05-09T16:44:29Z</time>
			</trkpt>
			<trkpt lat="42.980188" lon="-1.485765">
				<ele>1137</ele>
				<time>2019-05-09T16:44:31Z</time>
			</trkpt>
			<trkpt lat="42.980238" lon="-1.485734">
				<ele>1137</ele>
				<time>2019-05-09T16:44:33Z</time>
			</trkpt>
			<trkpt lat="42.980289" lon="-1.485707">
				<ele>1137</ele>
				<time>2019-05-09T16:44:35Z</time>
			</trkpt>
			<trkpt lat="42.980338" lon="-1.485687">
				<ele>1137</ele>
				<time>2019-05-09T16:44:37Z</time>
			</trkpt>
			<trkpt lat="42.980402" lon="-1.48567">
				<ele>1137</ele>
				<time>2019-05-09T16:44:40Z</time>
			</trkpt>
			<trkpt lat="42.980459" lon="-1.485665">
				<ele>1137</ele>
				<time>2019-05-09T16:44:43Z</time>
			</trkpt>
			<trkpt lat="42.980515" lon="-1.485648">
				<ele>1137</ele>
				<time>2019-05-09T16:44:47Z</time>
			</trkpt>
			<trkpt lat="42.98056" lon="-1.485625">
				<ele>1137</ele>
				<time>2019-05-09T16:44:51Z</time>
			</trkpt>
			<trkpt lat="42.980602" lon="-1.485595">
				<ele>1137</ele>
				<time>2019-05-09T16:44:54Z</time>
			</trkpt>
			<trkpt lat="42.980646" lon="-1.485566">
				<ele>1137</ele>
				<time>2019-05-09T16:44:57Z</time>
			</trkpt>
			<trkpt lat="42.980687" lon="-1.485537">
				<ele>1137</ele>
				<time>2019-05-09T16:45:00Z</time>
			</trkpt>
			<trkpt lat="42.980736" lon="-1.485499">
				<ele>1137</ele>
				<time>2019-05-09T16:45:04Z</time>
			</trkpt>
			<trkpt lat="42.980786" lon="-1.485459">
				<ele>1137</ele>
				<time>2019-05-09T16:45:08Z</time>
			</trkpt>
			<trkpt lat="42.980839" lon="-1.485432">
				<ele>1137</ele>
				<time>2019-05-09T16:45:13Z</time>
			</trkpt>
			<trkpt lat="42.980888" lon="-1.485399">
				<ele>1128</ele>
				<time>2019-05-09T16:45:20Z</time>
			</trkpt>
			<trkpt lat="42.980954" lon="-1.485371">
				<ele>1128</ele>
				<time>2019-05-09T16:45:23Z</time>
			</trkpt>
			<trkpt lat="42.981006" lon="-1.485346">
				<ele>1128</ele>
				<time>2019-05-09T16:45:25Z</time>
			</trkpt>
			<trkpt lat="42.981058" lon="-1.48533">
				<ele>1128</ele>
				<time>2019-05-09T16:45:27Z</time>
			</trkpt>
			<trkpt lat="42.981148" lon="-1.4853">
				<ele>1128</ele>
				<time>2019-05-09T16:45:31Z</time>
			</trkpt>
			<trkpt lat="42.981204" lon="-1.485277">
				<ele>1128</ele>
				<time>2019-05-09T16:45:38Z</time>
			</trkpt>
			<trkpt lat="42.981252" lon="-1.485229">
				<ele>1195</ele>
				<time>2019-05-09T16:45:42Z</time>
			</trkpt>
			<trkpt lat="42.981298" lon="-1.48519">
				<ele>1195</ele>
				<time>2019-05-09T16:45:46Z</time>
			</trkpt>
			<trkpt lat="42.98134" lon="-1.485153">
				<ele>1195</ele>
				<time>2019-05-09T16:45:50Z</time>
			</trkpt>
			<trkpt lat="42.981402" lon="-1.485083">
				<ele>1195</ele>
				<time>2019-05-09T16:45:56Z</time>
			</trkpt>
			<trkpt lat="42.981451" lon="-1.485047">
				<ele>1195</ele>
				<time>2019-05-09T16:46:03Z</time>
			</trkpt>
			<trkpt lat="42.981498" lon="-1.485026">
				<ele>1195</ele>
				<time>2019-05-09T16:46:06Z</time>
			</trkpt>
			<trkpt lat="42.981566" lon="-1.485003">
				<ele>1195</ele>
				<time>2019-05-09T16:46:09Z</time>
			</trkpt>
			<trkpt lat="42.981593" lon="-1.484951">
				<ele>1195</ele>
				<time>2019-05-09T16:46:17Z</time>
			</trkpt>
			<trkpt lat="42.981638" lon="-1.484868">
				<ele>1195</ele>
				<time>2019-05-09T16:46:21Z</time>
			</trkpt>
			<trkpt lat="42.98168" lon="-1.484833">
				<ele>1195</ele>
				<time>2019-05-09T16:46:29Z</time>
			</trkpt>
			<trkpt lat="42.981725" lon="-1.484811">
				<ele>1195</ele>
				<time>2019-05-09T16:46:31Z</time>
			</trkpt>
			<trkpt lat="42.981777" lon="-1.48478">
				<ele>1195</ele>
				<time>2019-05-09T16:46:39Z</time>
			</trkpt>
			<trkpt lat="42.981844" lon="-1.484745">
				<ele>1195</ele>
				<time>2019-05-09T16:46:52Z</time>
			</trkpt>
			<trkpt lat="42.981923" lon="-1.484652">
				<ele>1195</ele>
				<time>2019-05-09T16:46:58Z</time>
			</trkpt>
			<trkpt lat="42.981992" lon="-1.484598">
				<ele>1195</ele>
				<time>2019-05-09T16:47:04Z</time>
			</trkpt>
			<trkpt lat="42.982089" lon="-1.484467">
				<ele>1195</ele>
				<time>2019-05-09T16:47:09Z</time>
			</trkpt>
			<trkpt lat="42.982141" lon="-1.484431">
				<ele>1195</ele>
				<time>2019-05-09T16:47:14Z</time>
			</trkpt>
			<trkpt lat="42.982184" lon="-1.484399">
				<ele>1195</ele>
				<time>2019-05-09T16:47:16Z</time>
			</trkpt>
			<trkpt lat="42.98223" lon="-1.484363">
				<ele>1195</ele>
				<time>2019-05-09T16:47:18Z</time>
			</trkpt>
			<trkpt lat="42.982271" lon="-1.48433">
				<ele>1195</ele>
				<time>2019-05-09T16:47:20Z</time>
			</trkpt>
			<trkpt lat="42.982325" lon="-1.484286">
				<ele>1195</ele>
				<time>2019-05-09T16:47:23Z</time>
			</trkpt>
			<trkpt lat="42.982374" lon="-1.484248">
				<ele>1195</ele>
				<time>2019-05-09T16:47:26Z</time>
			</trkpt>
			<trkpt lat="42.98246" lon="-1.484192">
				<ele>1195</ele>
				<time>2019-05-09T16:47:55Z</time>
			</trkpt>
			<trkpt lat="42.982519" lon="-1.484125">
				<ele>1195</ele>
				<time>2019-05-09T16:48:13Z</time>
			</trkpt>
			<trkpt lat="42.982565" lon="-1.484117">
				<ele>1195</ele>
				<time>2019-05-09T16:48:56Z</time>
			</trkpt>
			<trkpt lat="42.982609" lon="-1.484078">
				<ele>1195</ele>
				<time>2019-05-09T16:49:01Z</time>
			</trkpt>
			<trkpt lat="42.98265" lon="-1.48404">
				<ele>1195</ele>
				<time>2019-05-09T16:49:04Z</time>
			</trkpt>
			<trkpt lat="42.982708" lon="-1.483996">
				<ele>1195</ele>
				<time>2019-05-09T16:49:07Z</time>
			</trkpt>
			<trkpt lat="42.982764" lon="-1.483955">
				<ele>1195</ele>
				<time>2019-05-09T16:49:09Z</time>
			</trkpt>
			<trkpt lat="42.982829" lon="-1.483902">
				<ele>1195</ele>
				<time>2019-05-09T16:49:11Z</time>
			</trkpt>
			<trkpt lat="42.982895" lon="-1.483834">
				<ele>1195</ele>
				<time>2019-05-09T16:49:13Z</time>
			</trkpt>
			<trkpt lat="42.982954" lon="-1.483767">
				<ele>1195</ele>
				<time>2019-05-09T16:49:15Z</time>
			</trkpt>
			<trkpt lat="42.983007" lon="-1.483711">
				<ele>1195</ele>
				<time>2019-05-09T16:49:17Z</time>
			</trkpt>
			<trkpt lat="42.98314" lon="-1.483577">
				<ele>1195</ele>
				<time>2019-05-09T16:49:21Z</time>
			</trkpt>
			<trkpt lat="42.983182" lon="-1.483537">
				<ele>1195</ele>
				<time>2019-05-09T16:49:26Z</time>
			</trkpt>
			<trkpt lat="42.983223" lon="-1.483497">
				<ele>1195</ele>
				<time>2019-05-09T16:49:28Z</time>
			</trkpt>
			<trkpt lat="42.983274" lon="-1.483444">
				<ele>1195</ele>
				<time>2019-05-09T16:49:30Z</time>
			</trkpt>
			<trkpt lat="42.983325" lon="-1.483389">
				<ele>1195</ele>
				<time>2019-05-09T16:49:32Z</time>
			</trkpt>
			<trkpt lat="42.98337" lon="-1.483339">
				<ele>1143</ele>
				<time>2019-05-09T16:49:34Z</time>
			</trkpt>
			<trkpt lat="42.983408" lon="-1.483298">
				<ele>1147</ele>
				<time>2019-05-09T16:49:36Z</time>
			</trkpt>
			<trkpt lat="42.983462" lon="-1.48325">
				<ele>1147</ele>
				<time>2019-05-09T16:49:39Z</time>
			</trkpt>
			<trkpt lat="42.983504" lon="-1.483219">
				<ele>1147</ele>
				<time>2019-05-09T16:49:41Z</time>
			</trkpt>
			<trkpt lat="42.983558" lon="-1.483187">
				<ele>1147</ele>
				<time>2019-05-09T16:49:43Z</time>
			</trkpt>
			<trkpt lat="42.983614" lon="-1.483151">
				<ele>1147</ele>
				<time>2019-05-09T16:49:45Z</time>
			</trkpt>
			<trkpt lat="42.983668" lon="-1.483118">
				<ele>1147</ele>
				<time>2019-05-09T16:49:47Z</time>
			</trkpt>
			<trkpt lat="42.983714" lon="-1.483092">
				<ele>1147</ele>
				<time>2019-05-09T16:49:49Z</time>
			</trkpt>
			<trkpt lat="42.983759" lon="-1.483074">
				<ele>1147</ele>
				<time>2019-05-09T16:49:51Z</time>
			</trkpt>
			<trkpt lat="42.983804" lon="-1.483063">
				<ele>1147</ele>
				<time>2019-05-09T16:49:53Z</time>
			</trkpt>
			<trkpt lat="42.983852" lon="-1.483052">
				<ele>1147</ele>
				<time>2019-05-09T16:49:55Z</time>
			</trkpt>
			<trkpt lat="42.983901" lon="-1.48304">
				<ele>1147</ele>
				<time>2019-05-09T16:49:57Z</time>
			</trkpt>
			<trkpt lat="42.983955" lon="-1.483025">
				<ele>1147</ele>
				<time>2019-05-09T16:49:59Z</time>
			</trkpt>
			<trkpt lat="42.984018" lon="-1.483007">
				<ele>1147</ele>
				<time>2019-05-09T16:50:01Z</time>
			</trkpt>
			<trkpt lat="42.984089" lon="-1.482988">
				<ele>1147</ele>
				<time>2019-05-09T16:50:03Z</time>
			</trkpt>
			<trkpt lat="42.984166" lon="-1.482968">
				<ele>1147</ele>
				<time>2019-05-09T16:50:05Z</time>
			</trkpt>
			<trkpt lat="42.984251" lon="-1.482947">
				<ele>1147</ele>
				<time>2019-05-09T16:50:07Z</time>
			</trkpt>
			<trkpt lat="42.984295" lon="-1.482935">
				<ele>1147</ele>
				<time>2019-05-09T16:50:08Z</time>
			</trkpt>
			<trkpt lat="42.98434" lon="-1.482922">
				<ele>1147</ele>
				<time>2019-05-09T16:50:09Z</time>
			</trkpt>
			<trkpt lat="42.984386" lon="-1.482905">
				<ele>1147</ele>
				<time>2019-05-09T16:50:10Z</time>
			</trkpt>
			<trkpt lat="42.984469" lon="-1.482879">
				<ele>1147</ele>
				<time>2019-05-09T16:50:12Z</time>
			</trkpt>
			<trkpt lat="42.984535" lon="-1.482857">
				<ele>1147</ele>
				<time>2019-05-09T16:50:14Z</time>
			</trkpt>
			<trkpt lat="42.984578" lon="-1.482834">
				<ele>1147</ele>
				<time>2019-05-09T16:50:16Z</time>
			</trkpt>
			<trkpt lat="42.984631" lon="-1.482795">
				<ele>1147</ele>
				<time>2019-05-09T16:50:19Z</time>
			</trkpt>
			<trkpt lat="42.98469" lon="-1.482779">
				<ele>1147</ele>
				<time>2019-05-09T16:50:22Z</time>
			</trkpt>
			<trkpt lat="42.984739" lon="-1.48276">
				<ele>1147</ele>
				<time>2019-05-09T16:50:24Z</time>
			</trkpt>
			<trkpt lat="42.984798" lon="-1.482725">
				<ele>1147</ele>
				<time>2019-05-09T16:50:26Z</time>
			</trkpt>
			<trkpt lat="42.984873" lon="-1.482675">
				<ele>1147</ele>
				<time>2019-05-09T16:50:28Z</time>
			</trkpt>
			<trkpt lat="42.984914" lon="-1.482647">
				<ele>1147</ele>
				<time>2019-05-09T16:50:29Z</time>
			</trkpt>
			<trkpt lat="42.984955" lon="-1.482617">
				<ele>1147</ele>
				<time>2019-05-09T16:50:30Z</time>
			</trkpt>
			<trkpt lat="42.984995" lon="-1.482585">
				<ele>1147</ele>
				<time>2019-05-09T16:50:31Z</time>
			</trkpt>
			<trkpt lat="42.985067" lon="-1.482515">
				<ele>1147</ele>
				<time>2019-05-09T16:50:33Z</time>
			</trkpt>
			<trkpt lat="42.985132" lon="-1.48244">
				<ele>1147</ele>
				<time>2019-05-09T16:50:35Z</time>
			</trkpt>
			<trkpt lat="42.985183" lon="-1.482371">
				<ele>1147</ele>
				<time>2019-05-09T16:50:37Z</time>
			</trkpt>
			<trkpt lat="42.985227" lon="-1.482311">
				<ele>1147</ele>
				<time>2019-05-09T16:50:39Z</time>
			</trkpt>
			<trkpt lat="42.985276" lon="-1.482259">
				<ele>1147</ele>
				<time>2019-05-09T16:50:41Z</time>
			</trkpt>
			<trkpt lat="42.985333" lon="-1.482217">
				<ele>1147</ele>
				<time>2019-05-09T16:50:43Z</time>
			</trkpt>
			<trkpt lat="42.985385" lon="-1.48218">
				<ele>1147</ele>
				<time>2019-05-09T16:50:45Z</time>
			</trkpt>
			<trkpt lat="42.985433" lon="-1.48214">
				<ele>1089</ele>
				<time>2019-05-09T16:50:47Z</time>
			</trkpt>
			<trkpt lat="42.985529" lon="-1.482052">
				<ele>1089</ele>
				<time>2019-05-09T16:50:50Z</time>
			</trkpt>
			<trkpt lat="42.985583" lon="-1.482007">
				<ele>1089</ele>
				<time>2019-05-09T16:50:55Z</time>
			</trkpt>
			<trkpt lat="42.985646" lon="-1.481952">
				<ele>1089</ele>
				<time>2019-05-09T16:50:57Z</time>
			</trkpt>
			<trkpt lat="42.985686" lon="-1.481917">
				<ele>1089</ele>
				<time>2019-05-09T16:50:58Z</time>
			</trkpt>
			<trkpt lat="42.985729" lon="-1.481878">
				<ele>1089</ele>
				<time>2019-05-09T16:50:59Z</time>
			</trkpt>
			<trkpt lat="42.985772" lon="-1.481839">
				<ele>1089</ele>
				<time>2019-05-09T16:51:00Z</time>
			</trkpt>
			<trkpt lat="42.985812" lon="-1.4818">
				<ele>1089</ele>
				<time>2019-05-09T16:51:01Z</time>
			</trkpt>
			<trkpt lat="42.985849" lon="-1.481762">
				<ele>1089</ele>
				<time>2019-05-09T16:51:02Z</time>
			</trkpt>
			<trkpt lat="42.985884" lon="-1.481722">
				<ele>1089</ele>
				<time>2019-05-09T16:51:03Z</time>
			</trkpt>
			<trkpt lat="42.985916" lon="-1.481679">
				<ele>1089</ele>
				<time>2019-05-09T16:51:04Z</time>
			</trkpt>
			<trkpt lat="42.985973" lon="-1.481602">
				<ele>1089</ele>
				<time>2019-05-09T16:51:06Z</time>
			</trkpt>
			<trkpt lat="42.986021" lon="-1.481533">
				<ele>1089</ele>
				<time>2019-05-09T16:51:08Z</time>
			</trkpt>
			<trkpt lat="42.98607" lon="-1.481465">
				<ele>1089</ele>
				<time>2019-05-09T16:51:10Z</time>
			</trkpt>
			<trkpt lat="42.986117" lon="-1.48141">
				<ele>1089</ele>
				<time>2019-05-09T16:51:12Z</time>
			</trkpt>
			<trkpt lat="42.986164" lon="-1.481361">
				<ele>1089</ele>
				<time>2019-05-09T16:51:14Z</time>
			</trkpt>
			<trkpt lat="42.986218" lon="-1.481314">
				<ele>1089</ele>
				<time>2019-05-09T16:51:16Z</time>
			</trkpt>
			<trkpt lat="42.986287" lon="-1.481258">
				<ele>1089</ele>
				<time>2019-05-09T16:51:18Z</time>
			</trkpt>
			<trkpt lat="42.986363" lon="-1.48119">
				<ele>1101</ele>
				<time>2019-05-09T16:51:20Z</time>
			</trkpt>
			<trkpt lat="42.986403" lon="-1.481151">
				<ele>1101</ele>
				<time>2019-05-09T16:51:21Z</time>
			</trkpt>
			<trkpt lat="42.986442" lon="-1.481111">
				<ele>1101</ele>
				<time>2019-05-09T16:51:22Z</time>
			</trkpt>
			<trkpt lat="42.986479" lon="-1.481071">
				<ele>1101</ele>
				<time>2019-05-09T16:51:23Z</time>
			</trkpt>
			<trkpt lat="42.986513" lon="-1.481031">
				<ele>1101</ele>
				<time>2019-05-09T16:51:24Z</time>
			</trkpt>
			<trkpt lat="42.986571" lon="-1.480959">
				<ele>1101</ele>
				<time>2019-05-09T16:51:26Z</time>
			</trkpt>
			<trkpt lat="42.986615" lon="-1.480895">
				<ele>1101</ele>
				<time>2019-05-09T16:51:28Z</time>
			</trkpt>
			<trkpt lat="42.986657" lon="-1.480829">
				<ele>1101</ele>
				<time>2019-05-09T16:51:30Z</time>
			</trkpt>
			<trkpt lat="42.986696" lon="-1.48077">
				<ele>1101</ele>
				<time>2019-05-09T16:51:32Z</time>
			</trkpt>
			<trkpt lat="42.986745" lon="-1.480717">
				<ele>1101</ele>
				<time>2019-05-09T16:51:34Z</time>
			</trkpt>
			<trkpt lat="42.986796" lon="-1.480673">
				<ele>1101</ele>
				<time>2019-05-09T16:51:36Z</time>
			</trkpt>
			<trkpt lat="42.986894" lon="-1.480587">
				<ele>1101</ele>
				<time>2019-05-09T16:51:39Z</time>
			</trkpt>
			<trkpt lat="42.986959" lon="-1.480543">
				<ele>1101</ele>
				<time>2019-05-09T16:51:44Z</time>
			</trkpt>
			<trkpt lat="42.987027" lon="-1.480506">
				<ele>1101</ele>
				<time>2019-05-09T16:51:46Z</time>
			</trkpt>
			<trkpt lat="42.987103" lon="-1.480466">
				<ele>1101</ele>
				<time>2019-05-09T16:51:48Z</time>
			</trkpt>
			<trkpt lat="42.987171" lon="-1.480429">
				<ele>1101</ele>
				<time>2019-05-09T16:51:50Z</time>
			</trkpt>
			<trkpt lat="42.987227" lon="-1.480405">
				<ele>1101</ele>
				<time>2019-05-09T16:51:52Z</time>
			</trkpt>
			<trkpt lat="42.987272" lon="-1.480388">
				<ele>1101</ele>
				<time>2019-05-09T16:51:54Z</time>
			</trkpt>
			<trkpt lat="42.987325" lon="-1.480371">
				<ele>1101</ele>
				<time>2019-05-09T16:51:56Z</time>
			</trkpt>
			<trkpt lat="42.987393" lon="-1.480349">
				<ele>1101</ele>
				<time>2019-05-09T16:51:58Z</time>
			</trkpt>
			<trkpt lat="42.987465" lon="-1.480328">
				<ele>1101</ele>
				<time>2019-05-09T16:52:00Z</time>
			</trkpt>
			<trkpt lat="42.987535" lon="-1.480304">
				<ele>1052</ele>
				<time>2019-05-09T16:52:02Z</time>
			</trkpt>
			<trkpt lat="42.987607" lon="-1.480278">
				<ele>1052</ele>
				<time>2019-05-09T16:52:04Z</time>
			</trkpt>
			<trkpt lat="42.987667" lon="-1.480265">
				<ele>1052</ele>
				<time>2019-05-09T16:52:06Z</time>
			</trkpt>
			<trkpt lat="42.987719" lon="-1.480262">
				<ele>1052</ele>
				<time>2019-05-09T16:52:08Z</time>
			</trkpt>
			<trkpt lat="42.987772" lon="-1.480266">
				<ele>1052</ele>
				<time>2019-05-09T16:52:10Z</time>
			</trkpt>
			<trkpt lat="42.987833" lon="-1.480269">
				<ele>1052</ele>
				<time>2019-05-09T16:52:12Z</time>
			</trkpt>
			<trkpt lat="42.987901" lon="-1.480271">
				<ele>1052</ele>
				<time>2019-05-09T16:52:14Z</time>
			</trkpt>
			<trkpt lat="42.987967" lon="-1.480268">
				<ele>1052</ele>
				<time>2019-05-09T16:52:16Z</time>
			</trkpt>
			<trkpt lat="42.988042" lon="-1.480262">
				<ele>1052</ele>
				<time>2019-05-09T16:52:18Z</time>
			</trkpt>
			<trkpt lat="42.988103" lon="-1.48027">
				<ele>1052</ele>
				<time>2019-05-09T16:52:27Z</time>
			</trkpt>
			<trkpt lat="42.988157" lon="-1.480282">
				<ele>1052</ele>
				<time>2019-05-09T16:52:29Z</time>
			</trkpt>
			<trkpt lat="42.988226" lon="-1.480292">
				<ele>1052</ele>
				<time>2019-05-09T16:52:31Z</time>
			</trkpt>
			<trkpt lat="42.988301" lon="-1.480306">
				<ele>1052</ele>
				<time>2019-05-09T16:52:33Z</time>
			</trkpt>
			<trkpt lat="42.988369" lon="-1.480324">
				<ele>1052</ele>
				<time>2019-05-09T16:52:35Z</time>
			</trkpt>
			<trkpt lat="42.988433" lon="-1.480341">
				<ele>1052</ele>
				<time>2019-05-09T16:52:37Z</time>
			</trkpt>
			<trkpt lat="42.988496" lon="-1.480359">
				<ele>1052</ele>
				<time>2019-05-09T16:52:39Z</time>
			</trkpt>
			<trkpt lat="42.988551" lon="-1.480374">
				<ele>1052</ele>
				<time>2019-05-09T16:52:41Z</time>
			</trkpt>
			<trkpt lat="42.988598" lon="-1.480378">
				<ele>1052</ele>
				<time>2019-05-09T16:52:43Z</time>
			</trkpt>
			<trkpt lat="42.988665" lon="-1.480371">
				<ele>1052</ele>
				<time>2019-05-09T16:52:46Z</time>
			</trkpt>
			<trkpt lat="42.988725" lon="-1.480376">
				<ele>1052</ele>
				<time>2019-05-09T16:52:52Z</time>
			</trkpt>
			<trkpt lat="42.988778" lon="-1.480382">
				<ele>1052</ele>
				<time>2019-05-09T16:52:54Z</time>
			</trkpt>
			<trkpt lat="42.988901" lon="-1.480403">
				<ele>1052</ele>
				<time>2019-05-09T16:52:56Z</time>
			</trkpt>
			<trkpt lat="42.988946" lon="-1.480422">
				<ele>1052</ele>
				<time>2019-05-09T16:53:29Z</time>
			</trkpt>
			<trkpt lat="42.989085" lon="-1.480467">
				<ele>1052</ele>
				<time>2019-05-09T16:53:34Z</time>
			</trkpt>
			<trkpt lat="42.989129" lon="-1.480481">
				<ele>1052</ele>
				<time>2019-05-09T16:53:42Z</time>
			</trkpt>
			<trkpt lat="42.989182" lon="-1.480491">
				<ele>1052</ele>
				<time>2019-05-09T16:53:45Z</time>
			</trkpt>
			<trkpt lat="42.98923" lon="-1.480505">
				<ele>1052</ele>
				<time>2019-05-09T16:53:47Z</time>
			</trkpt>
			<trkpt lat="42.989283" lon="-1.480521">
				<ele>1052</ele>
				<time>2019-05-09T16:53:49Z</time>
			</trkpt>
			<trkpt lat="42.989373" lon="-1.480552">
				<ele>1052</ele>
				<time>2019-05-09T16:53:56Z</time>
			</trkpt>
			<trkpt lat="42.989417" lon="-1.480564">
				<ele>1052</ele>
				<time>2019-05-09T16:54:03Z</time>
			</trkpt>
			<trkpt lat="42.98947" lon="-1.480577">
				<ele>1052</ele>
				<time>2019-05-09T16:54:06Z</time>
			</trkpt>
			<trkpt lat="42.989528" lon="-1.480585">
				<ele>1052</ele>
				<time>2019-05-09T16:54:09Z</time>
			</trkpt>
			<trkpt lat="42.989583" lon="-1.480592">
				<ele>1052</ele>
				<time>2019-05-09T16:54:12Z</time>
			</trkpt>
			<trkpt lat="42.989633" lon="-1.480594">
				<ele>1064</ele>
				<time>2019-05-09T16:54:15Z</time>
			</trkpt>
			<trkpt lat="42.989684" lon="-1.480597">
				<ele>1064</ele>
				<time>2019-05-09T16:54:18Z</time>
			</trkpt>
			<trkpt lat="42.989731" lon="-1.480599">
				<ele>1064</ele>
				<time>2019-05-09T16:54:21Z</time>
			</trkpt>
			<trkpt lat="42.989783" lon="-1.480598">
				<ele>1064</ele>
				<time>2019-05-09T16:54:27Z</time>
			</trkpt>
			<trkpt lat="42.989833" lon="-1.480591">
				<ele>1064</ele>
				<time>2019-05-09T16:54:30Z</time>
			</trkpt>
			<trkpt lat="42.989879" lon="-1.480584">
				<ele>1064</ele>
				<time>2019-05-09T16:54:32Z</time>
			</trkpt>
			<trkpt lat="42.989933" lon="-1.480574">
				<ele>1064</ele>
				<time>2019-05-09T16:54:34Z</time>
			</trkpt>
			<trkpt lat="42.989984" lon="-1.480564">
				<ele>1064</ele>
				<time>2019-05-09T16:54:36Z</time>
			</trkpt>
			<trkpt lat="42.990029" lon="-1.480557">
				<ele>1064</ele>
				<time>2019-05-09T16:54:38Z</time>
			</trkpt>
			<trkpt lat="42.990093" lon="-1.48054">
				<ele>1064</ele>
				<time>2019-05-09T16:54:41Z</time>
			</trkpt>
			<trkpt lat="42.990149" lon="-1.480517">
				<ele>1064</ele>
				<time>2019-05-09T16:54:44Z</time>
			</trkpt>
			<trkpt lat="42.990192" lon="-1.480499">
				<ele>1064</ele>
				<time>2019-05-09T16:54:50Z</time>
			</trkpt>
			<trkpt lat="42.990243" lon="-1.480494">
				<ele>1064</ele>
				<time>2019-05-09T16:54:55Z</time>
			</trkpt>
			<trkpt lat="42.990294" lon="-1.480487">
				<ele>1064</ele>
				<time>2019-05-09T16:54:57Z</time>
			</trkpt>
			<trkpt lat="42.990353" lon="-1.48048">
				<ele>1064</ele>
				<time>2019-05-09T16:54:59Z</time>
			</trkpt>
			<trkpt lat="42.990407" lon="-1.480473">
				<ele>1064</ele>
				<time>2019-05-09T16:55:01Z</time>
			</trkpt>
			<trkpt lat="42.990471" lon="-1.480467">
				<ele>1064</ele>
				<time>2019-05-09T16:55:04Z</time>
			</trkpt>
			<trkpt lat="42.990522" lon="-1.480462">
				<ele>1064</ele>
				<time>2019-05-09T16:55:07Z</time>
			</trkpt>
			<trkpt lat="42.99057" lon="-1.480451">
				<ele>1064</ele>
				<time>2019-05-09T16:55:10Z</time>
			</trkpt>
			<trkpt lat="42.990613" lon="-1.480425">
				<ele>1064</ele>
				<time>2019-05-09T16:55:14Z</time>
			</trkpt>
			<trkpt lat="42.99066" lon="-1.480367">
				<ele>1064</ele>
				<time>2019-05-09T16:55:18Z</time>
			</trkpt>
			<trkpt lat="42.99076" lon="-1.480294">
				<ele>1064</ele>
				<time>2019-05-09T16:55:25Z</time>
			</trkpt>
			<trkpt lat="42.990814" lon="-1.480242">
				<ele>1064</ele>
				<time>2019-05-09T16:55:31Z</time>
			</trkpt>
			<trkpt lat="42.990866" lon="-1.480199">
				<ele>1064</ele>
				<time>2019-05-09T16:55:33Z</time>
			</trkpt>
			<trkpt lat="42.990926" lon="-1.48015">
				<ele>1064</ele>
				<time>2019-05-09T16:55:35Z</time>
			</trkpt>
			<trkpt lat="42.99105" lon="-1.48005">
				<ele>1064</ele>
				<time>2019-05-09T16:55:38Z</time>
			</trkpt>
			<trkpt lat="42.991117" lon="-1.480001">
				<ele>1064</ele>
				<time>2019-05-09T16:55:43Z</time>
			</trkpt>
			<trkpt lat="42.991162" lon="-1.479945">
				<ele>1064</ele>
				<time>2019-05-09T16:55:49Z</time>
			</trkpt>
			<trkpt lat="42.991216" lon="-1.479886">
				<ele>1064</ele>
				<time>2019-05-09T16:55:52Z</time>
			</trkpt>
			<trkpt lat="42.991263" lon="-1.479853">
				<ele>1064</ele>
				<time>2019-05-09T16:55:54Z</time>
			</trkpt>
			<trkpt lat="42.991312" lon="-1.479821">
				<ele>1064</ele>
				<time>2019-05-09T16:55:56Z</time>
			</trkpt>
			<trkpt lat="42.991352" lon="-1.479789">
				<ele>1064</ele>
				<time>2019-05-09T16:55:58Z</time>
			</trkpt>
			<trkpt lat="42.991402" lon="-1.479748">
				<ele>1064</ele>
				<time>2019-05-09T16:56:01Z</time>
			</trkpt>
			<trkpt lat="42.991446" lon="-1.479726">
				<ele>1064</ele>
				<time>2019-05-09T16:56:07Z</time>
			</trkpt>
			<trkpt lat="42.991489" lon="-1.479705">
				<ele>1064</ele>
				<time>2019-05-09T16:56:09Z</time>
			</trkpt>
			<trkpt lat="42.991534" lon="-1.479682">
				<ele>1064</ele>
				<time>2019-05-09T16:56:11Z</time>
			</trkpt>
			<trkpt lat="42.991594" lon="-1.47966">
				<ele>1064</ele>
				<time>2019-05-09T16:56:14Z</time>
			</trkpt>
			<trkpt lat="42.991644" lon="-1.479649">
				<ele>1064</ele>
				<time>2019-05-09T16:56:19Z</time>
			</trkpt>
			<trkpt lat="42.991701" lon="-1.479657">
				<ele>1093</ele>
				<time>2019-05-09T16:56:23Z</time>
			</trkpt>
			<trkpt lat="42.991795" lon="-1.479653">
				<ele>1093</ele>
				<time>2019-05-09T16:56:27Z</time>
			</trkpt>
			<trkpt lat="42.991859" lon="-1.47965">
				<ele>1093</ele>
				<time>2019-05-09T16:56:33Z</time>
			</trkpt>
			<trkpt lat="42.991926" lon="-1.479639">
				<ele>1093</ele>
				<time>2019-05-09T16:56:36Z</time>
			</trkpt>
			<trkpt lat="42.99199" lon="-1.479627">
				<ele>1093</ele>
				<time>2019-05-09T16:56:39Z</time>
			</trkpt>
			<trkpt lat="42.992047" lon="-1.479614">
				<ele>1093</ele>
				<time>2019-05-09T16:56:42Z</time>
			</trkpt>
			<trkpt lat="42.992097" lon="-1.479596">
				<ele>1093</ele>
				<time>2019-05-09T16:56:45Z</time>
			</trkpt>
			<trkpt lat="42.992145" lon="-1.479592">
				<ele>1093</ele>
				<time>2019-05-09T16:56:48Z</time>
			</trkpt>
			<trkpt lat="42.9922" lon="-1.479577">
				<ele>1093</ele>
				<time>2019-05-09T16:56:52Z</time>
			</trkpt>
			<trkpt lat="42.992257" lon="-1.479554">
				<ele>1093</ele>
				<time>2019-05-09T16:56:56Z</time>
			</trkpt>
			<trkpt lat="42.992302" lon="-1.479529">
				<ele>1093</ele>
				<time>2019-05-09T16:56:59Z</time>
			</trkpt>
			<trkpt lat="42.992357" lon="-1.479516">
				<ele>1093</ele>
				<time>2019-05-09T16:57:03Z</time>
			</trkpt>
			<trkpt lat="42.992415" lon="-1.479514">
				<ele>1093</ele>
				<time>2019-05-09T16:57:07Z</time>
			</trkpt>
			<trkpt lat="42.992474" lon="-1.479517">
				<ele>1093</ele>
				<time>2019-05-09T16:57:10Z</time>
			</trkpt>
			<trkpt lat="42.992524" lon="-1.479506">
				<ele>1093</ele>
				<time>2019-05-09T16:57:18Z</time>
			</trkpt>
			<trkpt lat="42.992594" lon="-1.479483">
				<ele>1093</ele>
				<time>2019-05-09T16:57:25Z</time>
			</trkpt>
			<trkpt lat="42.992682" lon="-1.47943">
				<ele>1093</ele>
				<time>2019-05-09T16:57:40Z</time>
			</trkpt>
			<trkpt lat="42.992728" lon="-1.479412">
				<ele>1093</ele>
				<time>2019-05-09T16:57:46Z</time>
			</trkpt>
			<trkpt lat="42.992779" lon="-1.479381">
				<ele>1093</ele>
				<time>2019-05-09T16:57:49Z</time>
			</trkpt>
			<trkpt lat="42.992828" lon="-1.479353">
				<ele>1093</ele>
				<time>2019-05-09T16:57:52Z</time>
			</trkpt>
			<trkpt lat="42.992875" lon="-1.479333">
				<ele>1093</ele>
				<time>2019-05-09T16:57:55Z</time>
			</trkpt>
			<trkpt lat="42.992957" lon="-1.479301">
				<ele>1093</ele>
				<time>2019-05-09T16:57:59Z</time>
			</trkpt>
			<trkpt lat="42.993006" lon="-1.479275">
				<ele>1093</ele>
				<time>2019-05-09T16:58:05Z</time>
			</trkpt>
			<trkpt lat="42.99305" lon="-1.47926">
				<ele>1093</ele>
				<time>2019-05-09T16:58:13Z</time>
			</trkpt>
			<trkpt lat="42.993096" lon="-1.479239">
				<ele>1093</ele>
				<time>2019-05-09T16:58:18Z</time>
			</trkpt>
			<trkpt lat="42.993172" lon="-1.479204">
				<ele>1093</ele>
				<time>2019-05-09T16:58:27Z</time>
			</trkpt>
			<trkpt lat="42.993264" lon="-1.479199">
				<ele>1093</ele>
				<time>2019-05-09T16:58:33Z</time>
			</trkpt>
			<trkpt lat="42.993309" lon="-1.479203">
				<ele>1093</ele>
				<time>2019-05-09T16:58:40Z</time>
			</trkpt>
			<trkpt lat="42.993382" lon="-1.479241">
				<ele>1093</ele>
				<time>2019-05-09T16:58:45Z</time>
			</trkpt>
			<trkpt lat="42.993467" lon="-1.479268">
				<ele>1093</ele>
				<time>2019-05-09T16:58:53Z</time>
			</trkpt>
			<trkpt lat="42.993549" lon="-1.479312">
				<ele>1093</ele>
				<time>2019-05-09T16:59:02Z</time>
			</trkpt>
			<trkpt lat="42.993594" lon="-1.479328">
				<ele>1093</ele>
				<time>2019-05-09T16:59:08Z</time>
			</trkpt>
			<trkpt lat="42.993656" lon="-1.47936">
				<ele>1093</ele>
				<time>2019-05-09T16:59:11Z</time>
			</trkpt>
			<trkpt lat="42.993705" lon="-1.479382">
				<ele>1093</ele>
				<time>2019-05-09T16:59:13Z</time>
			</trkpt>
			<trkpt lat="42.993754" lon="-1.479404">
				<ele>1150</ele>
				<time>2019-05-09T16:59:15Z</time>
			</trkpt>
			<trkpt lat="42.9938" lon="-1.479429">
				<ele>1150</ele>
				<time>2019-05-09T16:59:17Z</time>
			</trkpt>
			<trkpt lat="42.993857" lon="-1.479473">
				<ele>1150</ele>
				<time>2019-05-09T16:59:20Z</time>
			</trkpt>
			<trkpt lat="42.993905" lon="-1.479514">
				<ele>1150</ele>
				<time>2019-05-09T16:59:23Z</time>
			</trkpt>
			<trkpt lat="42.993962" lon="-1.479549">
				<ele>1150</ele>
				<time>2019-05-09T16:59:26Z</time>
			</trkpt>
			<trkpt lat="42.994005" lon="-1.479576">
				<ele>1150</ele>
				<time>2019-05-09T16:59:28Z</time>
			</trkpt>
			<trkpt lat="42.994049" lon="-1.479611">
				<ele>1150</ele>
				<time>2019-05-09T16:59:30Z</time>
			</trkpt>
			<trkpt lat="42.9941" lon="-1.479648">
				<ele>1150</ele>
				<time>2019-05-09T16:59:32Z</time>
			</trkpt>
			<trkpt lat="42.994151" lon="-1.47968">
				<ele>1150</ele>
				<time>2019-05-09T16:59:34Z</time>
			</trkpt>
			<trkpt lat="42.994197" lon="-1.47971">
				<ele>1150</ele>
				<time>2019-05-09T16:59:36Z</time>
			</trkpt>
			<trkpt lat="42.994239" lon="-1.479734">
				<ele>1150</ele>
				<time>2019-05-09T16:59:38Z</time>
			</trkpt>
			<trkpt lat="42.994297" lon="-1.479768">
				<ele>1150</ele>
				<time>2019-05-09T16:59:41Z</time>
			</trkpt>
			<trkpt lat="42.994349" lon="-1.479792">
				<ele>1150</ele>
				<time>2019-05-09T16:59:44Z</time>
			</trkpt>
			<trkpt lat="42.994396" lon="-1.479813">
				<ele>1150</ele>
				<time>2019-05-09T16:59:47Z</time>
			</trkpt>
			<trkpt lat="42.994438" lon="-1.47984">
				<ele>1150</ele>
				<time>2019-05-09T16:59:49Z</time>
			</trkpt>
			<trkpt lat="42.994489" lon="-1.479868">
				<ele>1150</ele>
				<time>2019-05-09T16:59:51Z</time>
			</trkpt>
			<trkpt lat="42.994542" lon="-1.47989">
				<ele>1150</ele>
				<time>2019-05-09T16:59:53Z</time>
			</trkpt>
			<trkpt lat="42.994586" lon="-1.479911">
				<ele>1150</ele>
				<time>2019-05-09T16:59:55Z</time>
			</trkpt>
			<trkpt lat="42.99465" lon="-1.479929">
				<ele>1150</ele>
				<time>2019-05-09T16:59:58Z</time>
			</trkpt>
			<trkpt lat="42.994701" lon="-1.479943">
				<ele>1150</ele>
				<time>2019-05-09T17:00:00Z</time>
			</trkpt>
			<trkpt lat="42.994758" lon="-1.479957">
				<ele>1150</ele>
				<time>2019-05-09T17:00:02Z</time>
			</trkpt>
			<trkpt lat="42.994814" lon="-1.479971">
				<ele>1150</ele>
				<time>2019-05-09T17:00:04Z</time>
			</trkpt>
			<trkpt lat="42.994866" lon="-1.479985">
				<ele>1150</ele>
				<time>2019-05-09T17:00:06Z</time>
			</trkpt>
			<trkpt lat="42.994917" lon="-1.47999">
				<ele>1150</ele>
				<time>2019-05-09T17:00:08Z</time>
			</trkpt>
			<trkpt lat="42.994973" lon="-1.480001">
				<ele>1150</ele>
				<time>2019-05-09T17:00:10Z</time>
			</trkpt>
			<trkpt lat="42.995027" lon="-1.48001">
				<ele>1150</ele>
				<time>2019-05-09T17:00:12Z</time>
			</trkpt>
			<trkpt lat="42.995074" lon="-1.480018">
				<ele>1150</ele>
				<time>2019-05-09T17:00:14Z</time>
			</trkpt>
			<trkpt lat="42.99512" lon="-1.480022">
				<ele>1150</ele>
				<time>2019-05-09T17:00:16Z</time>
			</trkpt>
			<trkpt lat="42.995166" lon="-1.480027">
				<ele>1150</ele>
				<time>2019-05-09T17:00:18Z</time>
			</trkpt>
			<trkpt lat="42.995223" lon="-1.480038">
				<ele>1150</ele>
				<time>2019-05-09T17:00:21Z</time>
			</trkpt>
			<trkpt lat="42.995275" lon="-1.480046">
				<ele>1150</ele>
				<time>2019-05-09T17:00:25Z</time>
			</trkpt>
			<trkpt lat="42.995324" lon="-1.480045">
				<ele>1150</ele>
				<time>2019-05-09T17:00:31Z</time>
			</trkpt>
			<trkpt lat="42.995398" lon="-1.480042">
				<ele>1150</ele>
				<time>2019-05-09T17:00:34Z</time>
			</trkpt>
			<trkpt lat="42.995463" lon="-1.480042">
				<ele>1150</ele>
				<time>2019-05-09T17:00:36Z</time>
			</trkpt>
			<trkpt lat="42.995523" lon="-1.480044">
				<ele>1150</ele>
				<time>2019-05-09T17:00:38Z</time>
			</trkpt>
			<trkpt lat="42.995576" lon="-1.480046">
				<ele>1150</ele>
				<time>2019-05-09T17:00:40Z</time>
			</trkpt>
			<trkpt lat="42.995629" lon="-1.480054">
				<ele>1150</ele>
				<time>2019-05-09T17:00:42Z</time>
			</trkpt>
			<trkpt lat="42.995675" lon="-1.480065">
				<ele>1150</ele>
				<time>2019-05-09T17:00:44Z</time>
			</trkpt>
			<trkpt lat="42.995721" lon="-1.480078">
				<ele>1150</ele>
				<time>2019-05-09T17:00:46Z</time>
			</trkpt>
			<trkpt lat="42.99577" lon="-1.480091">
				<ele>1150</ele>
				<time>2019-05-09T17:00:48Z</time>
			</trkpt>
			<trkpt lat="42.995836" lon="-1.480103">
				<ele>1172</ele>
				<time>2019-05-09T17:00:51Z</time>
			</trkpt>
			<trkpt lat="42.995894" lon="-1.480117">
				<ele>1172</ele>
				<time>2019-05-09T17:00:54Z</time>
			</trkpt>
			<trkpt lat="42.995956" lon="-1.480131">
				<ele>1172</ele>
				<time>2019-05-09T17:00:57Z</time>
			</trkpt>
			<trkpt lat="42.996002" lon="-1.480134">
				<ele>1172</ele>
				<time>2019-05-09T17:00:59Z</time>
			</trkpt>
			<trkpt lat="42.996054" lon="-1.480134">
				<ele>1172</ele>
				<time>2019-05-09T17:01:01Z</time>
			</trkpt>
			<trkpt lat="42.996116" lon="-1.480139">
				<ele>1172</ele>
				<time>2019-05-09T17:01:03Z</time>
			</trkpt>
			<trkpt lat="42.996178" lon="-1.480148">
				<ele>1172</ele>
				<time>2019-05-09T17:01:05Z</time>
			</trkpt>
			<trkpt lat="42.996247" lon="-1.480159">
				<ele>1172</ele>
				<time>2019-05-09T17:01:07Z</time>
			</trkpt>
			<trkpt lat="42.996313" lon="-1.480153">
				<ele>1172</ele>
				<time>2019-05-09T17:01:09Z</time>
			</trkpt>
			<trkpt lat="42.99637" lon="-1.48014">
				<ele>1172</ele>
				<time>2019-05-09T17:01:11Z</time>
			</trkpt>
			<trkpt lat="42.996435" lon="-1.480126">
				<ele>1172</ele>
				<time>2019-05-09T17:01:14Z</time>
			</trkpt>
			<trkpt lat="42.996488" lon="-1.480114">
				<ele>1172</ele>
				<time>2019-05-09T17:01:17Z</time>
			</trkpt>
			<trkpt lat="42.996536" lon="-1.480109">
				<ele>1172</ele>
				<time>2019-05-09T17:01:20Z</time>
			</trkpt>
			<trkpt lat="42.996583" lon="-1.480112">
				<ele>1172</ele>
				<time>2019-05-09T17:01:22Z</time>
			</trkpt>
			<trkpt lat="42.996631" lon="-1.480115">
				<ele>1172</ele>
				<time>2019-05-09T17:01:24Z</time>
			</trkpt>
			<trkpt lat="42.9967" lon="-1.48011">
				<ele>1172</ele>
				<time>2019-05-09T17:01:27Z</time>
			</trkpt>
			<trkpt lat="42.996746" lon="-1.480103">
				<ele>1172</ele>
				<time>2019-05-09T17:01:28Z</time>
			</trkpt>
			<trkpt lat="42.996791" lon="-1.480093">
				<ele>1172</ele>
				<time>2019-05-09T17:01:29Z</time>
			</trkpt>
			<trkpt lat="42.996836" lon="-1.480079">
				<ele>1172</ele>
				<time>2019-05-09T17:01:30Z</time>
			</trkpt>
			<trkpt lat="42.996916" lon="-1.480048">
				<ele>1172</ele>
				<time>2019-05-09T17:01:32Z</time>
			</trkpt>
			<trkpt lat="42.996981" lon="-1.480017">
				<ele>1172</ele>
				<time>2019-05-09T17:01:34Z</time>
			</trkpt>
			<trkpt lat="42.997033" lon="-1.479993">
				<ele>1172</ele>
				<time>2019-05-09T17:01:36Z</time>
			</trkpt>
			<trkpt lat="42.997078" lon="-1.479976">
				<ele>1172</ele>
				<time>2019-05-09T17:01:38Z</time>
			</trkpt>
			<trkpt lat="42.997128" lon="-1.479961">
				<ele>1172</ele>
				<time>2019-05-09T17:01:40Z</time>
			</trkpt>
			<trkpt lat="42.997181" lon="-1.479952">
				<ele>1172</ele>
				<time>2019-05-09T17:01:42Z</time>
			</trkpt>
			<trkpt lat="42.997233" lon="-1.479946">
				<ele>1172</ele>
				<time>2019-05-09T17:01:44Z</time>
			</trkpt>
			<trkpt lat="42.997314" lon="-1.47994">
				<ele>1172</ele>
				<time>2019-05-09T17:01:46Z</time>
			</trkpt>
			<trkpt lat="42.997401" lon="-1.479935">
				<ele>1172</ele>
				<time>2019-05-09T17:01:48Z</time>
			</trkpt>
			<trkpt lat="42.997475" lon="-1.479928">
				<ele>1172</ele>
				<time>2019-05-09T17:01:50Z</time>
			</trkpt>
			<trkpt lat="42.997537" lon="-1.479919">
				<ele>1172</ele>
				<time>2019-05-09T17:01:52Z</time>
			</trkpt>
			<trkpt lat="42.997598" lon="-1.479906">
				<ele>1172</ele>
				<time>2019-05-09T17:01:54Z</time>
			</trkpt>
			<trkpt lat="42.997654" lon="-1.479895">
				<ele>1172</ele>
				<time>2019-05-09T17:01:56Z</time>
			</trkpt>
			<trkpt lat="42.997711" lon="-1.479887">
				<ele>1172</ele>
				<time>2019-05-09T17:01:58Z</time>
			</trkpt>
			<trkpt lat="42.99777" lon="-1.479878">
				<ele>1172</ele>
				<time>2019-05-09T17:02:00Z</time>
			</trkpt>
			<trkpt lat="42.997828" lon="-1.479871">
				<ele>1172</ele>
				<time>2019-05-09T17:02:02Z</time>
			</trkpt>
			<trkpt lat="42.997877" lon="-1.479866">
				<ele>1172</ele>
				<time>2019-05-09T17:02:04Z</time>
			</trkpt>
			<trkpt lat="42.997926" lon="-1.479863">
				<ele>1164</ele>
				<time>2019-05-09T17:02:05Z</time>
			</trkpt>
			<trkpt lat="42.997974" lon="-1.479858">
				<ele>1164</ele>
				<time>2019-05-09T17:02:06Z</time>
			</trkpt>
			<trkpt lat="42.998021" lon="-1.479854">
				<ele>1164</ele>
				<time>2019-05-09T17:02:07Z</time>
			</trkpt>
			<trkpt lat="42.998109" lon="-1.479847">
				<ele>1164</ele>
				<time>2019-05-09T17:02:09Z</time>
			</trkpt>
			<trkpt lat="42.998184" lon="-1.479846">
				<ele>1164</ele>
				<time>2019-05-09T17:02:11Z</time>
			</trkpt>
			<trkpt lat="42.998254" lon="-1.479848">
				<ele>1164</ele>
				<time>2019-05-09T17:02:13Z</time>
			</trkpt>
			<trkpt lat="42.998307" lon="-1.47985">
				<ele>1164</ele>
				<time>2019-05-09T17:02:15Z</time>
			</trkpt>
			<trkpt lat="42.99836" lon="-1.479849">
				<ele>1164</ele>
				<time>2019-05-09T17:02:17Z</time>
			</trkpt>
			<trkpt lat="42.998408" lon="-1.479844">
				<ele>1164</ele>
				<time>2019-05-09T17:02:19Z</time>
			</trkpt>
			<trkpt lat="42.998468" lon="-1.479836">
				<ele>1164</ele>
				<time>2019-05-09T17:02:21Z</time>
			</trkpt>
			<trkpt lat="42.998525" lon="-1.479825">
				<ele>1164</ele>
				<time>2019-05-09T17:02:24Z</time>
			</trkpt>
			<trkpt lat="42.998588" lon="-1.47982">
				<ele>1164</ele>
				<time>2019-05-09T17:02:27Z</time>
			</trkpt>
			<trkpt lat="42.998635" lon="-1.47982">
				<ele>1164</ele>
				<time>2019-05-09T17:02:29Z</time>
			</trkpt>
			<trkpt lat="42.998684" lon="-1.479819">
				<ele>1164</ele>
				<time>2019-05-09T17:02:31Z</time>
			</trkpt>
			<trkpt lat="42.998737" lon="-1.479812">
				<ele>1164</ele>
				<time>2019-05-09T17:02:33Z</time>
			</trkpt>
			<trkpt lat="42.998793" lon="-1.479805">
				<ele>1164</ele>
				<time>2019-05-09T17:02:35Z</time>
			</trkpt>
			<trkpt lat="42.998853" lon="-1.479791">
				<ele>1164</ele>
				<time>2019-05-09T17:02:37Z</time>
			</trkpt>
			<trkpt lat="42.998906" lon="-1.479775">
				<ele>1164</ele>
				<time>2019-05-09T17:02:39Z</time>
			</trkpt>
			<trkpt lat="42.998968" lon="-1.479751">
				<ele>1164</ele>
				<time>2019-05-09T17:02:41Z</time>
			</trkpt>
			<trkpt lat="42.999029" lon="-1.479731">
				<ele>1164</ele>
				<time>2019-05-09T17:02:43Z</time>
			</trkpt>
			<trkpt lat="42.999074" lon="-1.479718">
				<ele>1164</ele>
				<time>2019-05-09T17:02:45Z</time>
			</trkpt>
			<trkpt lat="42.999121" lon="-1.479703">
				<ele>1164</ele>
				<time>2019-05-09T17:02:47Z</time>
			</trkpt>
			<trkpt lat="42.999172" lon="-1.479693">
				<ele>1164</ele>
				<time>2019-05-09T17:02:49Z</time>
			</trkpt>
			<trkpt lat="42.999224" lon="-1.479694">
				<ele>1164</ele>
				<time>2019-05-09T17:02:51Z</time>
			</trkpt>
			<trkpt lat="42.999288" lon="-1.479707">
				<ele>1164</ele>
				<time>2019-05-09T17:02:54Z</time>
			</trkpt>
			<trkpt lat="42.999369" lon="-1.479711">
				<ele>1164</ele>
				<time>2019-05-09T17:02:58Z</time>
			</trkpt>
			<trkpt lat="42.99942" lon="-1.47973">
				<ele>1164</ele>
				<time>2019-05-09T17:03:02Z</time>
			</trkpt>
			<trkpt lat="42.999478" lon="-1.479751">
				<ele>1164</ele>
				<time>2019-05-09T17:03:04Z</time>
			</trkpt>
			<trkpt lat="42.999559" lon="-1.479776">
				<ele>1164</ele>
				<time>2019-05-09T17:03:06Z</time>
			</trkpt>
			<trkpt lat="42.999628" lon="-1.479793">
				<ele>1164</ele>
				<time>2019-05-09T17:03:08Z</time>
			</trkpt>
			<trkpt lat="42.999717" lon="-1.479808">
				<ele>1164</ele>
				<time>2019-05-09T17:03:10Z</time>
			</trkpt>
			<trkpt lat="42.999763" lon="-1.479806">
				<ele>1164</ele>
				<time>2019-05-09T17:03:16Z</time>
			</trkpt>
			<trkpt lat="42.999808" lon="-1.479798">
				<ele>1164</ele>
				<time>2019-05-09T17:03:21Z</time>
			</trkpt>
			<trkpt lat="42.999864" lon="-1.479795">
				<ele>1164</ele>
				<time>2019-05-09T17:03:25Z</time>
			</trkpt>
			<trkpt lat="42.999911" lon="-1.4798">
				<ele>1164</ele>
				<time>2019-05-09T17:03:29Z</time>
			</trkpt>
			<trkpt lat="42.999958" lon="-1.479816">
				<ele>1164</ele>
				<time>2019-05-09T17:03:33Z</time>
			</trkpt>
			<trkpt lat="43.000006" lon="-1.47982">
				<ele>1208</ele>
				<time>2019-05-09T17:03:36Z</time>
			</trkpt>
			<trkpt lat="43.000051" lon="-1.479829">
				<ele>1208</ele>
				<time>2019-05-09T17:03:39Z</time>
			</trkpt>
			<trkpt lat="43.000099" lon="-1.479835">
				<ele>1208</ele>
				<time>2019-05-09T17:03:46Z</time>
			</trkpt>
			<trkpt lat="43.000154" lon="-1.479829">
				<ele>1208</ele>
				<time>2019-05-09T17:03:50Z</time>
			</trkpt>
			<trkpt lat="43.000218" lon="-1.479821">
				<ele>1208</ele>
				<time>2019-05-09T17:03:53Z</time>
			</trkpt>
			<trkpt lat="43.000269" lon="-1.479821">
				<ele>1208</ele>
				<time>2019-05-09T17:03:56Z</time>
			</trkpt>
			<trkpt lat="43.000327" lon="-1.479819">
				<ele>1208</ele>
				<time>2019-05-09T17:04:00Z</time>
			</trkpt>
			<trkpt lat="43.000378" lon="-1.479826">
				<ele>1208</ele>
				<time>2019-05-09T17:04:03Z</time>
			</trkpt>
			<trkpt lat="43.000432" lon="-1.47984">
				<ele>1208</ele>
				<time>2019-05-09T17:04:06Z</time>
			</trkpt>
			<trkpt lat="43.000516" lon="-1.47985">
				<ele>1208</ele>
				<time>2019-05-09T17:04:11Z</time>
			</trkpt>
			<trkpt lat="43.000592" lon="-1.479834">
				<ele>1208</ele>
				<time>2019-05-09T17:04:15Z</time>
			</trkpt>
			<trkpt lat="43.000656" lon="-1.479822">
				<ele>1208</ele>
				<time>2019-05-09T17:04:19Z</time>
			</trkpt>
			<trkpt lat="43.000711" lon="-1.479814">
				<ele>1208</ele>
				<time>2019-05-09T17:04:21Z</time>
			</trkpt>
			<trkpt lat="43.000759" lon="-1.479809">
				<ele>1208</ele>
				<time>2019-05-09T17:04:23Z</time>
			</trkpt>
			<trkpt lat="43.000811" lon="-1.479802">
				<ele>1208</ele>
				<time>2019-05-09T17:04:26Z</time>
			</trkpt>
			<trkpt lat="43.00087" lon="-1.479795">
				<ele>1208</ele>
				<time>2019-05-09T17:04:30Z</time>
			</trkpt>
			<trkpt lat="43.000917" lon="-1.479796">
				<ele>1208</ele>
				<time>2019-05-09T17:04:35Z</time>
			</trkpt>
			<trkpt lat="43.000961" lon="-1.479807">
				<ele>1208</ele>
				<time>2019-05-09T17:04:38Z</time>
			</trkpt>
			<trkpt lat="43.001011" lon="-1.47982">
				<ele>1208</ele>
				<time>2019-05-09T17:04:41Z</time>
			</trkpt>
			<trkpt lat="43.00106" lon="-1.479836">
				<ele>1208</ele>
				<time>2019-05-09T17:04:44Z</time>
			</trkpt>
			<trkpt lat="43.001103" lon="-1.479856">
				<ele>1208</ele>
				<time>2019-05-09T17:04:47Z</time>
			</trkpt>
			<trkpt lat="43.001148" lon="-1.479884">
				<ele>1208</ele>
				<time>2019-05-09T17:04:51Z</time>
			</trkpt>
			<trkpt lat="43.001196" lon="-1.479899">
				<ele>1208</ele>
				<time>2019-05-09T17:04:55Z</time>
			</trkpt>
			<trkpt lat="43.001242" lon="-1.479912">
				<ele>1208</ele>
				<time>2019-05-09T17:04:59Z</time>
			</trkpt>
			<trkpt lat="43.001293" lon="-1.479914">
				<ele>1208</ele>
				<time>2019-05-09T17:05:03Z</time>
			</trkpt>
			<trkpt lat="43.00136" lon="-1.479935">
				<ele>1208</ele>
				<time>2019-05-09T17:05:16Z</time>
			</trkpt>
			<trkpt lat="43.001419" lon="-1.479952">
				<ele>1208</ele>
				<time>2019-05-09T17:05:21Z</time>
			</trkpt>
			<trkpt lat="43.001507" lon="-1.479989">
				<ele>1208</ele>
				<time>2019-05-09T17:05:26Z</time>
			</trkpt>
			<trkpt lat="43.001553" lon="-1.479994">
				<ele>1208</ele>
				<time>2019-05-09T17:05:33Z</time>
			</trkpt>
			<trkpt lat="43.001612" lon="-1.479992">
				<ele>1208</ele>
				<time>2019-05-09T17:05:37Z</time>
			</trkpt>
			<trkpt lat="43.001675" lon="-1.479992">
				<ele>1208</ele>
				<time>2019-05-09T17:05:52Z</time>
			</trkpt>
			<trkpt lat="43.001822" lon="-1.479938">
				<ele>1208</ele>
				<time>2019-05-09T17:06:09Z</time>
			</trkpt>
			<trkpt lat="43.001877" lon="-1.479942">
				<ele>1208</ele>
				<time>2019-05-09T17:06:13Z</time>
			</trkpt>
			<trkpt lat="43.00195" lon="-1.479949">
				<ele>1208</ele>
				<time>2019-05-09T17:06:16Z</time>
			</trkpt>
			<trkpt lat="43.002006" lon="-1.479958">
				<ele>1208</ele>
				<time>2019-05-09T17:06:18Z</time>
			</trkpt>
			<trkpt lat="43.002052" lon="-1.479972">
				<ele>1208</ele>
				<time>2019-05-09T17:06:20Z</time>
			</trkpt>
			<trkpt lat="43.002113" lon="-1.47999">
				<ele>1244</ele>
				<time>2019-05-09T17:06:23Z</time>
			</trkpt>
			<trkpt lat="43.00216" lon="-1.480005">
				<ele>1244</ele>
				<time>2019-05-09T17:06:26Z</time>
			</trkpt>
			<trkpt lat="43.00221" lon="-1.480016">
				<ele>1244</ele>
				<time>2019-05-09T17:06:30Z</time>
			</trkpt>
			<trkpt lat="43.002254" lon="-1.48003">
				<ele>1244</ele>
				<time>2019-05-09T17:06:46Z</time>
			</trkpt>
			<trkpt lat="43.00231" lon="-1.480038">
				<ele>1244</ele>
				<time>2019-05-09T17:06:52Z</time>
			</trkpt>
			<trkpt lat="43.002367" lon="-1.480056">
				<ele>1244</ele>
				<time>2019-05-09T17:06:56Z</time>
			</trkpt>
			<trkpt lat="43.002415" lon="-1.480044">
				<ele>1244</ele>
				<time>2019-05-09T17:07:03Z</time>
			</trkpt>
			<trkpt lat="43.002464" lon="-1.480036">
				<ele>1244</ele>
				<time>2019-05-09T17:07:06Z</time>
			</trkpt>
			<trkpt lat="43.002514" lon="-1.48001">
				<ele>1244</ele>
				<time>2019-05-09T17:07:10Z</time>
			</trkpt>
			<trkpt lat="43.002568" lon="-1.479968">
				<ele>1244</ele>
				<time>2019-05-09T17:07:14Z</time>
			</trkpt>
			<trkpt lat="43.002621" lon="-1.479922">
				<ele>1244</ele>
				<time>2019-05-09T17:07:17Z</time>
			</trkpt>
			<trkpt lat="43.002675" lon="-1.479862">
				<ele>1244</ele>
				<time>2019-05-09T17:07:20Z</time>
			</trkpt>
			<trkpt lat="43.002724" lon="-1.479842">
				<ele>1244</ele>
				<time>2019-05-09T17:07:27Z</time>
			</trkpt>
			<trkpt lat="43.002796" lon="-1.479816">
				<ele>1244</ele>
				<time>2019-05-09T17:07:30Z</time>
			</trkpt>
			<trkpt lat="43.002859" lon="-1.479777">
				<ele>1244</ele>
				<time>2019-05-09T17:07:32Z</time>
			</trkpt>
			<trkpt lat="43.002912" lon="-1.479732">
				<ele>1244</ele>
				<time>2019-05-09T17:07:34Z</time>
			</trkpt>
			<trkpt lat="43.002951" lon="-1.479693">
				<ele>1244</ele>
				<time>2019-05-09T17:07:36Z</time>
			</trkpt>
			<trkpt lat="43.003006" lon="-1.479636">
				<ele>1244</ele>
				<time>2019-05-09T17:07:42Z</time>
			</trkpt>
			<trkpt lat="43.003098" lon="-1.479593">
				<ele>1244</ele>
				<time>2019-05-09T17:07:50Z</time>
			</trkpt>
			<trkpt lat="43.003146" lon="-1.479575">
				<ele>1244</ele>
				<time>2019-05-09T17:07:56Z</time>
			</trkpt>
			<trkpt lat="43.003203" lon="-1.479562">
				<ele>1244</ele>
				<time>2019-05-09T17:08:00Z</time>
			</trkpt>
			<trkpt lat="43.003247" lon="-1.479549">
				<ele>1244</ele>
				<time>2019-05-09T17:08:04Z</time>
			</trkpt>
			<trkpt lat="43.003228" lon="-1.479491">
				<ele>1244</ele>
				<time>2019-05-09T17:08:10Z</time>
			</trkpt>
			<trkpt lat="43.003197" lon="-1.479445">
				<ele>1244</ele>
				<time>2019-05-09T17:08:14Z</time>
			</trkpt>
			<trkpt lat="43.003192" lon="-1.479377">
				<ele>1244</ele>
				<time>2019-05-09T17:08:18Z</time>
			</trkpt>
			<trkpt lat="43.003211" lon="-1.479321">
				<ele>1244</ele>
				<time>2019-05-09T17:08:21Z</time>
			</trkpt>
			<trkpt lat="43.003224" lon="-1.479256">
				<ele>1244</ele>
				<time>2019-05-09T17:08:24Z</time>
			</trkpt>
			<trkpt lat="43.003227" lon="-1.479186">
				<ele>1244</ele>
				<time>2019-05-09T17:08:27Z</time>
			</trkpt>
			<trkpt lat="43.003217" lon="-1.47911">
				<ele>1233</ele>
				<time>2019-05-09T17:08:30Z</time>
			</trkpt>
			<trkpt lat="43.003212" lon="-1.479033">
				<ele>1233</ele>
				<time>2019-05-09T17:08:32Z</time>
			</trkpt>
			<trkpt lat="43.003207" lon="-1.478932">
				<ele>1233</ele>
				<time>2019-05-09T17:08:34Z</time>
			</trkpt>
			<trkpt lat="43.003194" lon="-1.478834">
				<ele>1233</ele>
				<time>2019-05-09T17:08:36Z</time>
			</trkpt>
			<trkpt lat="43.003177" lon="-1.478765">
				<ele>1233</ele>
				<time>2019-05-09T17:08:38Z</time>
			</trkpt>
			<trkpt lat="43.003155" lon="-1.478695">
				<ele>1233</ele>
				<time>2019-05-09T17:08:41Z</time>
			</trkpt>
			<trkpt lat="43.00313" lon="-1.478637">
				<ele>1233</ele>
				<time>2019-05-09T17:08:44Z</time>
			</trkpt>
			<trkpt lat="43.003093" lon="-1.478567">
				<ele>1233</ele>
				<time>2019-05-09T17:08:47Z</time>
			</trkpt>
			<trkpt lat="43.003053" lon="-1.478456">
				<ele>1233</ele>
				<time>2019-05-09T17:08:51Z</time>
			</trkpt>
			<trkpt lat="43.003026" lon="-1.478386">
				<ele>1233</ele>
				<time>2019-05-09T17:08:55Z</time>
			</trkpt>
			<trkpt lat="43.002997" lon="-1.478318">
				<ele>1233</ele>
				<time>2019-05-09T17:08:57Z</time>
			</trkpt>
			<trkpt lat="43.002965" lon="-1.478246">
				<ele>1233</ele>
				<time>2019-05-09T17:08:59Z</time>
			</trkpt>
			<trkpt lat="43.002934" lon="-1.478179">
				<ele>1233</ele>
				<time>2019-05-09T17:09:01Z</time>
			</trkpt>
			<trkpt lat="43.002903" lon="-1.478081">
				<ele>1233</ele>
				<time>2019-05-09T17:09:04Z</time>
			</trkpt>
			<trkpt lat="43.002883" lon="-1.477951">
				<ele>1233</ele>
				<time>2019-05-09T17:09:06Z</time>
			</trkpt>
			<trkpt lat="43.002876" lon="-1.477884">
				<ele>1233</ele>
				<time>2019-05-09T17:09:10Z</time>
			</trkpt>
			<trkpt lat="43.002863" lon="-1.477792">
				<ele>1233</ele>
				<time>2019-05-09T17:09:13Z</time>
			</trkpt>
			<trkpt lat="43.002844" lon="-1.477701">
				<ele>1233</ele>
				<time>2019-05-09T17:09:16Z</time>
			</trkpt>
			<trkpt lat="43.002827" lon="-1.477643">
				<ele>1233</ele>
				<time>2019-05-09T17:09:18Z</time>
			</trkpt>
			<trkpt lat="43.002809" lon="-1.477567">
				<ele>1233</ele>
				<time>2019-05-09T17:09:21Z</time>
			</trkpt>
			<trkpt lat="43.0028" lon="-1.477498">
				<ele>1233</ele>
				<time>2019-05-09T17:09:23Z</time>
			</trkpt>
			<trkpt lat="43.002795" lon="-1.477408">
				<ele>1233</ele>
				<time>2019-05-09T17:09:25Z</time>
			</trkpt>
			<trkpt lat="43.002798" lon="-1.477316">
				<ele>1233</ele>
				<time>2019-05-09T17:09:27Z</time>
			</trkpt>
			<trkpt lat="43.002806" lon="-1.47722">
				<ele>1233</ele>
				<time>2019-05-09T17:09:29Z</time>
			</trkpt>
			<trkpt lat="43.002815" lon="-1.477146">
				<ele>1233</ele>
				<time>2019-05-09T17:09:31Z</time>
			</trkpt>
			<trkpt lat="43.002827" lon="-1.477041">
				<ele>1195</ele>
				<time>2019-05-09T17:09:33Z</time>
			</trkpt>
			<trkpt lat="43.002833" lon="-1.476961">
				<ele>1195</ele>
				<time>2019-05-09T17:09:35Z</time>
			</trkpt>
			<trkpt lat="43.002847" lon="-1.476868">
				<ele>1195</ele>
				<time>2019-05-09T17:09:37Z</time>
			</trkpt>
			<trkpt lat="43.002869" lon="-1.476781">
				<ele>1195</ele>
				<time>2019-05-09T17:09:39Z</time>
			</trkpt>
			<trkpt lat="43.002893" lon="-1.476686">
				<ele>1195</ele>
				<time>2019-05-09T17:09:41Z</time>
			</trkpt>
			<trkpt lat="43.00292" lon="-1.476591">
				<ele>1195</ele>
				<time>2019-05-09T17:09:43Z</time>
			</trkpt>
			<trkpt lat="43.002947" lon="-1.476504">
				<ele>1195</ele>
				<time>2019-05-09T17:09:45Z</time>
			</trkpt>
			<trkpt lat="43.002965" lon="-1.476445">
				<ele>1195</ele>
				<time>2019-05-09T17:09:47Z</time>
			</trkpt>
			<trkpt lat="43.002988" lon="-1.476376">
				<ele>1195</ele>
				<time>2019-05-09T17:09:49Z</time>
			</trkpt>
			<trkpt lat="43.003012" lon="-1.476288">
				<ele>1195</ele>
				<time>2019-05-09T17:09:51Z</time>
			</trkpt>
			<trkpt lat="43.003026" lon="-1.476224">
				<ele>1195</ele>
				<time>2019-05-09T17:09:53Z</time>
			</trkpt>
			<trkpt lat="43.003032" lon="-1.476147">
				<ele>1195</ele>
				<time>2019-05-09T17:09:55Z</time>
			</trkpt>
			<trkpt lat="43.003031" lon="-1.476055">
				<ele>1195</ele>
				<time>2019-05-09T17:09:57Z</time>
			</trkpt>
			<trkpt lat="43.003037" lon="-1.475966">
				<ele>1195</ele>
				<time>2019-05-09T17:09:59Z</time>
			</trkpt>
			<trkpt lat="43.003052" lon="-1.475884">
				<ele>1195</ele>
				<time>2019-05-09T17:10:01Z</time>
			</trkpt>
			<trkpt lat="43.003065" lon="-1.475803">
				<ele>1195</ele>
				<time>2019-05-09T17:10:03Z</time>
			</trkpt>
			<trkpt lat="43.003072" lon="-1.475724">
				<ele>1195</ele>
				<time>2019-05-09T17:10:05Z</time>
			</trkpt>
			<trkpt lat="43.003075" lon="-1.475662">
				<ele>1195</ele>
				<time>2019-05-09T17:10:07Z</time>
			</trkpt>
			<trkpt lat="43.003089" lon="-1.475575">
				<ele>1195</ele>
				<time>2019-05-09T17:10:10Z</time>
			</trkpt>
			<trkpt lat="43.00311" lon="-1.475493">
				<ele>1195</ele>
				<time>2019-05-09T17:10:13Z</time>
			</trkpt>
			<trkpt lat="43.003107" lon="-1.475399">
				<ele>1195</ele>
				<time>2019-05-09T17:10:16Z</time>
			</trkpt>
			<trkpt lat="43.003107" lon="-1.47532">
				<ele>1195</ele>
				<time>2019-05-09T17:10:18Z</time>
			</trkpt>
			<trkpt lat="43.003109" lon="-1.475238">
				<ele>1195</ele>
				<time>2019-05-09T17:10:20Z</time>
			</trkpt>
			<trkpt lat="43.003104" lon="-1.475152">
				<ele>1195</ele>
				<time>2019-05-09T17:10:22Z</time>
			</trkpt>
			<trkpt lat="43.003109" lon="-1.475064">
				<ele>1195</ele>
				<time>2019-05-09T17:10:24Z</time>
			</trkpt>
			<trkpt lat="43.003122" lon="-1.474958">
				<ele>1116</ele>
				<time>2019-05-09T17:10:26Z</time>
			</trkpt>
			<trkpt lat="43.003142" lon="-1.474884">
				<ele>1116</ele>
				<time>2019-05-09T17:10:28Z</time>
			</trkpt>
			<trkpt lat="43.003165" lon="-1.474816">
				<ele>1116</ele>
				<time>2019-05-09T17:10:30Z</time>
			</trkpt>
			<trkpt lat="43.003189" lon="-1.47472">
				<ele>1116</ele>
				<time>2019-05-09T17:10:32Z</time>
			</trkpt>
			<trkpt lat="43.003199" lon="-1.474651">
				<ele>1116</ele>
				<time>2019-05-09T17:10:34Z</time>
			</trkpt>
			<trkpt lat="43.003224" lon="-1.474548">
				<ele>1116</ele>
				<time>2019-05-09T17:10:36Z</time>
			</trkpt>
			<trkpt lat="43.003259" lon="-1.474469">
				<ele>1116</ele>
				<time>2019-05-09T17:10:38Z</time>
			</trkpt>
			<trkpt lat="43.003294" lon="-1.474396">
				<ele>1116</ele>
				<time>2019-05-09T17:10:40Z</time>
			</trkpt>
			<trkpt lat="43.003319" lon="-1.474334">
				<ele>1116</ele>
				<time>2019-05-09T17:10:42Z</time>
			</trkpt>
			<trkpt lat="43.003346" lon="-1.474257">
				<ele>1116</ele>
				<time>2019-05-09T17:10:44Z</time>
			</trkpt>
			<trkpt lat="43.00339" lon="-1.474159">
				<ele>1116</ele>
				<time>2019-05-09T17:10:46Z</time>
			</trkpt>
			<trkpt lat="43.00344" lon="-1.474087">
				<ele>1116</ele>
				<time>2019-05-09T17:10:48Z</time>
			</trkpt>
			<trkpt lat="43.003491" lon="-1.474035">
				<ele>1116</ele>
				<time>2019-05-09T17:10:50Z</time>
			</trkpt>
			<trkpt lat="43.003535" lon="-1.473993">
				<ele>1116</ele>
				<time>2019-05-09T17:10:52Z</time>
			</trkpt>
			<trkpt lat="43.003585" lon="-1.473943">
				<ele>1116</ele>
				<time>2019-05-09T17:10:55Z</time>
			</trkpt>
			<trkpt lat="43.003632" lon="-1.473896">
				<ele>1116</ele>
				<time>2019-05-09T17:10:58Z</time>
			</trkpt>
			<trkpt lat="43.003672" lon="-1.473864">
				<ele>1116</ele>
				<time>2019-05-09T17:11:00Z</time>
			</trkpt>
			<trkpt lat="43.003726" lon="-1.473812">
				<ele>1116</ele>
				<time>2019-05-09T17:11:03Z</time>
			</trkpt>
			<trkpt lat="43.003771" lon="-1.473749">
				<ele>1116</ele>
				<time>2019-05-09T17:11:06Z</time>
			</trkpt>
			<trkpt lat="43.003804" lon="-1.4737">
				<ele>1116</ele>
				<time>2019-05-09T17:11:08Z</time>
			</trkpt>
			<trkpt lat="43.003838" lon="-1.473649">
				<ele>1116</ele>
				<time>2019-05-09T17:11:10Z</time>
			</trkpt>
			<trkpt lat="43.003875" lon="-1.473591">
				<ele>1116</ele>
				<time>2019-05-09T17:11:12Z</time>
			</trkpt>
			<trkpt lat="43.003926" lon="-1.473513">
				<ele>1116</ele>
				<time>2019-05-09T17:11:14Z</time>
			</trkpt>
			<trkpt lat="43.003978" lon="-1.473426">
				<ele>1116</ele>
				<time>2019-05-09T17:11:16Z</time>
			</trkpt>
			<trkpt lat="43.004017" lon="-1.473344">
				<ele>1116</ele>
				<time>2019-05-09T17:11:18Z</time>
			</trkpt>
			<trkpt lat="43.004052" lon="-1.473257">
				<ele>1116</ele>
				<time>2019-05-09T17:11:20Z</time>
			</trkpt>
			<trkpt lat="43.00408" lon="-1.473179">
				<ele>1116</ele>
				<time>2019-05-09T17:11:22Z</time>
			</trkpt>
			<trkpt lat="43.004114" lon="-1.473108">
				<ele>1116</ele>
				<time>2019-05-09T17:11:24Z</time>
			</trkpt>
			<trkpt lat="43.004157" lon="-1.47305">
				<ele>1116</ele>
				<time>2019-05-09T17:11:26Z</time>
			</trkpt>
			<trkpt lat="43.004206" lon="-1.472999">
				<ele>1107</ele>
				<time>2019-05-09T17:11:28Z</time>
			</trkpt>
			<trkpt lat="43.004265" lon="-1.472941">
				<ele>1107</ele>
				<time>2019-05-09T17:11:30Z</time>
			</trkpt>
			<trkpt lat="43.004333" lon="-1.472887">
				<ele>1077</ele>
				<time>2019-05-09T17:11:32Z</time>
			</trkpt>
			<trkpt lat="43.004407" lon="-1.47284">
				<ele>1077</ele>
				<time>2019-05-09T17:11:34Z</time>
			</trkpt>
			<trkpt lat="43.00448" lon="-1.472798">
				<ele>1077</ele>
				<time>2019-05-09T17:11:36Z</time>
			</trkpt>
			<trkpt lat="43.004553" lon="-1.472763">
				<ele>1077</ele>
				<time>2019-05-09T17:11:38Z</time>
			</trkpt>
			<trkpt lat="43.004633" lon="-1.472729">
				<ele>1077</ele>
				<time>2019-05-09T17:11:40Z</time>
			</trkpt>
			<trkpt lat="43.004709" lon="-1.472706">
				<ele>1077</ele>
				<time>2019-05-09T17:11:42Z</time>
			</trkpt>
			<trkpt lat="43.004765" lon="-1.47269">
				<ele>1077</ele>
				<time>2019-05-09T17:11:44Z</time>
			</trkpt>
			<trkpt lat="43.004963" lon="-1.472614">
				<ele>1077</ele>
				<time>2018-04-28T09:26:29Z</time>
			</trkpt>
			<trkpt lat="43.005007" lon="-1.472602">
				<ele>1077</ele>
				<time>2018-04-28T09:26:31Z</time>
			</trkpt>
			<trkpt lat="43.005053" lon="-1.472592">
				<ele>1077</ele>
				<time>2018-04-28T09:26:33Z</time>
			</trkpt>
			<trkpt lat="43.005094" lon="-1.472552">
				<ele>1077</ele>
				<time>2018-04-28T09:26:35Z</time>
			</trkpt>
			<trkpt lat="43.005139" lon="-1.472516">
				<ele>1077</ele>
				<time>2018-04-28T09:26:37Z</time>
			</trkpt>
			<trkpt lat="43.005188" lon="-1.472477">
				<ele>1077</ele>
				<time>2018-04-28T09:26:39Z</time>
			</trkpt>
			<trkpt lat="43.005235" lon="-1.472423">
				<ele>1077</ele>
				<time>2018-04-28T09:26:41Z</time>
			</trkpt>
			<trkpt lat="43.005277" lon="-1.472371">
				<ele>1077</ele>
				<time>2018-04-28T09:26:42Z</time>
			</trkpt>
			<trkpt lat="43.005303" lon="-1.472315">
				<ele>1077</ele>
				<time>2018-04-28T09:26:43Z</time>
			</trkpt>
			<trkpt lat="43.005323" lon="-1.472256">
				<ele>1077</ele>
				<time>2018-04-28T09:26:44Z</time>
			</trkpt>
			<trkpt lat="43.005374" lon="-1.472205">
				<ele>1077</ele>
				<time>2018-04-28T09:26:46Z</time>
			</trkpt>
			<trkpt lat="43.005435" lon="-1.472154">
				<ele>1077</ele>
				<time>2018-04-28T09:26:48Z</time>
			</trkpt>
			<trkpt lat="43.005466" lon="-1.472106">
				<ele>1077</ele>
				<time>2018-04-28T09:26:50Z</time>
			</trkpt>
			<trkpt lat="43.005525" lon="-1.472044">
				<ele>1077</ele>
				<time>2018-04-28T09:26:53Z</time>
			</trkpt>
			<trkpt lat="43.005543" lon="-1.471956">
				<ele>1077</ele>
				<time>2018-04-28T09:26:55Z</time>
			</trkpt>
			<trkpt lat="43.005571" lon="-1.471879">
				<ele>1077</ele>
				<time>2018-04-28T09:26:57Z</time>
			</trkpt>
			<trkpt lat="43.005608" lon="-1.471781">
				<ele>1077</ele>
				<time>2018-04-28T09:26:59Z</time>
			</trkpt>
			<trkpt lat="43.005666" lon="-1.471713">
				<ele>1077</ele>
				<time>2018-04-28T09:27:01Z</time>
			</trkpt>
			<trkpt lat="43.005729" lon="-1.471643">
				<ele>1077</ele>
				<time>2018-04-28T09:27:03Z</time>
			</trkpt>
			<trkpt lat="43.005773" lon="-1.471588">
				<ele>1077</ele>
				<time>2018-04-28T09:27:04Z</time>
			</trkpt>
			<trkpt lat="43.005812" lon="-1.471508">
				<ele>1077</ele>
				<time>2018-04-28T09:27:06Z</time>
			</trkpt>
			<trkpt lat="43.005845" lon="-1.471464">
				<ele>1077</ele>
				<time>2018-04-28T09:27:07Z</time>
			</trkpt>
			<trkpt lat="43.005891" lon="-1.471385">
				<ele>1077</ele>
				<time>2018-04-28T09:27:09Z</time>
			</trkpt>
			<trkpt lat="43.00596" lon="-1.471351">
				<ele>1077</ele>
				<time>2018-04-28T09:27:11Z</time>
			</trkpt>
			<trkpt lat="43.006014" lon="-1.471332">
				<ele>1077</ele>
				<time>2018-04-28T09:27:13Z</time>
			</trkpt>
			<trkpt lat="43.006037" lon="-1.471278">
				<ele>1077</ele>
				<time>2018-04-28T09:27:28Z</time>
			</trkpt>
			<trkpt lat="43.006034" lon="-1.471217">
				<ele>1077</ele>
				<time>2018-04-28T09:28:04Z</time>
			</trkpt>
			<trkpt lat="43.006076" lon="-1.471264">
				<ele>1077</ele>
				<time>2018-04-28T09:28:12Z</time>
			</trkpt>
			<trkpt lat="43.006136" lon="-1.471264">
				<ele>1077</ele>
				<time>2018-04-28T09:28:17Z</time>
			</trkpt>
			<trkpt lat="43.006176" lon="-1.471227">
				<ele>1077</ele>
				<time>2018-04-28T09:28:19Z</time>
			</trkpt>
			<trkpt lat="43.006217" lon="-1.471159">
				<ele>1077</ele>
				<time>2018-04-28T09:28:21Z</time>
			</trkpt>
			<trkpt lat="43.006255" lon="-1.471066">
				<ele>1039</ele>
				<time>2018-04-28T09:28:23Z</time>
			</trkpt>
			<trkpt lat="43.006295" lon="-1.470995">
				<ele>1039</ele>
				<time>2018-04-28T09:28:25Z</time>
			</trkpt>
			<trkpt lat="43.006341" lon="-1.470961">
				<ele>1039</ele>
				<time>2018-04-28T09:28:27Z</time>
			</trkpt>
			<trkpt lat="43.006412" lon="-1.470926">
				<ele>1039</ele>
				<time>2018-04-28T09:28:29Z</time>
			</trkpt>
			<trkpt lat="43.006468" lon="-1.470877">
				<ele>1039</ele>
				<time>2018-04-28T09:28:32Z</time>
			</trkpt>
			<trkpt lat="43.006511" lon="-1.470846">
				<ele>1039</ele>
				<time>2018-04-28T09:28:34Z</time>
			</trkpt>
			<trkpt lat="43.006562" lon="-1.470804">
				<ele>1100</ele>
				<time>2018-04-28T09:28:37Z</time>
			</trkpt>
			<trkpt lat="43.006601" lon="-1.470733">
				<ele>1100</ele>
				<time>2018-04-28T09:28:40Z</time>
			</trkpt>
			<trkpt lat="43.006626" lon="-1.470674">
				<ele>1100</ele>
				<time>2018-04-28T09:28:43Z</time>
			</trkpt>
			<trkpt lat="43.006674" lon="-1.470622">
				<ele>1100</ele>
				<time>2018-04-28T09:28:45Z</time>
			</trkpt>
			<trkpt lat="43.006721" lon="-1.470611">
				<ele>1100</ele>
				<time>2018-04-28T09:28:47Z</time>
			</trkpt>
			<trkpt lat="43.006764" lon="-1.470555">
				<ele>1100</ele>
				<time>2018-04-28T09:28:50Z</time>
			</trkpt>
			<trkpt lat="43.006819" lon="-1.470539">
				<ele>1100</ele>
				<time>2018-04-28T09:28:53Z</time>
			</trkpt>
			<trkpt lat="43.006867" lon="-1.470548">
				<ele>1100</ele>
				<time>2018-04-28T09:28:56Z</time>
			</trkpt>
			<trkpt lat="43.006922" lon="-1.470565">
				<ele>1100</ele>
				<time>2018-04-28T09:29:01Z</time>
			</trkpt>
			<trkpt lat="43.006977" lon="-1.470536">
				<ele>1100</ele>
				<time>2018-04-28T09:29:05Z</time>
			</trkpt>
			<trkpt lat="43.00703" lon="-1.470484">
				<ele>1100</ele>
				<time>2018-04-28T09:29:09Z</time>
			</trkpt>
			<trkpt lat="43.007093" lon="-1.470467">
				<ele>1100</ele>
				<time>2018-04-28T09:29:12Z</time>
			</trkpt>
			<trkpt lat="43.007137" lon="-1.470446">
				<ele>1100</ele>
				<time>2018-04-28T09:29:14Z</time>
			</trkpt>
			<trkpt lat="43.007169" lon="-1.470388">
				<ele>1100</ele>
				<time>2018-04-28T09:29:17Z</time>
			</trkpt>
			<trkpt lat="43.007217" lon="-1.470335">
				<ele>1100</ele>
				<time>2018-04-28T09:29:20Z</time>
			</trkpt>
			<trkpt lat="43.00726" lon="-1.470283">
				<ele>1100</ele>
				<time>2018-04-28T09:29:23Z</time>
			</trkpt>
			<trkpt lat="43.007297" lon="-1.470222">
				<ele>1100</ele>
				<time>2018-04-28T09:29:27Z</time>
			</trkpt>
			<trkpt lat="43.007356" lon="-1.470181">
				<ele>1100</ele>
				<time>2018-04-28T09:29:30Z</time>
			</trkpt>
			<trkpt lat="43.0074" lon="-1.470153">
				<ele>1100</ele>
				<time>2018-04-28T09:29:35Z</time>
			</trkpt>
			<trkpt lat="43.00744" lon="-1.470118">
				<ele>1100</ele>
				<time>2018-04-28T09:29:39Z</time>
			</trkpt>
			<trkpt lat="43.007496" lon="-1.470053">
				<ele>1100</ele>
				<time>2018-04-28T09:29:43Z</time>
			</trkpt>
			<trkpt lat="43.007534" lon="-1.470015">
				<ele>1100</ele>
				<time>2018-04-28T09:29:45Z</time>
			</trkpt>
			<trkpt lat="43.007585" lon="-1.469973">
				<ele>1100</ele>
				<time>2018-04-28T09:29:48Z</time>
			</trkpt>
			<trkpt lat="43.007622" lon="-1.469933">
				<ele>1100</ele>
				<time>2018-04-28T09:29:50Z</time>
			</trkpt>
			<trkpt lat="43.007655" lon="-1.469882">
				<ele>1100</ele>
				<time>2018-04-28T09:29:53Z</time>
			</trkpt>
			<trkpt lat="43.007694" lon="-1.469829">
				<ele>1100</ele>
				<time>2018-04-28T09:29:59Z</time>
			</trkpt>
			<trkpt lat="43.007743" lon="-1.469805">
				<ele>1100</ele>
				<time>2018-04-28T09:30:02Z</time>
			</trkpt>
			<trkpt lat="43.007772" lon="-1.469755">
				<ele>1100</ele>
				<time>2018-04-28T09:30:06Z</time>
			</trkpt>
			<trkpt lat="43.007803" lon="-1.469686">
				<ele>1100</ele>
				<time>2018-04-28T09:30:09Z</time>
			</trkpt>
			<trkpt lat="43.007841" lon="-1.469616">
				<ele>1100</ele>
				<time>2018-04-28T09:30:12Z</time>
			</trkpt>
			<trkpt lat="43.007868" lon="-1.469539">
				<ele>1100</ele>
				<time>2018-04-28T09:30:14Z</time>
			</trkpt>
			<trkpt lat="43.007867" lon="-1.469462">
				<ele>1100</ele>
				<time>2018-04-28T09:30:16Z</time>
			</trkpt>
			<trkpt lat="43.00787" lon="-1.469368">
				<ele>1100</ele>
				<time>2018-04-28T09:30:18Z</time>
			</trkpt>
			<trkpt lat="43.007854" lon="-1.469304">
				<ele>1100</ele>
				<time>2018-04-28T09:30:20Z</time>
			</trkpt>
			<trkpt lat="43.007848" lon="-1.469221">
				<ele>1100</ele>
				<time>2018-04-28T09:30:22Z</time>
			</trkpt>
			<trkpt lat="43.00785" lon="-1.469144">
				<ele>1100</ele>
				<time>2018-04-28T09:30:24Z</time>
			</trkpt>
			<trkpt lat="43.007865" lon="-1.469073">
				<ele>1100</ele>
				<time>2018-04-28T09:30:26Z</time>
			</trkpt>
			<trkpt lat="43.007854" lon="-1.468975">
				<ele>1100</ele>
				<time>2018-04-28T09:30:28Z</time>
			</trkpt>
			<trkpt lat="43.007857" lon="-1.468889">
				<ele>1100</ele>
				<time>2018-04-28T09:30:30Z</time>
			</trkpt>
			<trkpt lat="43.007813" lon="-1.46881">
				<ele>1100</ele>
				<time>2018-04-28T09:30:32Z</time>
			</trkpt>
			<trkpt lat="43.007796" lon="-1.468737">
				<ele>1104</ele>
				<time>2018-04-28T09:30:34Z</time>
			</trkpt>
			<trkpt lat="43.007789" lon="-1.46865">
				<ele>1104</ele>
				<time>2018-04-28T09:30:36Z</time>
			</trkpt>
			<trkpt lat="43.007783" lon="-1.46856">
				<ele>1104</ele>
				<time>2018-04-28T09:30:38Z</time>
			</trkpt>
			<trkpt lat="43.007768" lon="-1.468471">
				<ele>1104</ele>
				<time>2018-04-28T09:30:40Z</time>
			</trkpt>
			<trkpt lat="43.007745" lon="-1.468371">
				<ele>1104</ele>
				<time>2018-04-28T09:30:42Z</time>
			</trkpt>
			<trkpt lat="43.007755" lon="-1.468274">
				<ele>1104</ele>
				<time>2018-04-28T09:30:43Z</time>
			</trkpt>
			<trkpt lat="43.007741" lon="-1.468173">
				<ele>1104</ele>
				<time>2018-04-28T09:30:45Z</time>
			</trkpt>
			<trkpt lat="43.007721" lon="-1.46808">
				<ele>1104</ele>
				<time>2018-04-28T09:30:47Z</time>
			</trkpt>
			<trkpt lat="43.007702" lon="-1.467992">
				<ele>1104</ele>
				<time>2018-04-28T09:30:49Z</time>
			</trkpt>
			<trkpt lat="43.007654" lon="-1.467918">
				<ele>1104</ele>
				<time>2018-04-28T09:30:51Z</time>
			</trkpt>
			<trkpt lat="43.007601" lon="-1.467859">
				<ele>1104</ele>
				<time>2018-04-28T09:30:53Z</time>
			</trkpt>
			<trkpt lat="43.007557" lon="-1.467819">
				<ele>1104</ele>
				<time>2018-04-28T09:30:55Z</time>
			</trkpt>
			<trkpt lat="43.007524" lon="-1.467768">
				<ele>1104</ele>
				<time>2018-04-28T09:30:57Z</time>
			</trkpt>
			<trkpt lat="43.007524" lon="-1.467703">
				<ele>1104</ele>
				<time>2018-04-28T09:31:00Z</time>
			</trkpt>
			<trkpt lat="43.007498" lon="-1.467631">
				<ele>1104</ele>
				<time>2018-04-28T09:31:04Z</time>
			</trkpt>
			<trkpt lat="43.007496" lon="-1.46755">
				<ele>1104</ele>
				<time>2018-04-28T09:31:08Z</time>
			</trkpt>
			<trkpt lat="43.007505" lon="-1.467483">
				<ele>1104</ele>
				<time>2018-04-28T09:31:10Z</time>
			</trkpt>
			<trkpt lat="43.00748" lon="-1.467416">
				<ele>1104</ele>
				<time>2018-04-28T09:31:13Z</time>
			</trkpt>
			<trkpt lat="43.00745" lon="-1.467352">
				<ele>1104</ele>
				<time>2018-04-28T09:31:16Z</time>
			</trkpt>
			<trkpt lat="43.007429" lon="-1.467297">
				<ele>1104</ele>
				<time>2018-04-28T09:31:18Z</time>
			</trkpt>
			<trkpt lat="43.007417" lon="-1.467233">
				<ele>1104</ele>
				<time>2018-04-28T09:31:20Z</time>
			</trkpt>
			<trkpt lat="43.007408" lon="-1.46714">
				<ele>1104</ele>
				<time>2018-04-28T09:31:23Z</time>
			</trkpt>
			<trkpt lat="43.007377" lon="-1.467081">
				<ele>1104</ele>
				<time>2018-04-28T09:31:25Z</time>
			</trkpt>
			<trkpt lat="43.007377" lon="-1.46701">
				<ele>1104</ele>
				<time>2018-04-28T09:31:27Z</time>
			</trkpt>
			<trkpt lat="43.007396" lon="-1.466952">
				<ele>1104</ele>
				<time>2018-04-28T09:31:29Z</time>
			</trkpt>
			<trkpt lat="43.007399" lon="-1.46687">
				<ele>1104</ele>
				<time>2018-04-28T09:31:31Z</time>
			</trkpt>
			<trkpt lat="43.007409" lon="-1.466786">
				<ele>1104</ele>
				<time>2018-04-28T09:31:33Z</time>
			</trkpt>
			<trkpt lat="43.00742" lon="-1.466695">
				<ele>1104</ele>
				<time>2018-04-28T09:31:35Z</time>
			</trkpt>
			<trkpt lat="43.007436" lon="-1.466593">
				<ele>1079</ele>
				<time>2018-04-28T09:31:37Z</time>
			</trkpt>
			<trkpt lat="43.007438" lon="-1.466497">
				<ele>1079</ele>
				<time>2018-04-28T09:31:39Z</time>
			</trkpt>
			<trkpt lat="43.00743" lon="-1.466401">
				<ele>1079</ele>
				<time>2018-04-28T09:31:41Z</time>
			</trkpt>
			<trkpt lat="43.007434" lon="-1.466308">
				<ele>1079</ele>
				<time>2018-04-28T09:31:43Z</time>
			</trkpt>
			<trkpt lat="43.007447" lon="-1.466224">
				<ele>1079</ele>
				<time>2018-04-28T09:31:45Z</time>
			</trkpt>
			<trkpt lat="43.007461" lon="-1.466136">
				<ele>1079</ele>
				<time>2018-04-28T09:31:47Z</time>
			</trkpt>
			<trkpt lat="43.007465" lon="-1.466046">
				<ele>1079</ele>
				<time>2018-04-28T09:31:49Z</time>
			</trkpt>
			<trkpt lat="43.007479" lon="-1.465972">
				<ele>1079</ele>
				<time>2018-04-28T09:31:51Z</time>
			</trkpt>
			<trkpt lat="43.007498" lon="-1.465908">
				<ele>1079</ele>
				<time>2018-04-28T09:31:53Z</time>
			</trkpt>
			<trkpt lat="43.00752" lon="-1.465839">
				<ele>1079</ele>
				<time>2018-04-28T09:31:55Z</time>
			</trkpt>
			<trkpt lat="43.007557" lon="-1.465794">
				<ele>1079</ele>
				<time>2018-04-28T09:31:57Z</time>
			</trkpt>
			<trkpt lat="43.007605" lon="-1.465755">
				<ele>1079</ele>
				<time>2018-04-28T09:32:00Z</time>
			</trkpt>
			<trkpt lat="43.007636" lon="-1.465689">
				<ele>1079</ele>
				<time>2018-04-28T09:32:02Z</time>
			</trkpt>
			<trkpt lat="43.007677" lon="-1.465635">
				<ele>1079</ele>
				<time>2018-04-28T09:32:05Z</time>
			</trkpt>
			<trkpt lat="43.007713" lon="-1.465586">
				<ele>1079</ele>
				<time>2018-04-28T09:32:08Z</time>
			</trkpt>
			<trkpt lat="43.007748" lon="-1.465509">
				<ele>1079</ele>
				<time>2018-04-28T09:32:11Z</time>
			</trkpt>
			<trkpt lat="43.007788" lon="-1.465454">
				<ele>1079</ele>
				<time>2018-04-28T09:32:14Z</time>
			</trkpt>
			<trkpt lat="43.007815" lon="-1.465399">
				<ele>1079</ele>
				<time>2018-04-28T09:32:21Z</time>
			</trkpt>
			<trkpt lat="43.007855" lon="-1.465363">
				<ele>1079</ele>
				<time>2018-04-28T09:32:24Z</time>
			</trkpt>
			<trkpt lat="43.007889" lon="-1.465316">
				<ele>1079</ele>
				<time>2018-04-28T09:32:28Z</time>
			</trkpt>
			<trkpt lat="43.007923" lon="-1.465274">
				<ele>1079</ele>
				<time>2018-04-28T09:32:34Z</time>
			</trkpt>
			<trkpt lat="43.007967" lon="-1.465219">
				<ele>1079</ele>
				<time>2018-04-28T09:32:38Z</time>
			</trkpt>
			<trkpt lat="43.007997" lon="-1.46516">
				<ele>1079</ele>
				<time>2018-04-28T09:32:41Z</time>
			</trkpt>
			<trkpt lat="43.008035" lon="-1.465089">
				<ele>1079</ele>
				<time>2018-04-28T09:32:44Z</time>
			</trkpt>
			<trkpt lat="43.00807" lon="-1.465045">
				<ele>1079</ele>
				<time>2018-04-28T09:32:47Z</time>
			</trkpt>
			<trkpt lat="43.00811" lon="-1.464999">
				<ele>1079</ele>
				<time>2018-04-28T09:32:52Z</time>
			</trkpt>
			<trkpt lat="43.00815" lon="-1.464946">
				<ele>1079</ele>
				<time>2018-04-28T09:32:55Z</time>
			</trkpt>
			<trkpt lat="43.008183" lon="-1.464901">
				<ele>1079</ele>
				<time>2018-04-28T09:32:59Z</time>
			</trkpt>
			<trkpt lat="43.008204" lon="-1.464844">
				<ele>1079</ele>
				<time>2018-04-28T09:33:02Z</time>
			</trkpt>
			<trkpt lat="43.008228" lon="-1.464781">
				<ele>1079</ele>
				<time>2018-04-28T09:33:07Z</time>
			</trkpt>
			<trkpt lat="43.008265" lon="-1.464734">
				<ele>1079</ele>
				<time>2018-04-28T09:33:10Z</time>
			</trkpt>
			<trkpt lat="43.008305" lon="-1.464697">
				<ele>1079</ele>
				<time>2018-04-28T09:33:14Z</time>
			</trkpt>
			<trkpt lat="43.008362" lon="-1.464653">
				<ele>1063</ele>
				<time>2018-04-28T09:33:17Z</time>
			</trkpt>
			<trkpt lat="43.008409" lon="-1.464604">
				<ele>1063</ele>
				<time>2018-04-28T09:33:19Z</time>
			</trkpt>
			<trkpt lat="43.008458" lon="-1.464529">
				<ele>1113</ele>
				<time>2018-04-28T09:33:22Z</time>
			</trkpt>
			<trkpt lat="43.008499" lon="-1.464485">
				<ele>1113</ele>
				<time>2018-04-28T09:33:24Z</time>
			</trkpt>
			<trkpt lat="43.008541" lon="-1.464426">
				<ele>1113</ele>
				<time>2018-04-28T09:33:26Z</time>
			</trkpt>
			<trkpt lat="43.008594" lon="-1.464375">
				<ele>1113</ele>
				<time>2018-04-28T09:33:28Z</time>
			</trkpt>
			<trkpt lat="43.008642" lon="-1.464316">
				<ele>1113</ele>
				<time>2018-04-28T09:33:31Z</time>
			</trkpt>
			<trkpt lat="43.008675" lon="-1.464255">
				<ele>1113</ele>
				<time>2018-04-28T09:33:34Z</time>
			</trkpt>
			<trkpt lat="43.008711" lon="-1.464211">
				<ele>1113</ele>
				<time>2018-04-28T09:33:36Z</time>
			</trkpt>
			<trkpt lat="43.008756" lon="-1.464179">
				<ele>1113</ele>
				<time>2018-04-28T09:33:38Z</time>
			</trkpt>
			<trkpt lat="43.00879" lon="-1.464124">
				<ele>1113</ele>
				<time>2018-04-28T09:33:40Z</time>
			</trkpt>
			<trkpt lat="43.008841" lon="-1.464097">
				<ele>1113</ele>
				<time>2018-04-28T09:33:42Z</time>
			</trkpt>
			<trkpt lat="43.008879" lon="-1.464057">
				<ele>1113</ele>
				<time>2018-04-28T09:33:44Z</time>
			</trkpt>
			<trkpt lat="43.008909" lon="-1.464011">
				<ele>1113</ele>
				<time>2018-04-28T09:33:46Z</time>
			</trkpt>
			<trkpt lat="43.008949" lon="-1.463981">
				<ele>1113</ele>
				<time>2018-04-28T09:33:48Z</time>
			</trkpt>
			<trkpt lat="43.008991" lon="-1.463947">
				<ele>1113</ele>
				<time>2018-04-28T09:33:50Z</time>
			</trkpt>
			<trkpt lat="43.00904" lon="-1.46392">
				<ele>1113</ele>
				<time>2018-04-28T09:33:52Z</time>
			</trkpt>
			<trkpt lat="43.009093" lon="-1.463868">
				<ele>1113</ele>
				<time>2018-04-28T09:33:55Z</time>
			</trkpt>
			<trkpt lat="43.009142" lon="-1.463838">
				<ele>1113</ele>
				<time>2018-04-28T09:33:57Z</time>
			</trkpt>
			<trkpt lat="43.009199" lon="-1.463791">
				<ele>1113</ele>
				<time>2018-04-28T09:33:59Z</time>
			</trkpt>
			<trkpt lat="43.009234" lon="-1.463736">
				<ele>1113</ele>
				<time>2018-04-28T09:34:01Z</time>
			</trkpt>
			<trkpt lat="43.009269" lon="-1.463665">
				<ele>1113</ele>
				<time>2018-04-28T09:34:03Z</time>
			</trkpt>
			<trkpt lat="43.009295" lon="-1.463601">
				<ele>1113</ele>
				<time>2018-04-28T09:34:05Z</time>
			</trkpt>
			<trkpt lat="43.009321" lon="-1.463539">
				<ele>1113</ele>
				<time>2018-04-28T09:34:07Z</time>
			</trkpt>
			<trkpt lat="43.009349" lon="-1.463472">
				<ele>1113</ele>
				<time>2018-04-28T09:34:09Z</time>
			</trkpt>
			<trkpt lat="43.009368" lon="-1.463414">
				<ele>1113</ele>
				<time>2018-04-28T09:34:11Z</time>
			</trkpt>
			<trkpt lat="43.009401" lon="-1.46337">
				<ele>1113</ele>
				<time>2018-04-28T09:34:13Z</time>
			</trkpt>
			<trkpt lat="43.009417" lon="-1.463302">
				<ele>1113</ele>
				<time>2018-04-28T09:34:15Z</time>
			</trkpt>
			<trkpt lat="43.009441" lon="-1.463237">
				<ele>1113</ele>
				<time>2018-04-28T09:34:17Z</time>
			</trkpt>
			<trkpt lat="43.009451" lon="-1.46314">
				<ele>1113</ele>
				<time>2018-04-28T09:34:20Z</time>
			</trkpt>
			<trkpt lat="43.009462" lon="-1.463031">
				<ele>1113</ele>
				<time>2018-04-28T09:34:22Z</time>
			</trkpt>
			<trkpt lat="43.009459" lon="-1.462943">
				<ele>1113</ele>
				<time>2018-04-28T09:34:24Z</time>
			</trkpt>
			<trkpt lat="43.009456" lon="-1.462863">
				<ele>1113</ele>
				<time>2018-04-28T09:34:27Z</time>
			</trkpt>
			<trkpt lat="43.009473" lon="-1.462784">
				<ele>1113</ele>
				<time>2018-04-28T09:34:30Z</time>
			</trkpt>
			<trkpt lat="43.009516" lon="-1.462716">
				<ele>1113</ele>
				<time>2018-04-28T09:34:33Z</time>
			</trkpt>
			<trkpt lat="43.009565" lon="-1.462675">
				<ele>1113</ele>
				<time>2018-04-28T09:34:35Z</time>
			</trkpt>
			<trkpt lat="43.009613" lon="-1.462651">
				<ele>1113</ele>
				<time>2018-04-28T09:34:37Z</time>
			</trkpt>
			<trkpt lat="43.009653" lon="-1.462596">
				<ele>1113</ele>
				<time>2018-04-28T09:34:39Z</time>
			</trkpt>
			<trkpt lat="43.00969" lon="-1.462524">
				<ele>1113</ele>
				<time>2018-04-28T09:34:41Z</time>
			</trkpt>
			<trkpt lat="43.009701" lon="-1.462454">
				<ele>1101</ele>
				<time>2018-04-28T09:34:43Z</time>
			</trkpt>
			<trkpt lat="43.009728" lon="-1.462405">
				<ele>1101</ele>
				<time>2018-04-28T09:34:45Z</time>
			</trkpt>
			<trkpt lat="43.00976" lon="-1.462326">
				<ele>1101</ele>
				<time>2018-04-28T09:34:48Z</time>
			</trkpt>
			<trkpt lat="43.009784" lon="-1.462268">
				<ele>1101</ele>
				<time>2018-04-28T09:34:50Z</time>
			</trkpt>
			<trkpt lat="43.009798" lon="-1.462202">
				<ele>1101</ele>
				<time>2018-04-28T09:34:52Z</time>
			</trkpt>
			<trkpt lat="43.009821" lon="-1.46214">
				<ele>1101</ele>
				<time>2018-04-28T09:34:54Z</time>
			</trkpt>
			<trkpt lat="43.009842" lon="-1.46207">
				<ele>1101</ele>
				<time>2018-04-28T09:34:56Z</time>
			</trkpt>
			<trkpt lat="43.00987" lon="-1.461991">
				<ele>1101</ele>
				<time>2018-04-28T09:34:59Z</time>
			</trkpt>
			<trkpt lat="43.009893" lon="-1.461906">
				<ele>1101</ele>
				<time>2018-04-28T09:35:02Z</time>
			</trkpt>
			<trkpt lat="43.009907" lon="-1.461837">
				<ele>1101</ele>
				<time>2018-04-28T09:35:04Z</time>
			</trkpt>
			<trkpt lat="43.00993" lon="-1.461774">
				<ele>1101</ele>
				<time>2018-04-28T09:35:06Z</time>
			</trkpt>
			<trkpt lat="43.009966" lon="-1.461697">
				<ele>1101</ele>
				<time>2018-04-28T09:35:09Z</time>
			</trkpt>
			<trkpt lat="43.009979" lon="-1.461631">
				<ele>1101</ele>
				<time>2018-04-28T09:35:12Z</time>
			</trkpt>
			<trkpt lat="43.01001" lon="-1.46157">
				<ele>1101</ele>
				<time>2018-04-28T09:35:15Z</time>
			</trkpt>
			<trkpt lat="43.010037" lon="-1.461489">
				<ele>1101</ele>
				<time>2018-04-28T09:35:18Z</time>
			</trkpt>
			<trkpt lat="43.010064" lon="-1.461429">
				<ele>1101</ele>
				<time>2018-04-28T09:35:20Z</time>
			</trkpt>
			<trkpt lat="43.010119" lon="-1.461357">
				<ele>1101</ele>
				<time>2018-04-28T09:35:22Z</time>
			</trkpt>
			<trkpt lat="43.010164" lon="-1.46129">
				<ele>1101</ele>
				<time>2018-04-28T09:35:24Z</time>
			</trkpt>
			<trkpt lat="43.010197" lon="-1.46121">
				<ele>1101</ele>
				<time>2018-04-28T09:35:27Z</time>
			</trkpt>
			<trkpt lat="43.010223" lon="-1.461153">
				<ele>1101</ele>
				<time>2018-04-28T09:35:29Z</time>
			</trkpt>
			<trkpt lat="43.010246" lon="-1.461077">
				<ele>1101</ele>
				<time>2018-04-28T09:35:32Z</time>
			</trkpt>
			<trkpt lat="43.010275" lon="-1.460998">
				<ele>1101</ele>
				<time>2018-04-28T09:35:35Z</time>
			</trkpt>
			<trkpt lat="43.010289" lon="-1.460925">
				<ele>1101</ele>
				<time>2018-04-28T09:35:37Z</time>
			</trkpt>
			<trkpt lat="43.010294" lon="-1.460846">
				<ele>1101</ele>
				<time>2018-04-28T09:35:39Z</time>
			</trkpt>
			<trkpt lat="43.010301" lon="-1.460778">
				<ele>1101</ele>
				<time>2018-04-28T09:35:41Z</time>
			</trkpt>
			<trkpt lat="43.010304" lon="-1.460713">
				<ele>1101</ele>
				<time>2018-04-28T09:35:43Z</time>
			</trkpt>
			<trkpt lat="43.010336" lon="-1.460643">
				<ele>1101</ele>
				<time>2018-04-28T09:35:45Z</time>
			</trkpt>
			<trkpt lat="43.010363" lon="-1.460579">
				<ele>1101</ele>
				<time>2018-04-28T09:35:47Z</time>
			</trkpt>
			<trkpt lat="43.010389" lon="-1.460489">
				<ele>1101</ele>
				<time>2018-04-28T09:35:50Z</time>
			</trkpt>
			<trkpt lat="43.010425" lon="-1.460411">
				<ele>1164</ele>
				<time>2018-04-28T09:35:53Z</time>
			</trkpt>
			<trkpt lat="43.010476" lon="-1.460324">
				<ele>1164</ele>
				<time>2018-04-28T09:35:56Z</time>
			</trkpt>
			<trkpt lat="43.010509" lon="-1.460257">
				<ele>1164</ele>
				<time>2018-04-28T09:35:58Z</time>
			</trkpt>
			<trkpt lat="43.010527" lon="-1.460184">
				<ele>1164</ele>
				<time>2018-04-28T09:36:01Z</time>
			</trkpt>
			<trkpt lat="43.010536" lon="-1.460114">
				<ele>1164</ele>
				<time>2018-04-28T09:36:03Z</time>
			</trkpt>
			<trkpt lat="43.010557" lon="-1.460031">
				<ele>1164</ele>
				<time>2018-04-28T09:36:05Z</time>
			</trkpt>
			<trkpt lat="43.010582" lon="-1.459956">
				<ele>1164</ele>
				<time>2018-04-28T09:36:08Z</time>
			</trkpt>
			<trkpt lat="43.010608" lon="-1.459882">
				<ele>1164</ele>
				<time>2018-04-28T09:36:10Z</time>
			</trkpt>
			<trkpt lat="43.010628" lon="-1.459819">
				<ele>1164</ele>
				<time>2018-04-28T09:36:13Z</time>
			</trkpt>
			<trkpt lat="43.010617" lon="-1.45975">
				<ele>1164</ele>
				<time>2018-04-28T09:36:16Z</time>
			</trkpt>
			<trkpt lat="43.010625" lon="-1.459686">
				<ele>1164</ele>
				<time>2018-04-28T09:36:18Z</time>
			</trkpt>
			<trkpt lat="43.010633" lon="-1.459619">
				<ele>1164</ele>
				<time>2018-04-28T09:36:21Z</time>
			</trkpt>
			<trkpt lat="43.010664" lon="-1.459549">
				<ele>1164</ele>
				<time>2018-04-28T09:36:24Z</time>
			</trkpt>
			<trkpt lat="43.010698" lon="-1.459476">
				<ele>1164</ele>
				<time>2018-04-28T09:36:27Z</time>
			</trkpt>
			<trkpt lat="43.010705" lon="-1.459379">
				<ele>1164</ele>
				<time>2018-04-28T09:36:30Z</time>
			</trkpt>
			<trkpt lat="43.010716" lon="-1.45931">
				<ele>1164</ele>
				<time>2018-04-28T09:36:32Z</time>
			</trkpt>
			<trkpt lat="43.01074" lon="-1.459258">
				<ele>1164</ele>
				<time>2018-04-28T09:36:35Z</time>
			</trkpt>
			<trkpt lat="43.010763" lon="-1.459182">
				<ele>1164</ele>
				<time>2018-04-28T09:36:38Z</time>
			</trkpt>
			<trkpt lat="43.010784" lon="-1.459125">
				<ele>1164</ele>
				<time>2018-04-28T09:36:42Z</time>
			</trkpt>
			<trkpt lat="43.010796" lon="-1.459066">
				<ele>1164</ele>
				<time>2018-04-28T09:36:48Z</time>
			</trkpt>
			<trkpt lat="43.010807" lon="-1.458988">
				<ele>1164</ele>
				<time>2018-04-28T09:36:53Z</time>
			</trkpt>
			<trkpt lat="43.010833" lon="-1.458936">
				<ele>1164</ele>
				<time>2018-04-28T09:37:01Z</time>
			</trkpt>
			<trkpt lat="43.010844" lon="-1.45887">
				<ele>1164</ele>
				<time>2018-04-28T09:37:03Z</time>
			</trkpt>
			<trkpt lat="43.010895" lon="-1.45881">
				<ele>1164</ele>
				<time>2018-04-28T09:37:06Z</time>
			</trkpt>
			<trkpt lat="43.010929" lon="-1.458742">
				<ele>1164</ele>
				<time>2018-04-28T09:37:08Z</time>
			</trkpt>
			<trkpt lat="43.01098" lon="-1.458674">
				<ele>1164</ele>
				<time>2018-04-28T09:37:10Z</time>
			</trkpt>
			<trkpt lat="43.011006" lon="-1.458618">
				<ele>1164</ele>
				<time>2018-04-28T09:37:12Z</time>
			</trkpt>
			<trkpt lat="43.011044" lon="-1.45857">
				<ele>1164</ele>
				<time>2018-04-28T09:37:14Z</time>
			</trkpt>
			<trkpt lat="43.011102" lon="-1.45851">
				<ele>1164</ele>
				<time>2018-04-28T09:37:16Z</time>
			</trkpt>
			<trkpt lat="43.011138" lon="-1.458451">
				<ele>1164</ele>
				<time>2018-04-28T09:37:17Z</time>
			</trkpt>
			<trkpt lat="43.011191" lon="-1.458387">
				<ele>1164</ele>
				<time>2018-04-28T09:37:19Z</time>
			</trkpt>
			<trkpt lat="43.011216" lon="-1.458309">
				<ele>1132</ele>
				<time>2018-04-28T09:37:21Z</time>
			</trkpt>
			<trkpt lat="43.011235" lon="-1.458249">
				<ele>1132</ele>
				<time>2018-04-28T09:37:23Z</time>
			</trkpt>
			<trkpt lat="43.011256" lon="-1.458178">
				<ele>1132</ele>
				<time>2018-04-28T09:37:25Z</time>
			</trkpt>
			<trkpt lat="43.011278" lon="-1.458115">
				<ele>1132</ele>
				<time>2018-04-28T09:37:27Z</time>
			</trkpt>
			<trkpt lat="43.011321" lon="-1.458032">
				<ele>1132</ele>
				<time>2018-04-28T09:37:30Z</time>
			</trkpt>
			<trkpt lat="43.011352" lon="-1.457947">
				<ele>1132</ele>
				<time>2018-04-28T09:37:32Z</time>
			</trkpt>
			<trkpt lat="43.01139" lon="-1.45789">
				<ele>1132</ele>
				<time>2018-04-28T09:37:34Z</time>
			</trkpt>
			<trkpt lat="43.011425" lon="-1.457838">
				<ele>1132</ele>
				<time>2018-04-28T09:37:36Z</time>
			</trkpt>
			<trkpt lat="43.011451" lon="-1.45776">
				<ele>1132</ele>
				<time>2018-04-28T09:37:38Z</time>
			</trkpt>
			<trkpt lat="43.011482" lon="-1.457711">
				<ele>1132</ele>
				<time>2018-04-28T09:37:40Z</time>
			</trkpt>
			<trkpt lat="43.011527" lon="-1.457653">
				<ele>1132</ele>
				<time>2018-04-28T09:37:43Z</time>
			</trkpt>
			<trkpt lat="43.011568" lon="-1.457604">
				<ele>1132</ele>
				<time>2018-04-28T09:37:45Z</time>
			</trkpt>
			<trkpt lat="43.011611" lon="-1.457554">
				<ele>1132</ele>
				<time>2018-04-28T09:37:47Z</time>
			</trkpt>
			<trkpt lat="43.011652" lon="-1.457498">
				<ele>1132</ele>
				<time>2018-04-28T09:37:49Z</time>
			</trkpt>
			<trkpt lat="43.01169" lon="-1.457451">
				<ele>1132</ele>
				<time>2018-04-28T09:37:51Z</time>
			</trkpt>
			<trkpt lat="43.011732" lon="-1.457398">
				<ele>1132</ele>
				<time>2018-04-28T09:37:53Z</time>
			</trkpt>
			<trkpt lat="43.011771" lon="-1.457353">
				<ele>1132</ele>
				<time>2018-04-28T09:37:55Z</time>
			</trkpt>
			<trkpt lat="43.011805" lon="-1.4573">
				<ele>1132</ele>
				<time>2018-04-28T09:37:57Z</time>
			</trkpt>
			<trkpt lat="43.011869" lon="-1.45723">
				<ele>1132</ele>
				<time>2018-04-28T09:38:00Z</time>
			</trkpt>
			<trkpt lat="43.011912" lon="-1.457189">
				<ele>1132</ele>
				<time>2018-04-28T09:38:02Z</time>
			</trkpt>
			<trkpt lat="43.011948" lon="-1.457149">
				<ele>1132</ele>
				<time>2018-04-28T09:38:04Z</time>
			</trkpt>
			<trkpt lat="43.011991" lon="-1.457128">
				<ele>1132</ele>
				<time>2018-04-28T09:38:06Z</time>
			</trkpt>
			<trkpt lat="43.012046" lon="-1.457088">
				<ele>1132</ele>
				<time>2018-04-28T09:38:08Z</time>
			</trkpt>
			<trkpt lat="43.012091" lon="-1.457041">
				<ele>1132</ele>
				<time>2018-04-28T09:38:10Z</time>
			</trkpt>
			<trkpt lat="43.012142" lon="-1.457009">
				<ele>1132</ele>
				<time>2018-04-28T09:38:12Z</time>
			</trkpt>
			<trkpt lat="43.012182" lon="-1.456956">
				<ele>1132</ele>
				<time>2018-04-28T09:38:14Z</time>
			</trkpt>
			<trkpt lat="43.012225" lon="-1.456906">
				<ele>1132</ele>
				<time>2018-04-28T09:38:16Z</time>
			</trkpt>
			<trkpt lat="43.012287" lon="-1.456858">
				<ele>1132</ele>
				<time>2018-04-28T09:38:18Z</time>
			</trkpt>
			<trkpt lat="43.012325" lon="-1.456797">
				<ele>1132</ele>
				<time>2018-04-28T09:38:20Z</time>
			</trkpt>
			<trkpt lat="43.012364" lon="-1.456736">
				<ele>1132</ele>
				<time>2018-04-28T09:38:22Z</time>
			</trkpt>
			<trkpt lat="43.012404" lon="-1.456661">
				<ele>1132</ele>
				<time>2018-04-28T09:38:25Z</time>
			</trkpt>
			<trkpt lat="43.012429" lon="-1.456574">
				<ele>1132</ele>
				<time>2018-04-28T09:38:28Z</time>
			</trkpt>
			<trkpt lat="43.012435" lon="-1.45651">
				<ele>1132</ele>
				<time>2018-04-28T09:38:30Z</time>
			</trkpt>
			<trkpt lat="43.012457" lon="-1.456417">
				<ele>1132</ele>
				<time>2018-04-28T09:38:33Z</time>
			</trkpt>
			<trkpt lat="43.012461" lon="-1.456342">
				<ele>1132</ele>
				<time>2018-04-28T09:38:35Z</time>
			</trkpt>
			<trkpt lat="43.012481" lon="-1.456254">
				<ele>1132</ele>
				<time>2018-04-28T09:38:38Z</time>
			</trkpt>
			<trkpt lat="43.012512" lon="-1.456198">
				<ele>1125</ele>
				<time>2018-04-28T09:38:40Z</time>
			</trkpt>
			<trkpt lat="43.012532" lon="-1.456119">
				<ele>1125</ele>
				<time>2018-04-28T09:38:43Z</time>
			</trkpt>
			<trkpt lat="43.012536" lon="-1.456026">
				<ele>1125</ele>
				<time>2018-04-28T09:38:46Z</time>
			</trkpt>
			<trkpt lat="43.012553" lon="-1.455945">
				<ele>1125</ele>
				<time>2018-04-28T09:38:48Z</time>
			</trkpt>
			<trkpt lat="43.012569" lon="-1.455874">
				<ele>1125</ele>
				<time>2018-04-28T09:38:50Z</time>
			</trkpt>
			<trkpt lat="43.01257" lon="-1.455803">
				<ele>1125</ele>
				<time>2018-04-28T09:38:52Z</time>
			</trkpt>
			<trkpt lat="43.012604" lon="-1.455742">
				<ele>1125</ele>
				<time>2018-04-28T09:38:54Z</time>
			</trkpt>
			<trkpt lat="43.01264" lon="-1.455671">
				<ele>1125</ele>
				<time>2018-04-28T09:38:57Z</time>
			</trkpt>
			<trkpt lat="43.012649" lon="-1.455603">
				<ele>1125</ele>
				<time>2018-04-28T09:39:00Z</time>
			</trkpt>
			<trkpt lat="43.012657" lon="-1.455536">
				<ele>1125</ele>
				<time>2018-04-28T09:39:02Z</time>
			</trkpt>
			<trkpt lat="43.012669" lon="-1.455472">
				<ele>1125</ele>
				<time>2018-04-28T09:39:05Z</time>
			</trkpt>
			<trkpt lat="43.012686" lon="-1.45541">
				<ele>1125</ele>
				<time>2018-04-28T09:39:08Z</time>
			</trkpt>
			<trkpt lat="43.012698" lon="-1.455347">
				<ele>1125</ele>
				<time>2018-04-28T09:39:12Z</time>
			</trkpt>
			<trkpt lat="43.01271" lon="-1.455282">
				<ele>1125</ele>
				<time>2018-04-28T09:39:15Z</time>
			</trkpt>
			<trkpt lat="43.012725" lon="-1.455217">
				<ele>1125</ele>
				<time>2018-04-28T09:39:19Z</time>
			</trkpt>
			<trkpt lat="43.012728" lon="-1.455148">
				<ele>1125</ele>
				<time>2018-04-28T09:39:22Z</time>
			</trkpt>
			<trkpt lat="43.012745" lon="-1.455076">
				<ele>1125</ele>
				<time>2018-04-28T09:39:25Z</time>
			</trkpt>
			<trkpt lat="43.012762" lon="-1.455015">
				<ele>1125</ele>
				<time>2018-04-28T09:39:27Z</time>
			</trkpt>
			<trkpt lat="43.012769" lon="-1.454946">
				<ele>1125</ele>
				<time>2018-04-28T09:39:30Z</time>
			</trkpt>
			<trkpt lat="43.012774" lon="-1.454875">
				<ele>1125</ele>
				<time>2018-04-28T09:39:34Z</time>
			</trkpt>
			<trkpt lat="43.012791" lon="-1.454793">
				<ele>1125</ele>
				<time>2018-04-28T09:39:38Z</time>
			</trkpt>
			<trkpt lat="43.012818" lon="-1.454731">
				<ele>1125</ele>
				<time>2018-04-28T09:39:43Z</time>
			</trkpt>
			<trkpt lat="43.012844" lon="-1.454665">
				<ele>1125</ele>
				<time>2018-04-28T09:39:46Z</time>
			</trkpt>
			<trkpt lat="43.012873" lon="-1.454579">
				<ele>1125</ele>
				<time>2018-04-28T09:39:49Z</time>
			</trkpt>
			<trkpt lat="43.012884" lon="-1.4545">
				<ele>1125</ele>
				<time>2018-04-28T09:39:53Z</time>
			</trkpt>
			<trkpt lat="43.012903" lon="-1.454417">
				<ele>1125</ele>
				<time>2018-04-28T09:39:56Z</time>
			</trkpt>
			<trkpt lat="43.012915" lon="-1.454351">
				<ele>1125</ele>
				<time>2018-04-28T09:39:59Z</time>
			</trkpt>
			<trkpt lat="43.012926" lon="-1.454276">
				<ele>1125</ele>
				<time>2018-04-28T09:40:03Z</time>
			</trkpt>
			<trkpt lat="43.012917" lon="-1.454197">
				<ele>1125</ele>
				<time>2018-04-28T09:40:06Z</time>
			</trkpt>
			<trkpt lat="43.012922" lon="-1.454114">
				<ele>1165</ele>
				<time>2018-04-28T09:40:09Z</time>
			</trkpt>
			<trkpt lat="43.012942" lon="-1.454031">
				<ele>1165</ele>
				<time>2018-04-28T09:40:12Z</time>
			</trkpt>
			<trkpt lat="43.012949" lon="-1.453955">
				<ele>1165</ele>
				<time>2018-04-28T09:40:14Z</time>
			</trkpt>
			<trkpt lat="43.012952" lon="-1.453887">
				<ele>1165</ele>
				<time>2018-04-28T09:40:16Z</time>
			</trkpt>
			<trkpt lat="43.012949" lon="-1.453822">
				<ele>1165</ele>
				<time>2018-04-28T09:40:18Z</time>
			</trkpt>
			<trkpt lat="43.012958" lon="-1.453761">
				<ele>1165</ele>
				<time>2018-04-28T09:40:20Z</time>
			</trkpt>
			<trkpt lat="43.012943" lon="-1.453684">
				<ele>1165</ele>
				<time>2018-04-28T09:40:22Z</time>
			</trkpt>
			<trkpt lat="43.012937" lon="-1.453595">
				<ele>1165</ele>
				<time>2018-04-28T09:40:25Z</time>
			</trkpt>
			<trkpt lat="43.012952" lon="-1.453513">
				<ele>1165</ele>
				<time>2018-04-28T09:40:28Z</time>
			</trkpt>
			<trkpt lat="43.012974" lon="-1.453458">
				<ele>1165</ele>
				<time>2018-04-28T09:40:30Z</time>
			</trkpt>
			<trkpt lat="43.01302" lon="-1.453387">
				<ele>1165</ele>
				<time>2018-04-28T09:40:33Z</time>
			</trkpt>
			<trkpt lat="43.013049" lon="-1.453319">
				<ele>1165</ele>
				<time>2018-04-28T09:40:36Z</time>
			</trkpt>
			<trkpt lat="43.013093" lon="-1.453254">
				<ele>1165</ele>
				<time>2018-04-28T09:40:39Z</time>
			</trkpt>
			<trkpt lat="43.01312" lon="-1.4532">
				<ele>1165</ele>
				<time>2018-04-28T09:40:41Z</time>
			</trkpt>
			<trkpt lat="43.013125" lon="-1.45313">
				<ele>1165</ele>
				<time>2018-04-28T09:40:43Z</time>
			</trkpt>
			<trkpt lat="43.01315" lon="-1.453068">
				<ele>1165</ele>
				<time>2018-04-28T09:40:45Z</time>
			</trkpt>
			<trkpt lat="43.013174" lon="-1.453012">
				<ele>1165</ele>
				<time>2018-04-28T09:40:47Z</time>
			</trkpt>
			<trkpt lat="43.013203" lon="-1.452948">
				<ele>1165</ele>
				<time>2018-04-28T09:40:49Z</time>
			</trkpt>
			<trkpt lat="43.013235" lon="-1.45289">
				<ele>1165</ele>
				<time>2018-04-28T09:40:52Z</time>
			</trkpt>
			<trkpt lat="43.013266" lon="-1.452842">
				<ele>1165</ele>
				<time>2018-04-28T09:40:54Z</time>
			</trkpt>
			<trkpt lat="43.013299" lon="-1.452783">
				<ele>1165</ele>
				<time>2018-04-28T09:40:56Z</time>
			</trkpt>
			<trkpt lat="43.013337" lon="-1.45272">
				<ele>1165</ele>
				<time>2018-04-28T09:40:58Z</time>
			</trkpt>
			<trkpt lat="43.013364" lon="-1.452628">
				<ele>1165</ele>
				<time>2018-04-28T09:41:00Z</time>
			</trkpt>
			<trkpt lat="43.01338" lon="-1.452556">
				<ele>1165</ele>
				<time>2018-04-28T09:41:02Z</time>
			</trkpt>
			<trkpt lat="43.013421" lon="-1.45248">
				<ele>1165</ele>
				<time>2018-04-28T09:41:05Z</time>
			</trkpt>
			<trkpt lat="43.013473" lon="-1.452417">
				<ele>1165</ele>
				<time>2018-04-28T09:41:08Z</time>
			</trkpt>
			<trkpt lat="43.013498" lon="-1.452361">
				<ele>1165</ele>
				<time>2018-04-28T09:41:10Z</time>
			</trkpt>
			<trkpt lat="43.013531" lon="-1.452303">
				<ele>1165</ele>
				<time>2018-04-28T09:41:13Z</time>
			</trkpt>
			<trkpt lat="43.013555" lon="-1.452244">
				<ele>1165</ele>
				<time>2018-04-28T09:41:16Z</time>
			</trkpt>
			<trkpt lat="43.01358" lon="-1.452188">
				<ele>1165</ele>
				<time>2018-04-28T09:41:19Z</time>
			</trkpt>
			<trkpt lat="43.013619" lon="-1.452124">
				<ele>1165</ele>
				<time>2018-04-28T09:41:22Z</time>
			</trkpt>
			<trkpt lat="43.013674" lon="-1.452094">
				<ele>1165</ele>
				<time>2018-04-28T09:41:24Z</time>
			</trkpt>
			<trkpt lat="43.013728" lon="-1.452063">
				<ele>1162</ele>
				<time>2018-04-28T09:41:26Z</time>
			</trkpt>
			<trkpt lat="43.013781" lon="-1.452026">
				<ele>1162</ele>
				<time>2018-04-28T09:41:28Z</time>
			</trkpt>
			<trkpt lat="43.013837" lon="-1.451975">
				<ele>1162</ele>
				<time>2018-04-28T09:41:30Z</time>
			</trkpt>
			<trkpt lat="43.013894" lon="-1.451965">
				<ele>1162</ele>
				<time>2018-04-28T09:41:32Z</time>
			</trkpt>
			<trkpt lat="43.013958" lon="-1.451964">
				<ele>1162</ele>
				<time>2018-04-28T09:41:34Z</time>
			</trkpt>
			<trkpt lat="43.014006" lon="-1.451978">
				<ele>1162</ele>
				<time>2018-04-28T09:41:36Z</time>
			</trkpt>
			<trkpt lat="43.014055" lon="-1.451992">
				<ele>1162</ele>
				<time>2018-04-28T09:41:38Z</time>
			</trkpt>
			<trkpt lat="43.014125" lon="-1.45205">
				<ele>1162</ele>
				<time>2018-04-28T09:41:41Z</time>
			</trkpt>
			<trkpt lat="43.014176" lon="-1.452066">
				<ele>1162</ele>
				<time>2018-04-28T09:41:43Z</time>
			</trkpt>
			<trkpt lat="43.014227" lon="-1.45207">
				<ele>1162</ele>
				<time>2018-04-28T09:41:47Z</time>
			</trkpt>
			<trkpt lat="43.014239" lon="-1.452007">
				<ele>1162</ele>
				<time>2018-04-28T09:41:53Z</time>
			</trkpt>
			<trkpt lat="43.014241" lon="-1.451931">
				<ele>1162</ele>
				<time>2018-04-28T09:41:57Z</time>
			</trkpt>
			<trkpt lat="43.014271" lon="-1.451878">
				<ele>1162</ele>
				<time>2018-04-28T09:42:02Z</time>
			</trkpt>
			<trkpt lat="43.014316" lon="-1.451854">
				<ele>1162</ele>
				<time>2018-04-28T09:42:06Z</time>
			</trkpt>
			<trkpt lat="43.014362" lon="-1.451837">
				<ele>1162</ele>
				<time>2018-04-28T09:42:09Z</time>
			</trkpt>
			<trkpt lat="43.014404" lon="-1.451804">
				<ele>1162</ele>
				<time>2018-04-28T09:42:21Z</time>
			</trkpt>
			<trkpt lat="43.014412" lon="-1.451738">
				<ele>1162</ele>
				<time>2018-04-28T09:42:26Z</time>
			</trkpt>
			<trkpt lat="43.014449" lon="-1.451693">
				<ele>1162</ele>
				<time>2018-04-28T09:42:30Z</time>
			</trkpt>
			<trkpt lat="43.014459" lon="-1.451626">
				<ele>1162</ele>
				<time>2018-04-28T09:42:34Z</time>
			</trkpt>
			<trkpt lat="43.01449" lon="-1.451562">
				<ele>1162</ele>
				<time>2018-04-28T09:42:38Z</time>
			</trkpt>
			<trkpt lat="43.014528" lon="-1.451505">
				<ele>1162</ele>
				<time>2018-04-28T09:42:42Z</time>
			</trkpt>
			<trkpt lat="43.014563" lon="-1.451456">
				<ele>1162</ele>
				<time>2018-04-28T09:42:49Z</time>
			</trkpt>
			<trkpt lat="43.014593" lon="-1.451391">
				<ele>1201</ele>
				<time>2018-04-28T09:42:53Z</time>
			</trkpt>
			<trkpt lat="43.014597" lon="-1.451327">
				<ele>1201</ele>
				<time>2018-04-28T09:42:58Z</time>
			</trkpt>
			<trkpt lat="43.01463" lon="-1.451265">
				<ele>1201</ele>
				<time>2018-04-28T09:43:04Z</time>
			</trkpt>
			<trkpt lat="43.014668" lon="-1.451229">
				<ele>1201</ele>
				<time>2018-04-28T09:43:07Z</time>
			</trkpt>
			<trkpt lat="43.014717" lon="-1.451189">
				<ele>1201</ele>
				<time>2018-04-28T09:43:12Z</time>
			</trkpt>
			<trkpt lat="43.014758" lon="-1.451154">
				<ele>1201</ele>
				<time>2018-04-28T09:43:17Z</time>
			</trkpt>
			<trkpt lat="43.014805" lon="-1.451137">
				<ele>1201</ele>
				<time>2018-04-28T09:43:21Z</time>
			</trkpt>
			<trkpt lat="43.01485" lon="-1.451086">
				<ele>1201</ele>
				<time>2018-04-28T09:43:27Z</time>
			</trkpt>
			<trkpt lat="43.014885" lon="-1.451045">
				<ele>1201</ele>
				<time>2018-04-28T09:43:31Z</time>
			</trkpt>
			<trkpt lat="43.014926" lon="-1.451012">
				<ele>1201</ele>
				<time>2018-04-28T09:43:37Z</time>
			</trkpt>
			<trkpt lat="43.014956" lon="-1.450961">
				<ele>1201</ele>
				<time>2018-04-28T09:43:42Z</time>
			</trkpt>
			<trkpt lat="43.014984" lon="-1.450906">
				<ele>1201</ele>
				<time>2018-04-28T09:43:46Z</time>
			</trkpt>
			<trkpt lat="43.015023" lon="-1.450852">
				<ele>1201</ele>
				<time>2018-04-28T09:43:50Z</time>
			</trkpt>
			<trkpt lat="43.015059" lon="-1.450789">
				<ele>1201</ele>
				<time>2018-04-28T09:43:56Z</time>
			</trkpt>
			<trkpt lat="43.015093" lon="-1.450748">
				<ele>1201</ele>
				<time>2018-04-28T09:43:59Z</time>
			</trkpt>
			<trkpt lat="43.015134" lon="-1.450717">
				<ele>1201</ele>
				<time>2018-04-28T09:44:02Z</time>
			</trkpt>
			<trkpt lat="43.015161" lon="-1.450653">
				<ele>1201</ele>
				<time>2018-04-28T09:44:08Z</time>
			</trkpt>
			<trkpt lat="43.01519" lon="-1.450582">
				<ele>1201</ele>
				<time>2018-04-28T09:44:12Z</time>
			</trkpt>
			<trkpt lat="43.015191" lon="-1.450518">
				<ele>1201</ele>
				<time>2018-04-28T09:44:17Z</time>
			</trkpt>
			<trkpt lat="43.015183" lon="-1.450451">
				<ele>1201</ele>
				<time>2018-04-28T09:44:20Z</time>
			</trkpt>
			<trkpt lat="43.015176" lon="-1.45039">
				<ele>1201</ele>
				<time>2018-04-28T09:44:24Z</time>
			</trkpt>
			<trkpt lat="43.015128" lon="-1.450357">
				<ele>1201</ele>
				<time>2018-04-28T09:44:28Z</time>
			</trkpt>
			<trkpt lat="43.015094" lon="-1.450313">
				<ele>1201</ele>
				<time>2018-04-28T09:44:31Z</time>
			</trkpt>
			<trkpt lat="43.015083" lon="-1.450249">
				<ele>1201</ele>
				<time>2018-04-28T09:44:35Z</time>
			</trkpt>
			<trkpt lat="43.015078" lon="-1.45018">
				<ele>1201</ele>
				<time>2018-04-28T09:44:39Z</time>
			</trkpt>
			<trkpt lat="43.015074" lon="-1.450103">
				<ele>1201</ele>
				<time>2018-04-28T09:44:43Z</time>
			</trkpt>
			<trkpt lat="43.015082" lon="-1.450029">
				<ele>1201</ele>
				<time>2018-04-28T09:44:49Z</time>
			</trkpt>
			<trkpt lat="43.015084" lon="-1.449963">
				<ele>1261</ele>
				<time>2018-04-28T09:44:53Z</time>
			</trkpt>
			<trkpt lat="43.015071" lon="-1.449896">
				<ele>1261</ele>
				<time>2018-04-28T09:44:58Z</time>
			</trkpt>
			<trkpt lat="43.01507" lon="-1.449828">
				<ele>1261</ele>
				<time>2018-04-28T09:45:03Z</time>
			</trkpt>
			<trkpt lat="43.015083" lon="-1.449756">
				<ele>1261</ele>
				<time>2018-04-28T09:45:11Z</time>
			</trkpt>
			<trkpt lat="43.015105" lon="-1.44969">
				<ele>1261</ele>
				<time>2018-04-28T09:45:17Z</time>
			</trkpt>
			<trkpt lat="43.015129" lon="-1.449636">
				<ele>1261</ele>
				<time>2018-04-28T09:45:24Z</time>
			</trkpt>
			<trkpt lat="43.015149" lon="-1.449566">
				<ele>1261</ele>
				<time>2018-04-28T09:45:29Z</time>
			</trkpt>
			<trkpt lat="43.01515" lon="-1.449501">
				<ele>1261</ele>
				<time>2018-04-28T09:45:35Z</time>
			</trkpt>
			<trkpt lat="43.015149" lon="-1.449436">
				<ele>1261</ele>
				<time>2018-04-28T09:45:39Z</time>
			</trkpt>
			<trkpt lat="43.015149" lon="-1.449368">
				<ele>1261</ele>
				<time>2018-04-28T09:45:46Z</time>
			</trkpt>
			<trkpt lat="43.015181" lon="-1.449308">
				<ele>1261</ele>
				<time>2018-04-28T09:45:52Z</time>
			</trkpt>
			<trkpt lat="43.01521" lon="-1.449254">
				<ele>1261</ele>
				<time>2018-04-28T09:45:57Z</time>
			</trkpt>
			<trkpt lat="43.015224" lon="-1.449194">
				<ele>1261</ele>
				<time>2018-04-28T09:46:05Z</time>
			</trkpt>
			<trkpt lat="43.015226" lon="-1.449109">
				<ele>1261</ele>
				<time>2018-04-28T09:46:10Z</time>
			</trkpt>
			<trkpt lat="43.015222" lon="-1.449048">
				<ele>1261</ele>
				<time>2018-04-28T09:46:14Z</time>
			</trkpt>
			<trkpt lat="43.015226" lon="-1.448974">
				<ele>1261</ele>
				<time>2018-04-28T09:46:18Z</time>
			</trkpt>
			<trkpt lat="43.015241" lon="-1.448897">
				<ele>1261</ele>
				<time>2018-04-28T09:46:21Z</time>
			</trkpt>
			<trkpt lat="43.015238" lon="-1.448834">
				<ele>1261</ele>
				<time>2018-04-28T09:46:26Z</time>
			</trkpt>
			<trkpt lat="43.015248" lon="-1.448766">
				<ele>1261</ele>
				<time>2018-04-28T09:46:29Z</time>
			</trkpt>
			<trkpt lat="43.015236" lon="-1.448686">
				<ele>1261</ele>
				<time>2018-04-28T09:46:33Z</time>
			</trkpt>
			<trkpt lat="43.015234" lon="-1.448618">
				<ele>1261</ele>
				<time>2018-04-28T09:46:36Z</time>
			</trkpt>
			<trkpt lat="43.015253" lon="-1.44856">
				<ele>1261</ele>
				<time>2018-04-28T09:46:43Z</time>
			</trkpt>
			<trkpt lat="43.015267" lon="-1.4485">
				<ele>1261</ele>
				<time>2018-04-28T09:46:48Z</time>
			</trkpt>
			<trkpt lat="43.015297" lon="-1.448454">
				<ele>1261</ele>
				<time>2018-04-28T09:46:56Z</time>
			</trkpt>
			<trkpt lat="43.015331" lon="-1.448383">
				<ele>1261</ele>
				<time>2018-04-28T09:47:01Z</time>
			</trkpt>
			<trkpt lat="43.015373" lon="-1.448357">
				<ele>1261</ele>
				<time>2018-04-28T09:47:08Z</time>
			</trkpt>
			<trkpt lat="43.015411" lon="-1.448315">
				<ele>1261</ele>
				<time>2018-04-28T09:47:13Z</time>
			</trkpt>
			<trkpt lat="43.015452" lon="-1.448281">
				<ele>1261</ele>
				<time>2018-04-28T09:47:19Z</time>
			</trkpt>
			<trkpt lat="43.015494" lon="-1.448232">
				<ele>1261</ele>
				<time>2018-04-28T09:47:24Z</time>
			</trkpt>
			<trkpt lat="43.015541" lon="-1.448209">
				<ele>1261</ele>
				<time>2018-04-28T09:47:37Z</time>
			</trkpt>
			<trkpt lat="43.015586" lon="-1.448205">
				<ele>1261</ele>
				<time>2018-04-28T09:47:42Z</time>
			</trkpt>
			<trkpt lat="43.015617" lon="-1.448253">
				<ele>1261</ele>
				<time>2018-04-28T09:47:49Z</time>
			</trkpt>
			<trkpt lat="43.015653" lon="-1.448323">
				<ele>1261</ele>
				<time>2018-04-28T09:47:56Z</time>
			</trkpt>
			<trkpt lat="43.015694" lon="-1.448362">
				<ele>1261</ele>
				<time>2018-04-28T09:48:00Z</time>
			</trkpt>
			<trkpt lat="43.015719" lon="-1.448419">
				<ele>1261</ele>
				<time>2018-04-28T09:48:02Z</time>
			</trkpt>
			<trkpt lat="43.015724" lon="-1.448499">
				<ele>1261</ele>
				<time>2018-04-28T09:48:08Z</time>
			</trkpt>
			<trkpt lat="43.015769" lon="-1.448539">
				<ele>1261</ele>
				<time>2018-04-28T09:48:14Z</time>
			</trkpt>
			<trkpt lat="43.015799" lon="-1.448597">
				<ele>1261</ele>
				<time>2018-04-28T09:48:19Z</time>
			</trkpt>
			<trkpt lat="43.015815" lon="-1.448666">
				<ele>1261</ele>
				<time>2018-04-28T09:48:24Z</time>
			</trkpt>
			<trkpt lat="43.015862" lon="-1.448723">
				<ele>1261</ele>
				<time>2018-04-28T09:48:27Z</time>
			</trkpt>
			<trkpt lat="43.015872" lon="-1.448789">
				<ele>1261</ele>
				<time>2018-04-28T09:48:30Z</time>
			</trkpt>
			<trkpt lat="43.0159" lon="-1.448839">
				<ele>1261</ele>
				<time>2018-04-28T09:48:35Z</time>
			</trkpt>
			<trkpt lat="43.015946" lon="-1.448862">
				<ele>1261</ele>
				<time>2018-04-28T09:48:41Z</time>
			</trkpt>
			<trkpt lat="43.015999" lon="-1.448841">
				<ele>1261</ele>
				<time>2018-04-28T09:48:46Z</time>
			</trkpt>
			<trkpt lat="43.016054" lon="-1.448845">
				<ele>1261</ele>
				<time>2018-04-28T09:48:51Z</time>
			</trkpt>
			<trkpt lat="43.016103" lon="-1.448831">
				<ele>1261</ele>
				<time>2018-04-28T09:48:55Z</time>
			</trkpt>
			<trkpt lat="43.016139" lon="-1.44878">
				<ele>1261</ele>
				<time>2018-04-28T09:48:59Z</time>
			</trkpt>
			<trkpt lat="43.016185" lon="-1.448749">
				<ele>1261</ele>
				<time>2018-04-28T09:49:02Z</time>
			</trkpt>
			<trkpt lat="43.01623" lon="-1.448708">
				<ele>1261</ele>
				<time>2018-04-28T09:49:06Z</time>
			</trkpt>
			<trkpt lat="43.016282" lon="-1.4487">
				<ele>1261</ele>
				<time>2018-04-28T09:49:12Z</time>
			</trkpt>
			<trkpt lat="43.016328" lon="-1.448676">
				<ele>1261</ele>
				<time>2018-04-28T09:49:15Z</time>
			</trkpt>
			<trkpt lat="43.016372" lon="-1.44865">
				<ele>1261</ele>
				<time>2018-04-28T09:49:19Z</time>
			</trkpt>
			<trkpt lat="43.016383" lon="-1.448587">
				<ele>1261</ele>
				<time>2018-04-28T09:49:24Z</time>
			</trkpt>
			<trkpt lat="43.016402" lon="-1.448524">
				<ele>1261</ele>
				<time>2018-04-28T09:49:28Z</time>
			</trkpt>
			<trkpt lat="43.016434" lon="-1.448467">
				<ele>1261</ele>
				<time>2018-04-28T09:49:34Z</time>
			</trkpt>
			<trkpt lat="43.016484" lon="-1.448448">
				<ele>1261</ele>
				<time>2018-04-28T09:49:39Z</time>
			</trkpt>
			<trkpt lat="43.016526" lon="-1.448403">
				<ele>1261</ele>
				<time>2018-04-28T09:49:44Z</time>
			</trkpt>
			<trkpt lat="43.016565" lon="-1.448367">
				<ele>1261</ele>
				<time>2018-04-28T09:49:47Z</time>
			</trkpt>
			<trkpt lat="43.016604" lon="-1.448325">
				<ele>1261</ele>
				<time>2018-04-28T09:49:53Z</time>
			</trkpt>
			<trkpt lat="43.016645" lon="-1.448285">
				<ele>1261</ele>
				<time>2018-04-28T09:49:58Z</time>
			</trkpt>
			<trkpt lat="43.016682" lon="-1.448223">
				<ele>1318</ele>
				<time>2018-04-28T09:50:03Z</time>
			</trkpt>
			<trkpt lat="43.016724" lon="-1.448186">
				<ele>1318</ele>
				<time>2018-04-28T09:50:07Z</time>
			</trkpt>
			<trkpt lat="43.016765" lon="-1.448142">
				<ele>1318</ele>
				<time>2018-04-28T09:50:11Z</time>
			</trkpt>
			<trkpt lat="43.016807" lon="-1.448111">
				<ele>1318</ele>
				<time>2018-04-28T09:50:16Z</time>
			</trkpt>
			<trkpt lat="43.01685" lon="-1.448081">
				<ele>1318</ele>
				<time>2018-04-28T09:50:21Z</time>
			</trkpt>
			<trkpt lat="43.016888" lon="-1.448048">
				<ele>1318</ele>
				<time>2018-04-28T09:50:26Z</time>
			</trkpt>
			<trkpt lat="43.01693" lon="-1.448007">
				<ele>1318</ele>
				<time>2018-04-28T09:50:32Z</time>
			</trkpt>
			<trkpt lat="43.016961" lon="-1.447947">
				<ele>1318</ele>
				<time>2018-04-28T09:50:42Z</time>
			</trkpt>
			<trkpt lat="43.016973" lon="-1.447886">
				<ele>1354</ele>
				<time>2018-04-28T09:50:48Z</time>
			</trkpt>
			<trkpt lat="43.017016" lon="-1.447846">
				<ele>1354</ele>
				<time>2018-04-28T09:50:56Z</time>
			</trkpt>
			<trkpt lat="43.017049" lon="-1.447804">
				<ele>1354</ele>
				<time>2018-04-28T09:51:01Z</time>
			</trkpt>
			<trkpt lat="43.017067" lon="-1.447745">
				<ele>1354</ele>
				<time>2018-04-28T09:51:06Z</time>
			</trkpt>
			<trkpt lat="43.017092" lon="-1.447684">
				<ele>1354</ele>
				<time>2018-04-28T09:51:13Z</time>
			</trkpt>
			<trkpt lat="43.01713" lon="-1.447646">
				<ele>1354</ele>
				<time>2018-04-28T09:51:17Z</time>
			</trkpt>
			<trkpt lat="43.017169" lon="-1.447603">
				<ele>1354</ele>
				<time>2018-04-28T09:51:21Z</time>
			</trkpt>
			<trkpt lat="43.017186" lon="-1.447532">
				<ele>1354</ele>
				<time>2018-04-28T09:51:25Z</time>
			</trkpt>
			<trkpt lat="43.017208" lon="-1.44746">
				<ele>1354</ele>
				<time>2018-04-28T09:51:29Z</time>
			</trkpt>
			<trkpt lat="43.017215" lon="-1.447394">
				<ele>1354</ele>
				<time>2018-04-28T09:51:33Z</time>
			</trkpt>
			<trkpt lat="43.017244" lon="-1.447341">
				<ele>1354</ele>
				<time>2018-04-28T09:51:38Z</time>
			</trkpt>
			<trkpt lat="43.01726" lon="-1.447264">
				<ele>1354</ele>
				<time>2018-04-28T09:51:43Z</time>
			</trkpt>
			<trkpt lat="43.017293" lon="-1.447206">
				<ele>1354</ele>
				<time>2018-04-28T09:51:50Z</time>
			</trkpt>
			<trkpt lat="43.01732" lon="-1.447144">
				<ele>1354</ele>
				<time>2018-04-28T09:51:56Z</time>
			</trkpt>
			<trkpt lat="43.017323" lon="-1.447082">
				<ele>1354</ele>
				<time>2018-04-28T09:52:03Z</time>
			</trkpt>
			<trkpt lat="43.017362" lon="-1.447048">
				<ele>1354</ele>
				<time>2018-04-28T09:52:08Z</time>
			</trkpt>
			<trkpt lat="43.017401" lon="-1.447013">
				<ele>1354</ele>
				<time>2018-04-28T09:52:12Z</time>
			</trkpt>
			<trkpt lat="43.017435" lon="-1.44696">
				<ele>1354</ele>
				<time>2018-04-28T09:52:20Z</time>
			</trkpt>
			<trkpt lat="43.017439" lon="-1.446894">
				<ele>1354</ele>
				<time>2018-04-28T09:52:28Z</time>
			</trkpt>
			<trkpt lat="43.017446" lon="-1.44683">
				<ele>1354</ele>
				<time>2018-04-28T09:52:36Z</time>
			</trkpt>
			<trkpt lat="43.017459" lon="-1.446764">
				<ele>1354</ele>
				<time>2018-04-28T09:52:43Z</time>
			</trkpt>
			<trkpt lat="43.01748" lon="-1.446705">
				<ele>1354</ele>
				<time>2018-04-28T09:52:47Z</time>
			</trkpt>
			<trkpt lat="43.01751" lon="-1.446651">
				<ele>1354</ele>
				<time>2018-04-28T09:52:50Z</time>
			</trkpt>
			<trkpt lat="43.017545" lon="-1.44661">
				<ele>1354</ele>
				<time>2018-04-28T09:52:58Z</time>
			</trkpt>
			<trkpt lat="43.017567" lon="-1.44655">
				<ele>1354</ele>
				<time>2018-04-28T09:53:03Z</time>
			</trkpt>
			<trkpt lat="43.017603" lon="-1.446508">
				<ele>1354</ele>
				<time>2018-04-28T09:53:08Z</time>
			</trkpt>
			<trkpt lat="43.017654" lon="-1.446508">
				<ele>1354</ele>
				<time>2018-04-28T09:53:15Z</time>
			</trkpt>
			<trkpt lat="43.017695" lon="-1.446481">
				<ele>1354</ele>
				<time>2018-04-28T09:53:21Z</time>
			</trkpt>
			<trkpt lat="43.017738" lon="-1.446448">
				<ele>1354</ele>
				<time>2018-04-28T09:53:25Z</time>
			</trkpt>
			<trkpt lat="43.017794" lon="-1.446452">
				<ele>1354</ele>
				<time>2018-04-28T09:53:33Z</time>
			</trkpt>
			<trkpt lat="43.017839" lon="-1.446426">
				<ele>1354</ele>
				<time>2018-04-28T09:53:40Z</time>
			</trkpt>
			<trkpt lat="43.017885" lon="-1.446399">
				<ele>1354</ele>
				<time>2018-04-28T09:53:51Z</time>
			</trkpt>
			<trkpt lat="43.017934" lon="-1.446381">
				<ele>1354</ele>
				<time>2018-04-28T09:54:04Z</time>
			</trkpt>
			<trkpt lat="43.017976" lon="-1.446351">
				<ele>1354</ele>
				<time>2018-04-28T09:54:10Z</time>
			</trkpt>
			<trkpt lat="43.01802" lon="-1.446339">
				<ele>1354</ele>
				<time>2018-04-28T09:54:18Z</time>
			</trkpt>
			<trkpt lat="43.018061" lon="-1.446297">
				<ele>1354</ele>
				<time>2018-04-28T09:54:27Z</time>
			</trkpt>
			<trkpt lat="43.018107" lon="-1.446262">
				<ele>1354</ele>
				<time>2018-04-28T09:54:33Z</time>
			</trkpt>
			<trkpt lat="43.01814" lon="-1.446208">
				<ele>1354</ele>
				<time>2018-04-28T09:54:39Z</time>
			</trkpt>
			<trkpt lat="43.01819" lon="-1.446184">
				<ele>1354</ele>
				<time>2018-04-28T09:54:45Z</time>
			</trkpt>
			<trkpt lat="43.018237" lon="-1.44616">
				<ele>1354</ele>
				<time>2018-04-28T09:54:51Z</time>
			</trkpt>
			<trkpt lat="43.01828" lon="-1.446124">
				<ele>1354</ele>
				<time>2018-04-28T09:54:57Z</time>
			</trkpt>
			<trkpt lat="43.018323" lon="-1.446091">
				<ele>1354</ele>
				<time>2018-04-28T09:55:05Z</time>
			</trkpt>
			<trkpt lat="43.018364" lon="-1.446063">
				<ele>1354</ele>
				<time>2018-04-28T09:55:11Z</time>
			</trkpt>
			<trkpt lat="43.018411" lon="-1.446061">
				<ele>1354</ele>
				<time>2018-04-28T09:55:18Z</time>
			</trkpt>
			<trkpt lat="43.018459" lon="-1.446062">
				<ele>1354</ele>
				<time>2018-04-28T09:55:23Z</time>
			</trkpt>
			<trkpt lat="43.018504" lon="-1.446077">
				<ele>1354</ele>
				<time>2018-04-28T09:55:27Z</time>
			</trkpt>
			<trkpt lat="43.01855" lon="-1.446086">
				<ele>1354</ele>
				<time>2018-04-28T09:55:34Z</time>
			</trkpt>
			<trkpt lat="43.018579" lon="-1.446035">
				<ele>1354</ele>
				<time>2018-04-28T09:55:40Z</time>
			</trkpt>
			<trkpt lat="43.018611" lon="-1.445984">
				<ele>1354</ele>
				<time>2018-04-28T09:55:46Z</time>
			</trkpt>
			<trkpt lat="43.018658" lon="-1.445976">
				<ele>1354</ele>
				<time>2018-04-28T09:55:53Z</time>
			</trkpt>
			<trkpt lat="43.018673" lon="-1.445914">
				<ele>1354</ele>
				<time>2018-04-28T09:56:05Z</time>
			</trkpt>
			<trkpt lat="43.018711" lon="-1.445876">
				<ele>1354</ele>
				<time>2018-04-28T09:56:14Z</time>
			</trkpt>
			<trkpt lat="43.018756" lon="-1.445873">
				<ele>1437</ele>
				<time>2018-04-28T09:56:21Z</time>
			</trkpt>
			<trkpt lat="43.018804" lon="-1.445893">
				<ele>1437</ele>
				<time>2018-04-28T09:56:30Z</time>
			</trkpt>
			<trkpt lat="43.018831" lon="-1.445843">
				<ele>1437</ele>
				<time>2018-04-28T09:56:40Z</time>
			</trkpt>
			<trkpt lat="43.018819" lon="-1.445778">
				<ele>1423</ele>
				<time>2018-04-28T09:56:47Z</time>
			</trkpt>
			<trkpt lat="43.01879" lon="-1.445719">
				<ele>1423</ele>
				<time>2018-04-28T09:56:53Z</time>
			</trkpt>
			<trkpt lat="43.018764" lon="-1.445666">
				<ele>1423</ele>
				<time>2018-04-28T09:56:59Z</time>
			</trkpt>
			<trkpt lat="43.018782" lon="-1.445604">
				<ele>1423</ele>
				<time>2018-04-28T09:57:06Z</time>
			</trkpt>
			<trkpt lat="43.018825" lon="-1.445567">
				<ele>1423</ele>
				<time>2018-04-28T09:57:15Z</time>
			</trkpt>
			<trkpt lat="43.018869" lon="-1.445542">
				<ele>1423</ele>
				<time>2018-04-28T09:57:20Z</time>
			</trkpt>
			<trkpt lat="43.018918" lon="-1.445542">
				<ele>1423</ele>
				<time>2018-04-28T09:57:28Z</time>
			</trkpt>
			<trkpt lat="43.018962" lon="-1.445519">
				<ele>1423</ele>
				<time>2018-04-28T09:57:34Z</time>
			</trkpt>
			<trkpt lat="43.019" lon="-1.445483">
				<ele>1423</ele>
				<time>2018-04-28T09:57:40Z</time>
			</trkpt>
			<trkpt lat="43.019027" lon="-1.445426">
				<ele>1423</ele>
				<time>2018-04-28T09:57:55Z</time>
			</trkpt>
			<trkpt lat="43.019075" lon="-1.445395">
				<ele>1423</ele>
				<time>2018-04-28T09:58:01Z</time>
			</trkpt>
			<trkpt lat="43.019112" lon="-1.445346">
				<ele>1423</ele>
				<time>2018-04-28T09:58:09Z</time>
			</trkpt>
			<trkpt lat="43.019156" lon="-1.445331">
				<ele>1423</ele>
				<time>2018-04-28T09:58:14Z</time>
			</trkpt>
			<trkpt lat="43.019203" lon="-1.445315">
				<ele>1423</ele>
				<time>2018-04-28T09:58:26Z</time>
			</trkpt>
			<trkpt lat="43.019202" lon="-1.445246">
				<ele>1423</ele>
				<time>2018-04-28T09:58:31Z</time>
			</trkpt>
			<trkpt lat="43.019249" lon="-1.445223">
				<ele>1423</ele>
				<time>2018-04-28T09:58:37Z</time>
			</trkpt>
			<trkpt lat="43.019283" lon="-1.445182">
				<ele>1423</ele>
				<time>2018-04-28T09:58:42Z</time>
			</trkpt>
			<trkpt lat="43.019299" lon="-1.445118">
				<ele>1423</ele>
				<time>2018-04-28T09:58:48Z</time>
			</trkpt>
			<trkpt lat="43.019361" lon="-1.445104">
				<ele>1423</ele>
				<time>2018-04-28T09:58:59Z</time>
			</trkpt>
			<trkpt lat="43.019425" lon="-1.445117">
				<ele>1423</ele>
				<time>2018-04-28T09:59:02Z</time>
			</trkpt>
			<trkpt lat="43.019459" lon="-1.445164">
				<ele>1423</ele>
				<time>2018-04-28T09:59:05Z</time>
			</trkpt>
			<trkpt lat="43.019499" lon="-1.44522">
				<ele>1423</ele>
				<time>2018-04-28T09:59:08Z</time>
			</trkpt>
			<trkpt lat="43.019537" lon="-1.445275">
				<ele>1423</ele>
				<time>2018-04-28T09:59:12Z</time>
			</trkpt>
			<trkpt lat="43.019563" lon="-1.445338">
				<ele>1423</ele>
				<time>2018-04-28T09:59:15Z</time>
			</trkpt>
			<trkpt lat="43.019584" lon="-1.445414">
				<ele>1423</ele>
				<time>2018-04-28T09:59:18Z</time>
			</trkpt>
			<trkpt lat="43.019595" lon="-1.445496">
				<ele>1423</ele>
				<time>2018-04-28T09:59:20Z</time>
			</trkpt>
			<trkpt lat="43.0196" lon="-1.445602">
				<ele>1423</ele>
				<time>2018-04-28T09:59:22Z</time>
			</trkpt>
			<trkpt lat="43.0196" lon="-1.445664">
				<ele>1423</ele>
				<time>2018-04-28T09:59:24Z</time>
			</trkpt>
			<trkpt lat="43.019604" lon="-1.445739">
				<ele>1423</ele>
				<time>2018-04-28T09:59:26Z</time>
			</trkpt>
			<trkpt lat="43.019611" lon="-1.44581">
				<ele>1423</ele>
				<time>2018-04-28T09:59:28Z</time>
			</trkpt>
			<trkpt lat="43.019623" lon="-1.445879">
				<ele>1437</ele>
				<time>2018-04-28T09:59:29Z</time>
			</trkpt>
			<trkpt lat="43.019634" lon="-1.445952">
				<ele>1437</ele>
				<time>2018-04-28T09:59:32Z</time>
			</trkpt>
			<trkpt lat="43.019647" lon="-1.446013">
				<ele>1437</ele>
				<time>2018-04-28T09:59:34Z</time>
			</trkpt>
			<trkpt lat="43.019663" lon="-1.446071">
				<ele>1437</ele>
				<time>2018-04-28T09:59:36Z</time>
			</trkpt>
			<trkpt lat="43.019673" lon="-1.44614">
				<ele>1437</ele>
				<time>2018-04-28T09:59:38Z</time>
			</trkpt>
			<trkpt lat="43.019686" lon="-1.446213">
				<ele>1437</ele>
				<time>2018-04-28T09:59:40Z</time>
			</trkpt>
			<trkpt lat="43.0197" lon="-1.446279">
				<ele>1437</ele>
				<time>2018-04-28T09:59:42Z</time>
			</trkpt>
			<trkpt lat="43.019726" lon="-1.446341">
				<ele>1437</ele>
				<time>2018-04-28T09:59:44Z</time>
			</trkpt>
			<trkpt lat="43.019757" lon="-1.446464">
				<ele>1437</ele>
				<time>2018-04-28T09:59:48Z</time>
			</trkpt>
			<trkpt lat="43.019789" lon="-1.446526">
				<ele>1437</ele>
				<time>2018-04-28T09:59:50Z</time>
			</trkpt>
			<trkpt lat="43.019826" lon="-1.446566">
				<ele>1437</ele>
				<time>2018-04-28T09:59:52Z</time>
			</trkpt>
			<trkpt lat="43.019857" lon="-1.446626">
				<ele>1437</ele>
				<time>2018-04-28T09:59:54Z</time>
			</trkpt>
			<trkpt lat="43.019892" lon="-1.446697">
				<ele>1437</ele>
				<time>2018-04-28T09:59:56Z</time>
			</trkpt>
			<trkpt lat="43.019925" lon="-1.446766">
				<ele>1437</ele>
				<time>2018-04-28T09:59:58Z</time>
			</trkpt>
			<trkpt lat="43.019948" lon="-1.44682">
				<ele>1437</ele>
				<time>2018-04-28T10:00:00Z</time>
			</trkpt>
			<trkpt lat="43.019992" lon="-1.446881">
				<ele>1437</ele>
				<time>2018-04-28T10:00:02Z</time>
			</trkpt>
			<trkpt lat="43.020027" lon="-1.446946">
				<ele>1437</ele>
				<time>2018-04-28T10:00:04Z</time>
			</trkpt>
			<trkpt lat="43.020051" lon="-1.447023">
				<ele>1437</ele>
				<time>2018-04-28T10:00:06Z</time>
			</trkpt>
			<trkpt lat="43.020092" lon="-1.447082">
				<ele>1437</ele>
				<time>2018-04-28T10:00:08Z</time>
			</trkpt>
			<trkpt lat="43.020132" lon="-1.447142">
				<ele>1437</ele>
				<time>2018-04-28T10:00:10Z</time>
			</trkpt>
			<trkpt lat="43.020166" lon="-1.447202">
				<ele>1437</ele>
				<time>2018-04-28T10:00:12Z</time>
			</trkpt>
			<trkpt lat="43.02019" lon="-1.44726">
				<ele>1437</ele>
				<time>2018-04-28T10:00:14Z</time>
			</trkpt>
			<trkpt lat="43.020218" lon="-1.447309">
				<ele>1437</ele>
				<time>2018-04-28T10:00:16Z</time>
			</trkpt>
			<trkpt lat="43.020256" lon="-1.447365">
				<ele>1437</ele>
				<time>2018-04-28T10:00:18Z</time>
			</trkpt>
			<trkpt lat="43.020297" lon="-1.447419">
				<ele>1437</ele>
				<time>2018-04-28T10:00:20Z</time>
			</trkpt>
			<trkpt lat="43.020331" lon="-1.447474">
				<ele>1437</ele>
				<time>2018-04-28T10:00:22Z</time>
			</trkpt>
			<trkpt lat="43.020369" lon="-1.447545">
				<ele>1437</ele>
				<time>2018-04-28T10:00:25Z</time>
			</trkpt>
			<trkpt lat="43.020416" lon="-1.447617">
				<ele>1437</ele>
				<time>2018-04-28T10:00:28Z</time>
			</trkpt>
			<trkpt lat="43.02045" lon="-1.447664">
				<ele>1437</ele>
				<time>2018-04-28T10:00:30Z</time>
			</trkpt>
			<trkpt lat="43.020475" lon="-1.447719">
				<ele>1437</ele>
				<time>2018-04-28T10:00:33Z</time>
			</trkpt>
			<trkpt lat="43.020508" lon="-1.447776">
				<ele>1437</ele>
				<time>2018-04-28T10:00:36Z</time>
			</trkpt>
			<trkpt lat="43.020552" lon="-1.447821">
				<ele>1437</ele>
				<time>2018-04-28T10:00:39Z</time>
			</trkpt>
			<trkpt lat="43.020593" lon="-1.447857">
				<ele>1437</ele>
				<time>2018-04-28T10:00:41Z</time>
			</trkpt>
			<trkpt lat="43.020638" lon="-1.447913">
				<ele>1437</ele>
				<time>2018-04-28T10:00:44Z</time>
			</trkpt>
			<trkpt lat="43.020676" lon="-1.447973">
				<ele>1382</ele>
				<time>2018-04-28T10:00:48Z</time>
			</trkpt>
			<trkpt lat="43.020704" lon="-1.448032">
				<ele>1382</ele>
				<time>2018-04-28T10:00:51Z</time>
			</trkpt>
			<trkpt lat="43.020752" lon="-1.448092">
				<ele>1382</ele>
				<time>2018-04-28T10:00:54Z</time>
			</trkpt>
			<trkpt lat="43.020794" lon="-1.448129">
				<ele>1382</ele>
				<time>2018-04-28T10:00:56Z</time>
			</trkpt>
			<trkpt lat="43.020832" lon="-1.448171">
				<ele>1382</ele>
				<time>2018-04-28T10:00:58Z</time>
			</trkpt>
			<trkpt lat="43.020866" lon="-1.448213">
				<ele>1377</ele>
				<time>2018-04-28T10:01:00Z</time>
			</trkpt>
			<trkpt lat="43.020913" lon="-1.448295">
				<ele>1377</ele>
				<time>2018-04-28T10:01:03Z</time>
			</trkpt>
			<trkpt lat="43.020958" lon="-1.448355">
				<ele>1377</ele>
				<time>2018-04-28T10:01:05Z</time>
			</trkpt>
			<trkpt lat="43.021009" lon="-1.448368">
				<ele>1377</ele>
				<time>2018-04-28T10:01:07Z</time>
			</trkpt>
			<trkpt lat="43.021067" lon="-1.448377">
				<ele>1377</ele>
				<time>2018-04-28T10:01:09Z</time>
			</trkpt>
			<trkpt lat="43.021113" lon="-1.448399">
				<ele>1377</ele>
				<time>2018-04-28T10:01:11Z</time>
			</trkpt>
			<trkpt lat="43.021185" lon="-1.448421">
				<ele>1377</ele>
				<time>2018-04-28T10:01:13Z</time>
			</trkpt>
			<trkpt lat="43.021258" lon="-1.448421">
				<ele>1377</ele>
				<time>2018-04-28T10:01:15Z</time>
			</trkpt>
			<trkpt lat="43.021317" lon="-1.448423">
				<ele>1377</ele>
				<time>2018-04-28T10:01:17Z</time>
			</trkpt>
			<trkpt lat="43.021382" lon="-1.44842">
				<ele>1377</ele>
				<time>2018-04-28T10:01:19Z</time>
			</trkpt>
			<trkpt lat="43.021441" lon="-1.448425">
				<ele>1377</ele>
				<time>2018-04-28T10:01:21Z</time>
			</trkpt>
			<trkpt lat="43.021496" lon="-1.448429">
				<ele>1377</ele>
				<time>2018-04-28T10:01:23Z</time>
			</trkpt>
			<trkpt lat="43.021547" lon="-1.448432">
				<ele>1377</ele>
				<time>2018-04-28T10:01:25Z</time>
			</trkpt>
			<trkpt lat="43.021597" lon="-1.448403">
				<ele>1377</ele>
				<time>2018-04-28T10:01:27Z</time>
			</trkpt>
			<trkpt lat="43.021646" lon="-1.448376">
				<ele>1377</ele>
				<time>2018-04-28T10:01:29Z</time>
			</trkpt>
			<trkpt lat="43.021698" lon="-1.448346">
				<ele>1377</ele>
				<time>2018-04-28T10:01:31Z</time>
			</trkpt>
			<trkpt lat="43.021732" lon="-1.448288">
				<ele>1377</ele>
				<time>2018-04-28T10:01:33Z</time>
			</trkpt>
			<trkpt lat="43.021758" lon="-1.448238">
				<ele>1377</ele>
				<time>2018-04-28T10:01:35Z</time>
			</trkpt>
			<trkpt lat="43.021772" lon="-1.44815">
				<ele>1377</ele>
				<time>2018-04-28T10:01:38Z</time>
			</trkpt>
			<trkpt lat="43.021755" lon="-1.44809">
				<ele>1377</ele>
				<time>2018-04-28T10:01:40Z</time>
			</trkpt>
			<trkpt lat="43.021743" lon="-1.448013">
				<ele>1377</ele>
				<time>2018-04-28T10:01:43Z</time>
			</trkpt>
			<trkpt lat="43.021739" lon="-1.447921">
				<ele>1377</ele>
				<time>2018-04-28T10:01:46Z</time>
			</trkpt>
			<trkpt lat="43.021786" lon="-1.447866">
				<ele>1334</ele>
				<time>2018-04-28T10:01:50Z</time>
			</trkpt>
			<trkpt lat="43.021836" lon="-1.447835">
				<ele>1334</ele>
				<time>2018-04-28T10:01:53Z</time>
			</trkpt>
			<trkpt lat="43.021882" lon="-1.447785">
				<ele>1334</ele>
				<time>2018-04-28T10:01:56Z</time>
			</trkpt>
			<trkpt lat="43.021931" lon="-1.447744">
				<ele>1334</ele>
				<time>2018-04-28T10:01:59Z</time>
			</trkpt>
			<trkpt lat="43.021966" lon="-1.447694">
				<ele>1334</ele>
				<time>2018-04-28T10:02:02Z</time>
			</trkpt>
			<trkpt lat="43.022017" lon="-1.447693">
				<ele>1334</ele>
				<time>2018-04-28T10:02:05Z</time>
			</trkpt>
			<trkpt lat="43.022081" lon="-1.447711">
				<ele>1334</ele>
				<time>2018-04-28T10:02:08Z</time>
			</trkpt>
			<trkpt lat="43.022138" lon="-1.44771">
				<ele>1334</ele>
				<time>2018-04-28T10:02:11Z</time>
			</trkpt>
			<trkpt lat="43.022185" lon="-1.447718">
				<ele>1334</ele>
				<time>2018-04-28T10:02:13Z</time>
			</trkpt>
			<trkpt lat="43.02224" lon="-1.447713">
				<ele>1334</ele>
				<time>2018-04-28T10:02:16Z</time>
			</trkpt>
			<trkpt lat="43.022288" lon="-1.447722">
				<ele>1334</ele>
				<time>2018-04-28T10:02:21Z</time>
			</trkpt>
			<trkpt lat="43.022338" lon="-1.447724">
				<ele>1334</ele>
				<time>2018-04-28T10:02:25Z</time>
			</trkpt>
			<trkpt lat="43.022384" lon="-1.447733">
				<ele>1334</ele>
				<time>2018-04-28T10:02:29Z</time>
			</trkpt>
			<trkpt lat="43.022438" lon="-1.447741">
				<ele>1334</ele>
				<time>2018-04-28T10:02:32Z</time>
			</trkpt>
			<trkpt lat="43.022496" lon="-1.447749">
				<ele>1334</ele>
				<time>2018-04-28T10:02:36Z</time>
			</trkpt>
			<trkpt lat="43.022555" lon="-1.447745">
				<ele>1334</ele>
				<time>2018-04-28T10:02:40Z</time>
			</trkpt>
			<trkpt lat="43.022611" lon="-1.44776">
				<ele>1334</ele>
				<time>2018-04-28T10:02:43Z</time>
			</trkpt>
			<trkpt lat="43.022669" lon="-1.447766">
				<ele>1334</ele>
				<time>2018-04-28T10:02:46Z</time>
			</trkpt>
			<trkpt lat="43.022729" lon="-1.447754">
				<ele>1334</ele>
				<time>2018-04-28T10:02:49Z</time>
			</trkpt>
			<trkpt lat="43.022771" lon="-1.447779">
				<ele>1334</ele>
				<time>2018-04-28T10:02:52Z</time>
			</trkpt>
			<trkpt lat="43.022819" lon="-1.44776">
				<ele>1334</ele>
				<time>2018-04-28T10:02:54Z</time>
			</trkpt>
			<trkpt lat="43.022869" lon="-1.447765">
				<ele>1334</ele>
				<time>2018-04-28T10:02:56Z</time>
			</trkpt>
			<trkpt lat="43.022939" lon="-1.447762">
				<ele>1260</ele>
				<time>2018-04-28T10:02:59Z</time>
			</trkpt>
			<trkpt lat="43.022997" lon="-1.447762">
				<ele>1260</ele>
				<time>2018-04-28T10:03:02Z</time>
			</trkpt>
			<trkpt lat="43.023056" lon="-1.447762">
				<ele>1260</ele>
				<time>2018-04-28T10:03:06Z</time>
			</trkpt>
			<trkpt lat="43.023116" lon="-1.447767">
				<ele>1260</ele>
				<time>2018-04-28T10:03:10Z</time>
			</trkpt>
			<trkpt lat="43.023162" lon="-1.447804">
				<ele>1260</ele>
				<time>2018-04-28T10:03:13Z</time>
			</trkpt>
			<trkpt lat="43.023224" lon="-1.447812">
				<ele>1260</ele>
				<time>2018-04-28T10:03:16Z</time>
			</trkpt>
			<trkpt lat="43.02328" lon="-1.447778">
				<ele>1260</ele>
				<time>2018-04-28T10:03:20Z</time>
			</trkpt>
			<trkpt lat="43.023333" lon="-1.447762">
				<ele>1260</ele>
				<time>2018-04-28T10:03:23Z</time>
			</trkpt>
			<trkpt lat="43.023377" lon="-1.447781">
				<ele>1260</ele>
				<time>2018-04-28T10:03:25Z</time>
			</trkpt>
			<trkpt lat="43.023427" lon="-1.447786">
				<ele>1260</ele>
				<time>2018-04-28T10:03:27Z</time>
			</trkpt>
			<trkpt lat="43.023469" lon="-1.447766">
				<ele>1260</ele>
				<time>2018-04-28T10:03:29Z</time>
			</trkpt>
			<trkpt lat="43.023513" lon="-1.447748">
				<ele>1260</ele>
				<time>2018-04-28T10:03:31Z</time>
			</trkpt>
			<trkpt lat="43.02356" lon="-1.447737">
				<ele>1260</ele>
				<time>2018-04-28T10:03:33Z</time>
			</trkpt>
			<trkpt lat="43.023605" lon="-1.447717">
				<ele>1260</ele>
				<time>2018-04-28T10:03:35Z</time>
			</trkpt>
			<trkpt lat="43.023669" lon="-1.447697">
				<ele>1260</ele>
				<time>2018-04-28T10:03:38Z</time>
			</trkpt>
			<trkpt lat="43.023721" lon="-1.447659">
				<ele>1260</ele>
				<time>2018-04-28T10:03:41Z</time>
			</trkpt>
			<trkpt lat="43.02378" lon="-1.447647">
				<ele>1260</ele>
				<time>2018-04-28T10:03:44Z</time>
			</trkpt>
			<trkpt lat="43.023839" lon="-1.447644">
				<ele>1260</ele>
				<time>2018-04-28T10:03:47Z</time>
			</trkpt>
			<trkpt lat="43.023886" lon="-1.447627">
				<ele>1260</ele>
				<time>2018-04-28T10:03:49Z</time>
			</trkpt>
			<trkpt lat="43.023932" lon="-1.447625">
				<ele>1260</ele>
				<time>2018-04-28T10:03:51Z</time>
			</trkpt>
			<trkpt lat="43.023993" lon="-1.447601">
				<ele>1260</ele>
				<time>2018-04-28T10:03:54Z</time>
			</trkpt>
			<trkpt lat="43.024038" lon="-1.447564">
				<ele>1260</ele>
				<time>2018-04-28T10:03:56Z</time>
			</trkpt>
			<trkpt lat="43.024099" lon="-1.447533">
				<ele>1260</ele>
				<time>2018-04-28T10:03:59Z</time>
			</trkpt>
			<trkpt lat="43.024147" lon="-1.447519">
				<ele>1260</ele>
				<time>2018-04-28T10:04:01Z</time>
			</trkpt>
			<trkpt lat="43.024195" lon="-1.447504">
				<ele>1260</ele>
				<time>2018-04-28T10:04:03Z</time>
			</trkpt>
			<trkpt lat="43.024251" lon="-1.447491">
				<ele>1260</ele>
				<time>2018-04-28T10:04:06Z</time>
			</trkpt>
			<trkpt lat="43.024299" lon="-1.447487">
				<ele>1260</ele>
				<time>2018-04-28T10:04:08Z</time>
			</trkpt>
			<trkpt lat="43.024349" lon="-1.447457">
				<ele>1260</ele>
				<time>2018-04-28T10:04:11Z</time>
			</trkpt>
			<trkpt lat="43.02439" lon="-1.44743">
				<ele>1260</ele>
				<time>2018-04-28T10:04:14Z</time>
			</trkpt>
			<trkpt lat="43.024444" lon="-1.447398">
				<ele>1260</ele>
				<time>2018-04-28T10:04:17Z</time>
			</trkpt>
			<trkpt lat="43.024501" lon="-1.447371">
				<ele>1260</ele>
				<time>2018-04-28T10:04:20Z</time>
			</trkpt>
			<trkpt lat="43.024557" lon="-1.447364">
				<ele>1260</ele>
				<time>2018-04-28T10:04:23Z</time>
			</trkpt>
			<trkpt lat="43.024613" lon="-1.447324">
				<ele>1260</ele>
				<time>2018-04-28T10:04:26Z</time>
			</trkpt>
			<trkpt lat="43.024666" lon="-1.447306">
				<ele>1260</ele>
				<time>2018-04-28T10:04:29Z</time>
			</trkpt>
			<trkpt lat="43.024712" lon="-1.447294">
				<ele>1260</ele>
				<time>2018-04-28T10:04:31Z</time>
			</trkpt>
			<trkpt lat="43.024768" lon="-1.44728">
				<ele>1260</ele>
				<time>2018-04-28T10:04:34Z</time>
			</trkpt>
			<trkpt lat="43.024815" lon="-1.447251">
				<ele>1260</ele>
				<time>2018-04-28T10:04:36Z</time>
			</trkpt>
			<trkpt lat="43.02488" lon="-1.447244">
				<ele>1260</ele>
				<time>2018-04-28T10:04:39Z</time>
			</trkpt>
			<trkpt lat="43.024934" lon="-1.447216">
				<ele>1260</ele>
				<time>2018-04-28T10:04:42Z</time>
			</trkpt>
			<trkpt lat="43.024978" lon="-1.447184">
				<ele>1260</ele>
				<time>2018-04-28T10:04:45Z</time>
			</trkpt>
			<trkpt lat="43.025026" lon="-1.447183">
				<ele>1197</ele>
				<time>2018-04-28T10:04:48Z</time>
			</trkpt>
			<trkpt lat="43.025088" lon="-1.447164">
				<ele>1197</ele>
				<time>2018-04-28T10:04:51Z</time>
			</trkpt>
			<trkpt lat="43.025138" lon="-1.447154">
				<ele>1197</ele>
				<time>2018-04-28T10:04:54Z</time>
			</trkpt>
			<trkpt lat="43.025181" lon="-1.447127">
				<ele>1197</ele>
				<time>2018-04-28T10:04:56Z</time>
			</trkpt>
			<trkpt lat="43.025237" lon="-1.447105">
				<ele>1197</ele>
				<time>2018-04-28T10:04:59Z</time>
			</trkpt>
			<trkpt lat="43.025284" lon="-1.447138">
				<ele>1197</ele>
				<time>2018-04-28T10:05:01Z</time>
			</trkpt>
			<trkpt lat="43.025326" lon="-1.447164">
				<ele>1197</ele>
				<time>2018-04-28T10:05:03Z</time>
			</trkpt>
			<trkpt lat="43.025376" lon="-1.447153">
				<ele>1197</ele>
				<time>2018-04-28T10:05:05Z</time>
			</trkpt>
			<trkpt lat="43.025433" lon="-1.447174">
				<ele>1197</ele>
				<time>2018-04-28T10:05:07Z</time>
			</trkpt>
			<trkpt lat="43.025485" lon="-1.447177">
				<ele>1197</ele>
				<time>2018-04-28T10:05:09Z</time>
			</trkpt>
			<trkpt lat="43.02553" lon="-1.447174">
				<ele>1197</ele>
				<time>2018-04-28T10:05:11Z</time>
			</trkpt>
			<trkpt lat="43.025583" lon="-1.447161">
				<ele>1197</ele>
				<time>2018-04-28T10:05:13Z</time>
			</trkpt>
			<trkpt lat="43.025631" lon="-1.447149">
				<ele>1197</ele>
				<time>2018-04-28T10:05:15Z</time>
			</trkpt>
			<trkpt lat="43.025682" lon="-1.447123">
				<ele>1197</ele>
				<time>2018-04-28T10:05:17Z</time>
			</trkpt>
			<trkpt lat="43.025739" lon="-1.447125">
				<ele>1197</ele>
				<time>2018-04-28T10:05:19Z</time>
			</trkpt>
			<trkpt lat="43.025806" lon="-1.447107">
				<ele>1197</ele>
				<time>2018-04-28T10:05:22Z</time>
			</trkpt>
			<trkpt lat="43.025856" lon="-1.447139">
				<ele>1197</ele>
				<time>2018-04-28T10:05:24Z</time>
			</trkpt>
			<trkpt lat="43.025905" lon="-1.447149">
				<ele>1197</ele>
				<time>2018-04-28T10:05:26Z</time>
			</trkpt>
			<trkpt lat="43.025954" lon="-1.447141">
				<ele>1197</ele>
				<time>2018-04-28T10:05:28Z</time>
			</trkpt>
			<trkpt lat="43.026007" lon="-1.447134">
				<ele>1197</ele>
				<time>2018-04-28T10:05:30Z</time>
			</trkpt>
			<trkpt lat="43.026062" lon="-1.447122">
				<ele>1197</ele>
				<time>2018-04-28T10:05:32Z</time>
			</trkpt>
			<trkpt lat="43.026122" lon="-1.447115">
				<ele>1197</ele>
				<time>2018-04-28T10:05:34Z</time>
			</trkpt>
			<trkpt lat="43.026173" lon="-1.447109">
				<ele>1197</ele>
				<time>2018-04-28T10:05:36Z</time>
			</trkpt>
			<trkpt lat="43.02625" lon="-1.447084">
				<ele>1197</ele>
				<time>2018-04-28T10:05:38Z</time>
			</trkpt>
			<trkpt lat="43.026317" lon="-1.447073">
				<ele>1197</ele>
				<time>2018-04-28T10:05:40Z</time>
			</trkpt>
			<trkpt lat="43.026382" lon="-1.447062">
				<ele>1197</ele>
				<time>2018-04-28T10:05:42Z</time>
			</trkpt>
			<trkpt lat="43.026456" lon="-1.447046">
				<ele>1197</ele>
				<time>2018-04-28T10:05:44Z</time>
			</trkpt>
			<trkpt lat="43.026523" lon="-1.447018">
				<ele>1197</ele>
				<time>2018-04-28T10:05:46Z</time>
			</trkpt>
			<trkpt lat="43.0266" lon="-1.447011">
				<ele>1197</ele>
				<time>2018-04-28T10:05:48Z</time>
			</trkpt>
			<trkpt lat="43.026666" lon="-1.446992">
				<ele>1197</ele>
				<time>2018-04-28T10:05:50Z</time>
			</trkpt>
			<trkpt lat="43.026738" lon="-1.446973">
				<ele>1197</ele>
				<time>2018-04-28T10:05:52Z</time>
			</trkpt>
			<trkpt lat="43.026798" lon="-1.446949">
				<ele>1197</ele>
				<time>2018-04-28T10:05:54Z</time>
			</trkpt>
			<trkpt lat="43.026875" lon="-1.446925">
				<ele>1197</ele>
				<time>2018-04-28T10:05:56Z</time>
			</trkpt>
			<trkpt lat="43.026954" lon="-1.446905">
				<ele>1197</ele>
				<time>2018-04-28T10:05:58Z</time>
			</trkpt>
			<trkpt lat="43.027022" lon="-1.44689">
				<ele>1197</ele>
				<time>2018-04-28T10:06:00Z</time>
			</trkpt>
			<trkpt lat="43.027045" lon="-1.44687">
				<ele>1197</ele>
				<time>2011-04-09T12:12:23Z</time>
			</trkpt>
			<trkpt lat="43.027056" lon="-1.446868">
				<ele>1197</ele>
				<time>2011-04-09T12:12:24Z</time>
			</trkpt>
			<trkpt lat="43.027099" lon="-1.446864">
				<ele>1183</ele>
				<time>2011-04-09T12:12:28Z</time>
			</trkpt>
			<trkpt lat="43.02711" lon="-1.446862">
				<ele>1183</ele>
				<time>2011-04-09T12:12:29Z</time>
			</trkpt>
			<trkpt lat="43.027119" lon="-1.44686">
				<ele>1183</ele>
				<time>2011-04-09T12:12:30Z</time>
			</trkpt>
			<trkpt lat="43.027157" lon="-1.44686">
				<ele>1183</ele>
				<time>2011-04-09T12:12:34Z</time>
			</trkpt>
			<trkpt lat="43.027165" lon="-1.446858">
				<ele>1183</ele>
				<time>2011-04-09T12:12:35Z</time>
			</trkpt>
			<trkpt lat="43.027184" lon="-1.446854">
				<ele>1183</ele>
				<time>2011-04-09T12:12:38Z</time>
			</trkpt>
			<trkpt lat="43.02719" lon="-1.446854">
				<ele>1183</ele>
				<time>2011-04-09T12:12:39Z</time>
			</trkpt>
			<trkpt lat="43.027197" lon="-1.446854">
				<ele>1183</ele>
				<time>2011-04-09T12:12:40Z</time>
			</trkpt>
			<trkpt lat="43.027246" lon="-1.446853">
				<ele>1183</ele>
				<time>2011-04-09T12:12:48Z</time>
			</trkpt>
			<trkpt lat="43.027258" lon="-1.446851">
				<ele>1183</ele>
				<time>2011-04-09T12:12:50Z</time>
			</trkpt>
			<trkpt lat="43.027275" lon="-1.446849">
				<ele>1183</ele>
				<time>2011-04-09T12:12:53Z</time>
			</trkpt>
			<trkpt lat="43.027281" lon="-1.44685">
				<ele>1183</ele>
				<time>2011-04-09T12:12:54Z</time>
			</trkpt>
			<trkpt lat="43.027288" lon="-1.44685">
				<ele>1183</ele>
				<time>2011-04-09T12:12:55Z</time>
			</trkpt>
			<trkpt lat="43.027343" lon="-1.446847">
				<ele>1183</ele>
				<time>2011-04-09T12:13:03Z</time>
			</trkpt>
			<trkpt lat="43.027348" lon="-1.44684">
				<ele>1183</ele>
				<time>2011-04-09T12:13:04Z</time>
			</trkpt>
			<trkpt lat="43.027411" lon="-1.446837">
				<ele>1183</ele>
				<time>2011-04-09T12:13:14Z</time>
			</trkpt>
			<trkpt lat="43.027447" lon="-1.446813">
				<ele>1183</ele>
				<time>2011-04-09T12:13:31Z</time>
			</trkpt>
			<trkpt lat="43.027527" lon="-1.446845">
				<ele>1183</ele>
				<time>2011-04-09T12:13:43Z</time>
			</trkpt>
			<trkpt lat="43.027596" lon="-1.446881">
				<ele>1183</ele>
				<time>2011-04-09T12:13:54Z</time>
			</trkpt>
			<trkpt lat="43.0277" lon="-1.447017">
				<ele>1183</ele>
				<time>2011-04-09T12:14:07Z</time>
			</trkpt>
			<trkpt lat="43.02778" lon="-1.447096">
				<ele>1183</ele>
				<time>2011-04-09T12:14:16Z</time>
			</trkpt>
			<trkpt lat="43.027822" lon="-1.447128">
				<ele>1183</ele>
				<time>2011-04-09T12:14:20Z</time>
			</trkpt>
			<trkpt lat="43.027903" lon="-1.447178">
				<ele>1183</ele>
				<time>2011-04-09T12:14:26Z</time>
			</trkpt>
			<trkpt lat="43.027931" lon="-1.447189">
				<ele>1183</ele>
				<time>2011-04-09T12:14:27Z</time>
			</trkpt>
			<trkpt lat="43.027936" lon="-1.447197">
				<ele>1183</ele>
				<time>2011-04-09T12:14:28Z</time>
			</trkpt>
			<trkpt lat="43.027997" lon="-1.447248">
				<ele>1183</ele>
				<time>2011-04-09T12:14:36Z</time>
			</trkpt>
			<trkpt lat="43.028042" lon="-1.447277">
				<ele>1183</ele>
				<time>2011-04-09T12:14:39Z</time>
			</trkpt>
			<trkpt lat="43.028301" lon="-1.447405">
				<ele>1183</ele>
				<time>2011-04-09T12:14:53Z</time>
			</trkpt>
			<trkpt lat="43.028444" lon="-1.44755">
				<ele>1183</ele>
				<time>2011-04-09T12:15:07Z</time>
			</trkpt>
			<trkpt lat="43.028542" lon="-1.447597">
				<ele>1183</ele>
				<time>2011-04-09T12:15:21Z</time>
			</trkpt>
			<trkpt lat="43.028662" lon="-1.447712">
				<ele>1183</ele>
				<time>2011-04-09T12:15:32Z</time>
			</trkpt>
			<trkpt lat="43.028851" lon="-1.447889">
				<ele>1183</ele>
				<time>2011-04-09T12:15:45Z</time>
			</trkpt>
			<trkpt lat="43.028999" lon="-1.448037">
				<ele>1161</ele>
				<time>2011-04-09T12:15:57Z</time>
			</trkpt>
			<trkpt lat="43.029055" lon="-1.448104">
				<ele>1161</ele>
				<time>2011-04-09T12:16:04Z</time>
			</trkpt>
			<trkpt lat="43.02915" lon="-1.448194">
				<ele>1161</ele>
				<time>2011-04-09T12:16:15Z</time>
			</trkpt>
			<trkpt lat="43.029237" lon="-1.448268">
				<ele>1143</ele>
				<time>2011-04-09T12:16:23Z</time>
			</trkpt>
			<trkpt lat="43.029385" lon="-1.448424">
				<ele>1143</ele>
				<time>2011-04-09T12:16:36Z</time>
			</trkpt>
			<trkpt lat="43.029393" lon="-1.448431">
				<ele>1143</ele>
				<time>2011-04-09T12:16:37Z</time>
			</trkpt>
			<trkpt lat="43.029454" lon="-1.448486">
				<ele>1143</ele>
				<time>2011-04-09T12:16:44Z</time>
			</trkpt>
			<trkpt lat="43.029456" lon="-1.448491">
				<ele>1143</ele>
				<time>2011-04-09T12:16:45Z</time>
			</trkpt>
			<trkpt lat="43.029586" lon="-1.448575">
				<ele>1143</ele>
				<time>2011-04-09T12:16:56Z</time>
			</trkpt>
			<trkpt lat="43.029697" lon="-1.448654">
				<ele>1143</ele>
				<time>2011-04-09T12:17:07Z</time>
			</trkpt>
			<trkpt lat="43.029794" lon="-1.448737">
				<ele>1143</ele>
				<time>2011-04-09T12:17:18Z</time>
			</trkpt>
			<trkpt lat="43.029864" lon="-1.448737">
				<ele>1143</ele>
				<time>2011-04-09T12:17:24Z</time>
			</trkpt>
			<trkpt lat="43.02994" lon="-1.448788">
				<ele>1143</ele>
				<time>2011-04-09T12:17:39Z</time>
			</trkpt>
			<trkpt lat="43.030017" lon="-1.44882">
				<ele>1143</ele>
				<time>2011-04-09T12:17:45Z</time>
			</trkpt>
			<trkpt lat="43.030108" lon="-1.448916">
				<ele>1143</ele>
				<time>2011-04-09T12:17:56Z</time>
			</trkpt>
			<trkpt lat="43.030194" lon="-1.448981">
				<ele>1143</ele>
				<time>2011-04-09T12:18:03Z</time>
			</trkpt>
			<trkpt lat="43.030263" lon="-1.449063">
				<ele>1143</ele>
				<time>2011-04-09T12:18:14Z</time>
			</trkpt>
			<trkpt lat="43.030275" lon="-1.449096">
				<ele>1143</ele>
				<time>2011-04-09T12:18:19Z</time>
			</trkpt>
			<trkpt lat="43.030315" lon="-1.449256">
				<ele>1143</ele>
				<time>2011-04-09T12:18:30Z</time>
			</trkpt>
			<trkpt lat="43.030337" lon="-1.449303">
				<ele>1143</ele>
				<time>2011-04-09T12:18:34Z</time>
			</trkpt>
			<trkpt lat="43.030427" lon="-1.449498">
				<ele>1143</ele>
				<time>2011-04-09T12:18:46Z</time>
			</trkpt>
			<trkpt lat="43.03043" lon="-1.449514">
				<ele>1143</ele>
				<time>2011-04-09T12:18:47Z</time>
			</trkpt>
			<trkpt lat="43.030438" lon="-1.449562">
				<ele>1143</ele>
				<time>2011-04-09T12:18:50Z</time>
			</trkpt>
			<trkpt lat="43.03044" lon="-1.449566">
				<ele>1143</ele>
				<time>2011-04-09T12:18:54Z</time>
			</trkpt>
			<trkpt lat="43.030461" lon="-1.449598">
				<ele>1143</ele>
				<time>2011-04-09T12:18:56Z</time>
			</trkpt>
			<trkpt lat="43.030521" lon="-1.449723">
				<ele>1143</ele>
				<time>2011-04-09T12:19:05Z</time>
			</trkpt>
			<trkpt lat="43.030534" lon="-1.44975">
				<ele>1143</ele>
				<time>2011-04-09T12:19:07Z</time>
			</trkpt>
			<trkpt lat="43.030554" lon="-1.449788">
				<ele>1143</ele>
				<time>2011-04-09T12:19:10Z</time>
			</trkpt>
			<trkpt lat="43.030658" lon="-1.449939">
				<ele>1143</ele>
				<time>2011-04-09T12:19:22Z</time>
			</trkpt>
			<trkpt lat="43.030704" lon="-1.450013">
				<ele>1116</ele>
				<time>2011-04-09T12:19:29Z</time>
			</trkpt>
			<trkpt lat="43.030758" lon="-1.450087">
				<ele>1116</ele>
				<time>2011-04-09T12:19:36Z</time>
			</trkpt>
			<trkpt lat="43.030889" lon="-1.45019">
				<ele>1116</ele>
				<time>2011-04-09T12:19:46Z</time>
			</trkpt>
			<trkpt lat="43.03095" lon="-1.450283">
				<ele>1116</ele>
				<time>2011-04-09T12:19:54Z</time>
			</trkpt>
			<trkpt lat="43.031067" lon="-1.450433">
				<ele>1116</ele>
				<time>2011-04-09T12:20:09Z</time>
			</trkpt>
			<trkpt lat="43.031194" lon="-1.450614">
				<ele>1116</ele>
				<time>2011-04-09T12:20:25Z</time>
			</trkpt>
			<trkpt lat="43.031236" lon="-1.450783">
				<ele>1116</ele>
				<time>2011-04-09T12:20:43Z</time>
			</trkpt>
			<trkpt lat="43.031318" lon="-1.450988">
				<ele>1096</ele>
				<time>2011-04-09T12:21:00Z</time>
			</trkpt>
			<trkpt lat="43.031313" lon="-1.450984">
				<ele>1096</ele>
				<time>2011-04-09T12:21:22Z</time>
			</trkpt>
			<trkpt lat="43.031324" lon="-1.451004">
				<ele>1096</ele>
				<time>2011-04-09T12:21:32Z</time>
			</trkpt>
			<trkpt lat="43.031336" lon="-1.451024">
				<ele>1096</ele>
				<time>2011-04-09T12:21:42Z</time>
			</trkpt>
			<trkpt lat="43.031352" lon="-1.451039">
				<ele>1096</ele>
				<time>2011-04-09T12:21:52Z</time>
			</trkpt>
			<trkpt lat="43.031368" lon="-1.451051">
				<ele>1096</ele>
				<time>2011-04-09T12:22:02Z</time>
			</trkpt>
			<trkpt lat="43.031382" lon="-1.451066">
				<ele>1096</ele>
				<time>2011-04-09T12:22:12Z</time>
			</trkpt>
			<trkpt lat="43.031397" lon="-1.451081">
				<ele>1096</ele>
				<time>2011-04-09T12:22:21Z</time>
			</trkpt>
			<trkpt lat="43.031409" lon="-1.451103">
				<ele>1096</ele>
				<time>2011-04-09T12:22:32Z</time>
			</trkpt>
			<trkpt lat="43.03142" lon="-1.451123">
				<ele>1096</ele>
				<time>2011-04-09T12:22:42Z</time>
			</trkpt>
			<trkpt lat="43.031434" lon="-1.45114">
				<ele>1096</ele>
				<time>2011-04-09T12:22:52Z</time>
			</trkpt>
			<trkpt lat="43.031448" lon="-1.45116">
				<ele>1096</ele>
				<time>2011-04-09T12:23:03Z</time>
			</trkpt>
			<trkpt lat="43.031466" lon="-1.45118">
				<ele>1096</ele>
				<time>2011-04-09T12:23:15Z</time>
			</trkpt>
			<trkpt lat="43.031482" lon="-1.451198">
				<ele>1096</ele>
				<time>2011-04-09T12:23:26Z</time>
			</trkpt>
			<trkpt lat="43.031498" lon="-1.45121">
				<ele>1096</ele>
				<time>2011-04-09T12:23:36Z</time>
			</trkpt>
			<trkpt lat="43.031512" lon="-1.451225">
				<ele>1096</ele>
				<time>2011-04-09T12:23:46Z</time>
			</trkpt>
			<trkpt lat="43.031526" lon="-1.451242">
				<ele>1096</ele>
				<time>2011-04-09T12:23:56Z</time>
			</trkpt>
			<trkpt lat="43.031546" lon="-1.451265">
				<ele>1096</ele>
				<time>2011-04-09T12:24:10Z</time>
			</trkpt>
			<trkpt lat="43.031557" lon="-1.451287">
				<ele>1096</ele>
				<time>2011-04-09T12:24:20Z</time>
			</trkpt>
			<trkpt lat="43.031569" lon="-1.451307">
				<ele>1096</ele>
				<time>2011-04-09T12:24:30Z</time>
			</trkpt>
			<trkpt lat="43.031581" lon="-1.451327">
				<ele>1096</ele>
				<time>2011-04-09T12:24:40Z</time>
			</trkpt>
			<trkpt lat="43.031594" lon="-1.451346">
				<ele>1096</ele>
				<time>2011-04-09T12:24:51Z</time>
			</trkpt>
			<trkpt lat="43.031604" lon="-1.451366">
				<ele>1096</ele>
				<time>2011-04-09T12:25:00Z</time>
			</trkpt>
			<trkpt lat="43.031619" lon="-1.451384">
				<ele>1096</ele>
				<time>2011-04-09T12:25:10Z</time>
			</trkpt>
			<trkpt lat="43.031619" lon="-1.451384">
				<ele>1096</ele>
				<time>2011-04-09T12:25:10Z</time>
			</trkpt>
			<trkpt lat="43.031616" lon="-1.451379">
				<ele>1096</ele>
				<time>2011-04-09T12:25:38Z</time>
			</trkpt>
			<trkpt lat="43.031765" lon="-1.451645">
				<ele>1096</ele>
				<time>2011-04-09T12:25:59Z</time>
			</trkpt>
			<trkpt lat="43.031848" lon="-1.451749">
				<ele>1096</ele>
				<time>2011-04-09T12:26:12Z</time>
			</trkpt>
			<trkpt lat="43.031876" lon="-1.451818">
				<ele>1096</ele>
				<time>2011-04-09T12:26:23Z</time>
			</trkpt>
			<trkpt lat="43.031957" lon="-1.451942">
				<ele>1096</ele>
				<time>2011-04-09T12:26:39Z</time>
			</trkpt>
			<trkpt lat="43.032033" lon="-1.452055">
				<ele>1096</ele>
				<time>2011-04-09T12:26:52Z</time>
			</trkpt>
			<trkpt lat="43.032096" lon="-1.452125">
				<ele>1118</ele>
				<time>2011-04-09T12:27:01Z</time>
			</trkpt>
			<trkpt lat="43.032216" lon="-1.452192">
				<ele>1118</ele>
				<time>2011-04-09T12:27:15Z</time>
			</trkpt>
			<trkpt lat="43.03235" lon="-1.452214">
				<ele>1118</ele>
				<time>2011-04-09T12:27:40Z</time>
			</trkpt>
			<trkpt lat="43.032488" lon="-1.452216">
				<ele>1118</ele>
				<time>2011-04-09T12:27:53Z</time>
			</trkpt>
			<trkpt lat="43.032682" lon="-1.452231">
				<ele>1118</ele>
				<time>2011-04-09T12:28:12Z</time>
			</trkpt>
			<trkpt lat="43.032697" lon="-1.452233">
				<ele>1118</ele>
				<time>2011-04-09T12:28:13Z</time>
			</trkpt>
			<trkpt lat="43.032802" lon="-1.452182">
				<ele>1118</ele>
				<time>2011-04-09T12:28:23Z</time>
			</trkpt>
			<trkpt lat="43.032832" lon="-1.452102">
				<ele>1118</ele>
				<time>2011-04-09T12:28:37Z</time>
			</trkpt>
			<trkpt lat="43.03295" lon="-1.452119">
				<ele>1118</ele>
				<time>2011-04-09T12:28:53Z</time>
			</trkpt>
			<trkpt lat="43.033059" lon="-1.452216">
				<ele>1118</ele>
				<time>2011-04-09T12:29:08Z</time>
			</trkpt>
			<trkpt lat="43.033131" lon="-1.452335">
				<ele>1118</ele>
				<time>2011-04-09T12:29:24Z</time>
			</trkpt>
			<trkpt lat="43.033177" lon="-1.452425">
				<ele>1118</ele>
				<time>2011-04-09T12:29:39Z</time>
			</trkpt>
			<trkpt lat="43.033214" lon="-1.452553">
				<ele>1118</ele>
				<time>2011-04-09T12:29:50Z</time>
			</trkpt>
			<trkpt lat="43.033253" lon="-1.452758">
				<ele>1118</ele>
				<time>2011-04-09T12:30:10Z</time>
			</trkpt>
			<trkpt lat="43.033314" lon="-1.452879">
				<ele>1118</ele>
				<time>2011-04-09T12:30:20Z</time>
			</trkpt>
			<trkpt lat="43.033346" lon="-1.452926">
				<ele>1047</ele>
				<time>2011-04-09T12:30:25Z</time>
			</trkpt>
			<trkpt lat="43.03345" lon="-1.452978">
				<ele>1047</ele>
				<time>2011-04-09T12:30:37Z</time>
			</trkpt>
			<trkpt lat="43.033479" lon="-1.453045">
				<ele>1047</ele>
				<time>2011-04-09T12:30:44Z</time>
			</trkpt>
			<trkpt lat="43.033487" lon="-1.453187">
				<ele>1047</ele>
				<time>2011-04-09T12:30:56Z</time>
			</trkpt>
			<trkpt lat="43.033511" lon="-1.453205">
				<ele>1047</ele>
				<time>2011-04-09T12:30:59Z</time>
			</trkpt>
			<trkpt lat="43.033548" lon="-1.453394">
				<ele>1047</ele>
				<time>2011-04-09T12:31:13Z</time>
			</trkpt>
			<trkpt lat="43.033555" lon="-1.45342">
				<ele>1047</ele>
				<time>2011-04-09T12:31:21Z</time>
			</trkpt>
			<trkpt lat="43.033553" lon="-1.45352">
				<ele>1047</ele>
				<time>2011-04-09T12:31:27Z</time>
			</trkpt>
			<trkpt lat="43.03353" lon="-1.453585">
				<ele>1047</ele>
				<time>2011-04-09T12:31:31Z</time>
			</trkpt>
			<trkpt lat="43.03356" lon="-1.453715">
				<ele>1047</ele>
				<time>2011-04-09T12:31:46Z</time>
			</trkpt>
			<trkpt lat="43.033598" lon="-1.45392">
				<ele>1047</ele>
				<time>2011-04-09T12:32:00Z</time>
			</trkpt>
			<trkpt lat="43.033624" lon="-1.454098">
				<ele>1047</ele>
				<time>2011-04-09T12:32:14Z</time>
			</trkpt>
			<trkpt lat="43.033716" lon="-1.454256">
				<ele>1051</ele>
				<time>2011-04-09T12:32:36Z</time>
			</trkpt>
			<trkpt lat="43.033734" lon="-1.454275">
				<ele>1051</ele>
				<time>2011-04-09T12:32:42Z</time>
			</trkpt>
			<trkpt lat="43.033778" lon="-1.45434">
				<ele>1051</ele>
				<time>2011-04-09T12:32:49Z</time>
			</trkpt>
			<trkpt lat="43.033847" lon="-1.454491">
				<ele>1051</ele>
				<time>2011-04-09T12:33:00Z</time>
			</trkpt>
			<trkpt lat="43.033904" lon="-1.454746">
				<ele>1051</ele>
				<time>2011-04-09T12:33:14Z</time>
			</trkpt>
			<trkpt lat="43.033927" lon="-1.454974">
				<ele>1051</ele>
				<time>2011-04-09T12:33:26Z</time>
			</trkpt>
			<trkpt lat="43.033938" lon="-1.455058">
				<ele>1051</ele>
				<time>2011-04-09T12:33:37Z</time>
			</trkpt>
			<trkpt lat="43.033934" lon="-1.455349">
				<ele>1051</ele>
				<time>2011-04-09T12:33:54Z</time>
			</trkpt>
			<trkpt lat="43.033919" lon="-1.455389">
				<ele>1051</ele>
				<time>2011-04-09T12:33:57Z</time>
			</trkpt>
			<trkpt lat="43.033907" lon="-1.455501">
				<ele>1051</ele>
				<time>2011-04-09T12:34:03Z</time>
			</trkpt>
			<trkpt lat="43.033952" lon="-1.455813">
				<ele>1051</ele>
				<time>2011-04-09T12:34:20Z</time>
			</trkpt>
			<trkpt lat="43.033975" lon="-1.456013">
				<ele>1051</ele>
				<time>2011-04-09T12:34:31Z</time>
			</trkpt>
			<trkpt lat="43.034006" lon="-1.456331">
				<ele>1055</ele>
				<time>2011-04-09T12:34:47Z</time>
			</trkpt>
			<trkpt lat="43.034027" lon="-1.456715">
				<ele>1055</ele>
				<time>2011-04-09T12:35:08Z</time>
			</trkpt>
			<trkpt lat="43.034018" lon="-1.456911">
				<ele>1055</ele>
				<time>2011-04-09T12:35:23Z</time>
			</trkpt>
			<trkpt lat="43.034001" lon="-1.457011">
				<ele>1055</ele>
				<time>2011-04-09T12:35:37Z</time>
			</trkpt>
			<trkpt lat="43.033993" lon="-1.457161">
				<ele>1055</ele>
				<time>2011-04-09T12:35:50Z</time>
			</trkpt>
			<trkpt lat="43.034043" lon="-1.457313">
				<ele>1055</ele>
				<time>2011-04-09T12:36:04Z</time>
			</trkpt>
			<trkpt lat="43.03415" lon="-1.4575">
				<ele>1055</ele>
				<time>2011-04-09T12:36:18Z</time>
			</trkpt>
			<trkpt lat="43.034216" lon="-1.457658">
				<ele>1055</ele>
				<time>2011-04-09T12:36:31Z</time>
			</trkpt>
			<trkpt lat="43.034305" lon="-1.457814">
				<ele>1055</ele>
				<time>2011-04-09T12:36:46Z</time>
			</trkpt>
			<trkpt lat="43.034343" lon="-1.457859">
				<ele>1055</ele>
				<time>2011-04-09T12:36:51Z</time>
			</trkpt>
			<trkpt lat="43.034419" lon="-1.458049">
				<ele>1055</ele>
				<time>2011-04-09T12:37:03Z</time>
			</trkpt>
			<trkpt lat="43.034501" lon="-1.458288">
				<ele>1055</ele>
				<time>2011-04-09T12:37:17Z</time>
			</trkpt>
			<trkpt lat="43.034523" lon="-1.458475">
				<ele>1063</ele>
				<time>2011-04-09T12:37:31Z</time>
			</trkpt>
			<trkpt lat="43.034541" lon="-1.458698">
				<ele>1063</ele>
				<time>2011-04-09T12:37:44Z</time>
			</trkpt>
			<trkpt lat="43.034569" lon="-1.458844">
				<ele>1063</ele>
				<time>2011-04-09T12:37:55Z</time>
			</trkpt>
			<trkpt lat="43.034571" lon="-1.459035">
				<ele>1063</ele>
				<time>2011-04-09T12:38:06Z</time>
			</trkpt>
			<trkpt lat="43.034616" lon="-1.459137">
				<ele>1063</ele>
				<time>2011-04-09T12:38:15Z</time>
			</trkpt>
			<trkpt lat="43.034655" lon="-1.459244">
				<ele>1063</ele>
				<time>2011-04-09T12:38:24Z</time>
			</trkpt>
			<trkpt lat="43.034702" lon="-1.459338">
				<ele>1063</ele>
				<time>2011-04-09T12:38:36Z</time>
			</trkpt>
			<trkpt lat="43.034731" lon="-1.459458">
				<ele>1063</ele>
				<time>2011-04-09T12:38:48Z</time>
			</trkpt>
			<trkpt lat="43.03474" lon="-1.45952">
				<ele>1063</ele>
				<time>2011-04-09T12:39:02Z</time>
			</trkpt>
			<trkpt lat="43.034726" lon="-1.459528">
				<ele>1063</ele>
				<time>2011-04-09T12:39:13Z</time>
			</trkpt>
			<trkpt lat="43.034717" lon="-1.459591">
				<ele>1063</ele>
				<time>2011-04-09T12:39:18Z</time>
			</trkpt>
			<trkpt lat="43.034696" lon="-1.459644">
				<ele>1063</ele>
				<time>2011-04-09T12:39:22Z</time>
			</trkpt>
			<trkpt lat="43.034677" lon="-1.459717">
				<ele>1063</ele>
				<time>2011-04-09T12:39:40Z</time>
			</trkpt>
			<trkpt lat="43.034669" lon="-1.459848">
				<ele>1063</ele>
				<time>2011-04-09T12:39:54Z</time>
			</trkpt>
			<trkpt lat="43.034609" lon="-1.460124">
				<ele>1063</ele>
				<time>2011-04-09T12:40:14Z</time>
			</trkpt>
			<trkpt lat="43.034561" lon="-1.460228">
				<ele>1063</ele>
				<time>2011-04-09T12:40:29Z</time>
			</trkpt>
			<trkpt lat="43.034531" lon="-1.460379">
				<ele>1063</ele>
				<time>2011-04-09T12:40:45Z</time>
			</trkpt>
			<trkpt lat="43.034519" lon="-1.460529">
				<ele>1061</ele>
				<time>2011-04-09T12:41:02Z</time>
			</trkpt>
			<trkpt lat="43.034486" lon="-1.460618">
				<ele>1061</ele>
				<time>2011-04-09T12:41:16Z</time>
			</trkpt>
			<trkpt lat="43.034493" lon="-1.460748">
				<ele>1061</ele>
				<time>2011-04-09T12:41:29Z</time>
			</trkpt>
			<trkpt lat="43.034485" lon="-1.460837">
				<ele>1061</ele>
				<time>2011-04-09T12:41:36Z</time>
			</trkpt>
			<trkpt lat="43.03453" lon="-1.460949">
				<ele>1061</ele>
				<time>2011-04-09T12:41:46Z</time>
			</trkpt>
			<trkpt lat="43.034534" lon="-1.460959">
				<ele>1061</ele>
				<time>2011-04-09T12:41:47Z</time>
			</trkpt>
			<trkpt lat="43.034517" lon="-1.461053">
				<ele>1061</ele>
				<time>2011-04-09T12:42:00Z</time>
			</trkpt>
			<trkpt lat="43.034511" lon="-1.461152">
				<ele>1061</ele>
				<time>2011-04-09T12:42:09Z</time>
			</trkpt>
			<trkpt lat="43.034515" lon="-1.4612">
				<ele>1061</ele>
				<time>2011-04-09T12:42:14Z</time>
			</trkpt>
			<trkpt lat="43.03452" lon="-1.461268">
				<ele>1061</ele>
				<time>2011-04-09T12:42:19Z</time>
			</trkpt>
			<trkpt lat="43.034505" lon="-1.461315">
				<ele>1061</ele>
				<time>2011-04-09T12:42:22Z</time>
			</trkpt>
			<trkpt lat="43.034509" lon="-1.461412">
				<ele>1061</ele>
				<time>2011-04-09T12:42:31Z</time>
			</trkpt>
			<trkpt lat="43.034517" lon="-1.461498">
				<ele>1061</ele>
				<time>2011-04-09T12:42:38Z</time>
			</trkpt>
			<trkpt lat="43.034518" lon="-1.461518">
				<ele>1061</ele>
				<time>2011-04-09T12:42:40Z</time>
			</trkpt>
			<trkpt lat="43.03456" lon="-1.461661">
				<ele>1061</ele>
				<time>2011-04-09T12:42:52Z</time>
			</trkpt>
			<trkpt lat="43.034601" lon="-1.461855">
				<ele>1061</ele>
				<time>2011-04-09T12:43:07Z</time>
			</trkpt>
			<trkpt lat="43.034677" lon="-1.461995">
				<ele>1061</ele>
				<time>2011-04-09T12:43:22Z</time>
			</trkpt>
			<trkpt lat="43.034787" lon="-1.462113">
				<ele>1061</ele>
				<time>2011-04-09T12:43:40Z</time>
			</trkpt>
			<trkpt lat="43.034826" lon="-1.462241">
				<ele>1061</ele>
				<time>2011-04-09T12:43:51Z</time>
			</trkpt>
			<trkpt lat="43.034857" lon="-1.462293">
				<ele>1061</ele>
				<time>2011-04-09T12:43:55Z</time>
			</trkpt>
			<trkpt lat="43.034987" lon="-1.462329">
				<ele>1061</ele>
				<time>2011-04-09T12:44:04Z</time>
			</trkpt>
			<trkpt lat="43.035049" lon="-1.462408">
				<ele>1061</ele>
				<time>2011-04-09T12:44:15Z</time>
			</trkpt>
			<trkpt lat="43.035142" lon="-1.462481">
				<ele>1061</ele>
				<time>2011-04-09T12:44:28Z</time>
			</trkpt>
			<trkpt lat="43.035162" lon="-1.462501">
				<ele>1019</ele>
				<time>2011-04-09T12:44:30Z</time>
			</trkpt>
			<trkpt lat="43.035186" lon="-1.462517">
				<ele>1019</ele>
				<time>2011-04-09T12:44:32Z</time>
			</trkpt>
			<trkpt lat="43.035229" lon="-1.462574">
				<ele>1019</ele>
				<time>2011-04-09T12:44:37Z</time>
			</trkpt>
			<trkpt lat="43.035261" lon="-1.462636">
				<ele>1019</ele>
				<time>2011-04-09T12:44:41Z</time>
			</trkpt>
			<trkpt lat="43.03538" lon="-1.462754">
				<ele>1019</ele>
				<time>2011-04-09T12:44:51Z</time>
			</trkpt>
			<trkpt lat="43.03543" lon="-1.462811">
				<ele>1009</ele>
				<time>2011-04-09T12:45:00Z</time>
			</trkpt>
			<trkpt lat="43.035472" lon="-1.46287">
				<ele>1009</ele>
				<time>2011-04-09T12:45:05Z</time>
			</trkpt>
			<trkpt lat="43.035509" lon="-1.463002">
				<ele>1009</ele>
				<time>2011-04-09T12:45:19Z</time>
			</trkpt>
			<trkpt lat="43.035556" lon="-1.463086">
				<ele>1009</ele>
				<time>2011-04-09T12:45:32Z</time>
			</trkpt>
			<trkpt lat="43.035545" lon="-1.463127">
				<ele>1009</ele>
				<time>2011-04-09T12:45:47Z</time>
			</trkpt>
			<trkpt lat="43.035597" lon="-1.463119">
				<ele>1009</ele>
				<time>2011-04-09T12:46:03Z</time>
			</trkpt>
			<trkpt lat="43.035606" lon="-1.463131">
				<ele>1009</ele>
				<time>2011-04-09T12:46:14Z</time>
			</trkpt>
			<trkpt lat="43.035607" lon="-1.463141">
				<ele>1009</ele>
				<time>2011-04-09T12:46:18Z</time>
			</trkpt>
			<trkpt lat="43.035637" lon="-1.463187">
				<ele>1009</ele>
				<time>2011-04-09T12:46:22Z</time>
			</trkpt>
			<trkpt lat="43.035682" lon="-1.463278">
				<ele>1009</ele>
				<time>2011-04-09T12:46:29Z</time>
			</trkpt>
			<trkpt lat="43.035691" lon="-1.463291">
				<ele>1009</ele>
				<time>2011-04-09T12:46:30Z</time>
			</trkpt>
			<trkpt lat="43.035744" lon="-1.463428">
				<ele>1009</ele>
				<time>2011-04-09T12:46:39Z</time>
			</trkpt>
			<trkpt lat="43.035748" lon="-1.463444">
				<ele>1009</ele>
				<time>2011-04-09T12:46:40Z</time>
			</trkpt>
			<trkpt lat="43.03576" lon="-1.463515">
				<ele>1009</ele>
				<time>2011-04-09T12:46:44Z</time>
			</trkpt>
			<trkpt lat="43.03576" lon="-1.463533">
				<ele>1009</ele>
				<time>2011-04-09T12:46:45Z</time>
			</trkpt>
			<trkpt lat="43.035758" lon="-1.463548">
				<ele>1009</ele>
				<time>2011-04-09T12:46:46Z</time>
			</trkpt>
			<trkpt lat="43.035748" lon="-1.463608">
				<ele>1009</ele>
				<time>2011-04-09T12:46:50Z</time>
			</trkpt>
			<trkpt lat="43.035751" lon="-1.463644">
				<ele>1009</ele>
				<time>2011-04-09T12:46:52Z</time>
			</trkpt>
			<trkpt lat="43.035754" lon="-1.463684">
				<ele>1009</ele>
				<time>2011-04-09T12:46:54Z</time>
			</trkpt>
			<trkpt lat="43.035754" lon="-1.463705">
				<ele>1009</ele>
				<time>2011-04-09T12:46:55Z</time>
			</trkpt>
			<trkpt lat="43.035759" lon="-1.463759">
				<ele>1009</ele>
				<time>2011-04-09T12:46:58Z</time>
			</trkpt>
			<trkpt lat="43.035761" lon="-1.463777">
				<ele>1009</ele>
				<time>2011-04-09T12:46:59Z</time>
			</trkpt>
			<trkpt lat="43.035762" lon="-1.463791">
				<ele>1009</ele>
				<time>2011-04-09T12:47:00Z</time>
			</trkpt>
			<trkpt lat="43.035763" lon="-1.463807">
				<ele>1009</ele>
				<time>2011-04-09T12:47:01Z</time>
			</trkpt>
			<trkpt lat="43.035767" lon="-1.463839">
				<ele>1009</ele>
				<time>2011-04-09T12:47:03Z</time>
			</trkpt>
			<trkpt lat="43.035765" lon="-1.463878">
				<ele>1009</ele>
				<time>2011-04-09T12:47:05Z</time>
			</trkpt>
			<trkpt lat="43.035774" lon="-1.46392">
				<ele>1009</ele>
				<time>2011-04-09T12:47:07Z</time>
			</trkpt>
			<trkpt lat="43.03577" lon="-1.463963">
				<ele>1009</ele>
				<time>2011-04-09T12:47:10Z</time>
			</trkpt>
			<trkpt lat="43.035754" lon="-1.464151">
				<ele>1009</ele>
				<time>2011-04-09T12:47:22Z</time>
			</trkpt>
			<trkpt lat="43.035717" lon="-1.464163">
				<ele>1009</ele>
				<time>2011-04-09T12:47:32Z</time>
			</trkpt>
			<trkpt lat="43.035702" lon="-1.464228">
				<ele>1009</ele>
				<time>2011-04-09T12:47:37Z</time>
			</trkpt>
			<trkpt lat="43.035643" lon="-1.464407">
				<ele>1009</ele>
				<time>2011-04-09T12:47:49Z</time>
			</trkpt>
			<trkpt lat="43.035593" lon="-1.464514">
				<ele>1009</ele>
				<time>2011-04-09T12:47:57Z</time>
			</trkpt>
			<trkpt lat="43.035536" lon="-1.464715">
				<ele>1024</ele>
				<time>2011-04-09T12:48:11Z</time>
			</trkpt>
			<trkpt lat="43.035541" lon="-1.464883">
				<ele>1024</ele>
				<time>2011-04-09T12:48:21Z</time>
			</trkpt>
			<trkpt lat="43.035545" lon="-1.464978">
				<ele>1024</ele>
				<time>2011-04-09T12:48:35Z</time>
			</trkpt>
			<trkpt lat="43.035547" lon="-1.465074">
				<ele>1024</ele>
				<time>2011-04-09T12:48:41Z</time>
			</trkpt>
			<trkpt lat="43.035548" lon="-1.465181">
				<ele>1024</ele>
				<time>2011-04-09T12:48:48Z</time>
			</trkpt>
			<trkpt lat="43.035549" lon="-1.465257">
				<ele>1024</ele>
				<time>2011-04-09T12:48:54Z</time>
			</trkpt>
			<trkpt lat="43.03558" lon="-1.465363">
				<ele>1024</ele>
				<time>2011-04-09T12:49:01Z</time>
			</trkpt>
			<trkpt lat="43.035624" lon="-1.465542">
				<ele>1024</ele>
				<time>2011-04-09T12:49:13Z</time>
			</trkpt>
			<trkpt lat="43.035593" lon="-1.465625">
				<ele>1024</ele>
				<time>2011-04-09T12:49:24Z</time>
			</trkpt>
			<trkpt lat="43.035591" lon="-1.465729">
				<ele>1024</ele>
				<time>2011-04-09T12:49:29Z</time>
			</trkpt>
			<trkpt lat="43.035577" lon="-1.465865">
				<ele>1024</ele>
				<time>2011-04-09T12:49:36Z</time>
			</trkpt>
			<trkpt lat="43.035577" lon="-1.466059">
				<ele>1024</ele>
				<time>2011-04-09T12:49:49Z</time>
			</trkpt>
			<trkpt lat="43.035511" lon="-1.466255">
				<ele>1024</ele>
				<time>2011-04-09T12:50:01Z</time>
			</trkpt>
			<trkpt lat="43.035495" lon="-1.46629">
				<ele>1024</ele>
				<time>2011-04-09T12:50:03Z</time>
			</trkpt>
			<trkpt lat="43.035407" lon="-1.466456">
				<ele>950</ele>
				<time>2011-04-09T12:50:11Z</time>
			</trkpt>
			<trkpt lat="43.035385" lon="-1.466639">
				<ele>950</ele>
				<time>2011-04-09T12:50:20Z</time>
			</trkpt>
			<trkpt lat="43.035444" lon="-1.466841">
				<ele>973</ele>
				<time>2011-04-09T12:50:31Z</time>
			</trkpt>
			<trkpt lat="43.03551" lon="-1.467014">
				<ele>973</ele>
				<time>2011-04-09T12:50:41Z</time>
			</trkpt>
			<trkpt lat="43.035507" lon="-1.467064">
				<ele>973</ele>
				<time>2011-04-09T12:50:43Z</time>
			</trkpt>
			<trkpt lat="43.035489" lon="-1.467101">
				<ele>973</ele>
				<time>2011-04-09T12:50:45Z</time>
			</trkpt>
			<trkpt lat="43.035472" lon="-1.467322">
				<ele>973</ele>
				<time>2011-04-09T12:50:56Z</time>
			</trkpt>
			<trkpt lat="43.035475" lon="-1.467377">
				<ele>973</ele>
				<time>2011-04-09T12:50:59Z</time>
			</trkpt>
			<trkpt lat="43.035491" lon="-1.467473">
				<ele>973</ele>
				<time>2011-04-09T12:51:04Z</time>
			</trkpt>
			<trkpt lat="43.035515" lon="-1.467596">
				<ele>973</ele>
				<time>2011-04-09T12:51:12Z</time>
			</trkpt>
			<trkpt lat="43.035514" lon="-1.467705">
				<ele>973</ele>
				<time>2011-04-09T12:51:26Z</time>
			</trkpt>
			<trkpt lat="43.035516" lon="-1.467819">
				<ele>973</ele>
				<time>2011-04-09T12:51:34Z</time>
			</trkpt>
			<trkpt lat="43.03553" lon="-1.467944">
				<ele>973</ele>
				<time>2011-04-09T12:51:40Z</time>
			</trkpt>
			<trkpt lat="43.035547" lon="-1.468047">
				<ele>973</ele>
				<time>2011-04-09T12:51:46Z</time>
			</trkpt>
			<trkpt lat="43.035585" lon="-1.468102">
				<ele>973</ele>
				<time>2011-04-09T12:51:51Z</time>
			</trkpt>
			<trkpt lat="43.03561" lon="-1.468221">
				<ele>973</ele>
				<time>2011-04-09T12:51:58Z</time>
			</trkpt>
			<trkpt lat="43.035611" lon="-1.468237">
				<ele>973</ele>
				<time>2011-04-09T12:51:59Z</time>
			</trkpt>
			<trkpt lat="43.035605" lon="-1.468444">
				<ele>973</ele>
				<time>2011-04-09T12:52:10Z</time>
			</trkpt>
			<trkpt lat="43.035624" lon="-1.468527">
				<ele>973</ele>
				<time>2011-04-09T12:52:16Z</time>
			</trkpt>
			<trkpt lat="43.035668" lon="-1.46861">
				<ele>973</ele>
				<time>2011-04-09T12:52:23Z</time>
			</trkpt>
			<trkpt lat="43.035702" lon="-1.46867">
				<ele>973</ele>
				<time>2011-04-09T12:52:27Z</time>
			</trkpt>
			<trkpt lat="43.035719" lon="-1.468698">
				<ele>973</ele>
				<time>2011-04-09T12:52:29Z</time>
			</trkpt>
			<trkpt lat="43.035755" lon="-1.468754">
				<ele>922</ele>
				<time>2011-04-09T12:52:35Z</time>
			</trkpt>
			<trkpt lat="43.035729" lon="-1.468926">
				<ele>922</ele>
				<time>2011-04-09T12:52:46Z</time>
			</trkpt>
			<trkpt lat="43.035711" lon="-1.469061">
				<ele>922</ele>
				<time>2011-04-09T12:52:58Z</time>
			</trkpt>
			<trkpt lat="43.035704" lon="-1.469074">
				<ele>922</ele>
				<time>2011-04-09T12:52:59Z</time>
			</trkpt>
			<trkpt lat="43.035679" lon="-1.469134">
				<ele>922</ele>
				<time>2011-04-09T12:53:02Z</time>
			</trkpt>
			<trkpt lat="43.035715" lon="-1.469261">
				<ele>922</ele>
				<time>2011-04-09T12:53:13Z</time>
			</trkpt>
			<trkpt lat="43.035756" lon="-1.469291">
				<ele>922</ele>
				<time>2011-04-09T12:53:16Z</time>
			</trkpt>
			<trkpt lat="43.035807" lon="-1.469366">
				<ele>922</ele>
				<time>2011-04-09T12:53:21Z</time>
			</trkpt>
			<trkpt lat="43.035832" lon="-1.469444">
				<ele>922</ele>
				<time>2011-04-09T12:53:28Z</time>
			</trkpt>
			<trkpt lat="43.035903" lon="-1.469695">
				<ele>922</ele>
				<time>2011-04-09T12:53:41Z</time>
			</trkpt>
			<trkpt lat="43.035923" lon="-1.469823">
				<ele>922</ele>
				<time>2011-04-09T12:53:48Z</time>
			</trkpt>
			<trkpt lat="43.035935" lon="-1.470027">
				<ele>922</ele>
				<time>2011-04-09T12:54:03Z</time>
			</trkpt>
			<trkpt lat="43.035935" lon="-1.470025">
				<ele>922</ele>
				<time>2011-04-11T15:15:35Z</time>
			</trkpt>
			<trkpt lat="43.03595" lon="-1.47004">
				<ele>922</ele>
				<time>2011-04-12T03:02:14Z</time>
			</trkpt>
			<trkpt lat="43.035966" lon="-1.470053">
				<ele>922</ele>
				<time>2011-04-12T15:02:25Z</time>
			</trkpt>
			<trkpt lat="43.03598" lon="-1.47007">
				<ele>922</ele>
				<time>2011-04-13T03:16:49Z</time>
			</trkpt>
			<trkpt lat="43.035992" lon="-1.47009">
				<ele>922</ele>
				<time>2011-04-13T15:35:17Z</time>
			</trkpt>
			<trkpt lat="43.036005" lon="-1.47011">
				<ele>922</ele>
				<time>2011-04-14T03:57:48Z</time>
			</trkpt>
			<trkpt lat="43.036015" lon="-1.47013">
				<ele>922</ele>
				<time>2011-04-14T15:39:03Z</time>
			</trkpt>
			<trkpt lat="43.036015" lon="-1.470156">
				<ele>922</ele>
				<time>2011-04-15T04:16:28Z</time>
			</trkpt>
			<trkpt lat="43.036015" lon="-1.470159">
				<ele>922</ele>
				<time>2011-04-15T05:22:48Z</time>
			</trkpt>
			<trkpt lat="43.036011" lon="-1.470181">
				<ele>922</ele>
				<time>2011-04-15T16:02:26Z</time>
			</trkpt>
			<trkpt lat="43.036015" lon="-1.470161">
				<ele>922</ele>
				<time>2011-04-16T01:33:02Z</time>
			</trkpt>
			<trkpt lat="43.036011" lon="-1.470186">
				<ele>922</ele>
				<time>2011-04-16T13:19:00Z</time>
			</trkpt>
			<trkpt lat="43.036013" lon="-1.470182">
				<ele>922</ele>
				<time>2011-04-16T16:39:22Z</time>
			</trkpt>
			<trkpt lat="43.035942" lon="-1.470375">
				<ele>922</ele>
				<time>2011-04-16T16:39:04Z</time>
			</trkpt>
			<trkpt lat="43.035923" lon="-1.470416">
				<ele>922</ele>
				<time>2011-04-16T16:38:58Z</time>
			</trkpt>
			<trkpt lat="43.035887" lon="-1.470544">
				<ele>922</ele>
				<time>2011-04-16T16:38:44Z</time>
			</trkpt>
			<trkpt lat="43.03587" lon="-1.470722">
				<ele>922</ele>
				<time>2011-04-16T16:38:32Z</time>
			</trkpt>
			<trkpt lat="43.035905" lon="-1.47089">
				<ele>938</ele>
				<time>2011-04-16T16:38:20Z</time>
			</trkpt>
			<trkpt lat="43.035914" lon="-1.471096">
				<ele>938</ele>
				<time>2011-04-16T16:38:05Z</time>
			</trkpt>
			<trkpt lat="43.035965" lon="-1.471292">
				<ele>938</ele>
				<time>2011-04-16T16:37:51Z</time>
			</trkpt>
			<trkpt lat="43.03603" lon="-1.471486">
				<ele>938</ele>
				<time>2011-04-16T16:37:35Z</time>
			</trkpt>
			<trkpt lat="43.036057" lon="-1.471618">
				<ele>938</ele>
				<time>2011-04-16T16:37:22Z</time>
			</trkpt>
			<trkpt lat="43.03612" lon="-1.471692">
				<ele>938</ele>
				<time>2011-04-16T16:37:10Z</time>
			</trkpt>
			<trkpt lat="43.036226" lon="-1.471846">
				<ele>938</ele>
				<time>2011-04-16T16:36:57Z</time>
			</trkpt>
			<trkpt lat="43.03627" lon="-1.472063">
				<ele>938</ele>
				<time>2011-04-16T16:36:41Z</time>
			</trkpt>
			<trkpt lat="43.03629" lon="-1.472222">
				<ele>938</ele>
				<time>2011-04-16T16:36:28Z</time>
			</trkpt>
			<trkpt lat="43.036303" lon="-1.472294">
				<ele>938</ele>
				<time>2011-04-16T16:36:24Z</time>
			</trkpt>
			<trkpt lat="43.036318" lon="-1.472441">
				<ele>938</ele>
				<time>2011-04-16T16:36:13Z</time>
			</trkpt>
			<trkpt lat="43.036364" lon="-1.472601">
				<ele>938</ele>
				<time>2011-04-16T16:35:57Z</time>
			</trkpt>
			<trkpt lat="43.036409" lon="-1.472736">
				<ele>938</ele>
				<time>2011-04-16T16:35:46Z</time>
			</trkpt>
			<trkpt lat="43.036523" lon="-1.472912">
				<ele>938</ele>
				<time>2011-04-16T16:35:32Z</time>
			</trkpt>
			<trkpt lat="43.03664" lon="-1.473093">
				<ele>971</ele>
				<time>2011-04-16T16:35:17Z</time>
			</trkpt>
			<trkpt lat="43.036734" lon="-1.473253">
				<ele>971</ele>
				<time>2011-04-16T16:35:04Z</time>
			</trkpt>
			<trkpt lat="43.036827" lon="-1.473373">
				<ele>971</ele>
				<time>2011-04-16T16:34:51Z</time>
			</trkpt>
			<trkpt lat="43.036915" lon="-1.473574">
				<ele>971</ele>
				<time>2011-04-16T16:34:36Z</time>
			</trkpt>
			<trkpt lat="43.037048" lon="-1.473817">
				<ele>971</ele>
				<time>2011-04-16T16:34:19Z</time>
			</trkpt>
			<trkpt lat="43.037053" lon="-1.473836">
				<ele>971</ele>
				<time>2011-04-16T16:34:18Z</time>
			</trkpt>
			<trkpt lat="43.037124" lon="-1.474095">
				<ele>971</ele>
				<time>2011-04-16T16:34:04Z</time>
			</trkpt>
			<trkpt lat="43.037138" lon="-1.474107">
				<ele>971</ele>
				<time>2011-04-16T16:34:02Z</time>
			</trkpt>
			<trkpt lat="43.037081" lon="-1.474221">
				<ele>971</ele>
				<time>2011-04-16T16:33:50Z</time>
			</trkpt>
			<trkpt lat="43.037076" lon="-1.474381">
				<ele>971</ele>
				<time>2011-04-16T16:33:36Z</time>
			</trkpt>
			<trkpt lat="43.037101" lon="-1.474461">
				<ele>971</ele>
				<time>2011-04-16T16:33:25Z</time>
			</trkpt>
			<trkpt lat="43.037167" lon="-1.474602">
				<ele>971</ele>
				<time>2011-04-16T16:33:09Z</time>
			</trkpt>
			<trkpt lat="43.037178" lon="-1.474788">
				<ele>971</ele>
				<time>2011-04-16T16:32:53Z</time>
			</trkpt>
			<trkpt lat="43.037129" lon="-1.474926">
				<ele>971</ele>
				<time>2011-04-16T16:32:41Z</time>
			</trkpt>
			<trkpt lat="43.037091" lon="-1.475093">
				<ele>984</ele>
				<time>2011-04-16T16:32:27Z</time>
			</trkpt>
			<trkpt lat="43.037096" lon="-1.475085">
				<ele>984</ele>
				<time>2011-06-14T01:05:41Z</time>
			</trkpt>
			<trkpt lat="43.037096" lon="-1.475085">
				<ele>984</ele>
				<time>2011-06-14T01:05:41Z</time>
			</trkpt>
			<trkpt lat="43.037096" lon="-1.47509">
				<ele>984</ele>
				<time>2011-07-08T19:53:27Z</time>
			</trkpt>
			<trkpt lat="43.037096" lon="-1.475099">
				<ele>984</ele>
				<time>2011-08-28T08:55:23Z</time>
			</trkpt>
			<trkpt lat="43.037096" lon="-1.475102">
				<ele>984</ele>
				<time>2011-09-09T08:03:57Z</time>
			</trkpt>
			<trkpt lat="43.037097" lon="-1.475109">
				<ele>984</ele>
				<time>2011-10-18T15:32:07Z</time>
			</trkpt>
			<trkpt lat="43.037099" lon="-1.475183">
				<ele>984</ele>
				<time>2012-11-01T16:43:02Z</time>
			</trkpt>
			<trkpt lat="43.037098" lon="-1.475212">
				<ele>984</ele>
				<time>2013-04-02T16:36:14Z</time>
			</trkpt>
			<trkpt lat="43.037098" lon="-1.475237">
				<ele>984</ele>
				<time>2013-08-06T22:15:16Z</time>
			</trkpt>
			<trkpt lat="43.037098" lon="-1.475261">
				<ele>984</ele>
				<time>2013-12-09T13:48:52Z</time>
			</trkpt>
			<trkpt lat="43.037098" lon="-1.475288">
				<ele>984</ele>
				<time>2014-04-26T21:32:16Z</time>
			</trkpt>
			<trkpt lat="43.037097" lon="-1.475313">
				<ele>984</ele>
				<time>2014-08-30T09:36:29Z</time>
			</trkpt>
			<trkpt lat="43.037099" lon="-1.475347">
				<ele>984</ele>
				<time>2015-02-22T16:34:15Z</time>
			</trkpt>
			<trkpt lat="43.037099" lon="-1.475374">
				<ele>984</ele>
				<time>2015-07-11T03:13:27Z</time>
			</trkpt>
			<trkpt lat="43.037071" lon="-1.475442">
				<ele>984</ele>
				<time>2016-08-09T22:22:47Z</time>
			</trkpt>
			<trkpt lat="43.037044" lon="-1.475486">
				<ele>984</ele>
				<time>2017-06-21T09:34:34Z</time>
			</trkpt>
			<trkpt lat="43.037016" lon="-1.475684">
				<ele>984</ele>
				<time>2017-06-21T09:34:54Z</time>
			</trkpt>
			<trkpt lat="43.037039" lon="-1.475792">
				<ele>984</ele>
				<time>2017-06-21T09:34:58Z</time>
			</trkpt>
			<trkpt lat="43.037044" lon="-1.475863">
				<ele>984</ele>
				<time>2017-06-21T09:35:02Z</time>
			</trkpt>
			<trkpt lat="43.037045" lon="-1.475914">
				<ele>984</ele>
				<time>2017-06-21T09:35:05Z</time>
			</trkpt>
			<trkpt lat="43.037108" lon="-1.47597">
				<ele>984</ele>
				<time>2017-06-21T09:35:53Z</time>
			</trkpt>
			<trkpt lat="43.037521" lon="-1.476591">
				<ele>959</ele>
				<time>2017-06-21T09:36:06Z</time>
			</trkpt>
			<trkpt lat="43.037726" lon="-1.47694">
				<ele>959</ele>
				<time>2017-06-21T09:37:38Z</time>
			</trkpt>
			<trkpt lat="43.03782" lon="-1.477104">
				<ele>972</ele>
				<time>2017-06-21T09:40:05Z</time>
			</trkpt>
			<trkpt lat="43.037927" lon="-1.477382">
				<ele>972</ele>
				<time>2017-06-21T09:40:47Z</time>
			</trkpt>
			<trkpt lat="43.037978" lon="-1.477548">
				<ele>972</ele>
				<time>2017-06-21T09:41:07Z</time>
			</trkpt>
			<trkpt lat="43.037962" lon="-1.477875">
				<ele>972</ele>
				<time>2017-06-21T09:41:26Z</time>
			</trkpt>
			<trkpt lat="43.037791" lon="-1.478263">
				<ele>972</ele>
				<time>2017-06-21T09:41:44Z</time>
			</trkpt>
			<trkpt lat="43.037759" lon="-1.478493">
				<ele>972</ele>
				<time>2017-06-21T09:42:01Z</time>
			</trkpt>
			<trkpt lat="43.037622" lon="-1.47873">
				<ele>972</ele>
				<time>2017-06-21T09:42:07Z</time>
			</trkpt>
			<trkpt lat="43.037561" lon="-1.479034">
				<ele>972</ele>
				<time>2017-06-21T09:42:09Z</time>
			</trkpt>
			<trkpt lat="43.037652" lon="-1.479352">
				<ele>992</ele>
				<time>2017-06-21T09:42:26Z</time>
			</trkpt>
			<trkpt lat="43.037895" lon="-1.479867">
				<ele>992</ele>
				<time>2017-06-21T09:42:39Z</time>
			</trkpt>
			<trkpt lat="43.037945" lon="-1.48034">
				<ele>992</ele>
				<time>2017-06-21T09:42:52Z</time>
			</trkpt>
			<trkpt lat="43.03789" lon="-1.480549">
				<ele>992</ele>
				<time>2017-06-21T09:43:07Z</time>
			</trkpt>
			<trkpt lat="43.037784" lon="-1.480699">
				<ele>992</ele>
				<time>2017-06-21T09:43:22Z</time>
			</trkpt>
			<trkpt lat="43.037678" lon="-1.480754">
				<ele>992</ele>
				<time>2017-06-21T09:43:35Z</time>
			</trkpt>
			<trkpt lat="43.037556" lon="-1.480778">
				<ele>992</ele>
				<time>2017-06-21T09:43:53Z</time>
			</trkpt>
			<trkpt lat="43.037521" lon="-1.480823">
				<ele>992</ele>
				<time>2017-06-21T09:43:54Z</time>
			</trkpt>
			<trkpt lat="43.037507" lon="-1.480972">
				<ele>992</ele>
				<time>2017-06-21T09:44:15Z</time>
			</trkpt>
			<trkpt lat="43.037483" lon="-1.481238">
				<ele>1068</ele>
				<time>2017-06-21T09:46:02Z</time>
			</trkpt>
			<trkpt lat="43.037566" lon="-1.48135">
				<ele>1005</ele>
				<time>2017-06-21T09:46:44Z</time>
			</trkpt>
			<trkpt lat="43.037595" lon="-1.481409">
				<ele>1005</ele>
				<time>2017-06-21T09:47:24Z</time>
			</trkpt>
			<trkpt lat="43.037622" lon="-1.481539">
				<ele>1005</ele>
				<time>2017-06-21T09:53:01Z</time>
			</trkpt>
			<trkpt lat="43.037652" lon="-1.481734">
				<ele>1005</ele>
				<time>2017-06-21T09:53:19Z</time>
			</trkpt>
			<trkpt lat="43.037701" lon="-1.481922">
				<ele>1005</ele>
				<time>2017-06-21T09:53:37Z</time>
			</trkpt>
			<trkpt lat="43.037793" lon="-1.482218">
				<ele>1005</ele>
				<time>2017-06-21T09:53:50Z</time>
			</trkpt>
			<trkpt lat="43.037933" lon="-1.482424">
				<ele>1005</ele>
				<time>2017-06-21T09:54:10Z</time>
			</trkpt>
			<trkpt lat="43.038001" lon="-1.48258">
				<ele>1005</ele>
				<time>2017-06-21T09:54:21Z</time>
			</trkpt>
			<trkpt lat="43.038064" lon="-1.482734">
				<ele>1005</ele>
				<time>2017-06-21T09:54:36Z</time>
			</trkpt>
			<trkpt lat="43.0381" lon="-1.482797">
				<ele>1005</ele>
				<time>2017-06-21T09:54:43Z</time>
			</trkpt>
			<trkpt lat="43.038189" lon="-1.482984">
				<ele>1005</ele>
				<time>2017-06-21T09:55:00Z</time>
			</trkpt>
			<trkpt lat="43.038221" lon="-1.483072">
				<ele>1005</ele>
				<time>2017-06-21T09:55:07Z</time>
			</trkpt>
			<trkpt lat="43.038344" lon="-1.483342">
				<ele>1050</ele>
				<time>2017-06-21T09:55:23Z</time>
			</trkpt>
			<trkpt lat="43.038411" lon="-1.483484">
				<ele>1050</ele>
				<time>2017-06-21T09:55:31Z</time>
			</trkpt>
			<trkpt lat="43.038509" lon="-1.483639">
				<ele>1050</ele>
				<time>2017-06-21T09:55:42Z</time>
			</trkpt>
			<trkpt lat="43.038599" lon="-1.48387">
				<ele>1050</ele>
				<time>2017-06-21T09:55:58Z</time>
			</trkpt>
			<trkpt lat="43.03864" lon="-1.484075">
				<ele>1050</ele>
				<time>2017-06-21T09:56:11Z</time>
			</trkpt>
			<trkpt lat="43.038709" lon="-1.484204">
				<ele>1050</ele>
				<time>2017-06-21T09:56:23Z</time>
			</trkpt>
			<trkpt lat="43.038738" lon="-1.484346">
				<ele>1050</ele>
				<time>2017-06-21T09:56:31Z</time>
			</trkpt>
			<trkpt lat="43.038808" lon="-1.484534">
				<ele>1050</ele>
				<time>2017-06-21T09:58:29Z</time>
			</trkpt>
			<trkpt lat="43.038879" lon="-1.484674">
				<ele>1050</ele>
				<time>2017-06-21T09:58:50Z</time>
			</trkpt>
			<trkpt lat="43.03897" lon="-1.484836">
				<ele>1050</ele>
				<time>2017-06-21T09:59:03Z</time>
			</trkpt>
			<trkpt lat="43.03903" lon="-1.484929">
				<ele>1050</ele>
				<time>2017-06-21T09:59:12Z</time>
			</trkpt>
			<trkpt lat="43.039143" lon="-1.485037">
				<ele>1050</ele>
				<time>2017-06-21T09:59:26Z</time>
			</trkpt>
			<trkpt lat="43.039277" lon="-1.485163">
				<ele>1050</ele>
				<time>2017-06-21T09:59:41Z</time>
			</trkpt>
			<trkpt lat="43.039403" lon="-1.485333">
				<ele>1050</ele>
				<time>2017-06-21T09:59:56Z</time>
			</trkpt>
			<trkpt lat="43.039461" lon="-1.485421">
				<ele>1103</ele>
				<time>2017-06-21T10:00:09Z</time>
			</trkpt>
			<trkpt lat="43.03954" lon="-1.485571">
				<ele>1103</ele>
				<time>2017-06-21T10:00:28Z</time>
			</trkpt>
			<trkpt lat="43.039626" lon="-1.485649">
				<ele>1067</ele>
				<time>2017-06-21T10:00:44Z</time>
			</trkpt>
			<trkpt lat="43.039753" lon="-1.485706">
				<ele>1067</ele>
				<time>2017-06-21T10:00:55Z</time>
			</trkpt>
			<trkpt lat="43.039935" lon="-1.485764">
				<ele>1067</ele>
				<time>2017-06-21T10:01:10Z</time>
			</trkpt>
			<trkpt lat="43.04003" lon="-1.485911">
				<ele>1067</ele>
				<time>2017-06-21T10:01:26Z</time>
			</trkpt>
			<trkpt lat="43.040151" lon="-1.486037">
				<ele>1067</ele>
				<time>2017-06-21T10:01:42Z</time>
			</trkpt>
			<trkpt lat="43.04028" lon="-1.486143">
				<ele>1067</ele>
				<time>2017-06-21T10:01:57Z</time>
			</trkpt>
			<trkpt lat="43.040428" lon="-1.486322">
				<ele>1067</ele>
				<time>2017-06-21T10:02:14Z</time>
			</trkpt>
			<trkpt lat="43.040545" lon="-1.486477">
				<ele>1067</ele>
				<time>2017-06-21T10:02:28Z</time>
			</trkpt>
			<trkpt lat="43.040675" lon="-1.486586">
				<ele>1067</ele>
				<time>2017-06-21T10:02:43Z</time>
			</trkpt>
			<trkpt lat="43.040768" lon="-1.486649">
				<ele>1067</ele>
				<time>2017-06-21T10:02:51Z</time>
			</trkpt>
			<trkpt lat="43.040878" lon="-1.486829">
				<ele>1067</ele>
				<time>2017-06-21T10:03:04Z</time>
			</trkpt>
			<trkpt lat="43.041011" lon="-1.487018">
				<ele>1067</ele>
				<time>2017-06-21T10:03:21Z</time>
			</trkpt>
			<trkpt lat="43.041136" lon="-1.487215">
				<ele>1067</ele>
				<time>2017-06-21T10:03:34Z</time>
			</trkpt>
			<trkpt lat="43.041156" lon="-1.487265">
				<ele>1067</ele>
				<time>2017-06-21T10:03:39Z</time>
			</trkpt>
			<trkpt lat="43.041268" lon="-1.487423">
				<ele>1067</ele>
				<time>2017-06-21T10:03:52Z</time>
			</trkpt>
			<trkpt lat="43.041303" lon="-1.487454">
				<ele>1067</ele>
				<time>2017-06-21T10:03:56Z</time>
			</trkpt>
			<trkpt lat="43.041391" lon="-1.487457">
				<ele>1067</ele>
				<time>2017-06-21T10:04:10Z</time>
			</trkpt>
			<trkpt lat="43.041461" lon="-1.487469">
				<ele>1067</ele>
				<time>2017-06-21T10:04:17Z</time>
			</trkpt>
			<trkpt lat="43.041597" lon="-1.487578">
				<ele>1134</ele>
				<time>2017-06-21T10:04:33Z</time>
			</trkpt>
			<trkpt lat="43.041725" lon="-1.487889">
				<ele>1102</ele>
				<time>2017-06-21T10:04:45Z</time>
			</trkpt>
			<trkpt lat="43.041728" lon="-1.48795">
				<ele>1102</ele>
				<time>2017-06-21T10:04:58Z</time>
			</trkpt>
			<trkpt lat="43.041705" lon="-1.488058">
				<ele>1102</ele>
				<time>2017-06-21T10:05:13Z</time>
			</trkpt>
			<trkpt lat="43.041717" lon="-1.488208">
				<ele>1102</ele>
				<time>2017-06-21T10:05:29Z</time>
			</trkpt>
			<trkpt lat="43.041745" lon="-1.488391">
				<ele>1102</ele>
				<time>2017-06-21T10:05:43Z</time>
			</trkpt>
			<trkpt lat="43.041747" lon="-1.488422">
				<ele>1102</ele>
				<time>2017-06-21T10:05:45Z</time>
			</trkpt>
			<trkpt lat="43.041771" lon="-1.488515">
				<ele>1102</ele>
				<time>2017-06-21T10:06:00Z</time>
			</trkpt>
			<trkpt lat="43.041779" lon="-1.488531">
				<ele>1102</ele>
				<time>2017-06-21T10:06:12Z</time>
			</trkpt>
			<trkpt lat="43.04183" lon="-1.48864">
				<ele>1102</ele>
				<time>2017-06-21T10:06:26Z</time>
			</trkpt>
			<trkpt lat="43.041906" lon="-1.48875">
				<ele>1102</ele>
				<time>2017-06-21T10:06:39Z</time>
			</trkpt>
			<trkpt lat="43.041937" lon="-1.488787">
				<ele>1102</ele>
				<time>2017-06-21T10:06:43Z</time>
			</trkpt>
			<trkpt lat="43.042038" lon="-1.488892">
				<ele>1102</ele>
				<time>2017-06-21T10:07:28Z</time>
			</trkpt>
			<trkpt lat="43.042129" lon="-1.489034">
				<ele>1102</ele>
				<time>2017-06-21T10:13:20Z</time>
			</trkpt>
			<trkpt lat="43.042203" lon="-1.489196">
				<ele>1102</ele>
				<time>2017-06-21T10:13:31Z</time>
			</trkpt>
			<trkpt lat="43.042256" lon="-1.489269">
				<ele>1102</ele>
				<time>2017-06-21T10:13:51Z</time>
			</trkpt>
			<trkpt lat="43.042334" lon="-1.489418">
				<ele>1102</ele>
				<time>2017-06-21T10:14:07Z</time>
			</trkpt>
			<trkpt lat="43.042527" lon="-1.489649">
				<ele>1131</ele>
				<time>2017-06-21T10:15:22Z</time>
			</trkpt>
			<trkpt lat="43.042608" lon="-1.489872">
				<ele>1131</ele>
				<time>2017-06-21T10:15:40Z</time>
			</trkpt>
			<trkpt lat="43.04261" lon="-1.489885">
				<ele>1131</ele>
				<time>2017-06-21T10:15:42Z</time>
			</trkpt>
			<trkpt lat="43.04261" lon="-1.490034">
				<ele>1131</ele>
				<time>2017-06-21T10:15:52Z</time>
			</trkpt>
			<trkpt lat="43.042588" lon="-1.490208">
				<ele>1131</ele>
				<time>2017-06-21T10:16:05Z</time>
			</trkpt>
			<trkpt lat="43.04256" lon="-1.490395">
				<ele>1131</ele>
				<time>2017-06-21T10:16:19Z</time>
			</trkpt>
			<trkpt lat="43.042548" lon="-1.49043">
				<ele>1131</ele>
				<time>2017-06-21T10:16:22Z</time>
			</trkpt>
			<trkpt lat="43.042491" lon="-1.490555">
				<ele>1131</ele>
				<time>2017-06-21T10:16:35Z</time>
			</trkpt>
			<trkpt lat="43.042437" lon="-1.490662">
				<ele>1131</ele>
				<time>2017-06-21T10:16:47Z</time>
			</trkpt>
			<trkpt lat="43.042432" lon="-1.490673">
				<ele>1131</ele>
				<time>2017-06-21T10:16:48Z</time>
			</trkpt>
			<trkpt lat="43.042357" lon="-1.490794">
				<ele>1131</ele>
				<time>2017-06-21T10:17:04Z</time>
			</trkpt>
			<trkpt lat="43.042298" lon="-1.490928">
				<ele>1131</ele>
				<time>2017-06-21T10:17:19Z</time>
			</trkpt>
			<trkpt lat="43.042251" lon="-1.491053">
				<ele>1131</ele>
				<time>2017-06-21T10:17:35Z</time>
			</trkpt>
			<trkpt lat="43.042028" lon="-1.491509">
				<ele>1131</ele>
				<time>2017-06-21T10:19:11Z</time>
			</trkpt>
			<trkpt lat="43.041849" lon="-1.491837">
				<ele>1167</ele>
				<time>2017-06-21T10:19:33Z</time>
			</trkpt>
			<trkpt lat="43.041721" lon="-1.492114">
				<ele>1167</ele>
				<time>2017-06-21T10:19:52Z</time>
			</trkpt>
			<trkpt lat="43.041587" lon="-1.492407">
				<ele>1166</ele>
				<time>2017-06-21T10:20:12Z</time>
			</trkpt>
			<trkpt lat="43.041415" lon="-1.492742">
				<ele>1166</ele>
				<time>2017-06-21T10:20:59Z</time>
			</trkpt>
			<trkpt lat="43.041253" lon="-1.493012">
				<ele>1166</ele>
				<time>2017-06-21T10:21:20Z</time>
			</trkpt>
			<trkpt lat="43.041095" lon="-1.493293">
				<ele>1166</ele>
				<time>2017-06-21T10:21:39Z</time>
			</trkpt>
			<trkpt lat="43.04108" lon="-1.49331">
				<ele>1166</ele>
				<time>2011-04-16T15:51:55Z</time>
			</trkpt>
			<trkpt lat="43.041268" lon="-1.493344">
				<ele>1166</ele>
				<time>2011-04-16T15:51:36Z</time>
			</trkpt>
			<trkpt lat="43.041493" lon="-1.493341">
				<ele>1166</ele>
				<time>2011-04-16T15:51:15Z</time>
			</trkpt>
			<trkpt lat="43.041642" lon="-1.493356">
				<ele>1166</ele>
				<time>2011-04-16T15:50:57Z</time>
			</trkpt>
			<trkpt lat="43.041672" lon="-1.493349">
				<ele>1167</ele>
				<time>2011-04-16T15:50:44Z</time>
			</trkpt>
			<trkpt lat="43.041849" lon="-1.493365">
				<ele>1167</ele>
				<time>2011-04-16T15:50:25Z</time>
			</trkpt>
			<trkpt lat="43.042134" lon="-1.493282">
				<ele>1167</ele>
				<time>2011-04-16T15:50:01Z</time>
			</trkpt>
			<trkpt lat="43.042116" lon="-1.493304">
				<ele>1167</ele>
				<time>2011-04-16T15:49:55Z</time>
			</trkpt>
			<trkpt lat="43.042082" lon="-1.493336">
				<ele>1167</ele>
				<time>2011-04-16T15:49:49Z</time>
			</trkpt>
			<trkpt lat="43.042164" lon="-1.493303">
				<ele>1167</ele>
				<time>2011-04-16T15:49:37Z</time>
			</trkpt>
			<trkpt lat="43.04237" lon="-1.493192">
				<ele>1167</ele>
				<time>2011-04-16T15:49:18Z</time>
			</trkpt>
			<trkpt lat="43.042525" lon="-1.493075">
				<ele>1167</ele>
				<time>2011-04-16T15:49:01Z</time>
			</trkpt>
			<trkpt lat="43.042715" lon="-1.492834">
				<ele>1167</ele>
				<time>2011-04-16T15:48:39Z</time>
			</trkpt>
			<trkpt lat="43.042907" lon="-1.492629">
				<ele>1167</ele>
				<time>2011-04-16T15:48:18Z</time>
			</trkpt>
			<trkpt lat="43.043063" lon="-1.492432">
				<ele>1167</ele>
				<time>2011-04-16T15:48:00Z</time>
			</trkpt>
			<trkpt lat="43.043118" lon="-1.492349">
				<ele>1167</ele>
				<time>2011-04-16T15:47:52Z</time>
			</trkpt>
			<trkpt lat="43.043322" lon="-1.492267">
				<ele>1167</ele>
				<time>2011-04-16T15:47:32Z</time>
			</trkpt>
			<trkpt lat="43.043441" lon="-1.492271">
				<ele>1167</ele>
				<time>2011-04-16T15:47:17Z</time>
			</trkpt>
			<trkpt lat="43.043674" lon="-1.492313">
				<ele>1167</ele>
				<time>2011-04-16T15:46:55Z</time>
			</trkpt>
			<trkpt lat="43.043785" lon="-1.492419">
				<ele>1151</ele>
				<time>2011-04-16T15:46:32Z</time>
			</trkpt>
			<trkpt lat="43.043799" lon="-1.492418">
				<ele>1151</ele>
				<time>2011-04-16T15:46:19Z</time>
			</trkpt>
			<trkpt lat="43.043937" lon="-1.492528">
				<ele>1151</ele>
				<time>2011-04-16T15:45:59Z</time>
			</trkpt>
			<trkpt lat="43.044116" lon="-1.492783">
				<ele>1151</ele>
				<time>2011-04-16T15:45:36Z</time>
			</trkpt>
			<trkpt lat="43.044214" lon="-1.492919">
				<ele>1151</ele>
				<time>2011-04-16T15:45:21Z</time>
			</trkpt>
			<trkpt lat="43.044258" lon="-1.49299">
				<ele>1151</ele>
				<time>2011-04-16T15:45:08Z</time>
			</trkpt>
			<trkpt lat="43.044272" lon="-1.493029">
				<ele>1151</ele>
				<time>2011-04-16T15:44:52Z</time>
			</trkpt>
			<trkpt lat="43.044366" lon="-1.493155">
				<ele>1151</ele>
				<time>2011-04-16T15:44:34Z</time>
			</trkpt>
			<trkpt lat="43.044511" lon="-1.493328">
				<ele>1151</ele>
				<time>2011-04-16T15:44:16Z</time>
			</trkpt>
			<trkpt lat="43.04464" lon="-1.493466">
				<ele>1151</ele>
				<time>2011-04-16T15:43:58Z</time>
			</trkpt>
			<trkpt lat="43.044786" lon="-1.493565">
				<ele>1151</ele>
				<time>2011-04-16T15:43:40Z</time>
			</trkpt>
			<trkpt lat="43.044956" lon="-1.493604">
				<ele>1151</ele>
				<time>2011-04-16T15:43:25Z</time>
			</trkpt>
			<trkpt lat="43.045185" lon="-1.493721">
				<ele>1151</ele>
				<time>2011-04-16T15:43:02Z</time>
			</trkpt>
			<trkpt lat="43.045394" lon="-1.493822">
				<ele>1178</ele>
				<time>2011-04-16T15:42:42Z</time>
			</trkpt>
			<trkpt lat="43.045589" lon="-1.49382">
				<ele>1178</ele>
				<time>2011-04-16T15:42:22Z</time>
			</trkpt>
			<trkpt lat="43.045806" lon="-1.493833">
				<ele>1178</ele>
				<time>2011-04-16T15:42:02Z</time>
			</trkpt>
			<trkpt lat="43.045949" lon="-1.493888">
				<ele>1179</ele>
				<time>2011-04-16T15:41:49Z</time>
			</trkpt>
			<trkpt lat="43.046164" lon="-1.493974">
				<ele>1179</ele>
				<time>2011-04-16T15:41:30Z</time>
			</trkpt>
			<trkpt lat="43.046356" lon="-1.494084">
				<ele>1179</ele>
				<time>2011-04-16T15:41:12Z</time>
			</trkpt>
			<trkpt lat="43.046405" lon="-1.494141">
				<ele>1179</ele>
				<time>2011-04-16T15:41:05Z</time>
			</trkpt>
			<trkpt lat="43.046478" lon="-1.49418">
				<ele>1179</ele>
				<time>2011-04-16T15:40:57Z</time>
			</trkpt>
			<trkpt lat="43.046662" lon="-1.49429">
				<ele>1179</ele>
				<time>2011-04-16T15:40:39Z</time>
			</trkpt>
			<trkpt lat="43.046729" lon="-1.494299">
				<ele>1179</ele>
				<time>2011-04-16T15:40:33Z</time>
			</trkpt>
			<trkpt lat="43.0468" lon="-1.494356">
				<ele>1179</ele>
				<time>2011-04-16T15:40:14Z</time>
			</trkpt>
			<trkpt lat="43.046891" lon="-1.494406">
				<ele>1179</ele>
				<time>2011-04-16T15:40:02Z</time>
			</trkpt>
			<trkpt lat="43.047134" lon="-1.494403">
				<ele>1179</ele>
				<time>2011-04-16T15:39:42Z</time>
			</trkpt>
			<trkpt lat="43.047324" lon="-1.494374">
				<ele>1179</ele>
				<time>2011-04-16T15:39:25Z</time>
			</trkpt>
			<trkpt lat="43.047516" lon="-1.494338">
				<ele>1179</ele>
				<time>2011-04-16T15:39:04Z</time>
			</trkpt>
			<trkpt lat="43.047699" lon="-1.494297">
				<ele>1179</ele>
				<time>2011-04-16T15:38:46Z</time>
			</trkpt>
			<trkpt lat="43.047962" lon="-1.494284">
				<ele>1178</ele>
				<time>2011-04-16T15:38:22Z</time>
			</trkpt>
			<trkpt lat="43.048016" lon="-1.49428">
				<ele>1178</ele>
				<time>2011-04-16T15:38:07Z</time>
			</trkpt>
			<trkpt lat="43.048216" lon="-1.49431">
				<ele>1178</ele>
				<time>2011-04-16T15:37:47Z</time>
			</trkpt>
			<trkpt lat="43.048398" lon="-1.494333">
				<ele>1178</ele>
				<time>2011-04-16T15:37:30Z</time>
			</trkpt>
			<trkpt lat="43.04858" lon="-1.494369">
				<ele>1178</ele>
				<time>2011-04-16T15:37:12Z</time>
			</trkpt>
			<trkpt lat="43.048769" lon="-1.494377">
				<ele>1178</ele>
				<time>2011-04-16T15:36:54Z</time>
			</trkpt>
			<trkpt lat="43.04896" lon="-1.494414">
				<ele>1178</ele>
				<time>2011-04-16T15:36:34Z</time>
			</trkpt>
			<trkpt lat="43.049109" lon="-1.494467">
				<ele>1178</ele>
				<time>2011-04-16T15:36:14Z</time>
			</trkpt>
			<trkpt lat="43.04931" lon="-1.494567">
				<ele>1178</ele>
				<time>2011-04-16T15:35:53Z</time>
			</trkpt>
			<trkpt lat="43.049519" lon="-1.494668">
				<ele>1178</ele>
				<time>2011-04-16T15:35:33Z</time>
			</trkpt>
			<trkpt lat="43.049731" lon="-1.494706">
				<ele>1178</ele>
				<time>2011-04-16T15:35:13Z</time>
			</trkpt>
			<trkpt lat="43.049912" lon="-1.494701">
				<ele>1178</ele>
				<time>2011-04-16T15:34:54Z</time>
			</trkpt>
			<trkpt lat="43.050088" lon="-1.494732">
				<ele>1161</ele>
				<time>2011-04-16T15:34:36Z</time>
			</trkpt>
			<trkpt lat="43.050298" lon="-1.494745">
				<ele>1161</ele>
				<time>2011-04-16T15:34:15Z</time>
			</trkpt>
			<trkpt lat="43.050543" lon="-1.494645">
				<ele>1161</ele>
				<time>2011-04-16T15:33:52Z</time>
			</trkpt>
			<trkpt lat="43.050742" lon="-1.494589">
				<ele>1161</ele>
				<time>2011-04-16T15:33:33Z</time>
			</trkpt>
			<trkpt lat="43.050877" lon="-1.494565">
				<ele>1161</ele>
				<time>2011-04-16T15:33:18Z</time>
			</trkpt>
			<trkpt lat="43.05087" lon="-1.494568">
				<ele>1161</ele>
				<time>2011-04-16T15:32:58Z</time>
			</trkpt>
			<trkpt lat="43.051099" lon="-1.494619">
				<ele>1161</ele>
				<time>2011-04-16T15:32:35Z</time>
			</trkpt>
			<trkpt lat="43.051356" lon="-1.494654">
				<ele>1161</ele>
				<time>2011-04-16T15:32:14Z</time>
			</trkpt>
			<trkpt lat="43.05144" lon="-1.494624">
				<ele>1161</ele>
				<time>2011-04-16T15:31:53Z</time>
			</trkpt>
			<trkpt lat="43.051438" lon="-1.494634">
				<ele>1161</ele>
				<time>2011-04-16T15:31:39Z</time>
			</trkpt>
			<trkpt lat="43.051632" lon="-1.494731">
				<ele>1161</ele>
				<time>2011-04-16T15:31:16Z</time>
			</trkpt>
			<trkpt lat="43.051835" lon="-1.494779">
				<ele>1161</ele>
				<time>2011-04-16T15:30:59Z</time>
			</trkpt>
			<trkpt lat="43.051884" lon="-1.494772">
				<ele>1161</ele>
				<time>2011-04-16T15:30:55Z</time>
			</trkpt>
			<trkpt lat="43.051903" lon="-1.494771">
				<ele>1161</ele>
				<time>2011-04-16T15:30:53Z</time>
			</trkpt>
			<trkpt lat="43.051917" lon="-1.49479">
				<ele>1161</ele>
				<time>2011-04-16T15:30:41Z</time>
			</trkpt>
			<trkpt lat="43.051919" lon="-1.494794">
				<ele>1161</ele>
				<time>2011-04-16T15:30:40Z</time>
			</trkpt>
			<trkpt lat="43.052061" lon="-1.494859">
				<ele>1161</ele>
				<time>2011-04-16T15:30:24Z</time>
			</trkpt>
			<trkpt lat="43.052229" lon="-1.495041">
				<ele>1167</ele>
				<time>2011-04-16T15:30:05Z</time>
			</trkpt>
			<trkpt lat="43.052225" lon="-1.495035">
				<ele>1167</ele>
				<time>2020-04-19T03:35:08Z</time>
			</trkpt>
			<trkpt lat="43.052225" lon="-1.495037">
				<ele>1167</ele>
				<time>2020-04-19T03:35:28Z</time>
			</trkpt>
			<trkpt lat="43.052236" lon="-1.495047">
				<ele>1167</ele>
				<time>2020-04-19T03:35:48Z</time>
			</trkpt>
			<trkpt lat="43.05225" lon="-1.495064">
				<ele>1167</ele>
				<time>2020-04-19T03:36:08Z</time>
			</trkpt>
			<trkpt lat="43.052261" lon="-1.495087">
				<ele>1167</ele>
				<time>2020-04-19T03:36:28Z</time>
			</trkpt>
			<trkpt lat="43.052271" lon="-1.495106">
				<ele>1167</ele>
				<time>2020-04-19T03:36:48Z</time>
			</trkpt>
			<trkpt lat="43.052285" lon="-1.495129">
				<ele>1167</ele>
				<time>2020-04-19T03:37:08Z</time>
			</trkpt>
			<trkpt lat="43.052296" lon="-1.495151">
				<ele>1167</ele>
				<time>2020-04-19T03:37:28Z</time>
			</trkpt>
			<trkpt lat="43.052309" lon="-1.495171">
				<ele>1167</ele>
				<time>2020-04-19T03:37:48Z</time>
			</trkpt>
			<trkpt lat="43.052323" lon="-1.495188">
				<ele>1167</ele>
				<time>2020-04-19T03:38:08Z</time>
			</trkpt>
			<trkpt lat="43.052341" lon="-1.495198">
				<ele>1167</ele>
				<time>2020-04-19T03:38:28Z</time>
			</trkpt>
			<trkpt lat="43.052358" lon="-1.495208">
				<ele>1167</ele>
				<time>2020-04-19T03:38:48Z</time>
			</trkpt>
			<trkpt lat="43.052374" lon="-1.495221">
				<ele>1167</ele>
				<time>2020-04-19T03:39:08Z</time>
			</trkpt>
			<trkpt lat="43.052389" lon="-1.495236">
				<ele>1167</ele>
				<time>2020-04-19T03:39:28Z</time>
			</trkpt>
			<trkpt lat="43.052403" lon="-1.495253">
				<ele>1167</ele>
				<time>2020-04-19T03:39:48Z</time>
			</trkpt>
			<trkpt lat="43.052417" lon="-1.495268">
				<ele>1167</ele>
				<time>2020-04-19T03:40:08Z</time>
			</trkpt>
			<trkpt lat="43.052431" lon="-1.495288">
				<ele>1167</ele>
				<time>2020-04-19T03:40:28Z</time>
			</trkpt>
			<trkpt lat="43.052437" lon="-1.495315">
				<ele>1167</ele>
				<time>2020-04-19T03:40:48Z</time>
			</trkpt>
			<trkpt lat="43.052437" lon="-1.495315">
				<ele>1167</ele>
				<time>2020-04-19T03:41:08Z</time>
			</trkpt>
			<trkpt lat="43.052437" lon="-1.495315">
				<ele>1167</ele>
				<time>2020-04-19T03:41:28Z</time>
			</trkpt>
			<trkpt lat="43.052435" lon="-1.495312">
				<ele>1167</ele>
				<time>2011-04-16T15:24:56Z</time>
			</trkpt>
			<trkpt lat="43.052441" lon="-1.495371">
				<ele>1167</ele>
				<time>2011-04-16T15:24:42Z</time>
			</trkpt>
			<trkpt lat="43.052483" lon="-1.495518">
				<ele>1167</ele>
				<time>2011-04-16T15:24:22Z</time>
			</trkpt>
			<trkpt lat="43.0525" lon="-1.495602">
				<ele>1167</ele>
				<time>2011-04-16T15:24:10Z</time>
			</trkpt>
			<trkpt lat="43.052513" lon="-1.495714">
				<ele>1167</ele>
				<time>2011-04-16T15:23:55Z</time>
			</trkpt>
			<trkpt lat="43.052609" lon="-1.49576">
				<ele>1167</ele>
				<time>2011-04-16T15:23:39Z</time>
			</trkpt>
			<trkpt lat="43.052588" lon="-1.495752">
				<ele>1167</ele>
				<time>2011-04-16T15:23:15Z</time>
			</trkpt>
			<trkpt lat="43.052631" lon="-1.495772">
				<ele>1167</ele>
				<time>2011-04-16T15:23:00Z</time>
			</trkpt>
			<trkpt lat="43.052717" lon="-1.495765">
				<ele>1167</ele>
				<time>2011-04-16T15:22:45Z</time>
			</trkpt>
			<trkpt lat="43.052828" lon="-1.495735">
				<ele>1167</ele>
				<time>2011-04-16T15:22:30Z</time>
			</trkpt>
			<trkpt lat="43.053016" lon="-1.495761">
				<ele>1167</ele>
				<time>2011-04-16T15:22:09Z</time>
			</trkpt>
			<trkpt lat="43.053169" lon="-1.49577">
				<ele>1167</ele>
				<time>2011-04-16T15:21:54Z</time>
			</trkpt>
			<trkpt lat="43.053309" lon="-1.495774">
				<ele>1167</ele>
				<time>2011-04-16T15:21:40Z</time>
			</trkpt>
			<trkpt lat="43.053379" lon="-1.495765">
				<ele>1167</ele>
				<time>2011-04-16T15:21:34Z</time>
			</trkpt>
			<trkpt lat="43.053521" lon="-1.495783">
				<ele>1167</ele>
				<time>2011-04-16T15:21:21Z</time>
			</trkpt>
			<trkpt lat="43.053735" lon="-1.495789">
				<ele>1167</ele>
				<time>2011-04-16T15:21:01Z</time>
			</trkpt>
			<trkpt lat="43.053958" lon="-1.495803">
				<ele>1167</ele>
				<time>2011-04-16T15:20:41Z</time>
			</trkpt>
			<trkpt lat="43.054016" lon="-1.495813">
				<ele>1167</ele>
				<time>2011-04-16T15:20:35Z</time>
			</trkpt>
			<trkpt lat="43.05414" lon="-1.495852">
				<ele>1130</ele>
				<time>2011-04-16T15:20:15Z</time>
			</trkpt>
			<trkpt lat="43.054176" lon="-1.49585">
				<ele>1124</ele>
				<time>2011-04-16T15:19:56Z</time>
			</trkpt>
			<trkpt lat="43.054282" lon="-1.495894">
				<ele>1124</ele>
				<time>2011-04-16T15:19:39Z</time>
			</trkpt>
			<trkpt lat="43.054494" lon="-1.495959">
				<ele>1124</ele>
				<time>2011-04-16T15:19:17Z</time>
			</trkpt>
			<trkpt lat="43.054709" lon="-1.495984">
				<ele>1124</ele>
				<time>2011-04-16T15:18:57Z</time>
			</trkpt>
			<trkpt lat="43.054905" lon="-1.496027">
				<ele>1124</ele>
				<time>2011-04-16T15:18:38Z</time>
			</trkpt>
			<trkpt lat="43.054998" lon="-1.496036">
				<ele>1124</ele>
				<time>2011-04-16T15:18:24Z</time>
			</trkpt>
			<trkpt lat="43.055076" lon="-1.496061">
				<ele>1124</ele>
				<time>2011-04-16T15:18:17Z</time>
			</trkpt>
			<trkpt lat="43.0553" lon="-1.496107">
				<ele>1124</ele>
				<time>2011-04-16T15:17:57Z</time>
			</trkpt>
			<trkpt lat="43.055433" lon="-1.496142">
				<ele>1124</ele>
				<time>2011-04-16T15:17:43Z</time>
			</trkpt>
			<trkpt lat="43.055528" lon="-1.49616">
				<ele>1124</ele>
				<time>2011-04-16T15:17:28Z</time>
			</trkpt>
			<trkpt lat="43.055588" lon="-1.496176">
				<ele>1124</ele>
				<time>2011-04-16T15:17:22Z</time>
			</trkpt>
			<trkpt lat="43.05577" lon="-1.496189">
				<ele>1124</ele>
				<time>2011-04-16T15:17:05Z</time>
			</trkpt>
			<trkpt lat="43.055952" lon="-1.496197">
				<ele>1124</ele>
				<time>2011-04-16T15:16:48Z</time>
			</trkpt>
			<trkpt lat="43.055967" lon="-1.49619">
				<ele>1124</ele>
				<time>2011-04-16T15:16:38Z</time>
			</trkpt>
			<trkpt lat="43.055968" lon="-1.496163">
				<ele>1124</ele>
				<time>2011-04-16T15:16:25Z</time>
			</trkpt>
			<trkpt lat="43.056163" lon="-1.496175">
				<ele>1124</ele>
				<time>2011-04-16T15:16:07Z</time>
			</trkpt>
			<trkpt lat="43.056325" lon="-1.496172">
				<ele>1150</ele>
				<time>2011-04-16T15:15:50Z</time>
			</trkpt>
			<trkpt lat="43.056414" lon="-1.496135">
				<ele>1150</ele>
				<time>2011-04-16T15:15:36Z</time>
			</trkpt>
			<trkpt lat="43.056445" lon="-1.496121">
				<ele>1150</ele>
				<time>2011-04-16T15:15:25Z</time>
			</trkpt>
			<trkpt lat="43.056453" lon="-1.496135">
				<ele>1150</ele>
				<time>2011-04-16T15:15:04Z</time>
			</trkpt>
			<trkpt lat="43.05654" lon="-1.496198">
				<ele>1150</ele>
				<time>2011-04-16T15:14:48Z</time>
			</trkpt>
			<trkpt lat="43.056598" lon="-1.49622">
				<ele>1150</ele>
				<time>2011-04-16T15:14:42Z</time>
			</trkpt>
			<trkpt lat="43.056729" lon="-1.496345">
				<ele>1150</ele>
				<time>2011-04-16T15:14:25Z</time>
			</trkpt>
			<trkpt lat="43.056843" lon="-1.496459">
				<ele>1150</ele>
				<time>2011-04-16T15:14:10Z</time>
			</trkpt>
			<trkpt lat="43.056942" lon="-1.496566">
				<ele>1150</ele>
				<time>2011-04-16T15:13:53Z</time>
			</trkpt>
			<trkpt lat="43.057017" lon="-1.496676">
				<ele>1150</ele>
				<time>2011-04-16T15:13:39Z</time>
			</trkpt>
			<trkpt lat="43.05706" lon="-1.496715">
				<ele>1150</ele>
				<time>2011-04-16T15:13:27Z</time>
			</trkpt>
			<trkpt lat="43.057142" lon="-1.496906">
				<ele>1150</ele>
				<time>2011-04-16T15:13:10Z</time>
			</trkpt>
			<trkpt lat="43.057227" lon="-1.497089">
				<ele>1150</ele>
				<time>2011-04-16T15:12:53Z</time>
			</trkpt>
			<trkpt lat="43.057235" lon="-1.497102">
				<ele>1150</ele>
				<time>2011-04-16T15:12:45Z</time>
			</trkpt>
			<trkpt lat="43.05725" lon="-1.497125">
				<ele>1150</ele>
				<time>2011-04-16T15:12:31Z</time>
			</trkpt>
			<trkpt lat="43.057276" lon="-1.497185">
				<ele>1150</ele>
				<time>2011-04-16T15:12:25Z</time>
			</trkpt>
			<trkpt lat="43.057372" lon="-1.497352">
				<ele>1150</ele>
				<time>2011-04-16T15:12:04Z</time>
			</trkpt>
			<trkpt lat="43.057432" lon="-1.497473">
				<ele>1150</ele>
				<time>2011-04-16T15:11:48Z</time>
			</trkpt>
			<trkpt lat="43.057546" lon="-1.497628">
				<ele>1150</ele>
				<time>2011-04-16T15:11:25Z</time>
			</trkpt>
			<trkpt lat="43.057616" lon="-1.497752">
				<ele>1150</ele>
				<time>2011-04-16T15:11:07Z</time>
			</trkpt>
			<trkpt lat="43.057645" lon="-1.49783">
				<ele>1150</ele>
				<time>2011-04-16T15:10:55Z</time>
			</trkpt>
			<trkpt lat="43.057698" lon="-1.497947">
				<ele>1114</ele>
				<time>2011-04-16T15:10:38Z</time>
			</trkpt>
			<trkpt lat="43.057733" lon="-1.49804">
				<ele>1114</ele>
				<time>2011-04-16T15:10:24Z</time>
			</trkpt>
			<trkpt lat="43.057801" lon="-1.498191">
				<ele>1114</ele>
				<time>2011-04-16T15:10:01Z</time>
			</trkpt>
			<trkpt lat="43.057835" lon="-1.498269">
				<ele>1114</ele>
				<time>2011-04-16T15:09:50Z</time>
			</trkpt>
			<trkpt lat="43.057902" lon="-1.498379">
				<ele>1114</ele>
				<time>2011-04-16T15:09:34Z</time>
			</trkpt>
			<trkpt lat="43.057994" lon="-1.498524">
				<ele>1114</ele>
				<time>2011-04-16T15:09:12Z</time>
			</trkpt>
			<trkpt lat="43.058094" lon="-1.498641">
				<ele>1114</ele>
				<time>2011-04-16T15:08:53Z</time>
			</trkpt>
			<trkpt lat="43.058173" lon="-1.498729">
				<ele>1114</ele>
				<time>2011-04-16T15:08:37Z</time>
			</trkpt>
			<trkpt lat="43.058241" lon="-1.498803">
				<ele>1114</ele>
				<time>2011-04-16T15:08:24Z</time>
			</trkpt>
			<trkpt lat="43.058328" lon="-1.498886">
				<ele>1114</ele>
				<time>2011-04-16T15:08:06Z</time>
			</trkpt>
			<trkpt lat="43.058454" lon="-1.498975">
				<ele>1080</ele>
				<time>2011-04-16T15:07:46Z</time>
			</trkpt>
			<trkpt lat="43.058511" lon="-1.499008">
				<ele>1080</ele>
				<time>2011-04-16T15:07:31Z</time>
			</trkpt>
			<trkpt lat="43.05859" lon="-1.499095">
				<ele>1080</ele>
				<time>2011-04-16T15:07:12Z</time>
			</trkpt>
			<trkpt lat="43.058669" lon="-1.499179">
				<ele>1080</ele>
				<time>2011-04-16T15:06:54Z</time>
			</trkpt>
			<trkpt lat="43.058708" lon="-1.499235">
				<ele>1080</ele>
				<time>2011-04-16T15:06:44Z</time>
			</trkpt>
			<trkpt lat="43.058769" lon="-1.499334">
				<ele>1080</ele>
				<time>2011-04-16T15:06:27Z</time>
			</trkpt>
			<trkpt lat="43.058815" lon="-1.499432">
				<ele>1080</ele>
				<time>2011-04-16T15:06:11Z</time>
			</trkpt>
			<trkpt lat="43.058853" lon="-1.499486">
				<ele>1080</ele>
				<time>2011-04-16T15:05:57Z</time>
			</trkpt>
			<trkpt lat="43.058898" lon="-1.499563">
				<ele>1080</ele>
				<time>2011-04-16T15:05:36Z</time>
			</trkpt>
			<trkpt lat="43.058958" lon="-1.499685">
				<ele>1080</ele>
				<time>2011-04-16T15:05:18Z</time>
			</trkpt>
			<trkpt lat="43.059008" lon="-1.499756">
				<ele>1080</ele>
				<time>2011-04-16T15:05:03Z</time>
			</trkpt>
			<trkpt lat="43.059046" lon="-1.499802">
				<ele>1080</ele>
				<time>2011-04-16T15:04:46Z</time>
			</trkpt>
			<trkpt lat="43.059153" lon="-1.499876">
				<ele>1080</ele>
				<time>2011-04-16T15:04:26Z</time>
			</trkpt>
			<trkpt lat="43.059221" lon="-1.499955">
				<ele>1080</ele>
				<time>2011-04-16T15:04:09Z</time>
			</trkpt>
			<trkpt lat="43.059281" lon="-1.500057">
				<ele>1058</ele>
				<time>2011-04-16T15:03:51Z</time>
			</trkpt>
			<trkpt lat="43.059319" lon="-1.500141">
				<ele>1058</ele>
				<time>2011-04-16T15:03:36Z</time>
			</trkpt>
			<trkpt lat="43.059339" lon="-1.500235">
				<ele>1058</ele>
				<time>2011-04-16T15:03:20Z</time>
			</trkpt>
			<trkpt lat="43.059392" lon="-1.500295">
				<ele>1058</ele>
				<time>2011-04-16T15:03:05Z</time>
			</trkpt>
			<trkpt lat="43.059448" lon="-1.500352">
				<ele>1058</ele>
				<time>2011-04-16T15:02:50Z</time>
			</trkpt>
			<trkpt lat="43.059506" lon="-1.500439">
				<ele>1058</ele>
				<time>2011-04-16T15:02:34Z</time>
			</trkpt>
			<trkpt lat="43.059556" lon="-1.500498">
				<ele>1058</ele>
				<time>2011-04-16T15:02:21Z</time>
			</trkpt>
			<trkpt lat="43.05957" lon="-1.50052">
				<ele>1058</ele>
				<time>2011-04-16T15:02:17Z</time>
			</trkpt>
			<trkpt lat="43.059626" lon="-1.500593">
				<ele>1058</ele>
				<time>2011-04-16T15:02:02Z</time>
			</trkpt>
			<trkpt lat="43.059698" lon="-1.500709">
				<ele>1058</ele>
				<time>2011-04-16T15:01:41Z</time>
			</trkpt>
			<trkpt lat="43.05978" lon="-1.500809">
				<ele>1058</ele>
				<time>2011-04-16T15:01:25Z</time>
			</trkpt>
			<trkpt lat="43.059864" lon="-1.500933">
				<ele>1058</ele>
				<time>2011-04-16T15:01:10Z</time>
			</trkpt>
			<trkpt lat="43.059956" lon="-1.501067">
				<ele>1058</ele>
				<time>2011-04-16T15:00:54Z</time>
			</trkpt>
			<trkpt lat="43.060111" lon="-1.501317">
				<ele>1058</ele>
				<time>2011-04-16T15:00:29Z</time>
			</trkpt>
			<trkpt lat="43.060261" lon="-1.501536">
				<ele>1058</ele>
				<time>2011-04-16T15:00:08Z</time>
			</trkpt>
			<trkpt lat="43.060387" lon="-1.501715">
				<ele>1058</ele>
				<time>2011-04-16T14:59:50Z</time>
			</trkpt>
			<trkpt lat="43.060445" lon="-1.501815">
				<ele>1022</ele>
				<time>2011-04-16T14:59:36Z</time>
			</trkpt>
			<trkpt lat="43.060445" lon="-1.501816">
				<ele>1022</ele>
				<time>2011-04-16T14:59:35Z</time>
			</trkpt>
			<trkpt lat="43.060445" lon="-1.50182">
				<ele>1022</ele>
				<time>2011-04-16T14:59:31Z</time>
			</trkpt>
			<trkpt lat="43.060446" lon="-1.501821">
				<ele>1022</ele>
				<time>2011-04-16T14:59:30Z</time>
			</trkpt>
			<trkpt lat="43.060446" lon="-1.501822">
				<ele>1022</ele>
				<time>2011-04-16T14:59:29Z</time>
			</trkpt>
			<trkpt lat="43.060446" lon="-1.501822">
				<ele>1022</ele>
				<time>2011-04-16T14:59:28Z</time>
			</trkpt>
			<trkpt lat="43.060446" lon="-1.501822">
				<ele>1022</ele>
				<time>2011-04-16T14:59:27Z</time>
			</trkpt>
			<trkpt lat="43.060445" lon="-1.501822">
				<ele>1022</ele>
				<time>2011-04-16T14:59:25Z</time>
			</trkpt>
			<trkpt lat="43.060445" lon="-1.501822">
				<ele>1022</ele>
				<time>2011-04-16T14:59:24Z</time>
			</trkpt>
			<trkpt lat="43.060446" lon="-1.501822">
				<ele>1022</ele>
				<time>2011-04-16T14:59:16Z</time>
			</trkpt>
			<trkpt lat="43.060446" lon="-1.501821">
				<ele>1022</ele>
				<time>2011-04-16T14:59:14Z</time>
			</trkpt>
			<trkpt lat="43.060447" lon="-1.501823">
				<ele>1022</ele>
				<time>2011-04-16T14:59:12Z</time>
			</trkpt>
			<trkpt lat="43.060463" lon="-1.501859">
				<ele>1022</ele>
				<time>2011-04-16T14:59:08Z</time>
			</trkpt>
			<trkpt lat="43.060467" lon="-1.50187">
				<ele>1022</ele>
				<time>2011-04-16T14:59:07Z</time>
			</trkpt>
			<trkpt lat="43.060471" lon="-1.501882">
				<ele>1022</ele>
				<time>2011-04-16T14:59:06Z</time>
			</trkpt>
			<trkpt lat="43.060475" lon="-1.501893">
				<ele>1022</ele>
				<time>2011-04-16T14:59:05Z</time>
			</trkpt>
			<trkpt lat="43.06048" lon="-1.501903">
				<ele>1022</ele>
				<time>2011-04-16T14:59:04Z</time>
			</trkpt>
			<trkpt lat="43.06051" lon="-1.501954">
				<ele>1022</ele>
				<time>2011-04-16T14:58:58Z</time>
			</trkpt>
			<trkpt lat="43.060514" lon="-1.501965">
				<ele>1022</ele>
				<time>2011-04-16T14:58:57Z</time>
			</trkpt>
			<trkpt lat="43.060518" lon="-1.501978">
				<ele>1022</ele>
				<time>2011-04-16T14:58:56Z</time>
			</trkpt>
			<trkpt lat="43.060522" lon="-1.50199">
				<ele>1022</ele>
				<time>2011-04-16T14:58:55Z</time>
			</trkpt>
			<trkpt lat="43.060527" lon="-1.502004">
				<ele>1022</ele>
				<time>2011-04-16T14:58:54Z</time>
			</trkpt>
			<trkpt lat="43.060573" lon="-1.502154">
				<ele>1064</ele>
				<time>2011-04-16T14:58:44Z</time>
			</trkpt>
			<trkpt lat="43.060666" lon="-1.502478">
				<ele>1064</ele>
				<time>2011-04-16T14:58:21Z</time>
			</trkpt>
			<trkpt lat="43.060696" lon="-1.502546">
				<ele>1064</ele>
				<time>2011-04-16T14:58:16Z</time>
			</trkpt>
			<trkpt lat="43.060704" lon="-1.502578">
				<ele>1064</ele>
				<time>2011-04-16T14:58:14Z</time>
			</trkpt>
			<trkpt lat="43.060733" lon="-1.502709">
				<ele>1064</ele>
				<time>2011-04-16T14:58:02Z</time>
			</trkpt>
			<trkpt lat="43.060777" lon="-1.503099">
				<ele>1064</ele>
				<time>2011-04-16T14:57:38Z</time>
			</trkpt>
			<trkpt lat="43.060812" lon="-1.503376">
				<ele>1064</ele>
				<time>2011-04-16T14:57:20Z</time>
			</trkpt>
			<trkpt lat="43.060835" lon="-1.503549">
				<ele>1064</ele>
				<time>2011-04-16T14:57:06Z</time>
			</trkpt>
			<trkpt lat="43.060829" lon="-1.503882">
				<ele>1064</ele>
				<time>2011-04-16T14:56:44Z</time>
			</trkpt>
			<trkpt lat="43.060789" lon="-1.504231">
				<ele>1081</ele>
				<time>2011-04-16T14:56:21Z</time>
			</trkpt>
			<trkpt lat="43.060751" lon="-1.504411">
				<ele>1081</ele>
				<time>2011-04-16T14:56:07Z</time>
			</trkpt>
			<trkpt lat="43.060708" lon="-1.504718">
				<ele>1081</ele>
				<time>2011-04-16T14:55:46Z</time>
			</trkpt>
			<trkpt lat="43.060679" lon="-1.505016">
				<ele>1081</ele>
				<time>2011-04-16T14:55:24Z</time>
			</trkpt>
			<trkpt lat="43.060673" lon="-1.505053">
				<ele>1081</ele>
				<time>2011-04-16T14:55:21Z</time>
			</trkpt>
			<trkpt lat="43.060684" lon="-1.505381">
				<ele>1081</ele>
				<time>2011-04-16T14:54:59Z</time>
			</trkpt>
			<trkpt lat="43.060776" lon="-1.505673">
				<ele>1081</ele>
				<time>2011-04-16T14:54:38Z</time>
			</trkpt>
			<trkpt lat="43.060909" lon="-1.505926">
				<ele>1081</ele>
				<time>2011-04-16T14:54:16Z</time>
			</trkpt>
			<trkpt lat="43.061056" lon="-1.506168">
				<ele>1081</ele>
				<time>2011-04-16T14:53:53Z</time>
			</trkpt>
			<trkpt lat="43.061211" lon="-1.506415">
				<ele>1033</ele>
				<time>2011-04-16T14:53:29Z</time>
			</trkpt>
			<trkpt lat="43.061347" lon="-1.506683">
				<ele>1033</ele>
				<time>2011-04-16T14:53:07Z</time>
			</trkpt>
			<trkpt lat="43.061476" lon="-1.506901">
				<ele>1033</ele>
				<time>2011-04-16T14:52:49Z</time>
			</trkpt>
			<trkpt lat="43.061519" lon="-1.506947">
				<ele>1033</ele>
				<time>2011-04-16T14:52:45Z</time>
			</trkpt>
			<trkpt lat="43.06156" lon="-1.507051">
				<ele>1033</ele>
				<time>2011-04-16T14:52:37Z</time>
			</trkpt>
			<trkpt lat="43.061662" lon="-1.507299">
				<ele>1033</ele>
				<time>2011-04-16T14:52:20Z</time>
			</trkpt>
			<trkpt lat="43.061759" lon="-1.507606">
				<ele>1033</ele>
				<time>2011-04-16T14:52:01Z</time>
			</trkpt>
			<trkpt lat="43.061842" lon="-1.507851">
				<ele>1033</ele>
				<time>2011-04-16T14:51:43Z</time>
			</trkpt>
			<trkpt lat="43.061833" lon="-1.507982">
				<ele>1033</ele>
				<time>2011-04-16T14:51:29Z</time>
			</trkpt>
			<trkpt lat="43.061825" lon="-1.507999">
				<ele>1033</ele>
				<time>2011-04-16T14:51:25Z</time>
			</trkpt>
			<trkpt lat="43.061822" lon="-1.508271">
				<ele>1033</ele>
				<time>2011-04-16T14:51:06Z</time>
			</trkpt>
			<trkpt lat="43.061794" lon="-1.508619">
				<ele>1038</ele>
				<time>2011-04-16T14:50:45Z</time>
			</trkpt>
			<trkpt lat="43.06178" lon="-1.508953">
				<ele>1038</ele>
				<time>2011-04-16T14:50:25Z</time>
			</trkpt>
			<trkpt lat="43.061661" lon="-1.509281">
				<ele>1038</ele>
				<time>2011-04-16T14:50:04Z</time>
			</trkpt>
			<trkpt lat="43.061699" lon="-1.509612">
				<ele>1038</ele>
				<time>2011-04-16T14:49:45Z</time>
			</trkpt>
			<trkpt lat="43.061772" lon="-1.509893">
				<ele>1038</ele>
				<time>2011-04-16T14:49:27Z</time>
			</trkpt>
			<trkpt lat="43.061793" lon="-1.509953">
				<ele>1038</ele>
				<time>2011-04-16T14:49:19Z</time>
			</trkpt>
			<trkpt lat="43.061896" lon="-1.510144">
				<ele>1038</ele>
				<time>2011-04-16T14:49:01Z</time>
			</trkpt>
			<trkpt lat="43.06194" lon="-1.510369">
				<ele>1038</ele>
				<time>2011-04-16T14:48:42Z</time>
			</trkpt>
			<trkpt lat="43.062004" lon="-1.510608">
				<ele>1006</ele>
				<time>2011-04-16T14:48:21Z</time>
			</trkpt>
			<trkpt lat="43.062015" lon="-1.510701">
				<ele>1006</ele>
				<time>2011-04-16T14:48:12Z</time>
			</trkpt>
			<trkpt lat="43.06203" lon="-1.51085">
				<ele>1006</ele>
				<time>2011-04-16T14:47:56Z</time>
			</trkpt>
			<trkpt lat="43.062061" lon="-1.511002">
				<ele>1006</ele>
				<time>2011-04-16T14:47:40Z</time>
			</trkpt>
			<trkpt lat="43.06203" lon="-1.511155">
				<ele>1006</ele>
				<time>2011-04-16T14:47:25Z</time>
			</trkpt>
			<trkpt lat="43.062029" lon="-1.511363">
				<ele>1006</ele>
				<time>2011-04-16T14:47:05Z</time>
			</trkpt>
			<trkpt lat="43.062067" lon="-1.51158">
				<ele>1006</ele>
				<time>2011-04-16T14:46:43Z</time>
			</trkpt>
			<trkpt lat="43.062112" lon="-1.511785">
				<ele>1006</ele>
				<time>2011-04-16T14:46:27Z</time>
			</trkpt>
			<trkpt lat="43.062165" lon="-1.512067">
				<ele>1006</ele>
				<time>2011-04-16T14:46:07Z</time>
			</trkpt>
			<trkpt lat="43.062234" lon="-1.512369">
				<ele>1006</ele>
				<time>2011-04-16T14:45:48Z</time>
			</trkpt>
			<trkpt lat="43.062239" lon="-1.512383">
				<ele>1006</ele>
				<time>2011-04-16T14:45:18Z</time>
			</trkpt>
			<trkpt lat="43.062268" lon="-1.512542">
				<ele>1014</ele>
				<time>2011-04-16T14:44:57Z</time>
			</trkpt>
			<trkpt lat="43.062351" lon="-1.512937">
				<ele>1014</ele>
				<time>2011-04-16T14:44:35Z</time>
			</trkpt>
			<trkpt lat="43.062442" lon="-1.513336">
				<ele>1014</ele>
				<time>2011-04-16T14:44:11Z</time>
			</trkpt>
			<trkpt lat="43.062533" lon="-1.513658">
				<ele>995</ele>
				<time>2011-04-16T14:43:52Z</time>
			</trkpt>
			<trkpt lat="43.062595" lon="-1.513905">
				<ele>995</ele>
				<time>2011-04-16T14:43:36Z</time>
			</trkpt>
			<trkpt lat="43.06276" lon="-1.514285">
				<ele>995</ele>
				<time>2011-04-16T14:43:13Z</time>
			</trkpt>
			<trkpt lat="43.062865" lon="-1.514537">
				<ele>995</ele>
				<time>2011-04-16T14:42:56Z</time>
			</trkpt>
			<trkpt lat="43.063061" lon="-1.514876">
				<ele>1037</ele>
				<time>2011-04-16T14:42:31Z</time>
			</trkpt>
			<trkpt lat="43.063176" lon="-1.5152">
				<ele>1037</ele>
				<time>2011-04-16T14:42:10Z</time>
			</trkpt>
			<trkpt lat="43.063182" lon="-1.515216">
				<ele>1037</ele>
				<time>2011-04-16T14:42:09Z</time>
			</trkpt>
			<trkpt lat="43.063261" lon="-1.515437">
				<ele>1037</ele>
				<time>2011-04-16T14:41:54Z</time>
			</trkpt>
			<trkpt lat="43.063381" lon="-1.515748">
				<ele>1037</ele>
				<time>2011-04-16T14:41:31Z</time>
			</trkpt>
			<trkpt lat="43.0635" lon="-1.516106">
				<ele>1037</ele>
				<time>2011-04-16T14:41:07Z</time>
			</trkpt>
			<trkpt lat="43.063533" lon="-1.516316">
				<ele>1037</ele>
				<time>2011-04-16T14:40:48Z</time>
			</trkpt>
			<trkpt lat="43.063534" lon="-1.516525">
				<ele>1037</ele>
				<time>2011-04-16T14:40:29Z</time>
			</trkpt>
			<trkpt lat="43.063566" lon="-1.516799">
				<ele>1031</ele>
				<time>2011-04-16T14:40:05Z</time>
			</trkpt>
			<trkpt lat="43.063631" lon="-1.516966">
				<ele>1031</ele>
				<time>2011-04-16T14:39:50Z</time>
			</trkpt>
			<trkpt lat="43.063659" lon="-1.517051">
				<ele>1031</ele>
				<time>2011-04-16T14:39:37Z</time>
			</trkpt>
			<trkpt lat="43.063676" lon="-1.517105">
				<ele>1031</ele>
				<time>2011-04-16T14:39:25Z</time>
			</trkpt>
			<trkpt lat="43.063734" lon="-1.517277">
				<ele>1031</ele>
				<time>2011-04-16T14:39:06Z</time>
			</trkpt>
			<trkpt lat="43.063812" lon="-1.517535">
				<ele>1031</ele>
				<time>2011-04-16T14:38:41Z</time>
			</trkpt>
			<trkpt lat="43.063856" lon="-1.517677">
				<ele>1031</ele>
				<time>2011-04-16T14:38:29Z</time>
			</trkpt>
			<trkpt lat="43.063853" lon="-1.517649">
				<ele>1031</ele>
				<time>2020-04-19T04:44:28Z</time>
			</trkpt>
			<trkpt lat="43.063858" lon="-1.517673">
				<ele>1031</ele>
				<time>2020-04-19T04:44:48Z</time>
			</trkpt>
			<trkpt lat="43.063867" lon="-1.517695">
				<ele>1031</ele>
				<time>2020-04-19T04:45:08Z</time>
			</trkpt>
			<trkpt lat="43.063874" lon="-1.51772">
				<ele>1031</ele>
				<time>2020-04-19T04:45:28Z</time>
			</trkpt>
			<trkpt lat="43.063883" lon="-1.517742">
				<ele>1031</ele>
				<time>2020-04-19T04:45:48Z</time>
			</trkpt>
			<trkpt lat="43.063893" lon="-1.517769">
				<ele>1031</ele>
				<time>2020-04-19T04:46:08Z</time>
			</trkpt>
			<trkpt lat="43.063902" lon="-1.517799">
				<ele>1031</ele>
				<time>2020-04-19T04:46:28Z</time>
			</trkpt>
			<trkpt lat="43.063916" lon="-1.517828">
				<ele>1031</ele>
				<time>2020-04-19T04:46:48Z</time>
			</trkpt>
			<trkpt lat="43.063925" lon="-1.517853">
				<ele>1031</ele>
				<time>2020-04-19T04:47:08Z</time>
			</trkpt>
			<trkpt lat="43.063934" lon="-1.517875">
				<ele>1031</ele>
				<time>2020-04-19T04:47:28Z</time>
			</trkpt>
			<trkpt lat="43.063943" lon="-1.5179">
				<ele>1031</ele>
				<time>2020-04-19T04:47:48Z</time>
			</trkpt>
			<trkpt lat="43.063953" lon="-1.517924">
				<ele>1031</ele>
				<time>2020-04-19T04:48:08Z</time>
			</trkpt>
			<trkpt lat="43.063962" lon="-1.517947">
				<ele>1031</ele>
				<time>2020-04-19T04:48:28Z</time>
			</trkpt>
			<trkpt lat="43.063969" lon="-1.517971">
				<ele>1031</ele>
				<time>2020-04-19T04:48:48Z</time>
			</trkpt>
			<trkpt lat="43.063976" lon="-1.517999">
				<ele>1031</ele>
				<time>2020-04-19T04:49:08Z</time>
			</trkpt>
			<trkpt lat="43.063979" lon="-1.518023">
				<ele>1031</ele>
				<time>2020-04-19T04:49:28Z</time>
			</trkpt>
			<trkpt lat="43.063984" lon="-1.51805">
				<ele>1031</ele>
				<time>2020-04-19T04:49:48Z</time>
			</trkpt>
			<trkpt lat="43.063993" lon="-1.518072">
				<ele>1031</ele>
				<time>2020-04-19T04:50:08Z</time>
			</trkpt>
			<trkpt lat="43.064004" lon="-1.518099">
				<ele>1031</ele>
				<time>2020-04-19T04:50:28Z</time>
			</trkpt>
			<trkpt lat="43.063998" lon="-1.518089">
				<ele>1031</ele>
				<time>2011-04-16T14:36:46Z</time>
			</trkpt>
			<trkpt lat="43.064037" lon="-1.518182">
				<ele>1031</ele>
				<time>2011-04-16T14:36:34Z</time>
			</trkpt>
			<trkpt lat="43.06411" lon="-1.518412">
				<ele>1031</ele>
				<time>2011-04-16T14:36:16Z</time>
			</trkpt>
			<trkpt lat="43.064187" lon="-1.518667">
				<ele>1031</ele>
				<time>2011-04-16T14:35:57Z</time>
			</trkpt>
			<trkpt lat="43.064191" lon="-1.518671">
				<ele>1031</ele>
				<time>2011-04-16T14:35:55Z</time>
			</trkpt>
			<trkpt lat="43.064209" lon="-1.51887">
				<ele>1029</ele>
				<time>2011-04-16T14:35:40Z</time>
			</trkpt>
			<trkpt lat="43.064211" lon="-1.518978">
				<ele>1029</ele>
				<time>2011-04-16T14:35:28Z</time>
			</trkpt>
			<trkpt lat="43.064235" lon="-1.51922">
				<ele>1029</ele>
				<time>2011-04-16T14:35:11Z</time>
			</trkpt>
			<trkpt lat="43.064221" lon="-1.519284">
				<ele>1029</ele>
				<time>2011-04-16T14:35:06Z</time>
			</trkpt>
			<trkpt lat="43.064207" lon="-1.51955">
				<ele>1029</ele>
				<time>2011-04-16T14:34:48Z</time>
			</trkpt>
			<trkpt lat="43.064218" lon="-1.519756">
				<ele>1029</ele>
				<time>2011-04-16T14:34:36Z</time>
			</trkpt>
			<trkpt lat="43.064214" lon="-1.51996">
				<ele>1029</ele>
				<time>2011-04-16T14:34:23Z</time>
			</trkpt>
			<trkpt lat="43.064194" lon="-1.520001">
				<ele>1029</ele>
				<time>2011-04-16T14:34:20Z</time>
			</trkpt>
			<trkpt lat="43.064086" lon="-1.520203">
				<ele>1029</ele>
				<time>2011-04-16T14:34:06Z</time>
			</trkpt>
			<trkpt lat="43.064053" lon="-1.520269">
				<ele>1029</ele>
				<time>2011-04-16T14:34:01Z</time>
			</trkpt>
			<trkpt lat="43.064029" lon="-1.520286">
				<ele>1029</ele>
				<time>2011-04-16T14:33:58Z</time>
			</trkpt>
			<trkpt lat="43.064007" lon="-1.520348">
				<ele>1029</ele>
				<time>2011-04-16T14:33:54Z</time>
			</trkpt>
			<trkpt lat="43.063989" lon="-1.520453">
				<ele>1029</ele>
				<time>2011-04-16T14:33:46Z</time>
			</trkpt>
			<trkpt lat="43.063806" lon="-1.520765">
				<ele>1029</ele>
				<time>2011-04-16T14:33:23Z</time>
			</trkpt>
			<trkpt lat="43.063757" lon="-1.520836">
				<ele>1059</ele>
				<time>2011-04-16T14:33:14Z</time>
			</trkpt>
			<trkpt lat="43.063674" lon="-1.52098">
				<ele>1059</ele>
				<time>2011-04-16T14:32:59Z</time>
			</trkpt>
			<trkpt lat="43.063621" lon="-1.521026">
				<ele>1059</ele>
				<time>2011-04-16T14:32:52Z</time>
			</trkpt>
			<trkpt lat="43.063498" lon="-1.521177">
				<ele>1059</ele>
				<time>2011-04-16T14:32:35Z</time>
			</trkpt>
			<trkpt lat="43.063386" lon="-1.521307">
				<ele>1059</ele>
				<time>2011-04-16T14:32:18Z</time>
			</trkpt>
			<trkpt lat="43.063245" lon="-1.521421">
				<ele>1059</ele>
				<time>2011-04-16T14:32:00Z</time>
			</trkpt>
			<trkpt lat="43.063065" lon="-1.521504">
				<ele>1059</ele>
				<time>2011-04-16T14:31:43Z</time>
			</trkpt>
			<trkpt lat="43.06291" lon="-1.521576">
				<ele>1059</ele>
				<time>2011-04-16T14:31:27Z</time>
			</trkpt>
			<trkpt lat="43.062909" lon="-1.521578">
				<ele>1059</ele>
				<time>2011-04-16T14:31:23Z</time>
			</trkpt>
			<trkpt lat="43.062861" lon="-1.521631">
				<ele>1059</ele>
				<time>2011-04-16T14:31:10Z</time>
			</trkpt>
			<trkpt lat="43.062768" lon="-1.521786">
				<ele>1059</ele>
				<time>2011-04-16T14:30:55Z</time>
			</trkpt>
			<trkpt lat="43.062717" lon="-1.5219">
				<ele>1059</ele>
				<time>2011-04-16T14:30:44Z</time>
			</trkpt>
			<trkpt lat="43.062621" lon="-1.522011">
				<ele>1059</ele>
				<time>2011-04-16T14:30:31Z</time>
			</trkpt>
			<trkpt lat="43.062609" lon="-1.522022">
				<ele>1059</ele>
				<time>2011-04-16T14:30:29Z</time>
			</trkpt>
			<trkpt lat="43.06257" lon="-1.522095">
				<ele>1059</ele>
				<time>2011-04-16T14:30:20Z</time>
			</trkpt>
			<trkpt lat="43.062554" lon="-1.522126">
				<ele>1059</ele>
				<time>2011-04-16T14:30:17Z</time>
			</trkpt>
			<trkpt lat="43.062522" lon="-1.522223">
				<ele>1059</ele>
				<time>2011-04-16T14:30:06Z</time>
			</trkpt>
			<trkpt lat="43.062505" lon="-1.522249">
				<ele>1059</ele>
				<time>2011-04-16T14:18:30Z</time>
			</trkpt>
			<trkpt lat="43.062504" lon="-1.522249">
				<ele>1059</ele>
				<time>2011-04-16T14:18:29Z</time>
			</trkpt>
			<trkpt lat="43.062505" lon="-1.522249">
				<ele>1059</ele>
				<time>2011-04-16T14:18:28Z</time>
			</trkpt>
			<trkpt lat="43.062505" lon="-1.52225">
				<ele>1059</ele>
				<time>2011-04-16T14:18:24Z</time>
			</trkpt>
			<trkpt lat="43.062504" lon="-1.522251">
				<ele>1059</ele>
				<time>2011-04-16T14:18:23Z</time>
			</trkpt>
			<trkpt lat="43.062505" lon="-1.522251">
				<ele>1059</ele>
				<time>2011-04-16T14:18:20Z</time>
			</trkpt>
			<trkpt lat="43.062505" lon="-1.522252">
				<ele>1059</ele>
				<time>2011-04-16T14:18:13Z</time>
			</trkpt>
			<trkpt lat="43.062505" lon="-1.522253">
				<ele>1059</ele>
				<time>2011-04-16T14:18:12Z</time>
			</trkpt>
			<trkpt lat="43.062505" lon="-1.522253">
				<ele>1059</ele>
				<time>2011-04-16T14:18:11Z</time>
			</trkpt>
			<trkpt lat="43.062505" lon="-1.522252">
				<ele>1059</ele>
				<time>2011-04-16T14:18:10Z</time>
			</trkpt>
			<trkpt lat="43.062505" lon="-1.522253">
				<ele>1059</ele>
				<time>2011-04-16T14:18:09Z</time>
			</trkpt>
			<trkpt lat="43.062506" lon="-1.522255">
				<ele>1059</ele>
				<time>2011-04-16T14:18:04Z</time>
			</trkpt>
			<trkpt lat="43.062506" lon="-1.522255">
				<ele>1059</ele>
				<time>2011-04-16T14:18:03Z</time>
			</trkpt>
			<trkpt lat="43.062506" lon="-1.522255">
				<ele>1059</ele>
				<time>2011-04-16T14:18:01Z</time>
			</trkpt>
			<trkpt lat="43.062506" lon="-1.522254">
				<ele>1059</ele>
				<time>2011-04-16T14:18:00Z</time>
			</trkpt>
			<trkpt lat="43.062505" lon="-1.522252">
				<ele>1059</ele>
				<time>2011-04-16T14:17:58Z</time>
			</trkpt>
			<trkpt lat="43.062498" lon="-1.522245">
				<ele>1084</ele>
				<time>2011-04-16T14:17:41Z</time>
			</trkpt>
			<trkpt lat="43.06251" lon="-1.522251">
				<ele>1059</ele>
				<time>2011-04-16T14:17:30Z</time>
			</trkpt>
			<trkpt lat="43.062494" lon="-1.522272">
				<ele>1084</ele>
				<time>2011-04-16T14:17:20Z</time>
			</trkpt>
			<trkpt lat="43.062411" lon="-1.522349">
				<ele>1084</ele>
				<time>2011-04-16T14:17:04Z</time>
			</trkpt>
			<trkpt lat="43.062255" lon="-1.522475">
				<ele>1084</ele>
				<time>2011-04-16T14:16:45Z</time>
			</trkpt>
			<trkpt lat="43.062079" lon="-1.522563">
				<ele>1084</ele>
				<time>2011-04-16T14:16:28Z</time>
			</trkpt>
			<trkpt lat="43.061934" lon="-1.522631">
				<ele>1084</ele>
				<time>2011-04-16T14:16:11Z</time>
			</trkpt>
			<trkpt lat="43.061824" lon="-1.52266">
				<ele>1084</ele>
				<time>2011-04-16T14:15:58Z</time>
			</trkpt>
			<trkpt lat="43.061676" lon="-1.522681">
				<ele>1084</ele>
				<time>2011-04-16T14:15:43Z</time>
			</trkpt>
			<trkpt lat="43.061559" lon="-1.522726">
				<ele>1084</ele>
				<time>2011-04-16T14:15:29Z</time>
			</trkpt>
			<trkpt lat="43.061557" lon="-1.522727">
				<ele>1084</ele>
				<time>2011-04-16T14:15:28Z</time>
			</trkpt>
			<trkpt lat="43.061423" lon="-1.522785">
				<ele>1084</ele>
				<time>2011-04-16T14:15:13Z</time>
			</trkpt>
			<trkpt lat="43.061208" lon="-1.523012">
				<ele>1048</ele>
				<time>2011-04-16T14:14:52Z</time>
			</trkpt>
			<trkpt lat="43.061084" lon="-1.523274">
				<ele>1048</ele>
				<time>2011-04-16T14:14:34Z</time>
			</trkpt>
			<trkpt lat="43.060978" lon="-1.523526">
				<ele>1048</ele>
				<time>2011-04-16T14:14:17Z</time>
			</trkpt>
			<trkpt lat="43.06093" lon="-1.523689">
				<ele>1048</ele>
				<time>2011-04-16T14:14:03Z</time>
			</trkpt>
			<trkpt lat="43.060916" lon="-1.523719">
				<ele>1048</ele>
				<time>2011-04-16T14:14:01Z</time>
			</trkpt>
			<trkpt lat="43.060845" lon="-1.523973">
				<ele>1048</ele>
				<time>2011-04-16T14:13:44Z</time>
			</trkpt>
			<trkpt lat="43.060788" lon="-1.524242">
				<ele>1048</ele>
				<time>2011-04-16T14:13:26Z</time>
			</trkpt>
			<trkpt lat="43.06074" lon="-1.524451">
				<ele>1048</ele>
				<time>2011-04-16T14:13:09Z</time>
			</trkpt>
			<trkpt lat="43.060734" lon="-1.524488">
				<ele>1048</ele>
				<time>2011-04-16T14:13:06Z</time>
			</trkpt>
			<trkpt lat="43.060702" lon="-1.524692">
				<ele>1048</ele>
				<time>2011-04-16T14:12:49Z</time>
			</trkpt>
			<trkpt lat="43.060695" lon="-1.524865">
				<ele>1048</ele>
				<time>2011-04-16T14:12:35Z</time>
			</trkpt>
			<trkpt lat="43.060644" lon="-1.525">
				<ele>1048</ele>
				<time>2011-04-16T14:12:25Z</time>
			</trkpt>
			<trkpt lat="43.060626" lon="-1.525226">
				<ele>1027</ele>
				<time>2011-04-16T14:12:07Z</time>
			</trkpt>
			<trkpt lat="43.06063" lon="-1.525342">
				<ele>1027</ele>
				<time>2011-04-16T14:11:53Z</time>
			</trkpt>
			<trkpt lat="43.060615" lon="-1.525425">
				<ele>1027</ele>
				<time>2011-04-16T14:11:41Z</time>
			</trkpt>
			<trkpt lat="43.060623" lon="-1.525455">
				<ele>1027</ele>
				<time>2011-04-16T14:11:36Z</time>
			</trkpt>
			<trkpt lat="43.060642" lon="-1.525541">
				<ele>1027</ele>
				<time>2011-04-16T14:11:24Z</time>
			</trkpt>
			<trkpt lat="43.060661" lon="-1.525654">
				<ele>1027</ele>
				<time>2011-04-16T14:11:11Z</time>
			</trkpt>
			<trkpt lat="43.060654" lon="-1.525828">
				<ele>1027</ele>
				<time>2011-04-16T14:10:56Z</time>
			</trkpt>
			<trkpt lat="43.060689" lon="-1.526009">
				<ele>1027</ele>
				<time>2011-04-16T14:10:40Z</time>
			</trkpt>
			<trkpt lat="43.060653" lon="-1.526289">
				<ele>1027</ele>
				<time>2011-04-16T14:10:22Z</time>
			</trkpt>
			<trkpt lat="43.060619" lon="-1.526434">
				<ele>1027</ele>
				<time>2011-04-16T14:10:10Z</time>
			</trkpt>
			<trkpt lat="43.060565" lon="-1.526654">
				<ele>1027</ele>
				<time>2011-04-16T14:09:53Z</time>
			</trkpt>
			<trkpt lat="43.060483" lon="-1.526877">
				<ele>1027</ele>
				<time>2011-04-16T14:09:36Z</time>
			</trkpt>
			<trkpt lat="43.060408" lon="-1.527057">
				<ele>1142</ele>
				<time>2011-04-16T14:09:22Z</time>
			</trkpt>
			<trkpt lat="43.060314" lon="-1.527249">
				<ele>1070</ele>
				<time>2011-04-16T14:09:07Z</time>
			</trkpt>
			<trkpt lat="43.060192" lon="-1.527439">
				<ele>1070</ele>
				<time>2011-04-16T14:08:51Z</time>
			</trkpt>
			<trkpt lat="43.060062" lon="-1.527605">
				<ele>1070</ele>
				<time>2011-04-16T14:08:35Z</time>
			</trkpt>
			<trkpt lat="43.059897" lon="-1.527747">
				<ele>1070</ele>
				<time>2011-04-16T14:08:17Z</time>
			</trkpt>
			<trkpt lat="43.059724" lon="-1.52783">
				<ele>1070</ele>
				<time>2011-04-16T14:08:00Z</time>
			</trkpt>
			<trkpt lat="43.05969" lon="-1.527853">
				<ele>1070</ele>
				<time>2011-04-16T14:07:56Z</time>
			</trkpt>
			<trkpt lat="43.059681" lon="-1.527858">
				<ele>1070</ele>
				<time>2011-04-16T14:07:55Z</time>
			</trkpt>
			<trkpt lat="43.059537" lon="-1.527974">
				<ele>1070</ele>
				<time>2011-04-16T14:07:37Z</time>
			</trkpt>
			<trkpt lat="43.059401" lon="-1.528075">
				<ele>1070</ele>
				<time>2011-04-16T14:07:21Z</time>
			</trkpt>
			<trkpt lat="43.059311" lon="-1.528136">
				<ele>1070</ele>
				<time>2011-04-16T14:07:08Z</time>
			</trkpt>
			<trkpt lat="43.059176" lon="-1.528235">
				<ele>1070</ele>
				<time>2011-04-16T14:06:54Z</time>
			</trkpt>
			<trkpt lat="43.059047" lon="-1.528378">
				<ele>1070</ele>
				<time>2011-04-16T14:06:40Z</time>
			</trkpt>
			<trkpt lat="43.058889" lon="-1.528549">
				<ele>1070</ele>
				<time>2011-04-16T14:06:24Z</time>
			</trkpt>
			<trkpt lat="43.05879" lon="-1.528682">
				<ele>1070</ele>
				<time>2011-04-16T14:06:11Z</time>
			</trkpt>
			<trkpt lat="43.058794" lon="-1.528685">
				<ele>1070</ele>
				<time>2011-04-16T14:06:01Z</time>
			</trkpt>
			<trkpt lat="43.058782" lon="-1.5287">
				<ele>1070</ele>
				<time>2011-04-16T14:05:59Z</time>
			</trkpt>
			<trkpt lat="43.058621" lon="-1.528861">
				<ele>1070</ele>
				<time>2011-04-16T14:05:41Z</time>
			</trkpt>
			<trkpt lat="43.058431" lon="-1.528982">
				<ele>1070</ele>
				<time>2011-04-16T14:05:21Z</time>
			</trkpt>
			<trkpt lat="43.058211" lon="-1.529074">
				<ele>1118</ele>
				<time>2011-04-16T14:04:58Z</time>
			</trkpt>
			<trkpt lat="43.058038" lon="-1.529148">
				<ele>1118</ele>
				<time>2011-04-16T14:04:40Z</time>
			</trkpt>
			<trkpt lat="43.057842" lon="-1.529233">
				<ele>1034</ele>
				<time>2011-04-16T14:04:21Z</time>
			</trkpt>
			<trkpt lat="43.057711" lon="-1.529287">
				<ele>1034</ele>
				<time>2011-04-16T14:04:07Z</time>
			</trkpt>
			<trkpt lat="43.05752" lon="-1.529364">
				<ele>1034</ele>
				<time>2011-04-16T14:03:47Z</time>
			</trkpt>
			<trkpt lat="43.057386" lon="-1.529458">
				<ele>1034</ele>
				<time>2011-04-16T14:03:33Z</time>
			</trkpt>
			<trkpt lat="43.057275" lon="-1.52955">
				<ele>1034</ele>
				<time>2011-04-16T14:03:21Z</time>
			</trkpt>
			<trkpt lat="43.057203" lon="-1.529617">
				<ele>1034</ele>
				<time>2011-04-16T14:03:09Z</time>
			</trkpt>
			<trkpt lat="43.057181" lon="-1.529636">
				<ele>1034</ele>
				<time>2011-04-16T14:02:55Z</time>
			</trkpt>
			<trkpt lat="43.057083" lon="-1.529778">
				<ele>1034</ele>
				<time>2011-04-16T14:02:38Z</time>
			</trkpt>
			<trkpt lat="43.056998" lon="-1.52991">
				<ele>1034</ele>
				<time>2011-04-16T14:02:24Z</time>
			</trkpt>
			<trkpt lat="43.056871" lon="-1.530044">
				<ele>1034</ele>
				<time>2011-04-16T14:02:08Z</time>
			</trkpt>
			<trkpt lat="43.056731" lon="-1.530209">
				<ele>1034</ele>
				<time>2011-04-16T14:01:50Z</time>
			</trkpt>
			<trkpt lat="43.056569" lon="-1.530366">
				<ele>1034</ele>
				<time>2011-04-16T14:01:31Z</time>
			</trkpt>
			<trkpt lat="43.05637" lon="-1.530422">
				<ele>1034</ele>
				<time>2011-04-16T14:01:09Z</time>
			</trkpt>
			<trkpt lat="43.056186" lon="-1.530479">
				<ele>1074</ele>
				<time>2011-04-16T14:00:50Z</time>
			</trkpt>
			<trkpt lat="43.056106" lon="-1.530535">
				<ele>1074</ele>
				<time>2011-04-16T14:00:41Z</time>
			</trkpt>
			<trkpt lat="43.056016" lon="-1.530575">
				<ele>1074</ele>
				<time>2011-04-16T14:00:23Z</time>
			</trkpt>
			<trkpt lat="43.055993" lon="-1.530565">
				<ele>1074</ele>
				<time>2011-04-16T14:00:08Z</time>
			</trkpt>
			<trkpt lat="43.055808" lon="-1.530632">
				<ele>1074</ele>
				<time>2011-04-16T13:59:46Z</time>
			</trkpt>
			<trkpt lat="43.055673" lon="-1.530695">
				<ele>1074</ele>
				<time>2011-04-16T13:59:31Z</time>
			</trkpt>
			<trkpt lat="43.055495" lon="-1.530756">
				<ele>1074</ele>
				<time>2011-04-16T13:59:13Z</time>
			</trkpt>
			<trkpt lat="43.055336" lon="-1.530821">
				<ele>1074</ele>
				<time>2011-04-16T13:58:57Z</time>
			</trkpt>
			<trkpt lat="43.05531" lon="-1.530834">
				<ele>1074</ele>
				<time>2011-04-16T13:58:54Z</time>
			</trkpt>
			<trkpt lat="43.055159" lon="-1.530909">
				<ele>1074</ele>
				<time>2011-04-16T13:58:38Z</time>
			</trkpt>
			<trkpt lat="43.054972" lon="-1.531005">
				<ele>1074</ele>
				<time>2011-04-16T13:58:19Z</time>
			</trkpt>
			<trkpt lat="43.054875" lon="-1.531049">
				<ele>1074</ele>
				<time>2011-04-16T13:58:04Z</time>
			</trkpt>
			<trkpt lat="43.054834" lon="-1.531054">
				<ele>1074</ele>
				<time>2011-04-16T13:58:00Z</time>
			</trkpt>
			<trkpt lat="43.054825" lon="-1.531059">
				<ele>1074</ele>
				<time>2011-04-16T13:57:59Z</time>
			</trkpt>
			<trkpt lat="43.054637" lon="-1.531151">
				<ele>1074</ele>
				<time>2011-04-16T13:57:39Z</time>
			</trkpt>
			<trkpt lat="43.054466" lon="-1.531192">
				<ele>1074</ele>
				<time>2011-04-16T13:57:23Z</time>
			</trkpt>
			<trkpt lat="43.054376" lon="-1.531229">
				<ele>1074</ele>
				<time>2011-04-16T13:57:10Z</time>
			</trkpt>
			<trkpt lat="43.054266" lon="-1.531257">
				<ele>1000</ele>
				<time>2011-04-16T13:56:54Z</time>
			</trkpt>
			<trkpt lat="43.054099" lon="-1.531307">
				<ele>1034</ele>
				<time>2011-04-16T13:56:35Z</time>
			</trkpt>
			<trkpt lat="43.054075" lon="-1.531328">
				<ele>1034</ele>
				<time>2011-04-16T13:56:32Z</time>
			</trkpt>
			<trkpt lat="43.053983" lon="-1.531371">
				<ele>1034</ele>
				<time>2011-04-16T13:56:21Z</time>
			</trkpt>
			<trkpt lat="43.053842" lon="-1.531445">
				<ele>1034</ele>
				<time>2011-04-16T13:56:04Z</time>
			</trkpt>
			<trkpt lat="43.053699" lon="-1.531535">
				<ele>1034</ele>
				<time>2011-04-16T13:55:48Z</time>
			</trkpt>
			<trkpt lat="43.05357" lon="-1.531609">
				<ele>1034</ele>
				<time>2011-04-16T13:55:33Z</time>
			</trkpt>
			<trkpt lat="43.053423" lon="-1.531679">
				<ele>1034</ele>
				<time>2011-04-16T13:55:12Z</time>
			</trkpt>
			<trkpt lat="43.053413" lon="-1.531683">
				<ele>1034</ele>
				<time>2011-04-16T13:55:11Z</time>
			</trkpt>
			<trkpt lat="43.053316" lon="-1.53174">
				<ele>1034</ele>
				<time>2011-04-16T13:54:55Z</time>
			</trkpt>
			<trkpt lat="43.053201" lon="-1.531804">
				<ele>1034</ele>
				<time>2011-04-16T13:54:40Z</time>
			</trkpt>
			<trkpt lat="43.05311" lon="-1.531833">
				<ele>1034</ele>
				<time>2011-04-16T13:54:29Z</time>
			</trkpt>
			<trkpt lat="43.05299" lon="-1.531915">
				<ele>1034</ele>
				<time>2011-04-16T13:54:14Z</time>
			</trkpt>
			<trkpt lat="43.052838" lon="-1.531974">
				<ele>1034</ele>
				<time>2011-04-16T13:54:00Z</time>
			</trkpt>
			<trkpt lat="43.052727" lon="-1.532071">
				<ele>1034</ele>
				<time>2011-04-16T13:53:45Z</time>
			</trkpt>
			<trkpt lat="43.052588" lon="-1.532173">
				<ele>1034</ele>
				<time>2011-04-16T13:53:27Z</time>
			</trkpt>
			<trkpt lat="43.052503" lon="-1.532235">
				<ele>1034</ele>
				<time>2011-04-16T13:53:13Z</time>
			</trkpt>
			<trkpt lat="43.052451" lon="-1.532353">
				<ele>1034</ele>
				<time>2011-04-16T13:53:00Z</time>
			</trkpt>
			<trkpt lat="43.052374" lon="-1.532442">
				<ele>1034</ele>
				<time>2011-04-16T13:52:47Z</time>
			</trkpt>
			<trkpt lat="43.052344" lon="-1.532507">
				<ele>1034</ele>
				<time>2011-04-16T13:52:34Z</time>
			</trkpt>
			<trkpt lat="43.052331" lon="-1.53253">
				<ele>1034</ele>
				<time>2011-04-16T13:52:19Z</time>
			</trkpt>
			<trkpt lat="43.052314" lon="-1.532635">
				<ele>1034</ele>
				<time>2011-04-16T13:52:04Z</time>
			</trkpt>
			<trkpt lat="43.052237" lon="-1.532756">
				<ele>1034</ele>
				<time>2011-04-16T13:51:45Z</time>
			</trkpt>
			<trkpt lat="43.052166" lon="-1.532861">
				<ele>1034</ele>
				<time>2011-04-16T13:51:31Z</time>
			</trkpt>
			<trkpt lat="43.052095" lon="-1.532984">
				<ele>1034</ele>
				<time>2011-04-16T13:51:15Z</time>
			</trkpt>
			<trkpt lat="43.052014" lon="-1.533087">
				<ele>1087</ele>
				<time>2011-04-16T13:51:00Z</time>
			</trkpt>
			<trkpt lat="43.05196" lon="-1.533215">
				<ele>1087</ele>
				<time>2011-04-16T13:50:43Z</time>
			</trkpt>
			<trkpt lat="43.051946" lon="-1.533275">
				<ele>1087</ele>
				<time>2011-04-16T13:50:26Z</time>
			</trkpt>
			<trkpt lat="43.051865" lon="-1.533398">
				<ele>1011</ele>
				<time>2011-04-16T13:50:10Z</time>
			</trkpt>
			<trkpt lat="43.051726" lon="-1.533489">
				<ele>1011</ele>
				<time>2011-04-16T13:49:52Z</time>
			</trkpt>
			<trkpt lat="43.051627" lon="-1.533532">
				<ele>1011</ele>
				<time>2011-04-16T13:49:39Z</time>
			</trkpt>
			<trkpt lat="43.051538" lon="-1.53362">
				<ele>1011</ele>
				<time>2011-04-16T13:49:28Z</time>
			</trkpt>
			<trkpt lat="43.051513" lon="-1.533712">
				<ele>1011</ele>
				<time>2011-04-16T13:49:19Z</time>
			</trkpt>
			<trkpt lat="43.051473" lon="-1.533901">
				<ele>1011</ele>
				<time>2011-04-16T13:49:02Z</time>
			</trkpt>
			<trkpt lat="43.051425" lon="-1.534036">
				<ele>1011</ele>
				<time>2011-04-16T13:48:50Z</time>
			</trkpt>
			<trkpt lat="43.051382" lon="-1.534144">
				<ele>1011</ele>
				<time>2011-04-16T13:48:39Z</time>
			</trkpt>
			<trkpt lat="43.051291" lon="-1.534249">
				<ele>1011</ele>
				<time>2011-04-16T13:48:25Z</time>
			</trkpt>
			<trkpt lat="43.051312" lon="-1.534244">
				<ele>1011</ele>
				<time>2011-04-16T13:48:13Z</time>
			</trkpt>
			<trkpt lat="43.051371" lon="-1.534175">
				<ele>1011</ele>
				<time>2011-04-16T13:48:00Z</time>
			</trkpt>
			<trkpt lat="43.051294" lon="-1.53428">
				<ele>1011</ele>
				<time>2011-04-16T13:47:46Z</time>
			</trkpt>
			<trkpt lat="43.051183" lon="-1.534409">
				<ele>1011</ele>
				<time>2011-04-16T13:47:29Z</time>
			</trkpt>
			<trkpt lat="43.051068" lon="-1.534473">
				<ele>1011</ele>
				<time>2011-04-16T13:47:15Z</time>
			</trkpt>
			<trkpt lat="43.050993" lon="-1.534545">
				<ele>1011</ele>
				<time>2011-04-16T13:47:02Z</time>
			</trkpt>
			<trkpt lat="43.050931" lon="-1.534598">
				<ele>1011</ele>
				<time>2011-04-16T13:46:28Z</time>
			</trkpt>
			<trkpt lat="43.050886" lon="-1.534619">
				<ele>1011</ele>
				<time>2011-04-16T13:46:11Z</time>
			</trkpt>
			<trkpt lat="43.050791" lon="-1.534683">
				<ele>1011</ele>
				<time>2011-04-16T13:45:57Z</time>
			</trkpt>
			<trkpt lat="43.050702" lon="-1.534749">
				<ele>1011</ele>
				<time>2011-04-16T13:45:42Z</time>
			</trkpt>
			<trkpt lat="43.050614" lon="-1.534861">
				<ele>1011</ele>
				<time>2011-04-16T13:45:29Z</time>
			</trkpt>
			<trkpt lat="43.050451" lon="-1.534981">
				<ele>1011</ele>
				<time>2011-04-16T13:45:11Z</time>
			</trkpt>
			<trkpt lat="43.050346" lon="-1.535061">
				<ele>1011</ele>
				<time>2011-04-16T13:44:55Z</time>
			</trkpt>
			<trkpt lat="43.050201" lon="-1.535188">
				<ele>1011</ele>
				<time>2011-04-16T13:44:39Z</time>
			</trkpt>
			<trkpt lat="43.05003" lon="-1.535295">
				<ele>1011</ele>
				<time>2011-04-16T13:44:22Z</time>
			</trkpt>
			<trkpt lat="43.049851" lon="-1.535371">
				<ele>1070</ele>
				<time>2011-04-16T13:44:05Z</time>
			</trkpt>
			<trkpt lat="43.049811" lon="-1.535385">
				<ele>1070</ele>
				<time>2011-04-16T13:44:01Z</time>
			</trkpt>
			<trkpt lat="43.049761" lon="-1.535407">
				<ele>1070</ele>
				<time>2011-04-16T13:43:55Z</time>
			</trkpt>
			<trkpt lat="43.049747" lon="-1.535517">
				<ele>1052</ele>
				<time>2011-04-16T13:43:44Z</time>
			</trkpt>
			<trkpt lat="43.049793" lon="-1.535746">
				<ele>1052</ele>
				<time>2011-04-16T13:43:28Z</time>
			</trkpt>
			<trkpt lat="43.049816" lon="-1.536033">
				<ele>1052</ele>
				<time>2011-04-16T13:43:09Z</time>
			</trkpt>
			<trkpt lat="43.049824" lon="-1.536089">
				<ele>1052</ele>
				<time>2011-04-16T13:43:03Z</time>
			</trkpt>
			<trkpt lat="43.049894" lon="-1.53631">
				<ele>1052</ele>
				<time>2011-04-16T13:42:46Z</time>
			</trkpt>
			<trkpt lat="43.049903" lon="-1.536348">
				<ele>1052</ele>
				<time>2011-04-16T13:42:39Z</time>
			</trkpt>
			<trkpt lat="43.049958" lon="-1.536646">
				<ele>1052</ele>
				<time>2011-04-16T13:42:19Z</time>
			</trkpt>
			<trkpt lat="43.049998" lon="-1.536851">
				<ele>1052</ele>
				<time>2011-04-16T13:42:02Z</time>
			</trkpt>
			<trkpt lat="43.050042" lon="-1.537101">
				<ele>942</ele>
				<time>2011-04-16T13:41:43Z</time>
			</trkpt>
			<trkpt lat="43.050068" lon="-1.53729">
				<ele>942</ele>
				<time>2011-04-16T13:41:26Z</time>
			</trkpt>
			<trkpt lat="43.050101" lon="-1.537534">
				<ele>961</ele>
				<time>2011-04-16T13:41:06Z</time>
			</trkpt>
			<trkpt lat="43.050123" lon="-1.537658">
				<ele>961</ele>
				<time>2011-04-16T13:40:37Z</time>
			</trkpt>
			<trkpt lat="43.05012" lon="-1.537836">
				<ele>961</ele>
				<time>2011-04-16T13:40:20Z</time>
			</trkpt>
			<trkpt lat="43.050099" lon="-1.537966">
				<ele>961</ele>
				<time>2011-04-16T13:40:02Z</time>
			</trkpt>
			<trkpt lat="43.050104" lon="-1.538121">
				<ele>961</ele>
				<time>2011-04-16T13:39:45Z</time>
			</trkpt>
			<trkpt lat="43.050108" lon="-1.538233">
				<ele>961</ele>
				<time>2011-04-16T13:39:32Z</time>
			</trkpt>
			<trkpt lat="43.050109" lon="-1.538353">
				<ele>961</ele>
				<time>2011-04-16T13:39:16Z</time>
			</trkpt>
			<trkpt lat="43.050107" lon="-1.538476">
				<ele>961</ele>
				<time>2011-04-16T13:38:56Z</time>
			</trkpt>
			<trkpt lat="43.050114" lon="-1.538461">
				<ele>961</ele>
				<time>2011-04-16T13:38:36Z</time>
			</trkpt>
			<trkpt lat="43.050133" lon="-1.538462">
				<ele>961</ele>
				<time>2011-04-16T13:38:18Z</time>
			</trkpt>
			<trkpt lat="43.050162" lon="-1.538473">
				<ele>961</ele>
				<time>2011-04-16T13:38:05Z</time>
			</trkpt>
			<trkpt lat="43.050139" lon="-1.538545">
				<ele>961</ele>
				<time>2011-04-16T13:37:53Z</time>
			</trkpt>
			<trkpt lat="43.050216" lon="-1.538521">
				<ele>961</ele>
				<time>2011-04-16T13:37:37Z</time>
			</trkpt>
			<trkpt lat="43.050254" lon="-1.538535">
				<ele>961</ele>
				<time>2011-04-16T13:37:32Z</time>
			</trkpt>
			<trkpt lat="43.05025" lon="-1.538567">
				<ele>961</ele>
				<time>2011-04-16T13:37:28Z</time>
			</trkpt>
			<trkpt lat="43.05019" lon="-1.538822">
				<ele>961</ele>
				<time>2011-04-16T13:37:11Z</time>
			</trkpt>
			<trkpt lat="43.05019" lon="-1.53883">
				<ele>961</ele>
				<time>2020-04-19T06:04:08Z</time>
			</trkpt>
			<trkpt lat="43.050193" lon="-1.538855">
				<ele>961</ele>
				<time>2020-04-19T06:04:28Z</time>
			</trkpt>
			<trkpt lat="43.0502" lon="-1.538879">
				<ele>961</ele>
				<time>2020-04-19T06:04:48Z</time>
			</trkpt>
			<trkpt lat="43.050207" lon="-1.538906">
				<ele>961</ele>
				<time>2020-04-19T06:05:08Z</time>
			</trkpt>
			<trkpt lat="43.050216" lon="-1.538933">
				<ele>961</ele>
				<time>2020-04-19T06:05:28Z</time>
			</trkpt>
			<trkpt lat="43.050226" lon="-1.538956">
				<ele>961</ele>
				<time>2020-04-19T06:05:48Z</time>
			</trkpt>
			<trkpt lat="43.050234" lon="-1.538988">
				<ele>961</ele>
				<time>2020-04-19T06:06:08Z</time>
			</trkpt>
			<trkpt lat="43.050232" lon="-1.538961">
				<ele>961</ele>
				<time>2011-04-16T13:35:59Z</time>
			</trkpt>
			<trkpt lat="43.050232" lon="-1.538958">
				<ele>961</ele>
				<time>2011-04-16T13:35:57Z</time>
			</trkpt>
			<trkpt lat="43.050232" lon="-1.538958">
				<ele>961</ele>
				<time>2011-04-16T13:35:56Z</time>
			</trkpt>
			<trkpt lat="43.050236" lon="-1.538987">
				<ele>961</ele>
				<time>2011-04-16T13:35:45Z</time>
			</trkpt>
			<trkpt lat="43.050235" lon="-1.538986">
				<ele>961</ele>
				<time>2011-04-16T13:35:44Z</time>
			</trkpt>
			<trkpt lat="43.050232" lon="-1.538988">
				<ele>961</ele>
				<time>2011-04-16T13:35:42Z</time>
			</trkpt>
			<trkpt lat="43.050231" lon="-1.538987">
				<ele>961</ele>
				<time>2011-04-16T13:35:41Z</time>
			</trkpt>
			<trkpt lat="43.050231" lon="-1.538988">
				<ele>961</ele>
				<time>2011-04-16T13:35:40Z</time>
			</trkpt>
			<trkpt lat="43.050231" lon="-1.538988">
				<ele>961</ele>
				<time>2011-04-16T13:35:39Z</time>
			</trkpt>
			<trkpt lat="43.050231" lon="-1.538987">
				<ele>961</ele>
				<time>2011-04-16T13:35:38Z</time>
			</trkpt>
			<trkpt lat="43.050231" lon="-1.538986">
				<ele>961</ele>
				<time>2011-04-16T13:35:37Z</time>
			</trkpt>
			<trkpt lat="43.05023" lon="-1.538981">
				<ele>961</ele>
				<time>2011-04-16T13:35:32Z</time>
			</trkpt>
			<trkpt lat="43.050294" lon="-1.539162">
				<ele>961</ele>
				<time>2011-04-16T13:35:17Z</time>
			</trkpt>
			<trkpt lat="43.050307" lon="-1.539215">
				<ele>961</ele>
				<time>2011-04-16T13:35:14Z</time>
			</trkpt>
			<trkpt lat="43.050215" lon="-1.539462">
				<ele>961</ele>
				<time>2011-04-16T13:34:58Z</time>
			</trkpt>
			<trkpt lat="43.050058" lon="-1.539747">
				<ele>1020</ele>
				<time>2011-04-16T13:34:39Z</time>
			</trkpt>
			<trkpt lat="43.050021" lon="-1.539845">
				<ele>1020</ele>
				<time>2011-04-16T13:34:33Z</time>
			</trkpt>
			<trkpt lat="43.049989" lon="-1.5399">
				<ele>958</ele>
				<time>2011-04-16T13:34:24Z</time>
			</trkpt>
			<trkpt lat="43.049936" lon="-1.540144">
				<ele>958</ele>
				<time>2011-04-16T13:34:07Z</time>
			</trkpt>
			<trkpt lat="43.049839" lon="-1.540572">
				<ele>958</ele>
				<time>2011-04-16T13:33:44Z</time>
			</trkpt>
			<trkpt lat="43.049724" lon="-1.540932">
				<ele>958</ele>
				<time>2011-04-16T13:33:23Z</time>
			</trkpt>
			<trkpt lat="43.049694" lon="-1.541019">
				<ele>958</ele>
				<time>2011-04-16T13:33:18Z</time>
			</trkpt>
			<trkpt lat="43.049658" lon="-1.54122">
				<ele>958</ele>
				<time>2011-04-16T13:33:03Z</time>
			</trkpt>
			<trkpt lat="43.049591" lon="-1.541481">
				<ele>958</ele>
				<time>2011-04-16T13:32:48Z</time>
			</trkpt>
			<trkpt lat="43.049523" lon="-1.541801">
				<ele>1001</ele>
				<time>2011-04-16T13:32:32Z</time>
			</trkpt>
			<trkpt lat="43.049352" lon="-1.54215">
				<ele>1001</ele>
				<time>2011-04-16T13:32:09Z</time>
			</trkpt>
			<trkpt lat="43.049227" lon="-1.542357">
				<ele>1001</ele>
				<time>2011-04-16T13:31:53Z</time>
			</trkpt>
			<trkpt lat="43.049207" lon="-1.542404">
				<ele>1001</ele>
				<time>2011-04-16T13:31:50Z</time>
			</trkpt>
			<trkpt lat="43.049136" lon="-1.542581">
				<ele>1001</ele>
				<time>2011-04-16T13:31:39Z</time>
			</trkpt>
			<trkpt lat="43.049113" lon="-1.54266">
				<ele>1001</ele>
				<time>2011-04-16T13:31:32Z</time>
			</trkpt>
			<trkpt lat="43.049054" lon="-1.542995">
				<ele>1001</ele>
				<time>2011-04-16T13:31:13Z</time>
			</trkpt>
			<trkpt lat="43.049046" lon="-1.543106">
				<ele>1001</ele>
				<time>2011-04-16T13:30:58Z</time>
			</trkpt>
			<trkpt lat="43.049006" lon="-1.543203">
				<ele>1001</ele>
				<time>2011-04-16T13:30:33Z</time>
			</trkpt>
			<trkpt lat="43.049027" lon="-1.543261">
				<ele>1001</ele>
				<time>2011-04-16T13:30:19Z</time>
			</trkpt>
			<trkpt lat="43.049043" lon="-1.543388">
				<ele>1001</ele>
				<time>2011-04-16T13:30:06Z</time>
			</trkpt>
			<trkpt lat="43.049083" lon="-1.543672">
				<ele>1001</ele>
				<time>2011-04-16T13:29:48Z</time>
			</trkpt>
			<trkpt lat="43.049172" lon="-1.543955">
				<ele>986</ele>
				<time>2011-04-16T13:29:31Z</time>
			</trkpt>
			<trkpt lat="43.049392" lon="-1.544269">
				<ele>986</ele>
				<time>2011-04-16T13:29:09Z</time>
			</trkpt>
			<trkpt lat="43.049635" lon="-1.544498">
				<ele>986</ele>
				<time>2011-04-16T13:28:48Z</time>
			</trkpt>
			<trkpt lat="43.049716" lon="-1.544744">
				<ele>986</ele>
				<time>2011-04-16T13:28:33Z</time>
			</trkpt>
			<trkpt lat="43.049863" lon="-1.544994">
				<ele>986</ele>
				<time>2011-04-16T13:28:16Z</time>
			</trkpt>
			<trkpt lat="43.050046" lon="-1.545359">
				<ele>1116</ele>
				<time>2011-04-16T13:27:52Z</time>
			</trkpt>
			<trkpt lat="43.050237" lon="-1.545708">
				<ele>1116</ele>
				<time>2011-04-16T13:27:29Z</time>
			</trkpt>
			<trkpt lat="43.050319" lon="-1.546069">
				<ele>1060</ele>
				<time>2011-04-16T13:27:09Z</time>
			</trkpt>
			<trkpt lat="43.050346" lon="-1.546349">
				<ele>1060</ele>
				<time>2011-04-16T13:26:52Z</time>
			</trkpt>
			<trkpt lat="43.050399" lon="-1.546531">
				<ele>1060</ele>
				<time>2011-04-16T13:26:37Z</time>
			</trkpt>
			<trkpt lat="43.050621" lon="-1.546792">
				<ele>1060</ele>
				<time>2011-04-16T13:26:15Z</time>
			</trkpt>
			<trkpt lat="43.050851" lon="-1.547007">
				<ele>1060</ele>
				<time>2011-04-16T13:25:54Z</time>
			</trkpt>
			<trkpt lat="43.050995" lon="-1.5472">
				<ele>1060</ele>
				<time>2011-04-16T13:25:39Z</time>
			</trkpt>
			<trkpt lat="43.051149" lon="-1.547451">
				<ele>1060</ele>
				<time>2011-04-16T13:25:21Z</time>
			</trkpt>
			<trkpt lat="43.051215" lon="-1.54757">
				<ele>1060</ele>
				<time>2011-04-16T13:25:03Z</time>
			</trkpt>
			<trkpt lat="43.051383" lon="-1.547789">
				<ele>1060</ele>
				<time>2011-04-16T13:24:44Z</time>
			</trkpt>
			<trkpt lat="43.051553" lon="-1.547996">
				<ele>1071</ele>
				<time>2011-04-16T13:24:27Z</time>
			</trkpt>
			<trkpt lat="43.051738" lon="-1.548261">
				<ele>1071</ele>
				<time>2011-04-16T13:24:08Z</time>
			</trkpt>
			<trkpt lat="43.051747" lon="-1.548274">
				<ele>1071</ele>
				<time>2011-04-16T13:24:07Z</time>
			</trkpt>
			<trkpt lat="43.051722" lon="-1.548502">
				<ele>1071</ele>
				<time>2011-04-16T13:23:53Z</time>
			</trkpt>
			<trkpt lat="43.051554" lon="-1.548779">
				<ele>1071</ele>
				<time>2011-04-16T13:23:34Z</time>
			</trkpt>
			<trkpt lat="43.051333" lon="-1.549096">
				<ele>1071</ele>
				<time>2011-04-16T13:23:11Z</time>
			</trkpt>
			<trkpt lat="43.051195" lon="-1.549259">
				<ele>1071</ele>
				<time>2011-04-16T13:22:58Z</time>
			</trkpt>
			<trkpt lat="43.050993" lon="-1.54931">
				<ele>1071</ele>
				<time>2011-04-16T13:22:42Z</time>
			</trkpt>
			<trkpt lat="43.050782" lon="-1.549332">
				<ele>1071</ele>
				<time>2011-04-16T13:22:26Z</time>
			</trkpt>
			<trkpt lat="43.050728" lon="-1.549343">
				<ele>1071</ele>
				<time>2011-05-16T08:22:34Z</time>
			</trkpt>
			<trkpt lat="43.050682" lon="-1.549358">
				<ele>1071</ele>
				<time>2011-06-10T23:47:32Z</time>
			</trkpt>
			<trkpt lat="43.050644" lon="-1.549369">
				<ele>1071</ele>
				<time>2011-07-03T00:42:04Z</time>
			</trkpt>
			<trkpt lat="43.050644" lon="-1.549408">
				<ele>1071</ele>
				<time>2011-07-18T10:21:50Z</time>
			</trkpt>
			<trkpt lat="43.050678" lon="-1.549425">
				<ele>1071</ele>
				<time>2011-08-07T09:15:00Z</time>
			</trkpt>
			<trkpt lat="43.05072" lon="-1.549435">
				<ele>1071</ele>
				<time>2011-08-30T13:00:22Z</time>
			</trkpt>
			<trkpt lat="43.050758" lon="-1.549448">
				<ele>1071</ele>
				<time>2011-09-20T22:04:56Z</time>
			</trkpt>
			<trkpt lat="43.0508" lon="-1.549448">
				<ele>1071</ele>
				<time>2011-10-13T17:34:40Z</time>
			</trkpt>
			<trkpt lat="43.05085" lon="-1.549453">
				<ele>1071</ele>
				<time>2011-11-09T19:38:33Z</time>
			</trkpt>
			<trkpt lat="43.050907" lon="-1.54946">
				<ele>1071</ele>
				<time>2011-12-11T01:58:55Z</time>
			</trkpt>
			<trkpt lat="43.05098" lon="-1.549493">
				<ele>1071</ele>
				<time>2012-01-21T14:45:47Z</time>
			</trkpt>
			<trkpt lat="43.051041" lon="-1.549525">
				<ele>1071</ele>
				<time>2012-02-26T06:11:45Z</time>
			</trkpt>
			<trkpt lat="43.051098" lon="-1.54957">
				<ele>1071</ele>
				<time>2012-04-02T03:21:55Z</time>
			</trkpt>
			<trkpt lat="43.051167" lon="-1.549617">
				<ele>1071</ele>
				<time>2012-05-14T00:10:40Z</time>
			</trkpt>
			<trkpt lat="43.051193" lon="-1.549655">
				<ele>1071</ele>
				<time>2012-06-03T18:47:52Z</time>
			</trkpt>
			<trkpt lat="43.051247" lon="-1.5497">
				<ele>1071</ele>
				<time>2012-07-08T00:02:27Z</time>
			</trkpt>
			<trkpt lat="43.051323" lon="-1.549767">
				<ele>1071</ele>
				<time>2012-08-26T11:02:44Z</time>
			</trkpt>
			<trkpt lat="43.051418" lon="-1.549865">
				<ele>1071</ele>
				<time>2012-10-30T06:47:43Z</time>
			</trkpt>
			<trkpt lat="43.051464" lon="-1.549912">
				<ele>1071</ele>
				<time>2012-11-30T09:00:16Z</time>
			</trkpt>
			<trkpt lat="43.051544" lon="-1.549963">
				<ele>1071</ele>
				<time>2013-01-17T12:06:51Z</time>
			</trkpt>
			<trkpt lat="43.051617" lon="-1.550048">
				<ele>1140</ele>
				<time>2013-03-10T13:04:25Z</time>
			</trkpt>
			<trkpt lat="43.051666" lon="-1.550087">
				<ele>1140</ele>
				<time>2013-04-10T12:59:18Z</time>
			</trkpt>
			<trkpt lat="43.051792" lon="-1.550209">
				<ele>1140</ele>
				<time>2013-07-03T14:24:53Z</time>
			</trkpt>
			<trkpt lat="43.051861" lon="-1.55027">
				<ele>1140</ele>
				<time>2013-08-17T00:15:50Z</time>
			</trkpt>
			<trkpt lat="43.05193" lon="-1.550316">
				<ele>1140</ele>
				<time>2013-09-27T19:41:58Z</time>
			</trkpt>
			<trkpt lat="43.051979" lon="-1.550372">
				<ele>1140</ele>
				<time>2013-11-01T14:01:18Z</time>
			</trkpt>
			<trkpt lat="43.052032" lon="-1.550435">
				<ele>1140</ele>
				<time>2013-12-10T04:07:44Z</time>
			</trkpt>
			<trkpt lat="43.052078" lon="-1.550504">
				<ele>1140</ele>
				<time>2014-01-15T23:05:49Z</time>
			</trkpt>
			<trkpt lat="43.052116" lon="-1.550559">
				<ele>1104</ele>
				<time>2014-02-15T05:48:07Z</time>
			</trkpt>
			<trkpt lat="43.052162" lon="-1.550648">
				<ele>1104</ele>
				<time>2014-03-30T16:42:18Z</time>
			</trkpt>
			<trkpt lat="43.052177" lon="-1.550744">
				<ele>1104</ele>
				<time>2014-05-08T11:10:18Z</time>
			</trkpt>
			<trkpt lat="43.052189" lon="-1.55084">
				<ele>1104</ele>
				<time>2014-06-16T05:38:19Z</time>
			</trkpt>
			<trkpt lat="43.052181" lon="-1.550938">
				<ele>1104</ele>
				<time>2014-07-25T07:40:39Z</time>
			</trkpt>
			<trkpt lat="43.052174" lon="-1.551082">
				<ele>1104</ele>
				<time>2014-09-21T02:05:05Z</time>
			</trkpt>
			<trkpt lat="43.052155" lon="-1.551176">
				<ele>1104</ele>
				<time>2014-10-29T17:20:20Z</time>
			</trkpt>
			<trkpt lat="43.052135" lon="-1.55127">
				<ele>1104</ele>
				<time>2014-12-07T09:58:12Z</time>
			</trkpt>
			<trkpt lat="43.052101" lon="-1.551376">
				<ele>1104</ele>
				<time>2015-01-22T14:29:57Z</time>
			</trkpt>
			<trkpt lat="43.052063" lon="-1.551474">
				<ele>1140</ele>
				<time>2015-03-07T18:09:10Z</time>
			</trkpt>
			<trkpt lat="43.051994" lon="-1.551571">
				<ele>1140</ele>
				<time>2015-04-30T10:48:33Z</time>
			</trkpt>
			<trkpt lat="43.051887" lon="-1.55174">
				<ele>1140</ele>
				<time>2015-07-28T11:19:34Z</time>
			</trkpt>
			<trkpt lat="43.051788" lon="-1.551871">
				<ele>1140</ele>
				<time>2015-10-11T10:32:04Z</time>
			</trkpt>
			<trkpt lat="43.05167" lon="-1.55205">
				<ele>1140</ele>
				<time>2016-01-15T10:05:58Z</time>
			</trkpt>
			<trkpt lat="43.051559" lon="-1.552205">
				<ele>1180</ele>
				<time>2016-04-10T13:46:41Z</time>
			</trkpt>
			<trkpt lat="43.051415" lon="-1.552474">
				<ele>1180</ele>
				<time>2016-08-21T14:30:25Z</time>
			</trkpt>
			<trkpt lat="43.051308" lon="-1.552567">
				<ele>1180</ele>
				<time>2016-10-29T12:14:12Z</time>
			</trkpt>
			<trkpt lat="43.051239" lon="-1.552621">
				<ele>1180</ele>
				<time>2016-12-11T12:21:18Z</time>
			</trkpt>
			<trkpt lat="43.051167" lon="-1.552679">
				<ele>1180</ele>
				<time>2017-01-26T04:29:35Z</time>
			</trkpt>
			<trkpt lat="43.05107" lon="-1.55273">
				<ele>1180</ele>
				<time>2018-03-30T04:06:44Z</time>
			</trkpt>
			<trkpt lat="43.051034" lon="-1.552782">
				<ele>1180</ele>
				<time>2018-04-28T12:06:02Z</time>
			</trkpt>
			<trkpt lat="43.051" lon="-1.552828">
				<ele>1180</ele>
				<time>2018-04-28T12:06:12Z</time>
			</trkpt>
			<trkpt lat="43.050971" lon="-1.552882">
				<ele>1180</ele>
				<time>2018-04-28T12:06:23Z</time>
			</trkpt>
			<trkpt lat="43.05093" lon="-1.552917">
				<ele>1180</ele>
				<time>2018-04-28T12:06:31Z</time>
			</trkpt>
			<trkpt lat="43.050893" lon="-1.55297">
				<ele>1180</ele>
				<time>2018-04-28T12:06:38Z</time>
			</trkpt>
			<trkpt lat="43.050865" lon="-1.55302">
				<ele>1180</ele>
				<time>2018-04-28T12:06:44Z</time>
			</trkpt>
			<trkpt lat="43.050835" lon="-1.553074">
				<ele>1180</ele>
				<time>2018-04-28T12:06:50Z</time>
			</trkpt>
			<trkpt lat="43.050791" lon="-1.553106">
				<ele>1180</ele>
				<time>2018-04-28T12:06:58Z</time>
			</trkpt>
			<trkpt lat="43.050745" lon="-1.553145">
				<ele>1180</ele>
				<time>2018-04-28T12:07:04Z</time>
			</trkpt>
			<trkpt lat="43.050703" lon="-1.553183">
				<ele>1180</ele>
				<time>2018-04-28T12:07:13Z</time>
			</trkpt>
			<trkpt lat="43.050666" lon="-1.553228">
				<ele>1180</ele>
				<time>2018-04-28T12:07:20Z</time>
			</trkpt>
			<trkpt lat="43.05063" lon="-1.553268">
				<ele>1180</ele>
				<time>2018-04-28T12:07:28Z</time>
			</trkpt>
			<trkpt lat="43.050595" lon="-1.553312">
				<ele>1180</ele>
				<time>2018-04-28T12:07:35Z</time>
			</trkpt>
			<trkpt lat="43.050561" lon="-1.553354">
				<ele>1180</ele>
				<time>2018-04-28T12:07:40Z</time>
			</trkpt>
			<trkpt lat="43.050524" lon="-1.553404">
				<ele>1180</ele>
				<time>2018-04-28T12:07:46Z</time>
			</trkpt>
			<trkpt lat="43.050479" lon="-1.553452">
				<ele>1180</ele>
				<time>2018-04-28T12:07:53Z</time>
			</trkpt>
			<trkpt lat="43.050445" lon="-1.553509">
				<ele>1180</ele>
				<time>2018-04-28T12:07:59Z</time>
			</trkpt>
			<trkpt lat="43.050414" lon="-1.553556">
				<ele>1180</ele>
				<time>2018-04-28T12:08:05Z</time>
			</trkpt>
			<trkpt lat="43.050391" lon="-1.553611">
				<ele>1180</ele>
				<time>2018-04-28T12:08:10Z</time>
			</trkpt>
			<trkpt lat="43.050342" lon="-1.553631">
				<ele>1180</ele>
				<time>2018-04-28T12:08:18Z</time>
			</trkpt>
			<trkpt lat="43.050306" lon="-1.553671">
				<ele>1180</ele>
				<time>2018-04-28T12:08:24Z</time>
			</trkpt>
			<trkpt lat="43.050269" lon="-1.553709">
				<ele>1180</ele>
				<time>2018-04-28T12:08:30Z</time>
			</trkpt>
			<trkpt lat="43.050243" lon="-1.553767">
				<ele>1180</ele>
				<time>2018-04-28T12:08:34Z</time>
			</trkpt>
			<trkpt lat="43.050199" lon="-1.553813">
				<ele>1180</ele>
				<time>2018-04-28T12:08:40Z</time>
			</trkpt>
			<trkpt lat="43.050159" lon="-1.553855">
				<ele>1180</ele>
				<time>2018-04-28T12:08:45Z</time>
			</trkpt>
			<trkpt lat="43.050132" lon="-1.553918">
				<ele>1180</ele>
				<time>2018-04-28T12:08:51Z</time>
			</trkpt>
			<trkpt lat="43.050087" lon="-1.553967">
				<ele>1180</ele>
				<time>2018-04-28T12:08:56Z</time>
			</trkpt>
			<trkpt lat="43.05005" lon="-1.554004">
				<ele>1180</ele>
				<time>2018-04-28T12:09:00Z</time>
			</trkpt>
			<trkpt lat="43.050001" lon="-1.554027">
				<ele>1180</ele>
				<time>2018-04-28T12:09:05Z</time>
			</trkpt>
			<trkpt lat="43.04996" lon="-1.554071">
				<ele>1215</ele>
				<time>2018-04-28T12:09:10Z</time>
			</trkpt>
			<trkpt lat="43.04992" lon="-1.554118">
				<ele>1215</ele>
				<time>2018-04-28T12:09:14Z</time>
			</trkpt>
			<trkpt lat="43.049882" lon="-1.554164">
				<ele>1215</ele>
				<time>2018-04-28T12:09:18Z</time>
			</trkpt>
			<trkpt lat="43.049839" lon="-1.554197">
				<ele>1272</ele>
				<time>2018-04-28T12:09:23Z</time>
			</trkpt>
			<trkpt lat="43.0498" lon="-1.554247">
				<ele>1272</ele>
				<time>2018-04-28T12:09:28Z</time>
			</trkpt>
			<trkpt lat="43.049765" lon="-1.554297">
				<ele>1272</ele>
				<time>2018-04-28T12:09:35Z</time>
			</trkpt>
			<trkpt lat="43.049738" lon="-1.554351">
				<ele>1272</ele>
				<time>2018-04-28T12:09:42Z</time>
			</trkpt>
			<trkpt lat="43.049699" lon="-1.554386">
				<ele>1272</ele>
				<time>2018-04-28T12:09:54Z</time>
			</trkpt>
			<trkpt lat="43.04965" lon="-1.554406">
				<ele>1272</ele>
				<time>2018-04-28T12:10:02Z</time>
			</trkpt>
			<trkpt lat="43.049607" lon="-1.554455">
				<ele>1272</ele>
				<time>2018-04-28T12:10:09Z</time>
			</trkpt>
			<trkpt lat="43.049601" lon="-1.554523">
				<ele>1272</ele>
				<time>2018-04-28T12:10:13Z</time>
			</trkpt>
			<trkpt lat="43.049585" lon="-1.554587">
				<ele>1272</ele>
				<time>2018-04-28T12:10:19Z</time>
			</trkpt>
			<trkpt lat="43.049554" lon="-1.554643">
				<ele>1272</ele>
				<time>2018-04-28T12:10:28Z</time>
			</trkpt>
			<trkpt lat="43.049536" lon="-1.554704">
				<ele>1272</ele>
				<time>2018-04-28T12:10:35Z</time>
			</trkpt>
			<trkpt lat="43.049509" lon="-1.554754">
				<ele>1272</ele>
				<time>2018-04-28T12:10:40Z</time>
			</trkpt>
			<trkpt lat="43.049474" lon="-1.554808">
				<ele>1272</ele>
				<time>2018-04-28T12:10:52Z</time>
			</trkpt>
			<trkpt lat="43.049439" lon="-1.554852">
				<ele>1272</ele>
				<time>2018-04-28T12:11:02Z</time>
			</trkpt>
			<trkpt lat="43.049398" lon="-1.554901">
				<ele>1272</ele>
				<time>2018-04-28T12:11:10Z</time>
			</trkpt>
			<trkpt lat="43.049376" lon="-1.554957">
				<ele>1272</ele>
				<time>2018-04-28T12:11:16Z</time>
			</trkpt>
			<trkpt lat="43.04935" lon="-1.555007">
				<ele>1272</ele>
				<time>2018-04-28T12:11:23Z</time>
			</trkpt>
			<trkpt lat="43.049317" lon="-1.555058">
				<ele>1272</ele>
				<time>2018-04-28T12:11:28Z</time>
			</trkpt>
			<trkpt lat="43.049303" lon="-1.555118">
				<ele>1272</ele>
				<time>2018-04-28T12:11:34Z</time>
			</trkpt>
			<trkpt lat="43.049268" lon="-1.555169">
				<ele>1272</ele>
				<time>2018-04-28T12:11:43Z</time>
			</trkpt>
			<trkpt lat="43.049244" lon="-1.555233">
				<ele>1272</ele>
				<time>2018-04-28T12:11:51Z</time>
			</trkpt>
			<trkpt lat="43.049214" lon="-1.555292">
				<ele>1272</ele>
				<time>2018-04-28T12:11:57Z</time>
			</trkpt>
			<trkpt lat="43.04918" lon="-1.555336">
				<ele>1272</ele>
				<time>2018-04-28T12:12:02Z</time>
			</trkpt>
			<trkpt lat="43.049154" lon="-1.555398">
				<ele>1272</ele>
				<time>2018-04-28T12:12:08Z</time>
			</trkpt>
			<trkpt lat="43.04913" lon="-1.555456">
				<ele>1272</ele>
				<time>2018-04-28T12:12:13Z</time>
			</trkpt>
			<trkpt lat="43.049097" lon="-1.55552">
				<ele>1272</ele>
				<time>2018-04-28T12:12:18Z</time>
			</trkpt>
			<trkpt lat="43.049066" lon="-1.555575">
				<ele>1272</ele>
				<time>2018-04-28T12:12:23Z</time>
			</trkpt>
			<trkpt lat="43.049029" lon="-1.555632">
				<ele>1272</ele>
				<time>2018-04-28T12:12:29Z</time>
			</trkpt>
			<trkpt lat="43.049005" lon="-1.555696">
				<ele>1272</ele>
				<time>2018-04-28T12:12:34Z</time>
			</trkpt>
			<trkpt lat="43.048983" lon="-1.55576">
				<ele>1272</ele>
				<time>2018-04-28T12:12:39Z</time>
			</trkpt>
			<trkpt lat="43.048962" lon="-1.555818">
				<ele>1272</ele>
				<time>2018-04-28T12:12:46Z</time>
			</trkpt>
			<trkpt lat="43.048942" lon="-1.55588">
				<ele>1272</ele>
				<time>2018-04-28T12:12:51Z</time>
			</trkpt>
			<trkpt lat="43.048904" lon="-1.555921">
				<ele>1272</ele>
				<time>2018-04-28T12:12:56Z</time>
			</trkpt>
			<trkpt lat="43.048877" lon="-1.555975">
				<ele>1272</ele>
				<time>2018-04-28T12:13:03Z</time>
			</trkpt>
			<trkpt lat="43.048866" lon="-1.556041">
				<ele>1272</ele>
				<time>2018-04-28T12:13:08Z</time>
			</trkpt>
			<trkpt lat="43.048862" lon="-1.556104">
				<ele>1272</ele>
				<time>2018-04-28T12:13:13Z</time>
			</trkpt>
			<trkpt lat="43.048825" lon="-1.556148">
				<ele>1272</ele>
				<time>2018-04-28T12:13:22Z</time>
			</trkpt>
			<trkpt lat="43.048787" lon="-1.556193">
				<ele>1272</ele>
				<time>2018-04-28T12:13:33Z</time>
			</trkpt>
			<trkpt lat="43.048751" lon="-1.556232">
				<ele>1272</ele>
				<time>2018-04-28T12:13:41Z</time>
			</trkpt>
			<trkpt lat="43.048707" lon="-1.556254">
				<ele>1307</ele>
				<time>2018-04-28T12:13:49Z</time>
			</trkpt>
			<trkpt lat="43.048662" lon="-1.556281">
				<ele>1307</ele>
				<time>2018-04-28T12:13:55Z</time>
			</trkpt>
			<trkpt lat="43.048622" lon="-1.556328">
				<ele>1307</ele>
				<time>2018-04-28T12:14:04Z</time>
			</trkpt>
			<trkpt lat="43.048618" lon="-1.55639">
				<ele>1307</ele>
				<time>2018-04-28T12:14:12Z</time>
			</trkpt>
			<trkpt lat="43.048598" lon="-1.556446">
				<ele>1307</ele>
				<time>2018-04-28T12:14:15Z</time>
			</trkpt>
			<trkpt lat="43.048595" lon="-1.556518">
				<ele>1307</ele>
				<time>2018-04-28T12:14:21Z</time>
			</trkpt>
			<trkpt lat="43.048576" lon="-1.55658">
				<ele>1307</ele>
				<time>2018-04-28T12:14:30Z</time>
			</trkpt>
			<trkpt lat="43.048543" lon="-1.556636">
				<ele>1307</ele>
				<time>2018-04-28T12:14:40Z</time>
			</trkpt>
			<trkpt lat="43.048512" lon="-1.556682">
				<ele>1307</ele>
				<time>2018-04-28T12:14:47Z</time>
			</trkpt>
			<trkpt lat="43.048482" lon="-1.556739">
				<ele>1307</ele>
				<time>2018-04-28T12:14:53Z</time>
			</trkpt>
			<trkpt lat="43.048455" lon="-1.556795">
				<ele>1307</ele>
				<time>2018-04-28T12:15:02Z</time>
			</trkpt>
			<trkpt lat="43.048436" lon="-1.556856">
				<ele>1307</ele>
				<time>2018-04-28T12:15:11Z</time>
			</trkpt>
			<trkpt lat="43.048416" lon="-1.556917">
				<ele>1307</ele>
				<time>2018-04-28T12:15:18Z</time>
			</trkpt>
			<trkpt lat="43.048378" lon="-1.556956">
				<ele>1307</ele>
				<time>2018-04-28T12:15:24Z</time>
			</trkpt>
			<trkpt lat="43.048367" lon="-1.557021">
				<ele>1307</ele>
				<time>2018-04-28T12:15:30Z</time>
			</trkpt>
			<trkpt lat="43.048351" lon="-1.557085">
				<ele>1307</ele>
				<time>2018-04-28T12:15:38Z</time>
			</trkpt>
			<trkpt lat="43.048338" lon="-1.557148">
				<ele>1307</ele>
				<time>2018-04-28T12:15:47Z</time>
			</trkpt>
			<trkpt lat="43.048312" lon="-1.557208">
				<ele>1307</ele>
				<time>2018-04-28T12:15:54Z</time>
			</trkpt>
			<trkpt lat="43.048286" lon="-1.557261">
				<ele>1307</ele>
				<time>2018-04-28T12:16:02Z</time>
			</trkpt>
			<trkpt lat="43.048254" lon="-1.557308">
				<ele>1307</ele>
				<time>2018-04-28T12:16:12Z</time>
			</trkpt>
			<trkpt lat="43.048233" lon="-1.557373">
				<ele>1307</ele>
				<time>2018-04-28T12:16:19Z</time>
			</trkpt>
			<trkpt lat="43.048227" lon="-1.557436">
				<ele>1307</ele>
				<time>2018-04-28T12:16:27Z</time>
			</trkpt>
			<trkpt lat="43.048214" lon="-1.557498">
				<ele>1307</ele>
				<time>2018-04-28T12:16:36Z</time>
			</trkpt>
			<trkpt lat="43.048176" lon="-1.557531">
				<ele>1307</ele>
				<time>2018-04-28T12:16:46Z</time>
			</trkpt>
			<trkpt lat="43.048143" lon="-1.557575">
				<ele>1307</ele>
				<time>2018-04-28T12:16:54Z</time>
			</trkpt>
			<trkpt lat="43.048157" lon="-1.557637">
				<ele>1307</ele>
				<time>2018-04-28T12:17:04Z</time>
			</trkpt>
			<trkpt lat="43.048125" lon="-1.557686">
				<ele>1307</ele>
				<time>2018-04-28T12:17:18Z</time>
			</trkpt>
			<trkpt lat="43.04811" lon="-1.557758">
				<ele>1307</ele>
				<time>2018-04-28T12:17:23Z</time>
			</trkpt>
			<trkpt lat="43.048091" lon="-1.557816">
				<ele>1307</ele>
				<time>2018-04-28T12:17:44Z</time>
			</trkpt>
			<trkpt lat="43.048058" lon="-1.557875">
				<ele>1307</ele>
				<time>2018-04-28T12:17:54Z</time>
			</trkpt>
			<trkpt lat="43.048039" lon="-1.557939">
				<ele>1307</ele>
				<time>2018-04-28T12:18:04Z</time>
			</trkpt>
			<trkpt lat="43.048021" lon="-1.558004">
				<ele>1307</ele>
				<time>2018-04-28T12:18:25Z</time>
			</trkpt>
			<trkpt lat="43.048005" lon="-1.558066">
				<ele>1307</ele>
				<time>2018-04-28T12:18:32Z</time>
			</trkpt>
			<trkpt lat="43.047986" lon="-1.558123">
				<ele>1307</ele>
				<time>2018-04-28T12:18:41Z</time>
			</trkpt>
			<trkpt lat="43.047951" lon="-1.558167">
				<ele>1307</ele>
				<time>2018-04-28T12:18:57Z</time>
			</trkpt>
			<trkpt lat="43.047942" lon="-1.558234">
				<ele>1307</ele>
				<time>2018-04-28T12:19:05Z</time>
			</trkpt>
			<trkpt lat="43.047908" lon="-1.55828">
				<ele>1357</ele>
				<time>2018-04-28T12:19:15Z</time>
			</trkpt>
			<trkpt lat="43.047916" lon="-1.558341">
				<ele>1388</ele>
				<time>2018-04-28T12:19:28Z</time>
			</trkpt>
			<trkpt lat="43.047896" lon="-1.558402">
				<ele>1388</ele>
				<time>2018-04-28T12:19:41Z</time>
			</trkpt>
			<trkpt lat="43.047871" lon="-1.558467">
				<ele>1388</ele>
				<time>2018-04-28T12:19:48Z</time>
			</trkpt>
			<trkpt lat="43.047827" lon="-1.558513">
				<ele>1388</ele>
				<time>2018-04-28T12:20:01Z</time>
			</trkpt>
			<trkpt lat="43.047783" lon="-1.558534">
				<ele>1388</ele>
				<time>2018-04-28T12:20:12Z</time>
			</trkpt>
			<trkpt lat="43.047755" lon="-1.558587">
				<ele>1388</ele>
				<time>2018-04-28T12:20:19Z</time>
			</trkpt>
			<trkpt lat="43.047717" lon="-1.558633">
				<ele>1388</ele>
				<time>2018-04-28T12:20:30Z</time>
			</trkpt>
			<trkpt lat="43.047685" lon="-1.558679">
				<ele>1388</ele>
				<time>2018-04-28T12:20:45Z</time>
			</trkpt>
			<trkpt lat="43.047644" lon="-1.558721">
				<ele>1388</ele>
				<time>2018-04-28T12:20:53Z</time>
			</trkpt>
			<trkpt lat="43.047613" lon="-1.558767">
				<ele>1388</ele>
				<time>2018-04-28T12:20:59Z</time>
			</trkpt>
			<trkpt lat="43.04756" lon="-1.558782">
				<ele>1388</ele>
				<time>2018-04-28T12:21:09Z</time>
			</trkpt>
			<trkpt lat="43.047514" lon="-1.558801">
				<ele>1388</ele>
				<time>2018-04-28T12:21:16Z</time>
			</trkpt>
			<trkpt lat="43.047468" lon="-1.558816">
				<ele>1388</ele>
				<time>2018-04-28T12:21:21Z</time>
			</trkpt>
			<trkpt lat="43.04741" lon="-1.558819">
				<ele>1388</ele>
				<time>2018-04-28T12:21:28Z</time>
			</trkpt>
			<trkpt lat="43.047356" lon="-1.558822">
				<ele>1388</ele>
				<time>2018-04-28T12:21:36Z</time>
			</trkpt>
			<trkpt lat="43.047303" lon="-1.558818">
				<ele>1388</ele>
				<time>2018-04-28T12:21:44Z</time>
			</trkpt>
			<trkpt lat="43.047251" lon="-1.558818">
				<ele>1388</ele>
				<time>2018-04-28T12:21:51Z</time>
			</trkpt>
			<trkpt lat="43.047205" lon="-1.558838">
				<ele>1388</ele>
				<time>2018-04-28T12:21:57Z</time>
			</trkpt>
			<trkpt lat="43.04716" lon="-1.558825">
				<ele>1388</ele>
				<time>2018-04-28T12:22:04Z</time>
			</trkpt>
			<trkpt lat="43.047111" lon="-1.558823">
				<ele>1388</ele>
				<time>2018-04-28T12:22:11Z</time>
			</trkpt>
			<trkpt lat="43.047066" lon="-1.558823">
				<ele>1388</ele>
				<time>2018-04-28T12:22:15Z</time>
			</trkpt>
			<trkpt lat="43.047015" lon="-1.558839">
				<ele>1388</ele>
				<time>2018-04-28T12:22:18Z</time>
			</trkpt>
			<trkpt lat="43.046962" lon="-1.558829">
				<ele>1388</ele>
				<time>2018-04-28T12:22:23Z</time>
			</trkpt>
			<trkpt lat="43.046916" lon="-1.558829">
				<ele>1388</ele>
				<time>2018-04-28T12:22:27Z</time>
			</trkpt>
			<trkpt lat="43.046862" lon="-1.558826">
				<ele>1388</ele>
				<time>2018-04-28T12:22:32Z</time>
			</trkpt>
			<trkpt lat="43.046812" lon="-1.558824">
				<ele>1388</ele>
				<time>2018-04-28T12:22:38Z</time>
			</trkpt>
			<trkpt lat="43.046761" lon="-1.558827">
				<ele>1388</ele>
				<time>2018-04-28T12:22:43Z</time>
			</trkpt>
			<trkpt lat="43.046709" lon="-1.558854">
				<ele>1388</ele>
				<time>2018-04-28T12:22:47Z</time>
			</trkpt>
			<trkpt lat="43.046652" lon="-1.558879">
				<ele>1388</ele>
				<time>2018-04-28T12:22:52Z</time>
			</trkpt>
			<trkpt lat="43.046597" lon="-1.558904">
				<ele>1388</ele>
				<time>2018-04-28T12:22:56Z</time>
			</trkpt>
			<trkpt lat="43.046551" lon="-1.558926">
				<ele>1388</ele>
				<time>2018-04-28T12:23:01Z</time>
			</trkpt>
			<trkpt lat="43.046502" lon="-1.558922">
				<ele>1388</ele>
				<time>2018-04-28T12:23:05Z</time>
			</trkpt>
			<trkpt lat="43.046449" lon="-1.558926">
				<ele>1388</ele>
				<time>2018-04-28T12:23:10Z</time>
			</trkpt>
			<trkpt lat="43.046401" lon="-1.558916">
				<ele>1388</ele>
				<time>2018-04-28T12:23:14Z</time>
			</trkpt>
			<trkpt lat="43.046346" lon="-1.558948">
				<ele>1388</ele>
				<time>2018-04-28T12:23:19Z</time>
			</trkpt>
			<trkpt lat="43.046302" lon="-1.558978">
				<ele>1388</ele>
				<time>2018-04-28T12:23:23Z</time>
			</trkpt>
			<trkpt lat="43.046248" lon="-1.559">
				<ele>1388</ele>
				<time>2018-04-28T12:23:28Z</time>
			</trkpt>
			<trkpt lat="43.046203" lon="-1.559035">
				<ele>1388</ele>
				<time>2018-04-28T12:23:32Z</time>
			</trkpt>
			<trkpt lat="43.046155" lon="-1.559054">
				<ele>1388</ele>
				<time>2018-04-28T12:23:37Z</time>
			</trkpt>
			<trkpt lat="43.046107" lon="-1.55908">
				<ele>1388</ele>
				<time>2018-04-28T12:23:41Z</time>
			</trkpt>
			<trkpt lat="43.046063" lon="-1.559109">
				<ele>1388</ele>
				<time>2018-04-28T12:23:46Z</time>
			</trkpt>
			<trkpt lat="43.046022" lon="-1.559135">
				<ele>1388</ele>
				<time>2018-04-28T12:23:50Z</time>
			</trkpt>
			<trkpt lat="43.045966" lon="-1.559161">
				<ele>1388</ele>
				<time>2018-04-28T12:23:55Z</time>
			</trkpt>
			<trkpt lat="43.045925" lon="-1.55919">
				<ele>1388</ele>
				<time>2018-04-28T12:23:59Z</time>
			</trkpt>
			<trkpt lat="43.045872" lon="-1.559209">
				<ele>1388</ele>
				<time>2018-04-28T12:24:02Z</time>
			</trkpt>
			<trkpt lat="43.045832" lon="-1.559243">
				<ele>1389</ele>
				<time>2018-04-28T12:24:05Z</time>
			</trkpt>
			<trkpt lat="43.045793" lon="-1.559274">
				<ele>1389</ele>
				<time>2018-04-28T12:24:08Z</time>
			</trkpt>
			<trkpt lat="43.045739" lon="-1.559317">
				<ele>1389</ele>
				<time>2018-04-28T12:24:11Z</time>
			</trkpt>
			<trkpt lat="43.045692" lon="-1.559358">
				<ele>1389</ele>
				<time>2018-04-28T12:24:14Z</time>
			</trkpt>
			<trkpt lat="43.045639" lon="-1.559396">
				<ele>1389</ele>
				<time>2018-04-28T12:24:17Z</time>
			</trkpt>
			<trkpt lat="43.045586" lon="-1.559433">
				<ele>1389</ele>
				<time>2018-04-28T12:24:20Z</time>
			</trkpt>
			<trkpt lat="43.045533" lon="-1.55946">
				<ele>1389</ele>
				<time>2018-04-28T12:24:23Z</time>
			</trkpt>
			<trkpt lat="43.045487" lon="-1.559491">
				<ele>1389</ele>
				<time>2018-04-28T12:24:26Z</time>
			</trkpt>
			<trkpt lat="43.045445" lon="-1.559516">
				<ele>1389</ele>
				<time>2018-04-28T12:24:30Z</time>
			</trkpt>
			<trkpt lat="43.045401" lon="-1.559533">
				<ele>1389</ele>
				<time>2018-04-28T12:24:33Z</time>
			</trkpt>
			<trkpt lat="43.045354" lon="-1.559563">
				<ele>1389</ele>
				<time>2018-04-28T12:24:36Z</time>
			</trkpt>
			<trkpt lat="43.045306" lon="-1.559592">
				<ele>1389</ele>
				<time>2018-04-28T12:24:39Z</time>
			</trkpt>
			<trkpt lat="43.045269" lon="-1.559552">
				<ele>1389</ele>
				<time>2018-04-28T12:24:41Z</time>
			</trkpt>
			<trkpt lat="43.045235" lon="-1.559502">
				<ele>1389</ele>
				<time>2018-04-28T12:24:43Z</time>
			</trkpt>
			<trkpt lat="43.045205" lon="-1.559455">
				<ele>1389</ele>
				<time>2018-04-28T12:24:46Z</time>
			</trkpt>
			<trkpt lat="43.045164" lon="-1.559401">
				<ele>1389</ele>
				<time>2018-04-28T12:24:49Z</time>
			</trkpt>
			<trkpt lat="43.045117" lon="-1.559367">
				<ele>1389</ele>
				<time>2018-04-28T12:24:52Z</time>
			</trkpt>
			<trkpt lat="43.045073" lon="-1.559322">
				<ele>1389</ele>
				<time>2018-04-28T12:24:55Z</time>
			</trkpt>
			<trkpt lat="43.045016" lon="-1.559302">
				<ele>1389</ele>
				<time>2018-04-28T12:24:58Z</time>
			</trkpt>
			<trkpt lat="43.044963" lon="-1.559248">
				<ele>1389</ele>
				<time>2018-04-28T12:25:01Z</time>
			</trkpt>
			<trkpt lat="43.044924" lon="-1.559202">
				<ele>1389</ele>
				<time>2018-04-28T12:25:04Z</time>
			</trkpt>
			<trkpt lat="43.044875" lon="-1.55916">
				<ele>1389</ele>
				<time>2018-04-28T12:25:07Z</time>
			</trkpt>
			<trkpt lat="43.044829" lon="-1.559106">
				<ele>1389</ele>
				<time>2018-04-28T12:25:10Z</time>
			</trkpt>
			<trkpt lat="43.044794" lon="-1.559055">
				<ele>1389</ele>
				<time>2018-04-28T12:25:13Z</time>
			</trkpt>
			<trkpt lat="43.044749" lon="-1.559031">
				<ele>1389</ele>
				<time>2018-04-28T12:25:16Z</time>
			</trkpt>
			<trkpt lat="43.044689" lon="-1.559006">
				<ele>1389</ele>
				<time>2018-04-28T12:25:20Z</time>
			</trkpt>
			<trkpt lat="43.044638" lon="-1.558987">
				<ele>1389</ele>
				<time>2018-04-28T12:25:23Z</time>
			</trkpt>
			<trkpt lat="43.044596" lon="-1.558948">
				<ele>1389</ele>
				<time>2018-04-28T12:25:26Z</time>
			</trkpt>
			<trkpt lat="43.044544" lon="-1.558905">
				<ele>1389</ele>
				<time>2018-04-28T12:25:30Z</time>
			</trkpt>
			<trkpt lat="43.04452" lon="-1.558839">
				<ele>1389</ele>
				<time>2018-04-28T12:25:33Z</time>
			</trkpt>
			<trkpt lat="43.044482" lon="-1.558803">
				<ele>1389</ele>
				<time>2018-04-28T12:25:36Z</time>
			</trkpt>
			<trkpt lat="43.044442" lon="-1.558768">
				<ele>1389</ele>
				<time>2018-04-28T12:25:39Z</time>
			</trkpt>
			<trkpt lat="43.044396" lon="-1.55873">
				<ele>1389</ele>
				<time>2018-04-28T12:25:42Z</time>
			</trkpt>
			<trkpt lat="43.044355" lon="-1.558684">
				<ele>1389</ele>
				<time>2018-04-28T12:25:45Z</time>
			</trkpt>
			<trkpt lat="43.044305" lon="-1.558656">
				<ele>1389</ele>
				<time>2018-04-28T12:25:48Z</time>
			</trkpt>
			<trkpt lat="43.04426" lon="-1.55862">
				<ele>1389</ele>
				<time>2018-04-28T12:25:51Z</time>
			</trkpt>
			<trkpt lat="43.044228" lon="-1.558567">
				<ele>1389</ele>
				<time>2018-04-28T12:25:54Z</time>
			</trkpt>
			<trkpt lat="43.04418" lon="-1.558551">
				<ele>1389</ele>
				<time>2018-04-28T12:25:58Z</time>
			</trkpt>
			<trkpt lat="43.044134" lon="-1.558513">
				<ele>1389</ele>
				<time>2018-04-28T12:26:01Z</time>
			</trkpt>
			<trkpt lat="43.044086" lon="-1.558477">
				<ele>1389</ele>
				<time>2018-04-28T12:26:05Z</time>
			</trkpt>
			<trkpt lat="43.044046" lon="-1.558444">
				<ele>1389</ele>
				<time>2018-04-28T12:26:08Z</time>
			</trkpt>
			<trkpt lat="43.044009" lon="-1.558408">
				<ele>1389</ele>
				<time>2018-04-28T12:26:11Z</time>
			</trkpt>
			<trkpt lat="43.043953" lon="-1.558382">
				<ele>1389</ele>
				<time>2018-04-28T12:26:15Z</time>
			</trkpt>
			<trkpt lat="43.043911" lon="-1.558359">
				<ele>1389</ele>
				<time>2018-04-28T12:26:18Z</time>
			</trkpt>
			<trkpt lat="43.043867" lon="-1.558341">
				<ele>1389</ele>
				<time>2018-04-28T12:26:23Z</time>
			</trkpt>
			<trkpt lat="43.043821" lon="-1.5583">
				<ele>1329</ele>
				<time>2018-04-28T12:26:28Z</time>
			</trkpt>
			<trkpt lat="43.043765" lon="-1.558276">
				<ele>1329</ele>
				<time>2018-04-28T12:26:31Z</time>
			</trkpt>
			<trkpt lat="43.043721" lon="-1.55824">
				<ele>1275</ele>
				<time>2018-04-28T12:26:34Z</time>
			</trkpt>
			<trkpt lat="43.043675" lon="-1.558204">
				<ele>1275</ele>
				<time>2018-04-28T12:26:37Z</time>
			</trkpt>
			<trkpt lat="43.043627" lon="-1.558162">
				<ele>1275</ele>
				<time>2018-04-28T12:26:41Z</time>
			</trkpt>
			<trkpt lat="43.043579" lon="-1.558137">
				<ele>1275</ele>
				<time>2018-04-28T12:26:45Z</time>
			</trkpt>
			<trkpt lat="43.043539" lon="-1.558097">
				<ele>1275</ele>
				<time>2018-04-28T12:26:49Z</time>
			</trkpt>
			<trkpt lat="43.043484" lon="-1.558069">
				<ele>1275</ele>
				<time>2018-04-28T12:26:53Z</time>
			</trkpt>
			<trkpt lat="43.043442" lon="-1.558041">
				<ele>1275</ele>
				<time>2018-04-28T12:26:56Z</time>
			</trkpt>
			<trkpt lat="43.0434" lon="-1.557996">
				<ele>1275</ele>
				<time>2018-04-28T12:26:59Z</time>
			</trkpt>
			<trkpt lat="43.043358" lon="-1.557968">
				<ele>1275</ele>
				<time>2018-04-28T12:27:02Z</time>
			</trkpt>
			<trkpt lat="43.043309" lon="-1.557923">
				<ele>1275</ele>
				<time>2018-04-28T12:27:05Z</time>
			</trkpt>
			<trkpt lat="43.043259" lon="-1.557894">
				<ele>1275</ele>
				<time>2018-04-28T12:27:08Z</time>
			</trkpt>
			<trkpt lat="43.043216" lon="-1.557859">
				<ele>1275</ele>
				<time>2018-04-28T12:27:10Z</time>
			</trkpt>
			<trkpt lat="43.043168" lon="-1.557834">
				<ele>1275</ele>
				<time>2018-04-28T12:27:13Z</time>
			</trkpt>
			<trkpt lat="43.043121" lon="-1.557804">
				<ele>1275</ele>
				<time>2018-04-28T12:27:15Z</time>
			</trkpt>
			<trkpt lat="43.043074" lon="-1.557756">
				<ele>1275</ele>
				<time>2018-04-28T12:27:18Z</time>
			</trkpt>
			<trkpt lat="43.043022" lon="-1.557722">
				<ele>1275</ele>
				<time>2018-04-28T12:27:21Z</time>
			</trkpt>
			<trkpt lat="43.042966" lon="-1.557689">
				<ele>1275</ele>
				<time>2018-04-28T12:27:24Z</time>
			</trkpt>
			<trkpt lat="43.042913" lon="-1.55765">
				<ele>1275</ele>
				<time>2018-04-28T12:27:27Z</time>
			</trkpt>
			<trkpt lat="43.042871" lon="-1.55762">
				<ele>1275</ele>
				<time>2018-04-28T12:27:29Z</time>
			</trkpt>
			<trkpt lat="43.042834" lon="-1.557582">
				<ele>1275</ele>
				<time>2018-04-28T12:27:31Z</time>
			</trkpt>
			<trkpt lat="43.042789" lon="-1.557544">
				<ele>1275</ele>
				<time>2018-04-28T12:27:34Z</time>
			</trkpt>
			<trkpt lat="43.042743" lon="-1.557504">
				<ele>1275</ele>
				<time>2018-04-28T12:27:37Z</time>
			</trkpt>
			<trkpt lat="43.042694" lon="-1.557473">
				<ele>1275</ele>
				<time>2018-04-28T12:27:40Z</time>
			</trkpt>
			<trkpt lat="43.042647" lon="-1.557423">
				<ele>1275</ele>
				<time>2018-04-28T12:27:43Z</time>
			</trkpt>
			<trkpt lat="43.04262" lon="-1.557349">
				<ele>1275</ele>
				<time>2018-04-28T12:27:46Z</time>
			</trkpt>
			<trkpt lat="43.042584" lon="-1.557286">
				<ele>1275</ele>
				<time>2018-04-28T12:27:49Z</time>
			</trkpt>
			<trkpt lat="43.042537" lon="-1.557251">
				<ele>1275</ele>
				<time>2018-04-28T12:27:52Z</time>
			</trkpt>
			<trkpt lat="43.042494" lon="-1.55722">
				<ele>1275</ele>
				<time>2018-04-28T12:27:55Z</time>
			</trkpt>
			<trkpt lat="43.04245" lon="-1.557153">
				<ele>1275</ele>
				<time>2018-04-28T12:27:58Z</time>
			</trkpt>
			<trkpt lat="43.042411" lon="-1.557118">
				<ele>1275</ele>
				<time>2018-04-28T12:28:00Z</time>
			</trkpt>
			<trkpt lat="43.042371" lon="-1.557074">
				<ele>1275</ele>
				<time>2018-04-28T12:28:02Z</time>
			</trkpt>
			<trkpt lat="43.042339" lon="-1.55703">
				<ele>1275</ele>
				<time>2018-04-28T12:28:04Z</time>
			</trkpt>
			<trkpt lat="43.042291" lon="-1.556972">
				<ele>1275</ele>
				<time>2018-04-28T12:28:07Z</time>
			</trkpt>
			<trkpt lat="43.042257" lon="-1.556902">
				<ele>1275</ele>
				<time>2018-04-28T12:28:10Z</time>
			</trkpt>
			<trkpt lat="43.04222" lon="-1.556849">
				<ele>1275</ele>
				<time>2018-04-28T12:28:13Z</time>
			</trkpt>
			<trkpt lat="43.042185" lon="-1.556787">
				<ele>1275</ele>
				<time>2018-04-28T12:28:16Z</time>
			</trkpt>
			<trkpt lat="43.042155" lon="-1.556735">
				<ele>1275</ele>
				<time>2018-04-28T12:28:19Z</time>
			</trkpt>
			<trkpt lat="43.042116" lon="-1.556668">
				<ele>1275</ele>
				<time>2018-04-28T12:28:22Z</time>
			</trkpt>
			<trkpt lat="43.042061" lon="-1.556619">
				<ele>1275</ele>
				<time>2018-04-28T12:28:25Z</time>
			</trkpt>
			<trkpt lat="43.042025" lon="-1.556577">
				<ele>1275</ele>
				<time>2018-04-28T12:28:27Z</time>
			</trkpt>
			<trkpt lat="43.041985" lon="-1.556518">
				<ele>1275</ele>
				<time>2018-04-28T12:28:29Z</time>
			</trkpt>
			<trkpt lat="43.041947" lon="-1.556474">
				<ele>1275</ele>
				<time>2018-04-28T12:28:31Z</time>
			</trkpt>
			<trkpt lat="43.041912" lon="-1.556411">
				<ele>1275</ele>
				<time>2018-04-28T12:28:34Z</time>
			</trkpt>
			<trkpt lat="43.04188" lon="-1.556367">
				<ele>1275</ele>
				<time>2018-04-28T12:28:36Z</time>
			</trkpt>
			<trkpt lat="43.041835" lon="-1.556334">
				<ele>1275</ele>
				<time>2018-04-28T12:28:38Z</time>
			</trkpt>
			<trkpt lat="43.041793" lon="-1.556286">
				<ele>1275</ele>
				<time>2018-04-28T12:28:40Z</time>
			</trkpt>
			<trkpt lat="43.041765" lon="-1.556226">
				<ele>1212</ele>
				<time>2018-04-28T12:28:42Z</time>
			</trkpt>
			<trkpt lat="43.041728" lon="-1.556189">
				<ele>1212</ele>
				<time>2018-04-28T12:28:44Z</time>
			</trkpt>
			<trkpt lat="43.041691" lon="-1.556152">
				<ele>1212</ele>
				<time>2018-04-28T12:28:47Z</time>
			</trkpt>
			<trkpt lat="43.041658" lon="-1.556104">
				<ele>1231</ele>
				<time>2018-04-28T12:28:49Z</time>
			</trkpt>
			<trkpt lat="43.041618" lon="-1.556073">
				<ele>1231</ele>
				<time>2018-04-28T12:28:51Z</time>
			</trkpt>
			<trkpt lat="43.041573" lon="-1.556028">
				<ele>1231</ele>
				<time>2018-04-28T12:28:53Z</time>
			</trkpt>
			<trkpt lat="43.041528" lon="-1.555993">
				<ele>1231</ele>
				<time>2018-04-28T12:28:55Z</time>
			</trkpt>
			<trkpt lat="43.041484" lon="-1.555971">
				<ele>1231</ele>
				<time>2018-04-28T12:28:57Z</time>
			</trkpt>
			<trkpt lat="43.041432" lon="-1.555944">
				<ele>1231</ele>
				<time>2018-04-28T12:28:59Z</time>
			</trkpt>
			<trkpt lat="43.041386" lon="-1.555925">
				<ele>1231</ele>
				<time>2018-04-28T12:29:01Z</time>
			</trkpt>
			<trkpt lat="43.041335" lon="-1.555902">
				<ele>1231</ele>
				<time>2018-04-28T12:29:03Z</time>
			</trkpt>
			<trkpt lat="43.041277" lon="-1.555864">
				<ele>1231</ele>
				<time>2018-04-28T12:29:05Z</time>
			</trkpt>
			<trkpt lat="43.041225" lon="-1.555833">
				<ele>1231</ele>
				<time>2018-04-28T12:29:07Z</time>
			</trkpt>
			<trkpt lat="43.041195" lon="-1.555816">
				<ele>1231</ele>
				<time>2011-04-16T12:17:38Z</time>
			</trkpt>
			<trkpt lat="43.041155" lon="-1.555799">
				<ele>1231</ele>
				<time>2011-04-16T12:17:48Z</time>
			</trkpt>
			<trkpt lat="43.041147" lon="-1.555804">
				<ele>1231</ele>
				<time>2011-04-16T12:17:59Z</time>
			</trkpt>
			<trkpt lat="43.041146" lon="-1.555803">
				<ele>1231</ele>
				<time>2011-04-16T12:18:02Z</time>
			</trkpt>
			<trkpt lat="43.041145" lon="-1.555802">
				<ele>1231</ele>
				<time>2011-04-16T12:18:03Z</time>
			</trkpt>
			<trkpt lat="43.041144" lon="-1.555802">
				<ele>1231</ele>
				<time>2011-04-16T12:18:06Z</time>
			</trkpt>
			<trkpt lat="43.041144" lon="-1.555803">
				<ele>1231</ele>
				<time>2011-04-16T12:18:07Z</time>
			</trkpt>
			<trkpt lat="43.041143" lon="-1.5558">
				<ele>1231</ele>
				<time>2011-04-16T12:18:16Z</time>
			</trkpt>
			<trkpt lat="43.041108" lon="-1.555808">
				<ele>1231</ele>
				<time>2011-04-16T12:18:31Z</time>
			</trkpt>
			<trkpt lat="43.041107" lon="-1.555812">
				<ele>1231</ele>
				<time>2011-04-16T12:18:34Z</time>
			</trkpt>
			<trkpt lat="43.041106" lon="-1.555816">
				<ele>1231</ele>
				<time>2011-04-16T12:18:36Z</time>
			</trkpt>
			<trkpt lat="43.041106" lon="-1.555821">
				<ele>1231</ele>
				<time>2011-04-16T12:18:42Z</time>
			</trkpt>
			<trkpt lat="43.041106" lon="-1.555821">
				<ele>1231</ele>
				<time>2011-04-16T12:18:43Z</time>
			</trkpt>
			<trkpt lat="43.041106" lon="-1.555822">
				<ele>1231</ele>
				<time>2011-04-16T12:18:44Z</time>
			</trkpt>
			<trkpt lat="43.041106" lon="-1.555822">
				<ele>1231</ele>
				<time>2011-04-16T12:18:45Z</time>
			</trkpt>
			<trkpt lat="43.041107" lon="-1.555822">
				<ele>1231</ele>
				<time>2011-04-16T12:18:46Z</time>
			</trkpt>
			<trkpt lat="43.04111" lon="-1.555817">
				<ele>1231</ele>
				<time>2011-04-16T12:19:01Z</time>
			</trkpt>
			<trkpt lat="43.041128" lon="-1.555806">
				<ele>1231</ele>
				<time>2011-04-16T12:19:23Z</time>
			</trkpt>
			<trkpt lat="43.041128" lon="-1.555802">
				<ele>1231</ele>
				<time>2011-04-16T12:19:27Z</time>
			</trkpt>
			<trkpt lat="43.040933" lon="-1.555715">
				<ele>1231</ele>
				<time>2011-04-16T12:19:43Z</time>
			</trkpt>
			<trkpt lat="43.040791" lon="-1.55563">
				<ele>1231</ele>
				<time>2011-04-16T12:19:57Z</time>
			</trkpt>
			<trkpt lat="43.040715" lon="-1.555599">
				<ele>1231</ele>
				<time>2011-04-16T12:20:11Z</time>
			</trkpt>
			<trkpt lat="43.040509" lon="-1.555545">
				<ele>1231</ele>
				<time>2011-04-16T12:20:30Z</time>
			</trkpt>
			<trkpt lat="43.040242" lon="-1.555436">
				<ele>1231</ele>
				<time>2011-04-16T12:20:55Z</time>
			</trkpt>
			<trkpt lat="43.039974" lon="-1.555368">
				<ele>1231</ele>
				<time>2011-04-16T12:21:19Z</time>
			</trkpt>
			<trkpt lat="43.039799" lon="-1.555315">
				<ele>1231</ele>
				<time>2011-04-16T12:21:38Z</time>
			</trkpt>
			<trkpt lat="43.039764" lon="-1.555277">
				<ele>1231</ele>
				<time>2011-04-16T12:21:44Z</time>
			</trkpt>
			<trkpt lat="43.039715" lon="-1.555244">
				<ele>1231</ele>
				<time>2011-04-16T12:21:56Z</time>
			</trkpt>
			<trkpt lat="43.039719" lon="-1.555189">
				<ele>1231</ele>
				<time>2018-04-28T12:30:16Z</time>
			</trkpt>
			<trkpt lat="43.039675" lon="-1.555165">
				<ele>1231</ele>
				<time>2018-04-28T12:30:21Z</time>
			</trkpt>
			<trkpt lat="43.039627" lon="-1.555149">
				<ele>1231</ele>
				<time>2018-04-28T12:30:25Z</time>
			</trkpt>
			<trkpt lat="43.039581" lon="-1.555137">
				<ele>1248</ele>
				<time>2018-04-28T12:30:29Z</time>
			</trkpt>
			<trkpt lat="43.039537" lon="-1.555115">
				<ele>1248</ele>
				<time>2018-04-28T12:30:33Z</time>
			</trkpt>
			<trkpt lat="43.03948" lon="-1.555117">
				<ele>1248</ele>
				<time>2018-04-28T12:30:37Z</time>
			</trkpt>
			<trkpt lat="43.039426" lon="-1.555104">
				<ele>1248</ele>
				<time>2018-04-28T12:30:41Z</time>
			</trkpt>
			<trkpt lat="43.039371" lon="-1.555091">
				<ele>1248</ele>
				<time>2018-04-28T12:30:45Z</time>
			</trkpt>
			<trkpt lat="43.039332" lon="-1.555058">
				<ele>1248</ele>
				<time>2018-04-28T12:30:49Z</time>
			</trkpt>
			<trkpt lat="43.039274" lon="-1.555043">
				<ele>1248</ele>
				<time>2018-04-28T12:30:53Z</time>
			</trkpt>
			<trkpt lat="43.039224" lon="-1.555027">
				<ele>1248</ele>
				<time>2018-04-28T12:30:57Z</time>
			</trkpt>
			<trkpt lat="43.03917" lon="-1.555025">
				<ele>1248</ele>
				<time>2018-04-28T12:31:01Z</time>
			</trkpt>
			<trkpt lat="43.039124" lon="-1.555004">
				<ele>1248</ele>
				<time>2018-04-28T12:31:06Z</time>
			</trkpt>
			<trkpt lat="43.039078" lon="-1.554953">
				<ele>1248</ele>
				<time>2018-04-28T12:31:11Z</time>
			</trkpt>
			<trkpt lat="43.039038" lon="-1.554918">
				<ele>1248</ele>
				<time>2018-04-28T12:31:14Z</time>
			</trkpt>
			<trkpt lat="43.039002" lon="-1.554876">
				<ele>1248</ele>
				<time>2018-04-28T12:31:18Z</time>
			</trkpt>
			<trkpt lat="43.038972" lon="-1.554823">
				<ele>1248</ele>
				<time>2018-04-28T12:31:22Z</time>
			</trkpt>
			<trkpt lat="43.038945" lon="-1.554773">
				<ele>1248</ele>
				<time>2018-04-28T12:31:28Z</time>
			</trkpt>
			<trkpt lat="43.038922" lon="-1.554706">
				<ele>1248</ele>
				<time>2018-04-28T12:31:32Z</time>
			</trkpt>
			<trkpt lat="43.038894" lon="-1.554641">
				<ele>1248</ele>
				<time>2018-04-28T12:31:37Z</time>
			</trkpt>
			<trkpt lat="43.038862" lon="-1.554586">
				<ele>1248</ele>
				<time>2018-04-28T12:31:44Z</time>
			</trkpt>
			<trkpt lat="43.038832" lon="-1.554534">
				<ele>1248</ele>
				<time>2018-04-28T12:31:51Z</time>
			</trkpt>
			<trkpt lat="43.038789" lon="-1.554505">
				<ele>1248</ele>
				<time>2018-04-28T12:31:57Z</time>
			</trkpt>
			<trkpt lat="43.038742" lon="-1.554467">
				<ele>1248</ele>
				<time>2018-04-28T12:32:03Z</time>
			</trkpt>
			<trkpt lat="43.038685" lon="-1.554439">
				<ele>1248</ele>
				<time>2018-04-28T12:32:09Z</time>
			</trkpt>
			<trkpt lat="43.038639" lon="-1.554432">
				<ele>1248</ele>
				<time>2018-04-28T12:32:14Z</time>
			</trkpt>
			<trkpt lat="43.038594" lon="-1.554419">
				<ele>1248</ele>
				<time>2018-04-28T12:32:21Z</time>
			</trkpt>
			<trkpt lat="43.038556" lon="-1.554378">
				<ele>1248</ele>
				<time>2018-04-28T12:32:27Z</time>
			</trkpt>
			<trkpt lat="43.038511" lon="-1.554365">
				<ele>1248</ele>
				<time>2018-04-28T12:32:32Z</time>
			</trkpt>
			<trkpt lat="43.038471" lon="-1.554337">
				<ele>1248</ele>
				<time>2018-04-28T12:32:37Z</time>
			</trkpt>
			<trkpt lat="43.038419" lon="-1.55433">
				<ele>1248</ele>
				<time>2018-04-28T12:32:42Z</time>
			</trkpt>
			<trkpt lat="43.038373" lon="-1.554324">
				<ele>1248</ele>
				<time>2018-04-28T12:32:46Z</time>
			</trkpt>
			<trkpt lat="43.038327" lon="-1.554313">
				<ele>1248</ele>
				<time>2018-04-28T12:32:51Z</time>
			</trkpt>
			<trkpt lat="43.038281" lon="-1.554328">
				<ele>1248</ele>
				<time>2018-04-28T12:32:57Z</time>
			</trkpt>
			<trkpt lat="43.038229" lon="-1.55431">
				<ele>1248</ele>
				<time>2018-04-28T12:33:03Z</time>
			</trkpt>
			<trkpt lat="43.038178" lon="-1.55429">
				<ele>1248</ele>
				<time>2018-04-28T12:33:09Z</time>
			</trkpt>
			<trkpt lat="43.038132" lon="-1.554291">
				<ele>1248</ele>
				<time>2018-04-28T12:33:14Z</time>
			</trkpt>
			<trkpt lat="43.03808" lon="-1.554287">
				<ele>1248</ele>
				<time>2018-04-28T12:33:21Z</time>
			</trkpt>
			<trkpt lat="43.038036" lon="-1.554301">
				<ele>1248</ele>
				<time>2018-04-28T12:33:27Z</time>
			</trkpt>
			<trkpt lat="43.037986" lon="-1.554281">
				<ele>1248</ele>
				<time>2018-04-28T12:33:31Z</time>
			</trkpt>
			<trkpt lat="43.037933" lon="-1.554308">
				<ele>1248</ele>
				<time>2018-04-28T12:33:36Z</time>
			</trkpt>
			<trkpt lat="43.037886" lon="-1.554307">
				<ele>1248</ele>
				<time>2018-04-28T12:33:42Z</time>
			</trkpt>
			<trkpt lat="43.037837" lon="-1.554316">
				<ele>1248</ele>
				<time>2018-04-28T12:33:47Z</time>
			</trkpt>
			<trkpt lat="43.037783" lon="-1.554313">
				<ele>1248</ele>
				<time>2018-04-28T12:33:53Z</time>
			</trkpt>
			<trkpt lat="43.037738" lon="-1.554306">
				<ele>1248</ele>
				<time>2018-04-28T12:33:59Z</time>
			</trkpt>
			<trkpt lat="43.03769" lon="-1.554296">
				<ele>1248</ele>
				<time>2018-04-28T12:34:06Z</time>
			</trkpt>
			<trkpt lat="43.037643" lon="-1.554306">
				<ele>1248</ele>
				<time>2018-04-28T12:34:11Z</time>
			</trkpt>
			<trkpt lat="43.037585" lon="-1.55431">
				<ele>1248</ele>
				<time>2018-04-28T12:34:18Z</time>
			</trkpt>
			<trkpt lat="43.037532" lon="-1.554298">
				<ele>1248</ele>
				<time>2018-04-28T12:34:23Z</time>
			</trkpt>
			<trkpt lat="43.037486" lon="-1.554277">
				<ele>1279</ele>
				<time>2018-04-28T12:34:31Z</time>
			</trkpt>
			<trkpt lat="43.037437" lon="-1.554266">
				<ele>1279</ele>
				<time>2018-04-28T12:34:36Z</time>
			</trkpt>
			<trkpt lat="43.037384" lon="-1.554245">
				<ele>1279</ele>
				<time>2018-04-28T12:34:43Z</time>
			</trkpt>
			<trkpt lat="43.037335" lon="-1.554255">
				<ele>1279</ele>
				<time>2018-04-28T12:34:48Z</time>
			</trkpt>
			<trkpt lat="43.037287" lon="-1.554233">
				<ele>1279</ele>
				<time>2018-04-28T12:34:54Z</time>
			</trkpt>
			<trkpt lat="43.037244" lon="-1.554202">
				<ele>1279</ele>
				<time>2018-04-28T12:35:01Z</time>
			</trkpt>
			<trkpt lat="43.03719" lon="-1.554198">
				<ele>1279</ele>
				<time>2018-04-28T12:35:07Z</time>
			</trkpt>
			<trkpt lat="43.037143" lon="-1.554196">
				<ele>1279</ele>
				<time>2018-04-28T12:35:13Z</time>
			</trkpt>
			<trkpt lat="43.037141" lon="-1.554272">
				<ele>1279</ele>
				<time>2018-04-28T12:35:25Z</time>
			</trkpt>
			<trkpt lat="43.03709" lon="-1.55423">
				<ele>1279</ele>
				<time>2018-04-28T12:35:26Z</time>
			</trkpt>
			<trkpt lat="43.037044" lon="-1.554248">
				<ele>1279</ele>
				<time>2018-04-28T12:35:31Z</time>
			</trkpt>
			<trkpt lat="43.036985" lon="-1.554254">
				<ele>1279</ele>
				<time>2018-04-28T12:35:38Z</time>
			</trkpt>
			<trkpt lat="43.036939" lon="-1.554275">
				<ele>1279</ele>
				<time>2018-04-28T12:35:42Z</time>
			</trkpt>
			<trkpt lat="43.036885" lon="-1.554275">
				<ele>1279</ele>
				<time>2018-04-28T12:35:46Z</time>
			</trkpt>
			<trkpt lat="43.03684" lon="-1.554263">
				<ele>1279</ele>
				<time>2018-04-28T12:35:52Z</time>
			</trkpt>
			<trkpt lat="43.036791" lon="-1.554256">
				<ele>1279</ele>
				<time>2018-04-28T12:35:57Z</time>
			</trkpt>
			<trkpt lat="43.036743" lon="-1.554239">
				<ele>1279</ele>
				<time>2018-04-28T12:36:01Z</time>
			</trkpt>
			<trkpt lat="43.036698" lon="-1.554241">
				<ele>1279</ele>
				<time>2018-04-28T12:36:05Z</time>
			</trkpt>
			<trkpt lat="43.036653" lon="-1.554225">
				<ele>1279</ele>
				<time>2018-04-28T12:36:09Z</time>
			</trkpt>
			<trkpt lat="43.036607" lon="-1.554229">
				<ele>1279</ele>
				<time>2018-04-28T12:36:13Z</time>
			</trkpt>
			<trkpt lat="43.036562" lon="-1.554205">
				<ele>1279</ele>
				<time>2018-04-28T12:36:18Z</time>
			</trkpt>
			<trkpt lat="43.036521" lon="-1.554177">
				<ele>1279</ele>
				<time>2018-04-28T12:36:23Z</time>
			</trkpt>
			<trkpt lat="43.036475" lon="-1.554159">
				<ele>1310</ele>
				<time>2018-04-28T12:36:30Z</time>
			</trkpt>
			<trkpt lat="43.036433" lon="-1.554115">
				<ele>1310</ele>
				<time>2018-04-28T12:36:37Z</time>
			</trkpt>
			<trkpt lat="43.036403" lon="-1.554054">
				<ele>1310</ele>
				<time>2018-04-28T12:36:43Z</time>
			</trkpt>
			<trkpt lat="43.03637" lon="-1.554004">
				<ele>1310</ele>
				<time>2018-04-28T12:36:50Z</time>
			</trkpt>
			<trkpt lat="43.03634" lon="-1.553947">
				<ele>1310</ele>
				<time>2018-04-28T12:36:55Z</time>
			</trkpt>
			<trkpt lat="43.036317" lon="-1.553894">
				<ele>1310</ele>
				<time>2018-04-28T12:37:00Z</time>
			</trkpt>
			<trkpt lat="43.036282" lon="-1.553842">
				<ele>1310</ele>
				<time>2018-04-28T12:37:05Z</time>
			</trkpt>
			<trkpt lat="43.036263" lon="-1.553781">
				<ele>1310</ele>
				<time>2018-04-28T12:37:11Z</time>
			</trkpt>
			<trkpt lat="43.03623" lon="-1.55373">
				<ele>1310</ele>
				<time>2018-04-28T12:37:17Z</time>
			</trkpt>
			<trkpt lat="43.036191" lon="-1.553699">
				<ele>1310</ele>
				<time>2018-04-28T12:37:21Z</time>
			</trkpt>
			<trkpt lat="43.036148" lon="-1.553679">
				<ele>1310</ele>
				<time>2018-04-28T12:37:25Z</time>
			</trkpt>
			<trkpt lat="43.036102" lon="-1.553654">
				<ele>1310</ele>
				<time>2018-04-28T12:37:30Z</time>
			</trkpt>
			<trkpt lat="43.036056" lon="-1.553637">
				<ele>1310</ele>
				<time>2018-04-28T12:37:36Z</time>
			</trkpt>
			<trkpt lat="43.036002" lon="-1.55362">
				<ele>1310</ele>
				<time>2018-04-28T12:37:46Z</time>
			</trkpt>
			<trkpt lat="43.035963" lon="-1.553582">
				<ele>1310</ele>
				<time>2018-04-28T12:37:49Z</time>
			</trkpt>
			<trkpt lat="43.035924" lon="-1.553541">
				<ele>1310</ele>
				<time>2018-04-28T12:37:54Z</time>
			</trkpt>
			<trkpt lat="43.035881" lon="-1.553511">
				<ele>1310</ele>
				<time>2018-04-28T12:37:59Z</time>
			</trkpt>
			<trkpt lat="43.035845" lon="-1.553473">
				<ele>1310</ele>
				<time>2018-04-28T12:38:03Z</time>
			</trkpt>
			<trkpt lat="43.035795" lon="-1.553456">
				<ele>1310</ele>
				<time>2018-04-28T12:38:09Z</time>
			</trkpt>
			<trkpt lat="43.03575" lon="-1.55343">
				<ele>1310</ele>
				<time>2018-04-28T12:38:14Z</time>
			</trkpt>
			<trkpt lat="43.035705" lon="-1.55342">
				<ele>1310</ele>
				<time>2018-04-28T12:38:18Z</time>
			</trkpt>
			<trkpt lat="43.035661" lon="-1.553435">
				<ele>1310</ele>
				<time>2018-04-28T12:38:24Z</time>
			</trkpt>
			<trkpt lat="43.035612" lon="-1.553439">
				<ele>1310</ele>
				<time>2018-04-28T12:38:33Z</time>
			</trkpt>
			<trkpt lat="43.035559" lon="-1.553418">
				<ele>1310</ele>
				<time>2018-04-28T12:38:39Z</time>
			</trkpt>
			<trkpt lat="43.035507" lon="-1.553436">
				<ele>1310</ele>
				<time>2018-04-28T12:38:44Z</time>
			</trkpt>
			<trkpt lat="43.035462" lon="-1.553406">
				<ele>1310</ele>
				<time>2018-04-28T12:38:48Z</time>
			</trkpt>
			<trkpt lat="43.035416" lon="-1.55339">
				<ele>1341</ele>
				<time>2018-04-28T12:38:51Z</time>
			</trkpt>
			<trkpt lat="43.035367" lon="-1.553356">
				<ele>1341</ele>
				<time>2018-04-28T12:38:55Z</time>
			</trkpt>
			<trkpt lat="43.03532" lon="-1.553345">
				<ele>1341</ele>
				<time>2018-04-28T12:38:59Z</time>
			</trkpt>
			<trkpt lat="43.035265" lon="-1.553331">
				<ele>1341</ele>
				<time>2018-04-28T12:39:03Z</time>
			</trkpt>
			<trkpt lat="43.035214" lon="-1.553281">
				<ele>1341</ele>
				<time>2018-04-28T12:39:06Z</time>
			</trkpt>
			<trkpt lat="43.035163" lon="-1.55323">
				<ele>1341</ele>
				<time>2018-04-28T12:39:09Z</time>
			</trkpt>
			<trkpt lat="43.035104" lon="-1.5532">
				<ele>1341</ele>
				<time>2018-04-28T12:39:12Z</time>
			</trkpt>
			<trkpt lat="43.035061" lon="-1.553181">
				<ele>1341</ele>
				<time>2018-04-28T12:39:14Z</time>
			</trkpt>
			<trkpt lat="43.035006" lon="-1.553137">
				<ele>1341</ele>
				<time>2018-04-28T12:39:17Z</time>
			</trkpt>
			<trkpt lat="43.034964" lon="-1.553101">
				<ele>1341</ele>
				<time>2018-04-28T12:39:19Z</time>
			</trkpt>
			<trkpt lat="43.03491" lon="-1.553064">
				<ele>1341</ele>
				<time>2018-04-28T12:39:22Z</time>
			</trkpt>
			<trkpt lat="43.034856" lon="-1.55302">
				<ele>1341</ele>
				<time>2018-04-28T12:39:25Z</time>
			</trkpt>
			<trkpt lat="43.034819" lon="-1.552985">
				<ele>1341</ele>
				<time>2018-04-28T12:39:27Z</time>
			</trkpt>
			<trkpt lat="43.034757" lon="-1.552952">
				<ele>1341</ele>
				<time>2018-04-28T12:39:30Z</time>
			</trkpt>
			<trkpt lat="43.034705" lon="-1.552901">
				<ele>1341</ele>
				<time>2018-04-28T12:39:33Z</time>
			</trkpt>
			<trkpt lat="43.034659" lon="-1.552895">
				<ele>1341</ele>
				<time>2018-04-28T12:39:35Z</time>
			</trkpt>
			<trkpt lat="43.034599" lon="-1.55288">
				<ele>1341</ele>
				<time>2018-04-28T12:39:38Z</time>
			</trkpt>
			<trkpt lat="43.03455" lon="-1.552834">
				<ele>1341</ele>
				<time>2018-04-28T12:39:41Z</time>
			</trkpt>
			<trkpt lat="43.034498" lon="-1.552788">
				<ele>1341</ele>
				<time>2018-04-28T12:39:44Z</time>
			</trkpt>
			<trkpt lat="43.034438" lon="-1.552749">
				<ele>1341</ele>
				<time>2018-04-28T12:39:47Z</time>
			</trkpt>
			<trkpt lat="43.034381" lon="-1.55271">
				<ele>1341</ele>
				<time>2018-04-28T12:39:50Z</time>
			</trkpt>
			<trkpt lat="43.034339" lon="-1.552672">
				<ele>1341</ele>
				<time>2018-04-28T12:39:52Z</time>
			</trkpt>
			<trkpt lat="43.034284" lon="-1.552623">
				<ele>1341</ele>
				<time>2018-04-28T12:39:55Z</time>
			</trkpt>
			<trkpt lat="43.034246" lon="-1.552589">
				<ele>1341</ele>
				<time>2018-04-28T12:39:57Z</time>
			</trkpt>
			<trkpt lat="43.034192" lon="-1.552561">
				<ele>1341</ele>
				<time>2018-04-28T12:40:00Z</time>
			</trkpt>
			<trkpt lat="43.03414" lon="-1.552545">
				<ele>1341</ele>
				<time>2018-04-28T12:40:03Z</time>
			</trkpt>
			<trkpt lat="43.034098" lon="-1.55252">
				<ele>1341</ele>
				<time>2018-04-28T12:40:06Z</time>
			</trkpt>
			<trkpt lat="43.034053" lon="-1.55251">
				<ele>1341</ele>
				<time>2018-04-28T12:40:09Z</time>
			</trkpt>
			<trkpt lat="43.033991" lon="-1.55248">
				<ele>1341</ele>
				<time>2018-04-28T12:40:12Z</time>
			</trkpt>
			<trkpt lat="43.03394" lon="-1.55245">
				<ele>1341</ele>
				<time>2018-04-28T12:40:15Z</time>
			</trkpt>
			<trkpt lat="43.033865" lon="-1.552442">
				<ele>1341</ele>
				<time>2018-04-28T12:40:18Z</time>
			</trkpt>
			<trkpt lat="43.033807" lon="-1.552426">
				<ele>1341</ele>
				<time>2018-04-28T12:40:21Z</time>
			</trkpt>
			<trkpt lat="43.033743" lon="-1.552401">
				<ele>1341</ele>
				<time>2018-04-28T12:40:24Z</time>
			</trkpt>
			<trkpt lat="43.033696" lon="-1.552388">
				<ele>1341</ele>
				<time>2018-04-28T12:40:26Z</time>
			</trkpt>
			<trkpt lat="43.033636" lon="-1.552349">
				<ele>1341</ele>
				<time>2018-04-28T12:40:29Z</time>
			</trkpt>
			<trkpt lat="43.033579" lon="-1.552307">
				<ele>1341</ele>
				<time>2018-04-28T12:40:32Z</time>
			</trkpt>
			<trkpt lat="43.033529" lon="-1.552279">
				<ele>1341</ele>
				<time>2018-04-28T12:40:35Z</time>
			</trkpt>
			<trkpt lat="43.033461" lon="-1.552268">
				<ele>1341</ele>
				<time>2018-04-28T12:40:38Z</time>
			</trkpt>
			<trkpt lat="43.033443" lon="-1.552197">
				<ele>1341</ele>
				<time>2018-04-28T12:40:40Z</time>
			</trkpt>
			<trkpt lat="43.033403" lon="-1.55214">
				<ele>1341</ele>
				<time>2018-04-28T12:40:43Z</time>
			</trkpt>
			<trkpt lat="43.033363" lon="-1.552081">
				<ele>1312</ele>
				<time>2018-04-28T12:40:46Z</time>
			</trkpt>
			<trkpt lat="43.033313" lon="-1.552028">
				<ele>1343</ele>
				<time>2018-04-28T12:40:49Z</time>
			</trkpt>
			<trkpt lat="43.033255" lon="-1.551989">
				<ele>1343</ele>
				<time>2018-04-28T12:40:52Z</time>
			</trkpt>
			<trkpt lat="43.033204" lon="-1.551992">
				<ele>1343</ele>
				<time>2018-04-28T12:40:54Z</time>
			</trkpt>
			<trkpt lat="43.033151" lon="-1.551971">
				<ele>1343</ele>
				<time>2018-04-28T12:40:57Z</time>
			</trkpt>
			<trkpt lat="43.033098" lon="-1.551969">
				<ele>1343</ele>
				<time>2018-04-28T12:41:00Z</time>
			</trkpt>
			<trkpt lat="43.033049" lon="-1.551988">
				<ele>1343</ele>
				<time>2018-04-28T12:41:04Z</time>
			</trkpt>
			<trkpt lat="43.033003" lon="-1.552029">
				<ele>1343</ele>
				<time>2018-04-28T12:41:07Z</time>
			</trkpt>
			<trkpt lat="43.032953" lon="-1.55207">
				<ele>1343</ele>
				<time>2018-04-28T12:41:10Z</time>
			</trkpt>
			<trkpt lat="43.032908" lon="-1.55211">
				<ele>1335</ele>
				<time>2018-04-28T12:41:13Z</time>
			</trkpt>
			<trkpt lat="43.032854" lon="-1.552134">
				<ele>1335</ele>
				<time>2018-04-28T12:41:16Z</time>
			</trkpt>
			<trkpt lat="43.032805" lon="-1.552169">
				<ele>1335</ele>
				<time>2018-04-28T12:41:18Z</time>
			</trkpt>
			<trkpt lat="43.032746" lon="-1.552198">
				<ele>1335</ele>
				<time>2018-04-28T12:41:21Z</time>
			</trkpt>
			<trkpt lat="43.032705" lon="-1.552227">
				<ele>1335</ele>
				<time>2018-04-28T12:41:25Z</time>
			</trkpt>
			<trkpt lat="43.03265" lon="-1.55226">
				<ele>1335</ele>
				<time>2018-04-28T12:41:30Z</time>
			</trkpt>
			<trkpt lat="43.032604" lon="-1.552265">
				<ele>1335</ele>
				<time>2018-04-28T12:41:34Z</time>
			</trkpt>
			<trkpt lat="43.032556" lon="-1.552273">
				<ele>1335</ele>
				<time>2018-04-28T12:41:37Z</time>
			</trkpt>
			<trkpt lat="43.032504" lon="-1.552282">
				<ele>1335</ele>
				<time>2018-04-28T12:41:41Z</time>
			</trkpt>
			<trkpt lat="43.032458" lon="-1.552306">
				<ele>1335</ele>
				<time>2018-04-28T12:41:44Z</time>
			</trkpt>
			<trkpt lat="43.032401" lon="-1.552308">
				<ele>1335</ele>
				<time>2018-04-28T12:41:49Z</time>
			</trkpt>
			<trkpt lat="43.032349" lon="-1.552309">
				<ele>1335</ele>
				<time>2018-04-28T12:41:53Z</time>
			</trkpt>
			<trkpt lat="43.032305" lon="-1.552338">
				<ele>1335</ele>
				<time>2018-04-28T12:41:58Z</time>
			</trkpt>
			<trkpt lat="43.032259" lon="-1.552343">
				<ele>1335</ele>
				<time>2018-04-28T12:42:01Z</time>
			</trkpt>
			<trkpt lat="43.032216" lon="-1.552372">
				<ele>1335</ele>
				<time>2018-04-28T12:42:05Z</time>
			</trkpt>
			<trkpt lat="43.032164" lon="-1.552393">
				<ele>1335</ele>
				<time>2018-04-28T12:42:09Z</time>
			</trkpt>
			<trkpt lat="43.032125" lon="-1.552428">
				<ele>1335</ele>
				<time>2018-04-28T12:42:13Z</time>
			</trkpt>
			<trkpt lat="43.032082" lon="-1.552446">
				<ele>1335</ele>
				<time>2018-04-28T12:42:16Z</time>
			</trkpt>
			<trkpt lat="43.032037" lon="-1.552452">
				<ele>1335</ele>
				<time>2018-04-28T12:42:19Z</time>
			</trkpt>
			<trkpt lat="43.031992" lon="-1.552484">
				<ele>1335</ele>
				<time>2018-04-28T12:42:23Z</time>
			</trkpt>
			<trkpt lat="43.03194" lon="-1.552495">
				<ele>1335</ele>
				<time>2018-04-28T12:42:27Z</time>
			</trkpt>
			<trkpt lat="43.031889" lon="-1.552476">
				<ele>1335</ele>
				<time>2018-04-28T12:42:31Z</time>
			</trkpt>
			<trkpt lat="43.031842" lon="-1.552481">
				<ele>1335</ele>
				<time>2018-04-28T12:42:35Z</time>
			</trkpt>
			<trkpt lat="43.031785" lon="-1.552485">
				<ele>1335</ele>
				<time>2018-04-28T12:42:38Z</time>
			</trkpt>
			<trkpt lat="43.031732" lon="-1.552481">
				<ele>1335</ele>
				<time>2018-04-28T12:42:42Z</time>
			</trkpt>
			<trkpt lat="43.031683" lon="-1.552482">
				<ele>1335</ele>
				<time>2018-04-28T12:42:46Z</time>
			</trkpt>
			<trkpt lat="43.031634" lon="-1.552461">
				<ele>1335</ele>
				<time>2018-04-28T12:42:52Z</time>
			</trkpt>
			<trkpt lat="43.031589" lon="-1.552447">
				<ele>1335</ele>
				<time>2018-04-28T12:42:56Z</time>
			</trkpt>
			<trkpt lat="43.031532" lon="-1.552448">
				<ele>1335</ele>
				<time>2018-04-28T12:43:01Z</time>
			</trkpt>
			<trkpt lat="43.031487" lon="-1.55245">
				<ele>1335</ele>
				<time>2018-04-28T12:43:04Z</time>
			</trkpt>
			<trkpt lat="43.031434" lon="-1.552459">
				<ele>1335</ele>
				<time>2018-04-28T12:43:07Z</time>
			</trkpt>
			<trkpt lat="43.031395" lon="-1.552497">
				<ele>1335</ele>
				<time>2018-04-28T12:43:10Z</time>
			</trkpt>
			<trkpt lat="43.031341" lon="-1.552517">
				<ele>1335</ele>
				<time>2018-04-28T12:43:13Z</time>
			</trkpt>
			<trkpt lat="43.031287" lon="-1.552538">
				<ele>1335</ele>
				<time>2018-04-28T12:43:16Z</time>
			</trkpt>
			<trkpt lat="43.031231" lon="-1.552561">
				<ele>1353</ele>
				<time>2018-04-28T12:43:19Z</time>
			</trkpt>
			<trkpt lat="43.031179" lon="-1.552624">
				<ele>1353</ele>
				<time>2018-04-28T12:43:22Z</time>
			</trkpt>
			<trkpt lat="43.031133" lon="-1.552666">
				<ele>1353</ele>
				<time>2018-04-28T12:43:25Z</time>
			</trkpt>
			<trkpt lat="43.031097" lon="-1.552712">
				<ele>1353</ele>
				<time>2018-04-28T12:43:27Z</time>
			</trkpt>
			<trkpt lat="43.031044" lon="-1.552736">
				<ele>1353</ele>
				<time>2018-04-28T12:43:30Z</time>
			</trkpt>
			<trkpt lat="43.030995" lon="-1.552756">
				<ele>1353</ele>
				<time>2018-04-28T12:43:33Z</time>
			</trkpt>
			<trkpt lat="43.030943" lon="-1.552781">
				<ele>1353</ele>
				<time>2018-04-28T12:43:36Z</time>
			</trkpt>
			<trkpt lat="43.030897" lon="-1.552812">
				<ele>1353</ele>
				<time>2018-04-28T12:43:39Z</time>
			</trkpt>
			<trkpt lat="43.030847" lon="-1.552843">
				<ele>1353</ele>
				<time>2018-04-28T12:43:42Z</time>
			</trkpt>
			<trkpt lat="43.030801" lon="-1.552846">
				<ele>1353</ele>
				<time>2018-04-28T12:43:45Z</time>
			</trkpt>
			<trkpt lat="43.030737" lon="-1.552857">
				<ele>1353</ele>
				<time>2018-04-28T12:43:48Z</time>
			</trkpt>
			<trkpt lat="43.030689" lon="-1.552891">
				<ele>1353</ele>
				<time>2018-04-28T12:43:50Z</time>
			</trkpt>
			<trkpt lat="43.030643" lon="-1.552906">
				<ele>1353</ele>
				<time>2018-04-28T12:43:52Z</time>
			</trkpt>
			<trkpt lat="43.030598" lon="-1.552937">
				<ele>1353</ele>
				<time>2018-04-28T12:43:54Z</time>
			</trkpt>
			<trkpt lat="43.030549" lon="-1.552981">
				<ele>1353</ele>
				<time>2018-04-28T12:43:57Z</time>
			</trkpt>
			<trkpt lat="43.030506" lon="-1.553012">
				<ele>1353</ele>
				<time>2018-04-28T12:43:59Z</time>
			</trkpt>
			<trkpt lat="43.030462" lon="-1.553044">
				<ele>1353</ele>
				<time>2018-04-28T12:44:01Z</time>
			</trkpt>
			<trkpt lat="43.030415" lon="-1.553109">
				<ele>1353</ele>
				<time>2018-04-28T12:44:04Z</time>
			</trkpt>
			<trkpt lat="43.030364" lon="-1.553169">
				<ele>1353</ele>
				<time>2018-04-28T12:44:07Z</time>
			</trkpt>
			<trkpt lat="43.030325" lon="-1.553215">
				<ele>1353</ele>
				<time>2018-04-28T12:44:09Z</time>
			</trkpt>
			<trkpt lat="43.030282" lon="-1.553287">
				<ele>1353</ele>
				<time>2018-04-28T12:44:12Z</time>
			</trkpt>
			<trkpt lat="43.030246" lon="-1.55334">
				<ele>1353</ele>
				<time>2018-04-28T12:44:15Z</time>
			</trkpt>
			<trkpt lat="43.030198" lon="-1.553365">
				<ele>1353</ele>
				<time>2018-04-28T12:44:18Z</time>
			</trkpt>
			<trkpt lat="43.030175" lon="-1.553425">
				<ele>1353</ele>
				<time>2018-04-28T12:44:23Z</time>
			</trkpt>
			<trkpt lat="43.030148" lon="-1.553493">
				<ele>1353</ele>
				<time>2018-04-28T12:44:27Z</time>
			</trkpt>
			<trkpt lat="43.030127" lon="-1.553553">
				<ele>1353</ele>
				<time>2018-04-28T12:44:31Z</time>
			</trkpt>
			<trkpt lat="43.030098" lon="-1.553612">
				<ele>1353</ele>
				<time>2018-04-28T12:44:35Z</time>
			</trkpt>
			<trkpt lat="43.030048" lon="-1.553664">
				<ele>1353</ele>
				<time>2018-04-28T12:44:40Z</time>
			</trkpt>
			<trkpt lat="43.030004" lon="-1.553716">
				<ele>1353</ele>
				<time>2018-04-28T12:44:43Z</time>
			</trkpt>
			<trkpt lat="43.029962" lon="-1.553774">
				<ele>1353</ele>
				<time>2018-04-28T12:44:48Z</time>
			</trkpt>
			<trkpt lat="43.029923" lon="-1.553819">
				<ele>1353</ele>
				<time>2018-04-28T12:44:52Z</time>
			</trkpt>
			<trkpt lat="43.029894" lon="-1.553874">
				<ele>1353</ele>
				<time>2018-04-28T12:44:56Z</time>
			</trkpt>
			<trkpt lat="43.029857" lon="-1.553914">
				<ele>1353</ele>
				<time>2018-04-28T12:45:00Z</time>
			</trkpt>
			<trkpt lat="43.029837" lon="-1.55398">
				<ele>1353</ele>
				<time>2018-04-28T12:45:04Z</time>
			</trkpt>
			<trkpt lat="43.029808" lon="-1.554029">
				<ele>1353</ele>
				<time>2018-04-28T12:45:09Z</time>
			</trkpt>
			<trkpt lat="43.029766" lon="-1.554075">
				<ele>1353</ele>
				<time>2018-04-28T12:45:13Z</time>
			</trkpt>
			<trkpt lat="43.029746" lon="-1.554134">
				<ele>1353</ele>
				<time>2018-04-28T12:45:17Z</time>
			</trkpt>
			<trkpt lat="43.029724" lon="-1.554189">
				<ele>1349</ele>
				<time>2018-04-28T12:45:21Z</time>
			</trkpt>
			<trkpt lat="43.029682" lon="-1.554242">
				<ele>1349</ele>
				<time>2018-04-28T12:45:25Z</time>
			</trkpt>
			<trkpt lat="43.029661" lon="-1.554297">
				<ele>1349</ele>
				<time>2018-04-28T12:45:29Z</time>
			</trkpt>
			<trkpt lat="43.029632" lon="-1.554358">
				<ele>1349</ele>
				<time>2018-04-28T12:45:33Z</time>
			</trkpt>
			<trkpt lat="43.029596" lon="-1.55441">
				<ele>1349</ele>
				<time>2018-04-28T12:45:38Z</time>
			</trkpt>
			<trkpt lat="43.029564" lon="-1.554467">
				<ele>1349</ele>
				<time>2018-04-28T12:45:44Z</time>
			</trkpt>
			<trkpt lat="43.029529" lon="-1.554518">
				<ele>1349</ele>
				<time>2018-04-28T12:45:51Z</time>
			</trkpt>
			<trkpt lat="43.0295" lon="-1.55457">
				<ele>1349</ele>
				<time>2018-04-28T12:45:55Z</time>
			</trkpt>
			<trkpt lat="43.029482" lon="-1.554628">
				<ele>1349</ele>
				<time>2018-04-28T12:45:58Z</time>
			</trkpt>
			<trkpt lat="43.029457" lon="-1.55469">
				<ele>1349</ele>
				<time>2018-04-28T12:46:03Z</time>
			</trkpt>
			<trkpt lat="43.029414" lon="-1.554744">
				<ele>1349</ele>
				<time>2018-04-28T12:46:08Z</time>
			</trkpt>
			<trkpt lat="43.029403" lon="-1.554805">
				<ele>1349</ele>
				<time>2018-04-28T12:46:13Z</time>
			</trkpt>
			<trkpt lat="43.029371" lon="-1.554862">
				<ele>1349</ele>
				<time>2018-04-28T12:46:17Z</time>
			</trkpt>
			<trkpt lat="43.029338" lon="-1.554917">
				<ele>1349</ele>
				<time>2018-04-28T12:46:21Z</time>
			</trkpt>
			<trkpt lat="43.029316" lon="-1.554984">
				<ele>1349</ele>
				<time>2018-04-28T12:46:26Z</time>
			</trkpt>
			<trkpt lat="43.029295" lon="-1.555047">
				<ele>1349</ele>
				<time>2018-04-28T12:46:29Z</time>
			</trkpt>
			<trkpt lat="43.029274" lon="-1.555121">
				<ele>1349</ele>
				<time>2018-04-28T12:46:33Z</time>
			</trkpt>
			<trkpt lat="43.029246" lon="-1.555172">
				<ele>1349</ele>
				<time>2018-04-28T12:46:38Z</time>
			</trkpt>
			<trkpt lat="43.029214" lon="-1.555234">
				<ele>1349</ele>
				<time>2018-04-28T12:46:44Z</time>
			</trkpt>
			<trkpt lat="43.029189" lon="-1.555287">
				<ele>1349</ele>
				<time>2018-04-28T12:46:47Z</time>
			</trkpt>
			<trkpt lat="43.029158" lon="-1.555347">
				<ele>1335</ele>
				<time>2018-04-28T12:46:52Z</time>
			</trkpt>
			<trkpt lat="43.02914" lon="-1.555409">
				<ele>1335</ele>
				<time>2018-04-28T12:46:57Z</time>
			</trkpt>
			<trkpt lat="43.029128" lon="-1.555478">
				<ele>1335</ele>
				<time>2018-04-28T12:47:02Z</time>
			</trkpt>
			<trkpt lat="43.029107" lon="-1.555543">
				<ele>1335</ele>
				<time>2018-04-28T12:47:06Z</time>
			</trkpt>
			<trkpt lat="43.029088" lon="-1.555599">
				<ele>1335</ele>
				<time>2018-04-28T12:47:11Z</time>
			</trkpt>
			<trkpt lat="43.029089" lon="-1.555661">
				<ele>1335</ele>
				<time>2018-04-28T12:47:17Z</time>
			</trkpt>
			<trkpt lat="43.029047" lon="-1.55571">
				<ele>1335</ele>
				<time>2018-04-28T12:47:25Z</time>
			</trkpt>
			<trkpt lat="43.029021" lon="-1.555771">
				<ele>1335</ele>
				<time>2018-04-28T12:47:32Z</time>
			</trkpt>
			<trkpt lat="43.028985" lon="-1.555814">
				<ele>1335</ele>
				<time>2018-04-28T12:47:41Z</time>
			</trkpt>
			<trkpt lat="43.028978" lon="-1.555877">
				<ele>1335</ele>
				<time>2018-04-28T12:47:50Z</time>
			</trkpt>
			<trkpt lat="43.028972" lon="-1.555944">
				<ele>1335</ele>
				<time>2018-04-28T12:47:56Z</time>
			</trkpt>
			<trkpt lat="43.028975" lon="-1.556017">
				<ele>1335</ele>
				<time>2018-04-28T12:48:15Z</time>
			</trkpt>
			<trkpt lat="43.028948" lon="-1.556075">
				<ele>1335</ele>
				<time>2018-04-28T12:48:20Z</time>
			</trkpt>
			<trkpt lat="43.02893" lon="-1.556135">
				<ele>1335</ele>
				<time>2018-04-28T12:48:26Z</time>
			</trkpt>
			<trkpt lat="43.028918" lon="-1.556202">
				<ele>1335</ele>
				<time>2018-04-28T12:48:45Z</time>
			</trkpt>
			<trkpt lat="43.028908" lon="-1.556262">
				<ele>1349</ele>
				<time>2018-04-28T12:48:55Z</time>
			</trkpt>
			<trkpt lat="43.028936" lon="-1.556316">
				<ele>1349</ele>
				<time>2018-04-28T12:49:05Z</time>
			</trkpt>
			<trkpt lat="43.028966" lon="-1.55638">
				<ele>1349</ele>
				<time>2018-04-28T12:49:12Z</time>
			</trkpt>
			<trkpt lat="43.028998" lon="-1.556424">
				<ele>1349</ele>
				<time>2018-04-28T12:49:18Z</time>
			</trkpt>
			<trkpt lat="43.029039" lon="-1.556463">
				<ele>1349</ele>
				<time>2018-04-28T12:49:23Z</time>
			</trkpt>
			<trkpt lat="43.029063" lon="-1.556521">
				<ele>1349</ele>
				<time>2018-04-28T12:49:27Z</time>
			</trkpt>
			<trkpt lat="43.029089" lon="-1.556576">
				<ele>1349</ele>
				<time>2018-04-28T12:49:30Z</time>
			</trkpt>
			<trkpt lat="43.029117" lon="-1.556645">
				<ele>1349</ele>
				<time>2018-04-28T12:49:33Z</time>
			</trkpt>
			<trkpt lat="43.029146" lon="-1.556717">
				<ele>1349</ele>
				<time>2018-04-28T12:49:36Z</time>
			</trkpt>
			<trkpt lat="43.029152" lon="-1.556784">
				<ele>1349</ele>
				<time>2018-04-28T12:49:40Z</time>
			</trkpt>
			<trkpt lat="43.029194" lon="-1.556827">
				<ele>1363</ele>
				<time>2018-04-28T12:49:45Z</time>
			</trkpt>
			<trkpt lat="43.029208" lon="-1.556898">
				<ele>1363</ele>
				<time>2018-04-28T12:49:48Z</time>
			</trkpt>
			<trkpt lat="43.029214" lon="-1.556965">
				<ele>1363</ele>
				<time>2018-04-28T12:49:51Z</time>
			</trkpt>
			<trkpt lat="43.029241" lon="-1.55702">
				<ele>1363</ele>
				<time>2018-04-28T12:49:54Z</time>
			</trkpt>
			<trkpt lat="43.029233" lon="-1.557081">
				<ele>1363</ele>
				<time>2018-04-28T12:49:58Z</time>
			</trkpt>
			<trkpt lat="43.029218" lon="-1.55714">
				<ele>1363</ele>
				<time>2018-04-28T12:50:00Z</time>
			</trkpt>
			<trkpt lat="43.029184" lon="-1.557212">
				<ele>1363</ele>
				<time>2018-04-28T12:50:03Z</time>
			</trkpt>
			<trkpt lat="43.029167" lon="-1.557273">
				<ele>1363</ele>
				<time>2018-04-28T12:50:05Z</time>
			</trkpt>
			<trkpt lat="43.029149" lon="-1.557333">
				<ele>1349</ele>
				<time>2018-04-28T12:50:09Z</time>
			</trkpt>
			<trkpt lat="43.029114" lon="-1.557376">
				<ele>1349</ele>
				<time>2018-04-28T12:50:12Z</time>
			</trkpt>
			<trkpt lat="43.029079" lon="-1.557441">
				<ele>1349</ele>
				<time>2018-04-28T12:50:15Z</time>
			</trkpt>
			<trkpt lat="43.029058" lon="-1.557498">
				<ele>1349</ele>
				<time>2018-04-28T12:50:21Z</time>
			</trkpt>
			<trkpt lat="43.02905" lon="-1.557587">
				<ele>1349</ele>
				<time>2018-04-28T12:50:24Z</time>
			</trkpt>
			<trkpt lat="43.029044" lon="-1.557666">
				<ele>1349</ele>
				<time>2018-04-28T12:50:26Z</time>
			</trkpt>
			<trkpt lat="43.029043" lon="-1.557753">
				<ele>1349</ele>
				<time>2018-04-28T12:50:28Z</time>
			</trkpt>
			<trkpt lat="43.029046" lon="-1.557816">
				<ele>1349</ele>
				<time>2018-04-28T12:50:30Z</time>
			</trkpt>
			<trkpt lat="43.029044" lon="-1.557884">
				<ele>1349</ele>
				<time>2018-04-28T12:50:32Z</time>
			</trkpt>
			<trkpt lat="43.029032" lon="-1.557953">
				<ele>1349</ele>
				<time>2018-04-28T12:50:34Z</time>
			</trkpt>
			<trkpt lat="43.029021" lon="-1.558019">
				<ele>1349</ele>
				<time>2018-04-28T12:50:36Z</time>
			</trkpt>
			<trkpt lat="43.029011" lon="-1.558087">
				<ele>1349</ele>
				<time>2018-04-28T12:50:38Z</time>
			</trkpt>
			<trkpt lat="43.028992" lon="-1.558151">
				<ele>1349</ele>
				<time>2018-04-28T12:50:40Z</time>
			</trkpt>
			<trkpt lat="43.028969" lon="-1.558208">
				<ele>1349</ele>
				<time>2018-04-28T12:50:42Z</time>
			</trkpt>
			<trkpt lat="43.028953" lon="-1.558273">
				<ele>1349</ele>
				<time>2018-04-28T12:50:44Z</time>
			</trkpt>
			<trkpt lat="43.028933" lon="-1.558344">
				<ele>1346</ele>
				<time>2018-04-28T12:50:47Z</time>
			</trkpt>
			<trkpt lat="43.028907" lon="-1.558403">
				<ele>1346</ele>
				<time>2018-04-28T12:50:50Z</time>
			</trkpt>
			<trkpt lat="43.028867" lon="-1.558456">
				<ele>1346</ele>
				<time>2018-04-28T12:50:53Z</time>
			</trkpt>
			<trkpt lat="43.028827" lon="-1.558514">
				<ele>1346</ele>
				<time>2018-04-28T12:50:57Z</time>
			</trkpt>
			<trkpt lat="43.028794" lon="-1.558566">
				<ele>1346</ele>
				<time>2018-04-28T12:51:00Z</time>
			</trkpt>
			<trkpt lat="43.028746" lon="-1.558614">
				<ele>1346</ele>
				<time>2018-04-28T12:51:03Z</time>
			</trkpt>
			<trkpt lat="43.028718" lon="-1.558679">
				<ele>1346</ele>
				<time>2018-04-28T12:51:07Z</time>
			</trkpt>
			<trkpt lat="43.028698" lon="-1.558744">
				<ele>1346</ele>
				<time>2018-04-28T12:51:10Z</time>
			</trkpt>
			<trkpt lat="43.028658" lon="-1.5588">
				<ele>1346</ele>
				<time>2018-04-28T12:51:13Z</time>
			</trkpt>
			<trkpt lat="43.028644" lon="-1.558859">
				<ele>1346</ele>
				<time>2018-04-28T12:51:16Z</time>
			</trkpt>
			<trkpt lat="43.028604" lon="-1.558925">
				<ele>1346</ele>
				<time>2018-04-28T12:51:22Z</time>
			</trkpt>
			<trkpt lat="43.028555" lon="-1.558967">
				<ele>1346</ele>
				<time>2018-04-28T12:51:25Z</time>
			</trkpt>
			<trkpt lat="43.028519" lon="-1.55901">
				<ele>1346</ele>
				<time>2018-04-28T12:51:27Z</time>
			</trkpt>
			<trkpt lat="43.028484" lon="-1.559051">
				<ele>1346</ele>
				<time>2018-04-28T12:51:29Z</time>
			</trkpt>
			<trkpt lat="43.028436" lon="-1.559118">
				<ele>1346</ele>
				<time>2018-04-28T12:51:32Z</time>
			</trkpt>
			<trkpt lat="43.028409" lon="-1.55917">
				<ele>1346</ele>
				<time>2018-04-28T12:51:36Z</time>
			</trkpt>
			<trkpt lat="43.028356" lon="-1.559206">
				<ele>1346</ele>
				<time>2018-04-28T12:51:40Z</time>
			</trkpt>
			<trkpt lat="43.028341" lon="-1.559278">
				<ele>1346</ele>
				<time>2018-04-28T12:51:45Z</time>
			</trkpt>
			<trkpt lat="43.028318" lon="-1.559335">
				<ele>1346</ele>
				<time>2018-04-28T12:51:49Z</time>
			</trkpt>
			<trkpt lat="43.028283" lon="-1.559388">
				<ele>1346</ele>
				<time>2018-04-28T12:51:51Z</time>
			</trkpt>
			<trkpt lat="43.028253" lon="-1.559467">
				<ele>1346</ele>
				<time>2018-04-28T12:51:54Z</time>
			</trkpt>
			<trkpt lat="43.028229" lon="-1.559527">
				<ele>1346</ele>
				<time>2018-04-28T12:51:56Z</time>
			</trkpt>
			<trkpt lat="43.028227" lon="-1.559607">
				<ele>1346</ele>
				<time>2018-04-28T12:51:58Z</time>
			</trkpt>
			<trkpt lat="43.028184" lon="-1.559649">
				<ele>1346</ele>
				<time>2018-04-28T12:52:00Z</time>
			</trkpt>
			<trkpt lat="43.028139" lon="-1.5597">
				<ele>1346</ele>
				<time>2018-04-28T12:52:02Z</time>
			</trkpt>
			<trkpt lat="43.028108" lon="-1.559747">
				<ele>1346</ele>
				<time>2018-04-28T12:52:04Z</time>
			</trkpt>
			<trkpt lat="43.028058" lon="-1.559783">
				<ele>1346</ele>
				<time>2018-04-28T12:52:06Z</time>
			</trkpt>
			<trkpt lat="43.02803" lon="-1.559852">
				<ele>1346</ele>
				<time>2018-04-28T12:52:08Z</time>
			</trkpt>
			<trkpt lat="43.027986" lon="-1.559874">
				<ele>1346</ele>
				<time>2018-04-28T12:52:10Z</time>
			</trkpt>
			<trkpt lat="43.027941" lon="-1.559911">
				<ele>1346</ele>
				<time>2018-04-28T12:52:13Z</time>
			</trkpt>
			<trkpt lat="43.027896" lon="-1.559957">
				<ele>1346</ele>
				<time>2018-04-28T12:52:16Z</time>
			</trkpt>
			<trkpt lat="43.027894" lon="-1.560034">
				<ele>1346</ele>
				<time>2018-04-28T12:52:20Z</time>
			</trkpt>
			<trkpt lat="43.027865" lon="-1.560103">
				<ele>1346</ele>
				<time>2018-04-28T12:52:23Z</time>
			</trkpt>
			<trkpt lat="43.027823" lon="-1.560143">
				<ele>1346</ele>
				<time>2018-04-28T12:52:26Z</time>
			</trkpt>
			<trkpt lat="43.027781" lon="-1.56018">
				<ele>1346</ele>
				<time>2018-04-28T12:52:30Z</time>
			</trkpt>
			<trkpt lat="43.02775" lon="-1.560226">
				<ele>1346</ele>
				<time>2018-04-28T12:52:34Z</time>
			</trkpt>
			<trkpt lat="43.027717" lon="-1.560274">
				<ele>1346</ele>
				<time>2018-04-28T12:52:37Z</time>
			</trkpt>
			<trkpt lat="43.027687" lon="-1.560328">
				<ele>1346</ele>
				<time>2018-04-28T12:52:39Z</time>
			</trkpt>
			<trkpt lat="43.027659" lon="-1.560384">
				<ele>1346</ele>
				<time>2018-04-28T12:52:43Z</time>
			</trkpt>
			<trkpt lat="43.027585" lon="-1.560404">
				<ele>1346</ele>
				<time>2018-04-28T12:52:46Z</time>
			</trkpt>
			<trkpt lat="43.027561" lon="-1.560463">
				<ele>1292</ele>
				<time>2018-04-28T12:52:49Z</time>
			</trkpt>
			<trkpt lat="43.027523" lon="-1.560499">
				<ele>1292</ele>
				<time>2018-04-28T12:52:51Z</time>
			</trkpt>
			<trkpt lat="43.027515" lon="-1.56058">
				<ele>1292</ele>
				<time>2018-04-28T12:52:54Z</time>
			</trkpt>
			<trkpt lat="43.027485" lon="-1.56063">
				<ele>1292</ele>
				<time>2018-04-28T12:52:58Z</time>
			</trkpt>
			<trkpt lat="43.027442" lon="-1.560656">
				<ele>1292</ele>
				<time>2018-04-28T12:53:01Z</time>
			</trkpt>
			<trkpt lat="43.027397" lon="-1.56069">
				<ele>1292</ele>
				<time>2018-04-28T12:53:04Z</time>
			</trkpt>
			<trkpt lat="43.027355" lon="-1.560748">
				<ele>1292</ele>
				<time>2018-04-28T12:53:08Z</time>
			</trkpt>
			<trkpt lat="43.027311" lon="-1.560785">
				<ele>1292</ele>
				<time>2018-04-28T12:53:11Z</time>
			</trkpt>
			<trkpt lat="43.027261" lon="-1.560822">
				<ele>1292</ele>
				<time>2018-04-28T12:53:14Z</time>
			</trkpt>
			<trkpt lat="43.02723" lon="-1.56087">
				<ele>1292</ele>
				<time>2018-04-28T12:53:18Z</time>
			</trkpt>
			<trkpt lat="43.027185" lon="-1.560945">
				<ele>1292</ele>
				<time>2018-04-28T12:53:21Z</time>
			</trkpt>
			<trkpt lat="43.02715" lon="-1.560997">
				<ele>1292</ele>
				<time>2018-04-28T12:53:23Z</time>
			</trkpt>
			<trkpt lat="43.027094" lon="-1.561046">
				<ele>1292</ele>
				<time>2018-04-28T12:53:26Z</time>
			</trkpt>
			<trkpt lat="43.027048" lon="-1.56108">
				<ele>1318</ele>
				<time>2018-04-28T12:53:28Z</time>
			</trkpt>
			<trkpt lat="43.027012" lon="-1.561139">
				<ele>1318</ele>
				<time>2018-04-28T12:53:30Z</time>
			</trkpt>
			<trkpt lat="43.026977" lon="-1.561181">
				<ele>1318</ele>
				<time>2018-04-28T12:53:32Z</time>
			</trkpt>
			<trkpt lat="43.02694" lon="-1.561217">
				<ele>1318</ele>
				<time>2018-04-28T12:53:35Z</time>
			</trkpt>
			<trkpt lat="43.02692" lon="-1.561285">
				<ele>1318</ele>
				<time>2018-04-28T12:53:38Z</time>
			</trkpt>
			<trkpt lat="43.026889" lon="-1.561341">
				<ele>1318</ele>
				<time>2018-04-28T12:53:42Z</time>
			</trkpt>
			<trkpt lat="43.026845" lon="-1.561385">
				<ele>1318</ele>
				<time>2018-04-28T12:53:47Z</time>
			</trkpt>
			<trkpt lat="43.026804" lon="-1.561424">
				<ele>1318</ele>
				<time>2018-04-28T12:53:51Z</time>
			</trkpt>
			<trkpt lat="43.02676" lon="-1.561479">
				<ele>1318</ele>
				<time>2018-04-28T12:53:56Z</time>
			</trkpt>
			<trkpt lat="43.026727" lon="-1.561522">
				<ele>1318</ele>
				<time>2018-04-28T12:54:00Z</time>
			</trkpt>
			<trkpt lat="43.026675" lon="-1.561553">
				<ele>1318</ele>
				<time>2018-04-28T12:54:05Z</time>
			</trkpt>
			<trkpt lat="43.026632" lon="-1.561575">
				<ele>1318</ele>
				<time>2018-04-28T12:54:10Z</time>
			</trkpt>
			<trkpt lat="43.026591" lon="-1.561617">
				<ele>1318</ele>
				<time>2018-04-28T12:54:15Z</time>
			</trkpt>
			<trkpt lat="43.026549" lon="-1.561647">
				<ele>1318</ele>
				<time>2018-04-28T12:54:20Z</time>
			</trkpt>
			<trkpt lat="43.026509" lon="-1.561697">
				<ele>1318</ele>
				<time>2018-04-28T12:54:24Z</time>
			</trkpt>
			<trkpt lat="43.02647" lon="-1.561742">
				<ele>1318</ele>
				<time>2018-04-28T12:54:29Z</time>
			</trkpt>
			<trkpt lat="43.026434" lon="-1.561781">
				<ele>1318</ele>
				<time>2018-04-28T12:54:32Z</time>
			</trkpt>
			<trkpt lat="43.026406" lon="-1.56183">
				<ele>1318</ele>
				<time>2018-04-28T12:54:37Z</time>
			</trkpt>
			<trkpt lat="43.026377" lon="-1.561879">
				<ele>1318</ele>
				<time>2018-04-28T12:54:43Z</time>
			</trkpt>
			<trkpt lat="43.026354" lon="-1.561938">
				<ele>1318</ele>
				<time>2018-04-28T12:54:48Z</time>
			</trkpt>
			<trkpt lat="43.026313" lon="-1.561976">
				<ele>1318</ele>
				<time>2018-04-28T12:54:52Z</time>
			</trkpt>
			<trkpt lat="43.026278" lon="-1.562029">
				<ele>1318</ele>
				<time>2018-04-28T12:54:56Z</time>
			</trkpt>
			<trkpt lat="43.026259" lon="-1.562093">
				<ele>1318</ele>
				<time>2018-04-28T12:55:02Z</time>
			</trkpt>
			<trkpt lat="43.026237" lon="-1.562155">
				<ele>1318</ele>
				<time>2018-04-28T12:55:07Z</time>
			</trkpt>
			<trkpt lat="43.026186" lon="-1.562198">
				<ele>1318</ele>
				<time>2018-04-28T12:55:11Z</time>
			</trkpt>
			<trkpt lat="43.026132" lon="-1.562207">
				<ele>1318</ele>
				<time>2018-04-28T12:55:14Z</time>
			</trkpt>
			<trkpt lat="43.026081" lon="-1.562226">
				<ele>1318</ele>
				<time>2018-04-28T12:55:17Z</time>
			</trkpt>
			<trkpt lat="43.02604" lon="-1.562253">
				<ele>1318</ele>
				<time>2018-04-28T12:55:19Z</time>
			</trkpt>
			<trkpt lat="43.026002" lon="-1.562289">
				<ele>1318</ele>
				<time>2018-04-28T12:55:21Z</time>
			</trkpt>
			<trkpt lat="43.025955" lon="-1.562318">
				<ele>1318</ele>
				<time>2018-04-28T12:55:23Z</time>
			</trkpt>
			<trkpt lat="43.025912" lon="-1.562339">
				<ele>1318</ele>
				<time>2018-04-28T12:55:25Z</time>
			</trkpt>
			<trkpt lat="43.025847" lon="-1.562382">
				<ele>1318</ele>
				<time>2018-04-28T12:55:28Z</time>
			</trkpt>
			<trkpt lat="43.025795" lon="-1.562409">
				<ele>1318</ele>
				<time>2018-04-28T12:55:30Z</time>
			</trkpt>
			<trkpt lat="43.025738" lon="-1.562455">
				<ele>1318</ele>
				<time>2018-04-28T12:55:33Z</time>
			</trkpt>
			<trkpt lat="43.025694" lon="-1.562476">
				<ele>1318</ele>
				<time>2018-04-28T12:55:35Z</time>
			</trkpt>
			<trkpt lat="43.025646" lon="-1.562523">
				<ele>1297</ele>
				<time>2018-04-28T12:55:38Z</time>
			</trkpt>
			<trkpt lat="43.025605" lon="-1.562566">
				<ele>1297</ele>
				<time>2018-04-28T12:55:40Z</time>
			</trkpt>
			<trkpt lat="43.025559" lon="-1.562624">
				<ele>1297</ele>
				<time>2018-04-28T12:55:43Z</time>
			</trkpt>
			<trkpt lat="43.025523" lon="-1.562672">
				<ele>1297</ele>
				<time>2018-04-28T12:55:45Z</time>
			</trkpt>
			<trkpt lat="43.025491" lon="-1.562729">
				<ele>1297</ele>
				<time>2018-04-28T12:55:47Z</time>
			</trkpt>
			<trkpt lat="43.025441" lon="-1.562782">
				<ele>1297</ele>
				<time>2018-04-28T12:55:49Z</time>
			</trkpt>
			<trkpt lat="43.025409" lon="-1.562844">
				<ele>1297</ele>
				<time>2018-04-28T12:55:51Z</time>
			</trkpt>
			<trkpt lat="43.025357" lon="-1.562901">
				<ele>1297</ele>
				<time>2018-04-28T12:55:53Z</time>
			</trkpt>
			<trkpt lat="43.025334" lon="-1.562963">
				<ele>1297</ele>
				<time>2018-04-28T12:55:55Z</time>
			</trkpt>
			<trkpt lat="43.025315" lon="-1.563022">
				<ele>1297</ele>
				<time>2018-04-28T12:55:57Z</time>
			</trkpt>
			<trkpt lat="43.025294" lon="-1.563095">
				<ele>1297</ele>
				<time>2018-04-28T12:56:00Z</time>
			</trkpt>
			<trkpt lat="43.025273" lon="-1.563155">
				<ele>1297</ele>
				<time>2018-04-28T12:56:02Z</time>
			</trkpt>
			<trkpt lat="43.025243" lon="-1.563209">
				<ele>1297</ele>
				<time>2018-04-28T12:56:05Z</time>
			</trkpt>
			<trkpt lat="43.025201" lon="-1.563243">
				<ele>1297</ele>
				<time>2018-04-28T12:56:08Z</time>
			</trkpt>
			<trkpt lat="43.025149" lon="-1.563296">
				<ele>1297</ele>
				<time>2018-04-28T12:56:11Z</time>
			</trkpt>
			<trkpt lat="43.025104" lon="-1.563361">
				<ele>1297</ele>
				<time>2018-04-28T12:56:14Z</time>
			</trkpt>
			<trkpt lat="43.025071" lon="-1.563417">
				<ele>1297</ele>
				<time>2018-04-28T12:56:16Z</time>
			</trkpt>
			<trkpt lat="43.025031" lon="-1.563455">
				<ele>1297</ele>
				<time>2018-04-28T12:56:18Z</time>
			</trkpt>
			<trkpt lat="43.024996" lon="-1.563504">
				<ele>1264</ele>
				<time>2018-04-28T12:56:20Z</time>
			</trkpt>
			<trkpt lat="43.024956" lon="-1.563575">
				<ele>1264</ele>
				<time>2018-04-28T12:56:23Z</time>
			</trkpt>
			<trkpt lat="43.024927" lon="-1.563646">
				<ele>1264</ele>
				<time>2018-04-28T12:56:26Z</time>
			</trkpt>
			<trkpt lat="43.024899" lon="-1.563702">
				<ele>1264</ele>
				<time>2018-04-28T12:56:28Z</time>
			</trkpt>
			<trkpt lat="43.024866" lon="-1.563752">
				<ele>1264</ele>
				<time>2018-04-28T12:56:30Z</time>
			</trkpt>
			<trkpt lat="43.02484" lon="-1.563806">
				<ele>1264</ele>
				<time>2018-04-28T12:56:32Z</time>
			</trkpt>
			<trkpt lat="43.0248" lon="-1.563872">
				<ele>1264</ele>
				<time>2018-04-28T12:56:34Z</time>
			</trkpt>
			<trkpt lat="43.024765" lon="-1.563935">
				<ele>1264</ele>
				<time>2018-04-28T12:56:36Z</time>
			</trkpt>
			<trkpt lat="43.024723" lon="-1.563985">
				<ele>1264</ele>
				<time>2018-04-28T12:56:38Z</time>
			</trkpt>
			<trkpt lat="43.024701" lon="-1.564044">
				<ele>1264</ele>
				<time>2018-04-28T12:56:40Z</time>
			</trkpt>
			<trkpt lat="43.024666" lon="-1.564101">
				<ele>1264</ele>
				<time>2018-04-28T12:56:42Z</time>
			</trkpt>
			<trkpt lat="43.024646" lon="-1.564163">
				<ele>1264</ele>
				<time>2018-04-28T12:56:44Z</time>
			</trkpt>
			<trkpt lat="43.024602" lon="-1.564239">
				<ele>1264</ele>
				<time>2018-04-28T12:56:47Z</time>
			</trkpt>
			<trkpt lat="43.024578" lon="-1.564309">
				<ele>1264</ele>
				<time>2018-04-28T12:56:50Z</time>
			</trkpt>
			<trkpt lat="43.024541" lon="-1.564369">
				<ele>1264</ele>
				<time>2018-04-28T12:56:52Z</time>
			</trkpt>
			<trkpt lat="43.024512" lon="-1.564439">
				<ele>1264</ele>
				<time>2018-04-28T12:56:54Z</time>
			</trkpt>
			<trkpt lat="43.024475" lon="-1.564494">
				<ele>1264</ele>
				<time>2018-04-28T12:56:56Z</time>
			</trkpt>
			<trkpt lat="43.024445" lon="-1.564564">
				<ele>1264</ele>
				<time>2018-04-28T12:56:59Z</time>
			</trkpt>
			<trkpt lat="43.02442" lon="-1.564626">
				<ele>1293</ele>
				<time>2018-04-28T12:57:01Z</time>
			</trkpt>
			<trkpt lat="43.024393" lon="-1.564678">
				<ele>1293</ele>
				<time>2018-04-28T12:57:03Z</time>
			</trkpt>
			<trkpt lat="43.024377" lon="-1.564739">
				<ele>1293</ele>
				<time>2018-04-28T12:57:05Z</time>
			</trkpt>
			<trkpt lat="43.02436" lon="-1.564807">
				<ele>1293</ele>
				<time>2018-04-28T12:57:07Z</time>
			</trkpt>
			<trkpt lat="43.024326" lon="-1.564887">
				<ele>1293</ele>
				<time>2018-04-28T12:57:09Z</time>
			</trkpt>
			<trkpt lat="43.024318" lon="-1.564955">
				<ele>1293</ele>
				<time>2018-04-28T12:57:11Z</time>
			</trkpt>
			<trkpt lat="43.024305" lon="-1.565037">
				<ele>1293</ele>
				<time>2018-04-28T12:57:13Z</time>
			</trkpt>
			<trkpt lat="43.024277" lon="-1.565107">
				<ele>1293</ele>
				<time>2018-04-28T12:57:15Z</time>
			</trkpt>
			<trkpt lat="43.024247" lon="-1.56516">
				<ele>1293</ele>
				<time>2018-04-28T12:57:17Z</time>
			</trkpt>
			<trkpt lat="43.024217" lon="-1.565221">
				<ele>1293</ele>
				<time>2018-04-28T12:57:19Z</time>
			</trkpt>
			<trkpt lat="43.024191" lon="-1.565285">
				<ele>1293</ele>
				<time>2018-04-28T12:57:21Z</time>
			</trkpt>
			<trkpt lat="43.024157" lon="-1.565366">
				<ele>1293</ele>
				<time>2018-04-28T12:57:24Z</time>
			</trkpt>
			<trkpt lat="43.024111" lon="-1.56544">
				<ele>1293</ele>
				<time>2018-04-28T12:57:27Z</time>
			</trkpt>
			<trkpt lat="43.024091" lon="-1.565507">
				<ele>1293</ele>
				<time>2018-04-28T12:57:29Z</time>
			</trkpt>
			<trkpt lat="43.024049" lon="-1.565576">
				<ele>1293</ele>
				<time>2018-04-28T12:57:32Z</time>
			</trkpt>
			<trkpt lat="43.02403" lon="-1.565633">
				<ele>1293</ele>
				<time>2018-04-28T12:57:34Z</time>
			</trkpt>
			<trkpt lat="43.024003" lon="-1.565695">
				<ele>1293</ele>
				<time>2018-04-28T12:57:36Z</time>
			</trkpt>
			<trkpt lat="43.023968" lon="-1.565765">
				<ele>1293</ele>
				<time>2018-04-28T12:57:38Z</time>
			</trkpt>
			<trkpt lat="43.023932" lon="-1.565805">
				<ele>1293</ele>
				<time>2018-04-28T12:57:40Z</time>
			</trkpt>
			<trkpt lat="43.023886" lon="-1.565836">
				<ele>1293</ele>
				<time>2018-04-28T12:57:42Z</time>
			</trkpt>
			<trkpt lat="43.023844" lon="-1.56588">
				<ele>1293</ele>
				<time>2018-04-28T12:57:44Z</time>
			</trkpt>
			<trkpt lat="43.023813" lon="-1.565926">
				<ele>1293</ele>
				<time>2018-04-28T12:57:46Z</time>
			</trkpt>
			<trkpt lat="43.023764" lon="-1.565993">
				<ele>1293</ele>
				<time>2018-04-28T12:57:49Z</time>
			</trkpt>
			<trkpt lat="43.023714" lon="-1.566041">
				<ele>1293</ele>
				<time>2018-04-28T12:57:52Z</time>
			</trkpt>
			<trkpt lat="43.023679" lon="-1.566085">
				<ele>1293</ele>
				<time>2018-04-28T12:57:54Z</time>
			</trkpt>
			<trkpt lat="43.023645" lon="-1.56613">
				<ele>1293</ele>
				<time>2018-04-28T12:57:56Z</time>
			</trkpt>
			<trkpt lat="43.023594" lon="-1.566186">
				<ele>1293</ele>
				<time>2018-04-28T12:57:59Z</time>
			</trkpt>
			<trkpt lat="43.023541" lon="-1.566218">
				<ele>1293</ele>
				<time>2018-04-28T12:58:02Z</time>
			</trkpt>
			<trkpt lat="43.023493" lon="-1.566256">
				<ele>1293</ele>
				<time>2018-04-28T12:58:05Z</time>
			</trkpt>
			<trkpt lat="43.023433" lon="-1.566306">
				<ele>1293</ele>
				<time>2018-04-28T12:58:08Z</time>
			</trkpt>
			<trkpt lat="43.023376" lon="-1.566346">
				<ele>1293</ele>
				<time>2018-04-28T12:58:11Z</time>
			</trkpt>
			<trkpt lat="43.023338" lon="-1.566379">
				<ele>1293</ele>
				<time>2018-04-28T12:58:13Z</time>
			</trkpt>
			<trkpt lat="43.023288" lon="-1.566414">
				<ele>1293</ele>
				<time>2018-04-28T12:58:16Z</time>
			</trkpt>
			<trkpt lat="43.023242" lon="-1.566443">
				<ele>1293</ele>
				<time>2018-04-28T12:58:18Z</time>
			</trkpt>
			<trkpt lat="43.0232" lon="-1.566478">
				<ele>1293</ele>
				<time>2018-04-28T12:58:20Z</time>
			</trkpt>
			<trkpt lat="43.023152" lon="-1.566533">
				<ele>1293</ele>
				<time>2018-04-28T12:58:23Z</time>
			</trkpt>
			<trkpt lat="43.023102" lon="-1.566579">
				<ele>1293</ele>
				<time>2018-04-28T12:58:26Z</time>
			</trkpt>
			<trkpt lat="43.023053" lon="-1.566611">
				<ele>1293</ele>
				<time>2018-04-28T12:58:29Z</time>
			</trkpt>
			<trkpt lat="43.022999" lon="-1.566629">
				<ele>1293</ele>
				<time>2018-04-28T12:58:32Z</time>
			</trkpt>
			<trkpt lat="43.022948" lon="-1.566641">
				<ele>1293</ele>
				<time>2018-04-28T12:58:35Z</time>
			</trkpt>
			<trkpt lat="43.022888" lon="-1.566657">
				<ele>1223</ele>
				<time>2018-04-28T12:58:38Z</time>
			</trkpt>
			<trkpt lat="43.022833" lon="-1.566669">
				<ele>1215</ele>
				<time>2018-04-28T12:58:41Z</time>
			</trkpt>
			<trkpt lat="43.022776" lon="-1.566679">
				<ele>1215</ele>
				<time>2018-04-28T12:58:44Z</time>
			</trkpt>
			<trkpt lat="43.022717" lon="-1.566696">
				<ele>1215</ele>
				<time>2018-04-28T12:58:47Z</time>
			</trkpt>
			<trkpt lat="43.022659" lon="-1.566709">
				<ele>1215</ele>
				<time>2018-04-28T12:58:50Z</time>
			</trkpt>
			<trkpt lat="43.022602" lon="-1.566718">
				<ele>1215</ele>
				<time>2018-04-28T12:58:53Z</time>
			</trkpt>
			<trkpt lat="43.022546" lon="-1.56674">
				<ele>1215</ele>
				<time>2018-04-28T12:58:56Z</time>
			</trkpt>
			<trkpt lat="43.022498" lon="-1.56675">
				<ele>1215</ele>
				<time>2018-04-28T12:58:58Z</time>
			</trkpt>
			<trkpt lat="43.022439" lon="-1.566744">
				<ele>1215</ele>
				<time>2018-04-28T12:59:02Z</time>
			</trkpt>
			<trkpt lat="43.022388" lon="-1.566757">
				<ele>1215</ele>
				<time>2018-04-28T12:59:04Z</time>
			</trkpt>
			<trkpt lat="43.02233" lon="-1.566774">
				<ele>1215</ele>
				<time>2018-04-28T12:59:07Z</time>
			</trkpt>
			<trkpt lat="43.022268" lon="-1.56679">
				<ele>1215</ele>
				<time>2018-04-28T12:59:10Z</time>
			</trkpt>
			<trkpt lat="43.02221" lon="-1.566782">
				<ele>1215</ele>
				<time>2018-04-28T12:59:13Z</time>
			</trkpt>
			<trkpt lat="43.022164" lon="-1.566767">
				<ele>1215</ele>
				<time>2018-04-28T12:59:16Z</time>
			</trkpt>
			<trkpt lat="43.022106" lon="-1.56676">
				<ele>1215</ele>
				<time>2018-04-28T12:59:19Z</time>
			</trkpt>
			<trkpt lat="43.022048" lon="-1.566746">
				<ele>1215</ele>
				<time>2018-04-28T12:59:22Z</time>
			</trkpt>
			<trkpt lat="43.022" lon="-1.566739">
				<ele>1215</ele>
				<time>2018-04-28T12:59:25Z</time>
			</trkpt>
			<trkpt lat="43.021944" lon="-1.566746">
				<ele>1215</ele>
				<time>2018-04-28T12:59:29Z</time>
			</trkpt>
			<trkpt lat="43.02189" lon="-1.566736">
				<ele>1215</ele>
				<time>2018-04-28T12:59:32Z</time>
			</trkpt>
			<trkpt lat="43.021845" lon="-1.56673">
				<ele>1215</ele>
				<time>2018-04-28T12:59:35Z</time>
			</trkpt>
			<trkpt lat="43.021794" lon="-1.566736">
				<ele>1215</ele>
				<time>2018-04-28T12:59:38Z</time>
			</trkpt>
			<trkpt lat="43.021739" lon="-1.566781">
				<ele>1215</ele>
				<time>2018-04-28T12:59:42Z</time>
			</trkpt>
			<trkpt lat="43.021695" lon="-1.566812">
				<ele>1215</ele>
				<time>2018-04-28T12:59:46Z</time>
			</trkpt>
			<trkpt lat="43.021666" lon="-1.566861">
				<ele>1215</ele>
				<time>2018-04-28T12:59:49Z</time>
			</trkpt>
			<trkpt lat="43.021645" lon="-1.566944">
				<ele>1215</ele>
				<time>2018-04-28T12:59:52Z</time>
			</trkpt>
			<trkpt lat="43.021598" lon="-1.566936">
				<ele>1215</ele>
				<time>2018-04-28T12:59:56Z</time>
			</trkpt>
			<trkpt lat="43.021587" lon="-1.566861">
				<ele>1215</ele>
				<time>2018-04-28T13:00:00Z</time>
			</trkpt>
			<trkpt lat="43.021539" lon="-1.566833">
				<ele>1215</ele>
				<time>2018-04-28T13:00:03Z</time>
			</trkpt>
			<trkpt lat="43.021491" lon="-1.566796">
				<ele>1215</ele>
				<time>2018-04-28T13:00:06Z</time>
			</trkpt>
			<trkpt lat="43.021453" lon="-1.566745">
				<ele>1215</ele>
				<time>2018-04-28T13:00:09Z</time>
			</trkpt>
			<trkpt lat="43.021408" lon="-1.566716">
				<ele>1215</ele>
				<time>2018-04-28T13:00:12Z</time>
			</trkpt>
			<trkpt lat="43.02136" lon="-1.566742">
				<ele>1215</ele>
				<time>2018-04-28T13:00:17Z</time>
			</trkpt>
			<trkpt lat="43.02131" lon="-1.56672">
				<ele>1215</ele>
				<time>2018-04-28T13:00:21Z</time>
			</trkpt>
			<trkpt lat="43.021281" lon="-1.566672">
				<ele>1215</ele>
				<time>2018-04-28T13:00:25Z</time>
			</trkpt>
			<trkpt lat="43.021233" lon="-1.566697">
				<ele>1215</ele>
				<time>2018-04-28T13:00:30Z</time>
			</trkpt>
			<trkpt lat="43.02119" lon="-1.566716">
				<ele>1215</ele>
				<time>2018-04-28T13:00:36Z</time>
			</trkpt>
			<trkpt lat="43.021134" lon="-1.566741">
				<ele>1215</ele>
				<time>2018-04-28T13:00:39Z</time>
			</trkpt>
			<trkpt lat="43.021083" lon="-1.566734">
				<ele>1215</ele>
				<time>2018-04-28T13:00:42Z</time>
			</trkpt>
			<trkpt lat="43.021035" lon="-1.566754">
				<ele>1215</ele>
				<time>2018-04-28T13:00:46Z</time>
			</trkpt>
			<trkpt lat="43.020991" lon="-1.566798">
				<ele>1215</ele>
				<time>2018-04-28T13:00:49Z</time>
			</trkpt>
			<trkpt lat="43.02092" lon="-1.566834">
				<ele>1215</ele>
				<time>2018-04-28T13:00:52Z</time>
			</trkpt>
			<trkpt lat="43.020874" lon="-1.566896">
				<ele>1215</ele>
				<time>2018-04-28T13:00:55Z</time>
			</trkpt>
			<trkpt lat="43.020812" lon="-1.566897">
				<ele>1165</ele>
				<time>2018-04-28T13:00:58Z</time>
			</trkpt>
			<trkpt lat="43.020761" lon="-1.566905">
				<ele>1165</ele>
				<time>2018-04-28T13:01:02Z</time>
			</trkpt>
			<trkpt lat="43.020716" lon="-1.566911">
				<ele>1165</ele>
				<time>2018-04-28T13:01:05Z</time>
			</trkpt>
			<trkpt lat="43.020658" lon="-1.56689">
				<ele>1165</ele>
				<time>2018-04-28T13:01:07Z</time>
			</trkpt>
			<trkpt lat="43.020613" lon="-1.56689">
				<ele>1165</ele>
				<time>2018-04-28T13:01:09Z</time>
			</trkpt>
			<trkpt lat="43.020568" lon="-1.566909">
				<ele>1165</ele>
				<time>2018-04-28T13:01:11Z</time>
			</trkpt>
			<trkpt lat="43.020523" lon="-1.566907">
				<ele>1165</ele>
				<time>2018-04-28T13:01:13Z</time>
			</trkpt>
			<trkpt lat="43.020465" lon="-1.566915">
				<ele>1165</ele>
				<time>2018-04-28T13:01:15Z</time>
			</trkpt>
			<trkpt lat="43.020417" lon="-1.566909">
				<ele>1165</ele>
				<time>2018-04-28T13:01:18Z</time>
			</trkpt>
			<trkpt lat="43.020356" lon="-1.566877">
				<ele>1165</ele>
				<time>2018-04-28T13:01:21Z</time>
			</trkpt>
			<trkpt lat="43.020312" lon="-1.566848">
				<ele>1165</ele>
				<time>2018-04-28T13:01:24Z</time>
			</trkpt>
			<trkpt lat="43.020271" lon="-1.566796">
				<ele>1165</ele>
				<time>2018-04-28T13:01:27Z</time>
			</trkpt>
			<trkpt lat="43.020235" lon="-1.566751">
				<ele>1165</ele>
				<time>2018-04-28T13:01:30Z</time>
			</trkpt>
			<trkpt lat="43.020204" lon="-1.566703">
				<ele>1165</ele>
				<time>2018-04-28T13:01:32Z</time>
			</trkpt>
			<trkpt lat="43.020173" lon="-1.566659">
				<ele>1128</ele>
				<time>2018-04-28T13:01:34Z</time>
			</trkpt>
			<trkpt lat="43.020112" lon="-1.566618">
				<ele>1128</ele>
				<time>2018-04-28T13:01:37Z</time>
			</trkpt>
			<trkpt lat="43.020066" lon="-1.566582">
				<ele>1128</ele>
				<time>2018-04-28T13:01:40Z</time>
			</trkpt>
			<trkpt lat="43.020021" lon="-1.566525">
				<ele>1128</ele>
				<time>2018-04-28T13:01:43Z</time>
			</trkpt>
			<trkpt lat="43.019971" lon="-1.566494">
				<ele>1128</ele>
				<time>2018-04-28T13:01:45Z</time>
			</trkpt>
			<trkpt lat="43.019936" lon="-1.566434">
				<ele>1128</ele>
				<time>2018-04-28T13:01:48Z</time>
			</trkpt>
			<trkpt lat="43.01988" lon="-1.566381">
				<ele>1128</ele>
				<time>2018-04-28T13:01:51Z</time>
			</trkpt>
			<trkpt lat="43.019826" lon="-1.566343">
				<ele>1128</ele>
				<time>2018-04-28T13:01:54Z</time>
			</trkpt>
			<trkpt lat="43.019781" lon="-1.566305">
				<ele>1128</ele>
				<time>2018-04-28T13:01:57Z</time>
			</trkpt>
			<trkpt lat="43.019736" lon="-1.566275">
				<ele>1128</ele>
				<time>2018-04-28T13:02:00Z</time>
			</trkpt>
			<trkpt lat="43.019699" lon="-1.566231">
				<ele>1128</ele>
				<time>2018-04-28T13:02:03Z</time>
			</trkpt>
			<trkpt lat="43.019655" lon="-1.566178">
				<ele>1128</ele>
				<time>2018-04-28T13:02:07Z</time>
			</trkpt>
			<trkpt lat="43.019603" lon="-1.566146">
				<ele>1128</ele>
				<time>2018-04-28T13:02:10Z</time>
			</trkpt>
			<trkpt lat="43.019541" lon="-1.566124">
				<ele>1128</ele>
				<time>2018-04-28T13:02:13Z</time>
			</trkpt>
			<trkpt lat="43.019486" lon="-1.566098">
				<ele>1128</ele>
				<time>2018-04-28T13:02:16Z</time>
			</trkpt>
			<trkpt lat="43.019435" lon="-1.566048">
				<ele>1128</ele>
				<time>2018-04-28T13:02:19Z</time>
			</trkpt>
			<trkpt lat="43.019389" lon="-1.566016">
				<ele>1128</ele>
				<time>2018-04-28T13:02:23Z</time>
			</trkpt>
			<trkpt lat="43.019335" lon="-1.565982">
				<ele>1128</ele>
				<time>2018-04-28T13:02:27Z</time>
			</trkpt>
			<trkpt lat="43.019287" lon="-1.565935">
				<ele>1128</ele>
				<time>2018-04-28T13:02:30Z</time>
			</trkpt>
			<trkpt lat="43.019237" lon="-1.565903">
				<ele>1128</ele>
				<time>2018-04-28T13:02:33Z</time>
			</trkpt>
			<trkpt lat="43.01922" lon="-1.565837">
				<ele>1128</ele>
				<time>2018-04-28T13:02:36Z</time>
			</trkpt>
			<trkpt lat="43.019167" lon="-1.565795">
				<ele>1128</ele>
				<time>2018-04-28T13:02:39Z</time>
			</trkpt>
			<trkpt lat="43.019158" lon="-1.565734">
				<ele>1128</ele>
				<time>2018-04-28T13:02:42Z</time>
			</trkpt>
			<trkpt lat="43.01912" lon="-1.565697">
				<ele>1128</ele>
				<time>2018-04-28T13:02:45Z</time>
			</trkpt>
			<trkpt lat="43.019073" lon="-1.565689">
				<ele>1128</ele>
				<time>2018-04-28T13:02:47Z</time>
			</trkpt>
			<trkpt lat="43.019047" lon="-1.565624">
				<ele>1128</ele>
				<time>2018-04-28T13:02:50Z</time>
			</trkpt>
			<trkpt lat="43.019049" lon="-1.565562">
				<ele>1128</ele>
				<time>2018-04-28T13:02:53Z</time>
			</trkpt>
			<trkpt lat="43.019013" lon="-1.565524">
				<ele>1128</ele>
				<time>2018-04-28T13:02:55Z</time>
			</trkpt>
			<trkpt lat="43.018958" lon="-1.565498">
				<ele>1128</ele>
				<time>2018-04-28T13:02:57Z</time>
			</trkpt>
			<trkpt lat="43.018907" lon="-1.565481">
				<ele>1128</ele>
				<time>2018-04-28T13:02:59Z</time>
			</trkpt>
			<trkpt lat="43.018811" lon="-1.565496">
				<ele>1128</ele>
				<time>2018-04-28T13:03:01Z</time>
			</trkpt>
			<trkpt lat="43.018754" lon="-1.56552">
				<ele>1128</ele>
				<time>2018-04-28T13:03:03Z</time>
			</trkpt>
			<trkpt lat="43.018713" lon="-1.565561">
				<ele>1070</ele>
				<time>2018-04-28T13:03:05Z</time>
			</trkpt>
			<trkpt lat="43.018659" lon="-1.565603">
				<ele>1070</ele>
				<time>2018-04-28T13:03:07Z</time>
			</trkpt>
			<trkpt lat="43.018584" lon="-1.565634">
				<ele>1070</ele>
				<time>2018-04-28T13:03:09Z</time>
			</trkpt>
			<trkpt lat="43.018543" lon="-1.565688">
				<ele>1070</ele>
				<time>2018-04-28T13:03:11Z</time>
			</trkpt>
			<trkpt lat="43.018496" lon="-1.565755">
				<ele>1070</ele>
				<time>2018-04-28T13:03:14Z</time>
			</trkpt>
			<trkpt lat="43.018472" lon="-1.565818">
				<ele>1070</ele>
				<time>2018-04-28T13:03:17Z</time>
			</trkpt>
			<trkpt lat="43.018418" lon="-1.565857">
				<ele>1070</ele>
				<time>2018-04-28T13:03:20Z</time>
			</trkpt>
			<trkpt lat="43.018374" lon="-1.56591">
				<ele>1070</ele>
				<time>2018-04-28T13:03:23Z</time>
			</trkpt>
			<trkpt lat="43.018326" lon="-1.565951">
				<ele>1070</ele>
				<time>2018-04-28T13:03:25Z</time>
			</trkpt>
			<trkpt lat="43.018263" lon="-1.565983">
				<ele>1070</ele>
				<time>2018-04-28T13:03:27Z</time>
			</trkpt>
			<trkpt lat="43.018213" lon="-1.566021">
				<ele>1070</ele>
				<time>2018-04-28T13:03:29Z</time>
			</trkpt>
			<trkpt lat="43.018162" lon="-1.566059">
				<ele>1070</ele>
				<time>2018-04-28T13:03:31Z</time>
			</trkpt>
			<trkpt lat="43.01811" lon="-1.566096">
				<ele>1070</ele>
				<time>2018-04-28T13:03:33Z</time>
			</trkpt>
			<trkpt lat="43.018061" lon="-1.566133">
				<ele>1070</ele>
				<time>2018-04-28T13:03:35Z</time>
			</trkpt>
			<trkpt lat="43.018023" lon="-1.56617">
				<ele>1070</ele>
				<time>2018-04-28T13:03:37Z</time>
			</trkpt>
			<trkpt lat="43.01799" lon="-1.566247">
				<ele>1070</ele>
				<time>2018-04-28T13:03:40Z</time>
			</trkpt>
			<trkpt lat="43.017948" lon="-1.566277">
				<ele>1070</ele>
				<time>2018-04-28T13:03:42Z</time>
			</trkpt>
			<trkpt lat="43.017911" lon="-1.566315">
				<ele>1070</ele>
				<time>2018-04-28T13:03:44Z</time>
			</trkpt>
			<trkpt lat="43.017859" lon="-1.566368">
				<ele>1070</ele>
				<time>2018-04-28T13:03:46Z</time>
			</trkpt>
			<trkpt lat="43.017811" lon="-1.566391">
				<ele>1070</ele>
				<time>2018-04-28T13:03:48Z</time>
			</trkpt>
			<trkpt lat="43.017754" lon="-1.566445">
				<ele>1070</ele>
				<time>2018-04-28T13:03:51Z</time>
			</trkpt>
			<trkpt lat="43.017703" lon="-1.56649">
				<ele>1070</ele>
				<time>2018-04-28T13:03:53Z</time>
			</trkpt>
			<trkpt lat="43.017671" lon="-1.566537">
				<ele>1070</ele>
				<time>2018-04-28T13:03:55Z</time>
			</trkpt>
			<trkpt lat="43.017625" lon="-1.566571">
				<ele>1070</ele>
				<time>2018-04-28T13:03:57Z</time>
			</trkpt>
			<trkpt lat="43.01759" lon="-1.566609">
				<ele>1070</ele>
				<time>2018-04-28T13:03:59Z</time>
			</trkpt>
			<trkpt lat="43.017534" lon="-1.56666">
				<ele>1070</ele>
				<time>2018-04-28T13:04:02Z</time>
			</trkpt>
			<trkpt lat="43.017498" lon="-1.566705">
				<ele>1146</ele>
				<time>2018-04-28T13:04:04Z</time>
			</trkpt>
			<trkpt lat="43.017453" lon="-1.566732">
				<ele>1146</ele>
				<time>2018-04-28T13:04:06Z</time>
			</trkpt>
			<trkpt lat="43.017412" lon="-1.566768">
				<ele>1146</ele>
				<time>2018-04-28T13:04:08Z</time>
			</trkpt>
			<trkpt lat="43.017348" lon="-1.566794">
				<ele>1146</ele>
				<time>2018-04-28T13:04:10Z</time>
			</trkpt>
			<trkpt lat="43.01729" lon="-1.566839">
				<ele>1146</ele>
				<time>2018-04-28T13:04:12Z</time>
			</trkpt>
			<trkpt lat="43.017223" lon="-1.566864">
				<ele>1146</ele>
				<time>2018-04-28T13:04:15Z</time>
			</trkpt>
			<trkpt lat="43.017152" lon="-1.566879">
				<ele>1146</ele>
				<time>2018-04-28T13:04:17Z</time>
			</trkpt>
			<trkpt lat="43.017095" lon="-1.566894">
				<ele>1146</ele>
				<time>2018-04-28T13:04:19Z</time>
			</trkpt>
			<trkpt lat="43.017038" lon="-1.566907">
				<ele>1146</ele>
				<time>2018-04-28T13:04:21Z</time>
			</trkpt>
			<trkpt lat="43.016973" lon="-1.566938">
				<ele>1146</ele>
				<time>2018-04-28T13:04:23Z</time>
			</trkpt>
			<trkpt lat="43.016923" lon="-1.566961">
				<ele>1146</ele>
				<time>2018-04-28T13:04:25Z</time>
			</trkpt>
			<trkpt lat="43.016873" lon="-1.567011">
				<ele>1146</ele>
				<time>2018-04-28T13:04:27Z</time>
			</trkpt>
			<trkpt lat="43.016812" lon="-1.567065">
				<ele>1146</ele>
				<time>2018-04-28T13:04:30Z</time>
			</trkpt>
			<trkpt lat="43.016752" lon="-1.567078">
				<ele>1146</ele>
				<time>2018-04-28T13:04:32Z</time>
			</trkpt>
			<trkpt lat="43.016689" lon="-1.567096">
				<ele>1146</ele>
				<time>2018-04-28T13:04:34Z</time>
			</trkpt>
			<trkpt lat="43.016635" lon="-1.567129">
				<ele>1072</ele>
				<time>2018-04-28T13:04:36Z</time>
			</trkpt>
			<trkpt lat="43.016583" lon="-1.567163">
				<ele>1072</ele>
				<time>2018-04-28T13:04:38Z</time>
			</trkpt>
			<trkpt lat="43.016534" lon="-1.567183">
				<ele>1072</ele>
				<time>2018-04-28T13:04:40Z</time>
			</trkpt>
			<trkpt lat="43.01648" lon="-1.567217">
				<ele>1072</ele>
				<time>2018-04-28T13:04:42Z</time>
			</trkpt>
			<trkpt lat="43.016427" lon="-1.567239">
				<ele>1072</ele>
				<time>2018-04-28T13:04:44Z</time>
			</trkpt>
			<trkpt lat="43.016392" lon="-1.567301">
				<ele>1072</ele>
				<time>2018-04-28T13:04:47Z</time>
			</trkpt>
			<trkpt lat="43.016332" lon="-1.567323">
				<ele>1072</ele>
				<time>2018-04-28T13:04:50Z</time>
			</trkpt>
			<trkpt lat="43.016291" lon="-1.567349">
				<ele>1072</ele>
				<time>2018-04-28T13:04:52Z</time>
			</trkpt>
			<trkpt lat="43.016245" lon="-1.567377">
				<ele>1072</ele>
				<time>2018-04-28T13:04:54Z</time>
			</trkpt>
			<trkpt lat="43.016192" lon="-1.567394">
				<ele>1072</ele>
				<time>2018-04-28T13:04:56Z</time>
			</trkpt>
			<trkpt lat="43.01613" lon="-1.567428">
				<ele>1072</ele>
				<time>2018-04-28T13:04:58Z</time>
			</trkpt>
			<trkpt lat="43.016068" lon="-1.567455">
				<ele>1072</ele>
				<time>2018-04-28T13:05:00Z</time>
			</trkpt>
			<trkpt lat="43.016008" lon="-1.567474">
				<ele>1072</ele>
				<time>2018-04-28T13:05:02Z</time>
			</trkpt>
			<trkpt lat="43.015961" lon="-1.567493">
				<ele>1072</ele>
				<time>2018-04-28T13:05:04Z</time>
			</trkpt>
			<trkpt lat="43.0159" lon="-1.567508">
				<ele>1072</ele>
				<time>2018-04-28T13:05:07Z</time>
			</trkpt>
			<trkpt lat="43.015831" lon="-1.567524">
				<ele>1072</ele>
				<time>2018-04-28T13:05:09Z</time>
			</trkpt>
			<trkpt lat="43.01578" lon="-1.567537">
				<ele>1072</ele>
				<time>2018-04-28T13:05:11Z</time>
			</trkpt>
			<trkpt lat="43.015728" lon="-1.567542">
				<ele>1072</ele>
				<time>2018-04-28T13:05:13Z</time>
			</trkpt>
			<trkpt lat="43.01567" lon="-1.567534">
				<ele>1072</ele>
				<time>2018-04-28T13:05:15Z</time>
			</trkpt>
			<trkpt lat="43.015617" lon="-1.567548">
				<ele>1072</ele>
				<time>2018-04-28T13:05:17Z</time>
			</trkpt>
			<trkpt lat="43.015554" lon="-1.567527">
				<ele>1072</ele>
				<time>2018-04-28T13:05:19Z</time>
			</trkpt>
			<trkpt lat="43.015508" lon="-1.567496">
				<ele>1072</ele>
				<time>2018-04-28T13:05:21Z</time>
			</trkpt>
			<trkpt lat="43.015454" lon="-1.567454">
				<ele>1072</ele>
				<time>2018-04-28T13:05:24Z</time>
			</trkpt>
			<trkpt lat="43.015405" lon="-1.567472">
				<ele>1072</ele>
				<time>2018-04-28T13:05:31Z</time>
			</trkpt>
			<trkpt lat="43.01536" lon="-1.567478">
				<ele>1072</ele>
				<time>2018-04-28T13:05:55Z</time>
			</trkpt>
			<trkpt lat="43.01532" lon="-1.567509">
				<ele>1072</ele>
				<time>2018-04-28T13:06:01Z</time>
			</trkpt>
			<trkpt lat="43.015273" lon="-1.567487">
				<ele>1072</ele>
				<time>2018-04-28T13:06:21Z</time>
			</trkpt>
			<trkpt lat="43.015315" lon="-1.567461">
				<ele>1072</ele>
				<time>2018-04-28T13:09:01Z</time>
			</trkpt>
			<trkpt lat="43.015283" lon="-1.567416">
				<ele>1072</ele>
				<time>2018-04-28T13:10:04Z</time>
			</trkpt>
			<trkpt lat="43.015237" lon="-1.567443">
				<ele>1072</ele>
				<time>2018-04-28T13:11:01Z</time>
			</trkpt>
			<trkpt lat="43.01522" lon="-1.567523">
				<ele>1072</ele>
				<time>2018-04-28T13:11:05Z</time>
			</trkpt>
			<trkpt lat="43.015205" lon="-1.567591">
				<ele>1072</ele>
				<time>2018-04-28T13:11:08Z</time>
			</trkpt>
			<trkpt lat="43.015201" lon="-1.56766">
				<ele>1072</ele>
				<time>2018-04-28T13:11:12Z</time>
			</trkpt>
			<trkpt lat="43.015185" lon="-1.567734">
				<ele>1072</ele>
				<time>2018-04-28T13:11:17Z</time>
			</trkpt>
			<trkpt lat="43.015178" lon="-1.567795">
				<ele>1072</ele>
				<time>2018-04-28T13:11:20Z</time>
			</trkpt>
			<trkpt lat="43.015173" lon="-1.567866">
				<ele>1072</ele>
				<time>2018-04-28T13:11:23Z</time>
			</trkpt>
			<trkpt lat="43.015168" lon="-1.567953">
				<ele>1072</ele>
				<time>2018-04-28T13:11:28Z</time>
			</trkpt>
			<trkpt lat="43.015158" lon="-1.568016">
				<ele>1072</ele>
				<time>2018-04-28T13:11:31Z</time>
			</trkpt>
			<trkpt lat="43.015118" lon="-1.56808">
				<ele>1072</ele>
				<time>2018-04-28T13:11:35Z</time>
			</trkpt>
			<trkpt lat="43.0151" lon="-1.568148">
				<ele>1072</ele>
				<time>2018-04-28T13:11:38Z</time>
			</trkpt>
			<trkpt lat="43.015078" lon="-1.568218">
				<ele>1072</ele>
				<time>2018-04-28T13:11:41Z</time>
			</trkpt>
			<trkpt lat="43.01507" lon="-1.568284">
				<ele>1072</ele>
				<time>2018-04-28T13:11:44Z</time>
			</trkpt>
			<trkpt lat="43.015076" lon="-1.568355">
				<ele>1072</ele>
				<time>2018-04-28T13:11:47Z</time>
			</trkpt>
			<trkpt lat="43.015076" lon="-1.568433">
				<ele>1072</ele>
				<time>2018-04-28T13:11:50Z</time>
			</trkpt>
			<trkpt lat="43.015074" lon="-1.568501">
				<ele>1072</ele>
				<time>2018-04-28T13:11:52Z</time>
			</trkpt>
			<trkpt lat="43.015071" lon="-1.568576">
				<ele>1072</ele>
				<time>2018-04-28T13:11:54Z</time>
			</trkpt>
			<trkpt lat="43.015086" lon="-1.568634">
				<ele>1072</ele>
				<time>2018-04-28T13:11:57Z</time>
			</trkpt>
			<trkpt lat="43.015127" lon="-1.568689">
				<ele>1072</ele>
				<time>2018-04-28T13:12:00Z</time>
			</trkpt>
			<trkpt lat="43.015145" lon="-1.568758">
				<ele>1092</ele>
				<time>2018-04-28T13:12:05Z</time>
			</trkpt>
			<trkpt lat="43.015137" lon="-1.56884">
				<ele>1092</ele>
				<time>2018-04-28T13:12:09Z</time>
			</trkpt>
			<trkpt lat="43.015102" lon="-1.568921">
				<ele>1092</ele>
				<time>2018-04-28T13:12:12Z</time>
			</trkpt>
			<trkpt lat="43.01507" lon="-1.569002">
				<ele>1092</ele>
				<time>2018-04-28T13:12:15Z</time>
			</trkpt>
			<trkpt lat="43.015042" lon="-1.569055">
				<ele>1092</ele>
				<time>2018-04-28T13:12:18Z</time>
			</trkpt>
			<trkpt lat="43.015025" lon="-1.569141">
				<ele>1092</ele>
				<time>2018-04-28T13:12:21Z</time>
			</trkpt>
			<trkpt lat="43.015007" lon="-1.569203">
				<ele>1092</ele>
				<time>2018-04-28T13:12:23Z</time>
			</trkpt>
			<trkpt lat="43.014976" lon="-1.569283">
				<ele>1092</ele>
				<time>2018-04-28T13:12:25Z</time>
			</trkpt>
			<trkpt lat="43.014952" lon="-1.569355">
				<ele>1092</ele>
				<time>2018-04-28T13:12:27Z</time>
			</trkpt>
			<trkpt lat="43.014902" lon="-1.569419">
				<ele>1092</ele>
				<time>2018-04-28T13:12:29Z</time>
			</trkpt>
			<trkpt lat="43.014867" lon="-1.569486">
				<ele>1092</ele>
				<time>2018-04-28T13:12:31Z</time>
			</trkpt>
			<trkpt lat="43.014846" lon="-1.569554">
				<ele>1092</ele>
				<time>2018-04-28T13:12:33Z</time>
			</trkpt>
			<trkpt lat="43.014813" lon="-1.569607">
				<ele>1092</ele>
				<time>2018-04-28T13:12:35Z</time>
			</trkpt>
			<trkpt lat="43.014797" lon="-1.569692">
				<ele>1092</ele>
				<time>2018-04-28T13:12:37Z</time>
			</trkpt>
			<trkpt lat="43.014792" lon="-1.569769">
				<ele>1092</ele>
				<time>2018-04-28T13:12:39Z</time>
			</trkpt>
			<trkpt lat="43.014792" lon="-1.569856">
				<ele>1092</ele>
				<time>2018-04-28T13:12:41Z</time>
			</trkpt>
			<trkpt lat="43.014797" lon="-1.569934">
				<ele>1092</ele>
				<time>2018-04-28T13:12:43Z</time>
			</trkpt>
			<trkpt lat="43.014791" lon="-1.569996">
				<ele>1092</ele>
				<time>2018-04-28T13:12:45Z</time>
			</trkpt>
			<trkpt lat="43.014798" lon="-1.570093">
				<ele>1092</ele>
				<time>2018-04-28T13:12:48Z</time>
			</trkpt>
			<trkpt lat="43.014821" lon="-1.570154">
				<ele>1092</ele>
				<time>2018-04-28T13:12:50Z</time>
			</trkpt>
			<trkpt lat="43.014822" lon="-1.570234">
				<ele>1092</ele>
				<time>2018-04-28T13:12:54Z</time>
			</trkpt>
			<trkpt lat="43.014824" lon="-1.5703">
				<ele>1092</ele>
				<time>2018-04-28T13:12:57Z</time>
			</trkpt>
			<trkpt lat="43.014776" lon="-1.570366">
				<ele>1092</ele>
				<time>2018-04-28T13:12:59Z</time>
			</trkpt>
			<trkpt lat="43.014733" lon="-1.570453">
				<ele>1092</ele>
				<time>2018-04-28T13:13:01Z</time>
			</trkpt>
			<trkpt lat="43.01469" lon="-1.570514">
				<ele>1092</ele>
				<time>2018-04-28T13:13:03Z</time>
			</trkpt>
			<trkpt lat="43.014671" lon="-1.570577">
				<ele>1092</ele>
				<time>2018-04-28T13:13:05Z</time>
			</trkpt>
			<trkpt lat="43.014628" lon="-1.570625">
				<ele>1092</ele>
				<time>2018-04-28T13:13:07Z</time>
			</trkpt>
			<trkpt lat="43.01462" lon="-1.570685">
				<ele>1092</ele>
				<time>2018-04-28T13:13:09Z</time>
			</trkpt>
			<trkpt lat="43.014618" lon="-1.570746">
				<ele>1092</ele>
				<time>2018-04-28T13:13:11Z</time>
			</trkpt>
			<trkpt lat="43.014608" lon="-1.570844">
				<ele>1110</ele>
				<time>2018-04-28T13:13:13Z</time>
			</trkpt>
			<trkpt lat="43.014596" lon="-1.570919">
				<ele>1110</ele>
				<time>2018-04-28T13:13:15Z</time>
			</trkpt>
			<trkpt lat="43.014587" lon="-1.570991">
				<ele>1110</ele>
				<time>2018-04-28T13:13:17Z</time>
			</trkpt>
			<trkpt lat="43.014605" lon="-1.571051">
				<ele>1110</ele>
				<time>2018-04-28T13:13:19Z</time>
			</trkpt>
			<trkpt lat="43.014575" lon="-1.571124">
				<ele>1010</ele>
				<time>2018-04-28T13:13:22Z</time>
			</trkpt>
			<trkpt lat="43.014542" lon="-1.57117">
				<ele>1010</ele>
				<time>2018-04-28T13:13:24Z</time>
			</trkpt>
			<trkpt lat="43.014516" lon="-1.571235">
				<ele>1010</ele>
				<time>2018-04-28T13:13:26Z</time>
			</trkpt>
			<trkpt lat="43.014501" lon="-1.571296">
				<ele>1010</ele>
				<time>2018-04-28T13:13:28Z</time>
			</trkpt>
			<trkpt lat="43.014461" lon="-1.571337">
				<ele>1010</ele>
				<time>2018-04-28T13:13:30Z</time>
			</trkpt>
			<trkpt lat="43.014451" lon="-1.571406">
				<ele>1010</ele>
				<time>2018-04-28T13:13:32Z</time>
			</trkpt>
			<trkpt lat="43.014434" lon="-1.571504">
				<ele>1010</ele>
				<time>2018-04-28T13:13:35Z</time>
			</trkpt>
			<trkpt lat="43.014399" lon="-1.571579">
				<ele>1010</ele>
				<time>2018-04-28T13:13:37Z</time>
			</trkpt>
			<trkpt lat="43.014368" lon="-1.571648">
				<ele>1010</ele>
				<time>2018-04-28T13:13:40Z</time>
			</trkpt>
			<trkpt lat="43.014328" lon="-1.571714">
				<ele>1010</ele>
				<time>2018-04-28T13:13:43Z</time>
			</trkpt>
			<trkpt lat="43.014294" lon="-1.571789">
				<ele>1010</ele>
				<time>2018-04-28T13:13:46Z</time>
			</trkpt>
			<trkpt lat="43.014253" lon="-1.571868">
				<ele>1010</ele>
				<time>2018-04-28T13:13:48Z</time>
			</trkpt>
			<trkpt lat="43.014233" lon="-1.571945">
				<ele>1010</ele>
				<time>2018-04-28T13:13:50Z</time>
			</trkpt>
			<trkpt lat="43.014205" lon="-1.572025">
				<ele>1010</ele>
				<time>2018-04-28T13:13:52Z</time>
			</trkpt>
			<trkpt lat="43.014157" lon="-1.57208">
				<ele>1010</ele>
				<time>2018-04-28T13:13:54Z</time>
			</trkpt>
			<trkpt lat="43.014134" lon="-1.572171">
				<ele>1010</ele>
				<time>2018-04-28T13:13:57Z</time>
			</trkpt>
			<trkpt lat="43.014134" lon="-1.572251">
				<ele>1010</ele>
				<time>2018-04-28T13:13:59Z</time>
			</trkpt>
			<trkpt lat="43.014144" lon="-1.572366">
				<ele>1010</ele>
				<time>2018-04-28T13:14:01Z</time>
			</trkpt>
			<trkpt lat="43.01416" lon="-1.57244">
				<ele>1010</ele>
				<time>2018-04-28T13:14:03Z</time>
			</trkpt>
			<trkpt lat="43.014177" lon="-1.572512">
				<ele>1010</ele>
				<time>2018-04-28T13:14:05Z</time>
			</trkpt>
			<trkpt lat="43.01419" lon="-1.572588">
				<ele>1010</ele>
				<time>2018-04-28T13:14:08Z</time>
			</trkpt>
			<trkpt lat="43.014177" lon="-1.572675">
				<ele>1010</ele>
				<time>2018-04-28T13:14:14Z</time>
			</trkpt>
			<trkpt lat="43.01415" lon="-1.572758">
				<ele>1010</ele>
				<time>2018-04-28T13:14:17Z</time>
			</trkpt>
			<trkpt lat="43.014125" lon="-1.572814">
				<ele>1010</ele>
				<time>2018-04-28T13:14:19Z</time>
			</trkpt>
			<trkpt lat="43.0141" lon="-1.572882">
				<ele>1010</ele>
				<time>2018-04-28T13:14:21Z</time>
			</trkpt>
			<trkpt lat="43.014073" lon="-1.572944">
				<ele>1046</ele>
				<time>2018-04-28T13:14:23Z</time>
			</trkpt>
			<trkpt lat="43.014073" lon="-1.573009">
				<ele>1046</ele>
				<time>2018-04-28T13:14:25Z</time>
			</trkpt>
			<trkpt lat="43.014079" lon="-1.573074">
				<ele>1046</ele>
				<time>2018-04-28T13:14:27Z</time>
			</trkpt>
			<trkpt lat="43.014099" lon="-1.573138">
				<ele>1046</ele>
				<time>2018-04-28T13:14:29Z</time>
			</trkpt>
			<trkpt lat="43.014126" lon="-1.573216">
				<ele>1046</ele>
				<time>2018-04-28T13:14:33Z</time>
			</trkpt>
			<trkpt lat="43.014138" lon="-1.573292">
				<ele>1046</ele>
				<time>2018-04-28T13:14:36Z</time>
			</trkpt>
			<trkpt lat="43.014098" lon="-1.573335">
				<ele>1046</ele>
				<time>2018-04-28T13:14:40Z</time>
			</trkpt>
			<trkpt lat="43.014045" lon="-1.573333">
				<ele>1046</ele>
				<time>2018-04-28T13:14:43Z</time>
			</trkpt>
			<trkpt lat="43.013982" lon="-1.573374">
				<ele>1046</ele>
				<time>2018-04-28T13:14:46Z</time>
			</trkpt>
			<trkpt lat="43.013927" lon="-1.57339">
				<ele>1046</ele>
				<time>2018-04-28T13:14:48Z</time>
			</trkpt>
			<trkpt lat="43.013862" lon="-1.573404">
				<ele>1046</ele>
				<time>2018-04-28T13:14:50Z</time>
			</trkpt>
			<trkpt lat="43.013793" lon="-1.573421">
				<ele>1046</ele>
				<time>2018-04-28T13:14:53Z</time>
			</trkpt>
			<trkpt lat="43.013727" lon="-1.573422">
				<ele>1046</ele>
				<time>2018-04-28T13:14:55Z</time>
			</trkpt>
			<trkpt lat="43.013663" lon="-1.573435">
				<ele>1046</ele>
				<time>2018-04-28T13:14:57Z</time>
			</trkpt>
			<trkpt lat="43.01358" lon="-1.573437">
				<ele>1046</ele>
				<time>2018-04-28T13:15:00Z</time>
			</trkpt>
			<trkpt lat="43.013528" lon="-1.573468">
				<ele>1046</ele>
				<time>2018-04-28T13:15:02Z</time>
			</trkpt>
			<trkpt lat="43.013479" lon="-1.573487">
				<ele>1046</ele>
				<time>2018-04-28T13:15:04Z</time>
			</trkpt>
			<trkpt lat="43.01342" lon="-1.573511">
				<ele>1046</ele>
				<time>2018-04-28T13:15:06Z</time>
			</trkpt>
			<trkpt lat="43.013363" lon="-1.57355">
				<ele>1046</ele>
				<time>2018-04-28T13:15:08Z</time>
			</trkpt>
			<trkpt lat="43.013317" lon="-1.573577">
				<ele>1046</ele>
				<time>2018-04-28T13:15:10Z</time>
			</trkpt>
			<trkpt lat="43.013274" lon="-1.573609">
				<ele>1046</ele>
				<time>2018-04-28T13:15:12Z</time>
			</trkpt>
			<trkpt lat="43.013224" lon="-1.573665">
				<ele>1046</ele>
				<time>2018-04-28T13:15:15Z</time>
			</trkpt>
			<trkpt lat="43.013179" lon="-1.573691">
				<ele>1046</ele>
				<time>2018-04-28T13:15:17Z</time>
			</trkpt>
			<trkpt lat="43.013132" lon="-1.573731">
				<ele>1046</ele>
				<time>2018-04-28T13:15:20Z</time>
			</trkpt>
			<trkpt lat="43.013088" lon="-1.573788">
				<ele>1046</ele>
				<time>2018-04-28T13:15:22Z</time>
			</trkpt>
			<trkpt lat="43.01304" lon="-1.573829">
				<ele>1046</ele>
				<time>2018-04-28T13:15:24Z</time>
			</trkpt>
			<trkpt lat="43.012994" lon="-1.573869">
				<ele>1046</ele>
				<time>2018-04-28T13:15:26Z</time>
			</trkpt>
			<trkpt lat="43.012909" lon="-1.573926">
				<ele>1046</ele>
				<time>2018-04-28T13:15:28Z</time>
			</trkpt>
			<trkpt lat="43.012871" lon="-1.573964">
				<ele>1046</ele>
				<time>2018-04-28T13:15:29Z</time>
			</trkpt>
			<trkpt lat="43.012817" lon="-1.574021">
				<ele>1046</ele>
				<time>2018-04-28T13:15:31Z</time>
			</trkpt>
			<trkpt lat="43.012768" lon="-1.574086">
				<ele>1046</ele>
				<time>2018-04-28T13:15:33Z</time>
			</trkpt>
			<trkpt lat="43.012729" lon="-1.574142">
				<ele>1046</ele>
				<time>2018-04-28T13:15:36Z</time>
			</trkpt>
			<trkpt lat="43.012693" lon="-1.574202">
				<ele>1046</ele>
				<time>2018-04-28T13:15:38Z</time>
			</trkpt>
			<trkpt lat="43.012652" lon="-1.574263">
				<ele>1046</ele>
				<time>2018-04-28T13:15:40Z</time>
			</trkpt>
			<trkpt lat="43.012631" lon="-1.574336">
				<ele>1046</ele>
				<time>2018-04-28T13:15:43Z</time>
			</trkpt>
			<trkpt lat="43.012609" lon="-1.574414">
				<ele>1046</ele>
				<time>2018-04-28T13:15:46Z</time>
			</trkpt>
			<trkpt lat="43.01255" lon="-1.57444">
				<ele>1046</ele>
				<time>2018-04-28T13:15:50Z</time>
			</trkpt>
			<trkpt lat="43.012507" lon="-1.574486">
				<ele>1046</ele>
				<time>2018-04-28T13:15:53Z</time>
			</trkpt>
			<trkpt lat="43.012464" lon="-1.57451">
				<ele>966</ele>
				<time>2018-04-28T13:15:55Z</time>
			</trkpt>
			<trkpt lat="43.012426" lon="-1.574554">
				<ele>966</ele>
				<time>2018-04-28T13:15:57Z</time>
			</trkpt>
			<trkpt lat="43.012374" lon="-1.574583">
				<ele>966</ele>
				<time>2018-04-28T13:15:59Z</time>
			</trkpt>
			<trkpt lat="43.0123" lon="-1.574648">
				<ele>966</ele>
				<time>2018-04-28T13:16:01Z</time>
			</trkpt>
			<trkpt lat="43.012261" lon="-1.574682">
				<ele>966</ele>
				<time>2018-04-28T13:16:02Z</time>
			</trkpt>
			<trkpt lat="43.012233" lon="-1.574752">
				<ele>966</ele>
				<time>2018-04-28T13:16:04Z</time>
			</trkpt>
			<trkpt lat="43.012243" lon="-1.574849">
				<ele>966</ele>
				<time>2018-04-28T13:16:07Z</time>
			</trkpt>
			<trkpt lat="43.012233" lon="-1.574947">
				<ele>966</ele>
				<time>2018-04-28T13:16:09Z</time>
			</trkpt>
			<trkpt lat="43.012236" lon="-1.57502">
				<ele>975</ele>
				<time>2018-04-28T13:16:12Z</time>
			</trkpt>
			<trkpt lat="43.012237" lon="-1.575088">
				<ele>975</ele>
				<time>2018-04-28T13:16:14Z</time>
			</trkpt>
			<trkpt lat="43.01225" lon="-1.575159">
				<ele>975</ele>
				<time>2018-04-28T13:16:16Z</time>
			</trkpt>
			<trkpt lat="43.012268" lon="-1.575254">
				<ele>975</ele>
				<time>2018-04-28T13:16:19Z</time>
			</trkpt>
			<trkpt lat="43.012294" lon="-1.575317">
				<ele>975</ele>
				<time>2018-04-28T13:16:22Z</time>
			</trkpt>
			<trkpt lat="43.012331" lon="-1.575395">
				<ele>975</ele>
				<time>2018-04-28T13:16:25Z</time>
			</trkpt>
			<trkpt lat="43.012336" lon="-1.575456">
				<ele>975</ele>
				<time>2018-04-28T13:16:27Z</time>
			</trkpt>
			<trkpt lat="43.012332" lon="-1.575528">
				<ele>975</ele>
				<time>2018-04-28T13:16:29Z</time>
			</trkpt>
			<trkpt lat="43.012337" lon="-1.575607">
				<ele>975</ele>
				<time>2018-04-28T13:16:33Z</time>
			</trkpt>
			<trkpt lat="43.012358" lon="-1.575668">
				<ele>975</ele>
				<time>2018-04-28T13:16:36Z</time>
			</trkpt>
			<trkpt lat="43.012322" lon="-1.575732">
				<ele>975</ele>
				<time>2018-04-28T13:16:38Z</time>
			</trkpt>
			<trkpt lat="43.01233" lon="-1.575815">
				<ele>975</ele>
				<time>2018-04-28T13:16:40Z</time>
			</trkpt>
			<trkpt lat="43.012321" lon="-1.575875">
				<ele>975</ele>
				<time>2018-04-28T13:16:43Z</time>
			</trkpt>
			<trkpt lat="43.012277" lon="-1.575904">
				<ele>975</ele>
				<time>2018-04-28T13:16:45Z</time>
			</trkpt>
			<trkpt lat="43.012238" lon="-1.57596">
				<ele>975</ele>
				<time>2018-04-28T13:16:48Z</time>
			</trkpt>
			<trkpt lat="43.012177" lon="-1.575997">
				<ele>975</ele>
				<time>2018-04-28T13:16:51Z</time>
			</trkpt>
			<trkpt lat="43.012143" lon="-1.576053">
				<ele>975</ele>
				<time>2018-04-28T13:16:54Z</time>
			</trkpt>
			<trkpt lat="43.012106" lon="-1.576093">
				<ele>975</ele>
				<time>2018-04-28T13:16:56Z</time>
			</trkpt>
			<trkpt lat="43.012079" lon="-1.576144">
				<ele>975</ele>
				<time>2018-04-28T13:16:58Z</time>
			</trkpt>
			<trkpt lat="43.012028" lon="-1.576184">
				<ele>975</ele>
				<time>2018-04-28T13:17:01Z</time>
			</trkpt>
			<trkpt lat="43.011991" lon="-1.576236">
				<ele>975</ele>
				<time>2018-04-28T13:17:05Z</time>
			</trkpt>
			<trkpt lat="43.011959" lon="-1.576289">
				<ele>975</ele>
				<time>2018-04-28T13:17:08Z</time>
			</trkpt>
			<trkpt lat="43.011898" lon="-1.576336">
				<ele>975</ele>
				<time>2018-04-28T13:17:12Z</time>
			</trkpt>
			<trkpt lat="43.011836" lon="-1.576381">
				<ele>975</ele>
				<time>2018-04-28T13:17:15Z</time>
			</trkpt>
			<trkpt lat="43.01177" lon="-1.576428">
				<ele>975</ele>
				<time>2018-04-28T13:17:18Z</time>
			</trkpt>
			<trkpt lat="43.011737" lon="-1.576477">
				<ele>975</ele>
				<time>2018-04-28T13:17:20Z</time>
			</trkpt>
			<trkpt lat="43.01172" lon="-1.576578">
				<ele>975</ele>
				<time>2018-04-28T13:17:23Z</time>
			</trkpt>
			<trkpt lat="43.011699" lon="-1.576672">
				<ele>975</ele>
				<time>2018-04-28T13:17:26Z</time>
			</trkpt>
			<trkpt lat="43.011679" lon="-1.57673">
				<ele>975</ele>
				<time>2018-04-28T13:17:28Z</time>
			</trkpt>
			<trkpt lat="43.011676" lon="-1.576811">
				<ele>975</ele>
				<time>2018-04-28T13:17:31Z</time>
			</trkpt>
			<trkpt lat="43.011672" lon="-1.576877">
				<ele>975</ele>
				<time>2018-04-28T13:17:34Z</time>
			</trkpt>
			<trkpt lat="43.011668" lon="-1.576959">
				<ele>975</ele>
				<time>2018-04-28T13:17:37Z</time>
			</trkpt>
			<trkpt lat="43.011647" lon="-1.577025">
				<ele>975</ele>
				<time>2018-04-28T13:17:39Z</time>
			</trkpt>
			<trkpt lat="43.011629" lon="-1.577086">
				<ele>956</ele>
				<time>2018-04-28T13:17:41Z</time>
			</trkpt>
			<trkpt lat="43.011638" lon="-1.577168">
				<ele>956</ele>
				<time>2018-04-28T13:17:44Z</time>
			</trkpt>
			<trkpt lat="43.011651" lon="-1.577238">
				<ele>956</ele>
				<time>2018-04-28T13:17:46Z</time>
			</trkpt>
			<trkpt lat="43.011677" lon="-1.577303">
				<ele>956</ele>
				<time>2018-04-28T13:17:48Z</time>
			</trkpt>
			<trkpt lat="43.011718" lon="-1.577338">
				<ele>956</ele>
				<time>2018-04-28T13:17:50Z</time>
			</trkpt>
			<trkpt lat="43.011759" lon="-1.577378">
				<ele>956</ele>
				<time>2018-04-28T13:17:52Z</time>
			</trkpt>
			<trkpt lat="43.011772" lon="-1.577456">
				<ele>956</ele>
				<time>2018-04-28T13:17:55Z</time>
			</trkpt>
			<trkpt lat="43.011777" lon="-1.577528">
				<ele>956</ele>
				<time>2018-04-28T13:17:57Z</time>
			</trkpt>
			<trkpt lat="43.011753" lon="-1.577584">
				<ele>956</ele>
				<time>2018-04-28T13:18:01Z</time>
			</trkpt>
			<trkpt lat="43.011731" lon="-1.577657">
				<ele>956</ele>
				<time>2018-04-28T13:18:04Z</time>
			</trkpt>
			<trkpt lat="43.011687" lon="-1.577672">
				<ele>956</ele>
				<time>2018-04-28T13:18:07Z</time>
			</trkpt>
			<trkpt lat="43.011634" lon="-1.577672">
				<ele>956</ele>
				<time>2018-04-28T13:18:09Z</time>
			</trkpt>
			<trkpt lat="43.011568" lon="-1.577704">
				<ele>956</ele>
				<time>2018-04-28T13:18:12Z</time>
			</trkpt>
			<trkpt lat="43.011503" lon="-1.577746">
				<ele>956</ele>
				<time>2018-04-28T13:18:15Z</time>
			</trkpt>
			<trkpt lat="43.011442" lon="-1.577745">
				<ele>956</ele>
				<time>2018-04-28T13:18:17Z</time>
			</trkpt>
			<trkpt lat="43.011401" lon="-1.577803">
				<ele>956</ele>
				<time>2018-04-28T13:18:19Z</time>
			</trkpt>
			<trkpt lat="43.011386" lon="-1.577887">
				<ele>956</ele>
				<time>2018-04-28T13:18:21Z</time>
			</trkpt>
			<trkpt lat="43.011401" lon="-1.57795">
				<ele>956</ele>
				<time>2018-04-28T13:18:24Z</time>
			</trkpt>
			<trkpt lat="43.011415" lon="-1.578012">
				<ele>956</ele>
				<time>2018-04-28T13:18:26Z</time>
			</trkpt>
			<trkpt lat="43.01146" lon="-1.578033">
				<ele>956</ele>
				<time>2018-04-28T13:18:28Z</time>
			</trkpt>
			<trkpt lat="43.011528" lon="-1.578062">
				<ele>956</ele>
				<time>2018-04-28T13:18:31Z</time>
			</trkpt>
			<trkpt lat="43.011563" lon="-1.578108">
				<ele>956</ele>
				<time>2018-04-28T13:18:33Z</time>
			</trkpt>
			<trkpt lat="43.011604" lon="-1.578143">
				<ele>956</ele>
				<time>2018-04-28T13:18:35Z</time>
			</trkpt>
			<trkpt lat="43.011659" lon="-1.578156">
				<ele>956</ele>
				<time>2018-04-28T13:18:38Z</time>
			</trkpt>
			<trkpt lat="43.01171" lon="-1.578177">
				<ele>956</ele>
				<time>2018-04-28T13:18:42Z</time>
			</trkpt>
			<trkpt lat="43.011765" lon="-1.578208">
				<ele>956</ele>
				<time>2018-04-28T13:18:45Z</time>
			</trkpt>
			<trkpt lat="43.011818" lon="-1.578259">
				<ele>956</ele>
				<time>2018-04-28T13:18:48Z</time>
			</trkpt>
			<trkpt lat="43.01186" lon="-1.578298">
				<ele>956</ele>
				<time>2018-04-28T13:18:50Z</time>
			</trkpt>
			<trkpt lat="43.011898" lon="-1.578331">
				<ele>956</ele>
				<time>2018-04-28T13:18:52Z</time>
			</trkpt>
			<trkpt lat="43.011943" lon="-1.578359">
				<ele>956</ele>
				<time>2018-04-28T13:18:55Z</time>
			</trkpt>
			<trkpt lat="43.011997" lon="-1.57837">
				<ele>956</ele>
				<time>2018-04-28T13:18:58Z</time>
			</trkpt>
			<trkpt lat="43.012036" lon="-1.578401">
				<ele>956</ele>
				<time>2018-04-28T13:19:01Z</time>
			</trkpt>
			<trkpt lat="43.01208" lon="-1.578434">
				<ele>956</ele>
				<time>2018-04-28T13:19:05Z</time>
			</trkpt>
			<trkpt lat="43.012129" lon="-1.578459">
				<ele>956</ele>
				<time>2018-04-28T13:19:09Z</time>
			</trkpt>
			<trkpt lat="43.012189" lon="-1.578469">
				<ele>956</ele>
				<time>2018-04-28T13:19:13Z</time>
			</trkpt>
			<trkpt lat="43.012245" lon="-1.578492">
				<ele>956</ele>
				<time>2018-04-28T13:19:17Z</time>
			</trkpt>
			<trkpt lat="43.01229" lon="-1.578501">
				<ele>956</ele>
				<time>2018-04-28T13:19:21Z</time>
			</trkpt>
			<trkpt lat="43.012331" lon="-1.57853">
				<ele>956</ele>
				<time>2018-04-28T13:19:25Z</time>
			</trkpt>
			<trkpt lat="43.012362" lon="-1.578578">
				<ele>956</ele>
				<time>2018-04-28T13:19:28Z</time>
			</trkpt>
			<trkpt lat="43.012393" lon="-1.578628">
				<ele>956</ele>
				<time>2018-04-28T13:19:34Z</time>
			</trkpt>
			<trkpt lat="43.012355" lon="-1.578678">
				<ele>956</ele>
				<time>2018-04-28T13:20:02Z</time>
			</trkpt>
			<trkpt lat="43.012326" lon="-1.578738">
				<ele>956</ele>
				<time>2018-04-28T13:20:08Z</time>
			</trkpt>
			<trkpt lat="43.012309" lon="-1.578804">
				<ele>956</ele>
				<time>2018-04-28T13:20:11Z</time>
			</trkpt>
			<trkpt lat="43.012252" lon="-1.578865">
				<ele>956</ele>
				<time>2018-04-28T13:20:16Z</time>
			</trkpt>
			<trkpt lat="43.012192" lon="-1.5789">
				<ele>956</ele>
				<time>2018-04-28T13:20:19Z</time>
			</trkpt>
			<trkpt lat="43.012121" lon="-1.578938">
				<ele>956</ele>
				<time>2018-04-28T13:20:21Z</time>
			</trkpt>
			<trkpt lat="43.012081" lon="-1.578975">
				<ele>956</ele>
				<time>2018-04-28T13:20:23Z</time>
			</trkpt>
			<trkpt lat="43.012057" lon="-1.579069">
				<ele>956</ele>
				<time>2018-04-28T13:20:26Z</time>
			</trkpt>
			<trkpt lat="43.012069" lon="-1.579148">
				<ele>956</ele>
				<time>2018-04-28T13:20:28Z</time>
			</trkpt>
			<trkpt lat="43.012078" lon="-1.579239">
				<ele>937</ele>
				<time>2018-04-28T13:20:31Z</time>
			</trkpt>
			<trkpt lat="43.012086" lon="-1.579312">
				<ele>937</ele>
				<time>2018-04-28T13:20:34Z</time>
			</trkpt>
			<trkpt lat="43.012083" lon="-1.579391">
				<ele>937</ele>
				<time>2018-04-28T13:20:37Z</time>
			</trkpt>
			<trkpt lat="43.012081" lon="-1.57949">
				<ele>937</ele>
				<time>2018-04-28T13:20:40Z</time>
			</trkpt>
			<trkpt lat="43.012075" lon="-1.579561">
				<ele>937</ele>
				<time>2018-04-28T13:20:43Z</time>
			</trkpt>
			<trkpt lat="43.012064" lon="-1.579645">
				<ele>937</ele>
				<time>2018-04-28T13:20:46Z</time>
			</trkpt>
			<trkpt lat="43.012072" lon="-1.579711">
				<ele>937</ele>
				<time>2018-04-28T13:20:48Z</time>
			</trkpt>
			<trkpt lat="43.012068" lon="-1.579791">
				<ele>937</ele>
				<time>2018-04-28T13:20:50Z</time>
			</trkpt>
			<trkpt lat="43.012047" lon="-1.579865">
				<ele>937</ele>
				<time>2018-04-28T13:20:53Z</time>
			</trkpt>
			<trkpt lat="43.012045" lon="-1.579927">
				<ele>937</ele>
				<time>2018-04-28T13:20:55Z</time>
			</trkpt>
			<trkpt lat="43.012009" lon="-1.580014">
				<ele>937</ele>
				<time>2018-04-28T13:20:58Z</time>
			</trkpt>
			<trkpt lat="43.012027" lon="-1.580094">
				<ele>937</ele>
				<time>2018-04-28T13:21:00Z</time>
			</trkpt>
			<trkpt lat="43.012028" lon="-1.580158">
				<ele>937</ele>
				<time>2018-04-28T13:21:02Z</time>
			</trkpt>
			<trkpt lat="43.012033" lon="-1.580223">
				<ele>937</ele>
				<time>2018-04-28T13:21:04Z</time>
			</trkpt>
			<trkpt lat="43.011999" lon="-1.580304">
				<ele>937</ele>
				<time>2018-04-28T13:21:07Z</time>
			</trkpt>
			<trkpt lat="43.011982" lon="-1.580368">
				<ele>937</ele>
				<time>2018-04-28T13:21:09Z</time>
			</trkpt>
			<trkpt lat="43.011938" lon="-1.580432">
				<ele>937</ele>
				<time>2018-04-28T13:21:11Z</time>
			</trkpt>
			<trkpt lat="43.011901" lon="-1.580488">
				<ele>937</ele>
				<time>2018-04-28T13:21:13Z</time>
			</trkpt>
			<trkpt lat="43.011863" lon="-1.58057">
				<ele>937</ele>
				<time>2018-04-28T13:21:16Z</time>
			</trkpt>
			<trkpt lat="43.011849" lon="-1.580639">
				<ele>937</ele>
				<time>2018-04-28T13:21:18Z</time>
			</trkpt>
			<trkpt lat="43.011819" lon="-1.580733">
				<ele>937</ele>
				<time>2018-04-28T13:21:20Z</time>
			</trkpt>
			<trkpt lat="43.011799" lon="-1.580803">
				<ele>937</ele>
				<time>2018-04-28T13:21:22Z</time>
			</trkpt>
			<trkpt lat="43.011797" lon="-1.580881">
				<ele>937</ele>
				<time>2018-04-28T13:21:25Z</time>
			</trkpt>
			<trkpt lat="43.011779" lon="-1.580961">
				<ele>937</ele>
				<time>2018-04-28T13:21:27Z</time>
			</trkpt>
			<trkpt lat="43.011795" lon="-1.58105">
				<ele>937</ele>
				<time>2018-04-28T13:21:30Z</time>
			</trkpt>
			<trkpt lat="43.011823" lon="-1.58112">
				<ele>937</ele>
				<time>2018-04-28T13:21:33Z</time>
			</trkpt>
			<trkpt lat="43.011822" lon="-1.58121">
				<ele>937</ele>
				<time>2018-04-28T13:21:36Z</time>
			</trkpt>
			<trkpt lat="43.011826" lon="-1.581327">
				<ele>917</ele>
				<time>2018-04-28T13:21:38Z</time>
			</trkpt>
			<trkpt lat="43.011834" lon="-1.581419">
				<ele>917</ele>
				<time>2018-04-28T13:21:40Z</time>
			</trkpt>
			<trkpt lat="43.011847" lon="-1.581506">
				<ele>917</ele>
				<time>2018-04-28T13:21:42Z</time>
			</trkpt>
			<trkpt lat="43.011878" lon="-1.581564">
				<ele>917</ele>
				<time>2018-04-28T13:21:47Z</time>
			</trkpt>
			<trkpt lat="43.011892" lon="-1.581625">
				<ele>917</ele>
				<time>2018-04-28T13:21:50Z</time>
			</trkpt>
			<trkpt lat="43.011943" lon="-1.581611">
				<ele>917</ele>
				<time>2018-04-28T13:21:58Z</time>
			</trkpt>
			<trkpt lat="43.011922" lon="-1.581668">
				<ele>917</ele>
				<time>2018-04-28T13:22:08Z</time>
			</trkpt>
			<trkpt lat="43.011888" lon="-1.581714">
				<ele>917</ele>
				<time>2018-04-28T13:22:10Z</time>
			</trkpt>
			<trkpt lat="43.011851" lon="-1.581755">
				<ele>917</ele>
				<time>2018-04-28T13:22:12Z</time>
			</trkpt>
			<trkpt lat="43.011813" lon="-1.581854">
				<ele>917</ele>
				<time>2018-04-28T13:22:15Z</time>
			</trkpt>
			<trkpt lat="43.011806" lon="-1.581925">
				<ele>917</ele>
				<time>2018-04-28T13:22:17Z</time>
			</trkpt>
			<trkpt lat="43.011797" lon="-1.582023">
				<ele>917</ele>
				<time>2018-04-28T13:22:20Z</time>
			</trkpt>
			<trkpt lat="43.011799" lon="-1.582096">
				<ele>917</ele>
				<time>2018-04-28T13:22:23Z</time>
			</trkpt>
			<trkpt lat="43.011776" lon="-1.582158">
				<ele>917</ele>
				<time>2018-04-28T13:22:27Z</time>
			</trkpt>
			<trkpt lat="43.011753" lon="-1.582212">
				<ele>917</ele>
				<time>2018-04-28T13:22:37Z</time>
			</trkpt>
			<trkpt lat="43.011705" lon="-1.582229">
				<ele>917</ele>
				<time>2018-04-28T13:22:39Z</time>
			</trkpt>
			<trkpt lat="43.011647" lon="-1.582273">
				<ele>917</ele>
				<time>2018-04-28T13:22:43Z</time>
			</trkpt>
			<trkpt lat="43.0116" lon="-1.582297">
				<ele>917</ele>
				<time>2018-04-28T13:22:46Z</time>
			</trkpt>
			<trkpt lat="43.011582" lon="-1.582367">
				<ele>917</ele>
				<time>2018-04-28T13:22:49Z</time>
			</trkpt>
			<trkpt lat="43.011524" lon="-1.58242">
				<ele>917</ele>
				<time>2018-04-28T13:22:52Z</time>
			</trkpt>
			<trkpt lat="43.011482" lon="-1.582481">
				<ele>917</ele>
				<time>2018-04-28T13:22:54Z</time>
			</trkpt>
			<trkpt lat="43.011462" lon="-1.582538">
				<ele>917</ele>
				<time>2018-04-28T13:22:56Z</time>
			</trkpt>
			<trkpt lat="43.011444" lon="-1.58261">
				<ele>917</ele>
				<time>2018-04-28T13:22:58Z</time>
			</trkpt>
			<trkpt lat="43.011402" lon="-1.58267">
				<ele>917</ele>
				<time>2018-04-28T13:23:00Z</time>
			</trkpt>
			<trkpt lat="43.011374" lon="-1.582757">
				<ele>917</ele>
				<time>2018-04-28T13:23:03Z</time>
			</trkpt>
			<trkpt lat="43.01135" lon="-1.582843">
				<ele>917</ele>
				<time>2018-04-28T13:23:05Z</time>
			</trkpt>
			<trkpt lat="43.011358" lon="-1.582908">
				<ele>917</ele>
				<time>2018-04-28T13:23:07Z</time>
			</trkpt>
			<trkpt lat="43.011362" lon="-1.582987">
				<ele>917</ele>
				<time>2018-04-28T13:23:10Z</time>
			</trkpt>
			<trkpt lat="43.011344" lon="-1.583075">
				<ele>917</ele>
				<time>2018-04-28T13:23:13Z</time>
			</trkpt>
			<trkpt lat="43.011349" lon="-1.583137">
				<ele>917</ele>
				<time>2018-04-28T13:23:15Z</time>
			</trkpt>
			<trkpt lat="43.011358" lon="-1.583213">
				<ele>917</ele>
				<time>2018-04-28T13:23:17Z</time>
			</trkpt>
			<trkpt lat="43.011357" lon="-1.583286">
				<ele>917</ele>
				<time>2018-04-28T13:23:20Z</time>
			</trkpt>
			<trkpt lat="43.011341" lon="-1.583351">
				<ele>942</ele>
				<time>2018-04-28T13:23:24Z</time>
			</trkpt>
			<trkpt lat="43.011329" lon="-1.583427">
				<ele>942</ele>
				<time>2018-04-28T13:23:26Z</time>
			</trkpt>
			<trkpt lat="43.011319" lon="-1.583492">
				<ele>942</ele>
				<time>2018-04-28T13:23:30Z</time>
			</trkpt>
			<trkpt lat="43.011293" lon="-1.58355">
				<ele>942</ele>
				<time>2018-04-28T13:23:32Z</time>
			</trkpt>
			<trkpt lat="43.011273" lon="-1.583609">
				<ele>942</ele>
				<time>2018-04-28T13:23:34Z</time>
			</trkpt>
			<trkpt lat="43.011261" lon="-1.583673">
				<ele>942</ele>
				<time>2018-04-28T13:23:38Z</time>
			</trkpt>
			<trkpt lat="43.011239" lon="-1.583734">
				<ele>942</ele>
				<time>2018-04-28T13:23:42Z</time>
			</trkpt>
			<trkpt lat="43.011223" lon="-1.583822">
				<ele>942</ele>
				<time>2018-04-28T13:23:46Z</time>
			</trkpt>
			<trkpt lat="43.011219" lon="-1.583887">
				<ele>942</ele>
				<time>2018-04-28T13:23:49Z</time>
			</trkpt>
			<trkpt lat="43.011193" lon="-1.583943">
				<ele>942</ele>
				<time>2018-04-28T13:23:52Z</time>
			</trkpt>
			<trkpt lat="43.011192" lon="-1.584017">
				<ele>942</ele>
				<time>2018-04-28T13:23:57Z</time>
			</trkpt>
			<trkpt lat="43.01116" lon="-1.584074">
				<ele>942</ele>
				<time>2018-04-28T13:24:03Z</time>
			</trkpt>
			<trkpt lat="43.01111" lon="-1.584105">
				<ele>942</ele>
				<time>2018-04-28T13:24:05Z</time>
			</trkpt>
			<trkpt lat="43.011074" lon="-1.584159">
				<ele>942</ele>
				<time>2018-04-28T13:24:08Z</time>
			</trkpt>
			<trkpt lat="43.011068" lon="-1.584223">
				<ele>942</ele>
				<time>2018-04-28T13:24:10Z</time>
			</trkpt>
			<trkpt lat="43.011025" lon="-1.584264">
				<ele>942</ele>
				<time>2018-04-28T13:24:13Z</time>
			</trkpt>
			<trkpt lat="43.01103" lon="-1.584337">
				<ele>942</ele>
				<time>2018-04-28T13:24:16Z</time>
			</trkpt>
			<trkpt lat="43.010992" lon="-1.584408">
				<ele>942</ele>
				<time>2018-04-28T13:24:19Z</time>
			</trkpt>
			<trkpt lat="43.010975" lon="-1.584467">
				<ele>942</ele>
				<time>2018-04-28T13:24:21Z</time>
			</trkpt>
			<trkpt lat="43.010945" lon="-1.584513">
				<ele>942</ele>
				<time>2018-04-28T13:24:24Z</time>
			</trkpt>
			<trkpt lat="43.010929" lon="-1.584594">
				<ele>942</ele>
				<time>2018-04-28T13:24:28Z</time>
			</trkpt>
			<trkpt lat="43.010901" lon="-1.584676">
				<ele>942</ele>
				<time>2018-04-28T13:24:31Z</time>
			</trkpt>
			<trkpt lat="43.010878" lon="-1.584757">
				<ele>942</ele>
				<time>2018-04-28T13:24:34Z</time>
			</trkpt>
			<trkpt lat="43.010865" lon="-1.584818">
				<ele>942</ele>
				<time>2018-04-28T13:24:36Z</time>
			</trkpt>
			<trkpt lat="43.010848" lon="-1.584891">
				<ele>942</ele>
				<time>2018-04-28T13:24:38Z</time>
			</trkpt>
			<trkpt lat="43.010822" lon="-1.584944">
				<ele>942</ele>
				<time>2018-04-28T13:24:40Z</time>
			</trkpt>
			<trkpt lat="43.010801" lon="-1.585024">
				<ele>942</ele>
				<time>2018-04-28T13:24:43Z</time>
			</trkpt>
			<trkpt lat="43.010751" lon="-1.585094">
				<ele>942</ele>
				<time>2018-04-28T13:24:46Z</time>
			</trkpt>
			<trkpt lat="43.010721" lon="-1.585142">
				<ele>942</ele>
				<time>2018-04-28T13:24:48Z</time>
			</trkpt>
			<trkpt lat="43.010706" lon="-1.585208">
				<ele>942</ele>
				<time>2018-04-28T13:24:50Z</time>
			</trkpt>
			<trkpt lat="43.01067" lon="-1.585273">
				<ele>942</ele>
				<time>2018-04-28T13:24:53Z</time>
			</trkpt>
			<trkpt lat="43.010642" lon="-1.585332">
				<ele>942</ele>
				<time>2018-04-28T13:24:57Z</time>
			</trkpt>
			<trkpt lat="43.010615" lon="-1.585389">
				<ele>942</ele>
				<time>2018-04-28T13:25:00Z</time>
			</trkpt>
			<trkpt lat="43.010594" lon="-1.585444">
				<ele>975</ele>
				<time>2018-04-28T13:25:04Z</time>
			</trkpt>
			<trkpt lat="43.010576" lon="-1.585502">
				<ele>975</ele>
				<time>2018-04-28T13:25:07Z</time>
			</trkpt>
			<trkpt lat="43.010529" lon="-1.585555">
				<ele>975</ele>
				<time>2018-04-28T13:25:11Z</time>
			</trkpt>
			<trkpt lat="43.010504" lon="-1.585629">
				<ele>975</ele>
				<time>2018-04-28T13:25:14Z</time>
			</trkpt>
			<trkpt lat="43.010483" lon="-1.585697">
				<ele>975</ele>
				<time>2018-04-28T13:25:17Z</time>
			</trkpt>
			<trkpt lat="43.010445" lon="-1.585754">
				<ele>975</ele>
				<time>2018-04-28T13:25:21Z</time>
			</trkpt>
			<trkpt lat="43.010409" lon="-1.585809">
				<ele>875</ele>
				<time>2018-04-28T13:25:23Z</time>
			</trkpt>
			<trkpt lat="43.010386" lon="-1.585879">
				<ele>875</ele>
				<time>2018-04-28T13:25:26Z</time>
			</trkpt>
			<trkpt lat="43.010359" lon="-1.585973">
				<ele>875</ele>
				<time>2018-04-28T13:25:29Z</time>
			</trkpt>
			<trkpt lat="43.010302" lon="-1.586034">
				<ele>875</ele>
				<time>2018-04-28T13:25:31Z</time>
			</trkpt>
			<trkpt lat="43.010272" lon="-1.586106">
				<ele>875</ele>
				<time>2018-04-28T13:25:33Z</time>
			</trkpt>
			<trkpt lat="43.010241" lon="-1.586182">
				<ele>875</ele>
				<time>2018-04-28T13:25:35Z</time>
			</trkpt>
			<trkpt lat="43.010213" lon="-1.586241">
				<ele>875</ele>
				<time>2018-04-28T13:25:37Z</time>
			</trkpt>
			<trkpt lat="43.010208" lon="-1.586304">
				<ele>875</ele>
				<time>2018-04-28T13:25:39Z</time>
			</trkpt>
			<trkpt lat="43.010195" lon="-1.586363">
				<ele>875</ele>
				<time>2018-04-28T13:25:41Z</time>
			</trkpt>
			<trkpt lat="43.010198" lon="-1.586426">
				<ele>875</ele>
				<time>2018-04-28T13:25:43Z</time>
			</trkpt>
			<trkpt lat="43.010166" lon="-1.586483">
				<ele>875</ele>
				<time>2018-04-28T13:25:46Z</time>
			</trkpt>
			<trkpt lat="43.010139" lon="-1.586552">
				<ele>875</ele>
				<time>2018-04-28T13:25:49Z</time>
			</trkpt>
			<trkpt lat="43.01008" lon="-1.586633">
				<ele>875</ele>
				<time>2018-04-28T13:25:51Z</time>
			</trkpt>
			<trkpt lat="43.010068" lon="-1.5867">
				<ele>875</ele>
				<time>2018-04-28T13:25:53Z</time>
			</trkpt>
			<trkpt lat="43.010034" lon="-1.586772">
				<ele>875</ele>
				<time>2018-04-28T13:25:55Z</time>
			</trkpt>
			<trkpt lat="43.009987" lon="-1.586828">
				<ele>875</ele>
				<time>2018-04-28T13:25:57Z</time>
			</trkpt>
			<trkpt lat="43.009964" lon="-1.586904">
				<ele>875</ele>
				<time>2018-04-28T13:25:59Z</time>
			</trkpt>
			<trkpt lat="43.009944" lon="-1.586965">
				<ele>875</ele>
				<time>2018-04-28T13:26:01Z</time>
			</trkpt>
			<trkpt lat="43.009921" lon="-1.58702">
				<ele>875</ele>
				<time>2018-04-28T13:26:02Z</time>
			</trkpt>
			<trkpt lat="43.009909" lon="-1.587096">
				<ele>875</ele>
				<time>2018-04-28T13:26:04Z</time>
			</trkpt>
			<trkpt lat="43.009903" lon="-1.587163">
				<ele>875</ele>
				<time>2018-04-28T13:26:06Z</time>
			</trkpt>
			<trkpt lat="43.009893" lon="-1.587241">
				<ele>875</ele>
				<time>2018-04-28T13:26:10Z</time>
			</trkpt>
			<trkpt lat="43.009906" lon="-1.587318">
				<ele>875</ele>
				<time>2018-04-28T13:26:14Z</time>
			</trkpt>
			<trkpt lat="43.009866" lon="-1.587371">
				<ele>875</ele>
				<time>2018-04-28T13:26:16Z</time>
			</trkpt>
			<trkpt lat="43.009847" lon="-1.587459">
				<ele>875</ele>
				<time>2018-04-28T13:26:19Z</time>
			</trkpt>
			<trkpt lat="43.009859" lon="-1.587544">
				<ele>861</ele>
				<time>2018-04-28T13:26:21Z</time>
			</trkpt>
			<trkpt lat="43.009861" lon="-1.587611">
				<ele>861</ele>
				<time>2018-04-28T13:26:23Z</time>
			</trkpt>
			<trkpt lat="43.009874" lon="-1.587679">
				<ele>861</ele>
				<time>2018-04-28T13:26:25Z</time>
			</trkpt>
			<trkpt lat="43.009892" lon="-1.587738">
				<ele>861</ele>
				<time>2018-04-28T13:26:27Z</time>
			</trkpt>
			<trkpt lat="43.0099" lon="-1.58781">
				<ele>861</ele>
				<time>2018-04-28T13:26:29Z</time>
			</trkpt>
			<trkpt lat="43.009904" lon="-1.587892">
				<ele>861</ele>
				<time>2018-04-28T13:26:32Z</time>
			</trkpt>
			<trkpt lat="43.009899" lon="-1.587969">
				<ele>861</ele>
				<time>2018-04-28T13:26:34Z</time>
			</trkpt>
			<trkpt lat="43.009905" lon="-1.588053">
				<ele>861</ele>
				<time>2018-04-28T13:26:37Z</time>
			</trkpt>
			<trkpt lat="43.009896" lon="-1.588141">
				<ele>861</ele>
				<time>2018-04-28T13:26:39Z</time>
			</trkpt>
			<trkpt lat="43.009867" lon="-1.588203">
				<ele>861</ele>
				<time>2018-04-28T13:26:41Z</time>
			</trkpt>
			<trkpt lat="43.009876" lon="-1.588306">
				<ele>861</ele>
				<time>2018-04-28T13:26:44Z</time>
			</trkpt>
			<trkpt lat="43.009877" lon="-1.588397">
				<ele>861</ele>
				<time>2018-04-28T13:26:46Z</time>
			</trkpt>
			<trkpt lat="43.009891" lon="-1.588473">
				<ele>861</ele>
				<time>2018-04-28T13:26:48Z</time>
			</trkpt>
			<trkpt lat="43.009914" lon="-1.58854">
				<ele>861</ele>
				<time>2018-04-28T13:26:51Z</time>
			</trkpt>
			<trkpt lat="43.009952" lon="-1.588584">
				<ele>861</ele>
				<time>2018-04-28T13:26:54Z</time>
			</trkpt>
			<trkpt lat="43.009967" lon="-1.588645">
				<ele>861</ele>
				<time>2018-04-28T13:26:57Z</time>
			</trkpt>
			<trkpt lat="43.009977" lon="-1.588734">
				<ele>861</ele>
				<time>2018-04-28T13:27:01Z</time>
			</trkpt>
			<trkpt lat="43.009981" lon="-1.588825">
				<ele>861</ele>
				<time>2018-04-28T13:27:04Z</time>
			</trkpt>
			<trkpt lat="43.00999" lon="-1.588886">
				<ele>861</ele>
				<time>2018-04-28T13:27:08Z</time>
			</trkpt>
			<trkpt lat="43.010017" lon="-1.58896">
				<ele>861</ele>
				<time>2018-04-28T13:27:11Z</time>
			</trkpt>
			<trkpt lat="43.010033" lon="-1.589019">
				<ele>861</ele>
				<time>2018-04-28T13:27:13Z</time>
			</trkpt>
			<trkpt lat="43.010055" lon="-1.58909">
				<ele>861</ele>
				<time>2018-04-28T13:27:15Z</time>
			</trkpt>
			<trkpt lat="43.010077" lon="-1.589165">
				<ele>861</ele>
				<time>2018-04-28T13:27:17Z</time>
			</trkpt>
			<trkpt lat="43.0101" lon="-1.589238">
				<ele>861</ele>
				<time>2018-04-28T13:27:19Z</time>
			</trkpt>
			<trkpt lat="43.010131" lon="-1.589299">
				<ele>861</ele>
				<time>2018-04-28T13:27:21Z</time>
			</trkpt>
			<trkpt lat="43.010182" lon="-1.589371">
				<ele>861</ele>
				<time>2018-04-28T13:27:23Z</time>
			</trkpt>
			<trkpt lat="43.010205" lon="-1.589424">
				<ele>861</ele>
				<time>2018-04-28T13:27:24Z</time>
			</trkpt>
			<trkpt lat="43.01024" lon="-1.589496">
				<ele>861</ele>
				<time>2018-04-28T13:27:26Z</time>
			</trkpt>
			<trkpt lat="43.010267" lon="-1.589558">
				<ele>861</ele>
				<time>2018-04-28T13:27:28Z</time>
			</trkpt>
			<trkpt lat="43.010304" lon="-1.589611">
				<ele>861</ele>
				<time>2018-04-28T13:27:30Z</time>
			</trkpt>
			<trkpt lat="43.010361" lon="-1.589651">
				<ele>861</ele>
				<time>2018-04-28T13:27:33Z</time>
			</trkpt>
			<trkpt lat="43.010401" lon="-1.589696">
				<ele>861</ele>
				<time>2018-04-28T13:27:35Z</time>
			</trkpt>
			<trkpt lat="43.010457" lon="-1.589702">
				<ele>894</ele>
				<time>2018-04-28T13:27:37Z</time>
			</trkpt>
			<trkpt lat="43.010514" lon="-1.589703">
				<ele>894</ele>
				<time>2018-04-28T13:27:40Z</time>
			</trkpt>
			<trkpt lat="43.010565" lon="-1.589724">
				<ele>894</ele>
				<time>2018-04-28T13:27:42Z</time>
			</trkpt>
			<trkpt lat="43.010608" lon="-1.589785">
				<ele>894</ele>
				<time>2018-04-28T13:27:44Z</time>
			</trkpt>
			<trkpt lat="43.010653" lon="-1.589813">
				<ele>894</ele>
				<time>2018-04-28T13:27:46Z</time>
			</trkpt>
			<trkpt lat="43.010705" lon="-1.589802">
				<ele>894</ele>
				<time>2018-04-28T13:27:49Z</time>
			</trkpt>
			<trkpt lat="43.010761" lon="-1.589805">
				<ele>894</ele>
				<time>2018-04-28T13:27:53Z</time>
			</trkpt>
			<trkpt lat="43.010811" lon="-1.589836">
				<ele>894</ele>
				<time>2018-04-28T13:27:56Z</time>
			</trkpt>
			<trkpt lat="43.01086" lon="-1.589874">
				<ele>894</ele>
				<time>2018-04-28T13:28:01Z</time>
			</trkpt>
			<trkpt lat="43.010924" lon="-1.589909">
				<ele>894</ele>
				<time>2018-04-28T13:28:04Z</time>
			</trkpt>
			<trkpt lat="43.010877" lon="-1.589919">
				<ele>894</ele>
				<time>2018-04-28T13:28:11Z</time>
			</trkpt>
			<trkpt lat="43.010847" lon="-1.589968">
				<ele>894</ele>
				<time>2018-04-28T13:28:13Z</time>
			</trkpt>
			<trkpt lat="43.01081" lon="-1.590029">
				<ele>894</ele>
				<time>2018-04-28T13:28:15Z</time>
			</trkpt>
			<trkpt lat="43.010768" lon="-1.590072">
				<ele>894</ele>
				<time>2018-04-28T13:28:18Z</time>
			</trkpt>
			<trkpt lat="43.010757" lon="-1.590142">
				<ele>894</ele>
				<time>2018-04-28T13:28:20Z</time>
			</trkpt>
			<trkpt lat="43.01078" lon="-1.590215">
				<ele>894</ele>
				<time>2018-04-28T13:28:23Z</time>
			</trkpt>
			<trkpt lat="43.010781" lon="-1.590281">
				<ele>894</ele>
				<time>2018-04-28T13:28:25Z</time>
			</trkpt>
			<trkpt lat="43.010799" lon="-1.590356">
				<ele>894</ele>
				<time>2018-04-28T13:28:27Z</time>
			</trkpt>
			<trkpt lat="43.010808" lon="-1.590425">
				<ele>894</ele>
				<time>2018-04-28T13:28:29Z</time>
			</trkpt>
			<trkpt lat="43.010818" lon="-1.590487">
				<ele>894</ele>
				<time>2018-04-28T13:28:31Z</time>
			</trkpt>
			<trkpt lat="43.010845" lon="-1.590548">
				<ele>894</ele>
				<time>2018-04-28T13:28:34Z</time>
			</trkpt>
			<trkpt lat="43.010878" lon="-1.59063">
				<ele>894</ele>
				<time>2018-04-28T13:28:39Z</time>
			</trkpt>
			<trkpt lat="43.010901" lon="-1.59072">
				<ele>894</ele>
				<time>2018-04-28T13:28:45Z</time>
			</trkpt>
			<trkpt lat="43.010925" lon="-1.590799">
				<ele>894</ele>
				<time>2018-04-28T13:28:48Z</time>
			</trkpt>
			<trkpt lat="43.010923" lon="-1.59087">
				<ele>894</ele>
				<time>2018-04-28T13:28:52Z</time>
			</trkpt>
			<trkpt lat="43.010869" lon="-1.590938">
				<ele>894</ele>
				<time>2018-04-28T13:28:54Z</time>
			</trkpt>
			<trkpt lat="43.010854" lon="-1.591013">
				<ele>894</ele>
				<time>2018-04-28T13:28:56Z</time>
			</trkpt>
			<trkpt lat="43.010842" lon="-1.591082">
				<ele>894</ele>
				<time>2018-04-28T13:28:58Z</time>
			</trkpt>
			<trkpt lat="43.010828" lon="-1.591164">
				<ele>894</ele>
				<time>2018-04-28T13:29:00Z</time>
			</trkpt>
			<trkpt lat="43.010833" lon="-1.591243">
				<ele>894</ele>
				<time>2018-04-28T13:29:02Z</time>
			</trkpt>
			<trkpt lat="43.010844" lon="-1.591308">
				<ele>894</ele>
				<time>2018-04-28T13:29:04Z</time>
			</trkpt>
			<trkpt lat="43.010859" lon="-1.591382">
				<ele>894</ele>
				<time>2018-04-28T13:29:06Z</time>
			</trkpt>
			<trkpt lat="43.010872" lon="-1.591447">
				<ele>894</ele>
				<time>2018-04-28T13:29:08Z</time>
			</trkpt>
			<trkpt lat="43.010871" lon="-1.591536">
				<ele>894</ele>
				<time>2018-04-28T13:29:10Z</time>
			</trkpt>
			<trkpt lat="43.010879" lon="-1.591606">
				<ele>894</ele>
				<time>2018-04-28T13:29:12Z</time>
			</trkpt>
			<trkpt lat="43.010889" lon="-1.59167">
				<ele>857</ele>
				<time>2018-04-28T13:29:14Z</time>
			</trkpt>
			<trkpt lat="43.0109" lon="-1.591759">
				<ele>857</ele>
				<time>2018-04-28T13:29:16Z</time>
			</trkpt>
			<trkpt lat="43.010916" lon="-1.591836">
				<ele>857</ele>
				<time>2018-04-28T13:29:18Z</time>
			</trkpt>
			<trkpt lat="43.010934" lon="-1.591894">
				<ele>857</ele>
				<time>2018-04-28T13:29:20Z</time>
			</trkpt>
			<trkpt lat="43.010959" lon="-1.591951">
				<ele>857</ele>
				<time>2018-04-28T13:29:22Z</time>
			</trkpt>
			<trkpt lat="43.010982" lon="-1.592011">
				<ele>857</ele>
				<time>2018-04-28T13:29:25Z</time>
			</trkpt>
			<trkpt lat="43.011025" lon="-1.592076">
				<ele>857</ele>
				<time>2018-04-28T13:29:28Z</time>
			</trkpt>
			<trkpt lat="43.011057" lon="-1.592149">
				<ele>857</ele>
				<time>2018-04-28T13:29:30Z</time>
			</trkpt>
			<trkpt lat="43.011077" lon="-1.592227">
				<ele>857</ele>
				<time>2018-04-28T13:29:33Z</time>
			</trkpt>
			<trkpt lat="43.011085" lon="-1.5923">
				<ele>857</ele>
				<time>2018-04-28T13:29:35Z</time>
			</trkpt>
			<trkpt lat="43.01109" lon="-1.592365">
				<ele>857</ele>
				<time>2018-04-28T13:29:37Z</time>
			</trkpt>
			<trkpt lat="43.011118" lon="-1.592431">
				<ele>857</ele>
				<time>2018-04-28T13:29:40Z</time>
			</trkpt>
			<trkpt lat="43.011114" lon="-1.592496">
				<ele>857</ele>
				<time>2018-04-28T13:29:42Z</time>
			</trkpt>
			<trkpt lat="43.011147" lon="-1.592555">
				<ele>857</ele>
				<time>2018-04-28T13:29:47Z</time>
			</trkpt>
			<trkpt lat="43.011175" lon="-1.592603">
				<ele>857</ele>
				<time>2018-04-28T13:29:49Z</time>
			</trkpt>
			<trkpt lat="43.01119" lon="-1.592676">
				<ele>857</ele>
				<time>2018-04-28T13:29:51Z</time>
			</trkpt>
			<trkpt lat="43.011211" lon="-1.592746">
				<ele>857</ele>
				<time>2018-04-28T13:29:53Z</time>
			</trkpt>
			<trkpt lat="43.01125" lon="-1.592826">
				<ele>857</ele>
				<time>2018-04-28T13:29:56Z</time>
			</trkpt>
			<trkpt lat="43.011265" lon="-1.592909">
				<ele>857</ele>
				<time>2018-04-28T13:29:59Z</time>
			</trkpt>
			<trkpt lat="43.011294" lon="-1.593005">
				<ele>857</ele>
				<time>2018-04-28T13:30:03Z</time>
			</trkpt>
			<trkpt lat="43.011301" lon="-1.593083">
				<ele>857</ele>
				<time>2018-04-28T13:30:05Z</time>
			</trkpt>
			<trkpt lat="43.011312" lon="-1.59315">
				<ele>857</ele>
				<time>2018-04-28T13:30:07Z</time>
			</trkpt>
			<trkpt lat="43.011326" lon="-1.593236">
				<ele>857</ele>
				<time>2018-04-28T13:30:10Z</time>
			</trkpt>
			<trkpt lat="43.011334" lon="-1.593308">
				<ele>857</ele>
				<time>2018-04-28T13:30:12Z</time>
			</trkpt>
			<trkpt lat="43.011349" lon="-1.593388">
				<ele>857</ele>
				<time>2018-04-28T13:30:15Z</time>
			</trkpt>
			<trkpt lat="43.011367" lon="-1.593478">
				<ele>857</ele>
				<time>2018-04-28T13:30:18Z</time>
			</trkpt>
			<trkpt lat="43.011382" lon="-1.593563">
				<ele>857</ele>
				<time>2018-04-28T13:30:21Z</time>
			</trkpt>
			<trkpt lat="43.01139" lon="-1.593644">
				<ele>857</ele>
				<time>2018-04-28T13:30:23Z</time>
			</trkpt>
			<trkpt lat="43.011413" lon="-1.59374">
				<ele>857</ele>
				<time>2018-04-28T13:30:26Z</time>
			</trkpt>
			<trkpt lat="43.011413" lon="-1.593811">
				<ele>834</ele>
				<time>2018-04-28T13:30:28Z</time>
			</trkpt>
			<trkpt lat="43.011419" lon="-1.593877">
				<ele>834</ele>
				<time>2018-04-28T13:30:30Z</time>
			</trkpt>
			<trkpt lat="43.011407" lon="-1.593958">
				<ele>834</ele>
				<time>2018-04-28T13:30:32Z</time>
			</trkpt>
			<trkpt lat="43.011403" lon="-1.594053">
				<ele>834</ele>
				<time>2018-04-28T13:30:35Z</time>
			</trkpt>
			<trkpt lat="43.0114" lon="-1.594129">
				<ele>834</ele>
				<time>2018-04-28T13:30:38Z</time>
			</trkpt>
			<trkpt lat="43.0114" lon="-1.594198">
				<ele>834</ele>
				<time>2018-04-28T13:30:40Z</time>
			</trkpt>
			<trkpt lat="43.011398" lon="-1.594266">
				<ele>834</ele>
				<time>2018-04-28T13:30:42Z</time>
			</trkpt>
			<trkpt lat="43.011396" lon="-1.59433">
				<ele>834</ele>
				<time>2018-04-28T13:30:44Z</time>
			</trkpt>
			<trkpt lat="43.0114" lon="-1.594416">
				<ele>834</ele>
				<time>2018-04-28T13:30:46Z</time>
			</trkpt>
			<trkpt lat="43.011449" lon="-1.594433">
				<ele>834</ele>
				<time>2018-04-28T13:30:49Z</time>
			</trkpt>
			<trkpt lat="43.011453" lon="-1.5945">
				<ele>834</ele>
				<time>2018-04-28T13:30:57Z</time>
			</trkpt>
			<trkpt lat="43.011449" lon="-1.594577">
				<ele>834</ele>
				<time>2018-04-28T13:31:00Z</time>
			</trkpt>
			<trkpt lat="43.011467" lon="-1.59464">
				<ele>834</ele>
				<time>2018-04-28T13:31:04Z</time>
			</trkpt>
			<trkpt lat="43.011503" lon="-1.59471">
				<ele>834</ele>
				<time>2018-04-28T13:31:09Z</time>
			</trkpt>
			<trkpt lat="43.011534" lon="-1.594778">
				<ele>834</ele>
				<time>2018-04-28T13:31:12Z</time>
			</trkpt>
			<trkpt lat="43.011559" lon="-1.594829">
				<ele>834</ele>
				<time>2018-04-28T13:31:17Z</time>
			</trkpt>
			<trkpt lat="43.011568" lon="-1.594896">
				<ele>834</ele>
				<time>2018-04-28T13:31:22Z</time>
			</trkpt>
			<trkpt lat="43.01152" lon="-1.594927">
				<ele>834</ele>
				<time>2018-04-28T13:31:30Z</time>
			</trkpt>
			<trkpt lat="43.011472" lon="-1.594949">
				<ele>834</ele>
				<time>2018-04-28T13:31:33Z</time>
			</trkpt>
			<trkpt lat="43.011438" lon="-1.594991">
				<ele>834</ele>
				<time>2018-04-28T13:31:35Z</time>
			</trkpt>
			<trkpt lat="43.011395" lon="-1.595033">
				<ele>834</ele>
				<time>2018-04-28T13:31:38Z</time>
			</trkpt>
			<trkpt lat="43.01134" lon="-1.595076">
				<ele>834</ele>
				<time>2018-04-28T13:31:41Z</time>
			</trkpt>
			<trkpt lat="43.011301" lon="-1.595113">
				<ele>834</ele>
				<time>2018-04-28T13:31:43Z</time>
			</trkpt>
			<trkpt lat="43.011258" lon="-1.595159">
				<ele>834</ele>
				<time>2018-04-28T13:31:46Z</time>
			</trkpt>
			<trkpt lat="43.011232" lon="-1.595248">
				<ele>834</ele>
				<time>2018-04-28T13:31:51Z</time>
			</trkpt>
			<trkpt lat="43.011238" lon="-1.59531">
				<ele>834</ele>
				<time>2018-04-28T13:31:53Z</time>
			</trkpt>
			<trkpt lat="43.011246" lon="-1.595397">
				<ele>834</ele>
				<time>2018-04-28T13:31:56Z</time>
			</trkpt>
			<trkpt lat="43.011244" lon="-1.595485">
				<ele>834</ele>
				<time>2018-04-28T13:31:59Z</time>
			</trkpt>
			<trkpt lat="43.011236" lon="-1.595597">
				<ele>834</ele>
				<time>2018-04-28T13:32:02Z</time>
			</trkpt>
			<trkpt lat="43.011234" lon="-1.595684">
				<ele>834</ele>
				<time>2018-04-28T13:32:04Z</time>
			</trkpt>
			<trkpt lat="43.011234" lon="-1.595771">
				<ele>834</ele>
				<time>2018-04-28T13:32:06Z</time>
			</trkpt>
			<trkpt lat="43.011246" lon="-1.595834">
				<ele>822</ele>
				<time>2018-04-28T13:32:08Z</time>
			</trkpt>
			<trkpt lat="43.01125" lon="-1.595921">
				<ele>822</ele>
				<time>2018-04-28T13:32:11Z</time>
			</trkpt>
			<trkpt lat="43.011262" lon="-1.596012">
				<ele>822</ele>
				<time>2018-04-28T13:32:13Z</time>
			</trkpt>
			<trkpt lat="43.011261" lon="-1.596093">
				<ele>822</ele>
				<time>2018-04-28T13:32:15Z</time>
			</trkpt>
			<trkpt lat="43.011263" lon="-1.596155">
				<ele>822</ele>
				<time>2018-04-28T13:32:17Z</time>
			</trkpt>
			<trkpt lat="43.011251" lon="-1.596225">
				<ele>822</ele>
				<time>2018-04-28T13:32:19Z</time>
			</trkpt>
			<trkpt lat="43.011235" lon="-1.596304">
				<ele>822</ele>
				<time>2018-04-28T13:32:22Z</time>
			</trkpt>
			<trkpt lat="43.011245" lon="-1.596375">
				<ele>822</ele>
				<time>2018-04-28T13:32:25Z</time>
			</trkpt>
			<trkpt lat="43.011257" lon="-1.596447">
				<ele>822</ele>
				<time>2018-04-28T13:32:28Z</time>
			</trkpt>
			<trkpt lat="43.011272" lon="-1.596522">
				<ele>822</ele>
				<time>2018-04-28T13:32:31Z</time>
			</trkpt>
			<trkpt lat="43.011282" lon="-1.59661">
				<ele>822</ele>
				<time>2018-04-28T13:32:34Z</time>
			</trkpt>
			<trkpt lat="43.011283" lon="-1.596696">
				<ele>822</ele>
				<time>2018-04-28T13:32:37Z</time>
			</trkpt>
			<trkpt lat="43.011286" lon="-1.596761">
				<ele>822</ele>
				<time>2018-04-28T13:32:40Z</time>
			</trkpt>
			<trkpt lat="43.011297" lon="-1.596837">
				<ele>822</ele>
				<time>2018-04-28T13:32:42Z</time>
			</trkpt>
			<trkpt lat="43.011309" lon="-1.596934">
				<ele>822</ele>
				<time>2018-04-28T13:32:46Z</time>
			</trkpt>
			<trkpt lat="43.011328" lon="-1.596999">
				<ele>822</ele>
				<time>2018-04-28T13:32:50Z</time>
			</trkpt>
			<trkpt lat="43.011345" lon="-1.597067">
				<ele>822</ele>
				<time>2018-04-28T13:32:52Z</time>
			</trkpt>
			<trkpt lat="43.011345" lon="-1.597141">
				<ele>822</ele>
				<time>2018-04-28T13:32:55Z</time>
			</trkpt>
			<trkpt lat="43.011376" lon="-1.597205">
				<ele>822</ele>
				<time>2018-04-28T13:33:00Z</time>
			</trkpt>
			<trkpt lat="43.011397" lon="-1.597276">
				<ele>822</ele>
				<time>2018-04-28T13:33:03Z</time>
			</trkpt>
			<trkpt lat="43.011404" lon="-1.59734">
				<ele>822</ele>
				<time>2018-04-28T13:33:05Z</time>
			</trkpt>
			<trkpt lat="43.011409" lon="-1.597403">
				<ele>822</ele>
				<time>2018-04-28T13:33:07Z</time>
			</trkpt>
			<trkpt lat="43.011436" lon="-1.597481">
				<ele>822</ele>
				<time>2018-04-28T13:33:10Z</time>
			</trkpt>
			<trkpt lat="43.011465" lon="-1.597557">
				<ele>822</ele>
				<time>2018-04-28T13:33:12Z</time>
			</trkpt>
			<trkpt lat="43.011478" lon="-1.59762">
				<ele>822</ele>
				<time>2018-04-28T13:33:14Z</time>
			</trkpt>
			<trkpt lat="43.011496" lon="-1.597685">
				<ele>822</ele>
				<time>2018-04-28T13:33:16Z</time>
			</trkpt>
			<trkpt lat="43.011509" lon="-1.59775">
				<ele>822</ele>
				<time>2018-04-28T13:33:18Z</time>
			</trkpt>
			<trkpt lat="43.011511" lon="-1.597825">
				<ele>822</ele>
				<time>2018-04-28T13:33:20Z</time>
			</trkpt>
			<trkpt lat="43.011526" lon="-1.59793">
				<ele>787</ele>
				<time>2018-04-28T13:33:22Z</time>
			</trkpt>
			<trkpt lat="43.011516" lon="-1.598014">
				<ele>787</ele>
				<time>2018-04-28T13:33:24Z</time>
			</trkpt>
			<trkpt lat="43.011504" lon="-1.598088">
				<ele>787</ele>
				<time>2018-04-28T13:33:26Z</time>
			</trkpt>
			<trkpt lat="43.011504" lon="-1.598153">
				<ele>787</ele>
				<time>2018-04-28T13:33:28Z</time>
			</trkpt>
			<trkpt lat="43.01154" lon="-1.598195">
				<ele>787</ele>
				<time>2018-04-28T13:33:35Z</time>
			</trkpt>
			<trkpt lat="43.011561" lon="-1.598252">
				<ele>787</ele>
				<time>2018-04-28T13:33:45Z</time>
			</trkpt>
			<trkpt lat="43.011585" lon="-1.598312">
				<ele>787</ele>
				<time>2018-04-28T13:33:59Z</time>
			</trkpt>
			<trkpt lat="43.011589" lon="-1.598389">
				<ele>787</ele>
				<time>2018-04-28T13:34:02Z</time>
			</trkpt>
			<trkpt lat="43.011617" lon="-1.598449">
				<ele>787</ele>
				<time>2018-04-28T13:34:06Z</time>
			</trkpt>
			<trkpt lat="43.011629" lon="-1.598533">
				<ele>787</ele>
				<time>2018-04-28T13:34:09Z</time>
			</trkpt>
			<trkpt lat="43.011649" lon="-1.598601">
				<ele>787</ele>
				<time>2018-04-28T13:34:12Z</time>
			</trkpt>
			<trkpt lat="43.011667" lon="-1.598661">
				<ele>787</ele>
				<time>2018-04-28T13:34:15Z</time>
			</trkpt>
			<trkpt lat="43.011695" lon="-1.598721">
				<ele>787</ele>
				<time>2018-04-28T13:34:18Z</time>
			</trkpt>
			<trkpt lat="43.011708" lon="-1.598805">
				<ele>787</ele>
				<time>2018-04-28T13:34:21Z</time>
			</trkpt>
			<trkpt lat="43.01171" lon="-1.598889">
				<ele>787</ele>
				<time>2018-04-28T13:34:24Z</time>
			</trkpt>
			<trkpt lat="43.01174" lon="-1.598952">
				<ele>787</ele>
				<time>2018-04-28T13:34:27Z</time>
			</trkpt>
			<trkpt lat="43.011743" lon="-1.599017">
				<ele>787</ele>
				<time>2018-04-28T13:34:29Z</time>
			</trkpt>
			<trkpt lat="43.011737" lon="-1.599081">
				<ele>787</ele>
				<time>2018-04-28T13:34:33Z</time>
			</trkpt>
			<trkpt lat="43.011751" lon="-1.59917">
				<ele>787</ele>
				<time>2018-04-28T13:34:36Z</time>
			</trkpt>
			<trkpt lat="43.011748" lon="-1.599246">
				<ele>787</ele>
				<time>2018-04-28T13:34:40Z</time>
			</trkpt>
			<trkpt lat="43.011754" lon="-1.599315">
				<ele>787</ele>
				<time>2018-04-28T13:34:43Z</time>
			</trkpt>
			<trkpt lat="43.011772" lon="-1.599386">
				<ele>787</ele>
				<time>2018-04-28T13:34:47Z</time>
			</trkpt>
			<trkpt lat="43.011807" lon="-1.599475">
				<ele>787</ele>
				<time>2018-04-28T13:34:50Z</time>
			</trkpt>
			<trkpt lat="43.011799" lon="-1.599554">
				<ele>787</ele>
				<time>2018-04-28T13:34:52Z</time>
			</trkpt>
			<trkpt lat="43.011785" lon="-1.599626">
				<ele>787</ele>
				<time>2018-04-28T13:34:55Z</time>
			</trkpt>
			<trkpt lat="43.011775" lon="-1.599686">
				<ele>787</ele>
				<time>2018-04-28T13:34:57Z</time>
			</trkpt>
			<trkpt lat="43.011772" lon="-1.599748">
				<ele>787</ele>
				<time>2018-04-28T13:35:05Z</time>
			</trkpt>
			<trkpt lat="43.011765" lon="-1.599829">
				<ele>787</ele>
				<time>2018-04-28T13:35:09Z</time>
			</trkpt>
			<trkpt lat="43.011779" lon="-1.599887">
				<ele>787</ele>
				<time>2018-04-28T13:35:13Z</time>
			</trkpt>
			<trkpt lat="43.011796" lon="-1.599974">
				<ele>787</ele>
				<time>2018-04-28T13:35:16Z</time>
			</trkpt>
			<trkpt lat="43.011823" lon="-1.600036">
				<ele>758</ele>
				<time>2018-04-28T13:35:18Z</time>
			</trkpt>
			<trkpt lat="43.011834" lon="-1.600101">
				<ele>758</ele>
				<time>2018-04-28T13:35:20Z</time>
			</trkpt>
			<trkpt lat="43.011863" lon="-1.600175">
				<ele>758</ele>
				<time>2018-04-28T13:35:22Z</time>
			</trkpt>
			<trkpt lat="43.011912" lon="-1.600237">
				<ele>758</ele>
				<time>2018-04-28T13:35:24Z</time>
			</trkpt>
			<trkpt lat="43.011946" lon="-1.600288">
				<ele>758</ele>
				<time>2018-04-28T13:35:26Z</time>
			</trkpt>
			<trkpt lat="43.01197" lon="-1.600342">
				<ele>758</ele>
				<time>2018-04-28T13:35:29Z</time>
			</trkpt>
			<trkpt lat="43.012016" lon="-1.600392">
				<ele>758</ele>
				<time>2018-04-28T13:35:33Z</time>
			</trkpt>
			<trkpt lat="43.012038" lon="-1.600459">
				<ele>758</ele>
				<time>2018-04-28T13:35:36Z</time>
			</trkpt>
			<trkpt lat="43.012065" lon="-1.600509">
				<ele>758</ele>
				<time>2018-04-28T13:35:38Z</time>
			</trkpt>
			<trkpt lat="43.012087" lon="-1.600568">
				<ele>758</ele>
				<time>2018-04-28T13:35:39Z</time>
			</trkpt>
			<trkpt lat="43.012104" lon="-1.600644">
				<ele>758</ele>
				<time>2018-04-28T13:35:41Z</time>
			</trkpt>
			<trkpt lat="43.012121" lon="-1.600712">
				<ele>758</ele>
				<time>2018-04-28T13:35:43Z</time>
			</trkpt>
			<trkpt lat="43.012121" lon="-1.600784">
				<ele>758</ele>
				<time>2018-04-28T13:35:45Z</time>
			</trkpt>
			<trkpt lat="43.012102" lon="-1.60085">
				<ele>758</ele>
				<time>2018-04-28T13:35:47Z</time>
			</trkpt>
			<trkpt lat="43.012073" lon="-1.600917">
				<ele>758</ele>
				<time>2018-04-28T13:35:50Z</time>
			</trkpt>
			<trkpt lat="43.012048" lon="-1.601009">
				<ele>758</ele>
				<time>2018-04-28T13:35:53Z</time>
			</trkpt>
			<trkpt lat="43.012042" lon="-1.601108">
				<ele>758</ele>
				<time>2018-04-28T13:35:55Z</time>
			</trkpt>
			<trkpt lat="43.012019" lon="-1.601193">
				<ele>758</ele>
				<time>2018-04-28T13:35:57Z</time>
			</trkpt>
			<trkpt lat="43.011998" lon="-1.60126">
				<ele>758</ele>
				<time>2018-04-28T13:35:59Z</time>
			</trkpt>
			<trkpt lat="43.011968" lon="-1.601328">
				<ele>758</ele>
				<time>2018-04-28T13:36:01Z</time>
			</trkpt>
			<trkpt lat="43.011931" lon="-1.601402">
				<ele>758</ele>
				<time>2018-04-28T13:36:04Z</time>
			</trkpt>
			<trkpt lat="43.011913" lon="-1.601481">
				<ele>758</ele>
				<time>2018-04-28T13:36:07Z</time>
			</trkpt>
			<trkpt lat="43.011909" lon="-1.601548">
				<ele>758</ele>
				<time>2018-04-28T13:36:11Z</time>
			</trkpt>
			<trkpt lat="43.011887" lon="-1.601617">
				<ele>758</ele>
				<time>2018-04-28T13:36:15Z</time>
			</trkpt>
			<trkpt lat="43.011867" lon="-1.601678">
				<ele>758</ele>
				<time>2018-04-28T13:36:18Z</time>
			</trkpt>
			<trkpt lat="43.011845" lon="-1.601744">
				<ele>758</ele>
				<time>2018-04-28T13:36:22Z</time>
			</trkpt>
			<trkpt lat="43.011832" lon="-1.601818">
				<ele>758</ele>
				<time>2018-04-28T13:36:25Z</time>
			</trkpt>
			<trkpt lat="43.011807" lon="-1.601877">
				<ele>758</ele>
				<time>2018-04-28T13:36:28Z</time>
			</trkpt>
			<trkpt lat="43.011783" lon="-1.601938">
				<ele>758</ele>
				<time>2018-04-28T13:36:30Z</time>
			</trkpt>
			<trkpt lat="43.011748" lon="-1.602027">
				<ele>758</ele>
				<time>2018-04-28T13:36:33Z</time>
			</trkpt>
			<trkpt lat="43.011731" lon="-1.602085">
				<ele>744</ele>
				<time>2018-04-28T13:36:35Z</time>
			</trkpt>
			<trkpt lat="43.011708" lon="-1.602153">
				<ele>744</ele>
				<time>2018-04-28T13:36:38Z</time>
			</trkpt>
			<trkpt lat="43.011684" lon="-1.602212">
				<ele>744</ele>
				<time>2018-04-28T13:36:40Z</time>
			</trkpt>
			<trkpt lat="43.01166" lon="-1.60228">
				<ele>744</ele>
				<time>2018-04-28T13:36:43Z</time>
			</trkpt>
			<trkpt lat="43.01164" lon="-1.602386">
				<ele>744</ele>
				<time>2018-04-28T13:36:45Z</time>
			</trkpt>
			<trkpt lat="43.011623" lon="-1.602472">
				<ele>744</ele>
				<time>2018-04-28T13:36:48Z</time>
			</trkpt>
			<trkpt lat="43.011594" lon="-1.602581">
				<ele>744</ele>
				<time>2018-04-28T13:36:50Z</time>
			</trkpt>
			<trkpt lat="43.011567" lon="-1.602663">
				<ele>744</ele>
				<time>2018-04-28T13:36:53Z</time>
			</trkpt>
			<trkpt lat="43.011569" lon="-1.602731">
				<ele>744</ele>
				<time>2018-04-28T13:36:56Z</time>
			</trkpt>
			<trkpt lat="43.011567" lon="-1.602816">
				<ele>744</ele>
				<time>2018-04-28T13:36:59Z</time>
			</trkpt>
			<trkpt lat="43.011568" lon="-1.60291">
				<ele>744</ele>
				<time>2018-04-28T13:37:02Z</time>
			</trkpt>
			<trkpt lat="43.011596" lon="-1.603006">
				<ele>744</ele>
				<time>2018-04-28T13:37:05Z</time>
			</trkpt>
			<trkpt lat="43.011618" lon="-1.603108">
				<ele>744</ele>
				<time>2018-04-28T13:37:07Z</time>
			</trkpt>
			<trkpt lat="43.011613" lon="-1.60318">
				<ele>744</ele>
				<time>2018-04-28T13:37:09Z</time>
			</trkpt>
			<trkpt lat="43.011619" lon="-1.603274">
				<ele>744</ele>
				<time>2018-04-28T13:37:12Z</time>
			</trkpt>
			<trkpt lat="43.011608" lon="-1.603377">
				<ele>744</ele>
				<time>2018-04-28T13:37:15Z</time>
			</trkpt>
			<trkpt lat="43.01159" lon="-1.603438">
				<ele>744</ele>
				<time>2018-04-28T13:37:17Z</time>
			</trkpt>
			<trkpt lat="43.01157" lon="-1.60352">
				<ele>744</ele>
				<time>2018-04-28T13:37:20Z</time>
			</trkpt>
			<trkpt lat="43.011564" lon="-1.603588">
				<ele>744</ele>
				<time>2018-04-28T13:37:22Z</time>
			</trkpt>
			<trkpt lat="43.011556" lon="-1.603676">
				<ele>744</ele>
				<time>2018-04-28T13:37:25Z</time>
			</trkpt>
			<trkpt lat="43.011539" lon="-1.603773">
				<ele>744</ele>
				<time>2018-04-28T13:37:28Z</time>
			</trkpt>
			<trkpt lat="43.011528" lon="-1.603875">
				<ele>744</ele>
				<time>2018-04-28T13:37:31Z</time>
			</trkpt>
			<trkpt lat="43.011517" lon="-1.603936">
				<ele>744</ele>
				<time>2018-04-28T13:37:33Z</time>
			</trkpt>
			<trkpt lat="43.011487" lon="-1.603996">
				<ele>744</ele>
				<time>2018-04-28T13:37:35Z</time>
			</trkpt>
			<trkpt lat="43.011477" lon="-1.604067">
				<ele>744</ele>
				<time>2018-04-28T13:37:38Z</time>
			</trkpt>
			<trkpt lat="43.01145" lon="-1.604141">
				<ele>744</ele>
				<time>2018-04-28T13:37:41Z</time>
			</trkpt>
			<trkpt lat="43.011433" lon="-1.604235">
				<ele>712</ele>
				<time>2018-04-28T13:37:43Z</time>
			</trkpt>
			<trkpt lat="43.011425" lon="-1.604324">
				<ele>712</ele>
				<time>2018-04-28T13:37:45Z</time>
			</trkpt>
			<trkpt lat="43.011406" lon="-1.604385">
				<ele>712</ele>
				<time>2018-04-28T13:37:47Z</time>
			</trkpt>
			<trkpt lat="43.011409" lon="-1.604462">
				<ele>712</ele>
				<time>2018-04-28T13:37:51Z</time>
			</trkpt>
			<trkpt lat="43.011435" lon="-1.604521">
				<ele>712</ele>
				<time>2018-04-28T13:37:53Z</time>
			</trkpt>
			<trkpt lat="43.011454" lon="-1.604597">
				<ele>712</ele>
				<time>2018-04-28T13:37:56Z</time>
			</trkpt>
			<trkpt lat="43.011466" lon="-1.6047">
				<ele>712</ele>
				<time>2018-04-28T13:37:58Z</time>
			</trkpt>
			<trkpt lat="43.011458" lon="-1.604776">
				<ele>712</ele>
				<time>2018-04-28T13:38:00Z</time>
			</trkpt>
			<trkpt lat="43.011443" lon="-1.60484">
				<ele>712</ele>
				<time>2018-04-28T13:38:02Z</time>
			</trkpt>
			<trkpt lat="43.011485" lon="-1.604906">
				<ele>712</ele>
				<time>2018-04-28T13:38:05Z</time>
			</trkpt>
			<trkpt lat="43.01151" lon="-1.604972">
				<ele>712</ele>
				<time>2018-04-28T13:38:10Z</time>
			</trkpt>
			<trkpt lat="43.011523" lon="-1.605036">
				<ele>712</ele>
				<time>2018-04-28T13:38:18Z</time>
			</trkpt>
			<trkpt lat="43.011571" lon="-1.605059">
				<ele>712</ele>
				<time>2018-04-28T13:38:21Z</time>
			</trkpt>
			<trkpt lat="43.011607" lon="-1.605099">
				<ele>712</ele>
				<time>2018-04-28T13:38:24Z</time>
			</trkpt>
			<trkpt lat="43.011632" lon="-1.605161">
				<ele>712</ele>
				<time>2018-04-28T13:38:28Z</time>
			</trkpt>
			<trkpt lat="43.011643" lon="-1.605222">
				<ele>712</ele>
				<time>2018-04-28T13:38:31Z</time>
			</trkpt>
			<trkpt lat="43.011627" lon="-1.605284">
				<ele>712</ele>
				<time>2018-04-28T13:38:33Z</time>
			</trkpt>
			<trkpt lat="43.011616" lon="-1.605377">
				<ele>712</ele>
				<time>2018-04-28T13:38:35Z</time>
			</trkpt>
			<trkpt lat="43.011599" lon="-1.605441">
				<ele>712</ele>
				<time>2018-04-28T13:38:37Z</time>
			</trkpt>
			<trkpt lat="43.011588" lon="-1.605531">
				<ele>712</ele>
				<time>2018-04-28T13:38:40Z</time>
			</trkpt>
			<trkpt lat="43.011584" lon="-1.605617">
				<ele>712</ele>
				<time>2018-04-28T13:38:43Z</time>
			</trkpt>
			<trkpt lat="43.011581" lon="-1.605696">
				<ele>712</ele>
				<time>2018-04-28T13:38:45Z</time>
			</trkpt>
			<trkpt lat="43.011596" lon="-1.605776">
				<ele>712</ele>
				<time>2018-04-28T13:38:47Z</time>
			</trkpt>
			<trkpt lat="43.011614" lon="-1.605859">
				<ele>712</ele>
				<time>2018-04-28T13:38:51Z</time>
			</trkpt>
			<trkpt lat="43.011633" lon="-1.605922">
				<ele>712</ele>
				<time>2018-04-28T13:38:54Z</time>
			</trkpt>
			<trkpt lat="43.01164" lon="-1.60599">
				<ele>712</ele>
				<time>2018-04-28T13:38:57Z</time>
			</trkpt>
			<trkpt lat="43.011642" lon="-1.606062">
				<ele>712</ele>
				<time>2018-04-28T13:39:00Z</time>
			</trkpt>
			<trkpt lat="43.011645" lon="-1.606135">
				<ele>712</ele>
				<time>2018-04-28T13:39:03Z</time>
			</trkpt>
			<trkpt lat="43.011658" lon="-1.606208">
				<ele>712</ele>
				<time>2018-04-28T13:39:06Z</time>
			</trkpt>
			<trkpt lat="43.011672" lon="-1.606276">
				<ele>710</ele>
				<time>2018-04-28T13:39:11Z</time>
			</trkpt>
			<trkpt lat="43.011691" lon="-1.60635">
				<ele>710</ele>
				<time>2018-04-28T13:39:15Z</time>
			</trkpt>
			<trkpt lat="43.011714" lon="-1.606416">
				<ele>710</ele>
				<time>2018-04-28T13:39:21Z</time>
			</trkpt>
			<trkpt lat="43.011761" lon="-1.606452">
				<ele>710</ele>
				<time>2018-04-28T13:39:32Z</time>
			</trkpt>
			<trkpt lat="43.0118" lon="-1.606503">
				<ele>710</ele>
				<time>2018-04-28T13:39:36Z</time>
			</trkpt>
			<trkpt lat="43.011819" lon="-1.606569">
				<ele>710</ele>
				<time>2018-04-28T13:39:41Z</time>
			</trkpt>
			<trkpt lat="43.011843" lon="-1.606631">
				<ele>710</ele>
				<time>2018-04-28T13:39:45Z</time>
			</trkpt>
			<trkpt lat="43.011862" lon="-1.606695">
				<ele>710</ele>
				<time>2018-04-28T13:39:48Z</time>
			</trkpt>
			<trkpt lat="43.011858" lon="-1.606765">
				<ele>710</ele>
				<time>2018-04-28T13:39:50Z</time>
			</trkpt>
			<trkpt lat="43.01186" lon="-1.606852">
				<ele>710</ele>
				<time>2018-04-28T13:39:53Z</time>
			</trkpt>
			<trkpt lat="43.011856" lon="-1.606936">
				<ele>710</ele>
				<time>2018-04-28T13:39:57Z</time>
			</trkpt>
			<trkpt lat="43.01184" lon="-1.606995">
				<ele>710</ele>
				<time>2018-04-28T13:40:00Z</time>
			</trkpt>
			<trkpt lat="43.011825" lon="-1.607056">
				<ele>710</ele>
				<time>2018-04-28T13:40:03Z</time>
			</trkpt>
			<trkpt lat="43.011814" lon="-1.607124">
				<ele>710</ele>
				<time>2018-04-28T13:40:05Z</time>
			</trkpt>
			<trkpt lat="43.01181" lon="-1.60719">
				<ele>710</ele>
				<time>2018-04-28T13:40:08Z</time>
			</trkpt>
			<trkpt lat="43.0118" lon="-1.607251">
				<ele>710</ele>
				<time>2018-04-28T13:40:11Z</time>
			</trkpt>
			<trkpt lat="43.01178" lon="-1.607322">
				<ele>710</ele>
				<time>2018-04-28T13:40:14Z</time>
			</trkpt>
			<trkpt lat="43.011773" lon="-1.607392">
				<ele>710</ele>
				<time>2018-04-28T13:40:19Z</time>
			</trkpt>
			<trkpt lat="43.011763" lon="-1.607455">
				<ele>710</ele>
				<time>2018-04-28T13:40:21Z</time>
			</trkpt>
			<trkpt lat="43.011747" lon="-1.607517">
				<ele>710</ele>
				<time>2018-04-28T13:40:24Z</time>
			</trkpt>
			<trkpt lat="43.01173" lon="-1.607581">
				<ele>710</ele>
				<time>2018-04-28T13:40:26Z</time>
			</trkpt>
			<trkpt lat="43.011724" lon="-1.607644">
				<ele>710</ele>
				<time>2018-04-28T13:40:29Z</time>
			</trkpt>
			<trkpt lat="43.011714" lon="-1.607719">
				<ele>710</ele>
				<time>2018-04-28T13:40:33Z</time>
			</trkpt>
			<trkpt lat="43.011727" lon="-1.60778">
				<ele>710</ele>
				<time>2018-04-28T13:40:36Z</time>
			</trkpt>
			<trkpt lat="43.011726" lon="-1.607868">
				<ele>710</ele>
				<time>2018-04-28T13:40:40Z</time>
			</trkpt>
			<trkpt lat="43.011708" lon="-1.607942">
				<ele>710</ele>
				<time>2018-04-28T13:40:44Z</time>
			</trkpt>
			<trkpt lat="43.011687" lon="-1.608036">
				<ele>710</ele>
				<time>2018-04-28T13:40:47Z</time>
			</trkpt>
			<trkpt lat="43.01166" lon="-1.608104">
				<ele>710</ele>
				<time>2018-04-28T13:40:50Z</time>
			</trkpt>
			<trkpt lat="43.011633" lon="-1.608154">
				<ele>710</ele>
				<time>2018-04-28T13:40:53Z</time>
			</trkpt>
			<trkpt lat="43.011598" lon="-1.608202">
				<ele>710</ele>
				<time>2018-04-28T13:40:58Z</time>
			</trkpt>
			<trkpt lat="43.011562" lon="-1.60827">
				<ele>710</ele>
				<time>2018-04-28T13:41:01Z</time>
			</trkpt>
			<trkpt lat="43.011517" lon="-1.608343">
				<ele>697</ele>
				<time>2018-04-28T13:41:04Z</time>
			</trkpt>
			<trkpt lat="43.011487" lon="-1.608394">
				<ele>697</ele>
				<time>2018-04-28T13:41:06Z</time>
			</trkpt>
			<trkpt lat="43.011452" lon="-1.608466">
				<ele>697</ele>
				<time>2018-04-28T13:41:09Z</time>
			</trkpt>
			<trkpt lat="43.011397" lon="-1.608522">
				<ele>697</ele>
				<time>2018-04-28T13:41:11Z</time>
			</trkpt>
			<trkpt lat="43.011364" lon="-1.6086">
				<ele>697</ele>
				<time>2018-04-28T13:41:13Z</time>
			</trkpt>
			<trkpt lat="43.011313" lon="-1.608643">
				<ele>697</ele>
				<time>2018-04-28T13:41:16Z</time>
			</trkpt>
			<trkpt lat="43.011266" lon="-1.608708">
				<ele>697</ele>
				<time>2018-04-28T13:41:18Z</time>
			</trkpt>
			<trkpt lat="43.011213" lon="-1.608752">
				<ele>697</ele>
				<time>2018-04-28T13:41:21Z</time>
			</trkpt>
			<trkpt lat="43.011166" lon="-1.608792">
				<ele>697</ele>
				<time>2018-04-28T13:41:23Z</time>
			</trkpt>
			<trkpt lat="43.011121" lon="-1.608828">
				<ele>697</ele>
				<time>2018-04-28T13:41:26Z</time>
			</trkpt>
			<trkpt lat="43.011073" lon="-1.608853">
				<ele>697</ele>
				<time>2018-04-28T13:41:28Z</time>
			</trkpt>
			<trkpt lat="43.011034" lon="-1.608887">
				<ele>697</ele>
				<time>2018-04-28T13:41:30Z</time>
			</trkpt>
			<trkpt lat="43.010989" lon="-1.608952">
				<ele>697</ele>
				<time>2018-04-28T13:41:32Z</time>
			</trkpt>
			<trkpt lat="43.010942" lon="-1.60899">
				<ele>697</ele>
				<time>2018-04-28T13:41:34Z</time>
			</trkpt>
			<trkpt lat="43.010897" lon="-1.609031">
				<ele>697</ele>
				<time>2018-04-28T13:41:36Z</time>
			</trkpt>
			<trkpt lat="43.010844" lon="-1.609077">
				<ele>697</ele>
				<time>2018-04-28T13:41:39Z</time>
			</trkpt>
			<trkpt lat="43.010789" lon="-1.60913">
				<ele>697</ele>
				<time>2018-04-28T13:41:41Z</time>
			</trkpt>
			<trkpt lat="43.010748" lon="-1.609192">
				<ele>697</ele>
				<time>2018-04-28T13:41:43Z</time>
			</trkpt>
			<trkpt lat="43.010721" lon="-1.609254">
				<ele>697</ele>
				<time>2018-04-28T13:41:45Z</time>
			</trkpt>
			<trkpt lat="43.010692" lon="-1.609315">
				<ele>697</ele>
				<time>2018-04-28T13:41:47Z</time>
			</trkpt>
			<trkpt lat="43.010655" lon="-1.60937">
				<ele>697</ele>
				<time>2018-04-28T13:41:49Z</time>
			</trkpt>
			<trkpt lat="43.01063" lon="-1.609426">
				<ele>697</ele>
				<time>2018-04-28T13:41:51Z</time>
			</trkpt>
			<trkpt lat="43.010589" lon="-1.609478">
				<ele>697</ele>
				<time>2018-04-28T13:41:53Z</time>
			</trkpt>
			<trkpt lat="43.010536" lon="-1.60953">
				<ele>697</ele>
				<time>2018-04-28T13:41:56Z</time>
			</trkpt>
			<trkpt lat="43.010497" lon="-1.609605">
				<ele>697</ele>
				<time>2018-04-28T13:41:58Z</time>
			</trkpt>
			<trkpt lat="43.010442" lon="-1.609627">
				<ele>697</ele>
				<time>2018-04-28T13:42:01Z</time>
			</trkpt>
			<trkpt lat="43.010397" lon="-1.609662">
				<ele>714</ele>
				<time>2018-04-28T13:42:03Z</time>
			</trkpt>
			<trkpt lat="43.010358" lon="-1.609697">
				<ele>714</ele>
				<time>2018-04-28T13:42:09Z</time>
			</trkpt>
			<trkpt lat="43.010314" lon="-1.609727">
				<ele>714</ele>
				<time>2018-04-28T13:42:12Z</time>
			</trkpt>
			<trkpt lat="43.010274" lon="-1.609769">
				<ele>714</ele>
				<time>2018-04-28T13:42:15Z</time>
			</trkpt>
			<trkpt lat="43.010229" lon="-1.609783">
				<ele>714</ele>
				<time>2018-04-28T13:42:18Z</time>
			</trkpt>
			<trkpt lat="43.010182" lon="-1.609805">
				<ele>714</ele>
				<time>2018-04-28T13:42:21Z</time>
			</trkpt>
			<trkpt lat="43.010132" lon="-1.609803">
				<ele>714</ele>
				<time>2018-04-28T13:42:23Z</time>
			</trkpt>
			<trkpt lat="43.010057" lon="-1.609815">
				<ele>714</ele>
				<time>2018-04-28T13:42:26Z</time>
			</trkpt>
			<trkpt lat="43.010007" lon="-1.609844">
				<ele>714</ele>
				<time>2018-04-28T13:42:28Z</time>
			</trkpt>
			<trkpt lat="43.009968" lon="-1.609923">
				<ele>714</ele>
				<time>2018-04-28T13:42:30Z</time>
			</trkpt>
			<trkpt lat="43.009931" lon="-1.609991">
				<ele>714</ele>
				<time>2018-04-28T13:42:32Z</time>
			</trkpt>
			<trkpt lat="43.009881" lon="-1.610047">
				<ele>714</ele>
				<time>2018-04-28T13:42:34Z</time>
			</trkpt>
			<trkpt lat="43.009822" lon="-1.610093">
				<ele>714</ele>
				<time>2018-04-28T13:42:36Z</time>
			</trkpt>
			<trkpt lat="43.009753" lon="-1.61013">
				<ele>714</ele>
				<time>2018-04-28T13:42:38Z</time>
			</trkpt>
			<trkpt lat="43.009709" lon="-1.610192">
				<ele>714</ele>
				<time>2018-04-28T13:42:40Z</time>
			</trkpt>
			<trkpt lat="43.009674" lon="-1.610233">
				<ele>714</ele>
				<time>2018-04-28T13:42:42Z</time>
			</trkpt>
			<trkpt lat="43.009648" lon="-1.610295">
				<ele>714</ele>
				<time>2018-04-28T13:42:44Z</time>
			</trkpt>
			<trkpt lat="43.009621" lon="-1.610348">
				<ele>714</ele>
				<time>2018-04-28T13:42:46Z</time>
			</trkpt>
			<trkpt lat="43.009578" lon="-1.610422">
				<ele>697</ele>
				<time>2018-04-28T13:42:48Z</time>
			</trkpt>
			<trkpt lat="43.009534" lon="-1.610483">
				<ele>697</ele>
				<time>2018-04-28T13:42:51Z</time>
			</trkpt>
			<trkpt lat="43.009497" lon="-1.610534">
				<ele>697</ele>
				<time>2018-04-28T13:42:53Z</time>
			</trkpt>
			<trkpt lat="43.00946" lon="-1.610586">
				<ele>697</ele>
				<time>2018-04-28T13:42:55Z</time>
			</trkpt>
			<trkpt lat="43.009432" lon="-1.610638">
				<ele>697</ele>
				<time>2018-04-28T13:42:56Z</time>
			</trkpt>
			<trkpt lat="43.009386" lon="-1.610692">
				<ele>697</ele>
				<time>2018-04-28T13:42:58Z</time>
			</trkpt>
			<trkpt lat="43.009343" lon="-1.610752">
				<ele>697</ele>
				<time>2018-04-28T13:43:00Z</time>
			</trkpt>
			<trkpt lat="43.009299" lon="-1.610812">
				<ele>697</ele>
				<time>2018-04-28T13:43:02Z</time>
			</trkpt>
			<trkpt lat="43.009277" lon="-1.610867">
				<ele>697</ele>
				<time>2018-04-28T13:43:04Z</time>
			</trkpt>
			<trkpt lat="43.00925" lon="-1.610926">
				<ele>697</ele>
				<time>2018-04-28T13:43:06Z</time>
			</trkpt>
			<trkpt lat="43.009218" lon="-1.610985">
				<ele>697</ele>
				<time>2018-04-28T13:43:08Z</time>
			</trkpt>
			<trkpt lat="43.009184" lon="-1.611032">
				<ele>697</ele>
				<time>2018-04-28T13:43:10Z</time>
			</trkpt>
			<trkpt lat="43.009136" lon="-1.611088">
				<ele>697</ele>
				<time>2018-04-28T13:43:12Z</time>
			</trkpt>
			<trkpt lat="43.009083" lon="-1.611137">
				<ele>697</ele>
				<time>2018-04-28T13:43:14Z</time>
			</trkpt>
			<trkpt lat="43.009036" lon="-1.611178">
				<ele>697</ele>
				<time>2018-04-28T13:43:16Z</time>
			</trkpt>
			<trkpt lat="43.008989" lon="-1.611234">
				<ele>697</ele>
				<time>2018-04-28T13:43:18Z</time>
			</trkpt>
			<trkpt lat="43.008948" lon="-1.611296">
				<ele>697</ele>
				<time>2018-04-28T13:43:20Z</time>
			</trkpt>
			<trkpt lat="43.008887" lon="-1.611309">
				<ele>697</ele>
				<time>2018-04-28T13:43:23Z</time>
			</trkpt>
			<trkpt lat="43.008836" lon="-1.611327">
				<ele>697</ele>
				<time>2018-04-28T13:43:25Z</time>
			</trkpt>
			<trkpt lat="43.008791" lon="-1.611383">
				<ele>697</ele>
				<time>2018-04-28T13:43:27Z</time>
			</trkpt>
			<trkpt lat="43.008749" lon="-1.611429">
				<ele>697</ele>
				<time>2018-04-28T13:43:29Z</time>
			</trkpt>
			<trkpt lat="43.008713" lon="-1.611491">
				<ele>697</ele>
				<time>2018-04-28T13:43:31Z</time>
			</trkpt>
			<trkpt lat="43.008679" lon="-1.611566">
				<ele>697</ele>
				<time>2018-04-28T13:43:33Z</time>
			</trkpt>
			<trkpt lat="43.008646" lon="-1.611622">
				<ele>697</ele>
				<time>2018-04-28T13:43:35Z</time>
			</trkpt>
			<trkpt lat="43.008621" lon="-1.611682">
				<ele>697</ele>
				<time>2018-04-28T13:43:37Z</time>
			</trkpt>
			<trkpt lat="43.00858" lon="-1.611732">
				<ele>697</ele>
				<time>2018-04-28T13:43:39Z</time>
			</trkpt>
			<trkpt lat="43.008526" lon="-1.611767">
				<ele>697</ele>
				<time>2018-04-28T13:43:41Z</time>
			</trkpt>
			<trkpt lat="43.008477" lon="-1.611813">
				<ele>697</ele>
				<time>2018-04-28T13:43:43Z</time>
			</trkpt>
			<trkpt lat="43.008422" lon="-1.611844">
				<ele>697</ele>
				<time>2018-04-28T13:43:45Z</time>
			</trkpt>
			<trkpt lat="43.008369" lon="-1.611884">
				<ele>697</ele>
				<time>2018-04-28T13:43:47Z</time>
			</trkpt>
			<trkpt lat="43.008322" lon="-1.611911">
				<ele>670</ele>
				<time>2018-04-28T13:43:49Z</time>
			</trkpt>
			<trkpt lat="43.008266" lon="-1.611919">
				<ele>670</ele>
				<time>2018-04-28T13:43:51Z</time>
			</trkpt>
			<trkpt lat="43.008198" lon="-1.611949">
				<ele>670</ele>
				<time>2018-04-28T13:43:53Z</time>
			</trkpt>
			<trkpt lat="43.008143" lon="-1.611966">
				<ele>670</ele>
				<time>2018-04-28T13:43:55Z</time>
			</trkpt>
			<trkpt lat="43.008107" lon="-1.61202">
				<ele>670</ele>
				<time>2018-04-28T13:43:57Z</time>
			</trkpt>
			<trkpt lat="43.008051" lon="-1.612076">
				<ele>670</ele>
				<time>2018-04-28T13:43:59Z</time>
			</trkpt>
			<trkpt lat="43.008002" lon="-1.612101">
				<ele>670</ele>
				<time>2018-04-28T13:44:01Z</time>
			</trkpt>
			<trkpt lat="43.007962" lon="-1.612138">
				<ele>670</ele>
				<time>2018-04-28T13:44:03Z</time>
			</trkpt>
			<trkpt lat="43.007923" lon="-1.612174">
				<ele>670</ele>
				<time>2018-04-28T13:44:05Z</time>
			</trkpt>
			<trkpt lat="43.007884" lon="-1.612207">
				<ele>670</ele>
				<time>2018-04-28T13:44:07Z</time>
			</trkpt>
			<trkpt lat="43.007843" lon="-1.612237">
				<ele>670</ele>
				<time>2018-04-28T13:44:09Z</time>
			</trkpt>
			<trkpt lat="43.007795" lon="-1.61226">
				<ele>670</ele>
				<time>2018-04-28T13:44:11Z</time>
			</trkpt>
			<trkpt lat="43.007735" lon="-1.612294">
				<ele>670</ele>
				<time>2018-04-28T13:44:13Z</time>
			</trkpt>
			<trkpt lat="43.007685" lon="-1.6123">
				<ele>670</ele>
				<time>2018-04-28T13:44:15Z</time>
			</trkpt>
			<trkpt lat="43.007625" lon="-1.612324">
				<ele>670</ele>
				<time>2018-04-28T13:44:18Z</time>
			</trkpt>
			<trkpt lat="43.00758" lon="-1.612342">
				<ele>670</ele>
				<time>2018-04-28T13:44:20Z</time>
			</trkpt>
			<trkpt lat="43.007533" lon="-1.612348">
				<ele>670</ele>
				<time>2018-04-28T13:44:22Z</time>
			</trkpt>
			<trkpt lat="43.007488" lon="-1.612364">
				<ele>670</ele>
				<time>2018-04-28T13:44:24Z</time>
			</trkpt>
			<trkpt lat="43.007426" lon="-1.612345">
				<ele>670</ele>
				<time>2018-04-28T13:44:27Z</time>
			</trkpt>
			<trkpt lat="43.007364" lon="-1.61231">
				<ele>670</ele>
				<time>2018-04-28T13:44:30Z</time>
			</trkpt>
			<trkpt lat="43.007312" lon="-1.612299">
				<ele>670</ele>
				<time>2018-04-28T13:44:32Z</time>
			</trkpt>
			<trkpt lat="43.007266" lon="-1.612278">
				<ele>670</ele>
				<time>2018-04-28T13:44:34Z</time>
			</trkpt>
			<trkpt lat="43.007202" lon="-1.612288">
				<ele>670</ele>
				<time>2018-04-28T13:44:36Z</time>
			</trkpt>
			<trkpt lat="43.007153" lon="-1.612299">
				<ele>670</ele>
				<time>2018-04-28T13:44:38Z</time>
			</trkpt>
			<trkpt lat="43.007107" lon="-1.612308">
				<ele>670</ele>
				<time>2018-04-28T13:44:40Z</time>
			</trkpt>
			<trkpt lat="43.007045" lon="-1.612305">
				<ele>670</ele>
				<time>2018-04-28T13:44:43Z</time>
			</trkpt>
			<trkpt lat="43.006991" lon="-1.612344">
				<ele>670</ele>
				<time>2018-04-28T13:44:46Z</time>
			</trkpt>
			<trkpt lat="43.006949" lon="-1.61239">
				<ele>670</ele>
				<time>2018-04-28T13:44:50Z</time>
			</trkpt>
			<trkpt lat="43.006887" lon="-1.612412">
				<ele>670</ele>
				<time>2018-04-28T13:44:53Z</time>
			</trkpt>
			<trkpt lat="43.006824" lon="-1.612428">
				<ele>670</ele>
				<time>2018-04-28T13:44:55Z</time>
			</trkpt>
			<trkpt lat="43.006772" lon="-1.612423">
				<ele>670</ele>
				<time>2018-04-28T13:44:57Z</time>
			</trkpt>
			<trkpt lat="43.006712" lon="-1.612455">
				<ele>670</ele>
				<time>2018-04-28T13:44:59Z</time>
			</trkpt>
			<trkpt lat="43.006649" lon="-1.612468">
				<ele>670</ele>
				<time>2018-04-28T13:45:01Z</time>
			</trkpt>
			<trkpt lat="43.006586" lon="-1.612493">
				<ele>670</ele>
				<time>2018-04-28T13:45:03Z</time>
			</trkpt>
			<trkpt lat="43.006532" lon="-1.612496">
				<ele>670</ele>
				<time>2018-04-28T13:45:05Z</time>
			</trkpt>
			<trkpt lat="43.00648" lon="-1.612495">
				<ele>670</ele>
				<time>2018-04-28T13:45:07Z</time>
			</trkpt>
			<trkpt lat="43.006422" lon="-1.612484">
				<ele>670</ele>
				<time>2018-04-28T13:45:09Z</time>
			</trkpt>
			<trkpt lat="43.006369" lon="-1.612468">
				<ele>670</ele>
				<time>2018-04-28T13:45:12Z</time>
			</trkpt>
			<trkpt lat="43.006321" lon="-1.612414">
				<ele>670</ele>
				<time>2018-04-28T13:45:15Z</time>
			</trkpt>
			<trkpt lat="43.006258" lon="-1.612354">
				<ele>670</ele>
				<time>2018-04-28T13:45:18Z</time>
			</trkpt>
			<trkpt lat="43.006172" lon="-1.612325">
				<ele>685</ele>
				<time>2018-04-28T13:45:20Z</time>
			</trkpt>
			<trkpt lat="43.006125" lon="-1.612302">
				<ele>685</ele>
				<time>2018-04-28T13:45:22Z</time>
			</trkpt>
			<trkpt lat="43.006079" lon="-1.612257">
				<ele>685</ele>
				<time>2018-04-28T13:45:25Z</time>
			</trkpt>
			<trkpt lat="43.006031" lon="-1.612224">
				<ele>685</ele>
				<time>2018-04-28T13:45:28Z</time>
			</trkpt>
			<trkpt lat="43.00601" lon="-1.612153">
				<ele>685</ele>
				<time>2018-04-28T13:45:32Z</time>
			</trkpt>
			<trkpt lat="43.005999" lon="-1.612089">
				<ele>685</ele>
				<time>2018-04-28T13:45:37Z</time>
			</trkpt>
			<trkpt lat="43.005963" lon="-1.612023">
				<ele>685</ele>
				<time>2018-04-28T13:45:44Z</time>
			</trkpt>
			<trkpt lat="43.005922" lon="-1.611964">
				<ele>685</ele>
				<time>2018-04-28T13:45:47Z</time>
			</trkpt>
			<trkpt lat="43.005867" lon="-1.611902">
				<ele>685</ele>
				<time>2018-04-28T13:45:50Z</time>
			</trkpt>
			<trkpt lat="43.005842" lon="-1.611849">
				<ele>685</ele>
				<time>2018-04-28T13:45:53Z</time>
			</trkpt>
			<trkpt lat="43.005808" lon="-1.611782">
				<ele>685</ele>
				<time>2018-04-28T13:45:59Z</time>
			</trkpt>
			<trkpt lat="43.005794" lon="-1.611719">
				<ele>685</ele>
				<time>2018-04-28T13:46:03Z</time>
			</trkpt>
			<trkpt lat="43.005791" lon="-1.611634">
				<ele>685</ele>
				<time>2018-04-28T13:46:09Z</time>
			</trkpt>
			<trkpt lat="43.005776" lon="-1.611564">
				<ele>685</ele>
				<time>2018-04-28T13:46:12Z</time>
			</trkpt>
			<trkpt lat="43.00578" lon="-1.611499">
				<ele>685</ele>
				<time>2018-04-28T13:46:16Z</time>
			</trkpt>
			<trkpt lat="43.0058" lon="-1.611436">
				<ele>685</ele>
				<time>2018-04-28T13:46:20Z</time>
			</trkpt>
			<trkpt lat="43.00583" lon="-1.611389">
				<ele>685</ele>
				<time>2018-04-28T13:46:24Z</time>
			</trkpt>
			<trkpt lat="43.005856" lon="-1.611324">
				<ele>685</ele>
				<time>2018-04-28T13:46:29Z</time>
			</trkpt>
			<trkpt lat="43.005894" lon="-1.611269">
				<ele>685</ele>
				<time>2018-04-28T13:46:36Z</time>
			</trkpt>
			<trkpt lat="43.005924" lon="-1.611219">
				<ele>685</ele>
				<time>2018-04-28T13:46:40Z</time>
			</trkpt>
			<trkpt lat="43.00596" lon="-1.611181">
				<ele>685</ele>
				<time>2018-04-28T13:46:44Z</time>
			</trkpt>
			<trkpt lat="43.005997" lon="-1.611135">
				<ele>685</ele>
				<time>2018-04-28T13:46:51Z</time>
			</trkpt>
			<trkpt lat="43.006004" lon="-1.611069">
				<ele>685</ele>
				<time>2018-04-28T13:46:55Z</time>
			</trkpt>
			<trkpt lat="43.006007" lon="-1.611">
				<ele>685</ele>
				<time>2018-04-28T13:46:59Z</time>
			</trkpt>
			<trkpt lat="43.006038" lon="-1.610953">
				<ele>685</ele>
				<time>2018-04-28T13:47:03Z</time>
			</trkpt>
			<trkpt lat="43.006092" lon="-1.610908">
				<ele>685</ele>
				<time>2018-04-28T13:47:07Z</time>
			</trkpt>
			<trkpt lat="43.006131" lon="-1.610865">
				<ele>685</ele>
				<time>2018-04-28T13:47:10Z</time>
			</trkpt>
			<trkpt lat="43.006161" lon="-1.610811">
				<ele>685</ele>
				<time>2018-04-28T13:47:14Z</time>
			</trkpt>
			<trkpt lat="43.006186" lon="-1.610743">
				<ele>685</ele>
				<time>2018-04-28T13:47:18Z</time>
			</trkpt>
			<trkpt lat="43.006209" lon="-1.61069">
				<ele>685</ele>
				<time>2018-04-28T13:47:22Z</time>
			</trkpt>
			<trkpt lat="43.006244" lon="-1.610637">
				<ele>685</ele>
				<time>2018-04-28T13:47:27Z</time>
			</trkpt>
			<trkpt lat="43.006274" lon="-1.610578">
				<ele>670</ele>
				<time>2018-04-28T13:47:33Z</time>
			</trkpt>
			<trkpt lat="43.006284" lon="-1.610509">
				<ele>670</ele>
				<time>2018-04-28T13:47:38Z</time>
			</trkpt>
			<trkpt lat="43.00628" lon="-1.610441">
				<ele>670</ele>
				<time>2018-04-28T13:47:43Z</time>
			</trkpt>
			<trkpt lat="43.006305" lon="-1.610384">
				<ele>728</ele>
				<time>2018-04-28T13:47:49Z</time>
			</trkpt>
			<trkpt lat="43.006323" lon="-1.610327">
				<ele>728</ele>
				<time>2018-04-28T13:47:55Z</time>
			</trkpt>
			<trkpt lat="43.006331" lon="-1.610252">
				<ele>728</ele>
				<time>2018-04-28T13:48:01Z</time>
			</trkpt>
			<trkpt lat="43.006314" lon="-1.610187">
				<ele>728</ele>
				<time>2018-04-28T13:48:07Z</time>
			</trkpt>
			<trkpt lat="43.006296" lon="-1.61013">
				<ele>728</ele>
				<time>2018-04-28T13:48:14Z</time>
			</trkpt>
			<trkpt lat="43.006301" lon="-1.610057">
				<ele>728</ele>
				<time>2018-04-28T13:48:25Z</time>
			</trkpt>
			<trkpt lat="43.006292" lon="-1.609993">
				<ele>728</ele>
				<time>2018-04-28T13:48:29Z</time>
			</trkpt>
			<trkpt lat="43.006291" lon="-1.609921">
				<ele>728</ele>
				<time>2018-04-28T13:48:33Z</time>
			</trkpt>
			<trkpt lat="43.006301" lon="-1.60986">
				<ele>728</ele>
				<time>2018-04-28T13:48:36Z</time>
			</trkpt>
			<trkpt lat="43.006289" lon="-1.609799">
				<ele>728</ele>
				<time>2018-04-28T13:48:42Z</time>
			</trkpt>
			<trkpt lat="43.006276" lon="-1.60974">
				<ele>728</ele>
				<time>2018-04-28T13:48:47Z</time>
			</trkpt>
			<trkpt lat="43.006286" lon="-1.609663">
				<ele>728</ele>
				<time>2018-04-28T13:48:55Z</time>
			</trkpt>
			<trkpt lat="43.00629" lon="-1.60959">
				<ele>728</ele>
				<time>2018-04-28T13:49:00Z</time>
			</trkpt>
			<trkpt lat="43.006281" lon="-1.609529">
				<ele>728</ele>
				<time>2018-04-28T13:49:04Z</time>
			</trkpt>
			<trkpt lat="43.00628" lon="-1.609453">
				<ele>728</ele>
				<time>2018-04-28T13:49:09Z</time>
			</trkpt>
			<trkpt lat="43.006295" lon="-1.60939">
				<ele>728</ele>
				<time>2018-04-28T13:49:12Z</time>
			</trkpt>
			<trkpt lat="43.006299" lon="-1.60931">
				<ele>728</ele>
				<time>2018-04-28T13:49:17Z</time>
			</trkpt>
			<trkpt lat="43.006313" lon="-1.609247">
				<ele>728</ele>
				<time>2018-04-28T13:49:22Z</time>
			</trkpt>
			<trkpt lat="43.006305" lon="-1.609181">
				<ele>728</ele>
				<time>2018-04-28T13:49:29Z</time>
			</trkpt>
			<trkpt lat="43.006341" lon="-1.609135">
				<ele>728</ele>
				<time>2018-04-28T13:49:34Z</time>
			</trkpt>
			<trkpt lat="43.006359" lon="-1.609068">
				<ele>728</ele>
				<time>2018-04-28T13:49:37Z</time>
			</trkpt>
			<trkpt lat="43.006372" lon="-1.609002">
				<ele>728</ele>
				<time>2018-04-28T13:49:44Z</time>
			</trkpt>
			<trkpt lat="43.00637" lon="-1.608932">
				<ele>728</ele>
				<time>2018-04-28T13:49:48Z</time>
			</trkpt>
			<trkpt lat="43.006366" lon="-1.608857">
				<ele>728</ele>
				<time>2018-04-28T13:49:53Z</time>
			</trkpt>
			<trkpt lat="43.006382" lon="-1.608795">
				<ele>728</ele>
				<time>2018-04-28T13:49:57Z</time>
			</trkpt>
			<trkpt lat="43.006389" lon="-1.608733">
				<ele>728</ele>
				<time>2018-04-28T13:50:04Z</time>
			</trkpt>
			<trkpt lat="43.006405" lon="-1.608662">
				<ele>728</ele>
				<time>2018-04-28T13:50:09Z</time>
			</trkpt>
			<trkpt lat="43.006374" lon="-1.608598">
				<ele>728</ele>
				<time>2018-04-28T13:50:16Z</time>
			</trkpt>
			<trkpt lat="43.006381" lon="-1.608531">
				<ele>728</ele>
				<time>2018-04-28T13:50:24Z</time>
			</trkpt>
			<trkpt lat="43.006371" lon="-1.608462">
				<ele>728</ele>
				<time>2018-04-28T13:50:28Z</time>
			</trkpt>
			<trkpt lat="43.006378" lon="-1.608394">
				<ele>728</ele>
				<time>2018-04-28T13:50:32Z</time>
			</trkpt>
			<trkpt lat="43.006398" lon="-1.608322">
				<ele>784</ele>
				<time>2018-04-28T13:50:35Z</time>
			</trkpt>
			<trkpt lat="43.006397" lon="-1.608256">
				<ele>784</ele>
				<time>2018-04-28T13:50:39Z</time>
			</trkpt>
			<trkpt lat="43.006394" lon="-1.608186">
				<ele>784</ele>
				<time>2018-04-28T13:50:44Z</time>
			</trkpt>
			<trkpt lat="43.006391" lon="-1.608116">
				<ele>784</ele>
				<time>2018-04-28T13:50:49Z</time>
			</trkpt>
			<trkpt lat="43.006391" lon="-1.60805">
				<ele>784</ele>
				<time>2018-04-28T13:50:56Z</time>
			</trkpt>
			<trkpt lat="43.006413" lon="-1.607984">
				<ele>784</ele>
				<time>2018-04-28T13:50:59Z</time>
			</trkpt>
			<trkpt lat="43.006423" lon="-1.607923">
				<ele>784</ele>
				<time>2018-04-28T13:51:04Z</time>
			</trkpt>
			<trkpt lat="43.006433" lon="-1.607855">
				<ele>784</ele>
				<time>2018-04-28T13:51:12Z</time>
			</trkpt>
			<trkpt lat="43.00643" lon="-1.607777">
				<ele>784</ele>
				<time>2018-04-28T13:51:18Z</time>
			</trkpt>
			<trkpt lat="43.0064" lon="-1.607714">
				<ele>784</ele>
				<time>2018-04-28T13:51:23Z</time>
			</trkpt>
			<trkpt lat="43.006381" lon="-1.607639">
				<ele>784</ele>
				<time>2018-04-28T13:51:28Z</time>
			</trkpt>
			<trkpt lat="43.006354" lon="-1.607562">
				<ele>784</ele>
				<time>2018-04-28T13:51:33Z</time>
			</trkpt>
			<trkpt lat="43.006328" lon="-1.607501">
				<ele>784</ele>
				<time>2018-04-28T13:51:39Z</time>
			</trkpt>
			<trkpt lat="43.006298" lon="-1.607437">
				<ele>784</ele>
				<time>2018-04-28T13:51:43Z</time>
			</trkpt>
			<trkpt lat="43.006273" lon="-1.607371">
				<ele>784</ele>
				<time>2018-04-28T13:51:47Z</time>
			</trkpt>
			<trkpt lat="43.006243" lon="-1.607305">
				<ele>760</ele>
				<time>2018-04-28T13:51:51Z</time>
			</trkpt>
			<trkpt lat="43.00623" lon="-1.607244">
				<ele>760</ele>
				<time>2018-04-28T13:51:55Z</time>
			</trkpt>
			<trkpt lat="43.006211" lon="-1.607187">
				<ele>760</ele>
				<time>2018-04-28T13:51:59Z</time>
			</trkpt>
			<trkpt lat="43.006195" lon="-1.607123">
				<ele>760</ele>
				<time>2018-04-28T13:52:05Z</time>
			</trkpt>
			<trkpt lat="43.006183" lon="-1.60704">
				<ele>760</ele>
				<time>2018-04-28T13:52:09Z</time>
			</trkpt>
			<trkpt lat="43.006164" lon="-1.606978">
				<ele>760</ele>
				<time>2018-04-28T13:52:14Z</time>
			</trkpt>
			<trkpt lat="43.006132" lon="-1.60692">
				<ele>760</ele>
				<time>2018-04-28T13:52:18Z</time>
			</trkpt>
			<trkpt lat="43.006098" lon="-1.606855">
				<ele>760</ele>
				<time>2018-04-28T13:52:22Z</time>
			</trkpt>
			<trkpt lat="43.006088" lon="-1.606794">
				<ele>760</ele>
				<time>2018-04-28T13:52:26Z</time>
			</trkpt>
			<trkpt lat="43.006073" lon="-1.606726">
				<ele>760</ele>
				<time>2018-04-28T13:52:32Z</time>
			</trkpt>
			<trkpt lat="43.006032" lon="-1.606683">
				<ele>760</ele>
				<time>2018-04-28T13:52:36Z</time>
			</trkpt>
			<trkpt lat="43.005989" lon="-1.606639">
				<ele>760</ele>
				<time>2018-04-28T13:52:39Z</time>
			</trkpt>
			<trkpt lat="43.00598" lon="-1.606575">
				<ele>760</ele>
				<time>2018-04-28T13:52:43Z</time>
			</trkpt>
			<trkpt lat="43.005944" lon="-1.606512">
				<ele>760</ele>
				<time>2018-04-28T13:52:48Z</time>
			</trkpt>
			<trkpt lat="43.005925" lon="-1.606448">
				<ele>760</ele>
				<time>2018-04-28T13:52:52Z</time>
			</trkpt>
			<trkpt lat="43.005886" lon="-1.606406">
				<ele>760</ele>
				<time>2018-04-28T13:52:57Z</time>
			</trkpt>
			<trkpt lat="43.00585" lon="-1.606359">
				<ele>760</ele>
				<time>2018-04-28T13:53:01Z</time>
			</trkpt>
			<trkpt lat="43.005804" lon="-1.606344">
				<ele>760</ele>
				<time>2018-04-28T13:53:05Z</time>
			</trkpt>
			<trkpt lat="43.005787" lon="-1.606283">
				<ele>760</ele>
				<time>2018-04-28T13:53:09Z</time>
			</trkpt>
			<trkpt lat="43.005757" lon="-1.606233">
				<ele>776</ele>
				<time>2018-04-28T13:53:13Z</time>
			</trkpt>
			<trkpt lat="43.005727" lon="-1.606175">
				<ele>776</ele>
				<time>2018-04-28T13:53:18Z</time>
			</trkpt>
			<trkpt lat="43.0057" lon="-1.606116">
				<ele>776</ele>
				<time>2018-04-28T13:53:23Z</time>
			</trkpt>
			<trkpt lat="43.005671" lon="-1.606069">
				<ele>776</ele>
				<time>2018-04-28T13:53:27Z</time>
			</trkpt>
			<trkpt lat="43.005637" lon="-1.606023">
				<ele>776</ele>
				<time>2018-04-28T13:53:31Z</time>
			</trkpt>
			<trkpt lat="43.005601" lon="-1.60598">
				<ele>776</ele>
				<time>2018-04-28T13:53:33Z</time>
			</trkpt>
			<trkpt lat="43.00556" lon="-1.605952">
				<ele>776</ele>
				<time>2018-04-28T13:53:36Z</time>
			</trkpt>
			<trkpt lat="43.005519" lon="-1.60591">
				<ele>776</ele>
				<time>2018-04-28T13:53:39Z</time>
			</trkpt>
			<trkpt lat="43.005465" lon="-1.605888">
				<ele>776</ele>
				<time>2018-04-28T13:53:44Z</time>
			</trkpt>
			<trkpt lat="43.005432" lon="-1.605835">
				<ele>776</ele>
				<time>2018-04-28T13:53:48Z</time>
			</trkpt>
			<trkpt lat="43.005399" lon="-1.605781">
				<ele>776</ele>
				<time>2018-04-28T13:53:53Z</time>
			</trkpt>
			<trkpt lat="43.005363" lon="-1.605742">
				<ele>776</ele>
				<time>2018-04-28T13:53:56Z</time>
			</trkpt>
			<trkpt lat="43.005323" lon="-1.605702">
				<ele>776</ele>
				<time>2018-04-28T13:54:01Z</time>
			</trkpt>
			<trkpt lat="43.005268" lon="-1.605653">
				<ele>776</ele>
				<time>2018-04-28T13:54:04Z</time>
			</trkpt>
			<trkpt lat="43.00522" lon="-1.60561">
				<ele>776</ele>
				<time>2018-04-28T13:54:06Z</time>
			</trkpt>
			<trkpt lat="43.005186" lon="-1.605565">
				<ele>776</ele>
				<time>2018-04-28T13:54:09Z</time>
			</trkpt>
			<trkpt lat="43.005147" lon="-1.605522">
				<ele>776</ele>
				<time>2018-04-28T13:54:12Z</time>
			</trkpt>
			<trkpt lat="43.005106" lon="-1.605495">
				<ele>776</ele>
				<time>2018-04-28T13:54:17Z</time>
			</trkpt>
			<trkpt lat="43.005039" lon="-1.605465">
				<ele>776</ele>
				<time>2018-04-28T13:54:19Z</time>
			</trkpt>
			<trkpt lat="43.004977" lon="-1.60542">
				<ele>776</ele>
				<time>2018-04-28T13:54:23Z</time>
			</trkpt>
			<trkpt lat="43.004965" lon="-1.605359">
				<ele>776</ele>
				<time>2018-04-28T13:54:28Z</time>
			</trkpt>
			<trkpt lat="43.004903" lon="-1.605345">
				<ele>776</ele>
				<time>2018-04-28T13:54:33Z</time>
			</trkpt>
			<trkpt lat="43.004855" lon="-1.60533">
				<ele>776</ele>
				<time>2018-04-28T13:54:36Z</time>
			</trkpt>
			<trkpt lat="43.004782" lon="-1.605314">
				<ele>776</ele>
				<time>2018-04-28T13:54:41Z</time>
			</trkpt>
			<trkpt lat="43.00473" lon="-1.605324">
				<ele>776</ele>
				<time>2018-04-28T13:54:44Z</time>
			</trkpt>
			<trkpt lat="43.004677" lon="-1.605307">
				<ele>776</ele>
				<time>2018-04-28T13:54:47Z</time>
			</trkpt>
			<trkpt lat="43.004616" lon="-1.605294">
				<ele>776</ele>
				<time>2018-04-28T13:54:50Z</time>
			</trkpt>
			<trkpt lat="43.004556" lon="-1.605278">
				<ele>776</ele>
				<time>2018-04-28T13:54:53Z</time>
			</trkpt>
			<trkpt lat="43.004496" lon="-1.605257">
				<ele>776</ele>
				<time>2018-04-28T13:54:57Z</time>
			</trkpt>
			<trkpt lat="43.004439" lon="-1.605227">
				<ele>776</ele>
				<time>2018-04-28T13:55:00Z</time>
			</trkpt>
			<trkpt lat="43.004384" lon="-1.605204">
				<ele>776</ele>
				<time>2018-04-28T13:55:03Z</time>
			</trkpt>
			<trkpt lat="43.004339" lon="-1.605189">
				<ele>776</ele>
				<time>2018-04-28T13:55:05Z</time>
			</trkpt>
			<trkpt lat="43.004294" lon="-1.605161">
				<ele>776</ele>
				<time>2018-04-28T13:55:08Z</time>
			</trkpt>
			<trkpt lat="43.004251" lon="-1.605075">
				<ele>776</ele>
				<time>2018-04-28T13:55:11Z</time>
			</trkpt>
			<trkpt lat="43.004199" lon="-1.605116">
				<ele>776</ele>
				<time>2018-04-28T13:55:14Z</time>
			</trkpt>
			<trkpt lat="43.004165" lon="-1.605184">
				<ele>790</ele>
				<time>2018-04-28T13:55:19Z</time>
			</trkpt>
			<trkpt lat="43.004138" lon="-1.605264">
				<ele>790</ele>
				<time>2018-04-28T13:55:22Z</time>
			</trkpt>
			<trkpt lat="43.004079" lon="-1.605347">
				<ele>790</ele>
				<time>2018-04-28T13:55:25Z</time>
			</trkpt>
			<trkpt lat="43.004049" lon="-1.60541">
				<ele>790</ele>
				<time>2018-04-28T13:55:28Z</time>
			</trkpt>
			<trkpt lat="43.004023" lon="-1.605497">
				<ele>790</ele>
				<time>2018-04-28T13:55:31Z</time>
			</trkpt>
			<trkpt lat="43.004008" lon="-1.605562">
				<ele>790</ele>
				<time>2018-04-28T13:55:33Z</time>
			</trkpt>
			<trkpt lat="43.003989" lon="-1.60562">
				<ele>790</ele>
				<time>2018-04-28T13:55:36Z</time>
			</trkpt>
			<trkpt lat="43.003951" lon="-1.605662">
				<ele>790</ele>
				<time>2018-04-28T13:55:39Z</time>
			</trkpt>
			<trkpt lat="43.003901" lon="-1.605646">
				<ele>790</ele>
				<time>2018-04-28T13:55:42Z</time>
			</trkpt>
			<trkpt lat="43.003853" lon="-1.60566">
				<ele>790</ele>
				<time>2018-04-28T13:55:45Z</time>
			</trkpt>
			<trkpt lat="43.003811" lon="-1.605626">
				<ele>790</ele>
				<time>2018-04-28T13:55:48Z</time>
			</trkpt>
			<trkpt lat="43.003758" lon="-1.605575">
				<ele>790</ele>
				<time>2018-04-28T13:55:51Z</time>
			</trkpt>
			<trkpt lat="43.003723" lon="-1.605515">
				<ele>790</ele>
				<time>2018-04-28T13:55:53Z</time>
			</trkpt>
			<trkpt lat="43.003697" lon="-1.605463">
				<ele>790</ele>
				<time>2018-04-28T13:55:55Z</time>
			</trkpt>
			<trkpt lat="43.003669" lon="-1.605403">
				<ele>790</ele>
				<time>2018-04-28T13:55:58Z</time>
			</trkpt>
			<trkpt lat="43.003641" lon="-1.605328">
				<ele>790</ele>
				<time>2018-04-28T13:56:01Z</time>
			</trkpt>
			<trkpt lat="43.003613" lon="-1.605276">
				<ele>790</ele>
				<time>2018-04-28T13:56:03Z</time>
			</trkpt>
			<trkpt lat="43.0036" lon="-1.605207">
				<ele>790</ele>
				<time>2018-04-28T13:56:05Z</time>
			</trkpt>
			<trkpt lat="43.003577" lon="-1.605126">
				<ele>790</ele>
				<time>2018-04-28T13:56:08Z</time>
			</trkpt>
			<trkpt lat="43.003553" lon="-1.605044">
				<ele>790</ele>
				<time>2018-04-28T13:56:11Z</time>
			</trkpt>
			<trkpt lat="43.00353" lon="-1.60498">
				<ele>790</ele>
				<time>2018-04-28T13:56:13Z</time>
			</trkpt>
			<trkpt lat="43.003519" lon="-1.60492">
				<ele>790</ele>
				<time>2018-04-28T13:56:15Z</time>
			</trkpt>
			<trkpt lat="43.003503" lon="-1.60485">
				<ele>790</ele>
				<time>2018-04-28T13:56:17Z</time>
			</trkpt>
			<trkpt lat="43.003498" lon="-1.604785">
				<ele>790</ele>
				<time>2018-04-28T13:56:19Z</time>
			</trkpt>
			<trkpt lat="43.003479" lon="-1.604708">
				<ele>790</ele>
				<time>2018-04-28T13:56:22Z</time>
			</trkpt>
			<trkpt lat="43.003464" lon="-1.604649">
				<ele>790</ele>
				<time>2018-04-28T13:56:24Z</time>
			</trkpt>
			<trkpt lat="43.003457" lon="-1.604553">
				<ele>790</ele>
				<time>2018-04-28T13:56:27Z</time>
			</trkpt>
			<trkpt lat="43.003443" lon="-1.604472">
				<ele>790</ele>
				<time>2018-04-28T13:56:30Z</time>
			</trkpt>
			<trkpt lat="43.003434" lon="-1.60441">
				<ele>790</ele>
				<time>2018-04-28T13:56:32Z</time>
			</trkpt>
			<trkpt lat="43.003427" lon="-1.604329">
				<ele>790</ele>
				<time>2018-04-28T13:56:35Z</time>
			</trkpt>
			<trkpt lat="43.003404" lon="-1.604263">
				<ele>790</ele>
				<time>2018-04-28T13:56:37Z</time>
			</trkpt>
			<trkpt lat="43.003375" lon="-1.604184">
				<ele>790</ele>
				<time>2018-04-28T13:56:39Z</time>
			</trkpt>
			<trkpt lat="43.003353" lon="-1.604105">
				<ele>771</ele>
				<time>2018-04-28T13:56:41Z</time>
			</trkpt>
			<trkpt lat="43.003339" lon="-1.60403">
				<ele>771</ele>
				<time>2018-04-28T13:56:43Z</time>
			</trkpt>
			<trkpt lat="43.003339" lon="-1.603958">
				<ele>771</ele>
				<time>2018-04-28T13:56:45Z</time>
			</trkpt>
			<trkpt lat="43.003338" lon="-1.603869">
				<ele>771</ele>
				<time>2018-04-28T13:56:48Z</time>
			</trkpt>
			<trkpt lat="43.003335" lon="-1.603801">
				<ele>771</ele>
				<time>2018-04-28T13:56:50Z</time>
			</trkpt>
			<trkpt lat="43.003333" lon="-1.603734">
				<ele>771</ele>
				<time>2018-04-28T13:56:52Z</time>
			</trkpt>
			<trkpt lat="43.003326" lon="-1.603669">
				<ele>771</ele>
				<time>2018-04-28T13:56:54Z</time>
			</trkpt>
			<trkpt lat="43.003302" lon="-1.603598">
				<ele>771</ele>
				<time>2018-04-28T13:56:56Z</time>
			</trkpt>
			<trkpt lat="43.003264" lon="-1.603545">
				<ele>771</ele>
				<time>2018-04-28T13:56:58Z</time>
			</trkpt>
			<trkpt lat="43.003233" lon="-1.603476">
				<ele>771</ele>
				<time>2018-04-28T13:57:00Z</time>
			</trkpt>
			<trkpt lat="43.003224" lon="-1.603406">
				<ele>771</ele>
				<time>2018-04-28T13:57:02Z</time>
			</trkpt>
			<trkpt lat="43.003231" lon="-1.603344">
				<ele>771</ele>
				<time>2018-04-28T13:57:04Z</time>
			</trkpt>
			<trkpt lat="43.003256" lon="-1.603292">
				<ele>771</ele>
				<time>2018-04-28T13:57:06Z</time>
			</trkpt>
			<trkpt lat="43.003314" lon="-1.60324">
				<ele>771</ele>
				<time>2018-04-28T13:57:09Z</time>
			</trkpt>
			<trkpt lat="43.003357" lon="-1.603194">
				<ele>771</ele>
				<time>2018-04-28T13:57:13Z</time>
			</trkpt>
			<trkpt lat="43.003394" lon="-1.603144">
				<ele>771</ele>
				<time>2018-04-28T13:57:16Z</time>
			</trkpt>
			<trkpt lat="43.00342" lon="-1.603084">
				<ele>771</ele>
				<time>2018-04-28T13:57:19Z</time>
			</trkpt>
			<trkpt lat="43.00346" lon="-1.603039">
				<ele>771</ele>
				<time>2018-04-28T13:57:22Z</time>
			</trkpt>
			<trkpt lat="43.003496" lon="-1.602986">
				<ele>771</ele>
				<time>2018-04-28T13:57:25Z</time>
			</trkpt>
			<trkpt lat="43.003526" lon="-1.602935">
				<ele>771</ele>
				<time>2018-04-28T13:57:28Z</time>
			</trkpt>
			<trkpt lat="43.003563" lon="-1.6029">
				<ele>771</ele>
				<time>2018-04-28T13:57:32Z</time>
			</trkpt>
			<trkpt lat="43.003605" lon="-1.602851">
				<ele>771</ele>
				<time>2018-04-28T13:57:35Z</time>
			</trkpt>
			<trkpt lat="43.003633" lon="-1.602788">
				<ele>771</ele>
				<time>2018-04-28T13:57:38Z</time>
			</trkpt>
			<trkpt lat="43.003661" lon="-1.602738">
				<ele>771</ele>
				<time>2018-04-28T13:57:41Z</time>
			</trkpt>
			<trkpt lat="43.00368" lon="-1.602668">
				<ele>771</ele>
				<time>2018-04-28T13:57:44Z</time>
			</trkpt>
			<trkpt lat="43.003691" lon="-1.602592">
				<ele>771</ele>
				<time>2018-04-28T13:57:48Z</time>
			</trkpt>
			<trkpt lat="43.003709" lon="-1.602511">
				<ele>771</ele>
				<time>2018-04-28T13:57:53Z</time>
			</trkpt>
			<trkpt lat="43.003718" lon="-1.602429">
				<ele>771</ele>
				<time>2018-04-28T13:57:57Z</time>
			</trkpt>
			<trkpt lat="43.003714" lon="-1.602354">
				<ele>771</ele>
				<time>2018-04-28T13:58:01Z</time>
			</trkpt>
			<trkpt lat="43.003721" lon="-1.602266">
				<ele>771</ele>
				<time>2018-04-28T13:58:04Z</time>
			</trkpt>
			<trkpt lat="43.00369" lon="-1.602218">
				<ele>771</ele>
				<time>2018-04-28T13:58:07Z</time>
			</trkpt>
			<trkpt lat="43.003677" lon="-1.602138">
				<ele>771</ele>
				<time>2018-04-28T13:58:11Z</time>
			</trkpt>
			<trkpt lat="43.00369" lon="-1.602075">
				<ele>760</ele>
				<time>2018-04-28T13:58:13Z</time>
			</trkpt>
			<trkpt lat="43.003699" lon="-1.602">
				<ele>760</ele>
				<time>2018-04-28T13:58:17Z</time>
			</trkpt>
			<trkpt lat="43.003676" lon="-1.601924">
				<ele>760</ele>
				<time>2018-04-28T13:58:20Z</time>
			</trkpt>
			<trkpt lat="43.003648" lon="-1.601876">
				<ele>760</ele>
				<time>2018-04-28T13:58:23Z</time>
			</trkpt>
			<trkpt lat="43.003622" lon="-1.601823">
				<ele>760</ele>
				<time>2018-04-28T13:58:26Z</time>
			</trkpt>
			<trkpt lat="43.003606" lon="-1.601734">
				<ele>760</ele>
				<time>2018-04-28T13:58:28Z</time>
			</trkpt>
			<trkpt lat="43.003569" lon="-1.60167">
				<ele>760</ele>
				<time>2018-04-28T13:58:30Z</time>
			</trkpt>
			<trkpt lat="43.003536" lon="-1.601615">
				<ele>760</ele>
				<time>2018-04-28T13:58:32Z</time>
			</trkpt>
			<trkpt lat="43.003508" lon="-1.60153">
				<ele>760</ele>
				<time>2018-04-28T13:58:34Z</time>
			</trkpt>
			<trkpt lat="43.003493" lon="-1.601437">
				<ele>760</ele>
				<time>2018-04-28T13:58:36Z</time>
			</trkpt>
			<trkpt lat="43.003471" lon="-1.601373">
				<ele>760</ele>
				<time>2018-04-28T13:58:38Z</time>
			</trkpt>
			<trkpt lat="43.003472" lon="-1.601312">
				<ele>760</ele>
				<time>2018-04-28T13:58:40Z</time>
			</trkpt>
			<trkpt lat="43.00344" lon="-1.601238">
				<ele>760</ele>
				<time>2018-04-28T13:58:42Z</time>
			</trkpt>
			<trkpt lat="43.003416" lon="-1.601159">
				<ele>760</ele>
				<time>2018-04-28T13:58:44Z</time>
			</trkpt>
			<trkpt lat="43.003414" lon="-1.601085">
				<ele>760</ele>
				<time>2018-04-28T13:58:46Z</time>
			</trkpt>
			<trkpt lat="43.003396" lon="-1.601026">
				<ele>760</ele>
				<time>2018-04-28T13:58:50Z</time>
			</trkpt>
			<trkpt lat="43.00341" lon="-1.600954">
				<ele>760</ele>
				<time>2018-04-28T13:58:53Z</time>
			</trkpt>
			<trkpt lat="43.003423" lon="-1.600894">
				<ele>760</ele>
				<time>2018-04-28T13:58:55Z</time>
			</trkpt>
			<trkpt lat="43.003441" lon="-1.600817">
				<ele>760</ele>
				<time>2018-04-28T13:58:58Z</time>
			</trkpt>
			<trkpt lat="43.00346" lon="-1.600732">
				<ele>760</ele>
				<time>2018-04-28T13:59:01Z</time>
			</trkpt>
			<trkpt lat="43.003474" lon="-1.600656">
				<ele>760</ele>
				<time>2018-04-28T13:59:04Z</time>
			</trkpt>
			<trkpt lat="43.003494" lon="-1.600581">
				<ele>760</ele>
				<time>2018-04-28T13:59:07Z</time>
			</trkpt>
			<trkpt lat="43.003512" lon="-1.600518">
				<ele>760</ele>
				<time>2018-04-28T13:59:09Z</time>
			</trkpt>
			<trkpt lat="43.00354" lon="-1.600456">
				<ele>760</ele>
				<time>2018-04-28T13:59:11Z</time>
			</trkpt>
			<trkpt lat="43.003563" lon="-1.600385">
				<ele>760</ele>
				<time>2018-04-28T13:59:14Z</time>
			</trkpt>
			<trkpt lat="43.003562" lon="-1.600299">
				<ele>760</ele>
				<time>2018-04-28T13:59:17Z</time>
			</trkpt>
			<trkpt lat="43.003553" lon="-1.600218">
				<ele>760</ele>
				<time>2018-04-28T13:59:20Z</time>
			</trkpt>
			<trkpt lat="43.003548" lon="-1.600142">
				<ele>760</ele>
				<time>2018-04-28T13:59:23Z</time>
			</trkpt>
			<trkpt lat="43.003544" lon="-1.600073">
				<ele>760</ele>
				<time>2018-04-28T13:59:27Z</time>
			</trkpt>
			<trkpt lat="43.003526" lon="-1.599983">
				<ele>766</ele>
				<time>2018-04-28T13:59:32Z</time>
			</trkpt>
			<trkpt lat="43.003492" lon="-1.59991">
				<ele>766</ele>
				<time>2018-04-28T13:59:35Z</time>
			</trkpt>
			<trkpt lat="43.003466" lon="-1.599838">
				<ele>766</ele>
				<time>2018-04-28T13:59:38Z</time>
			</trkpt>
			<trkpt lat="43.003439" lon="-1.599777">
				<ele>766</ele>
				<time>2018-04-28T13:59:40Z</time>
			</trkpt>
			<trkpt lat="43.003397" lon="-1.599704">
				<ele>766</ele>
				<time>2018-04-28T13:59:43Z</time>
			</trkpt>
			<trkpt lat="43.003362" lon="-1.599624">
				<ele>766</ele>
				<time>2018-04-28T13:59:46Z</time>
			</trkpt>
			<trkpt lat="43.003341" lon="-1.599542">
				<ele>766</ele>
				<time>2018-04-28T13:59:49Z</time>
			</trkpt>
			<trkpt lat="43.003315" lon="-1.599479">
				<ele>766</ele>
				<time>2018-04-28T13:59:51Z</time>
			</trkpt>
			<trkpt lat="43.003338" lon="-1.599412">
				<ele>766</ele>
				<time>2018-04-28T13:59:54Z</time>
			</trkpt>
			<trkpt lat="43.003316" lon="-1.599344">
				<ele>766</ele>
				<time>2018-04-28T13:59:57Z</time>
			</trkpt>
			<trkpt lat="43.003294" lon="-1.599285">
				<ele>766</ele>
				<time>2018-04-28T13:59:59Z</time>
			</trkpt>
			<trkpt lat="43.003269" lon="-1.599232">
				<ele>766</ele>
				<time>2018-04-28T14:00:01Z</time>
			</trkpt>
			<trkpt lat="43.003237" lon="-1.599176">
				<ele>766</ele>
				<time>2018-04-28T14:00:03Z</time>
			</trkpt>
			<trkpt lat="43.003191" lon="-1.599102">
				<ele>766</ele>
				<time>2018-04-28T14:00:06Z</time>
			</trkpt>
			<trkpt lat="43.003189" lon="-1.599035">
				<ele>766</ele>
				<time>2018-04-28T14:00:08Z</time>
			</trkpt>
			<trkpt lat="43.003181" lon="-1.598963">
				<ele>766</ele>
				<time>2018-04-28T14:00:10Z</time>
			</trkpt>
			<trkpt lat="43.003177" lon="-1.598895">
				<ele>766</ele>
				<time>2018-04-28T14:00:13Z</time>
			</trkpt>
			<trkpt lat="43.003137" lon="-1.598822">
				<ele>766</ele>
				<time>2018-04-28T14:00:18Z</time>
			</trkpt>
			<trkpt lat="43.003095" lon="-1.598797">
				<ele>766</ele>
				<time>2018-04-28T14:00:19Z</time>
			</trkpt>
			<trkpt lat="43.003034" lon="-1.598753">
				<ele>766</ele>
				<time>2018-04-28T14:00:21Z</time>
			</trkpt>
			<trkpt lat="43.002994" lon="-1.598699">
				<ele>766</ele>
				<time>2018-04-28T14:00:23Z</time>
			</trkpt>
			<trkpt lat="43.002979" lon="-1.598634">
				<ele>766</ele>
				<time>2018-04-28T14:00:26Z</time>
			</trkpt>
			<trkpt lat="43.002991" lon="-1.598567">
				<ele>766</ele>
				<time>2018-04-28T14:00:29Z</time>
			</trkpt>
			<trkpt lat="43.00298" lon="-1.598508">
				<ele>766</ele>
				<time>2018-04-28T14:00:31Z</time>
			</trkpt>
			<trkpt lat="43.002985" lon="-1.598441">
				<ele>766</ele>
				<time>2018-04-28T14:00:34Z</time>
			</trkpt>
			<trkpt lat="43.002968" lon="-1.598371">
				<ele>766</ele>
				<time>2018-04-28T14:00:37Z</time>
			</trkpt>
			<trkpt lat="43.00298" lon="-1.598301">
				<ele>766</ele>
				<time>2018-04-28T14:00:40Z</time>
			</trkpt>
			<trkpt lat="43.002972" lon="-1.598227">
				<ele>766</ele>
				<time>2018-04-28T14:00:43Z</time>
			</trkpt>
			<trkpt lat="43.002971" lon="-1.598159">
				<ele>766</ele>
				<time>2018-04-28T14:00:45Z</time>
			</trkpt>
			<trkpt lat="43.002973" lon="-1.598088">
				<ele>766</ele>
				<time>2018-04-28T14:00:47Z</time>
			</trkpt>
			<trkpt lat="43.002991" lon="-1.598025">
				<ele>766</ele>
				<time>2018-04-28T14:00:49Z</time>
			</trkpt>
			<trkpt lat="43.002993" lon="-1.59796">
				<ele>766</ele>
				<time>2018-04-28T14:00:51Z</time>
			</trkpt>
			<trkpt lat="43.002991" lon="-1.597896">
				<ele>764</ele>
				<time>2018-04-28T14:00:54Z</time>
			</trkpt>
			<trkpt lat="43.002999" lon="-1.597822">
				<ele>764</ele>
				<time>2018-04-28T14:00:57Z</time>
			</trkpt>
			<trkpt lat="43.003006" lon="-1.597732">
				<ele>764</ele>
				<time>2018-04-28T14:01:01Z</time>
			</trkpt>
			<trkpt lat="43.003042" lon="-1.597663">
				<ele>764</ele>
				<time>2018-04-28T14:01:04Z</time>
			</trkpt>
			<trkpt lat="43.003066" lon="-1.597588">
				<ele>764</ele>
				<time>2018-04-28T14:01:06Z</time>
			</trkpt>
			<trkpt lat="43.003105" lon="-1.597521">
				<ele>764</ele>
				<time>2018-04-28T14:01:09Z</time>
			</trkpt>
			<trkpt lat="43.003146" lon="-1.597458">
				<ele>764</ele>
				<time>2018-04-28T14:01:12Z</time>
			</trkpt>
			<trkpt lat="43.003195" lon="-1.597409">
				<ele>764</ele>
				<time>2018-04-28T14:01:15Z</time>
			</trkpt>
			<trkpt lat="43.003232" lon="-1.597366">
				<ele>764</ele>
				<time>2018-04-28T14:01:19Z</time>
			</trkpt>
			<trkpt lat="43.003236" lon="-1.597298">
				<ele>764</ele>
				<time>2018-04-28T14:01:28Z</time>
			</trkpt>
			<trkpt lat="43.003189" lon="-1.597269">
				<ele>764</ele>
				<time>2018-04-28T14:01:33Z</time>
			</trkpt>
			<trkpt lat="43.003143" lon="-1.597258">
				<ele>764</ele>
				<time>2018-04-28T14:01:40Z</time>
			</trkpt>
			<trkpt lat="43.003098" lon="-1.597292">
				<ele>764</ele>
				<time>2018-04-28T14:01:47Z</time>
			</trkpt>
			<trkpt lat="43.003044" lon="-1.597287">
				<ele>764</ele>
				<time>2018-04-28T14:01:50Z</time>
			</trkpt>
			<trkpt lat="43.003007" lon="-1.59725">
				<ele>764</ele>
				<time>2018-04-28T14:01:53Z</time>
			</trkpt>
			<trkpt lat="43.00296" lon="-1.597265">
				<ele>764</ele>
				<time>2018-04-28T14:01:58Z</time>
			</trkpt>
			<trkpt lat="43.002884" lon="-1.597267">
				<ele>764</ele>
				<time>2018-04-28T14:02:02Z</time>
			</trkpt>
			<trkpt lat="43.002846" lon="-1.597232">
				<ele>764</ele>
				<time>2018-04-28T14:02:07Z</time>
			</trkpt>
			<trkpt lat="43.002782" lon="-1.597212">
				<ele>764</ele>
				<time>2018-04-28T14:02:12Z</time>
			</trkpt>
			<trkpt lat="43.002726" lon="-1.59719">
				<ele>764</ele>
				<time>2018-04-28T14:02:15Z</time>
			</trkpt>
			<trkpt lat="43.002681" lon="-1.597185">
				<ele>764</ele>
				<time>2018-04-28T14:02:18Z</time>
			</trkpt>
			<trkpt lat="43.002633" lon="-1.597194">
				<ele>764</ele>
				<time>2018-04-28T14:02:21Z</time>
			</trkpt>
			<trkpt lat="43.002586" lon="-1.597182">
				<ele>764</ele>
				<time>2018-04-28T14:02:23Z</time>
			</trkpt>
			<trkpt lat="43.002534" lon="-1.597184">
				<ele>764</ele>
				<time>2018-04-28T14:02:28Z</time>
			</trkpt>
			<trkpt lat="43.002482" lon="-1.597161">
				<ele>764</ele>
				<time>2018-04-28T14:02:34Z</time>
			</trkpt>
			<trkpt lat="43.00244" lon="-1.597125">
				<ele>764</ele>
				<time>2018-04-28T14:02:40Z</time>
			</trkpt>
			<trkpt lat="43.002393" lon="-1.597096">
				<ele>764</ele>
				<time>2018-04-28T14:02:44Z</time>
			</trkpt>
			<trkpt lat="43.002339" lon="-1.597067">
				<ele>764</ele>
				<time>2018-04-28T14:02:50Z</time>
			</trkpt>
			<trkpt lat="43.002294" lon="-1.597059">
				<ele>764</ele>
				<time>2018-04-28T14:02:54Z</time>
			</trkpt>
			<trkpt lat="43.002252" lon="-1.597025">
				<ele>764</ele>
				<time>2018-04-28T14:03:00Z</time>
			</trkpt>
			<trkpt lat="43.002213" lon="-1.597059">
				<ele>764</ele>
				<time>2018-04-28T14:03:07Z</time>
			</trkpt>
			<trkpt lat="43.00217" lon="-1.597092">
				<ele>764</ele>
				<time>2018-04-28T14:03:10Z</time>
			</trkpt>
			<trkpt lat="43.002128" lon="-1.597142">
				<ele>764</ele>
				<time>2018-04-28T14:03:17Z</time>
			</trkpt>
			<trkpt lat="43.002092" lon="-1.5972">
				<ele>764</ele>
				<time>2018-04-28T14:03:27Z</time>
			</trkpt>
			<trkpt lat="43.00207" lon="-1.597271">
				<ele>762</ele>
				<time>2018-04-28T14:03:31Z</time>
			</trkpt>
			<trkpt lat="43.002052" lon="-1.597334">
				<ele>762</ele>
				<time>2018-04-28T14:03:36Z</time>
			</trkpt>
			<trkpt lat="43.001999" lon="-1.597391">
				<ele>762</ele>
				<time>2018-04-28T14:03:39Z</time>
			</trkpt>
			<trkpt lat="43.001959" lon="-1.597455">
				<ele>762</ele>
				<time>2018-04-28T14:03:42Z</time>
			</trkpt>
			<trkpt lat="43.001931" lon="-1.597513">
				<ele>762</ele>
				<time>2018-04-28T14:03:44Z</time>
			</trkpt>
			<trkpt lat="43.001913" lon="-1.597576">
				<ele>762</ele>
				<time>2018-04-28T14:03:49Z</time>
			</trkpt>
			<trkpt lat="43.001881" lon="-1.597641">
				<ele>762</ele>
				<time>2018-04-28T14:03:52Z</time>
			</trkpt>
			<trkpt lat="43.00188" lon="-1.597703">
				<ele>762</ele>
				<time>2018-04-28T14:03:56Z</time>
			</trkpt>
			<trkpt lat="43.001876" lon="-1.597768">
				<ele>762</ele>
				<time>2018-04-28T14:04:04Z</time>
			</trkpt>
			<trkpt lat="43.001883" lon="-1.597852">
				<ele>762</ele>
				<time>2018-04-28T14:04:09Z</time>
			</trkpt>
			<trkpt lat="43.001876" lon="-1.597922">
				<ele>723</ele>
				<time>2018-04-28T14:04:13Z</time>
			</trkpt>
			<trkpt lat="43.001864" lon="-1.597988">
				<ele>723</ele>
				<time>2018-04-28T14:04:15Z</time>
			</trkpt>
			<trkpt lat="43.001851" lon="-1.598053">
				<ele>723</ele>
				<time>2018-04-28T14:04:17Z</time>
			</trkpt>
			<trkpt lat="43.00184" lon="-1.598138">
				<ele>723</ele>
				<time>2018-04-28T14:04:20Z</time>
			</trkpt>
			<trkpt lat="43.001822" lon="-1.598237">
				<ele>723</ele>
				<time>2018-04-28T14:04:22Z</time>
			</trkpt>
			<trkpt lat="43.001801" lon="-1.598332">
				<ele>723</ele>
				<time>2018-04-28T14:04:26Z</time>
			</trkpt>
			<trkpt lat="43.001784" lon="-1.598395">
				<ele>723</ele>
				<time>2018-04-28T14:04:29Z</time>
			</trkpt>
			<trkpt lat="43.001763" lon="-1.598463">
				<ele>723</ele>
				<time>2018-04-28T14:04:31Z</time>
			</trkpt>
			<trkpt lat="43.001737" lon="-1.598547">
				<ele>723</ele>
				<time>2018-04-28T14:04:35Z</time>
			</trkpt>
			<trkpt lat="43.001705" lon="-1.598596">
				<ele>723</ele>
				<time>2018-04-28T14:04:38Z</time>
			</trkpt>
			<trkpt lat="43.001672" lon="-1.59866">
				<ele>723</ele>
				<time>2018-04-28T14:04:40Z</time>
			</trkpt>
			<trkpt lat="43.001638" lon="-1.598708">
				<ele>723</ele>
				<time>2018-04-28T14:04:42Z</time>
			</trkpt>
			<trkpt lat="43.001609" lon="-1.598777">
				<ele>723</ele>
				<time>2018-04-28T14:04:46Z</time>
			</trkpt>
			<trkpt lat="43.001586" lon="-1.598846">
				<ele>723</ele>
				<time>2018-04-28T14:04:49Z</time>
			</trkpt>
			<trkpt lat="43.001538" lon="-1.598907">
				<ele>723</ele>
				<time>2018-04-28T14:04:52Z</time>
			</trkpt>
			<trkpt lat="43.001515" lon="-1.598962">
				<ele>723</ele>
				<time>2018-04-28T14:04:54Z</time>
			</trkpt>
			<trkpt lat="43.001494" lon="-1.599019">
				<ele>723</ele>
				<time>2018-04-28T14:04:56Z</time>
			</trkpt>
			<trkpt lat="43.00147" lon="-1.599072">
				<ele>723</ele>
				<time>2018-04-28T14:04:59Z</time>
			</trkpt>
			<trkpt lat="43.001418" lon="-1.599117">
				<ele>723</ele>
				<time>2018-04-28T14:05:05Z</time>
			</trkpt>
			<trkpt lat="43.001384" lon="-1.599172">
				<ele>723</ele>
				<time>2018-04-28T14:05:08Z</time>
			</trkpt>
			<trkpt lat="43.001367" lon="-1.599238">
				<ele>723</ele>
				<time>2018-04-28T14:05:10Z</time>
			</trkpt>
			<trkpt lat="43.001338" lon="-1.599302">
				<ele>723</ele>
				<time>2018-04-28T14:05:12Z</time>
			</trkpt>
			<trkpt lat="43.001312" lon="-1.599367">
				<ele>723</ele>
				<time>2018-04-28T14:05:14Z</time>
			</trkpt>
			<trkpt lat="43.00128" lon="-1.599414">
				<ele>723</ele>
				<time>2018-04-28T14:05:17Z</time>
			</trkpt>
			<trkpt lat="43.001252" lon="-1.59947">
				<ele>723</ele>
				<time>2018-04-28T14:05:19Z</time>
			</trkpt>
			<trkpt lat="43.001236" lon="-1.599529">
				<ele>723</ele>
				<time>2018-04-28T14:05:21Z</time>
			</trkpt>
			<trkpt lat="43.0012" lon="-1.59959">
				<ele>723</ele>
				<time>2018-04-28T14:05:24Z</time>
			</trkpt>
			<trkpt lat="43.001164" lon="-1.599685">
				<ele>723</ele>
				<time>2018-04-28T14:05:26Z</time>
			</trkpt>
			<trkpt lat="43.001141" lon="-1.599746">
				<ele>723</ele>
				<time>2018-04-28T14:05:28Z</time>
			</trkpt>
			<trkpt lat="43.001094" lon="-1.599802">
				<ele>723</ele>
				<time>2018-04-28T14:05:31Z</time>
			</trkpt>
			<trkpt lat="43.00104" lon="-1.59984">
				<ele>723</ele>
				<time>2018-04-28T14:05:35Z</time>
			</trkpt>
			<trkpt lat="43.000996" lon="-1.599874">
				<ele>723</ele>
				<time>2018-04-28T14:05:40Z</time>
			</trkpt>
			<trkpt lat="43.000944" lon="-1.599876">
				<ele>723</ele>
				<time>2018-04-28T14:05:43Z</time>
			</trkpt>
			<trkpt lat="43.000879" lon="-1.599904">
				<ele>723</ele>
				<time>2018-04-28T14:05:46Z</time>
			</trkpt>
			<trkpt lat="43.000829" lon="-1.599935">
				<ele>723</ele>
				<time>2018-04-28T14:05:49Z</time>
			</trkpt>
			<trkpt lat="43.000777" lon="-1.599934">
				<ele>723</ele>
				<time>2018-04-28T14:05:51Z</time>
			</trkpt>
			<trkpt lat="43.000725" lon="-1.59993">
				<ele>723</ele>
				<time>2018-04-28T14:05:55Z</time>
			</trkpt>
			<trkpt lat="43.000682" lon="-1.599899">
				<ele>723</ele>
				<time>2018-04-28T14:05:58Z</time>
			</trkpt>
			<trkpt lat="43.000643" lon="-1.599957">
				<ele>723</ele>
				<time>2018-04-28T14:06:03Z</time>
			</trkpt>
			<trkpt lat="43.000595" lon="-1.599991">
				<ele>723</ele>
				<time>2018-04-28T14:06:07Z</time>
			</trkpt>
			<trkpt lat="43.000548" lon="-1.600023">
				<ele>730</ele>
				<time>2018-04-28T14:06:09Z</time>
			</trkpt>
			<trkpt lat="43.000508" lon="-1.600057">
				<ele>730</ele>
				<time>2018-04-28T14:06:11Z</time>
			</trkpt>
			<trkpt lat="43.000458" lon="-1.600067">
				<ele>730</ele>
				<time>2018-04-28T14:06:14Z</time>
			</trkpt>
			<trkpt lat="43.000401" lon="-1.600101">
				<ele>730</ele>
				<time>2018-04-28T14:06:17Z</time>
			</trkpt>
			<trkpt lat="43.000351" lon="-1.60014">
				<ele>730</ele>
				<time>2018-04-28T14:06:20Z</time>
			</trkpt>
			<trkpt lat="43.000291" lon="-1.600159">
				<ele>730</ele>
				<time>2018-04-28T14:06:23Z</time>
			</trkpt>
			<trkpt lat="43.000244" lon="-1.600167">
				<ele>730</ele>
				<time>2018-04-28T14:06:25Z</time>
			</trkpt>
			<trkpt lat="43.000179" lon="-1.600175">
				<ele>730</ele>
				<time>2018-04-28T14:06:28Z</time>
			</trkpt>
			<trkpt lat="43.000127" lon="-1.600191">
				<ele>730</ele>
				<time>2018-04-28T14:06:30Z</time>
			</trkpt>
			<trkpt lat="43.000089" lon="-1.600242">
				<ele>730</ele>
				<time>2018-04-28T14:06:32Z</time>
			</trkpt>
			<trkpt lat="43.000043" lon="-1.600241">
				<ele>730</ele>
				<time>2018-04-28T14:06:34Z</time>
			</trkpt>
			<trkpt lat="42.999994" lon="-1.600249">
				<ele>689</ele>
				<time>2018-04-28T14:06:37Z</time>
			</trkpt>
			<trkpt lat="42.999949" lon="-1.6003">
				<ele>689</ele>
				<time>2018-04-28T14:06:43Z</time>
			</trkpt>
			<trkpt lat="42.999909" lon="-1.600337">
				<ele>689</ele>
				<time>2018-04-28T14:06:45Z</time>
			</trkpt>
			<trkpt lat="42.999873" lon="-1.600417">
				<ele>689</ele>
				<time>2018-04-28T14:06:48Z</time>
			</trkpt>
			<trkpt lat="42.999825" lon="-1.600443">
				<ele>689</ele>
				<time>2018-04-28T14:06:51Z</time>
			</trkpt>
			<trkpt lat="42.999781" lon="-1.600482">
				<ele>689</ele>
				<time>2018-04-28T14:06:54Z</time>
			</trkpt>
			<trkpt lat="42.999738" lon="-1.600515">
				<ele>689</ele>
				<time>2018-04-28T14:06:56Z</time>
			</trkpt>
			<trkpt lat="42.999701" lon="-1.60058">
				<ele>689</ele>
				<time>2018-04-28T14:06:58Z</time>
			</trkpt>
			<trkpt lat="42.999646" lon="-1.600604">
				<ele>689</ele>
				<time>2018-04-28T14:07:01Z</time>
			</trkpt>
			<trkpt lat="42.999603" lon="-1.600638">
				<ele>689</ele>
				<time>2018-04-28T14:07:03Z</time>
			</trkpt>
			<trkpt lat="42.99956" lon="-1.600716">
				<ele>689</ele>
				<time>2018-04-28T14:07:06Z</time>
			</trkpt>
			<trkpt lat="42.99951" lon="-1.600743">
				<ele>689</ele>
				<time>2018-04-28T14:07:09Z</time>
			</trkpt>
			<trkpt lat="42.999455" lon="-1.600754">
				<ele>689</ele>
				<time>2018-04-28T14:07:12Z</time>
			</trkpt>
			<trkpt lat="42.999406" lon="-1.60077">
				<ele>689</ele>
				<time>2018-04-28T14:07:14Z</time>
			</trkpt>
			<trkpt lat="42.999362" lon="-1.600806">
				<ele>689</ele>
				<time>2018-04-28T14:07:17Z</time>
			</trkpt>
			<trkpt lat="42.999306" lon="-1.600868">
				<ele>689</ele>
				<time>2018-04-28T14:07:20Z</time>
			</trkpt>
			<trkpt lat="42.999261" lon="-1.600936">
				<ele>689</ele>
				<time>2018-04-28T14:07:22Z</time>
			</trkpt>
			<trkpt lat="42.999214" lon="-1.600973">
				<ele>689</ele>
				<time>2018-04-28T14:07:24Z</time>
			</trkpt>
			<trkpt lat="42.999181" lon="-1.601043">
				<ele>689</ele>
				<time>2018-04-28T14:07:26Z</time>
			</trkpt>
			<trkpt lat="42.999149" lon="-1.601095">
				<ele>689</ele>
				<time>2018-04-28T14:07:29Z</time>
			</trkpt>
			<trkpt lat="42.99911" lon="-1.601162">
				<ele>689</ele>
				<time>2018-04-28T14:07:32Z</time>
			</trkpt>
			<trkpt lat="42.999076" lon="-1.601218">
				<ele>689</ele>
				<time>2018-04-28T14:07:36Z</time>
			</trkpt>
			<trkpt lat="42.999041" lon="-1.601268">
				<ele>689</ele>
				<time>2018-04-28T14:07:40Z</time>
			</trkpt>
			<trkpt lat="42.998987" lon="-1.601328">
				<ele>689</ele>
				<time>2018-04-28T14:07:44Z</time>
			</trkpt>
			<trkpt lat="42.998942" lon="-1.601407">
				<ele>689</ele>
				<time>2018-04-28T14:07:47Z</time>
			</trkpt>
			<trkpt lat="42.998909" lon="-1.601462">
				<ele>689</ele>
				<time>2018-04-28T14:07:49Z</time>
			</trkpt>
			<trkpt lat="42.998873" lon="-1.601518">
				<ele>689</ele>
				<time>2018-04-28T14:07:51Z</time>
			</trkpt>
			<trkpt lat="42.998825" lon="-1.601589">
				<ele>689</ele>
				<time>2018-04-28T14:07:54Z</time>
			</trkpt>
			<trkpt lat="42.998784" lon="-1.601629">
				<ele>689</ele>
				<time>2018-04-28T14:07:56Z</time>
			</trkpt>
			<trkpt lat="42.998714" lon="-1.601647">
				<ele>689</ele>
				<time>2018-04-28T14:07:58Z</time>
			</trkpt>
			<trkpt lat="42.99866" lon="-1.601669">
				<ele>689</ele>
				<time>2018-04-28T14:08:00Z</time>
			</trkpt>
			<trkpt lat="42.998582" lon="-1.601687">
				<ele>689</ele>
				<time>2018-04-28T14:08:02Z</time>
			</trkpt>
			<trkpt lat="42.99852" lon="-1.601717">
				<ele>689</ele>
				<time>2018-04-28T14:08:04Z</time>
			</trkpt>
			<trkpt lat="42.998461" lon="-1.601746">
				<ele>689</ele>
				<time>2018-04-28T14:08:06Z</time>
			</trkpt>
			<trkpt lat="42.998404" lon="-1.601782">
				<ele>689</ele>
				<time>2018-04-28T14:08:08Z</time>
			</trkpt>
			<trkpt lat="42.998348" lon="-1.601826">
				<ele>689</ele>
				<time>2018-04-28T14:08:10Z</time>
			</trkpt>
			<trkpt lat="42.998295" lon="-1.601837">
				<ele>689</ele>
				<time>2018-04-28T14:08:12Z</time>
			</trkpt>
			<trkpt lat="42.998214" lon="-1.60184">
				<ele>689</ele>
				<time>2018-04-28T14:08:14Z</time>
			</trkpt>
			<trkpt lat="42.998136" lon="-1.601854">
				<ele>689</ele>
				<time>2018-04-28T14:08:16Z</time>
			</trkpt>
			<trkpt lat="42.99807" lon="-1.601875">
				<ele>689</ele>
				<time>2018-04-28T14:08:18Z</time>
			</trkpt>
			<trkpt lat="42.998004" lon="-1.601893">
				<ele>689</ele>
				<time>2018-04-28T14:08:20Z</time>
			</trkpt>
			<trkpt lat="42.99795" lon="-1.601918">
				<ele>689</ele>
				<time>2018-04-28T14:08:22Z</time>
			</trkpt>
			<trkpt lat="42.997899" lon="-1.601938">
				<ele>684</ele>
				<time>2018-04-28T14:08:24Z</time>
			</trkpt>
			<trkpt lat="42.997835" lon="-1.601954">
				<ele>684</ele>
				<time>2018-04-28T14:08:27Z</time>
			</trkpt>
			<trkpt lat="42.997788" lon="-1.601979">
				<ele>684</ele>
				<time>2018-04-28T14:08:29Z</time>
			</trkpt>
			<trkpt lat="42.997746" lon="-1.602034">
				<ele>684</ele>
				<time>2018-04-28T14:08:31Z</time>
			</trkpt>
			<trkpt lat="42.997703" lon="-1.602059">
				<ele>684</ele>
				<time>2018-04-28T14:08:33Z</time>
			</trkpt>
			<trkpt lat="42.997647" lon="-1.602103">
				<ele>670</ele>
				<time>2018-04-28T14:08:36Z</time>
			</trkpt>
			<trkpt lat="42.99759" lon="-1.602129">
				<ele>670</ele>
				<time>2018-04-28T14:08:38Z</time>
			</trkpt>
			<trkpt lat="42.997533" lon="-1.602159">
				<ele>670</ele>
				<time>2018-04-28T14:08:40Z</time>
			</trkpt>
			<trkpt lat="42.99748" lon="-1.602185">
				<ele>670</ele>
				<time>2018-04-28T14:08:42Z</time>
			</trkpt>
			<trkpt lat="42.997424" lon="-1.602195">
				<ele>670</ele>
				<time>2018-04-28T14:08:44Z</time>
			</trkpt>
			<trkpt lat="42.997368" lon="-1.602206">
				<ele>670</ele>
				<time>2018-04-28T14:08:46Z</time>
			</trkpt>
			<trkpt lat="42.997306" lon="-1.602227">
				<ele>670</ele>
				<time>2018-04-28T14:08:48Z</time>
			</trkpt>
			<trkpt lat="42.99725" lon="-1.602252">
				<ele>670</ele>
				<time>2018-04-28T14:08:50Z</time>
			</trkpt>
			<trkpt lat="42.997205" lon="-1.602251">
				<ele>670</ele>
				<time>2018-04-28T14:08:52Z</time>
			</trkpt>
			<trkpt lat="42.997135" lon="-1.602268">
				<ele>670</ele>
				<time>2018-04-28T14:08:55Z</time>
			</trkpt>
			<trkpt lat="42.997077" lon="-1.602276">
				<ele>670</ele>
				<time>2018-04-28T14:08:57Z</time>
			</trkpt>
			<trkpt lat="42.997024" lon="-1.602288">
				<ele>670</ele>
				<time>2018-04-28T14:08:59Z</time>
			</trkpt>
			<trkpt lat="42.99698" lon="-1.602304">
				<ele>670</ele>
				<time>2018-04-28T14:09:01Z</time>
			</trkpt>
			<trkpt lat="42.996916" lon="-1.602307">
				<ele>670</ele>
				<time>2018-04-28T14:09:04Z</time>
			</trkpt>
			<trkpt lat="42.996862" lon="-1.60233">
				<ele>670</ele>
				<time>2018-04-28T14:09:06Z</time>
			</trkpt>
			<trkpt lat="42.996817" lon="-1.602358">
				<ele>670</ele>
				<time>2018-04-28T14:09:08Z</time>
			</trkpt>
			<trkpt lat="42.996774" lon="-1.602379">
				<ele>670</ele>
				<time>2018-04-28T14:09:10Z</time>
			</trkpt>
			<trkpt lat="42.996718" lon="-1.602406">
				<ele>670</ele>
				<time>2018-04-28T14:09:12Z</time>
			</trkpt>
			<trkpt lat="42.996666" lon="-1.60244">
				<ele>670</ele>
				<time>2018-04-28T14:09:14Z</time>
			</trkpt>
			<trkpt lat="42.996614" lon="-1.602481">
				<ele>670</ele>
				<time>2018-04-28T14:09:16Z</time>
			</trkpt>
			<trkpt lat="42.996565" lon="-1.602498">
				<ele>670</ele>
				<time>2018-04-28T14:09:18Z</time>
			</trkpt>
			<trkpt lat="42.99652" lon="-1.602528">
				<ele>670</ele>
				<time>2018-04-28T14:09:20Z</time>
			</trkpt>
			<trkpt lat="42.996473" lon="-1.60256">
				<ele>670</ele>
				<time>2018-04-28T14:09:22Z</time>
			</trkpt>
			<trkpt lat="42.996426" lon="-1.602569">
				<ele>670</ele>
				<time>2018-04-28T14:09:25Z</time>
			</trkpt>
			<trkpt lat="42.996388" lon="-1.602616">
				<ele>670</ele>
				<time>2018-04-28T14:09:29Z</time>
			</trkpt>
			<trkpt lat="42.996379" lon="-1.602691">
				<ele>670</ele>
				<time>2018-04-28T14:09:32Z</time>
			</trkpt>
			<trkpt lat="42.996367" lon="-1.602779">
				<ele>670</ele>
				<time>2018-04-28T14:09:36Z</time>
			</trkpt>
			<trkpt lat="42.996349" lon="-1.602857">
				<ele>670</ele>
				<time>2018-04-28T14:09:40Z</time>
			</trkpt>
			<trkpt lat="42.996329" lon="-1.602922">
				<ele>670</ele>
				<time>2018-04-28T14:09:43Z</time>
			</trkpt>
			<trkpt lat="42.996313" lon="-1.603004">
				<ele>670</ele>
				<time>2018-04-28T14:09:46Z</time>
			</trkpt>
			<trkpt lat="42.996299" lon="-1.603065">
				<ele>670</ele>
				<time>2018-04-28T14:09:49Z</time>
			</trkpt>
			<trkpt lat="42.996281" lon="-1.603125">
				<ele>670</ele>
				<time>2018-04-28T14:09:51Z</time>
			</trkpt>
			<trkpt lat="42.99628" lon="-1.603213">
				<ele>670</ele>
				<time>2018-04-28T14:09:55Z</time>
			</trkpt>
			<trkpt lat="42.996267" lon="-1.603282">
				<ele>670</ele>
				<time>2018-04-28T14:09:58Z</time>
			</trkpt>
			<trkpt lat="42.996252" lon="-1.603351">
				<ele>670</ele>
				<time>2018-04-28T14:10:01Z</time>
			</trkpt>
			<trkpt lat="42.996245" lon="-1.60342">
				<ele>670</ele>
				<time>2018-04-28T14:10:04Z</time>
			</trkpt>
			<trkpt lat="42.996238" lon="-1.603487">
				<ele>670</ele>
				<time>2018-04-28T14:10:07Z</time>
			</trkpt>
			<trkpt lat="42.996231" lon="-1.603571">
				<ele>670</ele>
				<time>2018-04-28T14:10:09Z</time>
			</trkpt>
			<trkpt lat="42.996201" lon="-1.60362">
				<ele>670</ele>
				<time>2018-04-28T14:10:11Z</time>
			</trkpt>
			<trkpt lat="42.996171" lon="-1.603669">
				<ele>670</ele>
				<time>2018-04-28T14:10:13Z</time>
			</trkpt>
			<trkpt lat="42.996134" lon="-1.603715">
				<ele>670</ele>
				<time>2018-04-28T14:10:15Z</time>
			</trkpt>
			<trkpt lat="42.996091" lon="-1.603764">
				<ele>670</ele>
				<time>2018-04-28T14:10:17Z</time>
			</trkpt>
			<trkpt lat="42.99604" lon="-1.603817">
				<ele>670</ele>
				<time>2018-04-28T14:10:20Z</time>
			</trkpt>
			<trkpt lat="42.99598" lon="-1.603854">
				<ele>670</ele>
				<time>2018-04-28T14:10:23Z</time>
			</trkpt>
			<trkpt lat="42.99593" lon="-1.603867">
				<ele>670</ele>
				<time>2018-04-28T14:10:25Z</time>
			</trkpt>
			<trkpt lat="42.995879" lon="-1.603937">
				<ele>670</ele>
				<time>2018-04-28T14:10:28Z</time>
			</trkpt>
			<trkpt lat="42.995833" lon="-1.603977">
				<ele>688</ele>
				<time>2018-04-28T14:10:31Z</time>
			</trkpt>
			<trkpt lat="42.995785" lon="-1.604013">
				<ele>688</ele>
				<time>2018-04-28T14:10:33Z</time>
			</trkpt>
			<trkpt lat="42.995743" lon="-1.60406">
				<ele>688</ele>
				<time>2018-04-28T14:10:35Z</time>
			</trkpt>
			<trkpt lat="42.995697" lon="-1.604095">
				<ele>688</ele>
				<time>2018-04-28T14:10:37Z</time>
			</trkpt>
			<trkpt lat="42.995654" lon="-1.604126">
				<ele>688</ele>
				<time>2018-04-28T14:10:39Z</time>
			</trkpt>
			<trkpt lat="42.995614" lon="-1.604159">
				<ele>688</ele>
				<time>2018-04-28T14:10:41Z</time>
			</trkpt>
			<trkpt lat="42.995555" lon="-1.604178">
				<ele>666</ele>
				<time>2018-04-28T14:10:44Z</time>
			</trkpt>
			<trkpt lat="42.995498" lon="-1.604158">
				<ele>688</ele>
				<time>2018-04-28T14:10:47Z</time>
			</trkpt>
			<trkpt lat="42.995436" lon="-1.604156">
				<ele>688</ele>
				<time>2018-04-28T14:10:50Z</time>
			</trkpt>
			<trkpt lat="42.995367" lon="-1.604162">
				<ele>688</ele>
				<time>2018-04-28T14:10:53Z</time>
			</trkpt>
			<trkpt lat="42.995314" lon="-1.604174">
				<ele>666</ele>
				<time>2018-04-28T14:10:55Z</time>
			</trkpt>
			<trkpt lat="42.995258" lon="-1.604207">
				<ele>666</ele>
				<time>2018-04-28T14:10:57Z</time>
			</trkpt>
			<trkpt lat="42.99521" lon="-1.604211">
				<ele>666</ele>
				<time>2018-04-28T14:10:59Z</time>
			</trkpt>
			<trkpt lat="42.995161" lon="-1.604233">
				<ele>666</ele>
				<time>2018-04-28T14:11:01Z</time>
			</trkpt>
			<trkpt lat="42.995098" lon="-1.604265">
				<ele>666</ele>
				<time>2018-04-28T14:11:04Z</time>
			</trkpt>
			<trkpt lat="42.995059" lon="-1.60432">
				<ele>666</ele>
				<time>2018-04-28T14:11:07Z</time>
			</trkpt>
			<trkpt lat="42.995017" lon="-1.604381">
				<ele>666</ele>
				<time>2018-04-28T14:11:10Z</time>
			</trkpt>
			<trkpt lat="42.994972" lon="-1.604422">
				<ele>666</ele>
				<time>2018-04-28T14:11:12Z</time>
			</trkpt>
			<trkpt lat="42.994928" lon="-1.604447">
				<ele>666</ele>
				<time>2018-04-28T14:11:14Z</time>
			</trkpt>
			<trkpt lat="42.994879" lon="-1.604484">
				<ele>666</ele>
				<time>2018-04-28T14:11:18Z</time>
			</trkpt>
			<trkpt lat="42.994832" lon="-1.604547">
				<ele>666</ele>
				<time>2018-04-28T14:11:21Z</time>
			</trkpt>
			<trkpt lat="42.994784" lon="-1.60458">
				<ele>666</ele>
				<time>2018-04-28T14:11:25Z</time>
			</trkpt>
			<trkpt lat="42.994748" lon="-1.604638">
				<ele>666</ele>
				<time>2018-04-28T14:11:32Z</time>
			</trkpt>
			<trkpt lat="42.994702" lon="-1.604691">
				<ele>666</ele>
				<time>2018-04-28T14:11:36Z</time>
			</trkpt>
			<trkpt lat="42.994644" lon="-1.604741">
				<ele>666</ele>
				<time>2018-04-28T14:11:40Z</time>
			</trkpt>
			<trkpt lat="42.994605" lon="-1.604781">
				<ele>666</ele>
				<time>2018-04-28T14:11:45Z</time>
			</trkpt>
			<trkpt lat="42.994553" lon="-1.604796">
				<ele>666</ele>
				<time>2018-04-28T14:11:54Z</time>
			</trkpt>
			<trkpt lat="42.994504" lon="-1.604811">
				<ele>666</ele>
				<time>2018-04-28T14:11:58Z</time>
			</trkpt>
			<trkpt lat="42.994462" lon="-1.604847">
				<ele>666</ele>
				<time>2018-04-28T14:12:02Z</time>
			</trkpt>
			<trkpt lat="42.994414" lon="-1.604866">
				<ele>666</ele>
				<time>2018-04-28T14:12:06Z</time>
			</trkpt>
			<trkpt lat="42.994372" lon="-1.60492">
				<ele>666</ele>
				<time>2018-04-28T14:12:10Z</time>
			</trkpt>
			<trkpt lat="42.994328" lon="-1.604973">
				<ele>666</ele>
				<time>2018-04-28T14:12:15Z</time>
			</trkpt>
			<trkpt lat="42.994279" lon="-1.605033">
				<ele>666</ele>
				<time>2018-04-28T14:12:20Z</time>
			</trkpt>
			<trkpt lat="42.994284" lon="-1.605108">
				<ele>666</ele>
				<time>2018-04-28T14:12:24Z</time>
			</trkpt>
			<trkpt lat="42.994262" lon="-1.605181">
				<ele>666</ele>
				<time>2018-04-28T14:12:29Z</time>
			</trkpt>
			<trkpt lat="42.994216" lon="-1.605238">
				<ele>666</ele>
				<time>2018-04-28T14:12:33Z</time>
			</trkpt>
			<trkpt lat="42.994175" lon="-1.605272">
				<ele>666</ele>
				<time>2018-04-28T14:12:39Z</time>
			</trkpt>
			<trkpt lat="42.994132" lon="-1.605252">
				<ele>666</ele>
				<time>2018-04-28T14:12:43Z</time>
			</trkpt>
			<trkpt lat="42.994084" lon="-1.60524">
				<ele>666</ele>
				<time>2018-04-28T14:12:46Z</time>
			</trkpt>
			<trkpt lat="42.994033" lon="-1.605266">
				<ele>666</ele>
				<time>2018-04-28T14:12:58Z</time>
			</trkpt>
			<trkpt lat="42.993977" lon="-1.605277">
				<ele>666</ele>
				<time>2018-04-28T14:13:03Z</time>
			</trkpt>
			<trkpt lat="42.993921" lon="-1.605275">
				<ele>666</ele>
				<time>2018-04-28T14:13:10Z</time>
			</trkpt>
			<trkpt lat="42.993865" lon="-1.605286">
				<ele>666</ele>
				<time>2018-04-28T14:13:16Z</time>
			</trkpt>
			<trkpt lat="42.993817" lon="-1.605296">
				<ele>666</ele>
				<time>2018-04-28T14:13:18Z</time>
			</trkpt>
			<trkpt lat="42.993767" lon="-1.605315">
				<ele>666</ele>
				<time>2018-04-28T14:13:20Z</time>
			</trkpt>
			<trkpt lat="42.993714" lon="-1.605335">
				<ele>694</ele>
				<time>2018-04-28T14:13:23Z</time>
			</trkpt>
			<trkpt lat="42.993667" lon="-1.60534">
				<ele>694</ele>
				<time>2018-04-28T14:13:26Z</time>
			</trkpt>
			<trkpt lat="42.99361" lon="-1.605366">
				<ele>694</ele>
				<time>2018-04-28T14:13:29Z</time>
			</trkpt>
			<trkpt lat="42.993587" lon="-1.605436">
				<ele>694</ele>
				<time>2018-04-28T14:13:33Z</time>
			</trkpt>
			<trkpt lat="42.993546" lon="-1.60549">
				<ele>694</ele>
				<time>2018-04-28T14:13:38Z</time>
			</trkpt>
			<trkpt lat="42.993506" lon="-1.60553">
				<ele>694</ele>
				<time>2018-04-28T14:13:42Z</time>
			</trkpt>
			<trkpt lat="42.993449" lon="-1.605566">
				<ele>694</ele>
				<time>2018-04-28T14:13:46Z</time>
			</trkpt>
			<trkpt lat="42.993399" lon="-1.605563">
				<ele>694</ele>
				<time>2018-04-28T14:13:49Z</time>
			</trkpt>
			<trkpt lat="42.993351" lon="-1.605539">
				<ele>694</ele>
				<time>2018-04-28T14:13:52Z</time>
			</trkpt>
			<trkpt lat="42.993291" lon="-1.605514">
				<ele>694</ele>
				<time>2018-04-28T14:13:56Z</time>
			</trkpt>
			<trkpt lat="42.993235" lon="-1.605485">
				<ele>694</ele>
				<time>2018-04-28T14:14:00Z</time>
			</trkpt>
			<trkpt lat="42.993175" lon="-1.605471">
				<ele>694</ele>
				<time>2018-04-28T14:14:03Z</time>
			</trkpt>
			<trkpt lat="42.993141" lon="-1.605413">
				<ele>694</ele>
				<time>2018-04-28T14:14:08Z</time>
			</trkpt>
			<trkpt lat="42.993103" lon="-1.605374">
				<ele>694</ele>
				<time>2018-04-28T14:14:12Z</time>
			</trkpt>
			<trkpt lat="42.993058" lon="-1.605338">
				<ele>694</ele>
				<time>2018-04-28T14:14:17Z</time>
			</trkpt>
			<trkpt lat="42.99304" lon="-1.605269">
				<ele>694</ele>
				<time>2018-04-28T14:14:22Z</time>
			</trkpt>
			<trkpt lat="42.993" lon="-1.605224">
				<ele>694</ele>
				<time>2018-04-28T14:14:27Z</time>
			</trkpt>
			<trkpt lat="42.992955" lon="-1.605198">
				<ele>694</ele>
				<time>2018-04-28T14:14:30Z</time>
			</trkpt>
			<trkpt lat="42.992903" lon="-1.605192">
				<ele>694</ele>
				<time>2018-04-28T14:14:34Z</time>
			</trkpt>
			<trkpt lat="42.992857" lon="-1.605151">
				<ele>694</ele>
				<time>2018-04-28T14:14:38Z</time>
			</trkpt>
			<trkpt lat="42.992816" lon="-1.605118">
				<ele>694</ele>
				<time>2018-04-28T14:14:42Z</time>
			</trkpt>
			<trkpt lat="42.992775" lon="-1.605065">
				<ele>694</ele>
				<time>2018-04-28T14:14:47Z</time>
			</trkpt>
			<trkpt lat="42.99273" lon="-1.605017">
				<ele>694</ele>
				<time>2018-04-28T14:14:53Z</time>
			</trkpt>
			<trkpt lat="42.992701" lon="-1.604956">
				<ele>694</ele>
				<time>2018-04-28T14:14:59Z</time>
			</trkpt>
			<trkpt lat="42.992653" lon="-1.604922">
				<ele>694</ele>
				<time>2018-04-28T14:15:10Z</time>
			</trkpt>
			<trkpt lat="42.992607" lon="-1.604876">
				<ele>694</ele>
				<time>2018-04-28T14:15:17Z</time>
			</trkpt>
			<trkpt lat="42.992571" lon="-1.604831">
				<ele>694</ele>
				<time>2018-04-28T14:15:32Z</time>
			</trkpt>
			<trkpt lat="42.992536" lon="-1.60479">
				<ele>694</ele>
				<time>2018-04-28T14:15:41Z</time>
			</trkpt>
			<trkpt lat="42.992488" lon="-1.604766">
				<ele>694</ele>
				<time>2018-04-28T14:15:52Z</time>
			</trkpt>
			<trkpt lat="42.992441" lon="-1.604732">
				<ele>694</ele>
				<time>2018-04-28T14:16:05Z</time>
			</trkpt>
			<trkpt lat="42.992386" lon="-1.6047">
				<ele>694</ele>
				<time>2018-04-28T14:16:10Z</time>
			</trkpt>
			<trkpt lat="42.992334" lon="-1.604666">
				<ele>694</ele>
				<time>2018-04-28T14:16:16Z</time>
			</trkpt>
			<trkpt lat="42.99229" lon="-1.604651">
				<ele>694</ele>
				<time>2018-04-28T14:16:26Z</time>
			</trkpt>
			<trkpt lat="42.992247" lon="-1.604619">
				<ele>694</ele>
				<time>2018-04-28T14:16:29Z</time>
			</trkpt>
			<trkpt lat="42.992204" lon="-1.604594">
				<ele>694</ele>
				<time>2018-04-28T14:16:47Z</time>
			</trkpt>
			<trkpt lat="42.992141" lon="-1.604559">
				<ele>694</ele>
				<time>2018-04-28T14:16:55Z</time>
			</trkpt>
			<trkpt lat="42.992115" lon="-1.604482">
				<ele>694</ele>
				<time>2018-04-28T14:16:59Z</time>
			</trkpt>
			<trkpt lat="42.992061" lon="-1.604453">
				<ele>694</ele>
				<time>2018-04-28T14:17:02Z</time>
			</trkpt>
			<trkpt lat="42.99202" lon="-1.604425">
				<ele>694</ele>
				<time>2018-04-28T14:17:06Z</time>
			</trkpt>
			<trkpt lat="42.991972" lon="-1.604419">
				<ele>694</ele>
				<time>2018-04-28T14:17:10Z</time>
			</trkpt>
			<trkpt lat="42.991921" lon="-1.604391">
				<ele>694</ele>
				<time>2018-04-28T14:17:15Z</time>
			</trkpt>
			<trkpt lat="42.991882" lon="-1.604343">
				<ele>694</ele>
				<time>2018-04-28T14:17:24Z</time>
			</trkpt>
			<trkpt lat="42.991838" lon="-1.604316">
				<ele>694</ele>
				<time>2018-04-28T14:17:31Z</time>
			</trkpt>
			<trkpt lat="42.991783" lon="-1.604296">
				<ele>694</ele>
				<time>2018-04-28T14:17:33Z</time>
			</trkpt>
			<trkpt lat="42.991726" lon="-1.604277">
				<ele>694</ele>
				<time>2018-04-28T14:17:36Z</time>
			</trkpt>
			<trkpt lat="42.991678" lon="-1.604232">
				<ele>694</ele>
				<time>2018-04-28T14:17:39Z</time>
			</trkpt>
			<trkpt lat="42.991598" lon="-1.604208">
				<ele>714</ele>
				<time>2018-04-28T14:17:41Z</time>
			</trkpt>
			<trkpt lat="42.991555" lon="-1.604186">
				<ele>714</ele>
				<time>2018-04-28T14:17:43Z</time>
			</trkpt>
			<trkpt lat="42.991523" lon="-1.604112">
				<ele>761</ele>
				<time>2018-04-28T14:17:47Z</time>
			</trkpt>
			<trkpt lat="42.991488" lon="-1.60406">
				<ele>761</ele>
				<time>2018-04-28T14:17:50Z</time>
			</trkpt>
			<trkpt lat="42.991451" lon="-1.604011">
				<ele>761</ele>
				<time>2018-04-28T14:17:55Z</time>
			</trkpt>
			<trkpt lat="42.991405" lon="-1.60397">
				<ele>761</ele>
				<time>2018-04-28T14:17:58Z</time>
			</trkpt>
			<trkpt lat="42.991365" lon="-1.603934">
				<ele>761</ele>
				<time>2018-04-28T14:18:01Z</time>
			</trkpt>
			<trkpt lat="42.991325" lon="-1.603896">
				<ele>761</ele>
				<time>2018-04-28T14:18:06Z</time>
			</trkpt>
			<trkpt lat="42.991285" lon="-1.603862">
				<ele>761</ele>
				<time>2018-04-28T14:18:09Z</time>
			</trkpt>
			<trkpt lat="42.991198" lon="-1.603813">
				<ele>761</ele>
				<time>2018-04-28T14:18:14Z</time>
			</trkpt>
			<trkpt lat="42.991144" lon="-1.603813">
				<ele>761</ele>
				<time>2018-04-28T14:18:17Z</time>
			</trkpt>
			<trkpt lat="42.991098" lon="-1.603841">
				<ele>761</ele>
				<time>2018-04-28T14:18:22Z</time>
			</trkpt>
			<trkpt lat="42.991046" lon="-1.603836">
				<ele>761</ele>
				<time>2018-04-28T14:18:24Z</time>
			</trkpt>
			<trkpt lat="42.990981" lon="-1.603824">
				<ele>761</ele>
				<time>2018-04-28T14:18:27Z</time>
			</trkpt>
			<trkpt lat="42.990929" lon="-1.603806">
				<ele>761</ele>
				<time>2018-04-28T14:18:30Z</time>
			</trkpt>
			<trkpt lat="42.990884" lon="-1.60378">
				<ele>761</ele>
				<time>2018-04-28T14:18:32Z</time>
			</trkpt>
			<trkpt lat="42.990833" lon="-1.603767">
				<ele>761</ele>
				<time>2018-04-28T14:18:35Z</time>
			</trkpt>
			<trkpt lat="42.9908" lon="-1.603722">
				<ele>761</ele>
				<time>2018-04-28T14:18:38Z</time>
			</trkpt>
			<trkpt lat="42.990748" lon="-1.603702">
				<ele>761</ele>
				<time>2018-04-28T14:18:42Z</time>
			</trkpt>
			<trkpt lat="42.990704" lon="-1.603675">
				<ele>761</ele>
				<time>2018-04-28T14:18:47Z</time>
			</trkpt>
			<trkpt lat="42.990656" lon="-1.603645">
				<ele>761</ele>
				<time>2018-04-28T14:18:51Z</time>
			</trkpt>
			<trkpt lat="42.990612" lon="-1.603628">
				<ele>761</ele>
				<time>2018-04-28T14:18:56Z</time>
			</trkpt>
			<trkpt lat="42.990595" lon="-1.60355">
				<ele>761</ele>
				<time>2018-04-28T14:19:00Z</time>
			</trkpt>
			<trkpt lat="42.990562" lon="-1.603497">
				<ele>761</ele>
				<time>2018-04-28T14:19:03Z</time>
			</trkpt>
			<trkpt lat="42.990517" lon="-1.603471">
				<ele>761</ele>
				<time>2018-04-28T14:19:08Z</time>
			</trkpt>
			<trkpt lat="42.990487" lon="-1.603425">
				<ele>761</ele>
				<time>2018-04-28T14:19:13Z</time>
			</trkpt>
			<trkpt lat="42.990463" lon="-1.603371">
				<ele>761</ele>
				<time>2018-04-28T14:19:19Z</time>
			</trkpt>
			<trkpt lat="42.990432" lon="-1.603325">
				<ele>761</ele>
				<time>2018-04-28T14:19:25Z</time>
			</trkpt>
			<trkpt lat="42.990387" lon="-1.603301">
				<ele>761</ele>
				<time>2018-04-28T14:19:31Z</time>
			</trkpt>
			<trkpt lat="42.990345" lon="-1.603267">
				<ele>761</ele>
				<time>2018-04-28T14:19:36Z</time>
			</trkpt>
			<trkpt lat="42.990294" lon="-1.603251">
				<ele>761</ele>
				<time>2018-04-28T14:19:44Z</time>
			</trkpt>
			<trkpt lat="42.990249" lon="-1.603257">
				<ele>761</ele>
				<time>2018-04-28T14:19:49Z</time>
			</trkpt>
			<trkpt lat="42.990201" lon="-1.603251">
				<ele>761</ele>
				<time>2018-04-28T14:19:54Z</time>
			</trkpt>
			<trkpt lat="42.990156" lon="-1.603265">
				<ele>761</ele>
				<time>2018-04-28T14:20:01Z</time>
			</trkpt>
			<trkpt lat="42.99011" lon="-1.603294">
				<ele>761</ele>
				<time>2018-04-28T14:20:05Z</time>
			</trkpt>
			<trkpt lat="42.99006" lon="-1.603331">
				<ele>761</ele>
				<time>2018-04-28T14:20:10Z</time>
			</trkpt>
			<trkpt lat="42.990018" lon="-1.603361">
				<ele>761</ele>
				<time>2018-04-28T14:20:15Z</time>
			</trkpt>
			<trkpt lat="42.989975" lon="-1.603389">
				<ele>761</ele>
				<time>2018-04-28T14:20:19Z</time>
			</trkpt>
			<trkpt lat="42.98992" lon="-1.603411">
				<ele>761</ele>
				<time>2018-04-28T14:20:22Z</time>
			</trkpt>
			<trkpt lat="42.98986" lon="-1.603401">
				<ele>761</ele>
				<time>2018-04-28T14:20:26Z</time>
			</trkpt>
			<trkpt lat="42.989801" lon="-1.603407">
				<ele>761</ele>
				<time>2018-04-28T14:20:31Z</time>
			</trkpt>
			<trkpt lat="42.989755" lon="-1.603419">
				<ele>761</ele>
				<time>2018-04-28T14:20:34Z</time>
			</trkpt>
			<trkpt lat="42.9897" lon="-1.603439">
				<ele>761</ele>
				<time>2018-04-28T14:20:38Z</time>
			</trkpt>
			<trkpt lat="42.989657" lon="-1.603466">
				<ele>761</ele>
				<time>2018-04-28T14:20:41Z</time>
			</trkpt>
			<trkpt lat="42.989613" lon="-1.603486">
				<ele>761</ele>
				<time>2018-04-28T14:20:45Z</time>
			</trkpt>
			<trkpt lat="42.98957" lon="-1.603522">
				<ele>723</ele>
				<time>2018-04-28T14:20:49Z</time>
			</trkpt>
			<trkpt lat="42.989534" lon="-1.603571">
				<ele>723</ele>
				<time>2018-04-28T14:20:53Z</time>
			</trkpt>
			<trkpt lat="42.989505" lon="-1.603625">
				<ele>723</ele>
				<time>2018-04-28T14:20:58Z</time>
			</trkpt>
			<trkpt lat="42.989463" lon="-1.603689">
				<ele>723</ele>
				<time>2018-04-28T14:21:01Z</time>
			</trkpt>
			<trkpt lat="42.989433" lon="-1.603764">
				<ele>723</ele>
				<time>2018-04-28T14:21:04Z</time>
			</trkpt>
			<trkpt lat="42.989397" lon="-1.60383">
				<ele>723</ele>
				<time>2018-04-28T14:21:07Z</time>
			</trkpt>
			<trkpt lat="42.989377" lon="-1.60389">
				<ele>723</ele>
				<time>2018-04-28T14:21:09Z</time>
			</trkpt>
			<trkpt lat="42.989341" lon="-1.603957">
				<ele>723</ele>
				<time>2018-04-28T14:21:12Z</time>
			</trkpt>
			<trkpt lat="42.989311" lon="-1.604012">
				<ele>723</ele>
				<time>2018-04-28T14:21:14Z</time>
			</trkpt>
			<trkpt lat="42.989284" lon="-1.604073">
				<ele>723</ele>
				<time>2018-04-28T14:21:16Z</time>
			</trkpt>
			<trkpt lat="42.989274" lon="-1.604137">
				<ele>723</ele>
				<time>2018-04-28T14:21:18Z</time>
			</trkpt>
			<trkpt lat="42.989239" lon="-1.604217">
				<ele>724</ele>
				<time>2018-04-28T14:21:21Z</time>
			</trkpt>
			<trkpt lat="42.989219" lon="-1.604285">
				<ele>724</ele>
				<time>2018-04-28T14:21:23Z</time>
			</trkpt>
			<trkpt lat="42.989199" lon="-1.604343">
				<ele>724</ele>
				<time>2018-04-28T14:21:25Z</time>
			</trkpt>
			<trkpt lat="42.989173" lon="-1.604409">
				<ele>724</ele>
				<time>2018-04-28T14:21:27Z</time>
			</trkpt>
			<trkpt lat="42.989138" lon="-1.604478">
				<ele>724</ele>
				<time>2018-04-28T14:21:30Z</time>
			</trkpt>
			<trkpt lat="42.98912" lon="-1.604539">
				<ele>724</ele>
				<time>2018-04-28T14:21:32Z</time>
			</trkpt>
			<trkpt lat="42.989101" lon="-1.604626">
				<ele>724</ele>
				<time>2018-04-28T14:21:35Z</time>
			</trkpt>
			<trkpt lat="42.989073" lon="-1.604704">
				<ele>724</ele>
				<time>2018-04-28T14:21:38Z</time>
			</trkpt>
			<trkpt lat="42.98906" lon="-1.604764">
				<ele>724</ele>
				<time>2018-04-28T14:21:40Z</time>
			</trkpt>
			<trkpt lat="42.989039" lon="-1.60485">
				<ele>724</ele>
				<time>2018-04-28T14:21:43Z</time>
			</trkpt>
			<trkpt lat="42.989029" lon="-1.604913">
				<ele>724</ele>
				<time>2018-04-28T14:21:45Z</time>
			</trkpt>
			<trkpt lat="42.989006" lon="-1.604972">
				<ele>724</ele>
				<time>2018-04-28T14:21:47Z</time>
			</trkpt>
			<trkpt lat="42.988971" lon="-1.605027">
				<ele>724</ele>
				<time>2018-04-28T14:21:49Z</time>
			</trkpt>
			<trkpt lat="42.988941" lon="-1.605083">
				<ele>724</ele>
				<time>2018-04-28T14:21:51Z</time>
			</trkpt>
			<trkpt lat="42.988901" lon="-1.605154">
				<ele>724</ele>
				<time>2018-04-28T14:21:54Z</time>
			</trkpt>
			<trkpt lat="42.988874" lon="-1.605213">
				<ele>724</ele>
				<time>2018-04-28T14:21:56Z</time>
			</trkpt>
			<trkpt lat="42.988842" lon="-1.605292">
				<ele>724</ele>
				<time>2018-04-28T14:21:59Z</time>
			</trkpt>
			<trkpt lat="42.988817" lon="-1.605345">
				<ele>724</ele>
				<time>2018-04-28T14:22:01Z</time>
			</trkpt>
			<trkpt lat="42.98879" lon="-1.605404">
				<ele>724</ele>
				<time>2018-04-28T14:22:03Z</time>
			</trkpt>
			<trkpt lat="42.988763" lon="-1.605462">
				<ele>724</ele>
				<time>2018-04-28T14:22:05Z</time>
			</trkpt>
			<trkpt lat="42.988736" lon="-1.605513">
				<ele>724</ele>
				<time>2018-04-28T14:22:07Z</time>
			</trkpt>
			<trkpt lat="42.988711" lon="-1.605572">
				<ele>724</ele>
				<time>2018-04-28T14:22:09Z</time>
			</trkpt>
			<trkpt lat="42.988685" lon="-1.605623">
				<ele>724</ele>
				<time>2018-04-28T14:22:11Z</time>
			</trkpt>
			<trkpt lat="42.988663" lon="-1.605694">
				<ele>724</ele>
				<time>2018-04-28T14:22:14Z</time>
			</trkpt>
			<trkpt lat="42.988622" lon="-1.605748">
				<ele>724</ele>
				<time>2018-04-28T14:22:17Z</time>
			</trkpt>
			<trkpt lat="42.988599" lon="-1.605806">
				<ele>724</ele>
				<time>2018-04-28T14:22:20Z</time>
			</trkpt>
			<trkpt lat="42.988578" lon="-1.605872">
				<ele>724</ele>
				<time>2018-04-28T14:22:23Z</time>
			</trkpt>
			<trkpt lat="42.988558" lon="-1.605954">
				<ele>724</ele>
				<time>2018-04-28T14:22:26Z</time>
			</trkpt>
			<trkpt lat="42.988546" lon="-1.606013">
				<ele>724</ele>
				<time>2018-04-28T14:22:28Z</time>
			</trkpt>
			<trkpt lat="42.988534" lon="-1.60608">
				<ele>724</ele>
				<time>2018-04-28T14:22:31Z</time>
			</trkpt>
			<trkpt lat="42.988535" lon="-1.606147">
				<ele>724</ele>
				<time>2018-04-28T14:22:34Z</time>
			</trkpt>
			<trkpt lat="42.98853" lon="-1.606216">
				<ele>724</ele>
				<time>2018-04-28T14:22:37Z</time>
			</trkpt>
			<trkpt lat="42.988531" lon="-1.606302">
				<ele>714</ele>
				<time>2018-04-28T14:22:41Z</time>
			</trkpt>
			<trkpt lat="42.988522" lon="-1.606363">
				<ele>714</ele>
				<time>2018-04-28T14:22:43Z</time>
			</trkpt>
			<trkpt lat="42.988507" lon="-1.606429">
				<ele>714</ele>
				<time>2018-04-28T14:22:45Z</time>
			</trkpt>
			<trkpt lat="42.988463" lon="-1.606474">
				<ele>714</ele>
				<time>2018-04-28T14:22:48Z</time>
			</trkpt>
			<trkpt lat="42.988418" lon="-1.606505">
				<ele>714</ele>
				<time>2018-04-28T14:22:50Z</time>
			</trkpt>
			<trkpt lat="42.988375" lon="-1.606542">
				<ele>714</ele>
				<time>2018-04-28T14:22:53Z</time>
			</trkpt>
			<trkpt lat="42.988334" lon="-1.606569">
				<ele>714</ele>
				<time>2018-04-28T14:22:55Z</time>
			</trkpt>
			<trkpt lat="42.988291" lon="-1.606592">
				<ele>714</ele>
				<time>2018-04-28T14:22:57Z</time>
			</trkpt>
			<trkpt lat="42.988243" lon="-1.606633">
				<ele>714</ele>
				<time>2018-04-28T14:22:59Z</time>
			</trkpt>
			<trkpt lat="42.988193" lon="-1.606677">
				<ele>714</ele>
				<time>2018-04-28T14:23:01Z</time>
			</trkpt>
			<trkpt lat="42.988147" lon="-1.606708">
				<ele>714</ele>
				<time>2018-04-28T14:23:03Z</time>
			</trkpt>
			<trkpt lat="42.988093" lon="-1.606717">
				<ele>714</ele>
				<time>2018-04-28T14:23:06Z</time>
			</trkpt>
			<trkpt lat="42.988036" lon="-1.606711">
				<ele>714</ele>
				<time>2018-04-28T14:23:09Z</time>
			</trkpt>
			<trkpt lat="42.987975" lon="-1.60672">
				<ele>714</ele>
				<time>2018-04-28T14:23:12Z</time>
			</trkpt>
			<trkpt lat="42.987912" lon="-1.606731">
				<ele>714</ele>
				<time>2018-04-28T14:23:14Z</time>
			</trkpt>
			<trkpt lat="42.987847" lon="-1.606746">
				<ele>714</ele>
				<time>2018-04-28T14:23:16Z</time>
			</trkpt>
			<trkpt lat="42.987803" lon="-1.606769">
				<ele>714</ele>
				<time>2018-04-28T14:23:18Z</time>
			</trkpt>
			<trkpt lat="42.987752" lon="-1.606781">
				<ele>714</ele>
				<time>2018-04-28T14:23:21Z</time>
			</trkpt>
			<trkpt lat="42.987695" lon="-1.606823">
				<ele>714</ele>
				<time>2018-04-28T14:23:24Z</time>
			</trkpt>
			<trkpt lat="42.987652" lon="-1.606861">
				<ele>714</ele>
				<time>2018-04-28T14:23:27Z</time>
			</trkpt>
			<trkpt lat="42.987609" lon="-1.606918">
				<ele>714</ele>
				<time>2018-04-28T14:23:30Z</time>
			</trkpt>
			<trkpt lat="42.987587" lon="-1.606994">
				<ele>714</ele>
				<time>2018-04-28T14:23:33Z</time>
			</trkpt>
			<trkpt lat="42.987562" lon="-1.607054">
				<ele>714</ele>
				<time>2018-04-28T14:23:35Z</time>
			</trkpt>
			<trkpt lat="42.987532" lon="-1.607136">
				<ele>714</ele>
				<time>2018-04-28T14:23:38Z</time>
			</trkpt>
			<trkpt lat="42.987531" lon="-1.607225">
				<ele>714</ele>
				<time>2018-04-28T14:23:41Z</time>
			</trkpt>
			<trkpt lat="42.987509" lon="-1.607289">
				<ele>714</ele>
				<time>2018-04-28T14:23:43Z</time>
			</trkpt>
			<trkpt lat="42.987485" lon="-1.607368">
				<ele>672</ele>
				<time>2018-04-28T14:23:45Z</time>
			</trkpt>
			<trkpt lat="42.987447" lon="-1.607451">
				<ele>672</ele>
				<time>2018-04-28T14:23:48Z</time>
			</trkpt>
			<trkpt lat="42.987416" lon="-1.60753">
				<ele>672</ele>
				<time>2018-04-28T14:23:51Z</time>
			</trkpt>
			<trkpt lat="42.987389" lon="-1.607601">
				<ele>672</ele>
				<time>2018-04-28T14:23:54Z</time>
			</trkpt>
			<trkpt lat="42.987365" lon="-1.607659">
				<ele>672</ele>
				<time>2018-04-28T14:23:56Z</time>
			</trkpt>
			<trkpt lat="42.987344" lon="-1.607718">
				<ele>672</ele>
				<time>2018-04-28T14:23:58Z</time>
			</trkpt>
			<trkpt lat="42.987311" lon="-1.607795">
				<ele>672</ele>
				<time>2018-04-28T14:24:01Z</time>
			</trkpt>
			<trkpt lat="42.987279" lon="-1.607857">
				<ele>672</ele>
				<time>2018-04-28T14:24:04Z</time>
			</trkpt>
			<trkpt lat="42.98723" lon="-1.607905">
				<ele>672</ele>
				<time>2018-04-28T14:24:07Z</time>
			</trkpt>
			<trkpt lat="42.987169" lon="-1.607935">
				<ele>672</ele>
				<time>2018-04-28T14:24:10Z</time>
			</trkpt>
			<trkpt lat="42.987105" lon="-1.607972">
				<ele>672</ele>
				<time>2018-04-28T14:24:13Z</time>
			</trkpt>
			<trkpt lat="42.987047" lon="-1.608009">
				<ele>672</ele>
				<time>2018-04-28T14:24:16Z</time>
			</trkpt>
			<trkpt lat="42.986998" lon="-1.608066">
				<ele>672</ele>
				<time>2018-04-28T14:24:18Z</time>
			</trkpt>
			<trkpt lat="42.986947" lon="-1.608084">
				<ele>672</ele>
				<time>2018-04-28T14:24:21Z</time>
			</trkpt>
			<trkpt lat="42.986878" lon="-1.608065">
				<ele>672</ele>
				<time>2018-04-28T14:24:24Z</time>
			</trkpt>
			<trkpt lat="42.986821" lon="-1.608037">
				<ele>672</ele>
				<time>2018-04-28T14:24:27Z</time>
			</trkpt>
			<trkpt lat="42.986763" lon="-1.60805">
				<ele>672</ele>
				<time>2018-04-28T14:24:30Z</time>
			</trkpt>
			<trkpt lat="42.986727" lon="-1.608091">
				<ele>672</ele>
				<time>2018-04-28T14:24:32Z</time>
			</trkpt>
			<trkpt lat="42.986685" lon="-1.608136">
				<ele>672</ele>
				<time>2018-04-28T14:24:34Z</time>
			</trkpt>
			<trkpt lat="42.986645" lon="-1.608204">
				<ele>672</ele>
				<time>2018-04-28T14:24:37Z</time>
			</trkpt>
			<trkpt lat="42.986623" lon="-1.608258">
				<ele>672</ele>
				<time>2018-04-28T14:24:39Z</time>
			</trkpt>
			<trkpt lat="42.9866" lon="-1.608314">
				<ele>672</ele>
				<time>2018-04-28T14:24:41Z</time>
			</trkpt>
			<trkpt lat="42.986577" lon="-1.608379">
				<ele>688</ele>
				<time>2018-04-28T14:24:43Z</time>
			</trkpt>
			<trkpt lat="42.986556" lon="-1.60847">
				<ele>688</ele>
				<time>2018-04-28T14:24:46Z</time>
			</trkpt>
			<trkpt lat="42.986544" lon="-1.60855">
				<ele>688</ele>
				<time>2018-04-28T14:24:48Z</time>
			</trkpt>
			<trkpt lat="42.986525" lon="-1.608612">
				<ele>688</ele>
				<time>2018-04-28T14:24:50Z</time>
			</trkpt>
			<trkpt lat="42.986512" lon="-1.608696">
				<ele>688</ele>
				<time>2018-04-28T14:24:52Z</time>
			</trkpt>
			<trkpt lat="42.986502" lon="-1.608768">
				<ele>688</ele>
				<time>2018-04-28T14:24:54Z</time>
			</trkpt>
			<trkpt lat="42.986479" lon="-1.608823">
				<ele>688</ele>
				<time>2018-04-28T14:24:56Z</time>
			</trkpt>
			<trkpt lat="42.986455" lon="-1.608875">
				<ele>688</ele>
				<time>2018-04-28T14:25:00Z</time>
			</trkpt>
			<trkpt lat="42.986435" lon="-1.608935">
				<ele>688</ele>
				<time>2018-04-28T14:25:04Z</time>
			</trkpt>
			<trkpt lat="42.9864" lon="-1.608991">
				<ele>688</ele>
				<time>2018-04-28T14:25:09Z</time>
			</trkpt>
			<trkpt lat="42.986353" lon="-1.609035">
				<ele>688</ele>
				<time>2018-04-28T14:25:14Z</time>
			</trkpt>
			<trkpt lat="42.986317" lon="-1.609072">
				<ele>688</ele>
				<time>2018-04-28T14:25:17Z</time>
			</trkpt>
			<trkpt lat="42.986273" lon="-1.609096">
				<ele>688</ele>
				<time>2018-04-28T14:25:21Z</time>
			</trkpt>
			<trkpt lat="42.986218" lon="-1.609107">
				<ele>688</ele>
				<time>2018-04-28T14:25:27Z</time>
			</trkpt>
			<trkpt lat="42.98617" lon="-1.609131">
				<ele>688</ele>
				<time>2018-04-28T14:25:30Z</time>
			</trkpt>
			<trkpt lat="42.986113" lon="-1.609154">
				<ele>688</ele>
				<time>2018-04-28T14:25:33Z</time>
			</trkpt>
			<trkpt lat="42.986063" lon="-1.609173">
				<ele>688</ele>
				<time>2018-04-28T14:25:36Z</time>
			</trkpt>
			<trkpt lat="42.986014" lon="-1.6092">
				<ele>688</ele>
				<time>2018-04-28T14:25:40Z</time>
			</trkpt>
			<trkpt lat="42.985979" lon="-1.60924">
				<ele>688</ele>
				<time>2018-04-28T14:25:44Z</time>
			</trkpt>
			<trkpt lat="42.985941" lon="-1.609287">
				<ele>688</ele>
				<time>2018-04-28T14:25:48Z</time>
			</trkpt>
			<trkpt lat="42.985904" lon="-1.609322">
				<ele>688</ele>
				<time>2018-04-28T14:25:52Z</time>
			</trkpt>
			<trkpt lat="42.985863" lon="-1.609359">
				<ele>688</ele>
				<time>2018-04-28T14:25:55Z</time>
			</trkpt>
			<trkpt lat="42.985821" lon="-1.6094">
				<ele>688</ele>
				<time>2018-04-28T14:25:58Z</time>
			</trkpt>
			<trkpt lat="42.985783" lon="-1.609451">
				<ele>688</ele>
				<time>2018-04-28T14:26:02Z</time>
			</trkpt>
			<trkpt lat="42.985729" lon="-1.609479">
				<ele>688</ele>
				<time>2018-04-28T14:26:06Z</time>
			</trkpt>
			<trkpt lat="42.985683" lon="-1.609509">
				<ele>688</ele>
				<time>2018-04-28T14:26:10Z</time>
			</trkpt>
			<trkpt lat="42.985636" lon="-1.609551">
				<ele>688</ele>
				<time>2018-04-28T14:26:14Z</time>
			</trkpt>
			<trkpt lat="42.985594" lon="-1.609599">
				<ele>688</ele>
				<time>2018-04-28T14:26:18Z</time>
			</trkpt>
			<trkpt lat="42.985541" lon="-1.60962">
				<ele>688</ele>
				<time>2018-04-28T14:26:22Z</time>
			</trkpt>
			<trkpt lat="42.985494" lon="-1.60966">
				<ele>688</ele>
				<time>2018-04-28T14:26:25Z</time>
			</trkpt>
			<trkpt lat="42.985448" lon="-1.609698">
				<ele>688</ele>
				<time>2018-04-28T14:26:27Z</time>
			</trkpt>
			<trkpt lat="42.985396" lon="-1.609732">
				<ele>688</ele>
				<time>2018-04-28T14:26:30Z</time>
			</trkpt>
			<trkpt lat="42.985344" lon="-1.609754">
				<ele>688</ele>
				<time>2018-04-28T14:26:33Z</time>
			</trkpt>
			<trkpt lat="42.985299" lon="-1.609766">
				<ele>688</ele>
				<time>2018-04-28T14:26:36Z</time>
			</trkpt>
			<trkpt lat="42.985255" lon="-1.609786">
				<ele>688</ele>
				<time>2018-04-28T14:26:39Z</time>
			</trkpt>
			<trkpt lat="42.985212" lon="-1.609829">
				<ele>688</ele>
				<time>2018-04-28T14:26:44Z</time>
			</trkpt>
			<trkpt lat="42.985165" lon="-1.609841">
				<ele>688</ele>
				<time>2018-04-28T14:26:48Z</time>
			</trkpt>
			<trkpt lat="42.985097" lon="-1.609868">
				<ele>688</ele>
				<time>2018-04-28T14:26:52Z</time>
			</trkpt>
			<trkpt lat="42.985028" lon="-1.60989">
				<ele>688</ele>
				<time>2018-04-28T14:26:56Z</time>
			</trkpt>
			<trkpt lat="42.984979" lon="-1.6099">
				<ele>688</ele>
				<time>2018-04-28T14:26:58Z</time>
			</trkpt>
			<trkpt lat="42.984927" lon="-1.609926">
				<ele>688</ele>
				<time>2018-04-28T14:27:01Z</time>
			</trkpt>
			<trkpt lat="42.984879" lon="-1.609935">
				<ele>688</ele>
				<time>2018-04-28T14:27:03Z</time>
			</trkpt>
			<trkpt lat="42.984827" lon="-1.609958">
				<ele>688</ele>
				<time>2018-04-28T14:27:06Z</time>
			</trkpt>
			<trkpt lat="42.984779" lon="-1.609981">
				<ele>688</ele>
				<time>2018-04-28T14:27:09Z</time>
			</trkpt>
			<trkpt lat="42.984726" lon="-1.610005">
				<ele>688</ele>
				<time>2018-04-28T14:27:12Z</time>
			</trkpt>
			<trkpt lat="42.984682" lon="-1.610041">
				<ele>688</ele>
				<time>2018-04-28T14:27:15Z</time>
			</trkpt>
			<trkpt lat="42.984629" lon="-1.610065">
				<ele>688</ele>
				<time>2018-04-28T14:27:18Z</time>
			</trkpt>
			<trkpt lat="42.984589" lon="-1.610095">
				<ele>688</ele>
				<time>2018-04-28T14:27:23Z</time>
			</trkpt>
			<trkpt lat="42.984556" lon="-1.610141">
				<ele>688</ele>
				<time>2018-04-28T14:27:28Z</time>
			</trkpt>
			<trkpt lat="42.984514" lon="-1.610182">
				<ele>688</ele>
				<time>2018-04-28T14:27:31Z</time>
			</trkpt>
			<trkpt lat="42.984464" lon="-1.610204">
				<ele>688</ele>
				<time>2018-04-28T14:27:34Z</time>
			</trkpt>
			<trkpt lat="42.984421" lon="-1.610244">
				<ele>688</ele>
				<time>2018-04-28T14:27:38Z</time>
			</trkpt>
			<trkpt lat="42.984378" lon="-1.610278">
				<ele>688</ele>
				<time>2018-04-28T14:27:42Z</time>
			</trkpt>
			<trkpt lat="42.984341" lon="-1.610328">
				<ele>688</ele>
				<time>2018-04-28T14:27:46Z</time>
			</trkpt>
			<trkpt lat="42.9843" lon="-1.610369">
				<ele>688</ele>
				<time>2018-04-28T14:27:50Z</time>
			</trkpt>
			<trkpt lat="42.984267" lon="-1.61041">
				<ele>688</ele>
				<time>2018-04-28T14:27:54Z</time>
			</trkpt>
			<trkpt lat="42.984226" lon="-1.61045">
				<ele>707</ele>
				<time>2018-04-28T14:27:58Z</time>
			</trkpt>
			<trkpt lat="42.984192" lon="-1.610494">
				<ele>707</ele>
				<time>2018-04-28T14:28:01Z</time>
			</trkpt>
			<trkpt lat="42.984152" lon="-1.610553">
				<ele>707</ele>
				<time>2018-04-28T14:28:05Z</time>
			</trkpt>
			<trkpt lat="42.984119" lon="-1.610601">
				<ele>707</ele>
				<time>2018-04-28T14:28:09Z</time>
			</trkpt>
			<trkpt lat="42.984079" lon="-1.610654">
				<ele>707</ele>
				<time>2018-04-28T14:28:13Z</time>
			</trkpt>
			<trkpt lat="42.984049" lon="-1.61072">
				<ele>707</ele>
				<time>2018-04-28T14:28:16Z</time>
			</trkpt>
			<trkpt lat="42.984011" lon="-1.610778">
				<ele>707</ele>
				<time>2018-04-28T14:28:20Z</time>
			</trkpt>
			<trkpt lat="42.983976" lon="-1.610818">
				<ele>707</ele>
				<time>2018-04-28T14:28:24Z</time>
			</trkpt>
			<trkpt lat="42.983923" lon="-1.61085">
				<ele>707</ele>
				<time>2018-04-28T14:28:28Z</time>
			</trkpt>
			<trkpt lat="42.983885" lon="-1.610894">
				<ele>707</ele>
				<time>2018-04-28T14:28:31Z</time>
			</trkpt>
			<trkpt lat="42.98384" lon="-1.610942">
				<ele>707</ele>
				<time>2018-04-28T14:28:34Z</time>
			</trkpt>
			<trkpt lat="42.983801" lon="-1.61099">
				<ele>707</ele>
				<time>2018-04-28T14:28:38Z</time>
			</trkpt>
			<trkpt lat="42.983768" lon="-1.611034">
				<ele>707</ele>
				<time>2018-04-28T14:28:41Z</time>
			</trkpt>
			<trkpt lat="42.983747" lon="-1.611093">
				<ele>707</ele>
				<time>2018-04-28T14:28:46Z</time>
			</trkpt>
			<trkpt lat="42.983747" lon="-1.611165">
				<ele>707</ele>
				<time>2018-04-28T14:28:50Z</time>
			</trkpt>
			<trkpt lat="42.983761" lon="-1.611226">
				<ele>707</ele>
				<time>2018-04-28T14:28:53Z</time>
			</trkpt>
			<trkpt lat="42.983752" lon="-1.611289">
				<ele>707</ele>
				<time>2018-04-28T14:28:56Z</time>
			</trkpt>
			<trkpt lat="42.98374" lon="-1.611354">
				<ele>707</ele>
				<time>2018-04-28T14:29:00Z</time>
			</trkpt>
			<trkpt lat="42.98373" lon="-1.611426">
				<ele>707</ele>
				<time>2018-04-28T14:29:04Z</time>
			</trkpt>
			<trkpt lat="42.983732" lon="-1.611504">
				<ele>707</ele>
				<time>2018-04-28T14:29:09Z</time>
			</trkpt>
			<trkpt lat="42.983728" lon="-1.611573">
				<ele>707</ele>
				<time>2018-04-28T14:29:13Z</time>
			</trkpt>
			<trkpt lat="42.983714" lon="-1.611643">
				<ele>707</ele>
				<time>2018-04-28T14:29:17Z</time>
			</trkpt>
			<trkpt lat="42.983667" lon="-1.611701">
				<ele>707</ele>
				<time>2018-04-28T14:29:21Z</time>
			</trkpt>
			<trkpt lat="42.983648" lon="-1.611771">
				<ele>707</ele>
				<time>2018-04-28T14:29:24Z</time>
			</trkpt>
			<trkpt lat="42.983627" lon="-1.611843">
				<ele>707</ele>
				<time>2018-04-28T14:29:27Z</time>
			</trkpt>
			<trkpt lat="42.983621" lon="-1.611911">
				<ele>707</ele>
				<time>2018-04-28T14:29:30Z</time>
			</trkpt>
			<trkpt lat="42.983604" lon="-1.611987">
				<ele>707</ele>
				<time>2018-04-28T14:29:33Z</time>
			</trkpt>
			<trkpt lat="42.983598" lon="-1.612051">
				<ele>707</ele>
				<time>2018-04-28T14:29:36Z</time>
			</trkpt>
			<trkpt lat="42.983572" lon="-1.612116">
				<ele>707</ele>
				<time>2018-04-28T14:29:39Z</time>
			</trkpt>
			<trkpt lat="42.983556" lon="-1.612183">
				<ele>707</ele>
				<time>2018-04-28T14:29:41Z</time>
			</trkpt>
			<trkpt lat="42.983532" lon="-1.612241">
				<ele>707</ele>
				<time>2018-04-28T14:29:43Z</time>
			</trkpt>
			<trkpt lat="42.983499" lon="-1.612299">
				<ele>707</ele>
				<time>2018-04-28T14:29:46Z</time>
			</trkpt>
			<trkpt lat="42.983472" lon="-1.612363">
				<ele>707</ele>
				<time>2018-04-28T14:29:49Z</time>
			</trkpt>
			<trkpt lat="42.983439" lon="-1.612431">
				<ele>707</ele>
				<time>2018-04-28T14:29:52Z</time>
			</trkpt>
			<trkpt lat="42.983403" lon="-1.612481">
				<ele>707</ele>
				<time>2018-04-28T14:29:55Z</time>
			</trkpt>
			<trkpt lat="42.983356" lon="-1.612529">
				<ele>689</ele>
				<time>2018-04-28T14:29:58Z</time>
			</trkpt>
			<trkpt lat="42.983298" lon="-1.612567">
				<ele>714</ele>
				<time>2018-04-28T14:30:02Z</time>
			</trkpt>
			<trkpt lat="42.983248" lon="-1.612601">
				<ele>714</ele>
				<time>2018-04-28T14:30:05Z</time>
			</trkpt>
			<trkpt lat="42.983192" lon="-1.612632">
				<ele>714</ele>
				<time>2018-04-28T14:30:09Z</time>
			</trkpt>
			<trkpt lat="42.98314" lon="-1.612655">
				<ele>714</ele>
				<time>2018-04-28T14:30:12Z</time>
			</trkpt>
			<trkpt lat="42.983087" lon="-1.612688">
				<ele>714</ele>
				<time>2018-04-28T14:30:14Z</time>
			</trkpt>
			<trkpt lat="42.983039" lon="-1.612711">
				<ele>714</ele>
				<time>2018-04-28T14:30:17Z</time>
			</trkpt>
			<trkpt lat="42.982987" lon="-1.612703">
				<ele>714</ele>
				<time>2018-04-28T14:30:19Z</time>
			</trkpt>
			<trkpt lat="42.982937" lon="-1.612678">
				<ele>714</ele>
				<time>2018-04-28T14:30:22Z</time>
			</trkpt>
			<trkpt lat="42.982886" lon="-1.61266">
				<ele>714</ele>
				<time>2018-04-28T14:30:25Z</time>
			</trkpt>
			<trkpt lat="42.98283" lon="-1.612686">
				<ele>714</ele>
				<time>2018-04-28T14:30:28Z</time>
			</trkpt>
			<trkpt lat="42.982785" lon="-1.612711">
				<ele>714</ele>
				<time>2018-04-28T14:30:30Z</time>
			</trkpt>
			<trkpt lat="42.982728" lon="-1.612735">
				<ele>714</ele>
				<time>2018-04-28T14:30:33Z</time>
			</trkpt>
			<trkpt lat="42.982669" lon="-1.612756">
				<ele>714</ele>
				<time>2018-04-28T14:30:36Z</time>
			</trkpt>
			<trkpt lat="42.982621" lon="-1.612799">
				<ele>714</ele>
				<time>2018-04-28T14:30:39Z</time>
			</trkpt>
			<trkpt lat="42.982579" lon="-1.612845">
				<ele>714</ele>
				<time>2018-04-28T14:30:41Z</time>
			</trkpt>
			<trkpt lat="42.982525" lon="-1.612882">
				<ele>714</ele>
				<time>2018-04-28T14:30:44Z</time>
			</trkpt>
			<trkpt lat="42.982475" lon="-1.612866">
				<ele>714</ele>
				<time>2018-04-28T14:30:46Z</time>
			</trkpt>
			<trkpt lat="42.982426" lon="-1.612842">
				<ele>714</ele>
				<time>2018-04-28T14:30:49Z</time>
			</trkpt>
			<trkpt lat="42.982364" lon="-1.612856">
				<ele>714</ele>
				<time>2018-04-28T14:30:52Z</time>
			</trkpt>
			<trkpt lat="42.982324" lon="-1.612898">
				<ele>714</ele>
				<time>2018-04-28T14:30:54Z</time>
			</trkpt>
			<trkpt lat="42.98229" lon="-1.612939">
				<ele>714</ele>
				<time>2018-04-28T14:30:56Z</time>
			</trkpt>
			<trkpt lat="42.982246" lon="-1.612997">
				<ele>714</ele>
				<time>2018-04-28T14:30:59Z</time>
			</trkpt>
			<trkpt lat="42.982215" lon="-1.613044">
				<ele>714</ele>
				<time>2018-04-28T14:31:02Z</time>
			</trkpt>
			<trkpt lat="42.982173" lon="-1.61307">
				<ele>714</ele>
				<time>2018-04-28T14:31:05Z</time>
			</trkpt>
			<trkpt lat="42.982121" lon="-1.613091">
				<ele>714</ele>
				<time>2018-04-28T14:31:08Z</time>
			</trkpt>
			<trkpt lat="42.982057" lon="-1.613076">
				<ele>714</ele>
				<time>2018-04-28T14:31:11Z</time>
			</trkpt>
			<trkpt lat="42.982004" lon="-1.613076">
				<ele>714</ele>
				<time>2018-04-28T14:31:13Z</time>
			</trkpt>
			<trkpt lat="42.981958" lon="-1.613062">
				<ele>714</ele>
				<time>2018-04-28T14:31:15Z</time>
			</trkpt>
			<trkpt lat="42.981893" lon="-1.613081">
				<ele>714</ele>
				<time>2018-04-28T14:31:20Z</time>
			</trkpt>
			<trkpt lat="42.981847" lon="-1.613103">
				<ele>714</ele>
				<time>2018-04-28T14:31:24Z</time>
			</trkpt>
			<trkpt lat="42.981823" lon="-1.613177">
				<ele>714</ele>
				<time>2018-04-28T14:31:27Z</time>
			</trkpt>
			<trkpt lat="42.981782" lon="-1.613237">
				<ele>714</ele>
				<time>2018-04-28T14:31:31Z</time>
			</trkpt>
			<trkpt lat="42.981756" lon="-1.613289">
				<ele>714</ele>
				<time>2018-04-28T14:31:35Z</time>
			</trkpt>
			<trkpt lat="42.981753" lon="-1.613368">
				<ele>714</ele>
				<time>2018-04-28T14:31:38Z</time>
			</trkpt>
			<trkpt lat="42.981734" lon="-1.613452">
				<ele>714</ele>
				<time>2018-04-28T14:31:41Z</time>
			</trkpt>
			<trkpt lat="42.981706" lon="-1.613521">
				<ele>714</ele>
				<time>2018-04-28T14:31:44Z</time>
			</trkpt>
			<trkpt lat="42.98166" lon="-1.613596">
				<ele>714</ele>
				<time>2018-04-28T14:31:47Z</time>
			</trkpt>
			<trkpt lat="42.981622" lon="-1.613638">
				<ele>714</ele>
				<time>2018-04-28T14:31:50Z</time>
			</trkpt>
			<trkpt lat="42.981593" lon="-1.613691">
				<ele>714</ele>
				<time>2018-04-28T14:31:52Z</time>
			</trkpt>
			<trkpt lat="42.981568" lon="-1.613745">
				<ele>714</ele>
				<time>2018-04-28T14:31:54Z</time>
			</trkpt>
			<trkpt lat="42.98153" lon="-1.613803">
				<ele>714</ele>
				<time>2018-04-28T14:31:57Z</time>
			</trkpt>
			<trkpt lat="42.981493" lon="-1.613848">
				<ele>714</ele>
				<time>2018-04-28T14:31:59Z</time>
			</trkpt>
			<trkpt lat="42.981438" lon="-1.613909">
				<ele>714</ele>
				<time>2018-04-28T14:32:02Z</time>
			</trkpt>
			<trkpt lat="42.981396" lon="-1.613939">
				<ele>714</ele>
				<time>2018-04-28T14:32:04Z</time>
			</trkpt>
			<trkpt lat="42.981349" lon="-1.613937">
				<ele>714</ele>
				<time>2018-04-28T14:32:06Z</time>
			</trkpt>
			<trkpt lat="42.981286" lon="-1.613943">
				<ele>714</ele>
				<time>2018-04-28T14:32:08Z</time>
			</trkpt>
			<trkpt lat="42.981227" lon="-1.61393">
				<ele>707</ele>
				<time>2018-04-28T14:32:11Z</time>
			</trkpt>
			<trkpt lat="42.981168" lon="-1.61393">
				<ele>707</ele>
				<time>2018-04-28T14:32:14Z</time>
			</trkpt>
			<trkpt lat="42.981112" lon="-1.613928">
				<ele>707</ele>
				<time>2018-04-28T14:32:16Z</time>
			</trkpt>
			<trkpt lat="42.981073" lon="-1.613898">
				<ele>707</ele>
				<time>2018-04-28T14:32:19Z</time>
			</trkpt>
			<trkpt lat="42.981027" lon="-1.613867">
				<ele>707</ele>
				<time>2018-04-28T14:32:22Z</time>
			</trkpt>
			<trkpt lat="42.980982" lon="-1.613805">
				<ele>707</ele>
				<time>2018-04-28T14:32:27Z</time>
			</trkpt>
			<trkpt lat="42.980937" lon="-1.613849">
				<ele>707</ele>
				<time>2018-04-28T14:32:30Z</time>
			</trkpt>
			<trkpt lat="42.980893" lon="-1.613874">
				<ele>707</ele>
				<time>2018-04-28T14:32:33Z</time>
			</trkpt>
			<trkpt lat="42.980852" lon="-1.613908">
				<ele>707</ele>
				<time>2018-04-28T14:32:35Z</time>
			</trkpt>
			<trkpt lat="42.980806" lon="-1.613943">
				<ele>707</ele>
				<time>2018-04-28T14:32:37Z</time>
			</trkpt>
			<trkpt lat="42.980766" lon="-1.613975">
				<ele>707</ele>
				<time>2018-04-28T14:32:39Z</time>
			</trkpt>
			<trkpt lat="42.980713" lon="-1.613998">
				<ele>707</ele>
				<time>2018-04-28T14:32:41Z</time>
			</trkpt>
			<trkpt lat="42.98065" lon="-1.614053">
				<ele>707</ele>
				<time>2018-04-28T14:32:44Z</time>
			</trkpt>
			<trkpt lat="42.980606" lon="-1.614086">
				<ele>707</ele>
				<time>2018-04-28T14:32:46Z</time>
			</trkpt>
			<trkpt lat="42.980563" lon="-1.614125">
				<ele>707</ele>
				<time>2018-04-28T14:32:48Z</time>
			</trkpt>
			<trkpt lat="42.980522" lon="-1.614182">
				<ele>707</ele>
				<time>2018-04-28T14:32:50Z</time>
			</trkpt>
			<trkpt lat="42.980474" lon="-1.614228">
				<ele>707</ele>
				<time>2018-04-28T14:32:52Z</time>
			</trkpt>
			<trkpt lat="42.980423" lon="-1.614256">
				<ele>707</ele>
				<time>2018-04-28T14:32:54Z</time>
			</trkpt>
			<trkpt lat="42.980381" lon="-1.614293">
				<ele>707</ele>
				<time>2018-04-28T14:32:56Z</time>
			</trkpt>
			<trkpt lat="42.980332" lon="-1.614303">
				<ele>707</ele>
				<time>2018-04-28T14:32:58Z</time>
			</trkpt>
			<trkpt lat="42.980264" lon="-1.614318">
				<ele>707</ele>
				<time>2018-04-28T14:33:01Z</time>
			</trkpt>
			<trkpt lat="42.980216" lon="-1.614325">
				<ele>707</ele>
				<time>2018-04-28T14:33:03Z</time>
			</trkpt>
			<trkpt lat="42.980174" lon="-1.61435">
				<ele>707</ele>
				<time>2018-04-28T14:33:06Z</time>
			</trkpt>
			<trkpt lat="42.980109" lon="-1.614372">
				<ele>707</ele>
				<time>2018-04-28T14:33:09Z</time>
			</trkpt>
			<trkpt lat="42.980058" lon="-1.614417">
				<ele>707</ele>
				<time>2018-04-28T14:33:12Z</time>
			</trkpt>
			<trkpt lat="42.980001" lon="-1.614433">
				<ele>707</ele>
				<time>2018-04-28T14:33:16Z</time>
			</trkpt>
			<trkpt lat="42.979939" lon="-1.61445">
				<ele>707</ele>
				<time>2018-04-28T14:33:19Z</time>
			</trkpt>
			<trkpt lat="42.97989" lon="-1.614504">
				<ele>707</ele>
				<time>2018-04-28T14:33:22Z</time>
			</trkpt>
			<trkpt lat="42.979854" lon="-1.614545">
				<ele>707</ele>
				<time>2018-04-28T14:33:25Z</time>
			</trkpt>
			<trkpt lat="42.979803" lon="-1.614561">
				<ele>707</ele>
				<time>2018-04-28T14:33:27Z</time>
			</trkpt>
			<trkpt lat="42.979747" lon="-1.614591">
				<ele>683</ele>
				<time>2018-04-28T14:33:29Z</time>
			</trkpt>
			<trkpt lat="42.979692" lon="-1.614619">
				<ele>683</ele>
				<time>2018-04-28T14:33:31Z</time>
			</trkpt>
			<trkpt lat="42.979648" lon="-1.614647">
				<ele>683</ele>
				<time>2018-04-28T14:33:33Z</time>
			</trkpt>
			<trkpt lat="42.979598" lon="-1.614679">
				<ele>683</ele>
				<time>2018-04-28T14:33:35Z</time>
			</trkpt>
			<trkpt lat="42.979552" lon="-1.614719">
				<ele>683</ele>
				<time>2018-04-28T14:33:37Z</time>
			</trkpt>
			<trkpt lat="42.979506" lon="-1.614747">
				<ele>683</ele>
				<time>2018-04-28T14:33:39Z</time>
			</trkpt>
			<trkpt lat="42.979458" lon="-1.614791">
				<ele>683</ele>
				<time>2018-04-28T14:33:41Z</time>
			</trkpt>
			<trkpt lat="42.979418" lon="-1.614833">
				<ele>683</ele>
				<time>2018-04-28T14:33:43Z</time>
			</trkpt>
			<trkpt lat="42.979379" lon="-1.614882">
				<ele>683</ele>
				<time>2018-04-28T14:33:45Z</time>
			</trkpt>
			<trkpt lat="42.979348" lon="-1.614944">
				<ele>683</ele>
				<time>2018-04-28T14:33:47Z</time>
			</trkpt>
			<trkpt lat="42.979313" lon="-1.614989">
				<ele>683</ele>
				<time>2018-04-28T14:33:49Z</time>
			</trkpt>
			<trkpt lat="42.97928" lon="-1.615036">
				<ele>683</ele>
				<time>2018-04-28T14:33:51Z</time>
			</trkpt>
			<trkpt lat="42.979237" lon="-1.615067">
				<ele>683</ele>
				<time>2018-04-28T14:33:53Z</time>
			</trkpt>
			<trkpt lat="42.979187" lon="-1.615105">
				<ele>683</ele>
				<time>2018-04-28T14:33:55Z</time>
			</trkpt>
			<trkpt lat="42.979142" lon="-1.615158">
				<ele>676</ele>
				<time>2018-04-28T14:33:57Z</time>
			</trkpt>
			<trkpt lat="42.979088" lon="-1.615214">
				<ele>676</ele>
				<time>2018-04-28T14:34:00Z</time>
			</trkpt>
			<trkpt lat="42.979048" lon="-1.615262">
				<ele>676</ele>
				<time>2018-04-28T14:34:02Z</time>
			</trkpt>
			<trkpt lat="42.979013" lon="-1.615304">
				<ele>676</ele>
				<time>2018-04-28T14:34:04Z</time>
			</trkpt>
			<trkpt lat="42.978978" lon="-1.615347">
				<ele>676</ele>
				<time>2018-04-28T14:34:06Z</time>
			</trkpt>
			<trkpt lat="42.978935" lon="-1.615394">
				<ele>676</ele>
				<time>2018-04-28T14:34:08Z</time>
			</trkpt>
			<trkpt lat="42.978897" lon="-1.615461">
				<ele>676</ele>
				<time>2018-04-28T14:34:11Z</time>
			</trkpt>
			<trkpt lat="42.978848" lon="-1.6155">
				<ele>676</ele>
				<time>2018-04-28T14:34:13Z</time>
			</trkpt>
			<trkpt lat="42.978795" lon="-1.615544">
				<ele>676</ele>
				<time>2018-04-28T14:34:15Z</time>
			</trkpt>
			<trkpt lat="42.978754" lon="-1.61558">
				<ele>676</ele>
				<time>2018-04-28T14:34:17Z</time>
			</trkpt>
			<trkpt lat="42.978712" lon="-1.615619">
				<ele>676</ele>
				<time>2018-04-28T14:34:19Z</time>
			</trkpt>
			<trkpt lat="42.978675" lon="-1.615665">
				<ele>676</ele>
				<time>2018-04-28T14:34:21Z</time>
			</trkpt>
			<trkpt lat="42.978636" lon="-1.615703">
				<ele>676</ele>
				<time>2018-04-28T14:34:23Z</time>
			</trkpt>
			<trkpt lat="42.978598" lon="-1.615737">
				<ele>676</ele>
				<time>2018-04-28T14:34:25Z</time>
			</trkpt>
			<trkpt lat="42.978547" lon="-1.615765">
				<ele>676</ele>
				<time>2018-04-28T14:34:27Z</time>
			</trkpt>
			<trkpt lat="42.978502" lon="-1.615821">
				<ele>676</ele>
				<time>2018-04-28T14:34:29Z</time>
			</trkpt>
			<trkpt lat="42.978461" lon="-1.615859">
				<ele>676</ele>
				<time>2018-04-28T14:34:31Z</time>
			</trkpt>
			<trkpt lat="42.978408" lon="-1.615903">
				<ele>676</ele>
				<time>2018-04-28T14:34:34Z</time>
			</trkpt>
			<trkpt lat="42.978366" lon="-1.61593">
				<ele>676</ele>
				<time>2018-04-28T14:34:36Z</time>
			</trkpt>
			<trkpt lat="42.978318" lon="-1.615949">
				<ele>676</ele>
				<time>2018-04-28T14:34:39Z</time>
			</trkpt>
			<trkpt lat="42.978269" lon="-1.615956">
				<ele>676</ele>
				<time>2018-04-28T14:34:42Z</time>
			</trkpt>
			<trkpt lat="42.978224" lon="-1.615975">
				<ele>676</ele>
				<time>2018-04-28T14:34:45Z</time>
			</trkpt>
			<trkpt lat="42.978171" lon="-1.615995">
				<ele>676</ele>
				<time>2018-04-28T14:34:48Z</time>
			</trkpt>
			<trkpt lat="42.978124" lon="-1.616">
				<ele>676</ele>
				<time>2018-04-28T14:34:50Z</time>
			</trkpt>
			<trkpt lat="42.978074" lon="-1.615999">
				<ele>676</ele>
				<time>2018-04-28T14:34:52Z</time>
			</trkpt>
			<trkpt lat="42.978007" lon="-1.615977">
				<ele>676</ele>
				<time>2018-04-28T14:34:55Z</time>
			</trkpt>
			<trkpt lat="42.977957" lon="-1.615946">
				<ele>676</ele>
				<time>2018-04-28T14:34:57Z</time>
			</trkpt>
			<trkpt lat="42.977909" lon="-1.615917">
				<ele>676</ele>
				<time>2018-04-28T14:35:00Z</time>
			</trkpt>
			<trkpt lat="42.977862" lon="-1.615899">
				<ele>676</ele>
				<time>2018-04-28T14:35:02Z</time>
			</trkpt>
			<trkpt lat="42.977806" lon="-1.615918">
				<ele>676</ele>
				<time>2018-04-28T14:35:06Z</time>
			</trkpt>
			<trkpt lat="42.977756" lon="-1.615971">
				<ele>676</ele>
				<time>2018-04-28T14:35:10Z</time>
			</trkpt>
			<trkpt lat="42.977701" lon="-1.615982">
				<ele>676</ele>
				<time>2018-04-28T14:35:12Z</time>
			</trkpt>
			<trkpt lat="42.97764" lon="-1.615989">
				<ele>676</ele>
				<time>2018-04-28T14:35:14Z</time>
			</trkpt>
			<trkpt lat="42.977588" lon="-1.615969">
				<ele>676</ele>
				<time>2018-04-28T14:35:16Z</time>
			</trkpt>
			<trkpt lat="42.977554" lon="-1.615894">
				<ele>676</ele>
				<time>2018-04-28T14:35:18Z</time>
			</trkpt>
			<trkpt lat="42.977529" lon="-1.615821">
				<ele>676</ele>
				<time>2018-04-28T14:35:20Z</time>
			</trkpt>
			<trkpt lat="42.977514" lon="-1.615756">
				<ele>676</ele>
				<time>2018-04-28T14:35:22Z</time>
			</trkpt>
			<trkpt lat="42.9775" lon="-1.615674">
				<ele>676</ele>
				<time>2018-04-28T14:35:24Z</time>
			</trkpt>
			<trkpt lat="42.977503" lon="-1.615604">
				<ele>676</ele>
				<time>2018-04-28T14:35:26Z</time>
			</trkpt>
			<trkpt lat="42.977509" lon="-1.615531">
				<ele>676</ele>
				<time>2018-04-28T14:35:28Z</time>
			</trkpt>
			<trkpt lat="42.977515" lon="-1.615443">
				<ele>676</ele>
				<time>2018-04-28T14:35:30Z</time>
			</trkpt>
			<trkpt lat="42.977528" lon="-1.615362">
				<ele>676</ele>
				<time>2018-04-28T14:35:32Z</time>
			</trkpt>
			<trkpt lat="42.977531" lon="-1.615288">
				<ele>676</ele>
				<time>2018-04-28T14:35:34Z</time>
			</trkpt>
			<trkpt lat="42.977524" lon="-1.61521">
				<ele>676</ele>
				<time>2018-04-28T14:35:37Z</time>
			</trkpt>
			<trkpt lat="42.977521" lon="-1.615144">
				<ele>676</ele>
				<time>2018-04-28T14:35:40Z</time>
			</trkpt>
			<trkpt lat="42.977512" lon="-1.615057">
				<ele>676</ele>
				<time>2018-04-28T14:35:43Z</time>
			</trkpt>
			<trkpt lat="42.977515" lon="-1.61498">
				<ele>676</ele>
				<time>2018-04-28T14:35:45Z</time>
			</trkpt>
			<trkpt lat="42.977511" lon="-1.614917">
				<ele>676</ele>
				<time>2018-04-28T14:35:47Z</time>
			</trkpt>
			<trkpt lat="42.977513" lon="-1.61485">
				<ele>676</ele>
				<time>2018-04-28T14:35:49Z</time>
			</trkpt>
			<trkpt lat="42.977532" lon="-1.614778">
				<ele>676</ele>
				<time>2018-04-28T14:35:51Z</time>
			</trkpt>
			<trkpt lat="42.977536" lon="-1.614693">
				<ele>676</ele>
				<time>2018-04-28T14:35:54Z</time>
			</trkpt>
			<trkpt lat="42.977535" lon="-1.614629">
				<ele>676</ele>
				<time>2018-04-28T14:35:56Z</time>
			</trkpt>
			<trkpt lat="42.977528" lon="-1.614554">
				<ele>654</ele>
				<time>2018-04-28T14:35:58Z</time>
			</trkpt>
			<trkpt lat="42.977516" lon="-1.61448">
				<ele>654</ele>
				<time>2018-04-28T14:36:00Z</time>
			</trkpt>
			<trkpt lat="42.977493" lon="-1.614416">
				<ele>654</ele>
				<time>2018-04-28T14:36:02Z</time>
			</trkpt>
			<trkpt lat="42.977455" lon="-1.614368">
				<ele>654</ele>
				<time>2018-04-28T14:36:04Z</time>
			</trkpt>
			<trkpt lat="42.977413" lon="-1.614321">
				<ele>654</ele>
				<time>2018-04-28T14:36:06Z</time>
			</trkpt>
			<trkpt lat="42.977368" lon="-1.614277">
				<ele>654</ele>
				<time>2018-04-28T14:36:08Z</time>
			</trkpt>
			<trkpt lat="42.977325" lon="-1.614238">
				<ele>654</ele>
				<time>2018-04-28T14:36:10Z</time>
			</trkpt>
			<trkpt lat="42.977272" lon="-1.614204">
				<ele>654</ele>
				<time>2018-04-28T14:36:12Z</time>
			</trkpt>
			<trkpt lat="42.977231" lon="-1.614176">
				<ele>654</ele>
				<time>2018-04-28T14:36:14Z</time>
			</trkpt>
			<trkpt lat="42.977167" lon="-1.614138">
				<ele>654</ele>
				<time>2018-04-28T14:36:17Z</time>
			</trkpt>
			<trkpt lat="42.977112" lon="-1.614111">
				<ele>654</ele>
				<time>2018-04-28T14:36:19Z</time>
			</trkpt>
			<trkpt lat="42.977065" lon="-1.614085">
				<ele>628</ele>
				<time>2018-04-28T14:36:21Z</time>
			</trkpt>
			<trkpt lat="42.977008" lon="-1.614048">
				<ele>628</ele>
				<time>2018-04-28T14:36:23Z</time>
			</trkpt>
			<trkpt lat="42.97696" lon="-1.614016">
				<ele>628</ele>
				<time>2018-04-28T14:36:25Z</time>
			</trkpt>
			<trkpt lat="42.976911" lon="-1.613982">
				<ele>628</ele>
				<time>2018-04-28T14:36:27Z</time>
			</trkpt>
			<trkpt lat="42.976866" lon="-1.613966">
				<ele>628</ele>
				<time>2018-04-28T14:36:29Z</time>
			</trkpt>
			<trkpt lat="42.976819" lon="-1.61396">
				<ele>628</ele>
				<time>2018-04-28T14:36:31Z</time>
			</trkpt>
			<trkpt lat="42.976773" lon="-1.613976">
				<ele>628</ele>
				<time>2018-04-28T14:36:33Z</time>
			</trkpt>
			<trkpt lat="42.976715" lon="-1.613989">
				<ele>628</ele>
				<time>2018-04-28T14:36:35Z</time>
			</trkpt>
			<trkpt lat="42.976654" lon="-1.614019">
				<ele>628</ele>
				<time>2018-04-28T14:36:37Z</time>
			</trkpt>
			<trkpt lat="42.976601" lon="-1.614054">
				<ele>628</ele>
				<time>2018-04-28T14:36:39Z</time>
			</trkpt>
			<trkpt lat="42.976564" lon="-1.614093">
				<ele>628</ele>
				<time>2018-04-28T14:36:41Z</time>
			</trkpt>
			<trkpt lat="42.976513" lon="-1.614144">
				<ele>628</ele>
				<time>2018-04-28T14:36:44Z</time>
			</trkpt>
			<trkpt lat="42.97647" lon="-1.614173">
				<ele>628</ele>
				<time>2018-04-28T14:36:46Z</time>
			</trkpt>
			<trkpt lat="42.976422" lon="-1.614213">
				<ele>628</ele>
				<time>2018-04-28T14:36:48Z</time>
			</trkpt>
			<trkpt lat="42.976363" lon="-1.614246">
				<ele>628</ele>
				<time>2018-04-28T14:36:50Z</time>
			</trkpt>
			<trkpt lat="42.976318" lon="-1.614273">
				<ele>628</ele>
				<time>2018-04-28T14:36:52Z</time>
			</trkpt>
			<trkpt lat="42.976251" lon="-1.614313">
				<ele>628</ele>
				<time>2018-04-28T14:36:55Z</time>
			</trkpt>
			<trkpt lat="42.976199" lon="-1.614341">
				<ele>628</ele>
				<time>2018-04-28T14:36:57Z</time>
			</trkpt>
			<trkpt lat="42.976164" lon="-1.614402">
				<ele>628</ele>
				<time>2018-04-28T14:36:59Z</time>
			</trkpt>
			<trkpt lat="42.976126" lon="-1.614453">
				<ele>628</ele>
				<time>2018-04-28T14:37:01Z</time>
			</trkpt>
			<trkpt lat="42.976091" lon="-1.614504">
				<ele>628</ele>
				<time>2018-04-28T14:37:03Z</time>
			</trkpt>
			<trkpt lat="42.976032" lon="-1.614517">
				<ele>628</ele>
				<time>2018-04-28T14:37:05Z</time>
			</trkpt>
			<trkpt lat="42.975973" lon="-1.614519">
				<ele>628</ele>
				<time>2018-04-28T14:37:07Z</time>
			</trkpt>
			<trkpt lat="42.975914" lon="-1.61451">
				<ele>628</ele>
				<time>2018-04-28T14:37:09Z</time>
			</trkpt>
			<trkpt lat="42.975868" lon="-1.614518">
				<ele>628</ele>
				<time>2018-04-28T14:37:11Z</time>
			</trkpt>
			<trkpt lat="42.975805" lon="-1.614527">
				<ele>628</ele>
				<time>2018-04-28T14:37:13Z</time>
			</trkpt>
			<trkpt lat="42.975743" lon="-1.614505">
				<ele>628</ele>
				<time>2018-04-28T14:37:15Z</time>
			</trkpt>
			<trkpt lat="42.975705" lon="-1.614461">
				<ele>628</ele>
				<time>2018-04-28T14:37:17Z</time>
			</trkpt>
			<trkpt lat="42.975662" lon="-1.614415">
				<ele>628</ele>
				<time>2018-04-28T14:37:20Z</time>
			</trkpt>
			<trkpt lat="42.975592" lon="-1.614426">
				<ele>628</ele>
				<time>2018-04-28T14:37:24Z</time>
			</trkpt>
			<trkpt lat="42.975535" lon="-1.614425">
				<ele>628</ele>
				<time>2018-04-28T14:37:26Z</time>
			</trkpt>
			<trkpt lat="42.975486" lon="-1.614432">
				<ele>628</ele>
				<time>2018-04-28T14:37:30Z</time>
			</trkpt>
			<trkpt lat="42.975457" lon="-1.614428">
				<ele>628</ele>
				<time>2018-04-28T14:47:56Z</time>
			</trkpt>
			<trkpt lat="42.975443" lon="-1.614365">
				<ele>628</ele>
				<time>2018-04-28T14:48:10Z</time>
			</trkpt>
			<trkpt lat="42.975449" lon="-1.614283">
				<ele>628</ele>
				<time>2018-04-28T14:48:13Z</time>
			</trkpt>
			<trkpt lat="42.975464" lon="-1.614189">
				<ele>628</ele>
				<time>2018-04-28T14:48:15Z</time>
			</trkpt>
			<trkpt lat="42.975486" lon="-1.61413">
				<ele>628</ele>
				<time>2018-04-28T14:48:17Z</time>
			</trkpt>
			<trkpt lat="42.975531" lon="-1.614086">
				<ele>628</ele>
				<time>2018-04-28T14:48:20Z</time>
			</trkpt>
			<trkpt lat="42.975588" lon="-1.614118">
				<ele>628</ele>
				<time>2018-04-28T14:48:23Z</time>
			</trkpt>
			<trkpt lat="42.975631" lon="-1.614152">
				<ele>628</ele>
				<time>2018-04-28T14:48:25Z</time>
			</trkpt>
			<trkpt lat="42.975684" lon="-1.614164">
				<ele>628</ele>
				<time>2018-04-28T14:48:28Z</time>
			</trkpt>
			<trkpt lat="42.97573" lon="-1.614182">
				<ele>628</ele>
				<time>2018-04-28T14:48:31Z</time>
			</trkpt>
			<trkpt lat="42.975775" lon="-1.614166">
				<ele>628</ele>
				<time>2018-04-28T14:48:34Z</time>
			</trkpt>
			<trkpt lat="42.975822" lon="-1.614152">
				<ele>628</ele>
				<time>2018-04-28T14:48:39Z</time>
			</trkpt>
			<trkpt lat="42.975881" lon="-1.614124">
				<ele>628</ele>
				<time>2018-04-28T14:48:42Z</time>
			</trkpt>
			<trkpt lat="42.975928" lon="-1.614085">
				<ele>628</ele>
				<time>2018-04-28T14:48:45Z</time>
			</trkpt>
			<trkpt lat="42.975963" lon="-1.614047">
				<ele>628</ele>
				<time>2018-04-28T14:48:47Z</time>
			</trkpt>
			<trkpt lat="42.976015" lon="-1.613991">
				<ele>628</ele>
				<time>2018-04-28T14:48:51Z</time>
			</trkpt>
			<trkpt lat="42.976072" lon="-1.613944">
				<ele>628</ele>
				<time>2018-04-28T14:48:54Z</time>
			</trkpt>
			<trkpt lat="42.976112" lon="-1.613905">
				<ele>628</ele>
				<time>2018-04-28T14:48:57Z</time>
			</trkpt>
			<trkpt lat="42.97616" lon="-1.613857">
				<ele>628</ele>
				<time>2018-04-28T14:49:00Z</time>
			</trkpt>
			<trkpt lat="42.976207" lon="-1.613821">
				<ele>628</ele>
				<time>2018-04-28T14:49:03Z</time>
			</trkpt>
			<trkpt lat="42.976264" lon="-1.613786">
				<ele>628</ele>
				<time>2018-04-28T14:49:07Z</time>
			</trkpt>
			<trkpt lat="42.976296" lon="-1.61374">
				<ele>628</ele>
				<time>2018-04-28T14:49:10Z</time>
			</trkpt>
			<trkpt lat="42.976326" lon="-1.613692">
				<ele>628</ele>
				<time>2018-04-28T14:49:13Z</time>
			</trkpt>
			<trkpt lat="42.976362" lon="-1.613649">
				<ele>628</ele>
				<time>2018-04-28T14:49:16Z</time>
			</trkpt>
			<trkpt lat="42.976399" lon="-1.613602">
				<ele>628</ele>
				<time>2018-04-28T14:49:18Z</time>
			</trkpt>
			<trkpt lat="42.976434" lon="-1.613551">
				<ele>628</ele>
				<time>2018-04-28T14:49:21Z</time>
			</trkpt>
			<trkpt lat="42.976476" lon="-1.6135">
				<ele>628</ele>
				<time>2018-04-28T14:49:24Z</time>
			</trkpt>
			<trkpt lat="42.976519" lon="-1.613459">
				<ele>628</ele>
				<time>2018-04-28T14:49:27Z</time>
			</trkpt>
			<trkpt lat="42.976568" lon="-1.613418">
				<ele>628</ele>
				<time>2018-04-28T14:49:30Z</time>
			</trkpt>
			<trkpt lat="42.976605" lon="-1.613363">
				<ele>628</ele>
				<time>2018-04-28T14:49:33Z</time>
			</trkpt>
			<trkpt lat="42.976648" lon="-1.613328">
				<ele>628</ele>
				<time>2018-04-28T14:49:36Z</time>
			</trkpt>
			<trkpt lat="42.976689" lon="-1.613281">
				<ele>628</ele>
				<time>2018-04-28T14:49:39Z</time>
			</trkpt>
			<trkpt lat="42.976725" lon="-1.613225">
				<ele>628</ele>
				<time>2018-04-28T14:49:42Z</time>
			</trkpt>
			<trkpt lat="42.976768" lon="-1.613175">
				<ele>628</ele>
				<time>2018-04-28T14:49:45Z</time>
			</trkpt>
			<trkpt lat="42.976824" lon="-1.613122">
				<ele>628</ele>
				<time>2018-04-28T14:49:48Z</time>
			</trkpt>
			<trkpt lat="42.976877" lon="-1.613059">
				<ele>628</ele>
				<time>2018-04-28T14:49:51Z</time>
			</trkpt>
			<trkpt lat="42.976909" lon="-1.612995">
				<ele>628</ele>
				<time>2018-04-28T14:49:53Z</time>
			</trkpt>
			<trkpt lat="42.976939" lon="-1.612932">
				<ele>628</ele>
				<time>2018-04-28T14:49:55Z</time>
			</trkpt>
			<trkpt lat="42.976974" lon="-1.612869">
				<ele>628</ele>
				<time>2018-04-28T14:49:57Z</time>
			</trkpt>
			<trkpt lat="42.977009" lon="-1.612805">
				<ele>628</ele>
				<time>2018-04-28T14:49:59Z</time>
			</trkpt>
			<trkpt lat="42.977035" lon="-1.612751">
				<ele>628</ele>
				<time>2018-04-28T14:50:01Z</time>
			</trkpt>
			<trkpt lat="42.977073" lon="-1.6127">
				<ele>628</ele>
				<time>2018-04-28T14:50:03Z</time>
			</trkpt>
			<trkpt lat="42.977105" lon="-1.612649">
				<ele>654</ele>
				<time>2018-04-28T14:50:05Z</time>
			</trkpt>
			<trkpt lat="42.977135" lon="-1.6126">
				<ele>654</ele>
				<time>2018-04-28T14:50:07Z</time>
			</trkpt>
			<trkpt lat="42.977172" lon="-1.612547">
				<ele>654</ele>
				<time>2018-04-28T14:50:09Z</time>
			</trkpt>
			<trkpt lat="42.977208" lon="-1.61249">
				<ele>625</ele>
				<time>2018-04-28T14:50:11Z</time>
			</trkpt>
			<trkpt lat="42.97724" lon="-1.612445">
				<ele>625</ele>
				<time>2018-04-28T14:50:13Z</time>
			</trkpt>
			<trkpt lat="42.977271" lon="-1.612398">
				<ele>625</ele>
				<time>2018-04-28T14:50:15Z</time>
			</trkpt>
			<trkpt lat="42.977301" lon="-1.612344">
				<ele>625</ele>
				<time>2018-04-28T14:50:17Z</time>
			</trkpt>
			<trkpt lat="42.977334" lon="-1.61229">
				<ele>625</ele>
				<time>2018-04-28T14:50:19Z</time>
			</trkpt>
			<trkpt lat="42.977372" lon="-1.612243">
				<ele>625</ele>
				<time>2018-04-28T14:50:21Z</time>
			</trkpt>
			<trkpt lat="42.977402" lon="-1.612192">
				<ele>625</ele>
				<time>2018-04-28T14:50:23Z</time>
			</trkpt>
			<trkpt lat="42.977435" lon="-1.612143">
				<ele>625</ele>
				<time>2018-04-28T14:50:25Z</time>
			</trkpt>
			<trkpt lat="42.977467" lon="-1.612087">
				<ele>625</ele>
				<time>2018-04-28T14:50:27Z</time>
			</trkpt>
			<trkpt lat="42.977503" lon="-1.61204">
				<ele>625</ele>
				<time>2018-04-28T14:50:29Z</time>
			</trkpt>
			<trkpt lat="42.977538" lon="-1.611994">
				<ele>625</ele>
				<time>2018-04-28T14:50:31Z</time>
			</trkpt>
			<trkpt lat="42.977566" lon="-1.61194">
				<ele>625</ele>
				<time>2018-04-28T14:50:33Z</time>
			</trkpt>
			<trkpt lat="42.977605" lon="-1.611904">
				<ele>625</ele>
				<time>2018-04-28T14:50:35Z</time>
			</trkpt>
			<trkpt lat="42.977645" lon="-1.611863">
				<ele>625</ele>
				<time>2018-04-28T14:50:37Z</time>
			</trkpt>
			<trkpt lat="42.977682" lon="-1.61182">
				<ele>625</ele>
				<time>2018-04-28T14:50:39Z</time>
			</trkpt>
			<trkpt lat="42.977723" lon="-1.611785">
				<ele>625</ele>
				<time>2018-04-28T14:50:41Z</time>
			</trkpt>
			<trkpt lat="42.977761" lon="-1.61174">
				<ele>625</ele>
				<time>2018-04-28T14:50:43Z</time>
			</trkpt>
			<trkpt lat="42.977797" lon="-1.611696">
				<ele>625</ele>
				<time>2018-04-28T14:50:45Z</time>
			</trkpt>
			<trkpt lat="42.977842" lon="-1.611635">
				<ele>625</ele>
				<time>2018-04-28T14:50:48Z</time>
			</trkpt>
			<trkpt lat="42.977875" lon="-1.61159">
				<ele>625</ele>
				<time>2018-04-28T14:50:50Z</time>
			</trkpt>
			<trkpt lat="42.977908" lon="-1.611545">
				<ele>625</ele>
				<time>2018-04-28T14:50:52Z</time>
			</trkpt>
			<trkpt lat="42.977958" lon="-1.611477">
				<ele>625</ele>
				<time>2018-04-28T14:50:55Z</time>
			</trkpt>
			<trkpt lat="42.977995" lon="-1.61144">
				<ele>625</ele>
				<time>2018-04-28T14:50:57Z</time>
			</trkpt>
			<trkpt lat="42.978028" lon="-1.611394">
				<ele>625</ele>
				<time>2018-04-28T14:50:59Z</time>
			</trkpt>
			<trkpt lat="42.978066" lon="-1.611345">
				<ele>625</ele>
				<time>2018-04-28T14:51:01Z</time>
			</trkpt>
			<trkpt lat="42.978109" lon="-1.611271">
				<ele>625</ele>
				<time>2018-04-28T14:51:04Z</time>
			</trkpt>
			<trkpt lat="42.97814" lon="-1.611208">
				<ele>625</ele>
				<time>2018-04-28T14:51:06Z</time>
			</trkpt>
			<trkpt lat="42.978169" lon="-1.611147">
				<ele>625</ele>
				<time>2018-04-28T14:51:08Z</time>
			</trkpt>
			<trkpt lat="42.978207" lon="-1.611084">
				<ele>625</ele>
				<time>2018-04-28T14:51:10Z</time>
			</trkpt>
			<trkpt lat="42.978234" lon="-1.611022">
				<ele>625</ele>
				<time>2018-04-28T14:51:12Z</time>
			</trkpt>
			<trkpt lat="42.978264" lon="-1.610968">
				<ele>625</ele>
				<time>2018-04-28T14:51:14Z</time>
			</trkpt>
			<trkpt lat="42.978304" lon="-1.61091">
				<ele>625</ele>
				<time>2018-04-28T14:51:16Z</time>
			</trkpt>
			<trkpt lat="42.978353" lon="-1.610863">
				<ele>625</ele>
				<time>2018-04-28T14:51:19Z</time>
			</trkpt>
			<trkpt lat="42.978397" lon="-1.610835">
				<ele>625</ele>
				<time>2018-04-28T14:51:21Z</time>
			</trkpt>
			<trkpt lat="42.978436" lon="-1.610792">
				<ele>625</ele>
				<time>2018-04-28T14:51:23Z</time>
			</trkpt>
			<trkpt lat="42.97848" lon="-1.610749">
				<ele>625</ele>
				<time>2018-04-28T14:51:25Z</time>
			</trkpt>
			<trkpt lat="42.97853" lon="-1.610701">
				<ele>625</ele>
				<time>2018-04-28T14:51:27Z</time>
			</trkpt>
			<trkpt lat="42.97857" lon="-1.610659">
				<ele>625</ele>
				<time>2018-04-28T14:51:29Z</time>
			</trkpt>
			<trkpt lat="42.978624" lon="-1.610605">
				<ele>625</ele>
				<time>2018-04-28T14:51:32Z</time>
			</trkpt>
			<trkpt lat="42.978664" lon="-1.610568">
				<ele>625</ele>
				<time>2018-04-28T14:51:34Z</time>
			</trkpt>
			<trkpt lat="42.978706" lon="-1.61054">
				<ele>625</ele>
				<time>2018-04-28T14:51:36Z</time>
			</trkpt>
			<trkpt lat="42.978755" lon="-1.610506">
				<ele>625</ele>
				<time>2018-04-28T14:51:38Z</time>
			</trkpt>
			<trkpt lat="42.978805" lon="-1.610474">
				<ele>625</ele>
				<time>2018-04-28T14:51:40Z</time>
			</trkpt>
			<trkpt lat="42.978853" lon="-1.610431">
				<ele>625</ele>
				<time>2018-04-28T14:51:42Z</time>
			</trkpt>
			<trkpt lat="42.978912" lon="-1.610416">
				<ele>611</ele>
				<time>2018-04-28T14:51:45Z</time>
			</trkpt>
			<trkpt lat="42.978952" lon="-1.610363">
				<ele>611</ele>
				<time>2018-04-28T14:51:47Z</time>
			</trkpt>
			<trkpt lat="42.978977" lon="-1.61031">
				<ele>611</ele>
				<time>2018-04-28T14:51:49Z</time>
			</trkpt>
			<trkpt lat="42.979022" lon="-1.610248">
				<ele>611</ele>
				<time>2018-04-28T14:51:52Z</time>
			</trkpt>
			<trkpt lat="42.97906" lon="-1.610211">
				<ele>611</ele>
				<time>2018-04-28T14:51:54Z</time>
			</trkpt>
			<trkpt lat="42.979113" lon="-1.610142">
				<ele>611</ele>
				<time>2018-04-28T14:51:57Z</time>
			</trkpt>
			<trkpt lat="42.979145" lon="-1.610082">
				<ele>611</ele>
				<time>2018-04-28T14:51:59Z</time>
			</trkpt>
			<trkpt lat="42.979185" lon="-1.610026">
				<ele>624</ele>
				<time>2018-04-28T14:52:01Z</time>
			</trkpt>
			<trkpt lat="42.979211" lon="-1.609976">
				<ele>624</ele>
				<time>2018-04-28T14:52:03Z</time>
			</trkpt>
			<trkpt lat="42.979238" lon="-1.609921">
				<ele>624</ele>
				<time>2018-04-28T14:52:05Z</time>
			</trkpt>
			<trkpt lat="42.979283" lon="-1.609852">
				<ele>624</ele>
				<time>2018-04-28T14:52:08Z</time>
			</trkpt>
			<trkpt lat="42.979317" lon="-1.609788">
				<ele>624</ele>
				<time>2018-04-28T14:52:10Z</time>
			</trkpt>
			<trkpt lat="42.979353" lon="-1.609741">
				<ele>624</ele>
				<time>2018-04-28T14:52:12Z</time>
			</trkpt>
			<trkpt lat="42.979386" lon="-1.609691">
				<ele>624</ele>
				<time>2018-04-28T14:52:14Z</time>
			</trkpt>
			<trkpt lat="42.979429" lon="-1.609667">
				<ele>624</ele>
				<time>2018-04-28T14:52:17Z</time>
			</trkpt>
			<trkpt lat="42.979467" lon="-1.609626">
				<ele>624</ele>
				<time>2018-04-28T14:52:23Z</time>
			</trkpt>
			<trkpt lat="42.979473" lon="-1.609556">
				<ele>624</ele>
				<time>2018-04-28T14:52:27Z</time>
			</trkpt>
			<trkpt lat="42.979475" lon="-1.609473">
				<ele>624</ele>
				<time>2018-04-28T14:52:30Z</time>
			</trkpt>
			<trkpt lat="42.979465" lon="-1.609401">
				<ele>624</ele>
				<time>2018-04-28T14:52:34Z</time>
			</trkpt>
			<trkpt lat="42.979469" lon="-1.609333">
				<ele>624</ele>
				<time>2018-04-28T14:52:37Z</time>
			</trkpt>
			<trkpt lat="42.979478" lon="-1.609261">
				<ele>624</ele>
				<time>2018-04-28T14:52:41Z</time>
			</trkpt>
			<trkpt lat="42.97946" lon="-1.609196">
				<ele>624</ele>
				<time>2018-04-28T14:52:44Z</time>
			</trkpt>
			<trkpt lat="42.979472" lon="-1.609126">
				<ele>624</ele>
				<time>2018-04-28T14:52:47Z</time>
			</trkpt>
			<trkpt lat="42.97946" lon="-1.60906">
				<ele>624</ele>
				<time>2018-04-28T14:52:51Z</time>
			</trkpt>
			<trkpt lat="42.979457" lon="-1.608977">
				<ele>624</ele>
				<time>2018-04-28T14:52:55Z</time>
			</trkpt>
			<trkpt lat="42.979425" lon="-1.608904">
				<ele>624</ele>
				<time>2018-04-28T14:52:59Z</time>
			</trkpt>
			<trkpt lat="42.979404" lon="-1.608835">
				<ele>624</ele>
				<time>2018-04-28T14:53:03Z</time>
			</trkpt>
			<trkpt lat="42.979387" lon="-1.60877">
				<ele>624</ele>
				<time>2018-04-28T14:53:06Z</time>
			</trkpt>
			<trkpt lat="42.979365" lon="-1.6087">
				<ele>624</ele>
				<time>2018-04-28T14:53:10Z</time>
			</trkpt>
			<trkpt lat="42.979346" lon="-1.608643">
				<ele>624</ele>
				<time>2018-04-28T14:53:13Z</time>
			</trkpt>
			<trkpt lat="42.979337" lon="-1.608579">
				<ele>624</ele>
				<time>2018-04-28T14:53:16Z</time>
			</trkpt>
			<trkpt lat="42.979314" lon="-1.60851">
				<ele>624</ele>
				<time>2018-04-28T14:53:20Z</time>
			</trkpt>
			<trkpt lat="42.97929" lon="-1.608442">
				<ele>624</ele>
				<time>2018-04-28T14:53:25Z</time>
			</trkpt>
			<trkpt lat="42.979279" lon="-1.608371">
				<ele>624</ele>
				<time>2018-04-28T14:53:30Z</time>
			</trkpt>
			<trkpt lat="42.979257" lon="-1.6083">
				<ele>676</ele>
				<time>2018-04-28T14:53:36Z</time>
			</trkpt>
			<trkpt lat="42.979222" lon="-1.608229">
				<ele>676</ele>
				<time>2018-04-28T14:53:41Z</time>
			</trkpt>
			<trkpt lat="42.979204" lon="-1.608162">
				<ele>676</ele>
				<time>2018-04-28T14:53:44Z</time>
			</trkpt>
			<trkpt lat="42.979181" lon="-1.608105">
				<ele>676</ele>
				<time>2018-04-28T14:53:47Z</time>
			</trkpt>
			<trkpt lat="42.979152" lon="-1.608053">
				<ele>650</ele>
				<time>2018-04-28T14:53:50Z</time>
			</trkpt>
			<trkpt lat="42.979125" lon="-1.608">
				<ele>650</ele>
				<time>2018-04-28T14:53:54Z</time>
			</trkpt>
			<trkpt lat="42.979109" lon="-1.607942">
				<ele>650</ele>
				<time>2018-04-28T14:53:58Z</time>
			</trkpt>
			<trkpt lat="42.979097" lon="-1.607866">
				<ele>650</ele>
				<time>2018-04-28T14:54:03Z</time>
			</trkpt>
			<trkpt lat="42.979111" lon="-1.607794">
				<ele>650</ele>
				<time>2018-04-28T14:54:09Z</time>
			</trkpt>
			<trkpt lat="42.979123" lon="-1.607727">
				<ele>650</ele>
				<time>2018-04-28T14:54:13Z</time>
			</trkpt>
			<trkpt lat="42.979159" lon="-1.607665">
				<ele>650</ele>
				<time>2018-04-28T14:54:17Z</time>
			</trkpt>
			<trkpt lat="42.979192" lon="-1.607612">
				<ele>676</ele>
				<time>2018-04-28T14:54:21Z</time>
			</trkpt>
			<trkpt lat="42.979225" lon="-1.607568">
				<ele>676</ele>
				<time>2018-04-28T14:54:27Z</time>
			</trkpt>
			<trkpt lat="42.979261" lon="-1.607527">
				<ele>676</ele>
				<time>2018-04-28T14:54:31Z</time>
			</trkpt>
			<trkpt lat="42.979296" lon="-1.607477">
				<ele>676</ele>
				<time>2018-04-28T14:54:35Z</time>
			</trkpt>
			<trkpt lat="42.979333" lon="-1.607438">
				<ele>676</ele>
				<time>2018-04-28T14:54:38Z</time>
			</trkpt>
			<trkpt lat="42.979375" lon="-1.6074">
				<ele>676</ele>
				<time>2018-04-28T14:54:43Z</time>
			</trkpt>
			<trkpt lat="42.979414" lon="-1.607346">
				<ele>676</ele>
				<time>2018-04-28T14:54:47Z</time>
			</trkpt>
			<trkpt lat="42.979451" lon="-1.607292">
				<ele>676</ele>
				<time>2018-04-28T14:54:51Z</time>
			</trkpt>
			<trkpt lat="42.979469" lon="-1.607215">
				<ele>676</ele>
				<time>2018-04-28T14:54:56Z</time>
			</trkpt>
			<trkpt lat="42.979472" lon="-1.607142">
				<ele>676</ele>
				<time>2018-04-28T14:55:01Z</time>
			</trkpt>
			<trkpt lat="42.979488" lon="-1.60707">
				<ele>676</ele>
				<time>2018-04-28T14:55:05Z</time>
			</trkpt>
			<trkpt lat="42.97951" lon="-1.607013">
				<ele>676</ele>
				<time>2018-04-28T14:55:09Z</time>
			</trkpt>
			<trkpt lat="42.979526" lon="-1.606955">
				<ele>676</ele>
				<time>2018-04-28T14:55:14Z</time>
			</trkpt>
			<trkpt lat="42.979534" lon="-1.606892">
				<ele>676</ele>
				<time>2018-04-28T14:55:18Z</time>
			</trkpt>
			<trkpt lat="42.979542" lon="-1.60682">
				<ele>676</ele>
				<time>2018-04-28T14:55:22Z</time>
			</trkpt>
			<trkpt lat="42.97955" lon="-1.606748">
				<ele>676</ele>
				<time>2018-04-28T14:55:26Z</time>
			</trkpt>
			<trkpt lat="42.979551" lon="-1.606675">
				<ele>676</ele>
				<time>2018-04-28T14:55:29Z</time>
			</trkpt>
			<trkpt lat="42.979548" lon="-1.606612">
				<ele>676</ele>
				<time>2018-04-28T14:55:33Z</time>
			</trkpt>
			<trkpt lat="42.97955" lon="-1.606542">
				<ele>676</ele>
				<time>2018-04-28T14:55:40Z</time>
			</trkpt>
			<trkpt lat="42.979552" lon="-1.606477">
				<ele>676</ele>
				<time>2018-04-28T14:55:43Z</time>
			</trkpt>
			<trkpt lat="42.979548" lon="-1.606406">
				<ele>676</ele>
				<time>2018-04-28T14:55:47Z</time>
			</trkpt>
			<trkpt lat="42.979526" lon="-1.606352">
				<ele>676</ele>
				<time>2018-04-28T14:55:52Z</time>
			</trkpt>
			<trkpt lat="42.979508" lon="-1.60629">
				<ele>676</ele>
				<time>2018-04-28T14:55:56Z</time>
			</trkpt>
			<trkpt lat="42.979476" lon="-1.606235">
				<ele>694</ele>
				<time>2018-04-28T14:56:02Z</time>
			</trkpt>
			<trkpt lat="42.979455" lon="-1.606167">
				<ele>694</ele>
				<time>2018-04-28T14:56:06Z</time>
			</trkpt>
			<trkpt lat="42.979426" lon="-1.60611">
				<ele>694</ele>
				<time>2018-04-28T14:56:10Z</time>
			</trkpt>
			<trkpt lat="42.979414" lon="-1.606045">
				<ele>694</ele>
				<time>2018-04-28T14:56:14Z</time>
			</trkpt>
			<trkpt lat="42.979394" lon="-1.605979">
				<ele>694</ele>
				<time>2018-04-28T14:56:18Z</time>
			</trkpt>
			<trkpt lat="42.979369" lon="-1.605912">
				<ele>694</ele>
				<time>2018-04-28T14:56:22Z</time>
			</trkpt>
			<trkpt lat="42.97936" lon="-1.605843">
				<ele>694</ele>
				<time>2018-04-28T14:56:27Z</time>
			</trkpt>
			<trkpt lat="42.979363" lon="-1.605772">
				<ele>694</ele>
				<time>2018-04-28T14:56:31Z</time>
			</trkpt>
			<trkpt lat="42.97937" lon="-1.6057">
				<ele>694</ele>
				<time>2018-04-28T14:56:35Z</time>
			</trkpt>
			<trkpt lat="42.97935" lon="-1.605641">
				<ele>694</ele>
				<time>2018-04-28T14:56:38Z</time>
			</trkpt>
			<trkpt lat="42.979333" lon="-1.605571">
				<ele>694</ele>
				<time>2018-04-28T14:56:41Z</time>
			</trkpt>
			<trkpt lat="42.979332" lon="-1.605508">
				<ele>694</ele>
				<time>2018-04-28T14:56:44Z</time>
			</trkpt>
			<trkpt lat="42.979346" lon="-1.605436">
				<ele>694</ele>
				<time>2018-04-28T14:56:47Z</time>
			</trkpt>
			<trkpt lat="42.979345" lon="-1.605374">
				<ele>694</ele>
				<time>2018-04-28T14:56:49Z</time>
			</trkpt>
			<trkpt lat="42.979332" lon="-1.605283">
				<ele>694</ele>
				<time>2018-04-28T14:56:53Z</time>
			</trkpt>
			<trkpt lat="42.979344" lon="-1.605214">
				<ele>694</ele>
				<time>2018-04-28T14:56:57Z</time>
			</trkpt>
			<trkpt lat="42.979375" lon="-1.605162">
				<ele>694</ele>
				<time>2018-04-28T14:57:01Z</time>
			</trkpt>
			<trkpt lat="42.97939" lon="-1.605093">
				<ele>694</ele>
				<time>2018-04-28T14:57:05Z</time>
			</trkpt>
			<trkpt lat="42.979403" lon="-1.605031">
				<ele>694</ele>
				<time>2018-04-28T14:57:08Z</time>
			</trkpt>
			<trkpt lat="42.979421" lon="-1.604961">
				<ele>694</ele>
				<time>2018-04-28T14:57:13Z</time>
			</trkpt>
			<trkpt lat="42.979433" lon="-1.6049">
				<ele>694</ele>
				<time>2018-04-28T14:57:17Z</time>
			</trkpt>
			<trkpt lat="42.979459" lon="-1.604847">
				<ele>694</ele>
				<time>2018-04-28T14:57:21Z</time>
			</trkpt>
			<trkpt lat="42.979478" lon="-1.604774">
				<ele>694</ele>
				<time>2018-04-28T14:57:24Z</time>
			</trkpt>
			<trkpt lat="42.979471" lon="-1.604698">
				<ele>694</ele>
				<time>2018-04-28T14:57:27Z</time>
			</trkpt>
			<trkpt lat="42.97945" lon="-1.604629">
				<ele>694</ele>
				<time>2018-04-28T14:57:31Z</time>
			</trkpt>
			<trkpt lat="42.979429" lon="-1.604568">
				<ele>694</ele>
				<time>2018-04-28T14:57:35Z</time>
			</trkpt>
			<trkpt lat="42.979426" lon="-1.604501">
				<ele>694</ele>
				<time>2018-04-28T14:57:38Z</time>
			</trkpt>
			<trkpt lat="42.979411" lon="-1.604442">
				<ele>694</ele>
				<time>2018-04-28T14:57:42Z</time>
			</trkpt>
			<trkpt lat="42.979393" lon="-1.604382">
				<ele>694</ele>
				<time>2018-04-28T14:57:45Z</time>
			</trkpt>
			<trkpt lat="42.979379" lon="-1.604319">
				<ele>694</ele>
				<time>2018-04-28T14:57:48Z</time>
			</trkpt>
			<trkpt lat="42.979348" lon="-1.604253">
				<ele>694</ele>
				<time>2018-04-28T14:57:52Z</time>
			</trkpt>
			<trkpt lat="42.979352" lon="-1.604184">
				<ele>694</ele>
				<time>2018-04-28T14:57:56Z</time>
			</trkpt>
			<trkpt lat="42.97935" lon="-1.604117">
				<ele>707</ele>
				<time>2018-04-28T14:58:00Z</time>
			</trkpt>
			<trkpt lat="42.979349" lon="-1.604039">
				<ele>707</ele>
				<time>2018-04-28T14:58:06Z</time>
			</trkpt>
			<trkpt lat="42.979347" lon="-1.603952">
				<ele>707</ele>
				<time>2018-04-28T14:58:10Z</time>
			</trkpt>
			<trkpt lat="42.97934" lon="-1.603873">
				<ele>707</ele>
				<time>2018-04-28T14:58:14Z</time>
			</trkpt>
			<trkpt lat="42.979332" lon="-1.603793">
				<ele>707</ele>
				<time>2018-04-28T14:58:17Z</time>
			</trkpt>
			<trkpt lat="42.979329" lon="-1.603729">
				<ele>707</ele>
				<time>2018-04-28T14:58:20Z</time>
			</trkpt>
			<trkpt lat="42.979329" lon="-1.603662">
				<ele>707</ele>
				<time>2018-04-28T14:58:24Z</time>
			</trkpt>
			<trkpt lat="42.979315" lon="-1.603602">
				<ele>707</ele>
				<time>2018-04-28T14:58:28Z</time>
			</trkpt>
			<trkpt lat="42.979308" lon="-1.603524">
				<ele>707</ele>
				<time>2018-04-28T14:58:32Z</time>
			</trkpt>
			<trkpt lat="42.97931" lon="-1.60343">
				<ele>707</ele>
				<time>2018-04-28T14:58:35Z</time>
			</trkpt>
			<trkpt lat="42.979327" lon="-1.60334">
				<ele>707</ele>
				<time>2018-04-28T14:58:38Z</time>
			</trkpt>
			<trkpt lat="42.979351" lon="-1.603261">
				<ele>707</ele>
				<time>2018-04-28T14:58:41Z</time>
			</trkpt>
			<trkpt lat="42.979369" lon="-1.603188">
				<ele>707</ele>
				<time>2018-04-28T14:58:44Z</time>
			</trkpt>
			<trkpt lat="42.979394" lon="-1.603135">
				<ele>707</ele>
				<time>2018-04-28T14:58:48Z</time>
			</trkpt>
			<trkpt lat="42.979402" lon="-1.603075">
				<ele>707</ele>
				<time>2018-04-28T14:58:51Z</time>
			</trkpt>
			<trkpt lat="42.979432" lon="-1.60302">
				<ele>707</ele>
				<time>2018-04-28T14:58:56Z</time>
			</trkpt>
			<trkpt lat="42.979429" lon="-1.602943">
				<ele>707</ele>
				<time>2018-04-28T14:59:00Z</time>
			</trkpt>
			<trkpt lat="42.979431" lon="-1.602858">
				<ele>707</ele>
				<time>2018-04-28T14:59:05Z</time>
			</trkpt>
			<trkpt lat="42.979421" lon="-1.602782">
				<ele>707</ele>
				<time>2018-04-28T14:59:09Z</time>
			</trkpt>
			<trkpt lat="42.979429" lon="-1.602703">
				<ele>707</ele>
				<time>2018-04-28T14:59:15Z</time>
			</trkpt>
			<trkpt lat="42.979451" lon="-1.602639">
				<ele>707</ele>
				<time>2018-04-28T14:59:19Z</time>
			</trkpt>
			<trkpt lat="42.979467" lon="-1.60258">
				<ele>707</ele>
				<time>2018-04-28T14:59:24Z</time>
			</trkpt>
			<trkpt lat="42.979493" lon="-1.602521">
				<ele>707</ele>
				<time>2018-04-28T14:59:28Z</time>
			</trkpt>
			<trkpt lat="42.979507" lon="-1.60246">
				<ele>707</ele>
				<time>2018-04-28T14:59:32Z</time>
			</trkpt>
			<trkpt lat="42.979546" lon="-1.602393">
				<ele>707</ele>
				<time>2018-04-28T14:59:36Z</time>
			</trkpt>
			<trkpt lat="42.97958" lon="-1.602338">
				<ele>707</ele>
				<time>2018-04-28T14:59:39Z</time>
			</trkpt>
			<trkpt lat="42.97962" lon="-1.602291">
				<ele>707</ele>
				<time>2018-04-28T14:59:42Z</time>
			</trkpt>
			<trkpt lat="42.979654" lon="-1.602248">
				<ele>707</ele>
				<time>2018-04-28T14:59:45Z</time>
			</trkpt>
			<trkpt lat="42.979695" lon="-1.602205">
				<ele>707</ele>
				<time>2018-04-28T14:59:48Z</time>
			</trkpt>
			<trkpt lat="42.979734" lon="-1.602172">
				<ele>707</ele>
				<time>2018-04-28T14:59:52Z</time>
			</trkpt>
			<trkpt lat="42.979774" lon="-1.602117">
				<ele>707</ele>
				<time>2018-04-28T14:59:55Z</time>
			</trkpt>
			<trkpt lat="42.979814" lon="-1.602072">
				<ele>706</ele>
				<time>2018-04-28T14:59:59Z</time>
			</trkpt>
			<trkpt lat="42.979857" lon="-1.60203">
				<ele>706</ele>
				<time>2018-04-28T15:00:02Z</time>
			</trkpt>
			<trkpt lat="42.979907" lon="-1.601991">
				<ele>706</ele>
				<time>2018-04-28T15:00:07Z</time>
			</trkpt>
			<trkpt lat="42.979951" lon="-1.601965">
				<ele>706</ele>
				<time>2018-04-28T15:00:10Z</time>
			</trkpt>
			<trkpt lat="42.979998" lon="-1.601951">
				<ele>706</ele>
				<time>2018-04-28T15:00:14Z</time>
			</trkpt>
			<trkpt lat="42.980051" lon="-1.601901">
				<ele>706</ele>
				<time>2018-04-28T15:00:17Z</time>
			</trkpt>
			<trkpt lat="42.980095" lon="-1.601874">
				<ele>706</ele>
				<time>2018-04-28T15:00:20Z</time>
			</trkpt>
			<trkpt lat="42.980125" lon="-1.601817">
				<ele>706</ele>
				<time>2018-04-28T15:00:24Z</time>
			</trkpt>
			<trkpt lat="42.980171" lon="-1.60179">
				<ele>706</ele>
				<time>2018-04-28T15:00:28Z</time>
			</trkpt>
			<trkpt lat="42.980211" lon="-1.601746">
				<ele>706</ele>
				<time>2018-04-28T15:00:31Z</time>
			</trkpt>
			<trkpt lat="42.980245" lon="-1.601697">
				<ele>706</ele>
				<time>2018-04-28T15:00:34Z</time>
			</trkpt>
			<trkpt lat="42.980278" lon="-1.601622">
				<ele>706</ele>
				<time>2018-04-28T15:00:38Z</time>
			</trkpt>
			<trkpt lat="42.980328" lon="-1.601594">
				<ele>706</ele>
				<time>2018-04-28T15:00:43Z</time>
			</trkpt>
			<trkpt lat="42.980355" lon="-1.601544">
				<ele>706</ele>
				<time>2018-04-28T15:00:46Z</time>
			</trkpt>
			<trkpt lat="42.980394" lon="-1.601509">
				<ele>706</ele>
				<time>2018-04-28T15:00:49Z</time>
			</trkpt>
			<trkpt lat="42.980434" lon="-1.601438">
				<ele>706</ele>
				<time>2018-04-28T15:00:53Z</time>
			</trkpt>
			<trkpt lat="42.980461" lon="-1.60138">
				<ele>706</ele>
				<time>2018-04-28T15:00:59Z</time>
			</trkpt>
			<trkpt lat="42.980509" lon="-1.601347">
				<ele>706</ele>
				<time>2018-04-28T15:01:04Z</time>
			</trkpt>
			<trkpt lat="42.980541" lon="-1.601291">
				<ele>706</ele>
				<time>2018-04-28T15:01:07Z</time>
			</trkpt>
			<trkpt lat="42.980585" lon="-1.601248">
				<ele>706</ele>
				<time>2018-04-28T15:01:12Z</time>
			</trkpt>
			<trkpt lat="42.980604" lon="-1.601192">
				<ele>706</ele>
				<time>2018-04-28T15:01:15Z</time>
			</trkpt>
			<trkpt lat="42.980637" lon="-1.601148">
				<ele>706</ele>
				<time>2018-04-28T15:01:18Z</time>
			</trkpt>
			<trkpt lat="42.980673" lon="-1.601096">
				<ele>706</ele>
				<time>2018-04-28T15:01:21Z</time>
			</trkpt>
			<trkpt lat="42.980707" lon="-1.601036">
				<ele>706</ele>
				<time>2018-04-28T15:01:25Z</time>
			</trkpt>
			<trkpt lat="42.980737" lon="-1.600983">
				<ele>706</ele>
				<time>2018-04-28T15:01:28Z</time>
			</trkpt>
			<trkpt lat="42.980761" lon="-1.600925">
				<ele>706</ele>
				<time>2018-04-28T15:01:32Z</time>
			</trkpt>
			<trkpt lat="42.980787" lon="-1.600868">
				<ele>706</ele>
				<time>2018-04-28T15:01:36Z</time>
			</trkpt>
			<trkpt lat="42.980831" lon="-1.600814">
				<ele>706</ele>
				<time>2018-04-28T15:01:40Z</time>
			</trkpt>
			<trkpt lat="42.980864" lon="-1.600769">
				<ele>706</ele>
				<time>2018-04-28T15:01:44Z</time>
			</trkpt>
			<trkpt lat="42.980872" lon="-1.600691">
				<ele>706</ele>
				<time>2018-04-28T15:01:49Z</time>
			</trkpt>
			<trkpt lat="42.980884" lon="-1.600627">
				<ele>706</ele>
				<time>2018-04-28T15:01:53Z</time>
			</trkpt>
			<trkpt lat="42.98089" lon="-1.60056">
				<ele>706</ele>
				<time>2018-04-28T15:01:56Z</time>
			</trkpt>
			<trkpt lat="42.980915" lon="-1.600505">
				<ele>706</ele>
				<time>2018-04-28T15:01:59Z</time>
			</trkpt>
			<trkpt lat="42.980934" lon="-1.600448">
				<ele>706</ele>
				<time>2018-04-28T15:02:02Z</time>
			</trkpt>
			<trkpt lat="42.980954" lon="-1.600383">
				<ele>706</ele>
				<time>2018-04-28T15:02:06Z</time>
			</trkpt>
			<trkpt lat="42.980983" lon="-1.600317">
				<ele>706</ele>
				<time>2018-04-28T15:02:10Z</time>
			</trkpt>
			<trkpt lat="42.981013" lon="-1.600266">
				<ele>706</ele>
				<time>2018-04-28T15:02:14Z</time>
			</trkpt>
			<trkpt lat="42.981044" lon="-1.600206">
				<ele>706</ele>
				<time>2018-04-28T15:02:20Z</time>
			</trkpt>
			<trkpt lat="42.981059" lon="-1.600133">
				<ele>706</ele>
				<time>2018-04-28T15:02:24Z</time>
			</trkpt>
			<trkpt lat="42.981056" lon="-1.600053">
				<ele>706</ele>
				<time>2018-04-28T15:02:27Z</time>
			</trkpt>
			<trkpt lat="42.981073" lon="-1.599991">
				<ele>756</ele>
				<time>2018-04-28T15:02:30Z</time>
			</trkpt>
			<trkpt lat="42.981086" lon="-1.599922">
				<ele>756</ele>
				<time>2018-04-28T15:02:33Z</time>
			</trkpt>
			<trkpt lat="42.981094" lon="-1.599851">
				<ele>756</ele>
				<time>2018-04-28T15:02:36Z</time>
			</trkpt>
			<trkpt lat="42.981115" lon="-1.599793">
				<ele>756</ele>
				<time>2018-04-28T15:02:39Z</time>
			</trkpt>
			<trkpt lat="42.981137" lon="-1.599721">
				<ele>756</ele>
				<time>2018-04-28T15:02:42Z</time>
			</trkpt>
			<trkpt lat="42.981164" lon="-1.59965">
				<ele>756</ele>
				<time>2018-04-28T15:02:46Z</time>
			</trkpt>
			<trkpt lat="42.981189" lon="-1.599581">
				<ele>756</ele>
				<time>2018-04-28T15:02:51Z</time>
			</trkpt>
			<trkpt lat="42.981216" lon="-1.599518">
				<ele>756</ele>
				<time>2018-04-28T15:02:55Z</time>
			</trkpt>
			<trkpt lat="42.981231" lon="-1.599447">
				<ele>756</ele>
				<time>2018-04-28T15:02:58Z</time>
			</trkpt>
			<trkpt lat="42.981249" lon="-1.599389">
				<ele>756</ele>
				<time>2018-04-28T15:03:01Z</time>
			</trkpt>
			<trkpt lat="42.981268" lon="-1.599332">
				<ele>761</ele>
				<time>2018-04-28T15:03:04Z</time>
			</trkpt>
			<trkpt lat="42.981304" lon="-1.599252">
				<ele>761</ele>
				<time>2018-04-28T15:03:07Z</time>
			</trkpt>
			<trkpt lat="42.981339" lon="-1.599207">
				<ele>761</ele>
				<time>2018-04-28T15:03:13Z</time>
			</trkpt>
			<trkpt lat="42.98137" lon="-1.599158">
				<ele>761</ele>
				<time>2018-04-28T15:03:19Z</time>
			</trkpt>
			<trkpt lat="42.981403" lon="-1.599097">
				<ele>761</ele>
				<time>2018-04-28T15:03:24Z</time>
			</trkpt>
			<trkpt lat="42.981428" lon="-1.599045">
				<ele>761</ele>
				<time>2018-04-28T15:03:28Z</time>
			</trkpt>
			<trkpt lat="42.981458" lon="-1.598983">
				<ele>761</ele>
				<time>2018-04-28T15:03:33Z</time>
			</trkpt>
			<trkpt lat="42.981467" lon="-1.598916">
				<ele>761</ele>
				<time>2018-04-28T15:03:39Z</time>
			</trkpt>
			<trkpt lat="42.981499" lon="-1.598863">
				<ele>761</ele>
				<time>2018-04-28T15:03:42Z</time>
			</trkpt>
			<trkpt lat="42.981537" lon="-1.598805">
				<ele>761</ele>
				<time>2018-04-28T15:03:46Z</time>
			</trkpt>
			<trkpt lat="42.981587" lon="-1.59876">
				<ele>761</ele>
				<time>2018-04-28T15:03:50Z</time>
			</trkpt>
			<trkpt lat="42.981615" lon="-1.598711">
				<ele>761</ele>
				<time>2018-04-28T15:03:53Z</time>
			</trkpt>
			<trkpt lat="42.981628" lon="-1.598651">
				<ele>761</ele>
				<time>2018-04-28T15:03:57Z</time>
			</trkpt>
			<trkpt lat="42.981628" lon="-1.598581">
				<ele>761</ele>
				<time>2018-04-28T15:04:00Z</time>
			</trkpt>
			<trkpt lat="42.981627" lon="-1.598518">
				<ele>761</ele>
				<time>2018-04-28T15:04:05Z</time>
			</trkpt>
			<trkpt lat="42.981659" lon="-1.598459">
				<ele>761</ele>
				<time>2018-04-28T15:04:11Z</time>
			</trkpt>
			<trkpt lat="42.981708" lon="-1.598436">
				<ele>761</ele>
				<time>2018-04-28T15:04:18Z</time>
			</trkpt>
			<trkpt lat="42.981751" lon="-1.59836">
				<ele>761</ele>
				<time>2018-04-28T15:04:23Z</time>
			</trkpt>
			<trkpt lat="42.981776" lon="-1.598294">
				<ele>761</ele>
				<time>2018-04-28T15:04:27Z</time>
			</trkpt>
			<trkpt lat="42.981803" lon="-1.598235">
				<ele>761</ele>
				<time>2018-04-28T15:04:31Z</time>
			</trkpt>
			<trkpt lat="42.981819" lon="-1.598163">
				<ele>761</ele>
				<time>2018-04-28T15:04:34Z</time>
			</trkpt>
			<trkpt lat="42.981841" lon="-1.598102">
				<ele>761</ele>
				<time>2018-04-28T15:04:37Z</time>
			</trkpt>
			<trkpt lat="42.981863" lon="-1.598026">
				<ele>761</ele>
				<time>2018-04-28T15:04:41Z</time>
			</trkpt>
			<trkpt lat="42.981892" lon="-1.597971">
				<ele>761</ele>
				<time>2018-04-28T15:04:44Z</time>
			</trkpt>
			<trkpt lat="42.981937" lon="-1.597948">
				<ele>761</ele>
				<time>2018-04-28T15:04:48Z</time>
			</trkpt>
			<trkpt lat="42.981988" lon="-1.597938">
				<ele>761</ele>
				<time>2018-04-28T15:04:51Z</time>
			</trkpt>
			<trkpt lat="42.98204" lon="-1.59794">
				<ele>761</ele>
				<time>2018-04-28T15:04:55Z</time>
			</trkpt>
			<trkpt lat="42.982083" lon="-1.597988">
				<ele>761</ele>
				<time>2018-04-28T15:04:59Z</time>
			</trkpt>
			<trkpt lat="42.982136" lon="-1.598025">
				<ele>761</ele>
				<time>2018-04-28T15:05:03Z</time>
			</trkpt>
			<trkpt lat="42.982192" lon="-1.598043">
				<ele>761</ele>
				<time>2018-04-28T15:05:08Z</time>
			</trkpt>
			<trkpt lat="42.98223" lon="-1.598078">
				<ele>761</ele>
				<time>2018-04-28T15:05:14Z</time>
			</trkpt>
			<trkpt lat="42.982273" lon="-1.598133">
				<ele>761</ele>
				<time>2018-04-28T15:05:19Z</time>
			</trkpt>
			<trkpt lat="42.982319" lon="-1.598165">
				<ele>761</ele>
				<time>2018-04-28T15:05:23Z</time>
			</trkpt>
			<trkpt lat="42.982363" lon="-1.5982">
				<ele>761</ele>
				<time>2018-04-28T15:05:27Z</time>
			</trkpt>
			<trkpt lat="42.982401" lon="-1.598257">
				<ele>761</ele>
				<time>2018-04-28T15:05:31Z</time>
			</trkpt>
			<trkpt lat="42.982446" lon="-1.598275">
				<ele>761</ele>
				<time>2018-04-28T15:05:35Z</time>
			</trkpt>
			<trkpt lat="42.982493" lon="-1.598282">
				<ele>761</ele>
				<time>2018-04-28T15:05:39Z</time>
			</trkpt>
			<trkpt lat="42.982538" lon="-1.59824">
				<ele>761</ele>
				<time>2018-04-28T15:05:44Z</time>
			</trkpt>
			<trkpt lat="42.982575" lon="-1.598194">
				<ele>761</ele>
				<time>2018-04-28T15:05:47Z</time>
			</trkpt>
			<trkpt lat="42.982615" lon="-1.598151">
				<ele>761</ele>
				<time>2018-04-28T15:05:50Z</time>
			</trkpt>
			<trkpt lat="42.982654" lon="-1.598097">
				<ele>761</ele>
				<time>2018-04-28T15:05:55Z</time>
			</trkpt>
			<trkpt lat="42.982701" lon="-1.598039">
				<ele>761</ele>
				<time>2018-04-28T15:05:59Z</time>
			</trkpt>
			<trkpt lat="42.982748" lon="-1.598002">
				<ele>761</ele>
				<time>2018-04-28T15:06:03Z</time>
			</trkpt>
			<trkpt lat="42.982794" lon="-1.597992">
				<ele>761</ele>
				<time>2018-04-28T15:06:07Z</time>
			</trkpt>
			<trkpt lat="42.982839" lon="-1.597999">
				<ele>761</ele>
				<time>2018-04-28T15:06:10Z</time>
			</trkpt>
			<trkpt lat="42.982879" lon="-1.597969">
				<ele>761</ele>
				<time>2018-04-28T15:06:13Z</time>
			</trkpt>
			<trkpt lat="42.982919" lon="-1.597925">
				<ele>761</ele>
				<time>2018-04-28T15:06:15Z</time>
			</trkpt>
			<trkpt lat="42.982965" lon="-1.59787">
				<ele>753</ele>
				<time>2018-04-28T15:06:18Z</time>
			</trkpt>
			<trkpt lat="42.982996" lon="-1.597813">
				<ele>753</ele>
				<time>2018-04-28T15:06:21Z</time>
			</trkpt>
			<trkpt lat="42.983033" lon="-1.597778">
				<ele>753</ele>
				<time>2018-04-28T15:06:23Z</time>
			</trkpt>
			<trkpt lat="42.983075" lon="-1.597718">
				<ele>753</ele>
				<time>2018-04-28T15:06:26Z</time>
			</trkpt>
			<trkpt lat="42.983127" lon="-1.597662">
				<ele>753</ele>
				<time>2018-04-28T15:06:31Z</time>
			</trkpt>
			<trkpt lat="42.983169" lon="-1.597619">
				<ele>753</ele>
				<time>2018-04-28T15:06:34Z</time>
			</trkpt>
			<trkpt lat="42.983227" lon="-1.597623">
				<ele>753</ele>
				<time>2018-04-28T15:06:37Z</time>
			</trkpt>
			<trkpt lat="42.983277" lon="-1.597612">
				<ele>753</ele>
				<time>2018-04-28T15:06:40Z</time>
			</trkpt>
			<trkpt lat="42.983319" lon="-1.59758">
				<ele>753</ele>
				<time>2018-04-28T15:06:43Z</time>
			</trkpt>
			<trkpt lat="42.98335" lon="-1.597535">
				<ele>768</ele>
				<time>2018-04-28T15:06:47Z</time>
			</trkpt>
			<trkpt lat="42.983379" lon="-1.597479">
				<ele>768</ele>
				<time>2018-04-28T15:06:52Z</time>
			</trkpt>
			<trkpt lat="42.983399" lon="-1.597398">
				<ele>768</ele>
				<time>2018-04-28T15:06:56Z</time>
			</trkpt>
			<trkpt lat="42.983391" lon="-1.597318">
				<ele>768</ele>
				<time>2018-04-28T15:07:00Z</time>
			</trkpt>
			<trkpt lat="42.983393" lon="-1.597232">
				<ele>768</ele>
				<time>2018-04-28T15:07:04Z</time>
			</trkpt>
			<trkpt lat="42.983405" lon="-1.597163">
				<ele>768</ele>
				<time>2018-04-28T15:07:07Z</time>
			</trkpt>
			<trkpt lat="42.983406" lon="-1.597098">
				<ele>768</ele>
				<time>2018-04-28T15:07:10Z</time>
			</trkpt>
			<trkpt lat="42.983428" lon="-1.597033">
				<ele>768</ele>
				<time>2018-04-28T15:07:13Z</time>
			</trkpt>
			<trkpt lat="42.983448" lon="-1.596971">
				<ele>768</ele>
				<time>2018-04-28T15:07:16Z</time>
			</trkpt>
			<trkpt lat="42.983493" lon="-1.596913">
				<ele>768</ele>
				<time>2018-04-28T15:07:19Z</time>
			</trkpt>
			<trkpt lat="42.983514" lon="-1.596848">
				<ele>768</ele>
				<time>2018-04-28T15:07:23Z</time>
			</trkpt>
			<trkpt lat="42.983548" lon="-1.596784">
				<ele>768</ele>
				<time>2018-04-28T15:07:27Z</time>
			</trkpt>
			<trkpt lat="42.983558" lon="-1.596707">
				<ele>768</ele>
				<time>2018-04-28T15:07:30Z</time>
			</trkpt>
			<trkpt lat="42.98356" lon="-1.596645">
				<ele>768</ele>
				<time>2018-04-28T15:07:33Z</time>
			</trkpt>
			<trkpt lat="42.98358" lon="-1.596578">
				<ele>768</ele>
				<time>2018-04-28T15:07:37Z</time>
			</trkpt>
			<trkpt lat="42.983597" lon="-1.596512">
				<ele>768</ele>
				<time>2018-04-28T15:07:40Z</time>
			</trkpt>
			<trkpt lat="42.983632" lon="-1.596466">
				<ele>768</ele>
				<time>2018-04-28T15:07:44Z</time>
			</trkpt>
			<trkpt lat="42.983669" lon="-1.596428">
				<ele>768</ele>
				<time>2018-04-28T15:07:48Z</time>
			</trkpt>
			<trkpt lat="42.983714" lon="-1.596403">
				<ele>768</ele>
				<time>2018-04-28T15:07:51Z</time>
			</trkpt>
			<trkpt lat="42.983758" lon="-1.596367">
				<ele>768</ele>
				<time>2018-04-28T15:07:55Z</time>
			</trkpt>
			<trkpt lat="42.983796" lon="-1.596334">
				<ele>768</ele>
				<time>2018-04-28T15:07:58Z</time>
			</trkpt>
			<trkpt lat="42.983844" lon="-1.596305">
				<ele>768</ele>
				<time>2018-04-28T15:08:02Z</time>
			</trkpt>
			<trkpt lat="42.98389" lon="-1.59625">
				<ele>768</ele>
				<time>2018-04-28T15:08:07Z</time>
			</trkpt>
			<trkpt lat="42.98392" lon="-1.5962">
				<ele>768</ele>
				<time>2018-04-28T15:08:11Z</time>
			</trkpt>
			<trkpt lat="42.98397" lon="-1.596163">
				<ele>768</ele>
				<time>2018-04-28T15:08:16Z</time>
			</trkpt>
			<trkpt lat="42.984016" lon="-1.596107">
				<ele>768</ele>
				<time>2018-04-28T15:08:20Z</time>
			</trkpt>
			<trkpt lat="42.984069" lon="-1.596104">
				<ele>768</ele>
				<time>2018-04-28T15:08:24Z</time>
			</trkpt>
			<trkpt lat="42.984118" lon="-1.596081">
				<ele>768</ele>
				<time>2018-04-28T15:08:28Z</time>
			</trkpt>
			<trkpt lat="42.984173" lon="-1.596034">
				<ele>768</ele>
				<time>2018-04-28T15:08:33Z</time>
			</trkpt>
			<trkpt lat="42.984213" lon="-1.595988">
				<ele>768</ele>
				<time>2018-04-28T15:08:39Z</time>
			</trkpt>
			<trkpt lat="42.984253" lon="-1.595958">
				<ele>768</ele>
				<time>2018-04-28T15:08:43Z</time>
			</trkpt>
			<trkpt lat="42.984295" lon="-1.595934">
				<ele>768</ele>
				<time>2018-04-28T15:08:47Z</time>
			</trkpt>
			<trkpt lat="42.984335" lon="-1.595894">
				<ele>768</ele>
				<time>2018-04-28T15:08:51Z</time>
			</trkpt>
			<trkpt lat="42.984363" lon="-1.595838">
				<ele>768</ele>
				<time>2018-04-28T15:08:56Z</time>
			</trkpt>
			<trkpt lat="42.984419" lon="-1.595832">
				<ele>792</ele>
				<time>2018-04-28T15:08:59Z</time>
			</trkpt>
			<trkpt lat="42.984453" lon="-1.595763">
				<ele>792</ele>
				<time>2018-04-28T15:09:04Z</time>
			</trkpt>
			<trkpt lat="42.984463" lon="-1.595697">
				<ele>792</ele>
				<time>2018-04-28T15:09:09Z</time>
			</trkpt>
			<trkpt lat="42.984517" lon="-1.595633">
				<ele>792</ele>
				<time>2018-04-28T15:09:14Z</time>
			</trkpt>
			<trkpt lat="42.984563" lon="-1.5956">
				<ele>792</ele>
				<time>2018-04-28T15:09:19Z</time>
			</trkpt>
			<trkpt lat="42.984606" lon="-1.595566">
				<ele>792</ele>
				<time>2018-04-28T15:09:27Z</time>
			</trkpt>
			<trkpt lat="42.984637" lon="-1.59552">
				<ele>792</ele>
				<time>2018-04-28T15:09:31Z</time>
			</trkpt>
			<trkpt lat="42.984659" lon="-1.59546">
				<ele>792</ele>
				<time>2018-04-28T15:09:34Z</time>
			</trkpt>
			<trkpt lat="42.984688" lon="-1.595405">
				<ele>792</ele>
				<time>2018-04-28T15:09:38Z</time>
			</trkpt>
			<trkpt lat="42.984734" lon="-1.595381">
				<ele>792</ele>
				<time>2018-04-28T15:09:43Z</time>
			</trkpt>
			<trkpt lat="42.984754" lon="-1.595319">
				<ele>792</ele>
				<time>2018-04-28T15:09:48Z</time>
			</trkpt>
			<trkpt lat="42.984786" lon="-1.595262">
				<ele>792</ele>
				<time>2018-04-28T15:09:53Z</time>
			</trkpt>
			<trkpt lat="42.984796" lon="-1.595194">
				<ele>792</ele>
				<time>2018-04-28T15:09:56Z</time>
			</trkpt>
			<trkpt lat="42.984835" lon="-1.59507">
				<ele>792</ele>
				<time>2018-04-28T15:10:02Z</time>
			</trkpt>
			<trkpt lat="42.98487" lon="-1.595031">
				<ele>792</ele>
				<time>2018-04-28T15:10:07Z</time>
			</trkpt>
			<trkpt lat="42.984906" lon="-1.594951">
				<ele>792</ele>
				<time>2018-04-28T15:10:08Z</time>
			</trkpt>
			<trkpt lat="42.984954" lon="-1.594917">
				<ele>792</ele>
				<time>2018-04-28T15:10:15Z</time>
			</trkpt>
			<trkpt lat="42.984954" lon="-1.594847">
				<ele>792</ele>
				<time>2018-04-28T15:10:20Z</time>
			</trkpt>
			<trkpt lat="42.984964" lon="-1.59477">
				<ele>792</ele>
				<time>2018-04-28T15:10:25Z</time>
			</trkpt>
			<trkpt lat="42.984971" lon="-1.594706">
				<ele>792</ele>
				<time>2018-04-28T15:10:30Z</time>
			</trkpt>
			<trkpt lat="42.984966" lon="-1.594644">
				<ele>792</ele>
				<time>2018-04-28T15:10:33Z</time>
			</trkpt>
			<trkpt lat="42.984989" lon="-1.594589">
				<ele>792</ele>
				<time>2018-04-28T15:10:36Z</time>
			</trkpt>
			<trkpt lat="42.984983" lon="-1.594517">
				<ele>792</ele>
				<time>2018-04-28T15:10:43Z</time>
			</trkpt>
			<trkpt lat="42.98499" lon="-1.594451">
				<ele>792</ele>
				<time>2018-04-28T15:10:47Z</time>
			</trkpt>
			<trkpt lat="42.985021" lon="-1.594401">
				<ele>792</ele>
				<time>2018-04-28T15:10:49Z</time>
			</trkpt>
			<trkpt lat="42.985034" lon="-1.59434">
				<ele>792</ele>
				<time>2018-04-28T15:10:53Z</time>
			</trkpt>
			<trkpt lat="42.985036" lon="-1.594266">
				<ele>792</ele>
				<time>2018-04-28T15:10:57Z</time>
			</trkpt>
			<trkpt lat="42.985045" lon="-1.594194">
				<ele>792</ele>
				<time>2018-04-28T15:11:00Z</time>
			</trkpt>
			<trkpt lat="42.985072" lon="-1.594128">
				<ele>792</ele>
				<time>2018-04-28T15:11:03Z</time>
			</trkpt>
			<trkpt lat="42.985072" lon="-1.594049">
				<ele>792</ele>
				<time>2018-04-28T15:11:08Z</time>
			</trkpt>
			<trkpt lat="42.98507" lon="-1.593987">
				<ele>792</ele>
				<time>2018-04-28T15:11:11Z</time>
			</trkpt>
			<trkpt lat="42.985084" lon="-1.593925">
				<ele>792</ele>
				<time>2018-04-28T15:11:15Z</time>
			</trkpt>
			<trkpt lat="42.985085" lon="-1.59386">
				<ele>792</ele>
				<time>2018-04-28T15:11:19Z</time>
			</trkpt>
			<trkpt lat="42.985078" lon="-1.593798">
				<ele>792</ele>
				<time>2018-04-28T15:11:23Z</time>
			</trkpt>
			<trkpt lat="42.985059" lon="-1.593722">
				<ele>821</ele>
				<time>2018-04-28T15:11:28Z</time>
			</trkpt>
			<trkpt lat="42.985063" lon="-1.593655">
				<ele>821</ele>
				<time>2018-04-28T15:11:35Z</time>
			</trkpt>
			<trkpt lat="42.985071" lon="-1.593594">
				<ele>821</ele>
				<time>2018-04-28T15:11:38Z</time>
			</trkpt>
			<trkpt lat="42.98509" lon="-1.593538">
				<ele>821</ele>
				<time>2018-04-28T15:11:42Z</time>
			</trkpt>
			<trkpt lat="42.985099" lon="-1.593476">
				<ele>821</ele>
				<time>2018-04-28T15:11:46Z</time>
			</trkpt>
			<trkpt lat="42.985114" lon="-1.593416">
				<ele>821</ele>
				<time>2018-04-28T15:11:50Z</time>
			</trkpt>
			<trkpt lat="42.985114" lon="-1.593351">
				<ele>821</ele>
				<time>2018-04-28T15:11:55Z</time>
			</trkpt>
			<trkpt lat="42.985086" lon="-1.593288">
				<ele>821</ele>
				<time>2018-04-28T15:11:59Z</time>
			</trkpt>
			<trkpt lat="42.98509" lon="-1.593226">
				<ele>821</ele>
				<time>2018-04-28T15:12:03Z</time>
			</trkpt>
			<trkpt lat="42.98511" lon="-1.593166">
				<ele>821</ele>
				<time>2018-04-28T15:12:08Z</time>
			</trkpt>
			<trkpt lat="42.98512" lon="-1.59309">
				<ele>821</ele>
				<time>2018-04-28T15:12:11Z</time>
			</trkpt>
			<trkpt lat="42.985113" lon="-1.593004">
				<ele>821</ele>
				<time>2018-04-28T15:12:14Z</time>
			</trkpt>
			<trkpt lat="42.985113" lon="-1.592931">
				<ele>821</ele>
				<time>2018-04-28T15:12:17Z</time>
			</trkpt>
			<trkpt lat="42.985126" lon="-1.592859">
				<ele>821</ele>
				<time>2018-04-28T15:12:20Z</time>
			</trkpt>
			<trkpt lat="42.985115" lon="-1.592796">
				<ele>821</ele>
				<time>2018-04-28T15:12:23Z</time>
			</trkpt>
			<trkpt lat="42.985083" lon="-1.592743">
				<ele>821</ele>
				<time>2018-04-28T15:12:26Z</time>
			</trkpt>
			<trkpt lat="42.985067" lon="-1.592677">
				<ele>821</ele>
				<time>2018-04-28T15:12:29Z</time>
			</trkpt>
			<trkpt lat="42.985074" lon="-1.592607">
				<ele>821</ele>
				<time>2018-04-28T15:12:33Z</time>
			</trkpt>
			<trkpt lat="42.985107" lon="-1.592562">
				<ele>821</ele>
				<time>2018-04-28T15:12:36Z</time>
			</trkpt>
			<trkpt lat="42.985139" lon="-1.592504">
				<ele>821</ele>
				<time>2018-04-28T15:12:41Z</time>
			</trkpt>
			<trkpt lat="42.985152" lon="-1.59243">
				<ele>821</ele>
				<time>2018-04-28T15:12:46Z</time>
			</trkpt>
			<trkpt lat="42.985176" lon="-1.592367">
				<ele>821</ele>
				<time>2018-04-28T15:12:49Z</time>
			</trkpt>
			<trkpt lat="42.985193" lon="-1.592295">
				<ele>821</ele>
				<time>2018-04-28T15:12:53Z</time>
			</trkpt>
			<trkpt lat="42.985226" lon="-1.592245">
				<ele>821</ele>
				<time>2018-04-28T15:12:58Z</time>
			</trkpt>
			<trkpt lat="42.985267" lon="-1.592197">
				<ele>821</ele>
				<time>2018-04-28T15:13:03Z</time>
			</trkpt>
			<trkpt lat="42.985293" lon="-1.592142">
				<ele>821</ele>
				<time>2018-04-28T15:13:07Z</time>
			</trkpt>
			<trkpt lat="42.985318" lon="-1.592083">
				<ele>821</ele>
				<time>2018-04-28T15:13:11Z</time>
			</trkpt>
			<trkpt lat="42.985339" lon="-1.592005">
				<ele>821</ele>
				<time>2018-04-28T15:13:18Z</time>
			</trkpt>
			<trkpt lat="42.985338" lon="-1.591932">
				<ele>821</ele>
				<time>2018-04-28T15:13:22Z</time>
			</trkpt>
			<trkpt lat="42.985345" lon="-1.591871">
				<ele>821</ele>
				<time>2018-04-28T15:13:27Z</time>
			</trkpt>
			<trkpt lat="42.985351" lon="-1.591806">
				<ele>821</ele>
				<time>2018-04-28T15:13:31Z</time>
			</trkpt>
			<trkpt lat="42.985369" lon="-1.591742">
				<ele>821</ele>
				<time>2018-04-28T15:13:35Z</time>
			</trkpt>
			<trkpt lat="42.985395" lon="-1.591685">
				<ele>821</ele>
				<time>2018-04-28T15:13:40Z</time>
			</trkpt>
			<trkpt lat="42.985403" lon="-1.591616">
				<ele>868</ele>
				<time>2018-04-28T15:13:46Z</time>
			</trkpt>
			<trkpt lat="42.9854" lon="-1.591548">
				<ele>868</ele>
				<time>2018-04-28T15:13:52Z</time>
			</trkpt>
			<trkpt lat="42.985401" lon="-1.591469">
				<ele>868</ele>
				<time>2018-04-28T15:13:58Z</time>
			</trkpt>
			<trkpt lat="42.985416" lon="-1.591406">
				<ele>868</ele>
				<time>2018-04-28T15:14:02Z</time>
			</trkpt>
			<trkpt lat="42.985407" lon="-1.591341">
				<ele>868</ele>
				<time>2018-04-28T15:14:07Z</time>
			</trkpt>
			<trkpt lat="42.985418" lon="-1.591281">
				<ele>874</ele>
				<time>2018-04-28T15:14:13Z</time>
			</trkpt>
			<trkpt lat="42.985435" lon="-1.591222">
				<ele>874</ele>
				<time>2018-04-28T15:14:20Z</time>
			</trkpt>
			<trkpt lat="42.985436" lon="-1.591158">
				<ele>874</ele>
				<time>2018-04-28T15:14:24Z</time>
			</trkpt>
			<trkpt lat="42.985432" lon="-1.591083">
				<ele>874</ele>
				<time>2018-04-28T15:14:31Z</time>
			</trkpt>
			<trkpt lat="42.985423" lon="-1.591016">
				<ele>874</ele>
				<time>2018-04-28T15:14:37Z</time>
			</trkpt>
			<trkpt lat="42.985412" lon="-1.590953">
				<ele>868</ele>
				<time>2018-04-28T15:14:42Z</time>
			</trkpt>
			<trkpt lat="42.985382" lon="-1.59089">
				<ele>868</ele>
				<time>2018-04-28T15:14:48Z</time>
			</trkpt>
			<trkpt lat="42.985381" lon="-1.590824">
				<ele>868</ele>
				<time>2018-04-28T15:14:52Z</time>
			</trkpt>
			<trkpt lat="42.985346" lon="-1.590779">
				<ele>868</ele>
				<time>2018-04-28T15:14:56Z</time>
			</trkpt>
			<trkpt lat="42.985314" lon="-1.590721">
				<ele>868</ele>
				<time>2018-04-28T15:15:03Z</time>
			</trkpt>
			<trkpt lat="42.98529" lon="-1.590659">
				<ele>868</ele>
				<time>2018-04-28T15:15:08Z</time>
			</trkpt>
			<trkpt lat="42.985284" lon="-1.59059">
				<ele>868</ele>
				<time>2018-04-28T15:15:15Z</time>
			</trkpt>
			<trkpt lat="42.985252" lon="-1.590543">
				<ele>868</ele>
				<time>2018-04-28T15:15:20Z</time>
			</trkpt>
			<trkpt lat="42.985215" lon="-1.590488">
				<ele>868</ele>
				<time>2018-04-28T15:15:24Z</time>
			</trkpt>
			<trkpt lat="42.985177" lon="-1.590452">
				<ele>868</ele>
				<time>2018-04-28T15:15:28Z</time>
			</trkpt>
			<trkpt lat="42.98515" lon="-1.590402">
				<ele>868</ele>
				<time>2018-04-28T15:15:33Z</time>
			</trkpt>
			<trkpt lat="42.985122" lon="-1.590351">
				<ele>868</ele>
				<time>2018-04-28T15:15:39Z</time>
			</trkpt>
			<trkpt lat="42.985076" lon="-1.590337">
				<ele>868</ele>
				<time>2018-04-28T15:15:47Z</time>
			</trkpt>
			<trkpt lat="42.985041" lon="-1.590296">
				<ele>868</ele>
				<time>2018-04-28T15:15:53Z</time>
			</trkpt>
			<trkpt lat="42.984992" lon="-1.590254">
				<ele>868</ele>
				<time>2018-04-28T15:15:57Z</time>
			</trkpt>
			<trkpt lat="42.984954" lon="-1.590218">
				<ele>868</ele>
				<time>2018-04-28T15:16:01Z</time>
			</trkpt>
			<trkpt lat="42.984927" lon="-1.590161">
				<ele>868</ele>
				<time>2018-04-28T15:16:04Z</time>
			</trkpt>
			<trkpt lat="42.984898" lon="-1.590096">
				<ele>868</ele>
				<time>2018-04-28T15:16:08Z</time>
			</trkpt>
			<trkpt lat="42.984884" lon="-1.590031">
				<ele>868</ele>
				<time>2018-04-28T15:16:11Z</time>
			</trkpt>
			<trkpt lat="42.984835" lon="-1.589994">
				<ele>868</ele>
				<time>2018-04-28T15:16:16Z</time>
			</trkpt>
			<trkpt lat="42.984793" lon="-1.589971">
				<ele>868</ele>
				<time>2018-04-28T15:16:20Z</time>
			</trkpt>
			<trkpt lat="42.984747" lon="-1.589946">
				<ele>868</ele>
				<time>2018-04-28T15:16:24Z</time>
			</trkpt>
			<trkpt lat="42.984696" lon="-1.589915">
				<ele>868</ele>
				<time>2018-04-28T15:16:27Z</time>
			</trkpt>
			<trkpt lat="42.984656" lon="-1.589885">
				<ele>868</ele>
				<time>2018-04-28T15:16:31Z</time>
			</trkpt>
			<trkpt lat="42.984604" lon="-1.589852">
				<ele>868</ele>
				<time>2018-04-28T15:16:36Z</time>
			</trkpt>
			<trkpt lat="42.984566" lon="-1.589816">
				<ele>868</ele>
				<time>2018-04-28T15:16:39Z</time>
			</trkpt>
			<trkpt lat="42.984569" lon="-1.589744">
				<ele>868</ele>
				<time>2018-04-28T15:16:46Z</time>
			</trkpt>
			<trkpt lat="42.984555" lon="-1.589669">
				<ele>868</ele>
				<time>2018-04-28T15:16:54Z</time>
			</trkpt>
			<trkpt lat="42.984551" lon="-1.589603">
				<ele>868</ele>
				<time>2018-04-28T15:16:59Z</time>
			</trkpt>
			<trkpt lat="42.984531" lon="-1.589536">
				<ele>913</ele>
				<time>2018-04-28T15:17:04Z</time>
			</trkpt>
			<trkpt lat="42.984535" lon="-1.589459">
				<ele>913</ele>
				<time>2018-04-28T15:17:10Z</time>
			</trkpt>
			<trkpt lat="42.98451" lon="-1.589404">
				<ele>913</ele>
				<time>2018-04-28T15:17:17Z</time>
			</trkpt>
			<trkpt lat="42.984473" lon="-1.589357">
				<ele>913</ele>
				<time>2018-04-28T15:17:24Z</time>
			</trkpt>
			<trkpt lat="42.98443" lon="-1.589308">
				<ele>913</ele>
				<time>2018-04-28T15:17:29Z</time>
			</trkpt>
			<trkpt lat="42.984382" lon="-1.589301">
				<ele>913</ele>
				<time>2018-04-28T15:17:33Z</time>
			</trkpt>
			<trkpt lat="42.984374" lon="-1.589239">
				<ele>913</ele>
				<time>2018-04-28T15:17:40Z</time>
			</trkpt>
			<trkpt lat="42.984328" lon="-1.589211">
				<ele>913</ele>
				<time>2018-04-28T15:18:08Z</time>
			</trkpt>
			<trkpt lat="42.984284" lon="-1.589173">
				<ele>913</ele>
				<time>2018-04-28T15:18:24Z</time>
			</trkpt>
			<trkpt lat="42.98425" lon="-1.589126">
				<ele>913</ele>
				<time>2018-04-28T15:18:38Z</time>
			</trkpt>
			<trkpt lat="42.984227" lon="-1.589051">
				<ele>913</ele>
				<time>2018-04-28T15:18:46Z</time>
			</trkpt>
			<trkpt lat="42.984201" lon="-1.588999">
				<ele>913</ele>
				<time>2018-04-28T15:18:59Z</time>
			</trkpt>
			<trkpt lat="42.984168" lon="-1.588948">
				<ele>913</ele>
				<time>2018-04-28T15:19:05Z</time>
			</trkpt>
			<trkpt lat="42.984127" lon="-1.588904">
				<ele>913</ele>
				<time>2018-04-28T15:19:11Z</time>
			</trkpt>
			<trkpt lat="42.98408" lon="-1.588894">
				<ele>913</ele>
				<time>2018-04-28T15:19:13Z</time>
			</trkpt>
			<trkpt lat="42.984052" lon="-1.588845">
				<ele>913</ele>
				<time>2018-04-28T15:19:18Z</time>
			</trkpt>
			<trkpt lat="42.984021" lon="-1.588796">
				<ele>913</ele>
				<time>2018-04-28T15:19:21Z</time>
			</trkpt>
			<trkpt lat="42.983986" lon="-1.588728">
				<ele>913</ele>
				<time>2018-04-28T15:19:24Z</time>
			</trkpt>
			<trkpt lat="42.983956" lon="-1.588659">
				<ele>913</ele>
				<time>2018-04-28T15:19:33Z</time>
			</trkpt>
			<trkpt lat="42.983895" lon="-1.588641">
				<ele>913</ele>
				<time>2018-04-28T15:19:36Z</time>
			</trkpt>
			<trkpt lat="42.983864" lon="-1.588548">
				<ele>913</ele>
				<time>2018-04-28T15:19:48Z</time>
			</trkpt>
			<trkpt lat="42.983841" lon="-1.588482">
				<ele>913</ele>
				<time>2018-04-28T15:19:51Z</time>
			</trkpt>
			<trkpt lat="42.983822" lon="-1.588418">
				<ele>913</ele>
				<time>2018-04-28T15:19:55Z</time>
			</trkpt>
			<trkpt lat="42.98379" lon="-1.588373">
				<ele>913</ele>
				<time>2018-04-28T15:19:58Z</time>
			</trkpt>
			<trkpt lat="42.983783" lon="-1.588308">
				<ele>913</ele>
				<time>2018-04-28T15:20:01Z</time>
			</trkpt>
			<trkpt lat="42.983743" lon="-1.588277">
				<ele>913</ele>
				<time>2018-04-28T15:20:10Z</time>
			</trkpt>
			<trkpt lat="42.983731" lon="-1.588213">
				<ele>913</ele>
				<time>2018-04-28T15:20:20Z</time>
			</trkpt>
			<trkpt lat="42.983723" lon="-1.588152">
				<ele>913</ele>
				<time>2018-04-28T15:20:26Z</time>
			</trkpt>
			<trkpt lat="42.983729" lon="-1.588084">
				<ele>913</ele>
				<time>2018-04-28T15:20:31Z</time>
			</trkpt>
			<trkpt lat="42.983741" lon="-1.588009">
				<ele>913</ele>
				<time>2018-04-28T15:20:37Z</time>
			</trkpt>
			<trkpt lat="42.983728" lon="-1.587942">
				<ele>913</ele>
				<time>2018-04-28T15:20:39Z</time>
			</trkpt>
			<trkpt lat="42.983693" lon="-1.587896">
				<ele>913</ele>
				<time>2018-04-28T15:20:41Z</time>
			</trkpt>
			<trkpt lat="42.983698" lon="-1.587835">
				<ele>913</ele>
				<time>2018-04-28T15:20:45Z</time>
			</trkpt>
			<trkpt lat="42.983697" lon="-1.587762">
				<ele>913</ele>
				<time>2018-04-28T15:20:49Z</time>
			</trkpt>
			<trkpt lat="42.983695" lon="-1.587694">
				<ele>913</ele>
				<time>2018-04-28T15:20:55Z</time>
			</trkpt>
			<trkpt lat="42.983699" lon="-1.587609">
				<ele>913</ele>
				<time>2018-04-28T15:20:57Z</time>
			</trkpt>
			<trkpt lat="42.983704" lon="-1.587545">
				<ele>913</ele>
				<time>2018-04-28T15:20:59Z</time>
			</trkpt>
			<trkpt lat="42.983712" lon="-1.587433">
				<ele>952</ele>
				<time>2018-04-28T15:21:01Z</time>
			</trkpt>
			<trkpt lat="42.983724" lon="-1.587363">
				<ele>952</ele>
				<time>2018-04-28T15:21:03Z</time>
			</trkpt>
			<trkpt lat="42.98374" lon="-1.587284">
				<ele>952</ele>
				<time>2018-04-28T15:21:06Z</time>
			</trkpt>
			<trkpt lat="42.98376" lon="-1.587221">
				<ele>952</ele>
				<time>2018-04-28T15:21:09Z</time>
			</trkpt>
			<trkpt lat="42.983777" lon="-1.587151">
				<ele>952</ele>
				<time>2018-04-28T15:21:13Z</time>
			</trkpt>
			<trkpt lat="42.9838" lon="-1.587089">
				<ele>952</ele>
				<time>2018-04-28T15:21:17Z</time>
			</trkpt>
			<trkpt lat="42.983823" lon="-1.58703">
				<ele>952</ele>
				<time>2018-04-28T15:21:23Z</time>
			</trkpt>
			<trkpt lat="42.983853" lon="-1.586979">
				<ele>952</ele>
				<time>2018-04-28T15:21:29Z</time>
			</trkpt>
			<trkpt lat="42.983877" lon="-1.58691">
				<ele>952</ele>
				<time>2018-04-28T15:21:35Z</time>
			</trkpt>
			<trkpt lat="42.983909" lon="-1.586864">
				<ele>952</ele>
				<time>2018-04-28T15:21:39Z</time>
			</trkpt>
			<trkpt lat="42.983926" lon="-1.586797">
				<ele>952</ele>
				<time>2018-04-28T15:21:46Z</time>
			</trkpt>
			<trkpt lat="42.983939" lon="-1.586719">
				<ele>952</ele>
				<time>2018-04-28T15:21:50Z</time>
			</trkpt>
			<trkpt lat="42.983958" lon="-1.58666">
				<ele>952</ele>
				<time>2018-04-28T15:21:54Z</time>
			</trkpt>
			<trkpt lat="42.983998" lon="-1.5866">
				<ele>952</ele>
				<time>2018-04-28T15:22:01Z</time>
			</trkpt>
			<trkpt lat="42.984014" lon="-1.586539">
				<ele>952</ele>
				<time>2018-04-28T15:22:06Z</time>
			</trkpt>
			<trkpt lat="42.98405" lon="-1.586491">
				<ele>952</ele>
				<time>2018-04-28T15:22:14Z</time>
			</trkpt>
			<trkpt lat="42.98407" lon="-1.586422">
				<ele>952</ele>
				<time>2018-04-28T15:22:20Z</time>
			</trkpt>
			<trkpt lat="42.984078" lon="-1.586362">
				<ele>952</ele>
				<time>2018-04-28T15:22:24Z</time>
			</trkpt>
			<trkpt lat="42.984071" lon="-1.586286">
				<ele>952</ele>
				<time>2018-04-28T15:22:29Z</time>
			</trkpt>
			<trkpt lat="42.984079" lon="-1.586217">
				<ele>952</ele>
				<time>2018-04-28T15:22:35Z</time>
			</trkpt>
			<trkpt lat="42.984078" lon="-1.586151">
				<ele>952</ele>
				<time>2018-04-28T15:22:47Z</time>
			</trkpt>
			<trkpt lat="42.984079" lon="-1.586087">
				<ele>952</ele>
				<time>2018-04-28T15:23:14Z</time>
			</trkpt>
			<trkpt lat="42.984072" lon="-1.586026">
				<ele>952</ele>
				<time>2018-04-28T15:23:21Z</time>
			</trkpt>
			<trkpt lat="42.984088" lon="-1.585962">
				<ele>952</ele>
				<time>2018-04-28T15:23:45Z</time>
			</trkpt>
			<trkpt lat="42.984122" lon="-1.585886">
				<ele>952</ele>
				<time>2018-04-28T15:23:49Z</time>
			</trkpt>
			<trkpt lat="42.98414" lon="-1.585814">
				<ele>952</ele>
				<time>2018-04-28T15:23:55Z</time>
			</trkpt>
			<trkpt lat="42.984139" lon="-1.585752">
				<ele>952</ele>
				<time>2018-04-28T15:24:08Z</time>
			</trkpt>
			<trkpt lat="42.984106" lon="-1.585703">
				<ele>952</ele>
				<time>2018-04-28T15:24:12Z</time>
			</trkpt>
			<trkpt lat="42.984122" lon="-1.585644">
				<ele>952</ele>
				<time>2018-04-28T15:24:18Z</time>
			</trkpt>
			<trkpt lat="42.984141" lon="-1.585582">
				<ele>952</ele>
				<time>2018-04-28T15:24:23Z</time>
			</trkpt>
			<trkpt lat="42.984148" lon="-1.585497">
				<ele>952</ele>
				<time>2018-04-28T15:24:35Z</time>
			</trkpt>
			<trkpt lat="42.984165" lon="-1.585438">
				<ele>952</ele>
				<time>2018-04-28T15:24:47Z</time>
			</trkpt>
			<trkpt lat="42.984183" lon="-1.585381">
				<ele>1006</ele>
				<time>2018-04-28T15:24:57Z</time>
			</trkpt>
			<trkpt lat="42.984195" lon="-1.585314">
				<ele>1006</ele>
				<time>2018-04-28T15:25:01Z</time>
			</trkpt>
			<trkpt lat="42.984214" lon="-1.585233">
				<ele>1006</ele>
				<time>2018-04-28T15:25:06Z</time>
			</trkpt>
			<trkpt lat="42.984232" lon="-1.585167">
				<ele>1006</ele>
				<time>2018-04-28T15:25:10Z</time>
			</trkpt>
			<trkpt lat="42.98426" lon="-1.585104">
				<ele>1006</ele>
				<time>2018-04-28T15:25:15Z</time>
			</trkpt>
			<trkpt lat="42.984279" lon="-1.585048">
				<ele>1006</ele>
				<time>2018-04-28T15:25:20Z</time>
			</trkpt>
			<trkpt lat="42.984315" lon="-1.584996">
				<ele>1006</ele>
				<time>2018-04-28T15:25:28Z</time>
			</trkpt>
			<trkpt lat="42.984337" lon="-1.584937">
				<ele>1006</ele>
				<time>2018-04-28T15:25:33Z</time>
			</trkpt>
			<trkpt lat="42.984367" lon="-1.584883">
				<ele>1006</ele>
				<time>2018-04-28T15:25:39Z</time>
			</trkpt>
			<trkpt lat="42.984397" lon="-1.584821">
				<ele>1006</ele>
				<time>2018-04-28T15:25:45Z</time>
			</trkpt>
			<trkpt lat="42.984439" lon="-1.584761">
				<ele>1006</ele>
				<time>2018-04-28T15:25:49Z</time>
			</trkpt>
			<trkpt lat="42.984458" lon="-1.584697">
				<ele>1006</ele>
				<time>2018-04-28T15:26:20Z</time>
			</trkpt>
			<trkpt lat="42.984498" lon="-1.584666">
				<ele>1006</ele>
				<time>2018-04-28T15:26:49Z</time>
			</trkpt>
			<trkpt lat="42.984491" lon="-1.584596">
				<ele>1006</ele>
				<time>2018-04-28T15:27:00Z</time>
			</trkpt>
			<trkpt lat="42.984502" lon="-1.584534">
				<ele>1006</ele>
				<time>2018-04-28T15:27:05Z</time>
			</trkpt>
			<trkpt lat="42.984536" lon="-1.584491">
				<ele>1006</ele>
				<time>2018-04-28T15:27:20Z</time>
			</trkpt>
			<trkpt lat="42.984562" lon="-1.584438">
				<ele>1006</ele>
				<time>2018-04-28T15:27:31Z</time>
			</trkpt>
			<trkpt lat="42.984587" lon="-1.584382">
				<ele>1006</ele>
				<time>2018-04-28T15:27:44Z</time>
			</trkpt>
			<trkpt lat="42.984595" lon="-1.584321">
				<ele>1006</ele>
				<time>2018-04-28T15:28:01Z</time>
			</trkpt>
			<trkpt lat="42.984615" lon="-1.584262">
				<ele>1006</ele>
				<time>2018-04-28T15:28:10Z</time>
			</trkpt>
			<trkpt lat="42.984644" lon="-1.584202">
				<ele>1006</ele>
				<time>2018-04-28T15:28:16Z</time>
			</trkpt>
			<trkpt lat="42.98467" lon="-1.584148">
				<ele>1006</ele>
				<time>2018-04-28T15:28:21Z</time>
			</trkpt>
			<trkpt lat="42.984683" lon="-1.584088">
				<ele>1006</ele>
				<time>2018-04-28T15:28:29Z</time>
			</trkpt>
			<trkpt lat="42.984699" lon="-1.584031">
				<ele>1006</ele>
				<time>2018-04-28T15:28:35Z</time>
			</trkpt>
			<trkpt lat="42.984719" lon="-1.583972">
				<ele>1006</ele>
				<time>2018-04-28T15:28:41Z</time>
			</trkpt>
			<trkpt lat="42.984745" lon="-1.583922">
				<ele>1006</ele>
				<time>2018-04-28T15:28:53Z</time>
			</trkpt>
			<trkpt lat="42.984773" lon="-1.583858">
				<ele>1006</ele>
				<time>2018-04-28T15:29:00Z</time>
			</trkpt>
			<trkpt lat="42.984791" lon="-1.583798">
				<ele>1006</ele>
				<time>2018-04-28T15:29:07Z</time>
			</trkpt>
			<trkpt lat="42.984784" lon="-1.583735">
				<ele>1006</ele>
				<time>2018-04-28T15:29:14Z</time>
			</trkpt>
			<trkpt lat="42.984803" lon="-1.583675">
				<ele>1006</ele>
				<time>2018-04-28T15:29:18Z</time>
			</trkpt>
			<trkpt lat="42.984811" lon="-1.583614">
				<ele>1006</ele>
				<time>2018-04-28T15:29:44Z</time>
			</trkpt>
			<trkpt lat="42.984824" lon="-1.583548">
				<ele>1006</ele>
				<time>2018-04-28T15:29:56Z</time>
			</trkpt>
			<trkpt lat="42.984839" lon="-1.583488">
				<ele>1006</ele>
				<time>2018-04-28T15:30:22Z</time>
			</trkpt>
			<trkpt lat="42.984848" lon="-1.583428">
				<ele>1006</ele>
				<time>2018-04-28T15:30:27Z</time>
			</trkpt>
			<trkpt lat="42.984865" lon="-1.583352">
				<ele>1006</ele>
				<time>2018-04-28T15:30:31Z</time>
			</trkpt>
			<trkpt lat="42.984872" lon="-1.583281">
				<ele>1066</ele>
				<time>2018-04-28T15:30:35Z</time>
			</trkpt>
			<trkpt lat="42.984854" lon="-1.583218">
				<ele>1066</ele>
				<time>2018-04-28T15:30:41Z</time>
			</trkpt>
			<trkpt lat="42.984842" lon="-1.583148">
				<ele>1066</ele>
				<time>2018-04-28T15:30:46Z</time>
			</trkpt>
			<trkpt lat="42.984831" lon="-1.583087">
				<ele>1066</ele>
				<time>2018-04-28T15:30:50Z</time>
			</trkpt>
			<trkpt lat="42.984823" lon="-1.583019">
				<ele>1066</ele>
				<time>2018-04-28T15:30:58Z</time>
			</trkpt>
			<trkpt lat="42.984823" lon="-1.582957">
				<ele>1066</ele>
				<time>2018-04-28T15:31:05Z</time>
			</trkpt>
			<trkpt lat="42.984801" lon="-1.582901">
				<ele>1066</ele>
				<time>2018-04-28T15:31:19Z</time>
			</trkpt>
			<trkpt lat="42.984752" lon="-1.582833">
				<ele>1066</ele>
				<time>2018-04-28T15:31:22Z</time>
			</trkpt>
			<trkpt lat="42.984711" lon="-1.582782">
				<ele>1066</ele>
				<time>2018-04-28T15:31:25Z</time>
			</trkpt>
			<trkpt lat="42.984706" lon="-1.582714">
				<ele>1066</ele>
				<time>2018-04-28T15:31:28Z</time>
			</trkpt>
			<trkpt lat="42.984684" lon="-1.582654">
				<ele>1066</ele>
				<time>2018-04-28T15:31:31Z</time>
			</trkpt>
			<trkpt lat="42.984672" lon="-1.582587">
				<ele>1066</ele>
				<time>2018-04-28T15:31:34Z</time>
			</trkpt>
			<trkpt lat="42.984658" lon="-1.582518">
				<ele>1066</ele>
				<time>2018-04-28T15:31:37Z</time>
			</trkpt>
			<trkpt lat="42.984627" lon="-1.582473">
				<ele>1066</ele>
				<time>2018-04-28T15:31:40Z</time>
			</trkpt>
			<trkpt lat="42.984594" lon="-1.582413">
				<ele>1066</ele>
				<time>2018-04-28T15:31:43Z</time>
			</trkpt>
			<trkpt lat="42.984575" lon="-1.582343">
				<ele>1066</ele>
				<time>2018-04-28T15:31:46Z</time>
			</trkpt>
			<trkpt lat="42.984538" lon="-1.5823">
				<ele>1066</ele>
				<time>2018-04-28T15:31:50Z</time>
			</trkpt>
			<trkpt lat="42.98453" lon="-1.582221">
				<ele>1066</ele>
				<time>2018-04-28T15:31:53Z</time>
			</trkpt>
			<trkpt lat="42.984517" lon="-1.582156">
				<ele>1066</ele>
				<time>2018-04-28T15:31:56Z</time>
			</trkpt>
			<trkpt lat="42.984501" lon="-1.582083">
				<ele>1066</ele>
				<time>2018-04-28T15:32:00Z</time>
			</trkpt>
			<trkpt lat="42.98448" lon="-1.582009">
				<ele>1066</ele>
				<time>2018-04-28T15:32:04Z</time>
			</trkpt>
			<trkpt lat="42.984464" lon="-1.581951">
				<ele>1066</ele>
				<time>2018-04-28T15:32:06Z</time>
			</trkpt>
			<trkpt lat="42.984452" lon="-1.581888">
				<ele>1066</ele>
				<time>2018-04-28T15:32:09Z</time>
			</trkpt>
			<trkpt lat="42.984418" lon="-1.581827">
				<ele>1066</ele>
				<time>2018-04-28T15:32:13Z</time>
			</trkpt>
			<trkpt lat="42.984413" lon="-1.581755">
				<ele>1066</ele>
				<time>2018-04-28T15:32:19Z</time>
			</trkpt>
			<trkpt lat="42.984384" lon="-1.581701">
				<ele>1066</ele>
				<time>2018-04-28T15:32:23Z</time>
			</trkpt>
			<trkpt lat="42.984364" lon="-1.581641">
				<ele>1066</ele>
				<time>2018-04-28T15:32:26Z</time>
			</trkpt>
			<trkpt lat="42.98434" lon="-1.581579">
				<ele>1066</ele>
				<time>2018-04-28T15:32:29Z</time>
			</trkpt>
			<trkpt lat="42.984312" lon="-1.58152">
				<ele>1066</ele>
				<time>2018-04-28T15:32:32Z</time>
			</trkpt>
			<trkpt lat="42.984278" lon="-1.581473">
				<ele>1066</ele>
				<time>2018-04-28T15:32:38Z</time>
			</trkpt>
			<trkpt lat="42.984246" lon="-1.581419">
				<ele>1066</ele>
				<time>2018-04-28T15:32:43Z</time>
			</trkpt>
			<trkpt lat="42.984221" lon="-1.581367">
				<ele>1066</ele>
				<time>2018-04-28T15:32:46Z</time>
			</trkpt>
			<trkpt lat="42.984193" lon="-1.581315">
				<ele>1066</ele>
				<time>2018-04-28T15:32:50Z</time>
			</trkpt>
			<trkpt lat="42.984181" lon="-1.581245">
				<ele>1067</ele>
				<time>2018-04-28T15:32:54Z</time>
			</trkpt>
			<trkpt lat="42.984147" lon="-1.581185">
				<ele>1067</ele>
				<time>2018-04-28T15:32:59Z</time>
			</trkpt>
			<trkpt lat="42.984149" lon="-1.581119">
				<ele>1067</ele>
				<time>2018-04-28T15:33:02Z</time>
			</trkpt>
			<trkpt lat="42.984131" lon="-1.581059">
				<ele>1067</ele>
				<time>2018-04-28T15:33:07Z</time>
			</trkpt>
			<trkpt lat="42.984112" lon="-1.580983">
				<ele>1067</ele>
				<time>2018-04-28T15:33:11Z</time>
			</trkpt>
			<trkpt lat="42.984102" lon="-1.580917">
				<ele>1067</ele>
				<time>2018-04-28T15:33:14Z</time>
			</trkpt>
			<trkpt lat="42.984108" lon="-1.580837">
				<ele>1067</ele>
				<time>2018-04-28T15:33:18Z</time>
			</trkpt>
			<trkpt lat="42.984092" lon="-1.580755">
				<ele>1067</ele>
				<time>2018-04-28T15:33:21Z</time>
			</trkpt>
			<trkpt lat="42.984087" lon="-1.580689">
				<ele>1067</ele>
				<time>2018-04-28T15:33:23Z</time>
			</trkpt>
			<trkpt lat="42.984074" lon="-1.580603">
				<ele>1067</ele>
				<time>2018-04-28T15:33:27Z</time>
			</trkpt>
			<trkpt lat="42.98406" lon="-1.580529">
				<ele>1067</ele>
				<time>2018-04-28T15:33:30Z</time>
			</trkpt>
			<trkpt lat="42.984064" lon="-1.580444">
				<ele>1067</ele>
				<time>2018-04-28T15:33:33Z</time>
			</trkpt>
			<trkpt lat="42.984051" lon="-1.580372">
				<ele>1067</ele>
				<time>2018-04-28T15:33:36Z</time>
			</trkpt>
			<trkpt lat="42.98403" lon="-1.58029">
				<ele>1067</ele>
				<time>2018-04-28T15:33:39Z</time>
			</trkpt>
			<trkpt lat="42.984005" lon="-1.58023">
				<ele>1067</ele>
				<time>2018-04-28T15:33:41Z</time>
			</trkpt>
			<trkpt lat="42.98398" lon="-1.580164">
				<ele>1067</ele>
				<time>2018-04-28T15:33:44Z</time>
			</trkpt>
			<trkpt lat="42.983948" lon="-1.580099">
				<ele>1067</ele>
				<time>2018-04-28T15:33:47Z</time>
			</trkpt>
			<trkpt lat="42.983945" lon="-1.580021">
				<ele>1067</ele>
				<time>2018-04-28T15:33:49Z</time>
			</trkpt>
			<trkpt lat="42.983931" lon="-1.579963">
				<ele>1067</ele>
				<time>2018-04-28T15:33:51Z</time>
			</trkpt>
			<trkpt lat="42.98393" lon="-1.579893">
				<ele>1067</ele>
				<time>2018-04-28T15:33:53Z</time>
			</trkpt>
			<trkpt lat="42.983915" lon="-1.579828">
				<ele>1067</ele>
				<time>2018-04-28T15:33:55Z</time>
			</trkpt>
			<trkpt lat="42.983898" lon="-1.579757">
				<ele>1067</ele>
				<time>2018-04-28T15:33:57Z</time>
			</trkpt>
			<trkpt lat="42.983885" lon="-1.579667">
				<ele>1067</ele>
				<time>2018-04-28T15:34:00Z</time>
			</trkpt>
			<trkpt lat="42.983877" lon="-1.579589">
				<ele>1067</ele>
				<time>2018-04-28T15:34:03Z</time>
			</trkpt>
			<trkpt lat="42.983872" lon="-1.579514">
				<ele>1067</ele>
				<time>2018-04-28T15:34:07Z</time>
			</trkpt>
			<trkpt lat="42.983855" lon="-1.579454">
				<ele>1067</ele>
				<time>2018-04-28T15:34:10Z</time>
			</trkpt>
			<trkpt lat="42.983849" lon="-1.579385">
				<ele>1067</ele>
				<time>2018-04-28T15:34:13Z</time>
			</trkpt>
			<trkpt lat="42.983843" lon="-1.579315">
				<ele>1067</ele>
				<time>2018-04-28T15:34:17Z</time>
			</trkpt>
			<trkpt lat="42.983852" lon="-1.579254">
				<ele>1067</ele>
				<time>2018-04-28T15:34:20Z</time>
			</trkpt>
			<trkpt lat="42.983837" lon="-1.579182">
				<ele>1067</ele>
				<time>2018-04-28T15:34:24Z</time>
			</trkpt>
			<trkpt lat="42.983826" lon="-1.57911">
				<ele>1032</ele>
				<time>2018-04-28T15:34:27Z</time>
			</trkpt>
			<trkpt lat="42.98383" lon="-1.579017">
				<ele>1032</ele>
				<time>2018-04-28T15:34:30Z</time>
			</trkpt>
			<trkpt lat="42.983846" lon="-1.578938">
				<ele>1032</ele>
				<time>2018-04-28T15:34:33Z</time>
			</trkpt>
			<trkpt lat="42.983852" lon="-1.578854">
				<ele>1032</ele>
				<time>2018-04-28T15:34:37Z</time>
			</trkpt>
			<trkpt lat="42.983845" lon="-1.578775">
				<ele>1032</ele>
				<time>2018-04-28T15:34:40Z</time>
			</trkpt>
			<trkpt lat="42.983826" lon="-1.578709">
				<ele>1032</ele>
				<time>2018-04-28T15:34:43Z</time>
			</trkpt>
			<trkpt lat="42.983808" lon="-1.578641">
				<ele>1032</ele>
				<time>2018-04-28T15:34:46Z</time>
			</trkpt>
			<trkpt lat="42.983811" lon="-1.578573">
				<ele>1032</ele>
				<time>2018-04-28T15:34:49Z</time>
			</trkpt>
			<trkpt lat="42.983813" lon="-1.5785">
				<ele>1032</ele>
				<time>2018-04-28T15:34:52Z</time>
			</trkpt>
			<trkpt lat="42.983801" lon="-1.578429">
				<ele>1032</ele>
				<time>2018-04-28T15:34:54Z</time>
			</trkpt>
			<trkpt lat="42.983803" lon="-1.578364">
				<ele>1032</ele>
				<time>2018-04-28T15:34:56Z</time>
			</trkpt>
			<trkpt lat="42.983797" lon="-1.578295">
				<ele>1032</ele>
				<time>2018-04-28T15:34:59Z</time>
			</trkpt>
			<trkpt lat="42.983817" lon="-1.578222">
				<ele>1032</ele>
				<time>2018-04-28T15:35:02Z</time>
			</trkpt>
			<trkpt lat="42.983844" lon="-1.578169">
				<ele>1032</ele>
				<time>2018-04-28T15:35:04Z</time>
			</trkpt>
			<trkpt lat="42.983859" lon="-1.578108">
				<ele>1032</ele>
				<time>2018-04-28T15:35:06Z</time>
			</trkpt>
			<trkpt lat="42.983873" lon="-1.578045">
				<ele>1032</ele>
				<time>2018-04-28T15:35:09Z</time>
			</trkpt>
			<trkpt lat="42.983872" lon="-1.577956">
				<ele>1032</ele>
				<time>2018-04-28T15:35:12Z</time>
			</trkpt>
			<trkpt lat="42.983874" lon="-1.577888">
				<ele>1032</ele>
				<time>2018-04-28T15:35:15Z</time>
			</trkpt>
			<trkpt lat="42.983887" lon="-1.577814">
				<ele>1032</ele>
				<time>2018-04-28T15:35:18Z</time>
			</trkpt>
			<trkpt lat="42.983908" lon="-1.577733">
				<ele>1032</ele>
				<time>2018-04-28T15:35:21Z</time>
			</trkpt>
			<trkpt lat="42.983903" lon="-1.577671">
				<ele>1032</ele>
				<time>2018-04-28T15:35:24Z</time>
			</trkpt>
			<trkpt lat="42.983923" lon="-1.577599">
				<ele>1032</ele>
				<time>2018-04-28T15:35:28Z</time>
			</trkpt>
			<trkpt lat="42.983934" lon="-1.577535">
				<ele>1032</ele>
				<time>2018-04-28T15:35:32Z</time>
			</trkpt>
			<trkpt lat="42.983911" lon="-1.577479">
				<ele>1032</ele>
				<time>2018-04-28T15:35:34Z</time>
			</trkpt>
			<trkpt lat="42.983912" lon="-1.577415">
				<ele>1032</ele>
				<time>2018-04-28T15:35:37Z</time>
			</trkpt>
			<trkpt lat="42.983911" lon="-1.577347">
				<ele>1032</ele>
				<time>2018-04-28T15:35:40Z</time>
			</trkpt>
			<trkpt lat="42.983922" lon="-1.577263">
				<ele>1032</ele>
				<time>2018-04-28T15:35:43Z</time>
			</trkpt>
			<trkpt lat="42.983941" lon="-1.577172">
				<ele>1032</ele>
				<time>2018-04-28T15:35:46Z</time>
			</trkpt>
			<trkpt lat="42.983962" lon="-1.577106">
				<ele>1032</ele>
				<time>2018-04-28T15:35:50Z</time>
			</trkpt>
			<trkpt lat="42.983989" lon="-1.577052">
				<ele>1031</ele>
				<time>2018-04-28T15:35:53Z</time>
			</trkpt>
			<trkpt lat="42.984007" lon="-1.576983">
				<ele>1031</ele>
				<time>2018-04-28T15:35:57Z</time>
			</trkpt>
			<trkpt lat="42.984024" lon="-1.576922">
				<ele>1031</ele>
				<time>2018-04-28T15:36:01Z</time>
			</trkpt>
			<trkpt lat="42.984017" lon="-1.576858">
				<ele>1031</ele>
				<time>2018-04-28T15:36:05Z</time>
			</trkpt>
			<trkpt lat="42.984005" lon="-1.576774">
				<ele>1031</ele>
				<time>2018-04-28T15:36:08Z</time>
			</trkpt>
			<trkpt lat="42.983995" lon="-1.576689">
				<ele>1031</ele>
				<time>2018-04-28T15:36:11Z</time>
			</trkpt>
			<trkpt lat="42.983999" lon="-1.576616">
				<ele>1031</ele>
				<time>2018-04-28T15:36:15Z</time>
			</trkpt>
			<trkpt lat="42.984006" lon="-1.576548">
				<ele>1031</ele>
				<time>2018-04-28T15:36:19Z</time>
			</trkpt>
			<trkpt lat="42.984022" lon="-1.576482">
				<ele>1031</ele>
				<time>2018-04-28T15:36:22Z</time>
			</trkpt>
			<trkpt lat="42.984035" lon="-1.576422">
				<ele>1031</ele>
				<time>2018-04-28T15:36:25Z</time>
			</trkpt>
			<trkpt lat="42.984051" lon="-1.576352">
				<ele>1031</ele>
				<time>2018-04-28T15:36:31Z</time>
			</trkpt>
			<trkpt lat="42.984077" lon="-1.576288">
				<ele>1031</ele>
				<time>2018-04-28T15:36:35Z</time>
			</trkpt>
			<trkpt lat="42.984092" lon="-1.576212">
				<ele>1031</ele>
				<time>2018-04-28T15:36:39Z</time>
			</trkpt>
			<trkpt lat="42.984101" lon="-1.576139">
				<ele>1031</ele>
				<time>2018-04-28T15:36:43Z</time>
			</trkpt>
			<trkpt lat="42.984107" lon="-1.576065">
				<ele>1031</ele>
				<time>2018-04-28T15:36:46Z</time>
			</trkpt>
			<trkpt lat="42.984107" lon="-1.575986">
				<ele>1031</ele>
				<time>2018-04-28T15:36:50Z</time>
			</trkpt>
			<trkpt lat="42.984125" lon="-1.575899">
				<ele>1031</ele>
				<time>2018-04-28T15:36:53Z</time>
			</trkpt>
			<trkpt lat="42.984127" lon="-1.575832">
				<ele>1031</ele>
				<time>2018-04-28T15:36:57Z</time>
			</trkpt>
			<trkpt lat="42.984123" lon="-1.57576">
				<ele>1031</ele>
				<time>2018-04-28T15:37:02Z</time>
			</trkpt>
			<trkpt lat="42.984159" lon="-1.575712">
				<ele>1031</ele>
				<time>2018-04-28T15:37:05Z</time>
			</trkpt>
			<trkpt lat="42.984181" lon="-1.575642">
				<ele>1031</ele>
				<time>2018-04-28T15:37:08Z</time>
			</trkpt>
			<trkpt lat="42.984191" lon="-1.575581">
				<ele>1031</ele>
				<time>2018-04-28T15:37:10Z</time>
			</trkpt>
			<trkpt lat="42.984198" lon="-1.575513">
				<ele>1031</ele>
				<time>2018-04-28T15:37:12Z</time>
			</trkpt>
			<trkpt lat="42.984179" lon="-1.575449">
				<ele>1031</ele>
				<time>2018-04-28T15:37:16Z</time>
			</trkpt>
			<trkpt lat="42.984192" lon="-1.575361">
				<ele>1031</ele>
				<time>2018-04-28T15:37:19Z</time>
			</trkpt>
			<trkpt lat="42.984192" lon="-1.575296">
				<ele>1031</ele>
				<time>2018-04-28T15:37:22Z</time>
			</trkpt>
			<trkpt lat="42.984199" lon="-1.575232">
				<ele>1031</ele>
				<time>2018-04-28T15:37:26Z</time>
			</trkpt>
			<trkpt lat="42.984211" lon="-1.575157">
				<ele>1031</ele>
				<time>2018-04-28T15:37:29Z</time>
			</trkpt>
			<trkpt lat="42.984238" lon="-1.575097">
				<ele>1031</ele>
				<time>2018-04-28T15:37:32Z</time>
			</trkpt>
			<trkpt lat="42.98425" lon="-1.575032">
				<ele>1031</ele>
				<time>2018-04-28T15:37:36Z</time>
			</trkpt>
			<trkpt lat="42.984257" lon="-1.574957">
				<ele>1038</ele>
				<time>2018-04-28T15:37:40Z</time>
			</trkpt>
			<trkpt lat="42.984276" lon="-1.574879">
				<ele>1038</ele>
				<time>2018-04-28T15:37:44Z</time>
			</trkpt>
			<trkpt lat="42.984273" lon="-1.574808">
				<ele>1038</ele>
				<time>2018-04-28T15:37:48Z</time>
			</trkpt>
			<trkpt lat="42.984275" lon="-1.574743">
				<ele>1038</ele>
				<time>2018-04-28T15:37:51Z</time>
			</trkpt>
			<trkpt lat="42.984269" lon="-1.574673">
				<ele>1038</ele>
				<time>2018-04-28T15:37:54Z</time>
			</trkpt>
			<trkpt lat="42.984262" lon="-1.5746">
				<ele>1038</ele>
				<time>2018-04-28T15:37:57Z</time>
			</trkpt>
			<trkpt lat="42.984247" lon="-1.574528">
				<ele>1038</ele>
				<time>2018-04-28T15:38:01Z</time>
			</trkpt>
			<trkpt lat="42.984254" lon="-1.574457">
				<ele>1038</ele>
				<time>2018-04-28T15:38:04Z</time>
			</trkpt>
			<trkpt lat="42.984259" lon="-1.574389">
				<ele>1038</ele>
				<time>2018-04-28T15:38:09Z</time>
			</trkpt>
			<trkpt lat="42.984262" lon="-1.574326">
				<ele>1038</ele>
				<time>2018-04-28T15:38:13Z</time>
			</trkpt>
			<trkpt lat="42.984255" lon="-1.574258">
				<ele>1038</ele>
				<time>2018-04-28T15:38:15Z</time>
			</trkpt>
			<trkpt lat="42.984257" lon="-1.574184">
				<ele>1038</ele>
				<time>2018-04-28T15:38:18Z</time>
			</trkpt>
			<trkpt lat="42.984268" lon="-1.574109">
				<ele>1038</ele>
				<time>2018-04-28T15:38:21Z</time>
			</trkpt>
			<trkpt lat="42.984272" lon="-1.574042">
				<ele>1038</ele>
				<time>2018-04-28T15:38:24Z</time>
			</trkpt>
			<trkpt lat="42.984266" lon="-1.573966">
				<ele>1038</ele>
				<time>2018-04-28T15:38:27Z</time>
			</trkpt>
			<trkpt lat="42.984261" lon="-1.573901">
				<ele>1038</ele>
				<time>2018-04-28T15:38:30Z</time>
			</trkpt>
			<trkpt lat="42.984252" lon="-1.573837">
				<ele>1038</ele>
				<time>2018-04-28T15:38:33Z</time>
			</trkpt>
			<trkpt lat="42.984225" lon="-1.57378">
				<ele>1038</ele>
				<time>2018-04-28T15:38:36Z</time>
			</trkpt>
			<trkpt lat="42.984217" lon="-1.573713">
				<ele>1038</ele>
				<time>2018-04-28T15:38:39Z</time>
			</trkpt>
			<trkpt lat="42.984199" lon="-1.573643">
				<ele>1038</ele>
				<time>2018-04-28T15:38:43Z</time>
			</trkpt>
			<trkpt lat="42.984186" lon="-1.573568">
				<ele>1038</ele>
				<time>2018-04-28T15:38:47Z</time>
			</trkpt>
			<trkpt lat="42.984174" lon="-1.573498">
				<ele>1038</ele>
				<time>2018-04-28T15:38:51Z</time>
			</trkpt>
			<trkpt lat="42.984167" lon="-1.573419">
				<ele>1038</ele>
				<time>2018-04-28T15:38:54Z</time>
			</trkpt>
			<trkpt lat="42.984158" lon="-1.573344">
				<ele>1038</ele>
				<time>2018-04-28T15:38:57Z</time>
			</trkpt>
			<trkpt lat="42.984129" lon="-1.573262">
				<ele>1038</ele>
				<time>2018-04-28T15:39:01Z</time>
			</trkpt>
			<trkpt lat="42.984128" lon="-1.573171">
				<ele>1038</ele>
				<time>2018-04-28T15:39:04Z</time>
			</trkpt>
			<trkpt lat="42.984128" lon="-1.573094">
				<ele>1038</ele>
				<time>2018-04-28T15:39:07Z</time>
			</trkpt>
			<trkpt lat="42.984135" lon="-1.573013">
				<ele>1038</ele>
				<time>2018-04-28T15:39:10Z</time>
			</trkpt>
			<trkpt lat="42.98414" lon="-1.572936">
				<ele>1038</ele>
				<time>2018-04-28T15:39:13Z</time>
			</trkpt>
			<trkpt lat="42.98414" lon="-1.572875">
				<ele>1048</ele>
				<time>2018-04-28T15:39:16Z</time>
			</trkpt>
			<trkpt lat="42.984128" lon="-1.572811">
				<ele>1048</ele>
				<time>2018-04-28T15:39:20Z</time>
			</trkpt>
			<trkpt lat="42.984119" lon="-1.572729">
				<ele>1048</ele>
				<time>2018-04-28T15:39:24Z</time>
			</trkpt>
			<trkpt lat="42.98412" lon="-1.572661">
				<ele>1048</ele>
				<time>2018-04-28T15:39:28Z</time>
			</trkpt>
			<trkpt lat="42.984102" lon="-1.572595">
				<ele>1048</ele>
				<time>2018-04-28T15:39:31Z</time>
			</trkpt>
			<trkpt lat="42.984097" lon="-1.572496">
				<ele>1048</ele>
				<time>2018-04-28T15:39:34Z</time>
			</trkpt>
			<trkpt lat="42.984084" lon="-1.572422">
				<ele>1048</ele>
				<time>2018-04-28T15:39:37Z</time>
			</trkpt>
			<trkpt lat="42.98408" lon="-1.572352">
				<ele>1048</ele>
				<time>2018-04-28T15:39:40Z</time>
			</trkpt>
			<trkpt lat="42.984093" lon="-1.572287">
				<ele>1048</ele>
				<time>2018-04-28T15:39:43Z</time>
			</trkpt>
			<trkpt lat="42.98408" lon="-1.572213">
				<ele>1048</ele>
				<time>2018-04-28T15:39:46Z</time>
			</trkpt>
			<trkpt lat="42.984047" lon="-1.572146">
				<ele>1048</ele>
				<time>2018-04-28T15:39:49Z</time>
			</trkpt>
			<trkpt lat="42.984016" lon="-1.572065">
				<ele>1048</ele>
				<time>2018-04-28T15:39:53Z</time>
			</trkpt>
			<trkpt lat="42.983985" lon="-1.572011">
				<ele>1048</ele>
				<time>2018-04-28T15:39:57Z</time>
			</trkpt>
			<trkpt lat="42.983941" lon="-1.571988">
				<ele>1048</ele>
				<time>2018-04-28T15:40:02Z</time>
			</trkpt>
			<trkpt lat="42.983915" lon="-1.571933">
				<ele>1048</ele>
				<time>2018-04-28T15:40:08Z</time>
			</trkpt>
			<trkpt lat="42.983874" lon="-1.571877">
				<ele>1048</ele>
				<time>2018-04-28T15:40:13Z</time>
			</trkpt>
			<trkpt lat="42.983824" lon="-1.571887">
				<ele>1048</ele>
				<time>2018-04-28T15:40:16Z</time>
			</trkpt>
			<trkpt lat="42.983771" lon="-1.571892">
				<ele>1048</ele>
				<time>2018-04-28T15:40:20Z</time>
			</trkpt>
			<trkpt lat="42.983729" lon="-1.571845">
				<ele>1048</ele>
				<time>2018-04-28T15:40:26Z</time>
			</trkpt>
			<trkpt lat="42.983681" lon="-1.571789">
				<ele>1048</ele>
				<time>2018-04-28T15:40:29Z</time>
			</trkpt>
			<trkpt lat="42.983628" lon="-1.571753">
				<ele>1048</ele>
				<time>2018-04-28T15:40:32Z</time>
			</trkpt>
			<trkpt lat="42.983589" lon="-1.571721">
				<ele>1048</ele>
				<time>2018-04-28T15:40:35Z</time>
			</trkpt>
			<trkpt lat="42.983544" lon="-1.57169">
				<ele>1048</ele>
				<time>2018-04-28T15:40:38Z</time>
			</trkpt>
			<trkpt lat="42.983502" lon="-1.571645">
				<ele>1048</ele>
				<time>2018-04-28T15:40:41Z</time>
			</trkpt>
			<trkpt lat="42.983464" lon="-1.571591">
				<ele>1048</ele>
				<time>2018-04-28T15:40:46Z</time>
			</trkpt>
			<trkpt lat="42.983419" lon="-1.57156">
				<ele>1048</ele>
				<time>2018-04-28T15:40:50Z</time>
			</trkpt>
			<trkpt lat="42.983394" lon="-1.571507">
				<ele>1048</ele>
				<time>2018-04-28T15:40:53Z</time>
			</trkpt>
			<trkpt lat="42.983351" lon="-1.571477">
				<ele>1048</ele>
				<time>2018-04-28T15:40:56Z</time>
			</trkpt>
			<trkpt lat="42.983301" lon="-1.571414">
				<ele>997</ele>
				<time>2018-04-28T15:40:59Z</time>
			</trkpt>
			<trkpt lat="42.983257" lon="-1.571374">
				<ele>997</ele>
				<time>2018-04-28T15:41:02Z</time>
			</trkpt>
			<trkpt lat="42.983225" lon="-1.57133">
				<ele>997</ele>
				<time>2018-04-28T15:41:04Z</time>
			</trkpt>
			<trkpt lat="42.983189" lon="-1.571272">
				<ele>997</ele>
				<time>2018-04-28T15:41:07Z</time>
			</trkpt>
			<trkpt lat="42.983158" lon="-1.571182">
				<ele>997</ele>
				<time>2018-04-28T15:41:10Z</time>
			</trkpt>
			<trkpt lat="42.98314" lon="-1.571103">
				<ele>997</ele>
				<time>2018-04-28T15:41:12Z</time>
			</trkpt>
			<trkpt lat="42.983104" lon="-1.571045">
				<ele>997</ele>
				<time>2018-04-28T15:41:15Z</time>
			</trkpt>
			<trkpt lat="42.983037" lon="-1.571019">
				<ele>997</ele>
				<time>2018-04-28T15:41:18Z</time>
			</trkpt>
			<trkpt lat="42.982979" lon="-1.570964">
				<ele>997</ele>
				<time>2018-04-28T15:41:21Z</time>
			</trkpt>
			<trkpt lat="42.982929" lon="-1.570924">
				<ele>997</ele>
				<time>2018-04-28T15:41:23Z</time>
			</trkpt>
			<trkpt lat="42.982867" lon="-1.570856">
				<ele>997</ele>
				<time>2018-04-28T15:41:25Z</time>
			</trkpt>
			<trkpt lat="42.982825" lon="-1.570819">
				<ele>1042</ele>
				<time>2018-04-28T15:41:27Z</time>
			</trkpt>
			<trkpt lat="42.982787" lon="-1.570784">
				<ele>1042</ele>
				<time>2018-04-28T15:41:29Z</time>
			</trkpt>
			<trkpt lat="42.982729" lon="-1.570745">
				<ele>1042</ele>
				<time>2018-04-28T15:41:32Z</time>
			</trkpt>
			<trkpt lat="42.982678" lon="-1.570712">
				<ele>1042</ele>
				<time>2018-04-28T15:41:34Z</time>
			</trkpt>
			<trkpt lat="42.98263" lon="-1.570691">
				<ele>1042</ele>
				<time>2018-04-28T15:41:36Z</time>
			</trkpt>
			<trkpt lat="42.98258" lon="-1.570667">
				<ele>1042</ele>
				<time>2018-04-28T15:41:39Z</time>
			</trkpt>
			<trkpt lat="42.982544" lon="-1.570629">
				<ele>1042</ele>
				<time>2018-04-28T15:41:41Z</time>
			</trkpt>
			<trkpt lat="42.982507" lon="-1.570584">
				<ele>1042</ele>
				<time>2018-04-28T15:41:43Z</time>
			</trkpt>
			<trkpt lat="42.982454" lon="-1.570518">
				<ele>1042</ele>
				<time>2018-04-28T15:41:46Z</time>
			</trkpt>
			<trkpt lat="42.982414" lon="-1.57047">
				<ele>1042</ele>
				<time>2018-04-28T15:41:48Z</time>
			</trkpt>
			<trkpt lat="42.982364" lon="-1.570426">
				<ele>1042</ele>
				<time>2018-04-28T15:41:50Z</time>
			</trkpt>
			<trkpt lat="42.982316" lon="-1.570401">
				<ele>1042</ele>
				<time>2018-04-28T15:41:52Z</time>
			</trkpt>
			<trkpt lat="42.98226" lon="-1.570368">
				<ele>1042</ele>
				<time>2018-04-28T15:41:55Z</time>
			</trkpt>
			<trkpt lat="42.982223" lon="-1.570332">
				<ele>1042</ele>
				<time>2018-04-28T15:41:57Z</time>
			</trkpt>
			<trkpt lat="42.982185" lon="-1.570297">
				<ele>1042</ele>
				<time>2018-04-28T15:41:59Z</time>
			</trkpt>
			<trkpt lat="42.982148" lon="-1.57023">
				<ele>1042</ele>
				<time>2018-04-28T15:42:02Z</time>
			</trkpt>
			<trkpt lat="42.982113" lon="-1.570186">
				<ele>1042</ele>
				<time>2018-04-28T15:42:04Z</time>
			</trkpt>
			<trkpt lat="42.982061" lon="-1.570138">
				<ele>1042</ele>
				<time>2018-04-28T15:42:07Z</time>
			</trkpt>
			<trkpt lat="42.982016" lon="-1.570072">
				<ele>1042</ele>
				<time>2018-04-28T15:42:10Z</time>
			</trkpt>
			<trkpt lat="42.981977" lon="-1.570002">
				<ele>1042</ele>
				<time>2018-04-28T15:42:13Z</time>
			</trkpt>
			<trkpt lat="42.981949" lon="-1.56995">
				<ele>1042</ele>
				<time>2018-04-28T15:42:15Z</time>
			</trkpt>
			<trkpt lat="42.981907" lon="-1.569887">
				<ele>1042</ele>
				<time>2018-04-28T15:42:18Z</time>
			</trkpt>
			<trkpt lat="42.981869" lon="-1.569817">
				<ele>1042</ele>
				<time>2018-04-28T15:42:21Z</time>
			</trkpt>
			<trkpt lat="42.98183" lon="-1.569752">
				<ele>1042</ele>
				<time>2018-04-28T15:42:24Z</time>
			</trkpt>
			<trkpt lat="42.981796" lon="-1.569699">
				<ele>1042</ele>
				<time>2018-04-28T15:42:26Z</time>
			</trkpt>
			<trkpt lat="42.981759" lon="-1.569661">
				<ele>1042</ele>
				<time>2018-04-28T15:42:28Z</time>
			</trkpt>
			<trkpt lat="42.981703" lon="-1.569643">
				<ele>1042</ele>
				<time>2018-04-28T15:42:31Z</time>
			</trkpt>
			<trkpt lat="42.981642" lon="-1.569628">
				<ele>1042</ele>
				<time>2018-04-28T15:42:34Z</time>
			</trkpt>
			<trkpt lat="42.981586" lon="-1.56963">
				<ele>1042</ele>
				<time>2018-04-28T15:42:37Z</time>
			</trkpt>
			<trkpt lat="42.981528" lon="-1.56962">
				<ele>1042</ele>
				<time>2018-04-28T15:42:40Z</time>
			</trkpt>
			<trkpt lat="42.981483" lon="-1.569605">
				<ele>1042</ele>
				<time>2018-04-28T15:42:42Z</time>
			</trkpt>
			<trkpt lat="42.981435" lon="-1.569605">
				<ele>1042</ele>
				<time>2018-04-28T15:42:44Z</time>
			</trkpt>
			<trkpt lat="42.981387" lon="-1.569599">
				<ele>1042</ele>
				<time>2018-04-28T15:42:46Z</time>
			</trkpt>
			<trkpt lat="42.981346" lon="-1.569573">
				<ele>1042</ele>
				<time>2018-04-28T15:42:49Z</time>
			</trkpt>
			<trkpt lat="42.981317" lon="-1.569504">
				<ele>1042</ele>
				<time>2018-04-28T15:42:54Z</time>
			</trkpt>
			<trkpt lat="42.98129" lon="-1.569442">
				<ele>1042</ele>
				<time>2018-04-28T15:42:59Z</time>
			</trkpt>
			<trkpt lat="42.981262" lon="-1.56939">
				<ele>1042</ele>
				<time>2018-04-28T15:43:03Z</time>
			</trkpt>
			<trkpt lat="42.981229" lon="-1.569347">
				<ele>997</ele>
				<time>2018-04-28T15:43:07Z</time>
			</trkpt>
			<trkpt lat="42.981211" lon="-1.56929">
				<ele>997</ele>
				<time>2018-04-28T15:43:10Z</time>
			</trkpt>
			<trkpt lat="42.981205" lon="-1.569207">
				<ele>997</ele>
				<time>2018-04-28T15:43:13Z</time>
			</trkpt>
			<trkpt lat="42.981232" lon="-1.569156">
				<ele>997</ele>
				<time>2018-04-28T15:43:17Z</time>
			</trkpt>
			<trkpt lat="42.98127" lon="-1.569121">
				<ele>1042</ele>
				<time>2018-04-28T15:43:20Z</time>
			</trkpt>
			<trkpt lat="42.981324" lon="-1.569088">
				<ele>1042</ele>
				<time>2018-04-28T15:43:24Z</time>
			</trkpt>
			<trkpt lat="42.981363" lon="-1.569048">
				<ele>1042</ele>
				<time>2018-04-28T15:43:28Z</time>
			</trkpt>
			<trkpt lat="42.981407" lon="-1.569018">
				<ele>1042</ele>
				<time>2018-04-28T15:43:33Z</time>
			</trkpt>
			<trkpt lat="42.981459" lon="-1.569003">
				<ele>1042</ele>
				<time>2018-04-28T15:43:39Z</time>
			</trkpt>
			<trkpt lat="42.981504" lon="-1.568971">
				<ele>1042</ele>
				<time>2018-04-28T15:43:44Z</time>
			</trkpt>
			<trkpt lat="42.981542" lon="-1.568927">
				<ele>1042</ele>
				<time>2018-04-28T15:43:48Z</time>
			</trkpt>
			<trkpt lat="42.981555" lon="-1.568861">
				<ele>1042</ele>
				<time>2018-04-28T15:43:54Z</time>
			</trkpt>
			<trkpt lat="42.981554" lon="-1.568795">
				<ele>1042</ele>
				<time>2018-04-28T15:44:01Z</time>
			</trkpt>
			<trkpt lat="42.981559" lon="-1.568731">
				<ele>1062</ele>
				<time>2018-04-28T15:44:06Z</time>
			</trkpt>
			<trkpt lat="42.981582" lon="-1.56867">
				<ele>1062</ele>
				<time>2018-04-28T15:44:11Z</time>
			</trkpt>
			<trkpt lat="42.981619" lon="-1.568622">
				<ele>1062</ele>
				<time>2018-04-28T15:44:20Z</time>
			</trkpt>
			<trkpt lat="42.98165" lon="-1.568564">
				<ele>1062</ele>
				<time>2018-04-28T15:44:26Z</time>
			</trkpt>
			<trkpt lat="42.98167" lon="-1.56849">
				<ele>1062</ele>
				<time>2018-04-28T15:44:32Z</time>
			</trkpt>
			<trkpt lat="42.981692" lon="-1.568429">
				<ele>1062</ele>
				<time>2018-04-28T15:44:37Z</time>
			</trkpt>
			<trkpt lat="42.981724" lon="-1.568379">
				<ele>1062</ele>
				<time>2018-04-28T15:44:41Z</time>
			</trkpt>
			<trkpt lat="42.981755" lon="-1.568319">
				<ele>1062</ele>
				<time>2018-04-28T15:44:46Z</time>
			</trkpt>
			<trkpt lat="42.981769" lon="-1.568258">
				<ele>1062</ele>
				<time>2018-04-28T15:44:50Z</time>
			</trkpt>
			<trkpt lat="42.981793" lon="-1.568205">
				<ele>1062</ele>
				<time>2018-04-28T15:44:55Z</time>
			</trkpt>
			<trkpt lat="42.981817" lon="-1.568136">
				<ele>1062</ele>
				<time>2018-04-28T15:45:01Z</time>
			</trkpt>
			<trkpt lat="42.981859" lon="-1.568099">
				<ele>1062</ele>
				<time>2018-04-28T15:45:05Z</time>
			</trkpt>
			<trkpt lat="42.981893" lon="-1.568041">
				<ele>1062</ele>
				<time>2018-04-28T15:45:10Z</time>
			</trkpt>
			<trkpt lat="42.981909" lon="-1.567973">
				<ele>1062</ele>
				<time>2018-04-28T15:45:15Z</time>
			</trkpt>
			<trkpt lat="42.981929" lon="-1.567899">
				<ele>1062</ele>
				<time>2018-04-28T15:45:19Z</time>
			</trkpt>
			<trkpt lat="42.98196" lon="-1.567848">
				<ele>1062</ele>
				<time>2018-04-28T15:45:23Z</time>
			</trkpt>
			<trkpt lat="42.981984" lon="-1.56778">
				<ele>1062</ele>
				<time>2018-04-28T15:45:27Z</time>
			</trkpt>
			<trkpt lat="42.982012" lon="-1.567718">
				<ele>1062</ele>
				<time>2018-04-28T15:45:31Z</time>
			</trkpt>
			<trkpt lat="42.982041" lon="-1.567666">
				<ele>1062</ele>
				<time>2018-04-28T15:45:34Z</time>
			</trkpt>
			<trkpt lat="42.982055" lon="-1.567604">
				<ele>1062</ele>
				<time>2018-04-28T15:45:38Z</time>
			</trkpt>
			<trkpt lat="42.982093" lon="-1.567568">
				<ele>1062</ele>
				<time>2018-04-28T15:45:42Z</time>
			</trkpt>
			<trkpt lat="42.982128" lon="-1.567529">
				<ele>1062</ele>
				<time>2018-04-28T15:45:46Z</time>
			</trkpt>
			<trkpt lat="42.982173" lon="-1.567495">
				<ele>1062</ele>
				<time>2018-04-28T15:45:49Z</time>
			</trkpt>
			<trkpt lat="42.982213" lon="-1.567441">
				<ele>1062</ele>
				<time>2018-04-28T15:45:54Z</time>
			</trkpt>
			<trkpt lat="42.982243" lon="-1.56738">
				<ele>1062</ele>
				<time>2018-04-28T15:46:00Z</time>
			</trkpt>
			<trkpt lat="42.982279" lon="-1.567326">
				<ele>1062</ele>
				<time>2018-04-28T15:46:04Z</time>
			</trkpt>
			<trkpt lat="42.982322" lon="-1.567294">
				<ele>1062</ele>
				<time>2018-04-28T15:46:09Z</time>
			</trkpt>
			<trkpt lat="42.982342" lon="-1.567236">
				<ele>1062</ele>
				<time>2018-04-28T15:46:20Z</time>
			</trkpt>
			<trkpt lat="42.982362" lon="-1.567139">
				<ele>1062</ele>
				<time>2018-04-28T15:46:29Z</time>
			</trkpt>
			<trkpt lat="42.98239" lon="-1.567083">
				<ele>1062</ele>
				<time>2018-04-28T15:46:32Z</time>
			</trkpt>
			<trkpt lat="42.982438" lon="-1.567063">
				<ele>1062</ele>
				<time>2018-04-28T15:46:46Z</time>
			</trkpt>
			<trkpt lat="42.982483" lon="-1.567097">
				<ele>1062</ele>
				<time>2018-04-28T15:46:51Z</time>
			</trkpt>
			<trkpt lat="42.982533" lon="-1.567118">
				<ele>1062</ele>
				<time>2018-04-28T15:46:58Z</time>
			</trkpt>
			<trkpt lat="42.982583" lon="-1.567141">
				<ele>1062</ele>
				<time>2018-04-28T15:47:03Z</time>
			</trkpt>
			<trkpt lat="42.98263" lon="-1.567139">
				<ele>1062</ele>
				<time>2018-04-28T15:47:09Z</time>
			</trkpt>
			<trkpt lat="42.982675" lon="-1.56715">
				<ele>1062</ele>
				<time>2018-04-28T15:47:18Z</time>
			</trkpt>
			<trkpt lat="42.982722" lon="-1.567161">
				<ele>1062</ele>
				<time>2018-04-28T15:47:29Z</time>
			</trkpt>
			<trkpt lat="42.982772" lon="-1.567146">
				<ele>1062</ele>
				<time>2018-04-28T15:47:34Z</time>
			</trkpt>
			<trkpt lat="42.982819" lon="-1.567126">
				<ele>1062</ele>
				<time>2018-04-28T15:47:39Z</time>
			</trkpt>
			<trkpt lat="42.982871" lon="-1.567126">
				<ele>1062</ele>
				<time>2018-04-28T15:47:46Z</time>
			</trkpt>
			<trkpt lat="42.982926" lon="-1.567128">
				<ele>1062</ele>
				<time>2018-04-28T15:47:52Z</time>
			</trkpt>
			<trkpt lat="42.982977" lon="-1.567132">
				<ele>1062</ele>
				<time>2018-04-28T15:47:57Z</time>
			</trkpt>
			<trkpt lat="42.983022" lon="-1.567109">
				<ele>1062</ele>
				<time>2018-04-28T15:48:03Z</time>
			</trkpt>
			<trkpt lat="42.983065" lon="-1.567083">
				<ele>1062</ele>
				<time>2018-04-28T15:48:10Z</time>
			</trkpt>
			<trkpt lat="42.983117" lon="-1.567082">
				<ele>1062</ele>
				<time>2018-04-28T15:48:16Z</time>
			</trkpt>
			<trkpt lat="42.983163" lon="-1.567105">
				<ele>1062</ele>
				<time>2018-04-28T15:48:24Z</time>
			</trkpt>
			<trkpt lat="42.983214" lon="-1.56713">
				<ele>1062</ele>
				<time>2018-04-28T15:48:32Z</time>
			</trkpt>
			<trkpt lat="42.983261" lon="-1.567137">
				<ele>1062</ele>
				<time>2018-04-28T15:48:38Z</time>
			</trkpt>
			<trkpt lat="42.983308" lon="-1.567126">
				<ele>1062</ele>
				<time>2018-04-28T15:48:45Z</time>
			</trkpt>
			<trkpt lat="42.983356" lon="-1.56713">
				<ele>1119</ele>
				<time>2018-04-28T15:48:51Z</time>
			</trkpt>
			<trkpt lat="42.983407" lon="-1.567139">
				<ele>1119</ele>
				<time>2018-04-28T15:48:56Z</time>
			</trkpt>
			<trkpt lat="42.983454" lon="-1.567144">
				<ele>1119</ele>
				<time>2018-04-28T15:49:02Z</time>
			</trkpt>
			<trkpt lat="42.9835" lon="-1.567135">
				<ele>1119</ele>
				<time>2018-04-28T15:49:06Z</time>
			</trkpt>
			<trkpt lat="42.983557" lon="-1.567129">
				<ele>1119</ele>
				<time>2018-04-28T15:49:11Z</time>
			</trkpt>
			<trkpt lat="42.983613" lon="-1.567112">
				<ele>1119</ele>
				<time>2018-04-28T15:49:15Z</time>
			</trkpt>
			<trkpt lat="42.983658" lon="-1.567109">
				<ele>1119</ele>
				<time>2018-04-28T15:49:18Z</time>
			</trkpt>
			<trkpt lat="42.983707" lon="-1.567088">
				<ele>1119</ele>
				<time>2018-04-28T15:49:22Z</time>
			</trkpt>
			<trkpt lat="42.983755" lon="-1.567072">
				<ele>1119</ele>
				<time>2018-04-28T15:49:25Z</time>
			</trkpt>
			<trkpt lat="42.983801" lon="-1.567067">
				<ele>1119</ele>
				<time>2018-04-28T15:49:29Z</time>
			</trkpt>
			<trkpt lat="42.983837" lon="-1.567028">
				<ele>1119</ele>
				<time>2018-04-28T15:49:32Z</time>
			</trkpt>
			<trkpt lat="42.983891" lon="-1.567023">
				<ele>1119</ele>
				<time>2018-04-28T15:49:36Z</time>
			</trkpt>
			<trkpt lat="42.983937" lon="-1.567011">
				<ele>1119</ele>
				<time>2018-04-28T15:49:39Z</time>
			</trkpt>
			<trkpt lat="42.983986" lon="-1.566986">
				<ele>1119</ele>
				<time>2018-04-28T15:49:43Z</time>
			</trkpt>
			<trkpt lat="42.984033" lon="-1.567016">
				<ele>1119</ele>
				<time>2018-04-28T15:49:46Z</time>
			</trkpt>
			<trkpt lat="42.984091" lon="-1.567016">
				<ele>1119</ele>
				<time>2018-04-28T15:49:50Z</time>
			</trkpt>
			<trkpt lat="42.984145" lon="-1.566993">
				<ele>1119</ele>
				<time>2018-04-28T15:49:54Z</time>
			</trkpt>
			<trkpt lat="42.984193" lon="-1.566993">
				<ele>1119</ele>
				<time>2018-04-28T15:49:58Z</time>
			</trkpt>
			<trkpt lat="42.984247" lon="-1.567024">
				<ele>1119</ele>
				<time>2018-04-28T15:50:01Z</time>
			</trkpt>
			<trkpt lat="42.984295" lon="-1.567033">
				<ele>1119</ele>
				<time>2018-04-28T15:50:04Z</time>
			</trkpt>
			<trkpt lat="42.984344" lon="-1.56704">
				<ele>1119</ele>
				<time>2018-04-28T15:50:07Z</time>
			</trkpt>
			<trkpt lat="42.984395" lon="-1.567006">
				<ele>1119</ele>
				<time>2018-04-28T15:50:10Z</time>
			</trkpt>
			<trkpt lat="42.984461" lon="-1.566966">
				<ele>1119</ele>
				<time>2018-04-28T15:50:13Z</time>
			</trkpt>
			<trkpt lat="42.984509" lon="-1.566952">
				<ele>1119</ele>
				<time>2018-04-28T15:50:15Z</time>
			</trkpt>
			<trkpt lat="42.984561" lon="-1.566937">
				<ele>1119</ele>
				<time>2018-04-28T15:50:17Z</time>
			</trkpt>
			<trkpt lat="42.984611" lon="-1.56693">
				<ele>1119</ele>
				<time>2018-04-28T15:50:19Z</time>
			</trkpt>
			<trkpt lat="42.984683" lon="-1.566909">
				<ele>1119</ele>
				<time>2018-04-28T15:50:22Z</time>
			</trkpt>
			<trkpt lat="42.984743" lon="-1.566885">
				<ele>1119</ele>
				<time>2018-04-28T15:50:25Z</time>
			</trkpt>
			<trkpt lat="42.984801" lon="-1.566872">
				<ele>1119</ele>
				<time>2018-04-28T15:50:28Z</time>
			</trkpt>
			<trkpt lat="42.984847" lon="-1.566853">
				<ele>1119</ele>
				<time>2018-04-28T15:50:30Z</time>
			</trkpt>
			<trkpt lat="42.984908" lon="-1.566833">
				<ele>1119</ele>
				<time>2018-04-28T15:50:33Z</time>
			</trkpt>
			<trkpt lat="42.984958" lon="-1.56681">
				<ele>1119</ele>
				<time>2018-04-28T15:50:36Z</time>
			</trkpt>
			<trkpt lat="42.985004" lon="-1.566814">
				<ele>1119</ele>
				<time>2018-04-28T15:50:38Z</time>
			</trkpt>
			<trkpt lat="42.98506" lon="-1.566808">
				<ele>1119</ele>
				<time>2018-04-28T15:50:41Z</time>
			</trkpt>
			<trkpt lat="42.985107" lon="-1.5668">
				<ele>1119</ele>
				<time>2018-04-28T15:50:44Z</time>
			</trkpt>
			<trkpt lat="42.985151" lon="-1.566783">
				<ele>1119</ele>
				<time>2018-04-28T15:50:48Z</time>
			</trkpt>
			<trkpt lat="42.985196" lon="-1.566782">
				<ele>1119</ele>
				<time>2018-04-28T15:50:51Z</time>
			</trkpt>
			<trkpt lat="42.985247" lon="-1.566784">
				<ele>1119</ele>
				<time>2018-04-28T15:50:54Z</time>
			</trkpt>
			<trkpt lat="42.985297" lon="-1.566799">
				<ele>1119</ele>
				<time>2018-04-28T15:50:57Z</time>
			</trkpt>
			<trkpt lat="42.985342" lon="-1.566817">
				<ele>1119</ele>
				<time>2018-04-28T15:51:01Z</time>
			</trkpt>
			<trkpt lat="42.985393" lon="-1.566821">
				<ele>1119</ele>
				<time>2018-04-28T15:51:04Z</time>
			</trkpt>
			<trkpt lat="42.985448" lon="-1.566806">
				<ele>1118</ele>
				<time>2018-04-28T15:51:07Z</time>
			</trkpt>
			<trkpt lat="42.985496" lon="-1.566793">
				<ele>1118</ele>
				<time>2018-04-28T15:51:10Z</time>
			</trkpt>
			<trkpt lat="42.985543" lon="-1.566779">
				<ele>1118</ele>
				<time>2018-04-28T15:51:13Z</time>
			</trkpt>
			<trkpt lat="42.9856" lon="-1.566765">
				<ele>1118</ele>
				<time>2018-04-28T15:51:17Z</time>
			</trkpt>
			<trkpt lat="42.985652" lon="-1.566746">
				<ele>1118</ele>
				<time>2018-04-28T15:51:21Z</time>
			</trkpt>
			<trkpt lat="42.985699" lon="-1.566737">
				<ele>1118</ele>
				<time>2018-04-28T15:51:25Z</time>
			</trkpt>
			<trkpt lat="42.985751" lon="-1.56671">
				<ele>1118</ele>
				<time>2018-04-28T15:51:29Z</time>
			</trkpt>
			<trkpt lat="42.985789" lon="-1.566671">
				<ele>1118</ele>
				<time>2018-04-28T15:51:32Z</time>
			</trkpt>
			<trkpt lat="42.985832" lon="-1.566624">
				<ele>1092</ele>
				<time>2018-04-28T15:51:36Z</time>
			</trkpt>
			<trkpt lat="42.985876" lon="-1.566605">
				<ele>1092</ele>
				<time>2018-04-28T15:51:40Z</time>
			</trkpt>
			<trkpt lat="42.985924" lon="-1.566573">
				<ele>1092</ele>
				<time>2018-04-28T15:51:44Z</time>
			</trkpt>
			<trkpt lat="42.985988" lon="-1.566577">
				<ele>1092</ele>
				<time>2018-04-28T15:51:47Z</time>
			</trkpt>
			<trkpt lat="42.986034" lon="-1.566582">
				<ele>1092</ele>
				<time>2018-04-28T15:51:49Z</time>
			</trkpt>
			<trkpt lat="42.98608" lon="-1.566543">
				<ele>1092</ele>
				<time>2018-04-28T15:51:51Z</time>
			</trkpt>
			<trkpt lat="42.986123" lon="-1.566497">
				<ele>1092</ele>
				<time>2018-04-28T15:51:53Z</time>
			</trkpt>
			<trkpt lat="42.986177" lon="-1.566473">
				<ele>1092</ele>
				<time>2018-04-28T15:51:56Z</time>
			</trkpt>
			<trkpt lat="42.986241" lon="-1.566496">
				<ele>1092</ele>
				<time>2018-04-28T15:51:59Z</time>
			</trkpt>
			<trkpt lat="42.986303" lon="-1.566519">
				<ele>1092</ele>
				<time>2018-04-28T15:52:01Z</time>
			</trkpt>
			<trkpt lat="42.986352" lon="-1.566528">
				<ele>1092</ele>
				<time>2018-04-28T15:52:03Z</time>
			</trkpt>
			<trkpt lat="42.986402" lon="-1.566545">
				<ele>1092</ele>
				<time>2018-04-28T15:52:06Z</time>
			</trkpt>
			<trkpt lat="42.986467" lon="-1.566532">
				<ele>1092</ele>
				<time>2018-04-28T15:52:09Z</time>
			</trkpt>
			<trkpt lat="42.986516" lon="-1.566496">
				<ele>1092</ele>
				<time>2018-04-28T15:52:11Z</time>
			</trkpt>
			<trkpt lat="42.986561" lon="-1.566472">
				<ele>1092</ele>
				<time>2018-04-28T15:52:14Z</time>
			</trkpt>
			<trkpt lat="42.986633" lon="-1.566446">
				<ele>1092</ele>
				<time>2018-04-28T15:52:17Z</time>
			</trkpt>
			<trkpt lat="42.986687" lon="-1.566409">
				<ele>1092</ele>
				<time>2018-04-28T15:52:19Z</time>
			</trkpt>
			<trkpt lat="42.986748" lon="-1.566436">
				<ele>1092</ele>
				<time>2018-04-28T15:52:22Z</time>
			</trkpt>
			<trkpt lat="42.986806" lon="-1.566432">
				<ele>1092</ele>
				<time>2018-04-28T15:52:25Z</time>
			</trkpt>
			<trkpt lat="42.986861" lon="-1.566439">
				<ele>1092</ele>
				<time>2018-04-28T15:52:29Z</time>
			</trkpt>
			<trkpt lat="42.98691" lon="-1.566452">
				<ele>1092</ele>
				<time>2018-04-28T15:52:32Z</time>
			</trkpt>
			<trkpt lat="42.986957" lon="-1.566463">
				<ele>1092</ele>
				<time>2018-04-28T15:52:35Z</time>
			</trkpt>
			<trkpt lat="42.98701" lon="-1.56646">
				<ele>1092</ele>
				<time>2018-04-28T15:52:38Z</time>
			</trkpt>
			<trkpt lat="42.987064" lon="-1.566483">
				<ele>1092</ele>
				<time>2018-04-28T15:52:42Z</time>
			</trkpt>
			<trkpt lat="42.987119" lon="-1.566504">
				<ele>1092</ele>
				<time>2018-04-28T15:52:45Z</time>
			</trkpt>
			<trkpt lat="42.987166" lon="-1.566485">
				<ele>1092</ele>
				<time>2018-04-28T15:52:49Z</time>
			</trkpt>
			<trkpt lat="42.987222" lon="-1.566492">
				<ele>1092</ele>
				<time>2018-04-28T15:52:53Z</time>
			</trkpt>
			<trkpt lat="42.987284" lon="-1.566511">
				<ele>1092</ele>
				<time>2018-04-28T15:52:57Z</time>
			</trkpt>
			<trkpt lat="42.98733" lon="-1.566511">
				<ele>1092</ele>
				<time>2018-04-28T15:53:00Z</time>
			</trkpt>
			<trkpt lat="42.987383" lon="-1.566525">
				<ele>1092</ele>
				<time>2018-04-28T15:53:03Z</time>
			</trkpt>
			<trkpt lat="42.987437" lon="-1.56654">
				<ele>1092</ele>
				<time>2018-04-28T15:53:07Z</time>
			</trkpt>
			<trkpt lat="42.987485" lon="-1.566543">
				<ele>1092</ele>
				<time>2018-04-28T15:53:10Z</time>
			</trkpt>
			<trkpt lat="42.987536" lon="-1.566553">
				<ele>1071</ele>
				<time>2018-04-28T15:53:13Z</time>
			</trkpt>
			<trkpt lat="42.987587" lon="-1.566562">
				<ele>1071</ele>
				<time>2018-04-28T15:53:17Z</time>
			</trkpt>
			<trkpt lat="42.987646" lon="-1.566565">
				<ele>1071</ele>
				<time>2018-04-28T15:53:21Z</time>
			</trkpt>
			<trkpt lat="42.987696" lon="-1.566581">
				<ele>1071</ele>
				<time>2018-04-28T15:53:24Z</time>
			</trkpt>
			<trkpt lat="42.987751" lon="-1.566609">
				<ele>1071</ele>
				<time>2018-04-28T15:53:27Z</time>
			</trkpt>
			<trkpt lat="42.987796" lon="-1.566629">
				<ele>1071</ele>
				<time>2018-04-28T15:53:30Z</time>
			</trkpt>
			<trkpt lat="42.987856" lon="-1.566633">
				<ele>1071</ele>
				<time>2018-04-28T15:53:34Z</time>
			</trkpt>
			<trkpt lat="42.987906" lon="-1.566651">
				<ele>1071</ele>
				<time>2018-04-28T15:53:37Z</time>
			</trkpt>
			<trkpt lat="42.987955" lon="-1.566658">
				<ele>1071</ele>
				<time>2018-04-28T15:53:40Z</time>
			</trkpt>
			<trkpt lat="42.988002" lon="-1.566658">
				<ele>1071</ele>
				<time>2018-04-28T15:53:43Z</time>
			</trkpt>
			<trkpt lat="42.988052" lon="-1.56668">
				<ele>1102</ele>
				<time>2018-04-28T15:53:46Z</time>
			</trkpt>
			<trkpt lat="42.988093" lon="-1.566705">
				<ele>1102</ele>
				<time>2018-04-28T15:53:49Z</time>
			</trkpt>
			<trkpt lat="42.988142" lon="-1.5667">
				<ele>1102</ele>
				<time>2018-04-28T15:53:52Z</time>
			</trkpt>
			<trkpt lat="42.988187" lon="-1.56674">
				<ele>1102</ele>
				<time>2018-04-28T15:53:55Z</time>
			</trkpt>
			<trkpt lat="42.988242" lon="-1.566755">
				<ele>1102</ele>
				<time>2018-04-28T15:53:58Z</time>
			</trkpt>
			<trkpt lat="42.988303" lon="-1.566773">
				<ele>1102</ele>
				<time>2018-04-28T15:54:02Z</time>
			</trkpt>
			<trkpt lat="42.988355" lon="-1.566789">
				<ele>1102</ele>
				<time>2018-04-28T15:54:06Z</time>
			</trkpt>
			<trkpt lat="42.988405" lon="-1.566808">
				<ele>1102</ele>
				<time>2018-04-28T15:54:09Z</time>
			</trkpt>
			<trkpt lat="42.988453" lon="-1.566833">
				<ele>1102</ele>
				<time>2018-04-28T15:54:12Z</time>
			</trkpt>
			<trkpt lat="42.988502" lon="-1.566851">
				<ele>1102</ele>
				<time>2018-04-28T15:54:15Z</time>
			</trkpt>
			<trkpt lat="42.988563" lon="-1.566865">
				<ele>1102</ele>
				<time>2018-04-28T15:54:19Z</time>
			</trkpt>
			<trkpt lat="42.988609" lon="-1.566866">
				<ele>1102</ele>
				<time>2018-04-28T15:54:22Z</time>
			</trkpt>
			<trkpt lat="42.988656" lon="-1.566869">
				<ele>1102</ele>
				<time>2018-04-28T15:54:25Z</time>
			</trkpt>
			<trkpt lat="42.988712" lon="-1.566868">
				<ele>1102</ele>
				<time>2018-04-28T15:54:29Z</time>
			</trkpt>
			<trkpt lat="42.988761" lon="-1.566839">
				<ele>1102</ele>
				<time>2018-04-28T15:54:32Z</time>
			</trkpt>
			<trkpt lat="42.98882" lon="-1.566833">
				<ele>1102</ele>
				<time>2018-04-28T15:54:35Z</time>
			</trkpt>
			<trkpt lat="42.988869" lon="-1.566845">
				<ele>1102</ele>
				<time>2018-04-28T15:54:38Z</time>
			</trkpt>
			<trkpt lat="42.988926" lon="-1.566841">
				<ele>1102</ele>
				<time>2018-04-28T15:54:42Z</time>
			</trkpt>
			<trkpt lat="42.988974" lon="-1.566835">
				<ele>1102</ele>
				<time>2018-04-28T15:54:45Z</time>
			</trkpt>
			<trkpt lat="42.989029" lon="-1.566834">
				<ele>1102</ele>
				<time>2018-04-28T15:54:49Z</time>
			</trkpt>
			<trkpt lat="42.989079" lon="-1.566852">
				<ele>1102</ele>
				<time>2018-04-28T15:54:52Z</time>
			</trkpt>
			<trkpt lat="42.989135" lon="-1.566862">
				<ele>1102</ele>
				<time>2018-04-28T15:54:55Z</time>
			</trkpt>
			<trkpt lat="42.989194" lon="-1.566852">
				<ele>1102</ele>
				<time>2018-04-28T15:54:58Z</time>
			</trkpt>
			<trkpt lat="42.98924" lon="-1.566856">
				<ele>1102</ele>
				<time>2018-04-28T15:55:02Z</time>
			</trkpt>
			<trkpt lat="42.989295" lon="-1.566851">
				<ele>1102</ele>
				<time>2018-04-28T15:55:07Z</time>
			</trkpt>
			<trkpt lat="42.989346" lon="-1.566893">
				<ele>1102</ele>
				<time>2018-04-28T15:55:10Z</time>
			</trkpt>
			<trkpt lat="42.989395" lon="-1.566893">
				<ele>1102</ele>
				<time>2018-04-28T15:55:13Z</time>
			</trkpt>
			<trkpt lat="42.989446" lon="-1.566907">
				<ele>1102</ele>
				<time>2018-04-28T15:55:16Z</time>
			</trkpt>
			<trkpt lat="42.989498" lon="-1.566942">
				<ele>1102</ele>
				<time>2018-04-28T15:55:20Z</time>
			</trkpt>
			<trkpt lat="42.989545" lon="-1.56697">
				<ele>1102</ele>
				<time>2018-04-28T15:55:23Z</time>
			</trkpt>
			<trkpt lat="42.989579" lon="-1.567014">
				<ele>1102</ele>
				<time>2018-04-28T15:55:26Z</time>
			</trkpt>
			<trkpt lat="42.98961" lon="-1.567063">
				<ele>1099</ele>
				<time>2018-04-28T15:55:30Z</time>
			</trkpt>
			<trkpt lat="42.989643" lon="-1.567108">
				<ele>1099</ele>
				<time>2018-04-28T15:55:33Z</time>
			</trkpt>
			<trkpt lat="42.989691" lon="-1.567149">
				<ele>1099</ele>
				<time>2018-04-28T15:55:38Z</time>
			</trkpt>
			<trkpt lat="42.989745" lon="-1.567172">
				<ele>1099</ele>
				<time>2018-04-28T15:55:41Z</time>
			</trkpt>
			<trkpt lat="42.989807" lon="-1.567209">
				<ele>1099</ele>
				<time>2018-04-28T15:55:44Z</time>
			</trkpt>
			<trkpt lat="42.989853" lon="-1.567223">
				<ele>1099</ele>
				<time>2018-04-28T15:55:46Z</time>
			</trkpt>
			<trkpt lat="42.989914" lon="-1.567267">
				<ele>1099</ele>
				<time>2018-04-28T15:55:49Z</time>
			</trkpt>
			<trkpt lat="42.989966" lon="-1.567283">
				<ele>1099</ele>
				<time>2018-04-28T15:55:52Z</time>
			</trkpt>
			<trkpt lat="42.990024" lon="-1.567256">
				<ele>1099</ele>
				<time>2018-04-28T15:55:57Z</time>
			</trkpt>
			<trkpt lat="42.990066" lon="-1.567202">
				<ele>1099</ele>
				<time>2018-04-28T15:56:01Z</time>
			</trkpt>
			<trkpt lat="42.99009" lon="-1.567127">
				<ele>1099</ele>
				<time>2018-04-28T15:56:04Z</time>
			</trkpt>
			<trkpt lat="42.990123" lon="-1.567063">
				<ele>1099</ele>
				<time>2018-04-28T15:56:08Z</time>
			</trkpt>
			<trkpt lat="42.990157" lon="-1.567014">
				<ele>1099</ele>
				<time>2018-04-28T15:56:10Z</time>
			</trkpt>
			<trkpt lat="42.990195" lon="-1.566934">
				<ele>1099</ele>
				<time>2018-04-28T15:56:12Z</time>
			</trkpt>
			<trkpt lat="42.990221" lon="-1.566876">
				<ele>1099</ele>
				<time>2018-04-28T15:56:14Z</time>
			</trkpt>
			<trkpt lat="42.990259" lon="-1.56683">
				<ele>1099</ele>
				<time>2018-04-28T15:56:17Z</time>
			</trkpt>
			<trkpt lat="42.990305" lon="-1.566817">
				<ele>1099</ele>
				<time>2018-04-28T15:56:20Z</time>
			</trkpt>
			<trkpt lat="42.990334" lon="-1.56676">
				<ele>1099</ele>
				<time>2018-04-28T15:56:24Z</time>
			</trkpt>
			<trkpt lat="42.990363" lon="-1.566697">
				<ele>1099</ele>
				<time>2018-04-28T15:56:26Z</time>
			</trkpt>
			<trkpt lat="42.990403" lon="-1.566662">
				<ele>1076</ele>
				<time>2018-04-28T15:56:28Z</time>
			</trkpt>
			<trkpt lat="42.990446" lon="-1.566615">
				<ele>1076</ele>
				<time>2018-04-28T15:56:30Z</time>
			</trkpt>
			<trkpt lat="42.990472" lon="-1.566551">
				<ele>1076</ele>
				<time>2018-04-28T15:56:33Z</time>
			</trkpt>
			<trkpt lat="42.990503" lon="-1.5665">
				<ele>1076</ele>
				<time>2018-04-28T15:56:35Z</time>
			</trkpt>
			<trkpt lat="42.99053" lon="-1.566423">
				<ele>1076</ele>
				<time>2018-04-28T15:56:38Z</time>
			</trkpt>
			<trkpt lat="42.990539" lon="-1.566332">
				<ele>1076</ele>
				<time>2018-04-28T15:56:41Z</time>
			</trkpt>
			<trkpt lat="42.990563" lon="-1.566277">
				<ele>1076</ele>
				<time>2018-04-28T15:56:43Z</time>
			</trkpt>
			<trkpt lat="42.990592" lon="-1.566221">
				<ele>1076</ele>
				<time>2018-04-28T15:56:45Z</time>
			</trkpt>
			<trkpt lat="42.990633" lon="-1.566183">
				<ele>1076</ele>
				<time>2018-04-28T15:56:47Z</time>
			</trkpt>
			<trkpt lat="42.990669" lon="-1.566144">
				<ele>1076</ele>
				<time>2018-04-28T15:56:49Z</time>
			</trkpt>
			<trkpt lat="42.99071" lon="-1.566098">
				<ele>1076</ele>
				<time>2018-04-28T15:56:52Z</time>
			</trkpt>
			<trkpt lat="42.990757" lon="-1.566056">
				<ele>1076</ele>
				<time>2018-04-28T15:56:55Z</time>
			</trkpt>
			<trkpt lat="42.990807" lon="-1.566006">
				<ele>1076</ele>
				<time>2018-04-28T15:56:58Z</time>
			</trkpt>
			<trkpt lat="42.99085" lon="-1.565946">
				<ele>1076</ele>
				<time>2018-04-28T15:57:01Z</time>
			</trkpt>
			<trkpt lat="42.990892" lon="-1.565894">
				<ele>1076</ele>
				<time>2018-04-28T15:57:04Z</time>
			</trkpt>
			<trkpt lat="42.990945" lon="-1.565853">
				<ele>1076</ele>
				<time>2018-04-28T15:57:07Z</time>
			</trkpt>
			<trkpt lat="42.990955" lon="-1.565791">
				<ele>1076</ele>
				<time>2018-04-28T15:57:10Z</time>
			</trkpt>
			<trkpt lat="42.990998" lon="-1.565742">
				<ele>1076</ele>
				<time>2018-04-28T15:57:14Z</time>
			</trkpt>
			<trkpt lat="42.991051" lon="-1.565696">
				<ele>1076</ele>
				<time>2018-04-28T15:57:17Z</time>
			</trkpt>
			<trkpt lat="42.991089" lon="-1.565653">
				<ele>1076</ele>
				<time>2018-04-28T15:57:20Z</time>
			</trkpt>
			<trkpt lat="42.991127" lon="-1.565619">
				<ele>1076</ele>
				<time>2018-04-28T15:57:23Z</time>
			</trkpt>
			<trkpt lat="42.991147" lon="-1.565559">
				<ele>1076</ele>
				<time>2018-04-28T15:57:26Z</time>
			</trkpt>
			<trkpt lat="42.991167" lon="-1.565494">
				<ele>1076</ele>
				<time>2018-04-28T15:57:29Z</time>
			</trkpt>
			<trkpt lat="42.991189" lon="-1.565436">
				<ele>1076</ele>
				<time>2018-04-28T15:57:34Z</time>
			</trkpt>
			<trkpt lat="42.991222" lon="-1.565378">
				<ele>1076</ele>
				<time>2018-04-28T15:57:37Z</time>
			</trkpt>
			<trkpt lat="42.991233" lon="-1.565317">
				<ele>1076</ele>
				<time>2018-04-28T15:57:39Z</time>
			</trkpt>
			<trkpt lat="42.991274" lon="-1.56526">
				<ele>1076</ele>
				<time>2018-04-28T15:57:42Z</time>
			</trkpt>
			<trkpt lat="42.991314" lon="-1.565187">
				<ele>1076</ele>
				<time>2018-04-28T15:57:46Z</time>
			</trkpt>
			<trkpt lat="42.991353" lon="-1.565133">
				<ele>1076</ele>
				<time>2018-04-28T15:57:48Z</time>
			</trkpt>
			<trkpt lat="42.991385" lon="-1.565083">
				<ele>1076</ele>
				<time>2018-04-28T15:57:51Z</time>
			</trkpt>
			<trkpt lat="42.991418" lon="-1.565012">
				<ele>1076</ele>
				<time>2018-04-28T15:57:54Z</time>
			</trkpt>
			<trkpt lat="42.991448" lon="-1.564945">
				<ele>1076</ele>
				<time>2018-04-28T15:57:57Z</time>
			</trkpt>
			<trkpt lat="42.991482" lon="-1.56489">
				<ele>1076</ele>
				<time>2018-04-28T15:58:01Z</time>
			</trkpt>
			<trkpt lat="42.991513" lon="-1.564831">
				<ele>1076</ele>
				<time>2018-04-28T15:58:04Z</time>
			</trkpt>
			<trkpt lat="42.991537" lon="-1.564746">
				<ele>1076</ele>
				<time>2018-04-28T15:58:07Z</time>
			</trkpt>
			<trkpt lat="42.991557" lon="-1.564676">
				<ele>1076</ele>
				<time>2018-04-28T15:58:10Z</time>
			</trkpt>
			<trkpt lat="42.991582" lon="-1.564624">
				<ele>1076</ele>
				<time>2018-04-28T15:58:12Z</time>
			</trkpt>
			<trkpt lat="42.991628" lon="-1.564529">
				<ele>1052</ele>
				<time>2018-04-28T15:58:15Z</time>
			</trkpt>
			<trkpt lat="42.991669" lon="-1.564473">
				<ele>1059</ele>
				<time>2018-04-28T15:58:17Z</time>
			</trkpt>
			<trkpt lat="42.991698" lon="-1.564413">
				<ele>1059</ele>
				<time>2018-04-28T15:58:19Z</time>
			</trkpt>
			<trkpt lat="42.99175" lon="-1.564374">
				<ele>1059</ele>
				<time>2018-04-28T15:58:22Z</time>
			</trkpt>
			<trkpt lat="42.991793" lon="-1.56431">
				<ele>1059</ele>
				<time>2018-04-28T15:58:25Z</time>
			</trkpt>
			<trkpt lat="42.99183" lon="-1.56424">
				<ele>1059</ele>
				<time>2018-04-28T15:58:28Z</time>
			</trkpt>
			<trkpt lat="42.991865" lon="-1.564166">
				<ele>1059</ele>
				<time>2018-04-28T15:58:30Z</time>
			</trkpt>
			<trkpt lat="42.99191" lon="-1.564092">
				<ele>1059</ele>
				<time>2018-04-28T15:58:32Z</time>
			</trkpt>
			<trkpt lat="42.991947" lon="-1.564047">
				<ele>1059</ele>
				<time>2018-04-28T15:58:34Z</time>
			</trkpt>
			<trkpt lat="42.991986" lon="-1.564001">
				<ele>1059</ele>
				<time>2018-04-28T15:58:36Z</time>
			</trkpt>
			<trkpt lat="42.992019" lon="-1.563925">
				<ele>1059</ele>
				<time>2018-04-28T15:58:38Z</time>
			</trkpt>
			<trkpt lat="42.992064" lon="-1.563863">
				<ele>1059</ele>
				<time>2018-04-28T15:58:40Z</time>
			</trkpt>
			<trkpt lat="42.9921" lon="-1.563804">
				<ele>1059</ele>
				<time>2018-04-28T15:58:42Z</time>
			</trkpt>
			<trkpt lat="42.992149" lon="-1.563778">
				<ele>1059</ele>
				<time>2018-04-28T15:58:44Z</time>
			</trkpt>
			<trkpt lat="42.992192" lon="-1.56372">
				<ele>1059</ele>
				<time>2018-04-28T15:58:46Z</time>
			</trkpt>
			<trkpt lat="42.992253" lon="-1.563706">
				<ele>1059</ele>
				<time>2018-04-28T15:58:49Z</time>
			</trkpt>
			<trkpt lat="42.992312" lon="-1.563678">
				<ele>1059</ele>
				<time>2018-04-28T15:58:52Z</time>
			</trkpt>
			<trkpt lat="42.992361" lon="-1.563662">
				<ele>1059</ele>
				<time>2018-04-28T15:58:54Z</time>
			</trkpt>
			<trkpt lat="42.992423" lon="-1.563641">
				<ele>1059</ele>
				<time>2018-04-28T15:58:57Z</time>
			</trkpt>
			<trkpt lat="42.992478" lon="-1.56361">
				<ele>1059</ele>
				<time>2018-04-28T15:58:59Z</time>
			</trkpt>
			<trkpt lat="42.992533" lon="-1.563587">
				<ele>1059</ele>
				<time>2018-04-28T15:59:02Z</time>
			</trkpt>
			<trkpt lat="42.99259" lon="-1.563554">
				<ele>1059</ele>
				<time>2018-04-28T15:59:05Z</time>
			</trkpt>
			<trkpt lat="42.992637" lon="-1.563514">
				<ele>1059</ele>
				<time>2018-04-28T15:59:09Z</time>
			</trkpt>
			<trkpt lat="42.992677" lon="-1.563464">
				<ele>1059</ele>
				<time>2018-04-28T15:59:12Z</time>
			</trkpt>
			<trkpt lat="42.992726" lon="-1.563452">
				<ele>1059</ele>
				<time>2018-04-28T15:59:15Z</time>
			</trkpt>
			<trkpt lat="42.992784" lon="-1.563429">
				<ele>1059</ele>
				<time>2018-04-28T15:59:19Z</time>
			</trkpt>
			<trkpt lat="42.992832" lon="-1.563406">
				<ele>1059</ele>
				<time>2018-04-28T15:59:22Z</time>
			</trkpt>
			<trkpt lat="42.992883" lon="-1.563367">
				<ele>1059</ele>
				<time>2018-04-28T15:59:26Z</time>
			</trkpt>
			<trkpt lat="42.992929" lon="-1.563349">
				<ele>1059</ele>
				<time>2018-04-28T15:59:29Z</time>
			</trkpt>
			<trkpt lat="42.992983" lon="-1.563323">
				<ele>1059</ele>
				<time>2018-04-28T15:59:32Z</time>
			</trkpt>
			<trkpt lat="42.993042" lon="-1.563325">
				<ele>1059</ele>
				<time>2018-04-28T15:59:36Z</time>
			</trkpt>
			<trkpt lat="42.99309" lon="-1.563329">
				<ele>1059</ele>
				<time>2018-04-28T15:59:39Z</time>
			</trkpt>
			<trkpt lat="42.993131" lon="-1.563359">
				<ele>1059</ele>
				<time>2018-04-28T15:59:42Z</time>
			</trkpt>
			<trkpt lat="42.993178" lon="-1.563379">
				<ele>1059</ele>
				<time>2018-04-28T15:59:45Z</time>
			</trkpt>
			<trkpt lat="42.993224" lon="-1.563411">
				<ele>1059</ele>
				<time>2018-04-28T15:59:48Z</time>
			</trkpt>
			<trkpt lat="42.993283" lon="-1.563466">
				<ele>1059</ele>
				<time>2018-04-28T15:59:51Z</time>
			</trkpt>
			<trkpt lat="42.993318" lon="-1.563514">
				<ele>1059</ele>
				<time>2018-04-28T15:59:53Z</time>
			</trkpt>
			<trkpt lat="42.993375" lon="-1.563506">
				<ele>1059</ele>
				<time>2018-04-28T15:59:56Z</time>
			</trkpt>
			<trkpt lat="42.993421" lon="-1.563508">
				<ele>1059</ele>
				<time>2018-04-28T16:01:08Z</time>
			</trkpt>
			<trkpt lat="42.993461" lon="-1.563537">
				<ele>1059</ele>
				<time>2018-04-28T16:01:43Z</time>
			</trkpt>
			<trkpt lat="42.993454" lon="-1.563599">
				<ele>1059</ele>
				<time>2018-04-28T16:02:17Z</time>
			</trkpt>
			<trkpt lat="42.993459" lon="-1.56366">
				<ele>1059</ele>
				<time>2018-04-28T16:03:12Z</time>
			</trkpt>
			<trkpt lat="42.993446" lon="-1.563595">
				<ele>1059</ele>
				<time>2018-04-28T16:04:30Z</time>
			</trkpt>
			<trkpt lat="42.993488" lon="-1.563555">
				<ele>1059</ele>
				<time>2018-04-28T16:04:42Z</time>
			</trkpt>
			<trkpt lat="42.993508" lon="-1.563476">
				<ele>1059</ele>
				<time>2018-04-28T16:04:46Z</time>
			</trkpt>
			<trkpt lat="42.993529" lon="-1.563413">
				<ele>1059</ele>
				<time>2018-04-28T16:04:49Z</time>
			</trkpt>
			<trkpt lat="42.993556" lon="-1.563333">
				<ele>1059</ele>
				<time>2018-04-28T16:04:53Z</time>
			</trkpt>
			<trkpt lat="42.993552" lon="-1.563264">
				<ele>1059</ele>
				<time>2018-04-28T16:04:56Z</time>
			</trkpt>
			<trkpt lat="42.993561" lon="-1.563199">
				<ele>1059</ele>
				<time>2018-04-28T16:05:01Z</time>
			</trkpt>
			<trkpt lat="42.993609" lon="-1.563168">
				<ele>1059</ele>
				<time>2018-04-28T16:05:06Z</time>
			</trkpt>
			<trkpt lat="42.993656" lon="-1.563171">
				<ele>1059</ele>
				<time>2018-04-28T16:05:10Z</time>
			</trkpt>
			<trkpt lat="42.993712" lon="-1.563171">
				<ele>1059</ele>
				<time>2018-04-28T16:05:17Z</time>
			</trkpt>
			<trkpt lat="42.993759" lon="-1.563138">
				<ele>1055</ele>
				<time>2018-04-28T16:05:26Z</time>
			</trkpt>
			<trkpt lat="42.993795" lon="-1.563076">
				<ele>1055</ele>
				<time>2018-04-28T16:05:30Z</time>
			</trkpt>
			<trkpt lat="42.993807" lon="-1.563016">
				<ele>1055</ele>
				<time>2018-04-28T16:05:33Z</time>
			</trkpt>
			<trkpt lat="42.993826" lon="-1.562945">
				<ele>1055</ele>
				<time>2018-04-28T16:05:38Z</time>
			</trkpt>
			<trkpt lat="42.993834" lon="-1.562882">
				<ele>1055</ele>
				<time>2018-04-28T16:05:43Z</time>
			</trkpt>
			<trkpt lat="42.993854" lon="-1.562817">
				<ele>1055</ele>
				<time>2018-04-28T16:05:48Z</time>
			</trkpt>
			<trkpt lat="42.993865" lon="-1.56275">
				<ele>1055</ele>
				<time>2018-04-28T16:05:51Z</time>
			</trkpt>
			<trkpt lat="42.993873" lon="-1.562688">
				<ele>1055</ele>
				<time>2018-04-28T16:05:56Z</time>
			</trkpt>
			<trkpt lat="42.993888" lon="-1.562628">
				<ele>1055</ele>
				<time>2018-04-28T16:06:14Z</time>
			</trkpt>
			<trkpt lat="42.993881" lon="-1.56256">
				<ele>1055</ele>
				<time>2018-04-28T16:06:17Z</time>
			</trkpt>
			<trkpt lat="42.993899" lon="-1.562482">
				<ele>1073</ele>
				<time>2018-04-28T16:06:20Z</time>
			</trkpt>
			<trkpt lat="42.993913" lon="-1.562407">
				<ele>1073</ele>
				<time>2018-04-28T16:06:23Z</time>
			</trkpt>
			<trkpt lat="42.993911" lon="-1.562345">
				<ele>1073</ele>
				<time>2018-04-28T16:06:26Z</time>
			</trkpt>
			<trkpt lat="42.993909" lon="-1.562262">
				<ele>1073</ele>
				<time>2018-04-28T16:06:30Z</time>
			</trkpt>
			<trkpt lat="42.993916" lon="-1.562163">
				<ele>1073</ele>
				<time>2018-04-28T16:06:33Z</time>
			</trkpt>
			<trkpt lat="42.993938" lon="-1.562103">
				<ele>1073</ele>
				<time>2018-04-28T16:06:36Z</time>
			</trkpt>
			<trkpt lat="42.993962" lon="-1.562039">
				<ele>1073</ele>
				<time>2018-04-28T16:06:40Z</time>
			</trkpt>
			<trkpt lat="42.994008" lon="-1.561975">
				<ele>1073</ele>
				<time>2018-04-28T16:06:43Z</time>
			</trkpt>
			<trkpt lat="42.994039" lon="-1.561912">
				<ele>1073</ele>
				<time>2018-04-28T16:06:45Z</time>
			</trkpt>
			<trkpt lat="42.994061" lon="-1.561832">
				<ele>1073</ele>
				<time>2018-04-28T16:06:48Z</time>
			</trkpt>
			<trkpt lat="42.994082" lon="-1.561757">
				<ele>1073</ele>
				<time>2018-04-28T16:06:51Z</time>
			</trkpt>
			<trkpt lat="42.994098" lon="-1.561692">
				<ele>1073</ele>
				<time>2018-04-28T16:06:53Z</time>
			</trkpt>
			<trkpt lat="42.994112" lon="-1.561622">
				<ele>1073</ele>
				<time>2018-04-28T16:06:56Z</time>
			</trkpt>
			<trkpt lat="42.994145" lon="-1.561549">
				<ele>1073</ele>
				<time>2018-04-28T16:07:00Z</time>
			</trkpt>
			<trkpt lat="42.994163" lon="-1.561488">
				<ele>1073</ele>
				<time>2018-04-28T16:07:02Z</time>
			</trkpt>
			<trkpt lat="42.994177" lon="-1.561402">
				<ele>1073</ele>
				<time>2018-04-28T16:07:05Z</time>
			</trkpt>
			<trkpt lat="42.994196" lon="-1.561306">
				<ele>1073</ele>
				<time>2018-04-28T16:07:07Z</time>
			</trkpt>
			<trkpt lat="42.99421" lon="-1.56124">
				<ele>1073</ele>
				<time>2018-04-28T16:07:10Z</time>
			</trkpt>
			<trkpt lat="42.994257" lon="-1.561192">
				<ele>1073</ele>
				<time>2018-04-28T16:07:14Z</time>
			</trkpt>
			<trkpt lat="42.994293" lon="-1.561145">
				<ele>1073</ele>
				<time>2018-04-28T16:07:18Z</time>
			</trkpt>
			<trkpt lat="42.994334" lon="-1.561104">
				<ele>1073</ele>
				<time>2018-04-28T16:07:23Z</time>
			</trkpt>
			<trkpt lat="42.994377" lon="-1.561086">
				<ele>1073</ele>
				<time>2018-04-28T16:07:26Z</time>
			</trkpt>
			<trkpt lat="42.994405" lon="-1.561025">
				<ele>1073</ele>
				<time>2018-04-28T16:07:29Z</time>
			</trkpt>
			<trkpt lat="42.994444" lon="-1.560993">
				<ele>1073</ele>
				<time>2018-04-28T16:07:32Z</time>
			</trkpt>
			<trkpt lat="42.994469" lon="-1.56094">
				<ele>1073</ele>
				<time>2018-04-28T16:07:36Z</time>
			</trkpt>
			<trkpt lat="42.99451" lon="-1.560894">
				<ele>1073</ele>
				<time>2018-04-28T16:07:38Z</time>
			</trkpt>
			<trkpt lat="42.994556" lon="-1.560876">
				<ele>1073</ele>
				<time>2018-04-28T16:07:40Z</time>
			</trkpt>
			<trkpt lat="42.994609" lon="-1.56086">
				<ele>1073</ele>
				<time>2018-04-28T16:07:43Z</time>
			</trkpt>
			<trkpt lat="42.994676" lon="-1.560861">
				<ele>1073</ele>
				<time>2018-04-28T16:07:46Z</time>
			</trkpt>
			<trkpt lat="42.994729" lon="-1.560833">
				<ele>1073</ele>
				<time>2018-04-28T16:07:50Z</time>
			</trkpt>
			<trkpt lat="42.994769" lon="-1.560787">
				<ele>1073</ele>
				<time>2018-04-28T16:07:53Z</time>
			</trkpt>
			<trkpt lat="42.994819" lon="-1.560763">
				<ele>1073</ele>
				<time>2018-04-28T16:07:57Z</time>
			</trkpt>
			<trkpt lat="42.994855" lon="-1.560726">
				<ele>1073</ele>
				<time>2018-04-28T16:08:02Z</time>
			</trkpt>
			<trkpt lat="42.994885" lon="-1.560675">
				<ele>1073</ele>
				<time>2018-04-28T16:08:05Z</time>
			</trkpt>
			<trkpt lat="42.994922" lon="-1.560625">
				<ele>1073</ele>
				<time>2018-04-28T16:08:11Z</time>
			</trkpt>
			<trkpt lat="42.994958" lon="-1.560572">
				<ele>1073</ele>
				<time>2018-04-28T16:08:14Z</time>
			</trkpt>
			<trkpt lat="42.994986" lon="-1.560507">
				<ele>1073</ele>
				<time>2018-04-28T16:08:16Z</time>
			</trkpt>
			<trkpt lat="42.995024" lon="-1.56046">
				<ele>1073</ele>
				<time>2018-04-28T16:08:19Z</time>
			</trkpt>
			<trkpt lat="42.995075" lon="-1.560422">
				<ele>1073</ele>
				<time>2018-04-28T16:08:23Z</time>
			</trkpt>
			<trkpt lat="42.995111" lon="-1.560375">
				<ele>1072</ele>
				<time>2018-04-28T16:08:26Z</time>
			</trkpt>
			<trkpt lat="42.995108" lon="-1.560309">
				<ele>1072</ele>
				<time>2018-04-28T16:08:34Z</time>
			</trkpt>
			<trkpt lat="42.99509" lon="-1.560239">
				<ele>1072</ele>
				<time>2018-04-28T16:08:38Z</time>
			</trkpt>
			<trkpt lat="42.99509" lon="-1.560165">
				<ele>1072</ele>
				<time>2018-04-28T16:08:40Z</time>
			</trkpt>
			<trkpt lat="42.995103" lon="-1.560087">
				<ele>1072</ele>
				<time>2018-04-28T16:08:44Z</time>
			</trkpt>
			<trkpt lat="42.995113" lon="-1.560026">
				<ele>1072</ele>
				<time>2018-04-28T16:08:46Z</time>
			</trkpt>
			<trkpt lat="42.995116" lon="-1.559958">
				<ele>1072</ele>
				<time>2018-04-28T16:08:55Z</time>
			</trkpt>
			<trkpt lat="42.995088" lon="-1.559901">
				<ele>1072</ele>
				<time>2018-04-28T16:09:03Z</time>
			</trkpt>
			<trkpt lat="42.995041" lon="-1.559888">
				<ele>1072</ele>
				<time>2018-04-28T16:09:14Z</time>
			</trkpt>
			<trkpt lat="42.994973" lon="-1.559884">
				<ele>1072</ele>
				<time>2018-04-28T16:09:17Z</time>
			</trkpt>
			<trkpt lat="42.99492" lon="-1.559872">
				<ele>1072</ele>
				<time>2018-04-28T16:09:20Z</time>
			</trkpt>
			<trkpt lat="42.994869" lon="-1.559815">
				<ele>1072</ele>
				<time>2018-04-28T16:09:23Z</time>
			</trkpt>
			<trkpt lat="42.994819" lon="-1.559796">
				<ele>1072</ele>
				<time>2018-04-28T16:09:25Z</time>
			</trkpt>
			<trkpt lat="42.994796" lon="-1.559737">
				<ele>1072</ele>
				<time>2018-04-28T16:09:32Z</time>
			</trkpt>
			<trkpt lat="42.994793" lon="-1.55967">
				<ele>1072</ele>
				<time>2018-04-28T16:09:36Z</time>
			</trkpt>
			<trkpt lat="42.994762" lon="-1.559596">
				<ele>1072</ele>
				<time>2018-04-28T16:09:39Z</time>
			</trkpt>
			<trkpt lat="42.994749" lon="-1.559516">
				<ele>1072</ele>
				<time>2018-04-28T16:09:43Z</time>
			</trkpt>
			<trkpt lat="42.994719" lon="-1.559451">
				<ele>1072</ele>
				<time>2018-04-28T16:09:47Z</time>
			</trkpt>
			<trkpt lat="42.994705" lon="-1.559392">
				<ele>1072</ele>
				<time>2018-04-28T16:09:49Z</time>
			</trkpt>
			<trkpt lat="42.994686" lon="-1.559313">
				<ele>1072</ele>
				<time>2018-04-28T16:09:52Z</time>
			</trkpt>
			<trkpt lat="42.994687" lon="-1.559248">
				<ele>1072</ele>
				<time>2018-04-28T16:09:56Z</time>
			</trkpt>
			<trkpt lat="42.994666" lon="-1.55919">
				<ele>1072</ele>
				<time>2018-04-28T16:09:59Z</time>
			</trkpt>
			<trkpt lat="42.99467" lon="-1.559125">
				<ele>1072</ele>
				<time>2018-04-28T16:10:04Z</time>
			</trkpt>
			<trkpt lat="42.994649" lon="-1.559062">
				<ele>1072</ele>
				<time>2018-04-28T16:10:09Z</time>
			</trkpt>
			<trkpt lat="42.994662" lon="-1.558991">
				<ele>1072</ele>
				<time>2018-04-28T16:10:15Z</time>
			</trkpt>
			<trkpt lat="42.994643" lon="-1.558908">
				<ele>1072</ele>
				<time>2018-04-28T16:10:18Z</time>
			</trkpt>
			<trkpt lat="42.994649" lon="-1.558833">
				<ele>1072</ele>
				<time>2018-04-28T16:10:22Z</time>
			</trkpt>
			<trkpt lat="42.994638" lon="-1.558773">
				<ele>1072</ele>
				<time>2018-04-28T16:10:26Z</time>
			</trkpt>
			<trkpt lat="42.994639" lon="-1.558681">
				<ele>1072</ele>
				<time>2018-04-28T16:10:30Z</time>
			</trkpt>
			<trkpt lat="42.994632" lon="-1.55861">
				<ele>1072</ele>
				<time>2018-04-28T16:10:33Z</time>
			</trkpt>
			<trkpt lat="42.994623" lon="-1.558541">
				<ele>1072</ele>
				<time>2018-04-28T16:10:38Z</time>
			</trkpt>
			<trkpt lat="42.994618" lon="-1.558452">
				<ele>1072</ele>
				<time>2018-04-28T16:10:43Z</time>
			</trkpt>
			<trkpt lat="42.994629" lon="-1.55838">
				<ele>1072</ele>
				<time>2018-04-28T16:10:48Z</time>
			</trkpt>
			<trkpt lat="42.994612" lon="-1.558307">
				<ele>1091</ele>
				<time>2018-04-28T16:10:52Z</time>
			</trkpt>
			<trkpt lat="42.994609" lon="-1.558235">
				<ele>1091</ele>
				<time>2018-04-28T16:10:57Z</time>
			</trkpt>
			<trkpt lat="42.994602" lon="-1.558171">
				<ele>1091</ele>
				<time>2018-04-28T16:10:59Z</time>
			</trkpt>
			<trkpt lat="42.994597" lon="-1.558102">
				<ele>1091</ele>
				<time>2018-04-28T16:11:02Z</time>
			</trkpt>
			<trkpt lat="42.994611" lon="-1.558033">
				<ele>1091</ele>
				<time>2018-04-28T16:11:05Z</time>
			</trkpt>
			<trkpt lat="42.99462" lon="-1.55797">
				<ele>1091</ele>
				<time>2018-04-28T16:11:07Z</time>
			</trkpt>
			<trkpt lat="42.994599" lon="-1.557915">
				<ele>1091</ele>
				<time>2018-04-28T16:11:10Z</time>
			</trkpt>
			<trkpt lat="42.994561" lon="-1.55787">
				<ele>1091</ele>
				<time>2018-04-28T16:11:13Z</time>
			</trkpt>
			<trkpt lat="42.994564" lon="-1.557793">
				<ele>1091</ele>
				<time>2018-04-28T16:11:17Z</time>
			</trkpt>
			<trkpt lat="42.994543" lon="-1.557722">
				<ele>1091</ele>
				<time>2018-04-28T16:11:21Z</time>
			</trkpt>
			<trkpt lat="42.994538" lon="-1.557657">
				<ele>1091</ele>
				<time>2018-04-28T16:11:25Z</time>
			</trkpt>
			<trkpt lat="42.994545" lon="-1.557571">
				<ele>1091</ele>
				<time>2018-04-28T16:11:28Z</time>
			</trkpt>
			<trkpt lat="42.994543" lon="-1.557495">
				<ele>1091</ele>
				<time>2018-04-28T16:11:32Z</time>
			</trkpt>
			<trkpt lat="42.994552" lon="-1.557431">
				<ele>1091</ele>
				<time>2018-04-28T16:11:36Z</time>
			</trkpt>
			<trkpt lat="42.994522" lon="-1.557372">
				<ele>1091</ele>
				<time>2018-04-28T16:11:39Z</time>
			</trkpt>
			<trkpt lat="42.994507" lon="-1.557311">
				<ele>1091</ele>
				<time>2018-04-28T16:11:42Z</time>
			</trkpt>
			<trkpt lat="42.994474" lon="-1.557254">
				<ele>1091</ele>
				<time>2018-04-28T16:11:46Z</time>
			</trkpt>
			<trkpt lat="42.994435" lon="-1.557198">
				<ele>1091</ele>
				<time>2018-04-28T16:11:49Z</time>
			</trkpt>
			<trkpt lat="42.994428" lon="-1.557133">
				<ele>1091</ele>
				<time>2018-04-28T16:11:53Z</time>
			</trkpt>
			<trkpt lat="42.994396" lon="-1.557068">
				<ele>1091</ele>
				<time>2018-04-28T16:11:57Z</time>
			</trkpt>
			<trkpt lat="42.994376" lon="-1.557006">
				<ele>1091</ele>
				<time>2018-04-28T16:12:00Z</time>
			</trkpt>
			<trkpt lat="42.994359" lon="-1.556946">
				<ele>1091</ele>
				<time>2018-04-28T16:12:06Z</time>
			</trkpt>
			<trkpt lat="42.994359" lon="-1.556881">
				<ele>1091</ele>
				<time>2018-04-28T16:12:11Z</time>
			</trkpt>
			<trkpt lat="42.994372" lon="-1.556821">
				<ele>1091</ele>
				<time>2018-04-28T16:12:15Z</time>
			</trkpt>
			<trkpt lat="42.994366" lon="-1.556746">
				<ele>1091</ele>
				<time>2018-04-28T16:12:21Z</time>
			</trkpt>
			<trkpt lat="42.994381" lon="-1.556684">
				<ele>1091</ele>
				<time>2018-04-28T16:12:24Z</time>
			</trkpt>
			<trkpt lat="42.99442" lon="-1.556622">
				<ele>1091</ele>
				<time>2018-04-28T16:12:27Z</time>
			</trkpt>
			<trkpt lat="42.994468" lon="-1.556567">
				<ele>1091</ele>
				<time>2018-04-28T16:12:31Z</time>
			</trkpt>
			<trkpt lat="42.9945" lon="-1.556511">
				<ele>1091</ele>
				<time>2018-04-28T16:12:34Z</time>
			</trkpt>
			<trkpt lat="42.994533" lon="-1.556445">
				<ele>1091</ele>
				<time>2018-04-28T16:12:39Z</time>
			</trkpt>
			<trkpt lat="42.994534" lon="-1.556373">
				<ele>1091</ele>
				<time>2018-04-28T16:12:43Z</time>
			</trkpt>
			<trkpt lat="42.994541" lon="-1.556309">
				<ele>1091</ele>
				<time>2018-04-28T16:12:50Z</time>
			</trkpt>
			<trkpt lat="42.994566" lon="-1.556253">
				<ele>1091</ele>
				<time>2018-04-28T16:12:57Z</time>
			</trkpt>
			<trkpt lat="42.994533" lon="-1.556209">
				<ele>1102</ele>
				<time>2018-04-28T16:13:01Z</time>
			</trkpt>
			<trkpt lat="42.994524" lon="-1.556127">
				<ele>1102</ele>
				<time>2018-04-28T16:13:05Z</time>
			</trkpt>
			<trkpt lat="42.994521" lon="-1.556065">
				<ele>1102</ele>
				<time>2018-04-28T16:13:08Z</time>
			</trkpt>
			<trkpt lat="42.994517" lon="-1.555994">
				<ele>1102</ele>
				<time>2018-04-28T16:13:14Z</time>
			</trkpt>
			<trkpt lat="42.994511" lon="-1.555919">
				<ele>1102</ele>
				<time>2018-04-28T16:13:17Z</time>
			</trkpt>
			<trkpt lat="42.994503" lon="-1.555856">
				<ele>1102</ele>
				<time>2018-04-28T16:13:20Z</time>
			</trkpt>
			<trkpt lat="42.994492" lon="-1.555784">
				<ele>1102</ele>
				<time>2018-04-28T16:13:24Z</time>
			</trkpt>
			<trkpt lat="42.994488" lon="-1.55572">
				<ele>1102</ele>
				<time>2018-04-28T16:13:30Z</time>
			</trkpt>
			<trkpt lat="42.994474" lon="-1.555648">
				<ele>1102</ele>
				<time>2018-04-28T16:13:35Z</time>
			</trkpt>
			<trkpt lat="42.994433" lon="-1.555609">
				<ele>1102</ele>
				<time>2018-04-28T16:13:40Z</time>
			</trkpt>
			<trkpt lat="42.994415" lon="-1.555552">
				<ele>1102</ele>
				<time>2018-04-28T16:13:42Z</time>
			</trkpt>
			<trkpt lat="42.994408" lon="-1.555482">
				<ele>1102</ele>
				<time>2018-04-28T16:13:45Z</time>
			</trkpt>
			<trkpt lat="42.994378" lon="-1.555424">
				<ele>1102</ele>
				<time>2018-04-28T16:13:51Z</time>
			</trkpt>
			<trkpt lat="42.994328" lon="-1.555363">
				<ele>1102</ele>
				<time>2018-04-28T16:13:54Z</time>
			</trkpt>
			<trkpt lat="42.994304" lon="-1.555302">
				<ele>1102</ele>
				<time>2018-04-28T16:13:57Z</time>
			</trkpt>
			<trkpt lat="42.994294" lon="-1.555242">
				<ele>1102</ele>
				<time>2018-04-28T16:14:00Z</time>
			</trkpt>
			<trkpt lat="42.994275" lon="-1.55518">
				<ele>1102</ele>
				<time>2018-04-28T16:14:03Z</time>
			</trkpt>
			<trkpt lat="42.994249" lon="-1.555128">
				<ele>1102</ele>
				<time>2018-04-28T16:14:07Z</time>
			</trkpt>
			<trkpt lat="42.994222" lon="-1.555058">
				<ele>1102</ele>
				<time>2018-04-28T16:14:12Z</time>
			</trkpt>
			<trkpt lat="42.994235" lon="-1.554984">
				<ele>1102</ele>
				<time>2018-04-28T16:14:16Z</time>
			</trkpt>
			<trkpt lat="42.994216" lon="-1.55492">
				<ele>1102</ele>
				<time>2018-04-28T16:14:20Z</time>
			</trkpt>
			<trkpt lat="42.994228" lon="-1.554851">
				<ele>1102</ele>
				<time>2018-04-28T16:14:24Z</time>
			</trkpt>
			<trkpt lat="42.994241" lon="-1.554785">
				<ele>1102</ele>
				<time>2018-04-28T16:14:30Z</time>
			</trkpt>
			<trkpt lat="42.99424" lon="-1.554712">
				<ele>1102</ele>
				<time>2018-04-28T16:14:35Z</time>
			</trkpt>
			<trkpt lat="42.994262" lon="-1.554647">
				<ele>1102</ele>
				<time>2018-04-28T16:14:41Z</time>
			</trkpt>
			<trkpt lat="42.994259" lon="-1.554569">
				<ele>1102</ele>
				<time>2018-04-28T16:14:45Z</time>
			</trkpt>
			<trkpt lat="42.994237" lon="-1.554505">
				<ele>1102</ele>
				<time>2018-04-28T16:14:48Z</time>
			</trkpt>
			<trkpt lat="42.994222" lon="-1.554434">
				<ele>1102</ele>
				<time>2018-04-28T16:14:52Z</time>
			</trkpt>
			<trkpt lat="42.994214" lon="-1.554371">
				<ele>1102</ele>
				<time>2018-04-28T16:14:56Z</time>
			</trkpt>
			<trkpt lat="42.994195" lon="-1.55431">
				<ele>1102</ele>
				<time>2018-04-28T16:15:00Z</time>
			</trkpt>
			<trkpt lat="42.994171" lon="-1.554258">
				<ele>1102</ele>
				<time>2018-04-28T16:15:04Z</time>
			</trkpt>
			<trkpt lat="42.994155" lon="-1.554197">
				<ele>1102</ele>
				<time>2018-04-28T16:15:09Z</time>
			</trkpt>
			<trkpt lat="42.99413" lon="-1.554139">
				<ele>1125</ele>
				<time>2018-04-28T16:15:14Z</time>
			</trkpt>
			<trkpt lat="42.994119" lon="-1.554077">
				<ele>1125</ele>
				<time>2018-04-28T16:15:19Z</time>
			</trkpt>
			<trkpt lat="42.994126" lon="-1.554016">
				<ele>1125</ele>
				<time>2018-04-28T16:15:24Z</time>
			</trkpt>
			<trkpt lat="42.994115" lon="-1.553942">
				<ele>1125</ele>
				<time>2018-04-28T16:15:31Z</time>
			</trkpt>
			<trkpt lat="42.994118" lon="-1.553857">
				<ele>1125</ele>
				<time>2018-04-28T16:15:35Z</time>
			</trkpt>
			<trkpt lat="42.994105" lon="-1.553781">
				<ele>1125</ele>
				<time>2018-04-28T16:15:39Z</time>
			</trkpt>
			<trkpt lat="42.994077" lon="-1.553709">
				<ele>1125</ele>
				<time>2018-04-28T16:15:45Z</time>
			</trkpt>
			<trkpt lat="42.994055" lon="-1.55365">
				<ele>1125</ele>
				<time>2018-04-28T16:15:49Z</time>
			</trkpt>
			<trkpt lat="42.994068" lon="-1.553581">
				<ele>1125</ele>
				<time>2018-04-28T16:15:52Z</time>
			</trkpt>
			<trkpt lat="42.994076" lon="-1.553498">
				<ele>1125</ele>
				<time>2018-04-28T16:15:55Z</time>
			</trkpt>
			<trkpt lat="42.994076" lon="-1.553436">
				<ele>1125</ele>
				<time>2018-04-28T16:16:00Z</time>
			</trkpt>
			<trkpt lat="42.994063" lon="-1.553368">
				<ele>1125</ele>
				<time>2018-04-28T16:16:03Z</time>
			</trkpt>
			<trkpt lat="42.994072" lon="-1.553286">
				<ele>1125</ele>
				<time>2018-04-28T16:16:06Z</time>
			</trkpt>
			<trkpt lat="42.99405" lon="-1.553222">
				<ele>1125</ele>
				<time>2018-04-28T16:16:10Z</time>
			</trkpt>
			<trkpt lat="42.994024" lon="-1.553144">
				<ele>1125</ele>
				<time>2018-04-28T16:16:14Z</time>
			</trkpt>
			<trkpt lat="42.994022" lon="-1.553078">
				<ele>1125</ele>
				<time>2018-04-28T16:16:17Z</time>
			</trkpt>
			<trkpt lat="42.993998" lon="-1.553006">
				<ele>1125</ele>
				<time>2018-04-28T16:16:24Z</time>
			</trkpt>
			<trkpt lat="42.993983" lon="-1.552946">
				<ele>1125</ele>
				<time>2018-04-28T16:16:31Z</time>
			</trkpt>
			<trkpt lat="42.994001" lon="-1.552879">
				<ele>1125</ele>
				<time>2018-04-28T16:16:36Z</time>
			</trkpt>
			<trkpt lat="42.994014" lon="-1.552818">
				<ele>1125</ele>
				<time>2018-04-28T16:16:39Z</time>
			</trkpt>
			<trkpt lat="42.994008" lon="-1.552751">
				<ele>1125</ele>
				<time>2018-04-28T16:16:43Z</time>
			</trkpt>
			<trkpt lat="42.994033" lon="-1.552695">
				<ele>1125</ele>
				<time>2018-04-28T16:16:46Z</time>
			</trkpt>
			<trkpt lat="42.994035" lon="-1.552627">
				<ele>1125</ele>
				<time>2018-04-28T16:16:49Z</time>
			</trkpt>
			<trkpt lat="42.994075" lon="-1.552556">
				<ele>1125</ele>
				<time>2018-04-28T16:16:54Z</time>
			</trkpt>
			<trkpt lat="42.994072" lon="-1.552493">
				<ele>1125</ele>
				<time>2018-04-28T16:16:58Z</time>
			</trkpt>
			<trkpt lat="42.994047" lon="-1.552437">
				<ele>1125</ele>
				<time>2018-04-28T16:17:00Z</time>
			</trkpt>
			<trkpt lat="42.994054" lon="-1.552371">
				<ele>1125</ele>
				<time>2018-04-28T16:17:03Z</time>
			</trkpt>
			<trkpt lat="42.994079" lon="-1.552315">
				<ele>1125</ele>
				<time>2018-04-28T16:17:09Z</time>
			</trkpt>
			<trkpt lat="42.994131" lon="-1.552284">
				<ele>1125</ele>
				<time>2018-04-28T16:17:12Z</time>
			</trkpt>
			<trkpt lat="42.994187" lon="-1.552277">
				<ele>1125</ele>
				<time>2018-04-28T16:17:16Z</time>
			</trkpt>
			<trkpt lat="42.994234" lon="-1.552278">
				<ele>1125</ele>
				<time>2018-04-28T16:17:23Z</time>
			</trkpt>
			<trkpt lat="42.99424" lon="-1.552212">
				<ele>1125</ele>
				<time>2018-04-28T16:17:30Z</time>
			</trkpt>
			<trkpt lat="42.994232" lon="-1.552133">
				<ele>1125</ele>
				<time>2018-04-28T16:17:33Z</time>
			</trkpt>
			<trkpt lat="42.994188" lon="-1.552085">
				<ele>1125</ele>
				<time>2018-04-28T16:17:38Z</time>
			</trkpt>
			<trkpt lat="42.994169" lon="-1.552021">
				<ele>1126</ele>
				<time>2018-04-28T16:17:42Z</time>
			</trkpt>
			<trkpt lat="42.994156" lon="-1.551957">
				<ele>1126</ele>
				<time>2018-04-28T16:17:44Z</time>
			</trkpt>
			<trkpt lat="42.994189" lon="-1.551911">
				<ele>1126</ele>
				<time>2018-04-28T16:17:49Z</time>
			</trkpt>
			<trkpt lat="42.994237" lon="-1.551889">
				<ele>1126</ele>
				<time>2018-04-28T16:17:56Z</time>
			</trkpt>
			<trkpt lat="42.994276" lon="-1.551853">
				<ele>1126</ele>
				<time>2018-04-28T16:18:05Z</time>
			</trkpt>
			<trkpt lat="42.994277" lon="-1.551783">
				<ele>1126</ele>
				<time>2018-04-28T16:18:11Z</time>
			</trkpt>
			<trkpt lat="42.994285" lon="-1.5517">
				<ele>1126</ele>
				<time>2018-04-28T16:18:15Z</time>
			</trkpt>
			<trkpt lat="42.994315" lon="-1.551649">
				<ele>1126</ele>
				<time>2018-04-28T16:18:21Z</time>
			</trkpt>
			<trkpt lat="42.994358" lon="-1.551678">
				<ele>1126</ele>
				<time>2018-04-28T16:18:27Z</time>
			</trkpt>
			<trkpt lat="42.994403" lon="-1.551699">
				<ele>1126</ele>
				<time>2018-04-28T16:18:33Z</time>
			</trkpt>
			<trkpt lat="42.994438" lon="-1.551758">
				<ele>1126</ele>
				<time>2018-04-28T16:18:38Z</time>
			</trkpt>
			<trkpt lat="42.994476" lon="-1.551809">
				<ele>1126</ele>
				<time>2018-04-28T16:18:42Z</time>
			</trkpt>
			<trkpt lat="42.994514" lon="-1.551851">
				<ele>1126</ele>
				<time>2018-04-28T16:18:45Z</time>
			</trkpt>
			<trkpt lat="42.994527" lon="-1.551939">
				<ele>1126</ele>
				<time>2018-04-28T16:18:49Z</time>
			</trkpt>
			<trkpt lat="42.994575" lon="-1.551978">
				<ele>1126</ele>
				<time>2018-04-28T16:18:53Z</time>
			</trkpt>
			<trkpt lat="42.994603" lon="-1.551925">
				<ele>1126</ele>
				<time>2018-04-28T16:19:01Z</time>
			</trkpt>
			<trkpt lat="42.994608" lon="-1.551858">
				<ele>1126</ele>
				<time>2018-04-28T16:19:09Z</time>
			</trkpt>
			<trkpt lat="42.994613" lon="-1.551792">
				<ele>1126</ele>
				<time>2018-04-28T16:19:11Z</time>
			</trkpt>
			<trkpt lat="42.994591" lon="-1.551737">
				<ele>1126</ele>
				<time>2018-04-28T16:19:16Z</time>
			</trkpt>
			<trkpt lat="42.994557" lon="-1.551686">
				<ele>1126</ele>
				<time>2018-04-28T16:19:19Z</time>
			</trkpt>
			<trkpt lat="42.994528" lon="-1.551635">
				<ele>1126</ele>
				<time>2018-04-28T16:19:22Z</time>
			</trkpt>
			<trkpt lat="42.994514" lon="-1.551572">
				<ele>1126</ele>
				<time>2018-04-28T16:19:25Z</time>
			</trkpt>
			<trkpt lat="42.99449" lon="-1.551507">
				<ele>1126</ele>
				<time>2018-04-28T16:19:30Z</time>
			</trkpt>
			<trkpt lat="42.994496" lon="-1.551439">
				<ele>1126</ele>
				<time>2018-04-28T16:19:34Z</time>
			</trkpt>
			<trkpt lat="42.994546" lon="-1.551424">
				<ele>1126</ele>
				<time>2018-04-28T16:19:49Z</time>
			</trkpt>
			<trkpt lat="42.994586" lon="-1.551377">
				<ele>1126</ele>
				<time>2018-04-28T16:19:52Z</time>
			</trkpt>
			<trkpt lat="42.994638" lon="-1.551405">
				<ele>1126</ele>
				<time>2018-04-28T16:20:00Z</time>
			</trkpt>
			<trkpt lat="42.994666" lon="-1.551455">
				<ele>1126</ele>
				<time>2018-04-28T16:20:03Z</time>
			</trkpt>
			<trkpt lat="42.994702" lon="-1.551505">
				<ele>1126</ele>
				<time>2018-04-28T16:20:11Z</time>
			</trkpt>
			<trkpt lat="42.99475" lon="-1.551513">
				<ele>1126</ele>
				<time>2018-04-28T16:20:15Z</time>
			</trkpt>
			<trkpt lat="42.994796" lon="-1.55154">
				<ele>1126</ele>
				<time>2018-04-28T16:20:20Z</time>
			</trkpt>
			<trkpt lat="42.994844" lon="-1.551595">
				<ele>1126</ele>
				<time>2018-04-28T16:20:27Z</time>
			</trkpt>
			<trkpt lat="42.994889" lon="-1.551606">
				<ele>1126</ele>
				<time>2018-04-28T16:20:30Z</time>
			</trkpt>
			<trkpt lat="42.994933" lon="-1.55166">
				<ele>1126</ele>
				<time>2018-04-28T16:20:35Z</time>
			</trkpt>
			<trkpt lat="42.99496" lon="-1.551718">
				<ele>1126</ele>
				<time>2018-04-28T16:20:38Z</time>
			</trkpt>
			<trkpt lat="42.995003" lon="-1.551777">
				<ele>1126</ele>
				<time>2018-04-28T16:20:43Z</time>
			</trkpt>
			<trkpt lat="42.995053" lon="-1.551808">
				<ele>1126</ele>
				<time>2018-04-28T16:20:47Z</time>
			</trkpt>
			<trkpt lat="42.995053" lon="-1.551745">
				<ele>1126</ele>
				<time>2018-04-28T16:20:56Z</time>
			</trkpt>
			<trkpt lat="42.995042" lon="-1.551668">
				<ele>1126</ele>
				<time>2018-04-28T16:21:01Z</time>
			</trkpt>
			<trkpt lat="42.995052" lon="-1.5516">
				<ele>1126</ele>
				<time>2018-04-28T16:21:04Z</time>
			</trkpt>
			<trkpt lat="42.995036" lon="-1.551538">
				<ele>1126</ele>
				<time>2018-04-28T16:21:08Z</time>
			</trkpt>
			<trkpt lat="42.995006" lon="-1.551477">
				<ele>1126</ele>
				<time>2018-04-28T16:21:12Z</time>
			</trkpt>
			<trkpt lat="42.995003" lon="-1.551413">
				<ele>1126</ele>
				<time>2018-04-28T16:21:16Z</time>
			</trkpt>
			<trkpt lat="42.995006" lon="-1.551346">
				<ele>1126</ele>
				<time>2018-04-28T16:21:19Z</time>
			</trkpt>
			<trkpt lat="42.995007" lon="-1.551267">
				<ele>1126</ele>
				<time>2018-04-28T16:21:22Z</time>
			</trkpt>
			<trkpt lat="42.995007" lon="-1.551203">
				<ele>1126</ele>
				<time>2018-04-28T16:21:26Z</time>
			</trkpt>
			<trkpt lat="42.994985" lon="-1.551144">
				<ele>1126</ele>
				<time>2018-04-28T16:21:31Z</time>
			</trkpt>
			<trkpt lat="42.994992" lon="-1.551076">
				<ele>1126</ele>
				<time>2018-04-28T16:21:36Z</time>
			</trkpt>
			<trkpt lat="42.994994" lon="-1.550999">
				<ele>1126</ele>
				<time>2018-04-28T16:21:39Z</time>
			</trkpt>
			<trkpt lat="42.995003" lon="-1.550922">
				<ele>1126</ele>
				<time>2018-04-28T16:21:42Z</time>
			</trkpt>
			<trkpt lat="42.995023" lon="-1.55085">
				<ele>1126</ele>
				<time>2018-04-28T16:21:46Z</time>
			</trkpt>
			<trkpt lat="42.995011" lon="-1.550776">
				<ele>1126</ele>
				<time>2018-04-28T16:21:53Z</time>
			</trkpt>
			<trkpt lat="42.995009" lon="-1.550706">
				<ele>1126</ele>
				<time>2018-04-28T16:21:58Z</time>
			</trkpt>
			<trkpt lat="42.995008" lon="-1.550643">
				<ele>1126</ele>
				<time>2018-04-28T16:22:00Z</time>
			</trkpt>
			<trkpt lat="42.995022" lon="-1.550574">
				<ele>1126</ele>
				<time>2018-04-28T16:22:03Z</time>
			</trkpt>
			<trkpt lat="42.995039" lon="-1.550509">
				<ele>1126</ele>
				<time>2018-04-28T16:22:06Z</time>
			</trkpt>
			<trkpt lat="42.995058" lon="-1.55045">
				<ele>1126</ele>
				<time>2018-04-28T16:22:08Z</time>
			</trkpt>
			<trkpt lat="42.995076" lon="-1.55038">
				<ele>1126</ele>
				<time>2018-04-28T16:22:12Z</time>
			</trkpt>
			<trkpt lat="42.995071" lon="-1.550285">
				<ele>1126</ele>
				<time>2018-04-28T16:22:16Z</time>
			</trkpt>
			<trkpt lat="42.995068" lon="-1.550223">
				<ele>1126</ele>
				<time>2018-04-28T16:22:19Z</time>
			</trkpt>
			<trkpt lat="42.995067" lon="-1.550148">
				<ele>1126</ele>
				<time>2018-04-28T16:22:23Z</time>
			</trkpt>
			<trkpt lat="42.995063" lon="-1.550066">
				<ele>1126</ele>
				<time>2018-04-28T16:22:27Z</time>
			</trkpt>
			<trkpt lat="42.995099" lon="-1.55001">
				<ele>1126</ele>
				<time>2018-04-28T16:22:32Z</time>
			</trkpt>
			<trkpt lat="42.995119" lon="-1.549955">
				<ele>1157</ele>
				<time>2018-04-28T16:22:35Z</time>
			</trkpt>
			<trkpt lat="42.995141" lon="-1.549883">
				<ele>1157</ele>
				<time>2018-04-28T16:22:38Z</time>
			</trkpt>
			<trkpt lat="42.995174" lon="-1.549825">
				<ele>1157</ele>
				<time>2018-04-28T16:22:41Z</time>
			</trkpt>
			<trkpt lat="42.995177" lon="-1.549764">
				<ele>1157</ele>
				<time>2018-04-28T16:22:46Z</time>
			</trkpt>
			<trkpt lat="42.995156" lon="-1.549698">
				<ele>1157</ele>
				<time>2018-04-28T16:22:50Z</time>
			</trkpt>
			<trkpt lat="42.995137" lon="-1.54962">
				<ele>1157</ele>
				<time>2018-04-28T16:22:53Z</time>
			</trkpt>
			<trkpt lat="42.995135" lon="-1.549542">
				<ele>1157</ele>
				<time>2018-04-28T16:22:56Z</time>
			</trkpt>
			<trkpt lat="42.995139" lon="-1.549438">
				<ele>1157</ele>
				<time>2018-04-28T16:22:59Z</time>
			</trkpt>
			<trkpt lat="42.995126" lon="-1.549369">
				<ele>1157</ele>
				<time>2018-04-28T16:23:02Z</time>
			</trkpt>
			<trkpt lat="42.995085" lon="-1.54932">
				<ele>1157</ele>
				<time>2018-04-28T16:23:05Z</time>
			</trkpt>
			<trkpt lat="42.995056" lon="-1.549262">
				<ele>1157</ele>
				<time>2018-04-28T16:23:08Z</time>
			</trkpt>
			<trkpt lat="42.995027" lon="-1.549196">
				<ele>1157</ele>
				<time>2018-04-28T16:23:11Z</time>
			</trkpt>
			<trkpt lat="42.995002" lon="-1.549133">
				<ele>1157</ele>
				<time>2018-04-28T16:23:15Z</time>
			</trkpt>
			<trkpt lat="42.995003" lon="-1.549069">
				<ele>1157</ele>
				<time>2018-04-28T16:23:17Z</time>
			</trkpt>
			<trkpt lat="42.99499" lon="-1.549001">
				<ele>1157</ele>
				<time>2018-04-28T16:23:20Z</time>
			</trkpt>
			<trkpt lat="42.994974" lon="-1.548922">
				<ele>1157</ele>
				<time>2018-04-28T16:23:23Z</time>
			</trkpt>
			<trkpt lat="42.994951" lon="-1.548846">
				<ele>1157</ele>
				<time>2018-04-28T16:23:28Z</time>
			</trkpt>
			<trkpt lat="42.994921" lon="-1.548781">
				<ele>1157</ele>
				<time>2018-04-28T16:23:31Z</time>
			</trkpt>
			<trkpt lat="42.994912" lon="-1.548719">
				<ele>1157</ele>
				<time>2018-04-28T16:23:33Z</time>
			</trkpt>
			<trkpt lat="42.994909" lon="-1.548653">
				<ele>1157</ele>
				<time>2018-04-28T16:23:35Z</time>
			</trkpt>
			<trkpt lat="42.994885" lon="-1.548588">
				<ele>1157</ele>
				<time>2018-04-28T16:23:39Z</time>
			</trkpt>
			<trkpt lat="42.994868" lon="-1.548526">
				<ele>1157</ele>
				<time>2018-04-28T16:23:43Z</time>
			</trkpt>
			<trkpt lat="42.994831" lon="-1.548467">
				<ele>1157</ele>
				<time>2018-04-28T16:23:47Z</time>
			</trkpt>
			<trkpt lat="42.994803" lon="-1.548405">
				<ele>1157</ele>
				<time>2018-04-28T16:23:50Z</time>
			</trkpt>
			<trkpt lat="42.994781" lon="-1.548342">
				<ele>1157</ele>
				<time>2018-04-28T16:23:53Z</time>
			</trkpt>
			<trkpt lat="42.994742" lon="-1.548281">
				<ele>1157</ele>
				<time>2018-04-28T16:23:56Z</time>
			</trkpt>
			<trkpt lat="42.994737" lon="-1.548206">
				<ele>1157</ele>
				<time>2018-04-28T16:24:01Z</time>
			</trkpt>
			<trkpt lat="42.994742" lon="-1.548115">
				<ele>1157</ele>
				<time>2018-04-28T16:24:06Z</time>
			</trkpt>
			<trkpt lat="42.994749" lon="-1.548039">
				<ele>1157</ele>
				<time>2018-04-28T16:24:09Z</time>
			</trkpt>
			<trkpt lat="42.99476" lon="-1.547949">
				<ele>1157</ele>
				<time>2018-04-28T16:24:11Z</time>
			</trkpt>
			<trkpt lat="42.994751" lon="-1.54787">
				<ele>1158</ele>
				<time>2018-04-28T16:24:15Z</time>
			</trkpt>
			<trkpt lat="42.994736" lon="-1.547809">
				<ele>1158</ele>
				<time>2018-04-28T16:24:19Z</time>
			</trkpt>
			<trkpt lat="42.99469" lon="-1.547788">
				<ele>1158</ele>
				<time>2018-04-28T16:24:25Z</time>
			</trkpt>
			<trkpt lat="42.994642" lon="-1.547796">
				<ele>1158</ele>
				<time>2018-04-28T16:24:28Z</time>
			</trkpt>
			<trkpt lat="42.9946" lon="-1.547825">
				<ele>1158</ele>
				<time>2018-04-28T16:24:31Z</time>
			</trkpt>
			<trkpt lat="42.994547" lon="-1.547824">
				<ele>1158</ele>
				<time>2018-04-28T16:24:37Z</time>
			</trkpt>
			<trkpt lat="42.994502" lon="-1.547813">
				<ele>1158</ele>
				<time>2018-04-28T16:24:42Z</time>
			</trkpt>
			<trkpt lat="42.994461" lon="-1.547751">
				<ele>1158</ele>
				<time>2018-04-28T16:24:47Z</time>
			</trkpt>
			<trkpt lat="42.994433" lon="-1.547695">
				<ele>1158</ele>
				<time>2018-04-28T16:24:50Z</time>
			</trkpt>
			<trkpt lat="42.994386" lon="-1.547661">
				<ele>1158</ele>
				<time>2018-04-28T16:24:56Z</time>
			</trkpt>
			<trkpt lat="42.994338" lon="-1.547625">
				<ele>1158</ele>
				<time>2018-04-28T16:25:00Z</time>
			</trkpt>
			<trkpt lat="42.994281" lon="-1.547595">
				<ele>1158</ele>
				<time>2018-04-28T16:25:05Z</time>
			</trkpt>
			<trkpt lat="42.994228" lon="-1.547589">
				<ele>1158</ele>
				<time>2018-04-28T16:25:09Z</time>
			</trkpt>
			<trkpt lat="42.994177" lon="-1.547565">
				<ele>1158</ele>
				<time>2018-04-28T16:25:12Z</time>
			</trkpt>
			<trkpt lat="42.994132" lon="-1.547541">
				<ele>1158</ele>
				<time>2018-04-28T16:25:16Z</time>
			</trkpt>
			<trkpt lat="42.994079" lon="-1.547512">
				<ele>1158</ele>
				<time>2018-04-28T16:25:19Z</time>
			</trkpt>
			<trkpt lat="42.994044" lon="-1.547467">
				<ele>1158</ele>
				<time>2018-04-28T16:25:22Z</time>
			</trkpt>
			<trkpt lat="42.994004" lon="-1.547435">
				<ele>1158</ele>
				<time>2018-04-28T16:25:25Z</time>
			</trkpt>
			<trkpt lat="42.993949" lon="-1.547374">
				<ele>1158</ele>
				<time>2018-04-28T16:25:28Z</time>
			</trkpt>
			<trkpt lat="42.993904" lon="-1.54732">
				<ele>1158</ele>
				<time>2018-04-28T16:25:31Z</time>
			</trkpt>
			<trkpt lat="42.993865" lon="-1.547267">
				<ele>1158</ele>
				<time>2018-04-28T16:25:35Z</time>
			</trkpt>
			<trkpt lat="42.993813" lon="-1.547264">
				<ele>1158</ele>
				<time>2018-04-28T16:25:38Z</time>
			</trkpt>
			<trkpt lat="42.993761" lon="-1.547229">
				<ele>1158</ele>
				<time>2018-04-28T16:25:41Z</time>
			</trkpt>
			<trkpt lat="42.993704" lon="-1.547193">
				<ele>1171</ele>
				<time>2018-04-28T16:25:44Z</time>
			</trkpt>
			<trkpt lat="42.993657" lon="-1.547156">
				<ele>1171</ele>
				<time>2018-04-28T16:25:47Z</time>
			</trkpt>
			<trkpt lat="42.993616" lon="-1.547124">
				<ele>1171</ele>
				<time>2018-04-28T16:25:49Z</time>
			</trkpt>
			<trkpt lat="42.993566" lon="-1.547085">
				<ele>1171</ele>
				<time>2018-04-28T16:25:52Z</time>
			</trkpt>
			<trkpt lat="42.99355" lon="-1.547017">
				<ele>1171</ele>
				<time>2018-04-28T16:25:55Z</time>
			</trkpt>
			<trkpt lat="42.993555" lon="-1.546929">
				<ele>1171</ele>
				<time>2018-04-28T16:26:00Z</time>
			</trkpt>
			<trkpt lat="42.993564" lon="-1.546828">
				<ele>1171</ele>
				<time>2018-04-28T16:26:04Z</time>
			</trkpt>
			<trkpt lat="42.993544" lon="-1.546761">
				<ele>1171</ele>
				<time>2018-04-28T16:26:09Z</time>
			</trkpt>
			<trkpt lat="42.993522" lon="-1.546707">
				<ele>1171</ele>
				<time>2018-04-28T16:26:12Z</time>
			</trkpt>
			<trkpt lat="42.993513" lon="-1.546642">
				<ele>1171</ele>
				<time>2018-04-28T16:26:15Z</time>
			</trkpt>
			<trkpt lat="42.993468" lon="-1.54661">
				<ele>1171</ele>
				<time>2018-04-28T16:26:27Z</time>
			</trkpt>
			<trkpt lat="42.993418" lon="-1.546605">
				<ele>1171</ele>
				<time>2018-04-28T16:26:31Z</time>
			</trkpt>
			<trkpt lat="42.993375" lon="-1.546583">
				<ele>1171</ele>
				<time>2018-04-28T16:26:36Z</time>
			</trkpt>
			<trkpt lat="42.993332" lon="-1.546555">
				<ele>1171</ele>
				<time>2018-04-28T16:26:40Z</time>
			</trkpt>
			<trkpt lat="42.99329" lon="-1.546506">
				<ele>1171</ele>
				<time>2018-04-28T16:26:46Z</time>
			</trkpt>
			<trkpt lat="42.99323" lon="-1.546518">
				<ele>1171</ele>
				<time>2018-04-28T16:26:50Z</time>
			</trkpt>
			<trkpt lat="42.993174" lon="-1.546556">
				<ele>1171</ele>
				<time>2018-04-28T16:26:53Z</time>
			</trkpt>
			<trkpt lat="42.993124" lon="-1.546559">
				<ele>1171</ele>
				<time>2018-04-28T16:26:56Z</time>
			</trkpt>
			<trkpt lat="42.993079" lon="-1.546555">
				<ele>1171</ele>
				<time>2018-04-28T16:26:58Z</time>
			</trkpt>
			<trkpt lat="42.993022" lon="-1.546558">
				<ele>1171</ele>
				<time>2018-04-28T16:27:02Z</time>
			</trkpt>
			<trkpt lat="42.992962" lon="-1.546544">
				<ele>1171</ele>
				<time>2018-04-28T16:27:06Z</time>
			</trkpt>
			<trkpt lat="42.992907" lon="-1.546548">
				<ele>1171</ele>
				<time>2018-04-28T16:27:09Z</time>
			</trkpt>
			<trkpt lat="42.992845" lon="-1.546514">
				<ele>1171</ele>
				<time>2018-04-28T16:27:12Z</time>
			</trkpt>
			<trkpt lat="42.99279" lon="-1.5465">
				<ele>1171</ele>
				<time>2018-04-28T16:27:15Z</time>
			</trkpt>
			<trkpt lat="42.992728" lon="-1.546486">
				<ele>1171</ele>
				<time>2018-04-28T16:27:18Z</time>
			</trkpt>
			<trkpt lat="42.992674" lon="-1.546475">
				<ele>1171</ele>
				<time>2018-04-28T16:27:21Z</time>
			</trkpt>
			<trkpt lat="42.992623" lon="-1.546439">
				<ele>1171</ele>
				<time>2018-04-28T16:27:24Z</time>
			</trkpt>
			<trkpt lat="42.992579" lon="-1.54642">
				<ele>1171</ele>
				<time>2018-04-28T16:27:27Z</time>
			</trkpt>
			<trkpt lat="42.992534" lon="-1.54642">
				<ele>1171</ele>
				<time>2018-04-28T16:27:31Z</time>
			</trkpt>
			<trkpt lat="42.992481" lon="-1.546422">
				<ele>1171</ele>
				<time>2018-04-28T16:27:35Z</time>
			</trkpt>
			<trkpt lat="42.992431" lon="-1.546447">
				<ele>1171</ele>
				<time>2018-04-28T16:27:38Z</time>
			</trkpt>
			<trkpt lat="42.992382" lon="-1.546447">
				<ele>1171</ele>
				<time>2018-04-28T16:27:41Z</time>
			</trkpt>
			<trkpt lat="42.992337" lon="-1.546475">
				<ele>1171</ele>
				<time>2018-04-28T16:27:44Z</time>
			</trkpt>
			<trkpt lat="42.992284" lon="-1.546461">
				<ele>1171</ele>
				<time>2018-04-28T16:27:48Z</time>
			</trkpt>
			<trkpt lat="42.992238" lon="-1.546459">
				<ele>1171</ele>
				<time>2018-04-28T16:27:52Z</time>
			</trkpt>
			<trkpt lat="42.992193" lon="-1.546465">
				<ele>1171</ele>
				<time>2018-04-28T16:27:55Z</time>
			</trkpt>
			<trkpt lat="42.992136" lon="-1.546437">
				<ele>1171</ele>
				<time>2018-04-28T16:27:59Z</time>
			</trkpt>
			<trkpt lat="42.992079" lon="-1.546407">
				<ele>1171</ele>
				<time>2018-04-28T16:28:03Z</time>
			</trkpt>
			<trkpt lat="42.992039" lon="-1.546376">
				<ele>1171</ele>
				<time>2018-04-28T16:28:06Z</time>
			</trkpt>
			<trkpt lat="42.99199" lon="-1.546366">
				<ele>1171</ele>
				<time>2018-04-28T16:28:10Z</time>
			</trkpt>
			<trkpt lat="42.991943" lon="-1.546324">
				<ele>1171</ele>
				<time>2018-04-28T16:28:13Z</time>
			</trkpt>
			<trkpt lat="42.991889" lon="-1.546306">
				<ele>1171</ele>
				<time>2018-04-28T16:28:18Z</time>
			</trkpt>
			<trkpt lat="42.991834" lon="-1.546293">
				<ele>1171</ele>
				<time>2018-04-28T16:28:25Z</time>
			</trkpt>
			<trkpt lat="42.99178" lon="-1.546305">
				<ele>1171</ele>
				<time>2018-04-28T16:28:29Z</time>
			</trkpt>
			<trkpt lat="42.99173" lon="-1.546318">
				<ele>1171</ele>
				<time>2018-04-28T16:28:34Z</time>
			</trkpt>
			<trkpt lat="42.991681" lon="-1.546341">
				<ele>1171</ele>
				<time>2018-04-28T16:28:37Z</time>
			</trkpt>
			<trkpt lat="42.991631" lon="-1.546361">
				<ele>1186</ele>
				<time>2018-04-28T16:28:40Z</time>
			</trkpt>
			<trkpt lat="42.991579" lon="-1.546417">
				<ele>1186</ele>
				<time>2018-04-28T16:28:43Z</time>
			</trkpt>
			<trkpt lat="42.991532" lon="-1.546442">
				<ele>1186</ele>
				<time>2018-04-28T16:28:46Z</time>
			</trkpt>
			<trkpt lat="42.991481" lon="-1.546465">
				<ele>1186</ele>
				<time>2018-04-28T16:28:50Z</time>
			</trkpt>
			<trkpt lat="42.991429" lon="-1.546507">
				<ele>1186</ele>
				<time>2018-04-28T16:28:55Z</time>
			</trkpt>
			<trkpt lat="42.991367" lon="-1.546537">
				<ele>1186</ele>
				<time>2018-04-28T16:28:59Z</time>
			</trkpt>
			<trkpt lat="42.991315" lon="-1.546556">
				<ele>1186</ele>
				<time>2018-04-28T16:29:01Z</time>
			</trkpt>
			<trkpt lat="42.991271" lon="-1.546604">
				<ele>1186</ele>
				<time>2018-04-28T16:29:04Z</time>
			</trkpt>
			<trkpt lat="42.991222" lon="-1.546626">
				<ele>1186</ele>
				<time>2018-04-28T16:29:07Z</time>
			</trkpt>
			<trkpt lat="42.991178" lon="-1.546674">
				<ele>1186</ele>
				<time>2018-04-28T16:29:10Z</time>
			</trkpt>
			<trkpt lat="42.991133" lon="-1.546725">
				<ele>1186</ele>
				<time>2018-04-28T16:29:13Z</time>
			</trkpt>
			<trkpt lat="42.991076" lon="-1.546779">
				<ele>1186</ele>
				<time>2018-04-28T16:29:16Z</time>
			</trkpt>
			<trkpt lat="42.991028" lon="-1.546829">
				<ele>1186</ele>
				<time>2018-04-28T16:29:20Z</time>
			</trkpt>
			<trkpt lat="42.991002" lon="-1.546879">
				<ele>1186</ele>
				<time>2018-04-28T16:29:23Z</time>
			</trkpt>
			<trkpt lat="42.990962" lon="-1.546953">
				<ele>1186</ele>
				<time>2018-04-28T16:29:27Z</time>
			</trkpt>
			<trkpt lat="42.990933" lon="-1.547001">
				<ele>1186</ele>
				<time>2018-04-28T16:29:30Z</time>
			</trkpt>
			<trkpt lat="42.990885" lon="-1.547068">
				<ele>1186</ele>
				<time>2018-04-28T16:29:34Z</time>
			</trkpt>
			<trkpt lat="42.990849" lon="-1.547124">
				<ele>1186</ele>
				<time>2018-04-28T16:29:37Z</time>
			</trkpt>
			<trkpt lat="42.990809" lon="-1.547163">
				<ele>1186</ele>
				<time>2018-04-28T16:29:40Z</time>
			</trkpt>
			<trkpt lat="42.990769" lon="-1.547217">
				<ele>1186</ele>
				<time>2018-04-28T16:29:43Z</time>
			</trkpt>
			<trkpt lat="42.990725" lon="-1.547249">
				<ele>1186</ele>
				<time>2018-04-28T16:29:46Z</time>
			</trkpt>
			<trkpt lat="42.990689" lon="-1.547294">
				<ele>1186</ele>
				<time>2018-04-28T16:29:49Z</time>
			</trkpt>
			<trkpt lat="42.990634" lon="-1.547318">
				<ele>1186</ele>
				<time>2018-04-28T16:29:54Z</time>
			</trkpt>
			<trkpt lat="42.990589" lon="-1.547363">
				<ele>1186</ele>
				<time>2018-04-28T16:30:02Z</time>
			</trkpt>
			<trkpt lat="42.990551" lon="-1.5474">
				<ele>1186</ele>
				<time>2018-04-28T16:30:05Z</time>
			</trkpt>
			<trkpt lat="42.990505" lon="-1.547421">
				<ele>1186</ele>
				<time>2018-04-28T16:30:08Z</time>
			</trkpt>
			<trkpt lat="42.990466" lon="-1.547464">
				<ele>1186</ele>
				<time>2018-04-28T16:30:13Z</time>
			</trkpt>
			<trkpt lat="42.990401" lon="-1.547487">
				<ele>1186</ele>
				<time>2018-04-28T16:30:17Z</time>
			</trkpt>
			<trkpt lat="42.990354" lon="-1.547496">
				<ele>1186</ele>
				<time>2018-04-28T16:30:20Z</time>
			</trkpt>
			<trkpt lat="42.99031" lon="-1.547514">
				<ele>1186</ele>
				<time>2018-04-28T16:30:23Z</time>
			</trkpt>
			<trkpt lat="42.990259" lon="-1.547534">
				<ele>1186</ele>
				<time>2018-04-28T16:30:28Z</time>
			</trkpt>
			<trkpt lat="42.99021" lon="-1.547513">
				<ele>1186</ele>
				<time>2018-04-28T16:30:32Z</time>
			</trkpt>
			<trkpt lat="42.990145" lon="-1.547485">
				<ele>1186</ele>
				<time>2018-04-28T16:30:36Z</time>
			</trkpt>
			<trkpt lat="42.99011" lon="-1.547443">
				<ele>1186</ele>
				<time>2018-04-28T16:30:39Z</time>
			</trkpt>
			<trkpt lat="42.990078" lon="-1.547381">
				<ele>1186</ele>
				<time>2018-04-28T16:30:42Z</time>
			</trkpt>
			<trkpt lat="42.990038" lon="-1.547315">
				<ele>1186</ele>
				<time>2018-04-28T16:30:45Z</time>
			</trkpt>
			<trkpt lat="42.990006" lon="-1.547242">
				<ele>1186</ele>
				<time>2018-04-28T16:30:48Z</time>
			</trkpt>
			<trkpt lat="42.98997" lon="-1.547168">
				<ele>1186</ele>
				<time>2018-04-28T16:30:51Z</time>
			</trkpt>
			<trkpt lat="42.989939" lon="-1.547099">
				<ele>1186</ele>
				<time>2018-04-28T16:30:55Z</time>
			</trkpt>
			<trkpt lat="42.989901" lon="-1.547062">
				<ele>1186</ele>
				<time>2018-04-28T16:30:57Z</time>
			</trkpt>
			<trkpt lat="42.989859" lon="-1.547018">
				<ele>1186</ele>
				<time>2018-04-28T16:31:00Z</time>
			</trkpt>
			<trkpt lat="42.989832" lon="-1.546965">
				<ele>1186</ele>
				<time>2018-04-28T16:31:03Z</time>
			</trkpt>
			<trkpt lat="42.989792" lon="-1.546933">
				<ele>1186</ele>
				<time>2018-04-28T16:31:05Z</time>
			</trkpt>
			<trkpt lat="42.989749" lon="-1.546902">
				<ele>1186</ele>
				<time>2018-04-28T16:31:08Z</time>
			</trkpt>
			<trkpt lat="42.989696" lon="-1.546887">
				<ele>1186</ele>
				<time>2018-04-28T16:31:10Z</time>
			</trkpt>
			<trkpt lat="42.989651" lon="-1.546909">
				<ele>1186</ele>
				<time>2018-04-28T16:31:12Z</time>
			</trkpt>
			<trkpt lat="42.9896" lon="-1.546933">
				<ele>1186</ele>
				<time>2018-04-28T16:31:14Z</time>
			</trkpt>
			<trkpt lat="42.989559" lon="-1.546986">
				<ele>1205</ele>
				<time>2018-04-28T16:31:18Z</time>
			</trkpt>
			<trkpt lat="42.989533" lon="-1.547056">
				<ele>1205</ele>
				<time>2018-04-28T16:31:23Z</time>
			</trkpt>
			<trkpt lat="42.989536" lon="-1.547121">
				<ele>1205</ele>
				<time>2018-04-28T16:31:27Z</time>
			</trkpt>
			<trkpt lat="42.98953" lon="-1.547183">
				<ele>1205</ele>
				<time>2018-04-28T16:31:31Z</time>
			</trkpt>
			<trkpt lat="42.989545" lon="-1.547259">
				<ele>1205</ele>
				<time>2018-04-28T16:31:35Z</time>
			</trkpt>
			<trkpt lat="42.989516" lon="-1.54731">
				<ele>1205</ele>
				<time>2018-04-28T16:31:42Z</time>
			</trkpt>
			<trkpt lat="42.989482" lon="-1.547261">
				<ele>1205</ele>
				<time>2018-04-28T16:31:47Z</time>
			</trkpt>
			<trkpt lat="42.98943" lon="-1.547254">
				<ele>1205</ele>
				<time>2018-04-28T16:31:51Z</time>
			</trkpt>
			<trkpt lat="42.989405" lon="-1.547198">
				<ele>1205</ele>
				<time>2018-04-28T16:31:55Z</time>
			</trkpt>
			<trkpt lat="42.989387" lon="-1.547141">
				<ele>1205</ele>
				<time>2018-04-28T16:31:58Z</time>
			</trkpt>
			<trkpt lat="42.989343" lon="-1.547113">
				<ele>1205</ele>
				<time>2018-04-28T16:32:03Z</time>
			</trkpt>
			<trkpt lat="42.989297" lon="-1.547162">
				<ele>1205</ele>
				<time>2018-04-28T16:32:07Z</time>
			</trkpt>
			<trkpt lat="42.98925" lon="-1.547202">
				<ele>1205</ele>
				<time>2018-04-28T16:32:10Z</time>
			</trkpt>
			<trkpt lat="42.989247" lon="-1.547271">
				<ele>1205</ele>
				<time>2018-04-28T16:32:15Z</time>
			</trkpt>
			<trkpt lat="42.989239" lon="-1.547345">
				<ele>1205</ele>
				<time>2018-04-28T16:32:20Z</time>
			</trkpt>
			<trkpt lat="42.989275" lon="-1.547388">
				<ele>1205</ele>
				<time>2018-04-28T16:32:26Z</time>
			</trkpt>
			<trkpt lat="42.989318" lon="-1.547454">
				<ele>1205</ele>
				<time>2018-04-28T16:32:30Z</time>
			</trkpt>
			<trkpt lat="42.989345" lon="-1.547522">
				<ele>1205</ele>
				<time>2018-04-28T16:32:33Z</time>
			</trkpt>
			<trkpt lat="42.989376" lon="-1.547587">
				<ele>1205</ele>
				<time>2018-04-28T16:32:37Z</time>
			</trkpt>
			<trkpt lat="42.98938" lon="-1.547662">
				<ele>1205</ele>
				<time>2018-04-28T16:32:41Z</time>
			</trkpt>
			<trkpt lat="42.989367" lon="-1.547722">
				<ele>1205</ele>
				<time>2018-04-28T16:32:46Z</time>
			</trkpt>
			<trkpt lat="42.989315" lon="-1.547737">
				<ele>1205</ele>
				<time>2018-04-28T16:32:52Z</time>
			</trkpt>
			<trkpt lat="42.989267" lon="-1.547738">
				<ele>1205</ele>
				<time>2018-04-28T16:32:57Z</time>
			</trkpt>
			<trkpt lat="42.989217" lon="-1.547764">
				<ele>1205</ele>
				<time>2018-04-28T16:33:02Z</time>
			</trkpt>
			<trkpt lat="42.989185" lon="-1.547815">
				<ele>1205</ele>
				<time>2018-04-28T16:33:09Z</time>
			</trkpt>
			<trkpt lat="42.989157" lon="-1.547876">
				<ele>1205</ele>
				<time>2018-04-28T16:33:14Z</time>
			</trkpt>
			<trkpt lat="42.989135" lon="-1.547955">
				<ele>1223</ele>
				<time>2018-04-28T16:33:19Z</time>
			</trkpt>
			<trkpt lat="42.989125" lon="-1.54802">
				<ele>1223</ele>
				<time>2018-04-28T16:33:23Z</time>
			</trkpt>
			<trkpt lat="42.989108" lon="-1.548082">
				<ele>1223</ele>
				<time>2018-04-28T16:33:26Z</time>
			</trkpt>
			<trkpt lat="42.989078" lon="-1.548156">
				<ele>1223</ele>
				<time>2018-04-28T16:33:30Z</time>
			</trkpt>
			<trkpt lat="42.989034" lon="-1.548226">
				<ele>1223</ele>
				<time>2018-04-28T16:33:34Z</time>
			</trkpt>
			<trkpt lat="42.989003" lon="-1.548279">
				<ele>1223</ele>
				<time>2018-04-28T16:33:37Z</time>
			</trkpt>
			<trkpt lat="42.988964" lon="-1.548323">
				<ele>1223</ele>
				<time>2018-04-28T16:33:40Z</time>
			</trkpt>
			<trkpt lat="42.988916" lon="-1.548313">
				<ele>1223</ele>
				<time>2018-04-28T16:33:49Z</time>
			</trkpt>
			<trkpt lat="42.988868" lon="-1.548268">
				<ele>1223</ele>
				<time>2018-04-28T16:33:54Z</time>
			</trkpt>
			<trkpt lat="42.988824" lon="-1.548221">
				<ele>1223</ele>
				<time>2018-04-28T16:34:00Z</time>
			</trkpt>
			<trkpt lat="42.988784" lon="-1.54825">
				<ele>1223</ele>
				<time>2018-04-28T16:34:04Z</time>
			</trkpt>
			<trkpt lat="42.988753" lon="-1.5483">
				<ele>1223</ele>
				<time>2018-04-28T16:34:07Z</time>
			</trkpt>
			<trkpt lat="42.988725" lon="-1.548356">
				<ele>1223</ele>
				<time>2018-04-28T16:34:10Z</time>
			</trkpt>
			<trkpt lat="42.988713" lon="-1.548417">
				<ele>1223</ele>
				<time>2018-04-28T16:34:13Z</time>
			</trkpt>
			<trkpt lat="42.988691" lon="-1.548484">
				<ele>1223</ele>
				<time>2018-04-28T16:34:17Z</time>
			</trkpt>
			<trkpt lat="42.988656" lon="-1.548524">
				<ele>1223</ele>
				<time>2018-04-28T16:34:22Z</time>
			</trkpt>
			<trkpt lat="42.988623" lon="-1.548574">
				<ele>1223</ele>
				<time>2018-04-28T16:34:25Z</time>
			</trkpt>
			<trkpt lat="42.988591" lon="-1.548619">
				<ele>1223</ele>
				<time>2018-04-28T16:34:32Z</time>
			</trkpt>
			<trkpt lat="42.98855" lon="-1.54867">
				<ele>1223</ele>
				<time>2018-04-28T16:34:37Z</time>
			</trkpt>
			<trkpt lat="42.988505" lon="-1.548681">
				<ele>1223</ele>
				<time>2018-04-28T16:34:41Z</time>
			</trkpt>
			<trkpt lat="42.988457" lon="-1.5487">
				<ele>1223</ele>
				<time>2018-04-28T16:34:47Z</time>
			</trkpt>
			<trkpt lat="42.98841" lon="-1.548696">
				<ele>1223</ele>
				<time>2018-04-28T16:34:51Z</time>
			</trkpt>
			<trkpt lat="42.988361" lon="-1.548694">
				<ele>1223</ele>
				<time>2018-04-28T16:34:53Z</time>
			</trkpt>
			<trkpt lat="42.988308" lon="-1.548683">
				<ele>1223</ele>
				<time>2018-04-28T16:34:56Z</time>
			</trkpt>
			<trkpt lat="42.988279" lon="-1.548616">
				<ele>1223</ele>
				<time>2018-04-28T16:35:01Z</time>
			</trkpt>
			<trkpt lat="42.988259" lon="-1.548561">
				<ele>1223</ele>
				<time>2018-04-28T16:35:03Z</time>
			</trkpt>
			<trkpt lat="42.988219" lon="-1.548501">
				<ele>1223</ele>
				<time>2018-04-28T16:35:06Z</time>
			</trkpt>
			<trkpt lat="42.988204" lon="-1.548421">
				<ele>1223</ele>
				<time>2018-04-28T16:35:08Z</time>
			</trkpt>
			<trkpt lat="42.98816" lon="-1.548393">
				<ele>1223</ele>
				<time>2018-04-28T16:35:12Z</time>
			</trkpt>
			<trkpt lat="42.988134" lon="-1.548334">
				<ele>1223</ele>
				<time>2018-04-28T16:35:17Z</time>
			</trkpt>
			<trkpt lat="42.98809" lon="-1.548353">
				<ele>1223</ele>
				<time>2018-04-28T16:35:25Z</time>
			</trkpt>
			<trkpt lat="42.988048" lon="-1.548385">
				<ele>1223</ele>
				<time>2018-04-28T16:35:28Z</time>
			</trkpt>
			<trkpt lat="42.98799" lon="-1.548393">
				<ele>1223</ele>
				<time>2018-04-28T16:35:32Z</time>
			</trkpt>
			<trkpt lat="42.987937" lon="-1.54838">
				<ele>1223</ele>
				<time>2018-04-28T16:35:35Z</time>
			</trkpt>
			<trkpt lat="42.987889" lon="-1.548379">
				<ele>1223</ele>
				<time>2018-04-28T16:35:38Z</time>
			</trkpt>
			<trkpt lat="42.987835" lon="-1.548378">
				<ele>1223</ele>
				<time>2018-04-28T16:35:42Z</time>
			</trkpt>
			<trkpt lat="42.987787" lon="-1.548401">
				<ele>1223</ele>
				<time>2018-04-28T16:35:46Z</time>
			</trkpt>
			<trkpt lat="42.987739" lon="-1.548444">
				<ele>1223</ele>
				<time>2018-04-28T16:35:49Z</time>
			</trkpt>
			<trkpt lat="42.987694" lon="-1.548453">
				<ele>1223</ele>
				<time>2018-04-28T16:35:52Z</time>
			</trkpt>
			<trkpt lat="42.987648" lon="-1.548463">
				<ele>1223</ele>
				<time>2018-04-28T16:35:55Z</time>
			</trkpt>
			<trkpt lat="42.987592" lon="-1.548481">
				<ele>1223</ele>
				<time>2018-04-28T16:35:58Z</time>
			</trkpt>
			<trkpt lat="42.987548" lon="-1.548465">
				<ele>1223</ele>
				<time>2018-04-28T16:36:01Z</time>
			</trkpt>
			<trkpt lat="42.987496" lon="-1.548472">
				<ele>1208</ele>
				<time>2018-04-28T16:36:04Z</time>
			</trkpt>
			<trkpt lat="42.98745" lon="-1.548467">
				<ele>1208</ele>
				<time>2018-04-28T16:36:06Z</time>
			</trkpt>
			<trkpt lat="42.987403" lon="-1.548463">
				<ele>1208</ele>
				<time>2018-04-28T16:36:09Z</time>
			</trkpt>
			<trkpt lat="42.987359" lon="-1.548427">
				<ele>1208</ele>
				<time>2018-04-28T16:36:11Z</time>
			</trkpt>
			<trkpt lat="42.987297" lon="-1.548414">
				<ele>1208</ele>
				<time>2018-04-28T16:36:15Z</time>
			</trkpt>
			<trkpt lat="42.987231" lon="-1.548379">
				<ele>1208</ele>
				<time>2018-04-28T16:36:18Z</time>
			</trkpt>
			<trkpt lat="42.987174" lon="-1.548349">
				<ele>1208</ele>
				<time>2018-04-28T16:36:20Z</time>
			</trkpt>
			<trkpt lat="42.987126" lon="-1.548309">
				<ele>1208</ele>
				<time>2018-04-28T16:36:23Z</time>
			</trkpt>
			<trkpt lat="42.987118" lon="-1.548243">
				<ele>1208</ele>
				<time>2018-04-28T16:36:25Z</time>
			</trkpt>
			<trkpt lat="42.98709" lon="-1.548185">
				<ele>1208</ele>
				<time>2018-04-28T16:36:27Z</time>
			</trkpt>
			<trkpt lat="42.987064" lon="-1.548116">
				<ele>1208</ele>
				<time>2018-04-28T16:36:30Z</time>
			</trkpt>
			<trkpt lat="42.987045" lon="-1.548057">
				<ele>1208</ele>
				<time>2018-04-28T16:36:35Z</time>
			</trkpt>
			<trkpt lat="42.987014" lon="-1.548004">
				<ele>1208</ele>
				<time>2018-04-28T16:36:38Z</time>
			</trkpt>
			<trkpt lat="42.987013" lon="-1.547931">
				<ele>1208</ele>
				<time>2018-04-28T16:36:45Z</time>
			</trkpt>
			<trkpt lat="42.987029" lon="-1.547854">
				<ele>1206</ele>
				<time>2018-04-28T16:36:49Z</time>
			</trkpt>
			<trkpt lat="42.987007" lon="-1.54778">
				<ele>1206</ele>
				<time>2018-04-28T16:36:57Z</time>
			</trkpt>
			<trkpt lat="42.986963" lon="-1.547761">
				<ele>1206</ele>
				<time>2018-04-28T16:37:02Z</time>
			</trkpt>
			<trkpt lat="42.986913" lon="-1.547772">
				<ele>1206</ele>
				<time>2018-04-28T16:37:06Z</time>
			</trkpt>
			<trkpt lat="42.986865" lon="-1.547791">
				<ele>1206</ele>
				<time>2018-04-28T16:37:11Z</time>
			</trkpt>
			<trkpt lat="42.986813" lon="-1.547809">
				<ele>1206</ele>
				<time>2018-04-28T16:37:16Z</time>
			</trkpt>
			<trkpt lat="42.986761" lon="-1.547805">
				<ele>1206</ele>
				<time>2018-04-28T16:37:20Z</time>
			</trkpt>
			<trkpt lat="42.986706" lon="-1.547779">
				<ele>1206</ele>
				<time>2018-04-28T16:37:23Z</time>
			</trkpt>
			<trkpt lat="42.986663" lon="-1.547752">
				<ele>1206</ele>
				<time>2018-04-28T16:37:25Z</time>
			</trkpt>
			<trkpt lat="42.986619" lon="-1.547711">
				<ele>1206</ele>
				<time>2018-04-28T16:37:27Z</time>
			</trkpt>
			<trkpt lat="42.986561" lon="-1.547684">
				<ele>1206</ele>
				<time>2018-04-28T16:37:30Z</time>
			</trkpt>
			<trkpt lat="42.986513" lon="-1.547688">
				<ele>1206</ele>
				<time>2018-04-28T16:37:33Z</time>
			</trkpt>
			<trkpt lat="42.986473" lon="-1.547655">
				<ele>1206</ele>
				<time>2018-04-28T16:37:37Z</time>
			</trkpt>
			<trkpt lat="42.986445" lon="-1.547602">
				<ele>1206</ele>
				<time>2018-04-28T16:37:39Z</time>
			</trkpt>
			<trkpt lat="42.986427" lon="-1.54754">
				<ele>1206</ele>
				<time>2018-04-28T16:37:41Z</time>
			</trkpt>
			<trkpt lat="42.98639" lon="-1.547481">
				<ele>1206</ele>
				<time>2018-04-28T16:37:44Z</time>
			</trkpt>
			<trkpt lat="42.986326" lon="-1.54744">
				<ele>1206</ele>
				<time>2018-04-28T16:37:47Z</time>
			</trkpt>
			<trkpt lat="42.986287" lon="-1.547373">
				<ele>1206</ele>
				<time>2018-04-28T16:37:50Z</time>
			</trkpt>
			<trkpt lat="42.986247" lon="-1.547342">
				<ele>1206</ele>
				<time>2018-04-28T16:37:56Z</time>
			</trkpt>
			<trkpt lat="42.986199" lon="-1.547359">
				<ele>1206</ele>
				<time>2018-04-28T16:37:59Z</time>
			</trkpt>
			<trkpt lat="42.986149" lon="-1.547345">
				<ele>1206</ele>
				<time>2018-04-28T16:38:02Z</time>
			</trkpt>
			<trkpt lat="42.986104" lon="-1.547355">
				<ele>1206</ele>
				<time>2018-04-28T16:38:04Z</time>
			</trkpt>
			<trkpt lat="42.986047" lon="-1.547345">
				<ele>1206</ele>
				<time>2018-04-28T16:38:07Z</time>
			</trkpt>
			<trkpt lat="42.986001" lon="-1.547311">
				<ele>1206</ele>
				<time>2018-04-28T16:38:10Z</time>
			</trkpt>
			<trkpt lat="42.985948" lon="-1.547321">
				<ele>1206</ele>
				<time>2018-04-28T16:38:14Z</time>
			</trkpt>
			<trkpt lat="42.98589" lon="-1.547335">
				<ele>1206</ele>
				<time>2018-04-28T16:38:18Z</time>
			</trkpt>
			<trkpt lat="42.985837" lon="-1.547342">
				<ele>1206</ele>
				<time>2018-04-28T16:38:21Z</time>
			</trkpt>
			<trkpt lat="42.985784" lon="-1.547329">
				<ele>1206</ele>
				<time>2018-04-28T16:38:24Z</time>
			</trkpt>
			<trkpt lat="42.985721" lon="-1.547321">
				<ele>1206</ele>
				<time>2018-04-28T16:38:27Z</time>
			</trkpt>
			<trkpt lat="42.985675" lon="-1.547301">
				<ele>1206</ele>
				<time>2018-04-28T16:38:30Z</time>
			</trkpt>
			<trkpt lat="42.985625" lon="-1.547324">
				<ele>1206</ele>
				<time>2018-04-28T16:38:33Z</time>
			</trkpt>
			<trkpt lat="42.985574" lon="-1.547353">
				<ele>1206</ele>
				<time>2018-04-28T16:38:36Z</time>
			</trkpt>
			<trkpt lat="42.985522" lon="-1.547386">
				<ele>1206</ele>
				<time>2018-04-28T16:38:40Z</time>
			</trkpt>
			<trkpt lat="42.98547" lon="-1.547405">
				<ele>1206</ele>
				<time>2018-04-28T16:38:44Z</time>
			</trkpt>
			<trkpt lat="42.985426" lon="-1.54745">
				<ele>1206</ele>
				<time>2018-04-28T16:38:48Z</time>
			</trkpt>
			<trkpt lat="42.985383" lon="-1.54747">
				<ele>1187</ele>
				<time>2018-04-28T16:38:53Z</time>
			</trkpt>
			<trkpt lat="42.985345" lon="-1.547518">
				<ele>1187</ele>
				<time>2018-04-28T16:38:57Z</time>
			</trkpt>
			<trkpt lat="42.985298" lon="-1.547558">
				<ele>1187</ele>
				<time>2018-04-28T16:39:03Z</time>
			</trkpt>
			<trkpt lat="42.98485" lon="-1.547746">
				<ele>1187</ele>
				<time>2018-04-28T16:39:12Z</time>
			</trkpt>
			<trkpt lat="42.984984" lon="-1.547583">
				<ele>1187</ele>
				<time>2018-04-28T16:39:13Z</time>
			</trkpt>
			<trkpt lat="42.984916" lon="-1.547585">
				<ele>1187</ele>
				<time>2018-04-28T16:39:16Z</time>
			</trkpt>
			<trkpt lat="42.984858" lon="-1.547465">
				<ele>1187</ele>
				<time>2018-04-28T16:39:20Z</time>
			</trkpt>
			<trkpt lat="42.984816" lon="-1.547529">
				<ele>1187</ele>
				<time>2018-04-28T16:39:22Z</time>
			</trkpt>
			<trkpt lat="42.984769" lon="-1.547485">
				<ele>1187</ele>
				<time>2018-04-28T16:39:30Z</time>
			</trkpt>
			<trkpt lat="42.984715" lon="-1.547467">
				<ele>1187</ele>
				<time>2018-04-28T16:39:36Z</time>
			</trkpt>
			<trkpt lat="42.98466" lon="-1.547454">
				<ele>1187</ele>
				<time>2018-04-28T16:39:40Z</time>
			</trkpt>
			<trkpt lat="42.984611" lon="-1.547461">
				<ele>1187</ele>
				<time>2018-04-28T16:39:44Z</time>
			</trkpt>
			<trkpt lat="42.984567" lon="-1.547439">
				<ele>1187</ele>
				<time>2018-04-28T16:39:51Z</time>
			</trkpt>
			<trkpt lat="42.984524" lon="-1.547422">
				<ele>1187</ele>
				<time>2018-04-28T16:39:55Z</time>
			</trkpt>
			<trkpt lat="42.984476" lon="-1.547424">
				<ele>1187</ele>
				<time>2018-04-28T16:39:57Z</time>
			</trkpt>
			<trkpt lat="42.984426" lon="-1.547403">
				<ele>1187</ele>
				<time>2018-04-28T16:40:00Z</time>
			</trkpt>
			<trkpt lat="42.984374" lon="-1.547385">
				<ele>1187</ele>
				<time>2018-04-28T16:40:03Z</time>
			</trkpt>
			<trkpt lat="42.984317" lon="-1.547378">
				<ele>1187</ele>
				<time>2018-04-28T16:40:06Z</time>
			</trkpt>
			<trkpt lat="42.984271" lon="-1.547394">
				<ele>1187</ele>
				<time>2018-04-28T16:40:09Z</time>
			</trkpt>
			<trkpt lat="42.984213" lon="-1.547367">
				<ele>1187</ele>
				<time>2018-04-28T16:40:13Z</time>
			</trkpt>
			<trkpt lat="42.984169" lon="-1.547381">
				<ele>1187</ele>
				<time>2018-04-28T16:40:16Z</time>
			</trkpt>
			<trkpt lat="42.984114" lon="-1.547386">
				<ele>1187</ele>
				<time>2018-04-28T16:40:19Z</time>
			</trkpt>
			<trkpt lat="42.984053" lon="-1.547385">
				<ele>1187</ele>
				<time>2018-04-28T16:40:22Z</time>
			</trkpt>
			<trkpt lat="42.984005" lon="-1.547376">
				<ele>1187</ele>
				<time>2018-04-28T16:40:24Z</time>
			</trkpt>
			<trkpt lat="42.983962" lon="-1.547395">
				<ele>1187</ele>
				<time>2018-04-28T16:40:26Z</time>
			</trkpt>
			<trkpt lat="42.983909" lon="-1.547374">
				<ele>1187</ele>
				<time>2018-04-28T16:40:29Z</time>
			</trkpt>
			<trkpt lat="42.983851" lon="-1.547361">
				<ele>1187</ele>
				<time>2018-04-28T16:40:33Z</time>
			</trkpt>
			<trkpt lat="42.983802" lon="-1.547373">
				<ele>1187</ele>
				<time>2018-04-28T16:40:36Z</time>
			</trkpt>
			<trkpt lat="42.983753" lon="-1.547388">
				<ele>1187</ele>
				<time>2018-04-28T16:40:39Z</time>
			</trkpt>
			<trkpt lat="42.983703" lon="-1.547398">
				<ele>1187</ele>
				<time>2018-04-28T16:40:42Z</time>
			</trkpt>
			<trkpt lat="42.983646" lon="-1.547378">
				<ele>1187</ele>
				<time>2018-04-28T16:40:45Z</time>
			</trkpt>
			<trkpt lat="42.983586" lon="-1.547358">
				<ele>1187</ele>
				<time>2018-04-28T16:40:48Z</time>
			</trkpt>
			<trkpt lat="42.983521" lon="-1.547367">
				<ele>1187</ele>
				<time>2018-04-28T16:40:52Z</time>
			</trkpt>
			<trkpt lat="42.983472" lon="-1.547333">
				<ele>1187</ele>
				<time>2018-04-28T16:40:56Z</time>
			</trkpt>
			<trkpt lat="42.983423" lon="-1.547321">
				<ele>1187</ele>
				<time>2018-04-28T16:40:59Z</time>
			</trkpt>
			<trkpt lat="42.983367" lon="-1.547326">
				<ele>1187</ele>
				<time>2018-04-28T16:41:02Z</time>
			</trkpt>
			<trkpt lat="42.983318" lon="-1.547346">
				<ele>1139</ele>
				<time>2018-04-28T16:41:04Z</time>
			</trkpt>
			<trkpt lat="42.983258" lon="-1.547308">
				<ele>1139</ele>
				<time>2018-04-28T16:41:07Z</time>
			</trkpt>
			<trkpt lat="42.983203" lon="-1.547293">
				<ele>1139</ele>
				<time>2018-04-28T16:41:10Z</time>
			</trkpt>
			<trkpt lat="42.98315" lon="-1.547278">
				<ele>1139</ele>
				<time>2018-04-28T16:41:14Z</time>
			</trkpt>
			<trkpt lat="42.983106" lon="-1.547294">
				<ele>1139</ele>
				<time>2018-04-28T16:41:49Z</time>
			</trkpt>
			<trkpt lat="42.983055" lon="-1.547285">
				<ele>1139</ele>
				<time>2018-04-28T16:41:58Z</time>
			</trkpt>
			<trkpt lat="42.983006" lon="-1.547276">
				<ele>1139</ele>
				<time>2018-04-28T16:42:02Z</time>
			</trkpt>
			<trkpt lat="42.982973" lon="-1.547326">
				<ele>1139</ele>
				<time>2018-04-28T16:42:05Z</time>
			</trkpt>
			<trkpt lat="42.982927" lon="-1.54737">
				<ele>1139</ele>
				<time>2018-04-28T16:42:09Z</time>
			</trkpt>
			<trkpt lat="42.98288" lon="-1.547362">
				<ele>1139</ele>
				<time>2018-04-28T16:42:14Z</time>
			</trkpt>
			<trkpt lat="42.98283" lon="-1.547381">
				<ele>1139</ele>
				<time>2018-04-28T16:42:17Z</time>
			</trkpt>
			<trkpt lat="42.98278" lon="-1.547386">
				<ele>1139</ele>
				<time>2018-04-28T16:42:23Z</time>
			</trkpt>
			<trkpt lat="42.982737" lon="-1.547349">
				<ele>1139</ele>
				<time>2018-04-28T16:42:26Z</time>
			</trkpt>
			<trkpt lat="42.982668" lon="-1.547344">
				<ele>1139</ele>
				<time>2018-04-28T16:42:29Z</time>
			</trkpt>
			<trkpt lat="42.982613" lon="-1.547288">
				<ele>1139</ele>
				<time>2018-04-28T16:42:32Z</time>
			</trkpt>
			<trkpt lat="42.982577" lon="-1.547245">
				<ele>1139</ele>
				<time>2018-04-28T16:42:35Z</time>
			</trkpt>
			<trkpt lat="42.982537" lon="-1.547199">
				<ele>1139</ele>
				<time>2018-04-28T16:42:38Z</time>
			</trkpt>
			<trkpt lat="42.982509" lon="-1.547135">
				<ele>1139</ele>
				<time>2018-04-28T16:42:41Z</time>
			</trkpt>
			<trkpt lat="42.982478" lon="-1.547082">
				<ele>1139</ele>
				<time>2018-04-28T16:42:44Z</time>
			</trkpt>
			<trkpt lat="42.982484" lon="-1.54702">
				<ele>1139</ele>
				<time>2018-04-28T16:42:48Z</time>
			</trkpt>
			<trkpt lat="42.982439" lon="-1.546991">
				<ele>1139</ele>
				<time>2018-04-28T16:42:54Z</time>
			</trkpt>
			<trkpt lat="42.982399" lon="-1.546941">
				<ele>1139</ele>
				<time>2018-04-28T16:42:57Z</time>
			</trkpt>
			<trkpt lat="42.982352" lon="-1.54693">
				<ele>1139</ele>
				<time>2018-04-28T16:43:01Z</time>
			</trkpt>
			<trkpt lat="42.982304" lon="-1.546887">
				<ele>1139</ele>
				<time>2018-04-28T16:43:04Z</time>
			</trkpt>
			<trkpt lat="42.982275" lon="-1.546839">
				<ele>1139</ele>
				<time>2018-04-28T16:43:07Z</time>
			</trkpt>
			<trkpt lat="42.982236" lon="-1.546887">
				<ele>1139</ele>
				<time>2018-04-28T16:43:10Z</time>
			</trkpt>
			<trkpt lat="42.982192" lon="-1.546913">
				<ele>1139</ele>
				<time>2018-04-28T16:43:14Z</time>
			</trkpt>
			<trkpt lat="42.982155" lon="-1.546872">
				<ele>1139</ele>
				<time>2018-04-28T16:43:17Z</time>
			</trkpt>
			<trkpt lat="42.982119" lon="-1.546825">
				<ele>1139</ele>
				<time>2018-04-28T16:43:21Z</time>
			</trkpt>
			<trkpt lat="42.98208" lon="-1.54677">
				<ele>1139</ele>
				<time>2018-04-28T16:43:25Z</time>
			</trkpt>
			<trkpt lat="42.982043" lon="-1.546734">
				<ele>1139</ele>
				<time>2018-04-28T16:43:28Z</time>
			</trkpt>
			<trkpt lat="42.981995" lon="-1.546735">
				<ele>1139</ele>
				<time>2018-04-28T16:43:32Z</time>
			</trkpt>
			<trkpt lat="42.981951" lon="-1.546779">
				<ele>1139</ele>
				<time>2018-04-28T16:43:38Z</time>
			</trkpt>
			<trkpt lat="42.981904" lon="-1.546826">
				<ele>1139</ele>
				<time>2018-04-28T16:43:42Z</time>
			</trkpt>
			<trkpt lat="42.98186" lon="-1.546853">
				<ele>1139</ele>
				<time>2018-04-28T16:43:45Z</time>
			</trkpt>
			<trkpt lat="42.981808" lon="-1.546859">
				<ele>1139</ele>
				<time>2018-04-28T16:43:50Z</time>
			</trkpt>
			<trkpt lat="42.98176" lon="-1.546873">
				<ele>1139</ele>
				<time>2018-04-28T16:43:55Z</time>
			</trkpt>
			<trkpt lat="42.981713" lon="-1.546897">
				<ele>1139</ele>
				<time>2018-04-28T16:43:59Z</time>
			</trkpt>
			<trkpt lat="42.981662" lon="-1.546897">
				<ele>1139</ele>
				<time>2018-04-28T16:44:08Z</time>
			</trkpt>
			<trkpt lat="42.981611" lon="-1.546852">
				<ele>1139</ele>
				<time>2018-04-28T16:44:12Z</time>
			</trkpt>
			<trkpt lat="42.981592" lon="-1.546792">
				<ele>1139</ele>
				<time>2018-04-28T16:44:14Z</time>
			</trkpt>
			<trkpt lat="42.981549" lon="-1.546751">
				<ele>1139</ele>
				<time>2018-04-28T16:44:19Z</time>
			</trkpt>
			<trkpt lat="42.981506" lon="-1.546718">
				<ele>1139</ele>
				<time>2018-04-28T16:44:23Z</time>
			</trkpt>
			<trkpt lat="42.981481" lon="-1.546655">
				<ele>1139</ele>
				<time>2018-04-28T16:44:27Z</time>
			</trkpt>
			<trkpt lat="42.981446" lon="-1.546599">
				<ele>1139</ele>
				<time>2018-04-28T16:44:30Z</time>
			</trkpt>
			<trkpt lat="42.981403" lon="-1.546575">
				<ele>1139</ele>
				<time>2018-04-28T16:44:33Z</time>
			</trkpt>
			<trkpt lat="42.981361" lon="-1.546541">
				<ele>1139</ele>
				<time>2018-04-28T16:44:37Z</time>
			</trkpt>
			<trkpt lat="42.981322" lon="-1.546503">
				<ele>1139</ele>
				<time>2018-04-28T16:44:40Z</time>
			</trkpt>
			<trkpt lat="42.981278" lon="-1.54647">
				<ele>1139</ele>
				<time>2018-04-28T16:44:44Z</time>
			</trkpt>
			<trkpt lat="42.981225" lon="-1.546427">
				<ele>1036</ele>
				<time>2018-04-28T16:44:47Z</time>
			</trkpt>
			<trkpt lat="42.981179" lon="-1.546377">
				<ele>1036</ele>
				<time>2018-04-28T16:44:51Z</time>
			</trkpt>
			<trkpt lat="42.981151" lon="-1.546329">
				<ele>1036</ele>
				<time>2018-04-28T16:44:55Z</time>
			</trkpt>
			<trkpt lat="42.9811" lon="-1.546329">
				<ele>1036</ele>
				<time>2018-04-28T16:45:00Z</time>
			</trkpt>
			<trkpt lat="42.98106" lon="-1.546374">
				<ele>1036</ele>
				<time>2018-04-28T16:45:04Z</time>
			</trkpt>
			<trkpt lat="42.981021" lon="-1.546421">
				<ele>1036</ele>
				<time>2018-04-28T16:45:09Z</time>
			</trkpt>
			<trkpt lat="42.981018" lon="-1.546493">
				<ele>1036</ele>
				<time>2018-04-28T16:45:16Z</time>
			</trkpt>
			<trkpt lat="42.98102" lon="-1.546573">
				<ele>1036</ele>
				<time>2018-04-28T16:45:20Z</time>
			</trkpt>
			<trkpt lat="42.981039" lon="-1.546633">
				<ele>1036</ele>
				<time>2018-04-28T16:45:24Z</time>
			</trkpt>
			<trkpt lat="42.981027" lon="-1.546694">
				<ele>1036</ele>
				<time>2018-04-28T16:45:28Z</time>
			</trkpt>
			<trkpt lat="42.98101" lon="-1.546754">
				<ele>1036</ele>
				<time>2018-04-28T16:45:31Z</time>
			</trkpt>
			<trkpt lat="42.980999" lon="-1.546827">
				<ele>1036</ele>
				<time>2018-04-28T16:45:36Z</time>
			</trkpt>
			<trkpt lat="42.980999" lon="-1.546902">
				<ele>1036</ele>
				<time>2018-04-28T16:45:43Z</time>
			</trkpt>
			<trkpt lat="42.980987" lon="-1.546973">
				<ele>1036</ele>
				<time>2018-04-28T16:45:58Z</time>
			</trkpt>
			<trkpt lat="42.98097" lon="-1.54704">
				<ele>1036</ele>
				<time>2018-04-28T16:46:03Z</time>
			</trkpt>
			<trkpt lat="42.980965" lon="-1.547115">
				<ele>1036</ele>
				<time>2018-04-28T16:46:07Z</time>
			</trkpt>
			<trkpt lat="42.980962" lon="-1.547198">
				<ele>1036</ele>
				<time>2018-04-28T16:46:12Z</time>
			</trkpt>
			<trkpt lat="42.980914" lon="-1.54721">
				<ele>1036</ele>
				<time>2018-04-28T16:46:20Z</time>
			</trkpt>
			<trkpt lat="42.980891" lon="-1.547138">
				<ele>1036</ele>
				<time>2018-04-28T16:46:24Z</time>
			</trkpt>
			<trkpt lat="42.980846" lon="-1.547119">
				<ele>1036</ele>
				<time>2018-04-28T16:46:32Z</time>
			</trkpt>
			<trkpt lat="42.980812" lon="-1.547059">
				<ele>1036</ele>
				<time>2018-04-28T16:46:39Z</time>
			</trkpt>
			<trkpt lat="42.98077" lon="-1.54702">
				<ele>1036</ele>
				<time>2018-04-28T16:46:42Z</time>
			</trkpt>
			<trkpt lat="42.980736" lon="-1.546959">
				<ele>1036</ele>
				<time>2018-04-28T16:46:47Z</time>
			</trkpt>
			<trkpt lat="42.980699" lon="-1.546918">
				<ele>1036</ele>
				<time>2018-04-28T16:46:51Z</time>
			</trkpt>
			<trkpt lat="42.980664" lon="-1.546876">
				<ele>1036</ele>
				<time>2018-04-28T16:46:54Z</time>
			</trkpt>
			<trkpt lat="42.980632" lon="-1.54683">
				<ele>1036</ele>
				<time>2018-04-28T16:46:59Z</time>
			</trkpt>
			<trkpt lat="42.980595" lon="-1.546769">
				<ele>1036</ele>
				<time>2018-04-28T16:47:04Z</time>
			</trkpt>
			<trkpt lat="42.980567" lon="-1.546713">
				<ele>1036</ele>
				<time>2018-04-28T16:47:07Z</time>
			</trkpt>
			<trkpt lat="42.980527" lon="-1.546661">
				<ele>1036</ele>
				<time>2018-04-28T16:47:12Z</time>
			</trkpt>
			<trkpt lat="42.980502" lon="-1.546608">
				<ele>1036</ele>
				<time>2018-04-28T16:47:17Z</time>
			</trkpt>
			<trkpt lat="42.980475" lon="-1.546546">
				<ele>1036</ele>
				<time>2018-04-28T16:47:20Z</time>
			</trkpt>
			<trkpt lat="42.980467" lon="-1.546479">
				<ele>1036</ele>
				<time>2018-04-28T16:47:24Z</time>
			</trkpt>
			<trkpt lat="42.980434" lon="-1.546425">
				<ele>1036</ele>
				<time>2018-04-28T16:47:28Z</time>
			</trkpt>
			<trkpt lat="42.980411" lon="-1.546365">
				<ele>1036</ele>
				<time>2018-04-28T16:47:31Z</time>
			</trkpt>
			<trkpt lat="42.980378" lon="-1.546302">
				<ele>1036</ele>
				<time>2018-04-28T16:47:36Z</time>
			</trkpt>
			<trkpt lat="42.980332" lon="-1.546271">
				<ele>1036</ele>
				<time>2018-04-28T16:47:41Z</time>
			</trkpt>
			<trkpt lat="42.980301" lon="-1.546211">
				<ele>1036</ele>
				<time>2018-04-28T16:47:45Z</time>
			</trkpt>
			<trkpt lat="42.980276" lon="-1.546138">
				<ele>1036</ele>
				<time>2018-04-28T16:47:53Z</time>
			</trkpt>
			<trkpt lat="42.980268" lon="-1.546074">
				<ele>1036</ele>
				<time>2018-04-28T16:48:00Z</time>
			</trkpt>
			<trkpt lat="42.980241" lon="-1.546011">
				<ele>1036</ele>
				<time>2018-04-28T16:48:04Z</time>
			</trkpt>
			<trkpt lat="42.980209" lon="-1.545954">
				<ele>1036</ele>
				<time>2018-04-28T16:48:09Z</time>
			</trkpt>
			<trkpt lat="42.980166" lon="-1.545892">
				<ele>1036</ele>
				<time>2018-04-28T16:48:21Z</time>
			</trkpt>
			<trkpt lat="42.980136" lon="-1.545838">
				<ele>1036</ele>
				<time>2018-04-28T16:48:24Z</time>
			</trkpt>
			<trkpt lat="42.980098" lon="-1.545791">
				<ele>1029</ele>
				<time>2018-04-28T16:48:27Z</time>
			</trkpt>
			<trkpt lat="42.980059" lon="-1.545752">
				<ele>1029</ele>
				<time>2018-04-28T16:48:30Z</time>
			</trkpt>
			<trkpt lat="42.980024" lon="-1.545704">
				<ele>1029</ele>
				<time>2018-04-28T16:48:33Z</time>
			</trkpt>
			<trkpt lat="42.980001" lon="-1.545642">
				<ele>1029</ele>
				<time>2018-04-28T16:48:44Z</time>
			</trkpt>
			<trkpt lat="42.979986" lon="-1.545583">
				<ele>1029</ele>
				<time>2018-04-28T16:48:52Z</time>
			</trkpt>
			<trkpt lat="42.979938" lon="-1.545551">
				<ele>1029</ele>
				<time>2018-04-28T16:48:59Z</time>
			</trkpt>
			<trkpt lat="42.979899" lon="-1.545519">
				<ele>1029</ele>
				<time>2018-04-28T16:49:07Z</time>
			</trkpt>
			<trkpt lat="42.97985" lon="-1.545486">
				<ele>1029</ele>
				<time>2018-04-28T16:49:14Z</time>
			</trkpt>
			<trkpt lat="42.979812" lon="-1.54545">
				<ele>1029</ele>
				<time>2018-04-28T16:49:21Z</time>
			</trkpt>
			<trkpt lat="42.979778" lon="-1.545406">
				<ele>1029</ele>
				<time>2018-04-28T16:49:26Z</time>
			</trkpt>
			<trkpt lat="42.979765" lon="-1.545347">
				<ele>1029</ele>
				<time>2018-04-28T16:49:31Z</time>
			</trkpt>
			<trkpt lat="42.979747" lon="-1.545275">
				<ele>1029</ele>
				<time>2018-04-28T16:49:37Z</time>
			</trkpt>
			<trkpt lat="42.979744" lon="-1.545209">
				<ele>1029</ele>
				<time>2018-04-28T16:49:42Z</time>
			</trkpt>
			<trkpt lat="42.979739" lon="-1.545144">
				<ele>1029</ele>
				<time>2018-04-28T16:49:47Z</time>
			</trkpt>
			<trkpt lat="42.979722" lon="-1.545086">
				<ele>1029</ele>
				<time>2018-04-28T16:49:51Z</time>
			</trkpt>
			<trkpt lat="42.979705" lon="-1.545029">
				<ele>1029</ele>
				<time>2018-04-28T16:49:59Z</time>
			</trkpt>
			<trkpt lat="42.979721" lon="-1.544965">
				<ele>1029</ele>
				<time>2018-04-28T16:50:04Z</time>
			</trkpt>
			<trkpt lat="42.979725" lon="-1.544899">
				<ele>1029</ele>
				<time>2018-04-28T16:50:12Z</time>
			</trkpt>
			<trkpt lat="42.979676" lon="-1.544885">
				<ele>1029</ele>
				<time>2018-04-28T16:50:19Z</time>
			</trkpt>
			<trkpt lat="42.979625" lon="-1.544899">
				<ele>1029</ele>
				<time>2018-04-28T16:50:23Z</time>
			</trkpt>
			<trkpt lat="42.979579" lon="-1.544892">
				<ele>1029</ele>
				<time>2018-04-28T16:50:26Z</time>
			</trkpt>
			<trkpt lat="42.979527" lon="-1.544906">
				<ele>1029</ele>
				<time>2018-04-28T16:50:31Z</time>
			</trkpt>
			<trkpt lat="42.97948" lon="-1.544922">
				<ele>1029</ele>
				<time>2018-04-28T16:50:35Z</time>
			</trkpt>
			<trkpt lat="42.979423" lon="-1.544946">
				<ele>1029</ele>
				<time>2018-04-28T16:50:44Z</time>
			</trkpt>
			<trkpt lat="42.979367" lon="-1.544921">
				<ele>1029</ele>
				<time>2018-04-28T16:50:48Z</time>
			</trkpt>
			<trkpt lat="42.979315" lon="-1.544894">
				<ele>1029</ele>
				<time>2018-04-28T16:50:52Z</time>
			</trkpt>
			<trkpt lat="42.979281" lon="-1.544852">
				<ele>1029</ele>
				<time>2018-04-28T16:50:57Z</time>
			</trkpt>
			<trkpt lat="42.979232" lon="-1.544823">
				<ele>1029</ele>
				<time>2018-04-28T16:51:04Z</time>
			</trkpt>
			<trkpt lat="42.979204" lon="-1.544774">
				<ele>1029</ele>
				<time>2018-04-28T16:51:11Z</time>
			</trkpt>
			<trkpt lat="42.979191" lon="-1.544688">
				<ele>1029</ele>
				<time>2018-04-28T16:51:16Z</time>
			</trkpt>
			<trkpt lat="42.979194" lon="-1.544623">
				<ele>1029</ele>
				<time>2018-04-28T16:51:21Z</time>
			</trkpt>
			<trkpt lat="42.979183" lon="-1.544562">
				<ele>1029</ele>
				<time>2018-04-28T16:51:25Z</time>
			</trkpt>
			<trkpt lat="42.979159" lon="-1.544503">
				<ele>918</ele>
				<time>2018-04-28T16:51:31Z</time>
			</trkpt>
			<trkpt lat="42.979152" lon="-1.544425">
				<ele>918</ele>
				<time>2018-04-28T16:51:35Z</time>
			</trkpt>
			<trkpt lat="42.979135" lon="-1.544361">
				<ele>918</ele>
				<time>2018-04-28T16:51:39Z</time>
			</trkpt>
			<trkpt lat="42.979093" lon="-1.54431">
				<ele>918</ele>
				<time>2018-04-28T16:51:44Z</time>
			</trkpt>
			<trkpt lat="42.97905" lon="-1.544267">
				<ele>918</ele>
				<time>2018-04-28T16:51:48Z</time>
			</trkpt>
			<trkpt lat="42.979011" lon="-1.544219">
				<ele>918</ele>
				<time>2018-04-28T16:51:52Z</time>
			</trkpt>
			<trkpt lat="42.978998" lon="-1.544155">
				<ele>918</ele>
				<time>2018-04-28T16:51:56Z</time>
			</trkpt>
			<trkpt lat="42.978968" lon="-1.544103">
				<ele>918</ele>
				<time>2018-04-28T16:52:01Z</time>
			</trkpt>
			<trkpt lat="42.978943" lon="-1.544044">
				<ele>918</ele>
				<time>2018-04-28T16:52:05Z</time>
			</trkpt>
			<trkpt lat="42.978908" lon="-1.543991">
				<ele>918</ele>
				<time>2018-04-28T16:52:09Z</time>
			</trkpt>
			<trkpt lat="42.978865" lon="-1.543945">
				<ele>918</ele>
				<time>2018-04-28T16:52:12Z</time>
			</trkpt>
			<trkpt lat="42.978812" lon="-1.543955">
				<ele>918</ele>
				<time>2018-04-28T16:52:17Z</time>
			</trkpt>
			<trkpt lat="42.978769" lon="-1.543976">
				<ele>918</ele>
				<time>2018-04-28T16:52:21Z</time>
			</trkpt>
			<trkpt lat="42.978753" lon="-1.544035">
				<ele>918</ele>
				<time>2018-04-28T16:52:24Z</time>
			</trkpt>
			<trkpt lat="42.978714" lon="-1.544087">
				<ele>918</ele>
				<time>2018-04-28T16:52:28Z</time>
			</trkpt>
			<trkpt lat="42.978678" lon="-1.544148">
				<ele>918</ele>
				<time>2018-04-28T16:52:32Z</time>
			</trkpt>
			<trkpt lat="42.978642" lon="-1.544199">
				<ele>918</ele>
				<time>2018-04-28T16:52:36Z</time>
			</trkpt>
			<trkpt lat="42.978621" lon="-1.54426">
				<ele>918</ele>
				<time>2018-04-28T16:52:39Z</time>
			</trkpt>
			<trkpt lat="42.978581" lon="-1.544317">
				<ele>918</ele>
				<time>2018-04-28T16:52:43Z</time>
			</trkpt>
			<trkpt lat="42.978562" lon="-1.544375">
				<ele>918</ele>
				<time>2018-04-28T16:52:47Z</time>
			</trkpt>
			<trkpt lat="42.978554" lon="-1.544444">
				<ele>918</ele>
				<time>2018-04-28T16:52:51Z</time>
			</trkpt>
			<trkpt lat="42.978519" lon="-1.544493">
				<ele>918</ele>
				<time>2018-04-28T16:52:54Z</time>
			</trkpt>
			<trkpt lat="42.978488" lon="-1.544558">
				<ele>918</ele>
				<time>2018-04-28T16:52:57Z</time>
			</trkpt>
			<trkpt lat="42.97847" lon="-1.544641">
				<ele>918</ele>
				<time>2018-04-28T16:53:02Z</time>
			</trkpt>
			<trkpt lat="42.978443" lon="-1.544705">
				<ele>918</ele>
				<time>2018-04-28T16:53:07Z</time>
			</trkpt>
			<trkpt lat="42.978411" lon="-1.544766">
				<ele>918</ele>
				<time>2018-04-28T16:53:10Z</time>
			</trkpt>
			<trkpt lat="42.978393" lon="-1.544834">
				<ele>918</ele>
				<time>2018-04-28T16:53:15Z</time>
			</trkpt>
			<trkpt lat="42.978367" lon="-1.544905">
				<ele>918</ele>
				<time>2018-04-28T16:53:19Z</time>
			</trkpt>
			<trkpt lat="42.978346" lon="-1.544964">
				<ele>918</ele>
				<time>2018-04-28T16:53:22Z</time>
			</trkpt>
			<trkpt lat="42.978319" lon="-1.545021">
				<ele>918</ele>
				<time>2018-04-28T16:53:25Z</time>
			</trkpt>
			<trkpt lat="42.978283" lon="-1.545093">
				<ele>918</ele>
				<time>2018-04-28T16:53:29Z</time>
			</trkpt>
			<trkpt lat="42.978272" lon="-1.545167">
				<ele>918</ele>
				<time>2018-04-28T16:53:32Z</time>
			</trkpt>
			<trkpt lat="42.978249" lon="-1.545232">
				<ele>918</ele>
				<time>2018-04-28T16:53:36Z</time>
			</trkpt>
			<trkpt lat="42.978224" lon="-1.545293">
				<ele>918</ele>
				<time>2018-04-28T16:53:39Z</time>
			</trkpt>
			<trkpt lat="42.978199" lon="-1.545359">
				<ele>918</ele>
				<time>2018-04-28T16:53:42Z</time>
			</trkpt>
			<trkpt lat="42.978174" lon="-1.545419">
				<ele>918</ele>
				<time>2018-04-28T16:53:45Z</time>
			</trkpt>
			<trkpt lat="42.978147" lon="-1.545472">
				<ele>918</ele>
				<time>2018-04-28T16:53:48Z</time>
			</trkpt>
			<trkpt lat="42.978116" lon="-1.54555">
				<ele>918</ele>
				<time>2018-04-28T16:53:52Z</time>
			</trkpt>
			<trkpt lat="42.978085" lon="-1.545613">
				<ele>918</ele>
				<time>2018-04-28T16:53:55Z</time>
			</trkpt>
			<trkpt lat="42.978064" lon="-1.545667">
				<ele>918</ele>
				<time>2018-04-28T16:53:58Z</time>
			</trkpt>
			<trkpt lat="42.978036" lon="-1.545729">
				<ele>918</ele>
				<time>2018-04-28T16:54:00Z</time>
			</trkpt>
			<trkpt lat="42.978009" lon="-1.545787">
				<ele>918</ele>
				<time>2018-04-28T16:54:03Z</time>
			</trkpt>
			<trkpt lat="42.977961" lon="-1.545849">
				<ele>910</ele>
				<time>2018-04-28T16:54:07Z</time>
			</trkpt>
			<trkpt lat="42.97793" lon="-1.545894">
				<ele>910</ele>
				<time>2018-04-28T16:54:10Z</time>
			</trkpt>
			<trkpt lat="42.977892" lon="-1.545939">
				<ele>910</ele>
				<time>2018-04-28T16:54:13Z</time>
			</trkpt>
			<trkpt lat="42.977864" lon="-1.545989">
				<ele>910</ele>
				<time>2018-04-28T16:54:16Z</time>
			</trkpt>
			<trkpt lat="42.97783" lon="-1.54604">
				<ele>910</ele>
				<time>2018-04-28T16:54:19Z</time>
			</trkpt>
			<trkpt lat="42.977792" lon="-1.546105">
				<ele>910</ele>
				<time>2018-04-28T16:54:22Z</time>
			</trkpt>
			<trkpt lat="42.97775" lon="-1.546153">
				<ele>910</ele>
				<time>2018-04-28T16:54:24Z</time>
			</trkpt>
			<trkpt lat="42.97773" lon="-1.546215">
				<ele>910</ele>
				<time>2018-04-28T16:54:38Z</time>
			</trkpt>
			<trkpt lat="42.977695" lon="-1.546254">
				<ele>910</ele>
				<time>2018-04-28T16:54:44Z</time>
			</trkpt>
			<trkpt lat="42.977653" lon="-1.546315">
				<ele>910</ele>
				<time>2018-04-28T16:54:48Z</time>
			</trkpt>
			<trkpt lat="42.97761" lon="-1.546356">
				<ele>910</ele>
				<time>2018-04-28T16:54:52Z</time>
			</trkpt>
			<trkpt lat="42.977565" lon="-1.546408">
				<ele>910</ele>
				<time>2018-04-28T16:54:56Z</time>
			</trkpt>
			<trkpt lat="42.977528" lon="-1.546454">
				<ele>910</ele>
				<time>2018-04-28T16:55:00Z</time>
			</trkpt>
			<trkpt lat="42.977487" lon="-1.546496">
				<ele>910</ele>
				<time>2018-04-28T16:55:04Z</time>
			</trkpt>
			<trkpt lat="42.977447" lon="-1.546534">
				<ele>910</ele>
				<time>2018-04-28T16:55:10Z</time>
			</trkpt>
			<trkpt lat="42.977424" lon="-1.546589">
				<ele>910</ele>
				<time>2018-04-28T16:55:19Z</time>
			</trkpt>
			<trkpt lat="42.977392" lon="-1.54664">
				<ele>910</ele>
				<time>2018-04-28T16:55:50Z</time>
			</trkpt>
			<trkpt lat="42.977354" lon="-1.546673">
				<ele>910</ele>
				<time>2018-04-28T16:56:37Z</time>
			</trkpt>
			<trkpt lat="42.977331" lon="-1.546729">
				<ele>910</ele>
				<time>2018-04-28T16:56:42Z</time>
			</trkpt>
			<trkpt lat="42.977311" lon="-1.546785">
				<ele>910</ele>
				<time>2018-04-28T16:56:50Z</time>
			</trkpt>
			<trkpt lat="42.977284" lon="-1.546846">
				<ele>910</ele>
				<time>2018-04-28T16:56:58Z</time>
			</trkpt>
			<trkpt lat="42.977272" lon="-1.546912">
				<ele>910</ele>
				<time>2018-04-28T16:57:01Z</time>
			</trkpt>
			<trkpt lat="42.977239" lon="-1.546962">
				<ele>910</ele>
				<time>2018-04-28T16:57:04Z</time>
			</trkpt>
			<trkpt lat="42.977227" lon="-1.547025">
				<ele>910</ele>
				<time>2018-04-28T16:57:09Z</time>
			</trkpt>
			<trkpt lat="42.977218" lon="-1.547087">
				<ele>910</ele>
				<time>2018-04-28T16:57:14Z</time>
			</trkpt>
			<trkpt lat="42.977245" lon="-1.547173">
				<ele>910</ele>
				<time>2018-04-28T16:57:17Z</time>
			</trkpt>
			<trkpt lat="42.977255" lon="-1.547234">
				<ele>910</ele>
				<time>2018-04-28T16:57:21Z</time>
			</trkpt>
			<trkpt lat="42.977265" lon="-1.547305">
				<ele>910</ele>
				<time>2018-04-28T16:57:25Z</time>
			</trkpt>
			<trkpt lat="42.977224" lon="-1.547352">
				<ele>910</ele>
				<time>2018-04-28T16:57:29Z</time>
			</trkpt>
			<trkpt lat="42.977205" lon="-1.547418">
				<ele>910</ele>
				<time>2018-04-28T16:57:35Z</time>
			</trkpt>
			<trkpt lat="42.9772" lon="-1.547488">
				<ele>910</ele>
				<time>2018-04-28T16:57:38Z</time>
			</trkpt>
			<trkpt lat="42.977193" lon="-1.547568">
				<ele>910</ele>
				<time>2018-04-28T16:57:42Z</time>
			</trkpt>
			<trkpt lat="42.977183" lon="-1.547644">
				<ele>910</ele>
				<time>2018-04-28T16:57:47Z</time>
			</trkpt>
			<trkpt lat="42.977182" lon="-1.547707">
				<ele>910</ele>
				<time>2018-04-28T16:57:49Z</time>
			</trkpt>
			<trkpt lat="42.977191" lon="-1.547772">
				<ele>910</ele>
				<time>2018-04-28T16:57:52Z</time>
			</trkpt>
			<trkpt lat="42.977197" lon="-1.547839">
				<ele>910</ele>
				<time>2018-04-28T16:57:56Z</time>
			</trkpt>
			<trkpt lat="42.977194" lon="-1.547908">
				<ele>910</ele>
				<time>2018-04-28T16:58:01Z</time>
			</trkpt>
			<trkpt lat="42.977168" lon="-1.547986">
				<ele>893</ele>
				<time>2018-04-28T16:58:06Z</time>
			</trkpt>
			<trkpt lat="42.977166" lon="-1.548053">
				<ele>893</ele>
				<time>2018-04-28T16:58:10Z</time>
			</trkpt>
			<trkpt lat="42.977165" lon="-1.548116">
				<ele>893</ele>
				<time>2018-04-28T16:58:12Z</time>
			</trkpt>
			<trkpt lat="42.977147" lon="-1.548181">
				<ele>893</ele>
				<time>2018-04-28T16:58:15Z</time>
			</trkpt>
			<trkpt lat="42.977118" lon="-1.548231">
				<ele>893</ele>
				<time>2018-04-28T16:58:20Z</time>
			</trkpt>
			<trkpt lat="42.977113" lon="-1.5483">
				<ele>893</ele>
				<time>2018-04-28T16:58:25Z</time>
			</trkpt>
			<trkpt lat="42.97711" lon="-1.548378">
				<ele>893</ele>
				<time>2018-04-28T16:58:29Z</time>
			</trkpt>
			<trkpt lat="42.977094" lon="-1.548438">
				<ele>893</ele>
				<time>2018-04-28T16:58:31Z</time>
			</trkpt>
			<trkpt lat="42.977082" lon="-1.548512">
				<ele>815</ele>
				<time>2018-04-28T16:58:35Z</time>
			</trkpt>
			<trkpt lat="42.977061" lon="-1.548577">
				<ele>815</ele>
				<time>2018-04-28T16:58:40Z</time>
			</trkpt>
			<trkpt lat="42.977057" lon="-1.548686">
				<ele>815</ele>
				<time>2018-04-28T16:58:44Z</time>
			</trkpt>
			<trkpt lat="42.977033" lon="-1.548747">
				<ele>815</ele>
				<time>2018-04-28T16:58:45Z</time>
			</trkpt>
			<trkpt lat="42.977016" lon="-1.548813">
				<ele>815</ele>
				<time>2018-04-28T16:58:48Z</time>
			</trkpt>
			<trkpt lat="42.976982" lon="-1.548866">
				<ele>815</ele>
				<time>2018-04-28T16:58:51Z</time>
			</trkpt>
			<trkpt lat="42.97695" lon="-1.548925">
				<ele>815</ele>
				<time>2018-04-28T16:58:53Z</time>
			</trkpt>
			<trkpt lat="42.97692" lon="-1.548996">
				<ele>815</ele>
				<time>2018-04-28T16:58:56Z</time>
			</trkpt>
			<trkpt lat="42.976867" lon="-1.54903">
				<ele>815</ele>
				<time>2018-04-28T16:59:00Z</time>
			</trkpt>
			<trkpt lat="42.976819" lon="-1.549051">
				<ele>815</ele>
				<time>2018-04-28T16:59:02Z</time>
			</trkpt>
			<trkpt lat="42.976771" lon="-1.549042">
				<ele>815</ele>
				<time>2018-04-28T16:59:04Z</time>
			</trkpt>
			<trkpt lat="42.976721" lon="-1.549022">
				<ele>815</ele>
				<time>2018-04-28T16:59:08Z</time>
			</trkpt>
			<trkpt lat="42.976678" lon="-1.549002">
				<ele>815</ele>
				<time>2018-04-28T16:59:12Z</time>
			</trkpt>
			<trkpt lat="42.976633" lon="-1.549031">
				<ele>815</ele>
				<time>2018-04-28T16:59:15Z</time>
			</trkpt>
			<trkpt lat="42.976583" lon="-1.54903">
				<ele>815</ele>
				<time>2018-04-28T16:59:18Z</time>
			</trkpt>
			<trkpt lat="42.976525" lon="-1.549003">
				<ele>815</ele>
				<time>2018-04-28T16:59:22Z</time>
			</trkpt>
			<trkpt lat="42.976493" lon="-1.548951">
				<ele>815</ele>
				<time>2018-04-28T16:59:25Z</time>
			</trkpt>
			<trkpt lat="42.976455" lon="-1.548917">
				<ele>815</ele>
				<time>2018-04-28T16:59:28Z</time>
			</trkpt>
			<trkpt lat="42.976416" lon="-1.548869">
				<ele>815</ele>
				<time>2018-04-28T16:59:31Z</time>
			</trkpt>
			<trkpt lat="42.976373" lon="-1.548831">
				<ele>815</ele>
				<time>2018-04-28T16:59:34Z</time>
			</trkpt>
			<trkpt lat="42.976324" lon="-1.548851">
				<ele>815</ele>
				<time>2018-04-28T16:59:37Z</time>
			</trkpt>
			<trkpt lat="42.976268" lon="-1.548875">
				<ele>815</ele>
				<time>2018-04-28T16:59:41Z</time>
			</trkpt>
			<trkpt lat="42.976256" lon="-1.548936">
				<ele>815</ele>
				<time>2018-04-28T16:59:44Z</time>
			</trkpt>
			<trkpt lat="42.976243" lon="-1.549008">
				<ele>815</ele>
				<time>2018-04-28T16:59:47Z</time>
			</trkpt>
			<trkpt lat="42.976239" lon="-1.549085">
				<ele>815</ele>
				<time>2018-04-28T16:59:51Z</time>
			</trkpt>
			<trkpt lat="42.97625" lon="-1.549161">
				<ele>815</ele>
				<time>2018-04-28T16:59:53Z</time>
			</trkpt>
			<trkpt lat="42.97623" lon="-1.549229">
				<ele>815</ele>
				<time>2018-04-28T16:59:56Z</time>
			</trkpt>
			<trkpt lat="42.976184" lon="-1.549262">
				<ele>815</ele>
				<time>2018-04-28T17:00:01Z</time>
			</trkpt>
			<trkpt lat="42.976139" lon="-1.549203">
				<ele>815</ele>
				<time>2018-04-28T17:00:06Z</time>
			</trkpt>
			<trkpt lat="42.976098" lon="-1.549158">
				<ele>815</ele>
				<time>2018-04-28T17:00:09Z</time>
			</trkpt>
			<trkpt lat="42.976059" lon="-1.549111">
				<ele>815</ele>
				<time>2018-04-28T17:00:14Z</time>
			</trkpt>
			<trkpt lat="42.976013" lon="-1.549082">
				<ele>815</ele>
				<time>2018-04-28T17:00:17Z</time>
			</trkpt>
			<trkpt lat="42.975967" lon="-1.549066">
				<ele>815</ele>
				<time>2018-04-28T17:00:20Z</time>
			</trkpt>
			<trkpt lat="42.975912" lon="-1.549036">
				<ele>815</ele>
				<time>2018-04-28T17:00:24Z</time>
			</trkpt>
			<trkpt lat="42.975878" lon="-1.548994">
				<ele>815</ele>
				<time>2018-04-28T17:00:27Z</time>
			</trkpt>
			<trkpt lat="42.975831" lon="-1.548989">
				<ele>815</ele>
				<time>2018-04-28T17:00:32Z</time>
			</trkpt>
			<trkpt lat="42.97578" lon="-1.549011">
				<ele>815</ele>
				<time>2018-04-28T17:00:36Z</time>
			</trkpt>
			<trkpt lat="42.975731" lon="-1.549009">
				<ele>815</ele>
				<time>2018-04-28T17:00:38Z</time>
			</trkpt>
			<trkpt lat="42.975702" lon="-1.549056">
				<ele>815</ele>
				<time>2018-04-28T17:00:40Z</time>
			</trkpt>
			<trkpt lat="42.975663" lon="-1.549119">
				<ele>815</ele>
				<time>2018-04-28T17:00:43Z</time>
			</trkpt>
			<trkpt lat="42.975611" lon="-1.549155">
				<ele>815</ele>
				<time>2018-04-28T17:00:46Z</time>
			</trkpt>
			<trkpt lat="42.975568" lon="-1.549205">
				<ele>815</ele>
				<time>2018-04-28T17:00:50Z</time>
			</trkpt>
			<trkpt lat="42.975524" lon="-1.549248">
				<ele>815</ele>
				<time>2018-04-28T17:00:54Z</time>
			</trkpt>
			<trkpt lat="42.975475" lon="-1.549249">
				<ele>815</ele>
				<time>2018-04-28T17:00:57Z</time>
			</trkpt>
			<trkpt lat="42.975426" lon="-1.549286">
				<ele>815</ele>
				<time>2018-04-28T17:01:00Z</time>
			</trkpt>
			<trkpt lat="42.975363" lon="-1.549293">
				<ele>815</ele>
				<time>2018-04-28T17:01:04Z</time>
			</trkpt>
			<trkpt lat="42.975322" lon="-1.549264">
				<ele>815</ele>
				<time>2018-04-28T17:01:07Z</time>
			</trkpt>
			<trkpt lat="42.975274" lon="-1.549224">
				<ele>815</ele>
				<time>2018-04-28T17:01:10Z</time>
			</trkpt>
			<trkpt lat="42.975225" lon="-1.549229">
				<ele>815</ele>
				<time>2018-04-28T17:01:15Z</time>
			</trkpt>
			<trkpt lat="42.975181" lon="-1.549256">
				<ele>815</ele>
				<time>2018-04-28T17:01:19Z</time>
			</trkpt>
			<trkpt lat="42.975127" lon="-1.549255">
				<ele>815</ele>
				<time>2018-04-28T17:01:22Z</time>
			</trkpt>
			<trkpt lat="42.975079" lon="-1.549292">
				<ele>815</ele>
				<time>2018-04-28T17:01:28Z</time>
			</trkpt>
			<trkpt lat="42.975033" lon="-1.549321">
				<ele>815</ele>
				<time>2018-04-28T17:01:31Z</time>
			</trkpt>
			<trkpt lat="42.974974" lon="-1.549359">
				<ele>754</ele>
				<time>2018-04-28T17:01:34Z</time>
			</trkpt>
			<trkpt lat="42.974912" lon="-1.549372">
				<ele>754</ele>
				<time>2018-04-28T17:01:39Z</time>
			</trkpt>
			<trkpt lat="42.974859" lon="-1.549397">
				<ele>754</ele>
				<time>2018-04-28T17:01:41Z</time>
			</trkpt>
			<trkpt lat="42.974802" lon="-1.549382">
				<ele>754</ele>
				<time>2018-04-28T17:01:45Z</time>
			</trkpt>
			<trkpt lat="42.974744" lon="-1.549406">
				<ele>754</ele>
				<time>2018-04-28T17:01:48Z</time>
			</trkpt>
			<trkpt lat="42.974699" lon="-1.549356">
				<ele>754</ele>
				<time>2018-04-28T17:01:52Z</time>
			</trkpt>
			<trkpt lat="42.974657" lon="-1.549327">
				<ele>754</ele>
				<time>2018-04-28T17:01:56Z</time>
			</trkpt>
			<trkpt lat="42.974603" lon="-1.549312">
				<ele>754</ele>
				<time>2018-04-28T17:02:00Z</time>
			</trkpt>
			<trkpt lat="42.974555" lon="-1.549336">
				<ele>754</ele>
				<time>2018-04-28T17:02:03Z</time>
			</trkpt>
			<trkpt lat="42.974498" lon="-1.549347">
				<ele>754</ele>
				<time>2018-04-28T17:02:09Z</time>
			</trkpt>
			<trkpt lat="42.974439" lon="-1.549368">
				<ele>754</ele>
				<time>2018-04-28T17:02:12Z</time>
			</trkpt>
			<trkpt lat="42.974381" lon="-1.5494">
				<ele>754</ele>
				<time>2018-04-28T17:02:16Z</time>
			</trkpt>
			<trkpt lat="42.974331" lon="-1.54945">
				<ele>754</ele>
				<time>2018-04-28T17:02:20Z</time>
			</trkpt>
			<trkpt lat="42.974332" lon="-1.549524">
				<ele>754</ele>
				<time>2018-04-28T17:02:23Z</time>
			</trkpt>
			<trkpt lat="42.974322" lon="-1.549588">
				<ele>754</ele>
				<time>2018-04-28T17:02:26Z</time>
			</trkpt>
			<trkpt lat="42.974316" lon="-1.549652">
				<ele>754</ele>
				<time>2018-04-28T17:02:29Z</time>
			</trkpt>
			<trkpt lat="42.974266" lon="-1.54969">
				<ele>754</ele>
				<time>2018-04-28T17:02:34Z</time>
			</trkpt>
			<trkpt lat="42.974214" lon="-1.549668">
				<ele>754</ele>
				<time>2018-04-28T17:02:38Z</time>
			</trkpt>
			<trkpt lat="42.97417" lon="-1.549624">
				<ele>754</ele>
				<time>2018-04-28T17:02:43Z</time>
			</trkpt>
			<trkpt lat="42.974128" lon="-1.549598">
				<ele>754</ele>
				<time>2018-04-28T17:02:48Z</time>
			</trkpt>
			<trkpt lat="42.974082" lon="-1.54959">
				<ele>754</ele>
				<time>2018-04-28T17:02:51Z</time>
			</trkpt>
			<trkpt lat="42.974024" lon="-1.54956">
				<ele>754</ele>
				<time>2018-04-28T17:02:53Z</time>
			</trkpt>
			<trkpt lat="42.974001" lon="-1.549499">
				<ele>754</ele>
				<time>2018-04-28T17:02:59Z</time>
			</trkpt>
			<trkpt lat="42.973965" lon="-1.549446">
				<ele>754</ele>
				<time>2018-04-28T17:03:04Z</time>
			</trkpt>
			<trkpt lat="42.973928" lon="-1.549377">
				<ele>754</ele>
				<time>2018-04-28T17:03:08Z</time>
			</trkpt>
			<trkpt lat="42.9739" lon="-1.549315">
				<ele>754</ele>
				<time>2018-04-28T17:03:14Z</time>
			</trkpt>
			<trkpt lat="42.973895" lon="-1.549251">
				<ele>754</ele>
				<time>2018-04-28T17:03:20Z</time>
			</trkpt>
			<trkpt lat="42.973851" lon="-1.549193">
				<ele>754</ele>
				<time>2018-04-28T17:03:24Z</time>
			</trkpt>
			<trkpt lat="42.97383" lon="-1.549113">
				<ele>754</ele>
				<time>2018-04-28T17:03:27Z</time>
			</trkpt>
			<trkpt lat="42.97379" lon="-1.549061">
				<ele>754</ele>
				<time>2018-04-28T17:03:30Z</time>
			</trkpt>
			<trkpt lat="42.973758" lon="-1.548998">
				<ele>754</ele>
				<time>2018-04-28T17:03:32Z</time>
			</trkpt>
			<trkpt lat="42.973739" lon="-1.548926">
				<ele>754</ele>
				<time>2018-04-28T17:03:35Z</time>
			</trkpt>
			<trkpt lat="42.97372" lon="-1.548865">
				<ele>754</ele>
				<time>2018-04-28T17:03:38Z</time>
			</trkpt>
			<trkpt lat="42.973696" lon="-1.548789">
				<ele>754</ele>
				<time>2018-04-28T17:03:41Z</time>
			</trkpt>
			<trkpt lat="42.973692" lon="-1.54872">
				<ele>754</ele>
				<time>2018-04-28T17:03:45Z</time>
			</trkpt>
			<trkpt lat="42.97367" lon="-1.54865">
				<ele>754</ele>
				<time>2018-04-28T17:03:49Z</time>
			</trkpt>
			<trkpt lat="42.973686" lon="-1.548568">
				<ele>754</ele>
				<time>2018-04-28T17:03:53Z</time>
			</trkpt>
			<trkpt lat="42.973689" lon="-1.548488">
				<ele>754</ele>
				<time>2018-04-28T17:03:56Z</time>
			</trkpt>
			<trkpt lat="42.973697" lon="-1.548388">
				<ele>754</ele>
				<time>2018-04-28T17:04:00Z</time>
			</trkpt>
			<trkpt lat="42.973698" lon="-1.548317">
				<ele>754</ele>
				<time>2018-04-28T17:04:04Z</time>
			</trkpt>
			<trkpt lat="42.973706" lon="-1.548224">
				<ele>754</ele>
				<time>2018-04-28T17:04:08Z</time>
			</trkpt>
			<trkpt lat="42.973709" lon="-1.548158">
				<ele>754</ele>
				<time>2018-04-28T17:04:12Z</time>
			</trkpt>
			<trkpt lat="42.973742" lon="-1.548113">
				<ele>754</ele>
				<time>2018-04-28T17:04:15Z</time>
			</trkpt>
			<trkpt lat="42.973732" lon="-1.548052">
				<ele>754</ele>
				<time>2018-04-28T17:04:19Z</time>
			</trkpt>
			<trkpt lat="42.973704" lon="-1.547969">
				<ele>754</ele>
				<time>2018-04-28T17:04:23Z</time>
			</trkpt>
			<trkpt lat="42.973688" lon="-1.54791">
				<ele>754</ele>
				<time>2018-04-28T17:04:27Z</time>
			</trkpt>
			<trkpt lat="42.97369" lon="-1.547837">
				<ele>754</ele>
				<time>2018-04-28T17:04:30Z</time>
			</trkpt>
			<trkpt lat="42.973696" lon="-1.54777">
				<ele>754</ele>
				<time>2018-04-28T17:04:35Z</time>
			</trkpt>
			<trkpt lat="42.973694" lon="-1.5477">
				<ele>754</ele>
				<time>2018-04-28T17:04:40Z</time>
			</trkpt>
			<trkpt lat="42.973693" lon="-1.547635">
				<ele>754</ele>
				<time>2018-04-28T17:04:42Z</time>
			</trkpt>
			<trkpt lat="42.973695" lon="-1.547561">
				<ele>754</ele>
				<time>2018-04-28T17:04:45Z</time>
			</trkpt>
			<trkpt lat="42.973684" lon="-1.547493">
				<ele>754</ele>
				<time>2018-04-28T17:04:48Z</time>
			</trkpt>
			<trkpt lat="42.973676" lon="-1.547433">
				<ele>754</ele>
				<time>2018-04-28T17:04:51Z</time>
			</trkpt>
			<trkpt lat="42.973667" lon="-1.547356">
				<ele>754</ele>
				<time>2018-04-28T17:04:55Z</time>
			</trkpt>
			<trkpt lat="42.973671" lon="-1.547276">
				<ele>754</ele>
				<time>2018-04-28T17:04:59Z</time>
			</trkpt>
			<trkpt lat="42.973704" lon="-1.547194">
				<ele>754</ele>
				<time>2018-04-28T17:05:04Z</time>
			</trkpt>
			<trkpt lat="42.973719" lon="-1.547126">
				<ele>754</ele>
				<time>2018-04-28T17:05:07Z</time>
			</trkpt>
			<trkpt lat="42.973722" lon="-1.547055">
				<ele>754</ele>
				<time>2018-04-28T17:05:12Z</time>
			</trkpt>
			<trkpt lat="42.973678" lon="-1.547029">
				<ele>754</ele>
				<time>2018-04-28T17:05:15Z</time>
			</trkpt>
			<trkpt lat="42.973638" lon="-1.546992">
				<ele>754</ele>
				<time>2018-04-28T17:05:19Z</time>
			</trkpt>
			<trkpt lat="42.973582" lon="-1.546959">
				<ele>754</ele>
				<time>2018-04-28T17:05:23Z</time>
			</trkpt>
			<trkpt lat="42.973528" lon="-1.546952">
				<ele>754</ele>
				<time>2018-04-28T17:05:26Z</time>
			</trkpt>
			<trkpt lat="42.973478" lon="-1.546943">
				<ele>754</ele>
				<time>2018-04-28T17:05:30Z</time>
			</trkpt>
			<trkpt lat="42.973431" lon="-1.546926">
				<ele>754</ele>
				<time>2018-04-28T17:05:33Z</time>
			</trkpt>
			<trkpt lat="42.973379" lon="-1.546891">
				<ele>754</ele>
				<time>2018-04-28T17:05:37Z</time>
			</trkpt>
			<trkpt lat="42.973329" lon="-1.546875">
				<ele>754</ele>
				<time>2018-04-28T17:05:39Z</time>
			</trkpt>
			<trkpt lat="42.973293" lon="-1.546827">
				<ele>754</ele>
				<time>2018-04-28T17:05:41Z</time>
			</trkpt>
			<trkpt lat="42.973246" lon="-1.546784">
				<ele>754</ele>
				<time>2018-04-28T17:05:44Z</time>
			</trkpt>
			<trkpt lat="42.973205" lon="-1.546737">
				<ele>754</ele>
				<time>2018-04-28T17:05:47Z</time>
			</trkpt>
			<trkpt lat="42.97316" lon="-1.546669">
				<ele>754</ele>
				<time>2018-04-28T17:05:52Z</time>
			</trkpt>
			<trkpt lat="42.973112" lon="-1.546614">
				<ele>754</ele>
				<time>2018-04-28T17:05:55Z</time>
			</trkpt>
			<trkpt lat="42.973062" lon="-1.546603">
				<ele>754</ele>
				<time>2018-04-28T17:05:58Z</time>
			</trkpt>
			<trkpt lat="42.973003" lon="-1.546616">
				<ele>754</ele>
				<time>2018-04-28T17:06:02Z</time>
			</trkpt>
			<trkpt lat="42.972965" lon="-1.546658">
				<ele>754</ele>
				<time>2018-04-28T17:06:06Z</time>
			</trkpt>
			<trkpt lat="42.972919" lon="-1.546678">
				<ele>754</ele>
				<time>2018-04-28T17:06:10Z</time>
			</trkpt>
			<trkpt lat="42.972874" lon="-1.546643">
				<ele>713</ele>
				<time>2018-04-28T17:06:13Z</time>
			</trkpt>
			<trkpt lat="42.972833" lon="-1.546609">
				<ele>713</ele>
				<time>2018-04-28T17:06:17Z</time>
			</trkpt>
			<trkpt lat="42.972785" lon="-1.546566">
				<ele>713</ele>
				<time>2018-04-28T17:06:22Z</time>
			</trkpt>
			<trkpt lat="42.972755" lon="-1.546519">
				<ele>713</ele>
				<time>2018-04-28T17:06:26Z</time>
			</trkpt>
			<trkpt lat="42.972722" lon="-1.546472">
				<ele>713</ele>
				<time>2018-04-28T17:06:28Z</time>
			</trkpt>
			<trkpt lat="42.972672" lon="-1.546445">
				<ele>713</ele>
				<time>2018-04-28T17:06:31Z</time>
			</trkpt>
			<trkpt lat="42.972627" lon="-1.546426">
				<ele>713</ele>
				<time>2018-04-28T17:06:37Z</time>
			</trkpt>
			<trkpt lat="42.972568" lon="-1.546389">
				<ele>713</ele>
				<time>2018-04-28T17:06:41Z</time>
			</trkpt>
			<trkpt lat="42.972521" lon="-1.546385">
				<ele>713</ele>
				<time>2018-04-28T17:06:51Z</time>
			</trkpt>
			<trkpt lat="42.972483" lon="-1.546349">
				<ele>713</ele>
				<time>2018-04-28T17:06:53Z</time>
			</trkpt>
			<trkpt lat="42.972437" lon="-1.546346">
				<ele>713</ele>
				<time>2018-04-28T17:06:56Z</time>
			</trkpt>
			<trkpt lat="42.972386" lon="-1.546346">
				<ele>713</ele>
				<time>2018-04-28T17:07:01Z</time>
			</trkpt>
			<trkpt lat="42.972336" lon="-1.546331">
				<ele>713</ele>
				<time>2018-04-28T17:07:06Z</time>
			</trkpt>
			<trkpt lat="42.97229" lon="-1.546319">
				<ele>713</ele>
				<time>2018-04-28T17:07:09Z</time>
			</trkpt>
			<trkpt lat="42.972275" lon="-1.546388">
				<ele>713</ele>
				<time>2018-04-28T17:07:15Z</time>
			</trkpt>
			<trkpt lat="42.972237" lon="-1.54643">
				<ele>713</ele>
				<time>2018-04-28T17:07:19Z</time>
			</trkpt>
			<trkpt lat="42.972182" lon="-1.546443">
				<ele>713</ele>
				<time>2018-04-28T17:07:23Z</time>
			</trkpt>
			<trkpt lat="42.972136" lon="-1.546455">
				<ele>713</ele>
				<time>2018-04-28T17:07:29Z</time>
			</trkpt>
			<trkpt lat="42.972093" lon="-1.546432">
				<ele>713</ele>
				<time>2018-04-28T17:07:33Z</time>
			</trkpt>
			<trkpt lat="42.972048" lon="-1.546394">
				<ele>713</ele>
				<time>2018-04-28T17:07:36Z</time>
			</trkpt>
			<trkpt lat="42.971999" lon="-1.54639">
				<ele>713</ele>
				<time>2018-04-28T17:07:39Z</time>
			</trkpt>
			<trkpt lat="42.971956" lon="-1.546363">
				<ele>713</ele>
				<time>2018-04-28T17:07:43Z</time>
			</trkpt>
			<trkpt lat="42.971898" lon="-1.546318">
				<ele>713</ele>
				<time>2018-04-28T17:07:46Z</time>
			</trkpt>
			<trkpt lat="42.971839" lon="-1.546336">
				<ele>713</ele>
				<time>2018-04-28T17:07:53Z</time>
			</trkpt>
			<trkpt lat="42.971792" lon="-1.546332">
				<ele>713</ele>
				<time>2018-04-28T17:07:55Z</time>
			</trkpt>
			<trkpt lat="42.971739" lon="-1.54636">
				<ele>713</ele>
				<time>2018-04-28T17:07:58Z</time>
			</trkpt>
			<trkpt lat="42.971696" lon="-1.5464">
				<ele>713</ele>
				<time>2018-04-28T17:08:02Z</time>
			</trkpt>
			<trkpt lat="42.971638" lon="-1.54641">
				<ele>713</ele>
				<time>2018-04-28T17:08:09Z</time>
			</trkpt>
			<trkpt lat="42.971587" lon="-1.546412">
				<ele>713</ele>
				<time>2018-04-28T17:08:12Z</time>
			</trkpt>
			<trkpt lat="42.97154" lon="-1.546421">
				<ele>713</ele>
				<time>2018-04-28T17:08:14Z</time>
			</trkpt>
			<trkpt lat="42.97148" lon="-1.546445">
				<ele>713</ele>
				<time>2018-04-28T17:08:17Z</time>
			</trkpt>
			<trkpt lat="42.971426" lon="-1.546447">
				<ele>713</ele>
				<time>2018-04-28T17:08:19Z</time>
			</trkpt>
			<trkpt lat="42.97138" lon="-1.546413">
				<ele>713</ele>
				<time>2018-04-28T17:08:24Z</time>
			</trkpt>
			<trkpt lat="42.971354" lon="-1.546351">
				<ele>713</ele>
				<time>2018-04-28T17:08:27Z</time>
			</trkpt>
			<trkpt lat="42.971319" lon="-1.546311">
				<ele>713</ele>
				<time>2018-04-28T17:08:30Z</time>
			</trkpt>
			<trkpt lat="42.971272" lon="-1.546276">
				<ele>713</ele>
				<time>2018-04-28T17:08:33Z</time>
			</trkpt>
			<trkpt lat="42.971232" lon="-1.546244">
				<ele>713</ele>
				<time>2018-04-28T17:08:36Z</time>
			</trkpt>
			<trkpt lat="42.971215" lon="-1.546184">
				<ele>713</ele>
				<time>2018-04-28T17:08:40Z</time>
			</trkpt>
			<trkpt lat="42.971171" lon="-1.546133">
				<ele>713</ele>
				<time>2018-04-28T17:08:44Z</time>
			</trkpt>
			<trkpt lat="42.971114" lon="-1.546106">
				<ele>713</ele>
				<time>2018-04-28T17:08:48Z</time>
			</trkpt>
			<trkpt lat="42.971066" lon="-1.546118">
				<ele>713</ele>
				<time>2018-04-28T17:08:52Z</time>
			</trkpt>
			<trkpt lat="42.971041" lon="-1.546174">
				<ele>713</ele>
				<time>2018-04-28T17:08:58Z</time>
			</trkpt>
			<trkpt lat="42.970999" lon="-1.546229">
				<ele>713</ele>
				<time>2018-04-28T17:09:02Z</time>
			</trkpt>
			<trkpt lat="42.970961" lon="-1.546274">
				<ele>713</ele>
				<time>2018-04-28T17:09:06Z</time>
			</trkpt>
			<trkpt lat="42.970908" lon="-1.546314">
				<ele>713</ele>
				<time>2018-04-28T17:09:10Z</time>
			</trkpt>
			<trkpt lat="42.970861" lon="-1.546353">
				<ele>713</ele>
				<time>2018-04-28T17:09:14Z</time>
			</trkpt>
			<trkpt lat="42.970827" lon="-1.546417">
				<ele>770</ele>
				<time>2018-04-28T17:09:20Z</time>
			</trkpt>
			<trkpt lat="42.970778" lon="-1.546469">
				<ele>770</ele>
				<time>2018-04-28T17:09:27Z</time>
			</trkpt>
			<trkpt lat="42.970766" lon="-1.54655">
				<ele>770</ele>
				<time>2018-04-28T17:09:35Z</time>
			</trkpt>
			<trkpt lat="42.970746" lon="-1.54661">
				<ele>770</ele>
				<time>2018-04-28T17:09:40Z</time>
			</trkpt>
			<trkpt lat="42.970701" lon="-1.546623">
				<ele>770</ele>
				<time>2018-04-28T17:09:44Z</time>
			</trkpt>
			<trkpt lat="42.970667" lon="-1.546679">
				<ele>770</ele>
				<time>2018-04-28T17:09:48Z</time>
			</trkpt>
			<trkpt lat="42.970621" lon="-1.54669">
				<ele>770</ele>
				<time>2018-04-28T17:09:52Z</time>
			</trkpt>
			<trkpt lat="42.970585" lon="-1.546738">
				<ele>770</ele>
				<time>2018-04-28T17:09:57Z</time>
			</trkpt>
			<trkpt lat="42.970559" lon="-1.546801">
				<ele>770</ele>
				<time>2018-04-28T17:10:01Z</time>
			</trkpt>
			<trkpt lat="42.970521" lon="-1.546851">
				<ele>770</ele>
				<time>2018-04-28T17:10:07Z</time>
			</trkpt>
			<trkpt lat="42.970479" lon="-1.546886">
				<ele>770</ele>
				<time>2018-04-28T17:10:12Z</time>
			</trkpt>
			<trkpt lat="42.970449" lon="-1.546946">
				<ele>770</ele>
				<time>2018-04-28T17:10:16Z</time>
			</trkpt>
			<trkpt lat="42.970413" lon="-1.54699">
				<ele>770</ele>
				<time>2018-04-28T17:10:22Z</time>
			</trkpt>
			<trkpt lat="42.970374" lon="-1.547029">
				<ele>770</ele>
				<time>2018-04-28T17:10:26Z</time>
			</trkpt>
			<trkpt lat="42.970355" lon="-1.547088">
				<ele>770</ele>
				<time>2018-04-28T17:10:32Z</time>
			</trkpt>
			<trkpt lat="42.97033" lon="-1.547139">
				<ele>770</ele>
				<time>2018-04-28T17:10:39Z</time>
			</trkpt>
			<trkpt lat="42.970299" lon="-1.5472">
				<ele>770</ele>
				<time>2018-04-28T17:10:44Z</time>
			</trkpt>
			<trkpt lat="42.970275" lon="-1.547257">
				<ele>770</ele>
				<time>2018-04-28T17:10:50Z</time>
			</trkpt>
			<trkpt lat="42.970256" lon="-1.547319">
				<ele>770</ele>
				<time>2018-04-28T17:10:56Z</time>
			</trkpt>
			<trkpt lat="42.970227" lon="-1.54737">
				<ele>770</ele>
				<time>2018-04-28T17:11:04Z</time>
			</trkpt>
			<trkpt lat="42.970213" lon="-1.54743">
				<ele>770</ele>
				<time>2018-04-28T17:11:10Z</time>
			</trkpt>
			<trkpt lat="42.970186" lon="-1.547479">
				<ele>770</ele>
				<time>2018-04-28T17:11:16Z</time>
			</trkpt>
			<trkpt lat="42.970186" lon="-1.54754">
				<ele>770</ele>
				<time>2018-04-28T17:11:22Z</time>
			</trkpt>
			<trkpt lat="42.970135" lon="-1.54757">
				<ele>770</ele>
				<time>2018-04-28T17:11:28Z</time>
			</trkpt>
			<trkpt lat="42.970115" lon="-1.547637">
				<ele>770</ele>
				<time>2018-04-28T17:11:34Z</time>
			</trkpt>
			<trkpt lat="42.970071" lon="-1.547672">
				<ele>770</ele>
				<time>2018-04-28T17:11:37Z</time>
			</trkpt>
			<trkpt lat="42.970036" lon="-1.547724">
				<ele>770</ele>
				<time>2018-04-28T17:11:41Z</time>
			</trkpt>
			<trkpt lat="42.970004" lon="-1.547772">
				<ele>770</ele>
				<time>2018-04-28T17:11:45Z</time>
			</trkpt>
			<trkpt lat="42.969979" lon="-1.547829">
				<ele>770</ele>
				<time>2018-04-28T17:11:51Z</time>
			</trkpt>
			<trkpt lat="42.969947" lon="-1.547879">
				<ele>770</ele>
				<time>2018-04-28T17:11:56Z</time>
			</trkpt>
			<trkpt lat="42.969934" lon="-1.547939">
				<ele>758</ele>
				<time>2018-04-28T17:12:00Z</time>
			</trkpt>
			<trkpt lat="42.969917" lon="-1.548003">
				<ele>758</ele>
				<time>2018-04-28T17:12:10Z</time>
			</trkpt>
			<trkpt lat="42.969878" lon="-1.548053">
				<ele>758</ele>
				<time>2018-04-28T17:12:14Z</time>
			</trkpt>
			<trkpt lat="42.969833" lon="-1.54808">
				<ele>758</ele>
				<time>2018-04-28T17:12:18Z</time>
			</trkpt>
			<trkpt lat="42.969807" lon="-1.548135">
				<ele>758</ele>
				<time>2018-04-28T17:12:32Z</time>
			</trkpt>
			<trkpt lat="42.969788" lon="-1.548074">
				<ele>758</ele>
				<time>2018-04-28T17:12:39Z</time>
			</trkpt>
			<trkpt lat="42.969764" lon="-1.548016">
				<ele>758</ele>
				<time>2018-04-28T17:12:45Z</time>
			</trkpt>
			<trkpt lat="42.96977" lon="-1.547954">
				<ele>758</ele>
				<time>2018-04-28T17:12:50Z</time>
			</trkpt>
			<trkpt lat="42.969773" lon="-1.547891">
				<ele>770</ele>
				<time>2018-04-28T17:12:54Z</time>
			</trkpt>
			<trkpt lat="42.969772" lon="-1.547825">
				<ele>770</ele>
				<time>2018-04-28T17:13:05Z</time>
			</trkpt>
			<trkpt lat="42.969756" lon="-1.547753">
				<ele>770</ele>
				<time>2018-04-28T17:13:11Z</time>
			</trkpt>
			<trkpt lat="42.96976" lon="-1.547686">
				<ele>770</ele>
				<time>2018-04-28T17:13:16Z</time>
			</trkpt>
			<trkpt lat="42.969759" lon="-1.547624">
				<ele>770</ele>
				<time>2018-04-28T17:13:21Z</time>
			</trkpt>
			<trkpt lat="42.969711" lon="-1.547601">
				<ele>770</ele>
				<time>2018-04-28T17:13:35Z</time>
			</trkpt>
			<trkpt lat="42.969653" lon="-1.547627">
				<ele>770</ele>
				<time>2018-04-28T17:13:47Z</time>
			</trkpt>
			<trkpt lat="42.969621" lon="-1.547582">
				<ele>770</ele>
				<time>2018-04-28T17:13:55Z</time>
			</trkpt>
			<trkpt lat="42.969566" lon="-1.547542">
				<ele>770</ele>
				<time>2018-04-28T17:14:05Z</time>
			</trkpt>
			<trkpt lat="42.969514" lon="-1.547505">
				<ele>770</ele>
				<time>2018-04-28T17:14:13Z</time>
			</trkpt>
			<trkpt lat="42.969483" lon="-1.547441">
				<ele>770</ele>
				<time>2018-04-28T17:14:17Z</time>
			</trkpt>
			<trkpt lat="42.969437" lon="-1.54739">
				<ele>770</ele>
				<time>2018-04-28T17:14:21Z</time>
			</trkpt>
			<trkpt lat="42.969395" lon="-1.54736">
				<ele>770</ele>
				<time>2018-04-28T17:14:25Z</time>
			</trkpt>
			<trkpt lat="42.969338" lon="-1.547352">
				<ele>770</ele>
				<time>2018-04-28T17:14:29Z</time>
			</trkpt>
			<trkpt lat="42.969289" lon="-1.547323">
				<ele>770</ele>
				<time>2018-04-28T17:14:33Z</time>
			</trkpt>
			<trkpt lat="42.969238" lon="-1.547289">
				<ele>770</ele>
				<time>2018-04-28T17:14:37Z</time>
			</trkpt>
			<trkpt lat="42.96919" lon="-1.547284">
				<ele>770</ele>
				<time>2018-04-28T17:14:41Z</time>
			</trkpt>
			<trkpt lat="42.969138" lon="-1.547249">
				<ele>770</ele>
				<time>2018-04-28T17:14:45Z</time>
			</trkpt>
			<trkpt lat="42.969094" lon="-1.547221">
				<ele>770</ele>
				<time>2018-04-28T17:14:49Z</time>
			</trkpt>
			<trkpt lat="42.969042" lon="-1.54722">
				<ele>770</ele>
				<time>2018-04-28T17:14:52Z</time>
			</trkpt>
			<trkpt lat="42.968998" lon="-1.547237">
				<ele>770</ele>
				<time>2018-04-28T17:14:55Z</time>
			</trkpt>
			<trkpt lat="42.968944" lon="-1.547241">
				<ele>770</ele>
				<time>2018-04-28T17:14:59Z</time>
			</trkpt>
			<trkpt lat="42.968884" lon="-1.54722">
				<ele>770</ele>
				<time>2018-04-28T17:15:04Z</time>
			</trkpt>
			<trkpt lat="42.96884" lon="-1.5472">
				<ele>770</ele>
				<time>2018-04-28T17:15:07Z</time>
			</trkpt>
			<trkpt lat="42.968796" lon="-1.547172">
				<ele>770</ele>
				<time>2018-04-28T17:15:10Z</time>
			</trkpt>
			<trkpt lat="42.968756" lon="-1.547135">
				<ele>770</ele>
				<time>2018-04-28T17:15:13Z</time>
			</trkpt>
			<trkpt lat="42.968711" lon="-1.54708">
				<ele>781</ele>
				<time>2018-04-28T17:15:18Z</time>
			</trkpt>
			<trkpt lat="42.968671" lon="-1.547034">
				<ele>781</ele>
				<time>2018-04-28T17:15:21Z</time>
			</trkpt>
			<trkpt lat="42.968614" lon="-1.547012">
				<ele>781</ele>
				<time>2018-04-28T17:15:25Z</time>
			</trkpt>
			<trkpt lat="42.968569" lon="-1.547005">
				<ele>781</ele>
				<time>2018-04-28T17:15:28Z</time>
			</trkpt>
			<trkpt lat="42.968519" lon="-1.546978">
				<ele>781</ele>
				<time>2018-04-28T17:15:31Z</time>
			</trkpt>
			<trkpt lat="42.968474" lon="-1.546952">
				<ele>781</ele>
				<time>2018-04-28T17:15:34Z</time>
			</trkpt>
			<trkpt lat="42.968457" lon="-1.546879">
				<ele>781</ele>
				<time>2018-04-28T17:15:37Z</time>
			</trkpt>
			<trkpt lat="42.968481" lon="-1.546826">
				<ele>781</ele>
				<time>2018-04-28T17:15:48Z</time>
			</trkpt>
			<trkpt lat="42.968511" lon="-1.54677">
				<ele>781</ele>
				<time>2018-04-28T17:16:52Z</time>
			</trkpt>
			<trkpt lat="42.968508" lon="-1.546843">
				<ele>781</ele>
				<time>2018-04-28T17:17:10Z</time>
			</trkpt>
			<trkpt lat="42.968459" lon="-1.546866">
				<ele>781</ele>
				<time>2018-04-28T17:20:59Z</time>
			</trkpt>
			<trkpt lat="42.968486" lon="-1.546915">
				<ele>781</ele>
				<time>2018-04-28T17:21:09Z</time>
			</trkpt>
			<trkpt lat="42.968512" lon="-1.546859">
				<ele>781</ele>
				<time>2018-04-28T17:23:27Z</time>
			</trkpt>
			<trkpt lat="42.968468" lon="-1.546896">
				<ele>781</ele>
				<time>2018-04-28T17:23:38Z</time>
			</trkpt>
			<trkpt lat="42.968421" lon="-1.546878">
				<ele>781</ele>
				<time>2018-04-28T17:23:44Z</time>
			</trkpt>
			<trkpt lat="42.96835" lon="-1.546868">
				<ele>781</ele>
				<time>2018-04-28T17:23:48Z</time>
			</trkpt>
			<trkpt lat="42.968298" lon="-1.54685">
				<ele>781</ele>
				<time>2018-04-28T17:23:51Z</time>
			</trkpt>
			<trkpt lat="42.968252" lon="-1.546793">
				<ele>781</ele>
				<time>2018-04-28T17:23:54Z</time>
			</trkpt>
			<trkpt lat="42.968209" lon="-1.546744">
				<ele>781</ele>
				<time>2018-04-28T17:23:57Z</time>
			</trkpt>
			<trkpt lat="42.96816" lon="-1.546703">
				<ele>781</ele>
				<time>2018-04-28T17:24:00Z</time>
			</trkpt>
			<trkpt lat="42.968106" lon="-1.546661">
				<ele>781</ele>
				<time>2018-04-28T17:24:03Z</time>
			</trkpt>
			<trkpt lat="42.968056" lon="-1.546617">
				<ele>781</ele>
				<time>2018-04-28T17:24:06Z</time>
			</trkpt>
			<trkpt lat="42.968006" lon="-1.546579">
				<ele>781</ele>
				<time>2018-04-28T17:24:09Z</time>
			</trkpt>
			<trkpt lat="42.967964" lon="-1.546537">
				<ele>781</ele>
				<time>2018-04-28T17:24:11Z</time>
			</trkpt>
			<trkpt lat="42.967912" lon="-1.546496">
				<ele>781</ele>
				<time>2018-04-28T17:24:14Z</time>
			</trkpt>
			<trkpt lat="42.967872" lon="-1.546459">
				<ele>781</ele>
				<time>2018-04-28T17:24:17Z</time>
			</trkpt>
			<trkpt lat="42.967824" lon="-1.54641">
				<ele>781</ele>
				<time>2018-04-28T17:24:20Z</time>
			</trkpt>
			<trkpt lat="42.967779" lon="-1.546372">
				<ele>781</ele>
				<time>2018-04-28T17:24:24Z</time>
			</trkpt>
			<trkpt lat="42.96773" lon="-1.546367">
				<ele>781</ele>
				<time>2018-04-28T17:24:27Z</time>
			</trkpt>
			<trkpt lat="42.967685" lon="-1.546332">
				<ele>781</ele>
				<time>2018-04-28T17:24:31Z</time>
			</trkpt>
			<trkpt lat="42.967658" lon="-1.546271">
				<ele>781</ele>
				<time>2018-04-28T17:24:34Z</time>
			</trkpt>
			<trkpt lat="42.967606" lon="-1.54624">
				<ele>781</ele>
				<time>2018-04-28T17:24:37Z</time>
			</trkpt>
			<trkpt lat="42.96757" lon="-1.546182">
				<ele>781</ele>
				<time>2018-04-28T17:24:41Z</time>
			</trkpt>
			<trkpt lat="42.967526" lon="-1.546145">
				<ele>781</ele>
				<time>2018-04-28T17:24:45Z</time>
			</trkpt>
			<trkpt lat="42.967486" lon="-1.546179">
				<ele>781</ele>
				<time>2018-04-28T17:24:58Z</time>
			</trkpt>
			<trkpt lat="42.967457" lon="-1.546234">
				<ele>781</ele>
				<time>2018-04-28T17:25:08Z</time>
			</trkpt>
			<trkpt lat="42.967422" lon="-1.546279">
				<ele>781</ele>
				<time>2018-04-28T17:25:14Z</time>
			</trkpt>
			<trkpt lat="42.967377" lon="-1.546269">
				<ele>781</ele>
				<time>2018-04-28T17:25:24Z</time>
			</trkpt>
			<trkpt lat="42.967328" lon="-1.546276">
				<ele>781</ele>
				<time>2018-04-28T17:25:29Z</time>
			</trkpt>
			<trkpt lat="42.967278" lon="-1.546305">
				<ele>781</ele>
				<time>2018-04-28T17:25:40Z</time>
			</trkpt>
			<trkpt lat="42.967234" lon="-1.546287">
				<ele>781</ele>
				<time>2018-04-28T17:25:47Z</time>
			</trkpt>
			<trkpt lat="42.967204" lon="-1.54624">
				<ele>781</ele>
				<time>2018-04-28T17:25:52Z</time>
			</trkpt>
			<trkpt lat="42.967158" lon="-1.546255">
				<ele>781</ele>
				<time>2018-04-28T17:25:59Z</time>
			</trkpt>
			<trkpt lat="42.96711" lon="-1.546273">
				<ele>781</ele>
				<time>2018-04-28T17:26:03Z</time>
			</trkpt>
			<trkpt lat="42.96707" lon="-1.546307">
				<ele>781</ele>
				<time>2018-04-28T17:26:11Z</time>
			</trkpt>
			<trkpt lat="42.967022" lon="-1.546297">
				<ele>781</ele>
				<time>2018-04-28T17:26:21Z</time>
			</trkpt>
			<trkpt lat="42.96698" lon="-1.546272">
				<ele>781</ele>
				<time>2018-04-28T17:26:26Z</time>
			</trkpt>
			<trkpt lat="42.966927" lon="-1.546229">
				<ele>781</ele>
				<time>2018-04-28T17:26:29Z</time>
			</trkpt>
			<trkpt lat="42.966901" lon="-1.54628">
				<ele>781</ele>
				<time>2018-04-28T17:26:36Z</time>
			</trkpt>
			<trkpt lat="42.966851" lon="-1.546307">
				<ele>781</ele>
				<time>2018-04-28T17:26:56Z</time>
			</trkpt>
			<trkpt lat="42.966794" lon="-1.54629">
				<ele>781</ele>
				<time>2018-04-28T17:26:59Z</time>
			</trkpt>
			<trkpt lat="42.96675" lon="-1.546273">
				<ele>781</ele>
				<time>2018-04-28T17:27:09Z</time>
			</trkpt>
			<trkpt lat="42.966701" lon="-1.546296">
				<ele>781</ele>
				<time>2018-04-28T17:27:18Z</time>
			</trkpt>
			<trkpt lat="42.966662" lon="-1.54633">
				<ele>851</ele>
				<time>2018-04-28T17:27:23Z</time>
			</trkpt>
			<trkpt lat="42.966641" lon="-1.546394">
				<ele>851</ele>
				<time>2018-04-28T17:27:30Z</time>
			</trkpt>
			<trkpt lat="42.966626" lon="-1.546455">
				<ele>851</ele>
				<time>2018-04-28T17:27:42Z</time>
			</trkpt>
			<trkpt lat="42.96663" lon="-1.546517">
				<ele>851</ele>
				<time>2018-04-28T17:27:53Z</time>
			</trkpt>
			<trkpt lat="42.966589" lon="-1.546554">
				<ele>851</ele>
				<time>2018-04-28T17:28:05Z</time>
			</trkpt>
			<trkpt lat="42.966546" lon="-1.546597">
				<ele>851</ele>
				<time>2018-04-28T17:28:09Z</time>
			</trkpt>
			<trkpt lat="42.966516" lon="-1.546652">
				<ele>851</ele>
				<time>2018-04-28T17:28:15Z</time>
			</trkpt>
			<trkpt lat="42.966479" lon="-1.546688">
				<ele>851</ele>
				<time>2018-04-28T17:28:19Z</time>
			</trkpt>
			<trkpt lat="42.966439" lon="-1.546723">
				<ele>851</ele>
				<time>2018-04-28T17:28:35Z</time>
			</trkpt>
			<trkpt lat="42.966395" lon="-1.546744">
				<ele>851</ele>
				<time>2018-04-28T17:28:42Z</time>
			</trkpt>
			<trkpt lat="42.966365" lon="-1.546794">
				<ele>851</ele>
				<time>2018-04-28T17:28:48Z</time>
			</trkpt>
			<trkpt lat="42.966329" lon="-1.546831">
				<ele>851</ele>
				<time>2018-04-28T17:29:01Z</time>
			</trkpt>
			<trkpt lat="42.966283" lon="-1.546831">
				<ele>851</ele>
				<time>2018-04-28T17:29:10Z</time>
			</trkpt>
			<trkpt lat="42.966237" lon="-1.546848">
				<ele>851</ele>
				<time>2018-04-28T17:29:17Z</time>
			</trkpt>
			<trkpt lat="42.966211" lon="-1.546906">
				<ele>851</ele>
				<time>2018-04-28T17:29:22Z</time>
			</trkpt>
			<trkpt lat="42.966175" lon="-1.546953">
				<ele>851</ele>
				<time>2018-04-28T17:29:27Z</time>
			</trkpt>
			<trkpt lat="42.966138" lon="-1.546992">
				<ele>851</ele>
				<time>2018-04-28T17:29:32Z</time>
			</trkpt>
			<trkpt lat="42.966113" lon="-1.547054">
				<ele>851</ele>
				<time>2018-04-28T17:29:38Z</time>
			</trkpt>
			<trkpt lat="42.966074" lon="-1.547093">
				<ele>851</ele>
				<time>2018-04-28T17:29:50Z</time>
			</trkpt>
			<trkpt lat="42.966046" lon="-1.547149">
				<ele>851</ele>
				<time>2018-04-28T17:29:57Z</time>
			</trkpt>
			<trkpt lat="42.96603" lon="-1.547215">
				<ele>851</ele>
				<time>2018-04-28T17:30:06Z</time>
			</trkpt>
			<trkpt lat="42.966015" lon="-1.547273">
				<ele>851</ele>
				<time>2018-04-28T17:30:15Z</time>
			</trkpt>
			<trkpt lat="42.965989" lon="-1.547326">
				<ele>851</ele>
				<time>2018-04-28T17:30:21Z</time>
			</trkpt>
			<trkpt lat="42.965978" lon="-1.547386">
				<ele>851</ele>
				<time>2018-04-28T17:30:29Z</time>
			</trkpt>
			<trkpt lat="42.965981" lon="-1.547455">
				<ele>851</ele>
				<time>2018-04-28T17:30:38Z</time>
			</trkpt>
			<trkpt lat="42.965968" lon="-1.547518">
				<ele>851</ele>
				<time>2018-04-28T17:30:48Z</time>
			</trkpt>
			<trkpt lat="42.965935" lon="-1.547562">
				<ele>851</ele>
				<time>2018-04-28T17:30:58Z</time>
			</trkpt>
			<trkpt lat="42.965904" lon="-1.547617">
				<ele>851</ele>
				<time>2018-04-28T17:31:06Z</time>
			</trkpt>
			<trkpt lat="42.96586" lon="-1.547634">
				<ele>851</ele>
				<time>2018-04-28T17:31:11Z</time>
			</trkpt>
			<trkpt lat="42.965833" lon="-1.547685">
				<ele>851</ele>
				<time>2018-04-28T17:31:16Z</time>
			</trkpt>
			<trkpt lat="42.965812" lon="-1.547743">
				<ele>851</ele>
				<time>2018-04-28T17:31:24Z</time>
			</trkpt>
			<trkpt lat="42.965786" lon="-1.547811">
				<ele>851</ele>
				<time>2018-04-28T17:31:32Z</time>
			</trkpt>
			<trkpt lat="42.965758" lon="-1.547863">
				<ele>851</ele>
				<time>2018-04-28T17:31:38Z</time>
			</trkpt>
			<trkpt lat="42.965736" lon="-1.54793">
				<ele>899</ele>
				<time>2018-04-28T17:31:47Z</time>
			</trkpt>
			<trkpt lat="42.965703" lon="-1.547984">
				<ele>899</ele>
				<time>2018-04-28T17:31:57Z</time>
			</trkpt>
			<trkpt lat="42.965659" lon="-1.547969">
				<ele>899</ele>
				<time>2018-04-28T17:32:00Z</time>
			</trkpt>
			<trkpt lat="42.965605" lon="-1.547979">
				<ele>899</ele>
				<time>2018-04-28T17:32:09Z</time>
			</trkpt>
			<trkpt lat="42.965552" lon="-1.547994">
				<ele>899</ele>
				<time>2018-04-28T17:32:13Z</time>
			</trkpt>
			<trkpt lat="42.965519" lon="-1.548039">
				<ele>899</ele>
				<time>2018-04-28T17:32:20Z</time>
			</trkpt>
			<trkpt lat="42.965492" lon="-1.548092">
				<ele>899</ele>
				<time>2018-04-28T17:32:27Z</time>
			</trkpt>
			<trkpt lat="42.96545" lon="-1.548125">
				<ele>899</ele>
				<time>2018-04-28T17:32:33Z</time>
			</trkpt>
			<trkpt lat="42.965406" lon="-1.548155">
				<ele>899</ele>
				<time>2018-04-28T17:32:38Z</time>
			</trkpt>
			<trkpt lat="42.965357" lon="-1.548163">
				<ele>899</ele>
				<time>2018-04-28T17:32:43Z</time>
			</trkpt>
			<trkpt lat="42.965328" lon="-1.548221">
				<ele>899</ele>
				<time>2018-04-28T17:32:51Z</time>
			</trkpt>
			<trkpt lat="42.965296" lon="-1.548273">
				<ele>899</ele>
				<time>2018-04-28T17:32:56Z</time>
			</trkpt>
			<trkpt lat="42.965266" lon="-1.548321">
				<ele>899</ele>
				<time>2018-04-28T17:33:07Z</time>
			</trkpt>
			<trkpt lat="42.965238" lon="-1.548377">
				<ele>899</ele>
				<time>2018-04-28T17:33:15Z</time>
			</trkpt>
			<trkpt lat="42.965224" lon="-1.548445">
				<ele>899</ele>
				<time>2018-04-28T17:33:27Z</time>
			</trkpt>
			<trkpt lat="42.965238" lon="-1.548504">
				<ele>899</ele>
				<time>2018-04-28T17:33:31Z</time>
			</trkpt>
			<trkpt lat="42.96525" lon="-1.548572">
				<ele>899</ele>
				<time>2018-04-28T17:33:37Z</time>
			</trkpt>
			<trkpt lat="42.965244" lon="-1.548641">
				<ele>899</ele>
				<time>2018-04-28T17:33:44Z</time>
			</trkpt>
			<trkpt lat="42.965234" lon="-1.548705">
				<ele>899</ele>
				<time>2018-04-28T17:33:49Z</time>
			</trkpt>
			<trkpt lat="42.965233" lon="-1.54877">
				<ele>899</ele>
				<time>2018-04-28T17:33:56Z</time>
			</trkpt>
			<trkpt lat="42.965233" lon="-1.54884">
				<ele>899</ele>
				<time>2018-04-28T17:34:04Z</time>
			</trkpt>
			<trkpt lat="42.965222" lon="-1.548908">
				<ele>899</ele>
				<time>2018-04-28T17:34:10Z</time>
			</trkpt>
			<trkpt lat="42.965193" lon="-1.548963">
				<ele>899</ele>
				<time>2018-04-28T17:34:17Z</time>
			</trkpt>
			<trkpt lat="42.965182" lon="-1.549024">
				<ele>899</ele>
				<time>2018-04-28T17:34:21Z</time>
			</trkpt>
			<trkpt lat="42.96518" lon="-1.549099">
				<ele>899</ele>
				<time>2018-04-28T17:34:26Z</time>
			</trkpt>
			<trkpt lat="42.965143" lon="-1.549136">
				<ele>899</ele>
				<time>2018-04-28T17:34:35Z</time>
			</trkpt>
			<trkpt lat="42.965124" lon="-1.549193">
				<ele>899</ele>
				<time>2018-04-28T17:34:43Z</time>
			</trkpt>
			<trkpt lat="42.965093" lon="-1.549246">
				<ele>899</ele>
				<time>2018-04-28T17:34:49Z</time>
			</trkpt>
			<trkpt lat="42.965072" lon="-1.549309">
				<ele>899</ele>
				<time>2018-04-28T17:34:56Z</time>
			</trkpt>
			<trkpt lat="42.965063" lon="-1.549376">
				<ele>899</ele>
				<time>2018-04-28T17:35:01Z</time>
			</trkpt>
			<trkpt lat="42.965039" lon="-1.549432">
				<ele>899</ele>
				<time>2018-04-28T17:35:08Z</time>
			</trkpt>
			<trkpt lat="42.965009" lon="-1.549491">
				<ele>899</ele>
				<time>2018-04-28T17:35:13Z</time>
			</trkpt>
			<trkpt lat="42.964967" lon="-1.549532">
				<ele>899</ele>
				<time>2018-04-28T17:35:19Z</time>
			</trkpt>
			<trkpt lat="42.964911" lon="-1.549555">
				<ele>899</ele>
				<time>2018-04-28T17:35:26Z</time>
			</trkpt>
			<trkpt lat="42.964868" lon="-1.549593">
				<ele>899</ele>
				<time>2018-04-28T17:35:31Z</time>
			</trkpt>
			<trkpt lat="42.964837" lon="-1.549641">
				<ele>899</ele>
				<time>2018-04-28T17:35:37Z</time>
			</trkpt>
			<trkpt lat="42.964807" lon="-1.54969">
				<ele>899</ele>
				<time>2018-04-28T17:35:43Z</time>
			</trkpt>
			<trkpt lat="42.964794" lon="-1.549751">
				<ele>899</ele>
				<time>2018-04-28T17:35:47Z</time>
			</trkpt>
			<trkpt lat="42.964758" lon="-1.549809">
				<ele>899</ele>
				<time>2018-04-28T17:35:52Z</time>
			</trkpt>
			<trkpt lat="42.964727" lon="-1.549855">
				<ele>899</ele>
				<time>2018-04-28T17:35:58Z</time>
			</trkpt>
			<trkpt lat="42.9647" lon="-1.549912">
				<ele>899</ele>
				<time>2018-04-28T17:36:03Z</time>
			</trkpt>
			<trkpt lat="42.964663" lon="-1.549954">
				<ele>899</ele>
				<time>2018-04-28T17:36:07Z</time>
			</trkpt>
			<trkpt lat="42.964631" lon="-1.55">
				<ele>899</ele>
				<time>2018-04-28T17:36:11Z</time>
			</trkpt>
			<trkpt lat="42.964616" lon="-1.550079">
				<ele>916</ele>
				<time>2018-04-28T17:36:16Z</time>
			</trkpt>
			<trkpt lat="42.9646" lon="-1.550138">
				<ele>916</ele>
				<time>2018-04-28T17:36:20Z</time>
			</trkpt>
			<trkpt lat="42.964566" lon="-1.550185">
				<ele>945</ele>
				<time>2018-04-28T17:36:24Z</time>
			</trkpt>
			<trkpt lat="42.964528" lon="-1.550237">
				<ele>945</ele>
				<time>2018-04-28T17:36:29Z</time>
			</trkpt>
			<trkpt lat="42.96451" lon="-1.550302">
				<ele>945</ele>
				<time>2018-04-28T17:36:35Z</time>
			</trkpt>
			<trkpt lat="42.964488" lon="-1.550369">
				<ele>945</ele>
				<time>2018-04-28T17:36:39Z</time>
			</trkpt>
			<trkpt lat="42.964462" lon="-1.550422">
				<ele>945</ele>
				<time>2018-04-28T17:36:43Z</time>
			</trkpt>
			<trkpt lat="42.964422" lon="-1.550474">
				<ele>945</ele>
				<time>2018-04-28T17:36:48Z</time>
			</trkpt>
			<trkpt lat="42.964402" lon="-1.550533">
				<ele>945</ele>
				<time>2018-04-28T17:36:54Z</time>
			</trkpt>
			<trkpt lat="42.964372" lon="-1.5506">
				<ele>945</ele>
				<time>2018-04-28T17:36:59Z</time>
			</trkpt>
			<trkpt lat="42.96435" lon="-1.550664">
				<ele>945</ele>
				<time>2018-04-28T17:37:03Z</time>
			</trkpt>
			<trkpt lat="42.964331" lon="-1.550728">
				<ele>945</ele>
				<time>2018-04-28T17:37:07Z</time>
			</trkpt>
			<trkpt lat="42.964303" lon="-1.550779">
				<ele>945</ele>
				<time>2018-04-28T17:37:11Z</time>
			</trkpt>
			<trkpt lat="42.964266" lon="-1.550842">
				<ele>945</ele>
				<time>2018-04-28T17:37:15Z</time>
			</trkpt>
			<trkpt lat="42.96423" lon="-1.550893">
				<ele>945</ele>
				<time>2018-04-28T17:37:21Z</time>
			</trkpt>
			<trkpt lat="42.964195" lon="-1.550957">
				<ele>945</ele>
				<time>2018-04-28T17:37:27Z</time>
			</trkpt>
			<trkpt lat="42.964173" lon="-1.551021">
				<ele>945</ele>
				<time>2018-04-28T17:37:31Z</time>
			</trkpt>
			<trkpt lat="42.964165" lon="-1.551088">
				<ele>945</ele>
				<time>2018-04-28T17:37:34Z</time>
			</trkpt>
			<trkpt lat="42.964149" lon="-1.551152">
				<ele>945</ele>
				<time>2018-04-28T17:37:38Z</time>
			</trkpt>
			<trkpt lat="42.964147" lon="-1.551221">
				<ele>945</ele>
				<time>2018-04-28T17:37:42Z</time>
			</trkpt>
			<trkpt lat="42.964137" lon="-1.551284">
				<ele>945</ele>
				<time>2018-04-28T17:37:45Z</time>
			</trkpt>
			<trkpt lat="42.964111" lon="-1.551338">
				<ele>945</ele>
				<time>2018-04-28T17:37:49Z</time>
			</trkpt>
			<trkpt lat="42.964059" lon="-1.551367">
				<ele>945</ele>
				<time>2018-04-28T17:37:53Z</time>
			</trkpt>
			<trkpt lat="42.964019" lon="-1.551415">
				<ele>945</ele>
				<time>2018-04-28T17:37:57Z</time>
			</trkpt>
			<trkpt lat="42.963969" lon="-1.551455">
				<ele>945</ele>
				<time>2018-04-28T17:38:01Z</time>
			</trkpt>
			<trkpt lat="42.963945" lon="-1.551525">
				<ele>945</ele>
				<time>2018-04-28T17:38:06Z</time>
			</trkpt>
			<trkpt lat="42.96393" lon="-1.551595">
				<ele>945</ele>
				<time>2018-04-28T17:38:10Z</time>
			</trkpt>
			<trkpt lat="42.963909" lon="-1.551661">
				<ele>945</ele>
				<time>2018-04-28T17:38:14Z</time>
			</trkpt>
			<trkpt lat="42.963919" lon="-1.551739">
				<ele>945</ele>
				<time>2018-04-28T17:38:19Z</time>
			</trkpt>
			<trkpt lat="42.963919" lon="-1.551805">
				<ele>945</ele>
				<time>2018-04-28T17:38:23Z</time>
			</trkpt>
			<trkpt lat="42.963919" lon="-1.551878">
				<ele>945</ele>
				<time>2018-04-28T17:38:27Z</time>
			</trkpt>
			<trkpt lat="42.963912" lon="-1.551951">
				<ele>945</ele>
				<time>2018-04-28T17:38:31Z</time>
			</trkpt>
			<trkpt lat="42.963895" lon="-1.552025">
				<ele>945</ele>
				<time>2018-04-28T17:38:35Z</time>
			</trkpt>
			<trkpt lat="42.963872" lon="-1.552094">
				<ele>960</ele>
				<time>2018-04-28T17:38:39Z</time>
			</trkpt>
			<trkpt lat="42.963841" lon="-1.552163">
				<ele>960</ele>
				<time>2018-04-28T17:38:43Z</time>
			</trkpt>
			<trkpt lat="42.963824" lon="-1.552243">
				<ele>960</ele>
				<time>2018-04-28T17:38:47Z</time>
			</trkpt>
			<trkpt lat="42.963825" lon="-1.552309">
				<ele>960</ele>
				<time>2018-04-28T17:38:50Z</time>
			</trkpt>
			<trkpt lat="42.963845" lon="-1.552386">
				<ele>960</ele>
				<time>2018-04-28T17:38:55Z</time>
			</trkpt>
			<trkpt lat="42.963859" lon="-1.552461">
				<ele>960</ele>
				<time>2018-04-28T17:38:59Z</time>
			</trkpt>
			<trkpt lat="42.963855" lon="-1.552524">
				<ele>960</ele>
				<time>2018-04-28T17:39:02Z</time>
			</trkpt>
			<trkpt lat="42.963844" lon="-1.552592">
				<ele>960</ele>
				<time>2018-04-28T17:39:06Z</time>
			</trkpt>
			<trkpt lat="42.96382" lon="-1.552668">
				<ele>960</ele>
				<time>2018-04-28T17:39:10Z</time>
			</trkpt>
			<trkpt lat="42.963805" lon="-1.552737">
				<ele>960</ele>
				<time>2018-04-28T17:39:13Z</time>
			</trkpt>
			<trkpt lat="42.963792" lon="-1.552799">
				<ele>960</ele>
				<time>2018-04-28T17:39:17Z</time>
			</trkpt>
			<trkpt lat="42.963787" lon="-1.552873">
				<ele>960</ele>
				<time>2018-04-28T17:39:21Z</time>
			</trkpt>
			<trkpt lat="42.963784" lon="-1.552951">
				<ele>960</ele>
				<time>2018-04-28T17:39:25Z</time>
			</trkpt>
			<trkpt lat="42.963779" lon="-1.553031">
				<ele>960</ele>
				<time>2018-04-28T17:39:29Z</time>
			</trkpt>
			<trkpt lat="42.963768" lon="-1.553095">
				<ele>960</ele>
				<time>2018-04-28T17:39:32Z</time>
			</trkpt>
			<trkpt lat="42.963747" lon="-1.553165">
				<ele>960</ele>
				<time>2018-04-28T17:39:36Z</time>
			</trkpt>
			<trkpt lat="42.963719" lon="-1.553228">
				<ele>960</ele>
				<time>2018-04-28T17:39:39Z</time>
			</trkpt>
			<trkpt lat="42.963692" lon="-1.553285">
				<ele>960</ele>
				<time>2018-04-28T17:39:43Z</time>
			</trkpt>
			<trkpt lat="42.9637" lon="-1.553348">
				<ele>960</ele>
				<time>2018-04-28T17:39:46Z</time>
			</trkpt>
			<trkpt lat="42.963704" lon="-1.553415">
				<ele>960</ele>
				<time>2018-04-28T17:39:50Z</time>
			</trkpt>
			<trkpt lat="42.963716" lon="-1.553474">
				<ele>960</ele>
				<time>2018-04-28T17:39:52Z</time>
			</trkpt>
			<trkpt lat="42.963735" lon="-1.55356">
				<ele>960</ele>
				<time>2018-04-28T17:39:55Z</time>
			</trkpt>
			<trkpt lat="42.963736" lon="-1.553635">
				<ele>960</ele>
				<time>2018-04-28T17:39:57Z</time>
			</trkpt>
			<trkpt lat="42.963734" lon="-1.553718">
				<ele>960</ele>
				<time>2018-04-28T17:40:00Z</time>
			</trkpt>
			<trkpt lat="42.96373" lon="-1.553795">
				<ele>960</ele>
				<time>2018-04-28T17:40:02Z</time>
			</trkpt>
			<trkpt lat="42.963702" lon="-1.553869">
				<ele>960</ele>
				<time>2018-04-28T17:40:05Z</time>
			</trkpt>
			<trkpt lat="42.963683" lon="-1.553928">
				<ele>960</ele>
				<time>2018-04-28T17:40:08Z</time>
			</trkpt>
			<trkpt lat="42.963652" lon="-1.554006">
				<ele>960</ele>
				<time>2018-04-28T17:40:11Z</time>
			</trkpt>
			<trkpt lat="42.963657" lon="-1.554096">
				<ele>960</ele>
				<time>2018-04-28T17:40:14Z</time>
			</trkpt>
			<trkpt lat="42.963659" lon="-1.554178">
				<ele>966</ele>
				<time>2018-04-28T17:40:17Z</time>
			</trkpt>
			<trkpt lat="42.963629" lon="-1.554255">
				<ele>966</ele>
				<time>2018-04-28T17:40:20Z</time>
			</trkpt>
			<trkpt lat="42.963597" lon="-1.55431">
				<ele>966</ele>
				<time>2018-04-28T17:40:24Z</time>
			</trkpt>
			<trkpt lat="42.963562" lon="-1.554384">
				<ele>966</ele>
				<time>2018-04-28T17:40:28Z</time>
			</trkpt>
			<trkpt lat="42.963523" lon="-1.554431">
				<ele>966</ele>
				<time>2018-04-28T17:40:31Z</time>
			</trkpt>
			<trkpt lat="42.963494" lon="-1.554507">
				<ele>966</ele>
				<time>2018-04-28T17:40:33Z</time>
			</trkpt>
			<trkpt lat="42.963466" lon="-1.554567">
				<ele>966</ele>
				<time>2018-04-28T17:40:35Z</time>
			</trkpt>
			<trkpt lat="42.963439" lon="-1.554632">
				<ele>966</ele>
				<time>2018-04-28T17:40:37Z</time>
			</trkpt>
			<trkpt lat="42.963423" lon="-1.554708">
				<ele>966</ele>
				<time>2018-04-28T17:40:39Z</time>
			</trkpt>
			<trkpt lat="42.963403" lon="-1.554773">
				<ele>966</ele>
				<time>2018-04-28T17:40:41Z</time>
			</trkpt>
			<trkpt lat="42.963368" lon="-1.554839">
				<ele>966</ele>
				<time>2018-04-28T17:40:44Z</time>
			</trkpt>
			<trkpt lat="42.963352" lon="-1.554903">
				<ele>966</ele>
				<time>2018-04-28T17:40:46Z</time>
			</trkpt>
			<trkpt lat="42.963334" lon="-1.554985">
				<ele>966</ele>
				<time>2018-04-28T17:40:49Z</time>
			</trkpt>
			<trkpt lat="42.963339" lon="-1.555068">
				<ele>966</ele>
				<time>2018-04-28T17:40:53Z</time>
			</trkpt>
			<trkpt lat="42.963325" lon="-1.555142">
				<ele>966</ele>
				<time>2018-04-28T17:40:57Z</time>
			</trkpt>
			<trkpt lat="42.963294" lon="-1.555197">
				<ele>966</ele>
				<time>2018-04-28T17:41:00Z</time>
			</trkpt>
			<trkpt lat="42.963275" lon="-1.555256">
				<ele>966</ele>
				<time>2018-04-28T17:41:02Z</time>
			</trkpt>
			<trkpt lat="42.96325" lon="-1.555325">
				<ele>966</ele>
				<time>2018-04-28T17:41:05Z</time>
			</trkpt>
			<trkpt lat="42.963222" lon="-1.555403">
				<ele>966</ele>
				<time>2018-04-28T17:41:09Z</time>
			</trkpt>
			<trkpt lat="42.963172" lon="-1.555456">
				<ele>966</ele>
				<time>2018-04-28T17:41:14Z</time>
			</trkpt>
			<trkpt lat="42.963158" lon="-1.555517">
				<ele>966</ele>
				<time>2018-04-28T17:41:16Z</time>
			</trkpt>
			<trkpt lat="42.963159" lon="-1.555592">
				<ele>966</ele>
				<time>2018-04-28T17:41:19Z</time>
			</trkpt>
			<trkpt lat="42.963132" lon="-1.555661">
				<ele>966</ele>
				<time>2018-04-28T17:41:23Z</time>
			</trkpt>
			<trkpt lat="42.963115" lon="-1.555743">
				<ele>966</ele>
				<time>2018-04-28T17:41:26Z</time>
			</trkpt>
			<trkpt lat="42.963103" lon="-1.555807">
				<ele>966</ele>
				<time>2018-04-28T17:41:29Z</time>
			</trkpt>
			<trkpt lat="42.963082" lon="-1.555872">
				<ele>966</ele>
				<time>2018-04-28T17:41:32Z</time>
			</trkpt>
			<trkpt lat="42.96306" lon="-1.55593">
				<ele>966</ele>
				<time>2018-04-28T17:41:35Z</time>
			</trkpt>
			<trkpt lat="42.963021" lon="-1.555992">
				<ele>966</ele>
				<time>2018-04-28T17:41:39Z</time>
			</trkpt>
			<trkpt lat="42.96299" lon="-1.556056">
				<ele>966</ele>
				<time>2018-04-28T17:41:43Z</time>
			</trkpt>
			<trkpt lat="42.962968" lon="-1.556117">
				<ele>966</ele>
				<time>2018-04-28T17:41:46Z</time>
			</trkpt>
			<trkpt lat="42.962943" lon="-1.556177">
				<ele>966</ele>
				<time>2018-04-28T17:41:50Z</time>
			</trkpt>
			<trkpt lat="42.962927" lon="-1.55625">
				<ele>966</ele>
				<time>2018-04-28T17:41:54Z</time>
			</trkpt>
			<trkpt lat="42.962896" lon="-1.556295">
				<ele>956</ele>
				<time>2018-04-28T17:41:56Z</time>
			</trkpt>
			<trkpt lat="42.962857" lon="-1.556335">
				<ele>956</ele>
				<time>2018-04-28T17:42:00Z</time>
			</trkpt>
			<trkpt lat="42.962818" lon="-1.556366">
				<ele>956</ele>
				<time>2018-04-28T17:42:03Z</time>
			</trkpt>
			<trkpt lat="42.962777" lon="-1.556409">
				<ele>956</ele>
				<time>2018-04-28T17:42:06Z</time>
			</trkpt>
			<trkpt lat="42.962735" lon="-1.55644">
				<ele>956</ele>
				<time>2018-04-28T17:42:10Z</time>
			</trkpt>
			<trkpt lat="42.962715" lon="-1.556506">
				<ele>956</ele>
				<time>2018-04-28T17:42:14Z</time>
			</trkpt>
			<trkpt lat="42.962695" lon="-1.556564">
				<ele>956</ele>
				<time>2018-04-28T17:42:16Z</time>
			</trkpt>
			<trkpt lat="42.962684" lon="-1.556631">
				<ele>956</ele>
				<time>2018-04-28T17:42:20Z</time>
			</trkpt>
			<trkpt lat="42.962654" lon="-1.5567">
				<ele>956</ele>
				<time>2018-04-28T17:42:25Z</time>
			</trkpt>
			<trkpt lat="42.962642" lon="-1.556762">
				<ele>956</ele>
				<time>2018-04-28T17:42:29Z</time>
			</trkpt>
			<trkpt lat="42.962609" lon="-1.556819">
				<ele>956</ele>
				<time>2018-04-28T17:42:33Z</time>
			</trkpt>
			<trkpt lat="42.962584" lon="-1.556875">
				<ele>956</ele>
				<time>2018-04-28T17:42:39Z</time>
			</trkpt>
			<trkpt lat="42.962554" lon="-1.556946">
				<ele>956</ele>
				<time>2018-04-28T17:42:44Z</time>
			</trkpt>
			<trkpt lat="42.962527" lon="-1.557013">
				<ele>956</ele>
				<time>2018-04-28T17:42:48Z</time>
			</trkpt>
			<trkpt lat="42.962501" lon="-1.557073">
				<ele>956</ele>
				<time>2018-04-28T17:42:51Z</time>
			</trkpt>
			<trkpt lat="42.962463" lon="-1.557167">
				<ele>996</ele>
				<time>2018-04-28T17:42:54Z</time>
			</trkpt>
			<trkpt lat="42.962433" lon="-1.55725">
				<ele>996</ele>
				<time>2018-04-28T17:42:57Z</time>
			</trkpt>
			<trkpt lat="42.962408" lon="-1.557302">
				<ele>996</ele>
				<time>2018-04-28T17:42:59Z</time>
			</trkpt>
			<trkpt lat="42.962381" lon="-1.557364">
				<ele>996</ele>
				<time>2018-04-28T17:43:02Z</time>
			</trkpt>
			<trkpt lat="42.962344" lon="-1.557404">
				<ele>996</ele>
				<time>2018-04-28T17:43:04Z</time>
			</trkpt>
			<trkpt lat="42.962332" lon="-1.557479">
				<ele>996</ele>
				<time>2018-04-28T17:43:07Z</time>
			</trkpt>
			<trkpt lat="42.962295" lon="-1.557532">
				<ele>996</ele>
				<time>2018-04-28T17:43:10Z</time>
			</trkpt>
			<trkpt lat="42.962292" lon="-1.55763">
				<ele>996</ele>
				<time>2018-04-28T17:43:13Z</time>
			</trkpt>
			<trkpt lat="42.962284" lon="-1.557691">
				<ele>996</ele>
				<time>2018-04-28T17:43:16Z</time>
			</trkpt>
			<trkpt lat="42.962272" lon="-1.557761">
				<ele>996</ele>
				<time>2018-04-28T17:43:19Z</time>
			</trkpt>
			<trkpt lat="42.962265" lon="-1.557837">
				<ele>996</ele>
				<time>2018-04-28T17:43:22Z</time>
			</trkpt>
			<trkpt lat="42.962243" lon="-1.55791">
				<ele>996</ele>
				<time>2018-04-28T17:43:26Z</time>
			</trkpt>
			<trkpt lat="42.962221" lon="-1.557975">
				<ele>996</ele>
				<time>2018-04-28T17:43:29Z</time>
			</trkpt>
			<trkpt lat="42.962205" lon="-1.55804">
				<ele>996</ele>
				<time>2018-04-28T17:43:32Z</time>
			</trkpt>
			<trkpt lat="42.962192" lon="-1.558109">
				<ele>996</ele>
				<time>2018-04-28T17:43:36Z</time>
			</trkpt>
			<trkpt lat="42.962175" lon="-1.558173">
				<ele>996</ele>
				<time>2018-04-28T17:43:39Z</time>
			</trkpt>
			<trkpt lat="42.962169" lon="-1.558234">
				<ele>996</ele>
				<time>2018-04-28T17:43:42Z</time>
			</trkpt>
			<trkpt lat="42.96216" lon="-1.558306">
				<ele>996</ele>
				<time>2018-04-28T17:43:44Z</time>
			</trkpt>
			<trkpt lat="42.962148" lon="-1.558381">
				<ele>1027</ele>
				<time>2018-04-28T17:43:49Z</time>
			</trkpt>
			<trkpt lat="42.962134" lon="-1.558441">
				<ele>1027</ele>
				<time>2018-04-28T17:43:52Z</time>
			</trkpt>
			<trkpt lat="42.962136" lon="-1.558514">
				<ele>1027</ele>
				<time>2018-04-28T17:43:56Z</time>
			</trkpt>
			<trkpt lat="42.962122" lon="-1.558575">
				<ele>1027</ele>
				<time>2018-04-28T17:44:01Z</time>
			</trkpt>
			<trkpt lat="42.962081" lon="-1.558621">
				<ele>1027</ele>
				<time>2018-04-28T17:44:05Z</time>
			</trkpt>
			<trkpt lat="42.96204" lon="-1.55866">
				<ele>1027</ele>
				<time>2018-04-28T17:44:09Z</time>
			</trkpt>
			<trkpt lat="42.962029" lon="-1.558723">
				<ele>1027</ele>
				<time>2018-04-28T17:44:13Z</time>
			</trkpt>
			<trkpt lat="42.962005" lon="-1.558778">
				<ele>1027</ele>
				<time>2018-04-28T17:44:17Z</time>
			</trkpt>
			<trkpt lat="42.961981" lon="-1.558835">
				<ele>1027</ele>
				<time>2018-04-28T17:44:22Z</time>
			</trkpt>
			<trkpt lat="42.961944" lon="-1.558883">
				<ele>1027</ele>
				<time>2018-04-28T17:44:27Z</time>
			</trkpt>
			<trkpt lat="42.961915" lon="-1.558936">
				<ele>1027</ele>
				<time>2018-04-28T17:44:31Z</time>
			</trkpt>
			<trkpt lat="42.961881" lon="-1.558992">
				<ele>1027</ele>
				<time>2018-04-28T17:44:36Z</time>
			</trkpt>
			<trkpt lat="42.961852" lon="-1.559042">
				<ele>1027</ele>
				<time>2018-04-28T17:44:44Z</time>
			</trkpt>
			<trkpt lat="42.96183" lon="-1.559096">
				<ele>1027</ele>
				<time>2018-04-28T17:44:47Z</time>
			</trkpt>
			<trkpt lat="42.961802" lon="-1.559155">
				<ele>1027</ele>
				<time>2018-04-28T17:44:54Z</time>
			</trkpt>
			<trkpt lat="42.961798" lon="-1.559222">
				<ele>1027</ele>
				<time>2018-04-28T17:45:00Z</time>
			</trkpt>
			<trkpt lat="42.961801" lon="-1.559288">
				<ele>1027</ele>
				<time>2018-04-28T17:45:05Z</time>
			</trkpt>
			<trkpt lat="42.961783" lon="-1.559349">
				<ele>1027</ele>
				<time>2018-04-28T17:45:14Z</time>
			</trkpt>
			<trkpt lat="42.961776" lon="-1.559415">
				<ele>1027</ele>
				<time>2018-04-28T17:45:26Z</time>
			</trkpt>
			<trkpt lat="42.961745" lon="-1.559462">
				<ele>1027</ele>
				<time>2018-04-28T17:45:34Z</time>
			</trkpt>
			<trkpt lat="42.961706" lon="-1.559496">
				<ele>1027</ele>
				<time>2018-04-28T17:45:37Z</time>
			</trkpt>
			<trkpt lat="42.961652" lon="-1.559523">
				<ele>1027</ele>
				<time>2018-04-28T17:45:41Z</time>
			</trkpt>
			<trkpt lat="42.961626" lon="-1.559587">
				<ele>1027</ele>
				<time>2018-04-28T17:45:46Z</time>
			</trkpt>
			<trkpt lat="42.9616" lon="-1.559641">
				<ele>1027</ele>
				<time>2018-04-28T17:45:51Z</time>
			</trkpt>
			<trkpt lat="42.96156" lon="-1.559679">
				<ele>1027</ele>
				<time>2018-04-28T17:45:55Z</time>
			</trkpt>
			<trkpt lat="42.961521" lon="-1.559725">
				<ele>1027</ele>
				<time>2018-04-28T17:45:58Z</time>
			</trkpt>
			<trkpt lat="42.961485" lon="-1.55978">
				<ele>1027</ele>
				<time>2018-04-28T17:46:04Z</time>
			</trkpt>
			<trkpt lat="42.961458" lon="-1.559856">
				<ele>1027</ele>
				<time>2018-04-28T17:46:13Z</time>
			</trkpt>
			<trkpt lat="42.961416" lon="-1.559879">
				<ele>1027</ele>
				<time>2018-04-28T17:46:19Z</time>
			</trkpt>
			<trkpt lat="42.96138" lon="-1.559937">
				<ele>1027</ele>
				<time>2018-04-28T17:46:31Z</time>
			</trkpt>
			<trkpt lat="42.961357" lon="-1.559996">
				<ele>1027</ele>
				<time>2018-04-28T17:46:35Z</time>
			</trkpt>
			<trkpt lat="42.961331" lon="-1.560062">
				<ele>1027</ele>
				<time>2018-04-28T17:46:40Z</time>
			</trkpt>
			<trkpt lat="42.961303" lon="-1.560112">
				<ele>1027</ele>
				<time>2018-04-28T17:46:44Z</time>
			</trkpt>
			<trkpt lat="42.961274" lon="-1.560167">
				<ele>1027</ele>
				<time>2018-04-28T17:46:49Z</time>
			</trkpt>
			<trkpt lat="42.961271" lon="-1.560244">
				<ele>1027</ele>
				<time>2018-04-28T17:46:52Z</time>
			</trkpt>
			<trkpt lat="42.961236" lon="-1.560301">
				<ele>1027</ele>
				<time>2018-04-28T17:46:55Z</time>
			</trkpt>
			<trkpt lat="42.961219" lon="-1.560371">
				<ele>1027</ele>
				<time>2018-04-28T17:47:00Z</time>
			</trkpt>
			<trkpt lat="42.961167" lon="-1.560387">
				<ele>1027</ele>
				<time>2018-04-28T17:47:16Z</time>
			</trkpt>
			<trkpt lat="42.961109" lon="-1.560434">
				<ele>1038</ele>
				<time>2018-04-28T17:47:23Z</time>
			</trkpt>
			<trkpt lat="42.961085" lon="-1.560493">
				<ele>1038</ele>
				<time>2018-04-28T17:47:29Z</time>
			</trkpt>
			<trkpt lat="42.96105" lon="-1.560533">
				<ele>1038</ele>
				<time>2018-04-28T17:47:38Z</time>
			</trkpt>
			<trkpt lat="42.960992" lon="-1.560567">
				<ele>1038</ele>
				<time>2018-04-28T17:47:50Z</time>
			</trkpt>
			<trkpt lat="42.960952" lon="-1.560605">
				<ele>1038</ele>
				<time>2018-04-28T17:47:56Z</time>
			</trkpt>
			<trkpt lat="42.960947" lon="-1.560671">
				<ele>1038</ele>
				<time>2018-04-28T17:47:59Z</time>
			</trkpt>
			<trkpt lat="42.960902" lon="-1.560725">
				<ele>1038</ele>
				<time>2018-04-28T17:48:03Z</time>
			</trkpt>
			<trkpt lat="42.960864" lon="-1.560758">
				<ele>1038</ele>
				<time>2018-04-28T17:48:09Z</time>
			</trkpt>
			<trkpt lat="42.960817" lon="-1.560802">
				<ele>1038</ele>
				<time>2018-04-28T17:48:11Z</time>
			</trkpt>
			<trkpt lat="42.960796" lon="-1.560876">
				<ele>1038</ele>
				<time>2018-04-28T17:48:15Z</time>
			</trkpt>
			<trkpt lat="42.960766" lon="-1.560932">
				<ele>1038</ele>
				<time>2018-04-28T17:48:20Z</time>
			</trkpt>
			<trkpt lat="42.960744" lon="-1.560991">
				<ele>1038</ele>
				<time>2018-04-28T17:48:27Z</time>
			</trkpt>
			<trkpt lat="42.960713" lon="-1.561042">
				<ele>1038</ele>
				<time>2018-04-28T17:48:34Z</time>
			</trkpt>
			<trkpt lat="42.960689" lon="-1.5611">
				<ele>1038</ele>
				<time>2018-04-28T17:48:47Z</time>
			</trkpt>
			<trkpt lat="42.960634" lon="-1.561121">
				<ele>1038</ele>
				<time>2018-04-28T17:49:04Z</time>
			</trkpt>
			<trkpt lat="42.960588" lon="-1.561157">
				<ele>1038</ele>
				<time>2018-04-28T17:49:10Z</time>
			</trkpt>
			<trkpt lat="42.96053" lon="-1.561177">
				<ele>1038</ele>
				<time>2018-04-28T17:49:18Z</time>
			</trkpt>
			<trkpt lat="42.960483" lon="-1.561191">
				<ele>1038</ele>
				<time>2018-04-28T17:49:24Z</time>
			</trkpt>
			<trkpt lat="42.960439" lon="-1.561176">
				<ele>1038</ele>
				<time>2018-04-28T17:49:31Z</time>
			</trkpt>
			<trkpt lat="42.96038" lon="-1.561201">
				<ele>1117</ele>
				<time>2018-04-28T17:49:44Z</time>
			</trkpt>
			<trkpt lat="42.960336" lon="-1.56122">
				<ele>1117</ele>
				<time>2018-04-28T17:49:51Z</time>
			</trkpt>
			<trkpt lat="42.960289" lon="-1.561243">
				<ele>1117</ele>
				<time>2018-04-28T17:49:57Z</time>
			</trkpt>
			<trkpt lat="42.960254" lon="-1.561289">
				<ele>1117</ele>
				<time>2018-04-28T17:50:01Z</time>
			</trkpt>
			<trkpt lat="42.960202" lon="-1.561292">
				<ele>1117</ele>
				<time>2018-04-28T17:50:10Z</time>
			</trkpt>
			<trkpt lat="42.960192" lon="-1.56137">
				<ele>1117</ele>
				<time>2018-04-28T17:50:20Z</time>
			</trkpt>
			<trkpt lat="42.960149" lon="-1.5614">
				<ele>1117</ele>
				<time>2018-04-28T17:50:27Z</time>
			</trkpt>
			<trkpt lat="42.960108" lon="-1.561466">
				<ele>1117</ele>
				<time>2018-04-28T17:50:37Z</time>
			</trkpt>
			<trkpt lat="42.960086" lon="-1.56152">
				<ele>1117</ele>
				<time>2018-04-28T17:50:42Z</time>
			</trkpt>
			<trkpt lat="42.960044" lon="-1.561552">
				<ele>1117</ele>
				<time>2018-04-28T17:50:47Z</time>
			</trkpt>
			<trkpt lat="42.960002" lon="-1.561582">
				<ele>1117</ele>
				<time>2018-04-28T17:50:52Z</time>
			</trkpt>
			<trkpt lat="42.959948" lon="-1.561606">
				<ele>1117</ele>
				<time>2018-04-28T17:50:55Z</time>
			</trkpt>
			<trkpt lat="42.959907" lon="-1.56165">
				<ele>1117</ele>
				<time>2018-04-28T17:51:11Z</time>
			</trkpt>
			<trkpt lat="42.959878" lon="-1.561701">
				<ele>1117</ele>
				<time>2018-04-28T17:51:21Z</time>
			</trkpt>
			<trkpt lat="42.959826" lon="-1.561724">
				<ele>1117</ele>
				<time>2018-04-28T17:51:23Z</time>
			</trkpt>
			<trkpt lat="42.959778" lon="-1.561725">
				<ele>1117</ele>
				<time>2018-04-28T17:51:31Z</time>
			</trkpt>
			<trkpt lat="42.959725" lon="-1.561748">
				<ele>1117</ele>
				<time>2018-04-28T17:51:40Z</time>
			</trkpt>
			<trkpt lat="42.95967" lon="-1.561729">
				<ele>1117</ele>
				<time>2018-04-28T17:51:47Z</time>
			</trkpt>
			<trkpt lat="42.959624" lon="-1.561704">
				<ele>1117</ele>
				<time>2018-04-28T17:51:59Z</time>
			</trkpt>
			<trkpt lat="42.959566" lon="-1.561708">
				<ele>1117</ele>
				<time>2018-04-28T17:52:05Z</time>
			</trkpt>
			<trkpt lat="42.959524" lon="-1.561685">
				<ele>1117</ele>
				<time>2018-04-28T17:52:10Z</time>
			</trkpt>
			<trkpt lat="42.959483" lon="-1.561654">
				<ele>1117</ele>
				<time>2018-04-28T17:52:24Z</time>
			</trkpt>
			<trkpt lat="42.959431" lon="-1.561634">
				<ele>1117</ele>
				<time>2018-04-28T17:52:32Z</time>
			</trkpt>
			<trkpt lat="42.959389" lon="-1.561599">
				<ele>1117</ele>
				<time>2018-04-28T17:52:38Z</time>
			</trkpt>
			<trkpt lat="42.959333" lon="-1.561605">
				<ele>1117</ele>
				<time>2018-04-28T17:52:43Z</time>
			</trkpt>
			<trkpt lat="42.959287" lon="-1.56159">
				<ele>1117</ele>
				<time>2018-04-28T17:52:49Z</time>
			</trkpt>
			<trkpt lat="42.95924" lon="-1.561576">
				<ele>1117</ele>
				<time>2018-04-28T17:52:59Z</time>
			</trkpt>
			<trkpt lat="42.9592" lon="-1.561605">
				<ele>1117</ele>
				<time>2018-04-28T17:53:04Z</time>
			</trkpt>
			<trkpt lat="42.959144" lon="-1.561598">
				<ele>1117</ele>
				<time>2018-04-28T17:53:14Z</time>
			</trkpt>
			<trkpt lat="42.959096" lon="-1.561597">
				<ele>1117</ele>
				<time>2018-04-28T17:53:20Z</time>
			</trkpt>
			<trkpt lat="42.959058" lon="-1.561633">
				<ele>1117</ele>
				<time>2018-04-28T17:53:30Z</time>
			</trkpt>
			<trkpt lat="42.959006" lon="-1.561643">
				<ele>1117</ele>
				<time>2018-04-28T17:53:39Z</time>
			</trkpt>
			<trkpt lat="42.958966" lon="-1.561612">
				<ele>1117</ele>
				<time>2018-04-28T17:53:46Z</time>
			</trkpt>
			<trkpt lat="42.958917" lon="-1.56162">
				<ele>1117</ele>
				<time>2018-04-28T17:53:50Z</time>
			</trkpt>
			<trkpt lat="42.958873" lon="-1.561603">
				<ele>1117</ele>
				<time>2018-04-28T17:53:58Z</time>
			</trkpt>
			<trkpt lat="42.95882" lon="-1.56159">
				<ele>1117</ele>
				<time>2018-04-28T17:54:07Z</time>
			</trkpt>
			<trkpt lat="42.958773" lon="-1.561569">
				<ele>1117</ele>
				<time>2018-04-28T17:54:13Z</time>
			</trkpt>
			<trkpt lat="42.958732" lon="-1.561535">
				<ele>1117</ele>
				<time>2018-04-28T17:54:20Z</time>
			</trkpt>
			<trkpt lat="42.958677" lon="-1.561548">
				<ele>1117</ele>
				<time>2018-04-28T17:54:29Z</time>
			</trkpt>
			<trkpt lat="42.95862" lon="-1.561543">
				<ele>1117</ele>
				<time>2018-04-28T17:54:37Z</time>
			</trkpt>
			<trkpt lat="42.958576" lon="-1.561529">
				<ele>1117</ele>
				<time>2018-04-28T17:54:41Z</time>
			</trkpt>
			<trkpt lat="42.95853" lon="-1.561513">
				<ele>1117</ele>
				<time>2018-04-28T17:54:45Z</time>
			</trkpt>
			<trkpt lat="42.958484" lon="-1.561479">
				<ele>1117</ele>
				<time>2018-04-28T17:54:50Z</time>
			</trkpt>
			<trkpt lat="42.958436" lon="-1.561462">
				<ele>1117</ele>
				<time>2018-04-28T17:54:55Z</time>
			</trkpt>
			<trkpt lat="42.958393" lon="-1.561438">
				<ele>1117</ele>
				<time>2018-04-28T17:54:59Z</time>
			</trkpt>
			<trkpt lat="42.958346" lon="-1.561419">
				<ele>1117</ele>
				<time>2018-04-28T17:55:04Z</time>
			</trkpt>
			<trkpt lat="42.958298" lon="-1.561434">
				<ele>1098</ele>
				<time>2018-04-28T17:55:27Z</time>
			</trkpt>
			<trkpt lat="42.958276" lon="-1.561415">
				<ele>1098</ele>
				<time>2019-11-12T18:14:31Z</time>
			</trkpt>
			<trkpt lat="42.958957" lon="-1.559391">
				<ele>1108</ele>
				<time>2019-11-12T18:10:59Z</time>
			</trkpt>
			<trkpt lat="42.958801" lon="-1.559333">
				<ele>1108</ele>
				<time>2019-11-12T18:10:40Z</time>
			</trkpt>
			<trkpt lat="42.95847" lon="-1.559515">
				<ele>1108</ele>
				<time>2019-11-12T18:10:07Z</time>
			</trkpt>
			<trkpt lat="42.958629" lon="-1.558463">
				<ele>1108</ele>
				<time>2019-11-12T18:08:38Z</time>
			</trkpt>
			<trkpt lat="42.958577" lon="-1.557743">
				<ele>1050</ele>
				<time>2019-11-12T18:07:45Z</time>
			</trkpt>
			<trkpt lat="42.955966" lon="-1.554386">
				<ele>983</ele>
				<time>2019-11-12T18:04:12Z</time>
			</trkpt>
			<trkpt lat="42.95486" lon="-1.552417">
				<ele>1001</ele>
				<time>2019-11-12T18:02:29Z</time>
			</trkpt>
			<trkpt lat="42.954258" lon="-1.551611">
				<ele>969</ele>
				<time>2019-11-12T18:01:19Z</time>
			</trkpt>
			<trkpt lat="42.954487" lon="-1.551046">
				<ele>969</ele>
				<time>2019-11-12T18:00:50Z</time>
			</trkpt>
			<trkpt lat="42.954525" lon="-1.55038">
				<ele>969</ele>
				<time>2019-11-12T18:00:22Z</time>
			</trkpt>
			<trkpt lat="42.95427" lon="-1.54932">
				<ele>937</ele>
				<time>2019-11-12T17:59:50Z</time>
			</trkpt>
			<trkpt lat="42.954106" lon="-1.549071">
				<ele>935</ele>
				<time>2018-04-28T18:12:54Z</time>
			</trkpt>
			<trkpt lat="42.954085" lon="-1.549012">
				<ele>935</ele>
				<time>2018-04-28T18:12:56Z</time>
			</trkpt>
			<trkpt lat="42.954046" lon="-1.548934">
				<ele>935</ele>
				<time>2018-04-28T18:12:59Z</time>
			</trkpt>
			<trkpt lat="42.95401" lon="-1.548857">
				<ele>935</ele>
				<time>2018-04-28T18:13:02Z</time>
			</trkpt>
			<trkpt lat="42.95398" lon="-1.548802">
				<ele>935</ele>
				<time>2018-04-28T18:13:04Z</time>
			</trkpt>
			<trkpt lat="42.953931" lon="-1.548747">
				<ele>935</ele>
				<time>2018-04-28T18:13:07Z</time>
			</trkpt>
			<trkpt lat="42.953887" lon="-1.548698">
				<ele>935</ele>
				<time>2018-04-28T18:13:09Z</time>
			</trkpt>
			<trkpt lat="42.953855" lon="-1.548649">
				<ele>935</ele>
				<time>2018-04-28T18:13:11Z</time>
			</trkpt>
			<trkpt lat="42.953812" lon="-1.54859">
				<ele>935</ele>
				<time>2018-04-28T18:13:14Z</time>
			</trkpt>
			<trkpt lat="42.95377" lon="-1.548561">
				<ele>935</ele>
				<time>2018-04-28T18:13:16Z</time>
			</trkpt>
			<trkpt lat="42.953736" lon="-1.548506">
				<ele>935</ele>
				<time>2018-04-28T18:13:19Z</time>
			</trkpt>
			<trkpt lat="42.953686" lon="-1.54846">
				<ele>935</ele>
				<time>2018-04-28T18:13:22Z</time>
			</trkpt>
			<trkpt lat="42.953637" lon="-1.548422">
				<ele>935</ele>
				<time>2018-04-28T18:13:24Z</time>
			</trkpt>
			<trkpt lat="42.953598" lon="-1.548373">
				<ele>935</ele>
				<time>2018-04-28T18:13:26Z</time>
			</trkpt>
			<trkpt lat="42.953548" lon="-1.548337">
				<ele>935</ele>
				<time>2018-04-28T18:13:30Z</time>
			</trkpt>
			<trkpt lat="42.95351" lon="-1.548274">
				<ele>935</ele>
				<time>2018-04-28T18:13:33Z</time>
			</trkpt>
			<trkpt lat="42.953472" lon="-1.548225">
				<ele>935</ele>
				<time>2018-04-28T18:13:36Z</time>
			</trkpt>
			<trkpt lat="42.95343" lon="-1.548164">
				<ele>935</ele>
				<time>2018-04-28T18:13:39Z</time>
			</trkpt>
			<trkpt lat="42.953394" lon="-1.548101">
				<ele>935</ele>
				<time>2018-04-28T18:13:43Z</time>
			</trkpt>
			<trkpt lat="42.953365" lon="-1.548042">
				<ele>935</ele>
				<time>2018-04-28T18:13:47Z</time>
			</trkpt>
			<trkpt lat="42.95333" lon="-1.547999">
				<ele>935</ele>
				<time>2018-04-28T18:13:50Z</time>
			</trkpt>
			<trkpt lat="42.953307" lon="-1.547932">
				<ele>935</ele>
				<time>2018-04-28T18:13:53Z</time>
			</trkpt>
			<trkpt lat="42.953285" lon="-1.547868">
				<ele>949</ele>
				<time>2018-04-28T18:13:56Z</time>
			</trkpt>
			<trkpt lat="42.953266" lon="-1.547796">
				<ele>949</ele>
				<time>2018-04-28T18:13:59Z</time>
			</trkpt>
			<trkpt lat="42.953251" lon="-1.54773">
				<ele>949</ele>
				<time>2018-04-28T18:14:03Z</time>
			</trkpt>
			<trkpt lat="42.953235" lon="-1.547662">
				<ele>949</ele>
				<time>2018-04-28T18:14:06Z</time>
			</trkpt>
			<trkpt lat="42.953219" lon="-1.547597">
				<ele>949</ele>
				<time>2018-04-28T18:14:09Z</time>
			</trkpt>
			<trkpt lat="42.953205" lon="-1.547525">
				<ele>949</ele>
				<time>2018-04-28T18:14:12Z</time>
			</trkpt>
			<trkpt lat="42.953181" lon="-1.547433">
				<ele>949</ele>
				<time>2018-04-28T18:14:15Z</time>
			</trkpt>
			<trkpt lat="42.953138" lon="-1.547375">
				<ele>949</ele>
				<time>2018-04-28T18:14:19Z</time>
			</trkpt>
			<trkpt lat="42.953112" lon="-1.547317">
				<ele>949</ele>
				<time>2018-04-28T18:14:22Z</time>
			</trkpt>
			<trkpt lat="42.953077" lon="-1.54726">
				<ele>949</ele>
				<time>2018-04-28T18:14:26Z</time>
			</trkpt>
			<trkpt lat="42.953046" lon="-1.547208">
				<ele>949</ele>
				<time>2018-04-28T18:14:29Z</time>
			</trkpt>
			<trkpt lat="42.953014" lon="-1.547153">
				<ele>949</ele>
				<time>2018-04-28T18:14:32Z</time>
			</trkpt>
			<trkpt lat="42.952984" lon="-1.547094">
				<ele>949</ele>
				<time>2018-04-28T18:14:36Z</time>
			</trkpt>
			<trkpt lat="42.952945" lon="-1.547043">
				<ele>949</ele>
				<time>2018-04-28T18:14:39Z</time>
			</trkpt>
			<trkpt lat="42.952919" lon="-1.546976">
				<ele>949</ele>
				<time>2018-04-28T18:14:42Z</time>
			</trkpt>
			<trkpt lat="42.952876" lon="-1.546908">
				<ele>949</ele>
				<time>2018-04-28T18:14:46Z</time>
			</trkpt>
			<trkpt lat="42.952865" lon="-1.546838">
				<ele>949</ele>
				<time>2018-04-28T18:14:49Z</time>
			</trkpt>
			<trkpt lat="42.952844" lon="-1.546769">
				<ele>949</ele>
				<time>2018-04-28T18:14:52Z</time>
			</trkpt>
			<trkpt lat="42.952807" lon="-1.546717">
				<ele>949</ele>
				<time>2018-04-28T18:14:55Z</time>
			</trkpt>
			<trkpt lat="42.952773" lon="-1.546673">
				<ele>949</ele>
				<time>2018-04-28T18:14:58Z</time>
			</trkpt>
			<trkpt lat="42.952747" lon="-1.546612">
				<ele>949</ele>
				<time>2018-04-28T18:15:01Z</time>
			</trkpt>
			<trkpt lat="42.952722" lon="-1.546547">
				<ele>949</ele>
				<time>2018-04-28T18:15:04Z</time>
			</trkpt>
			<trkpt lat="42.952687" lon="-1.546483">
				<ele>949</ele>
				<time>2018-04-28T18:15:08Z</time>
			</trkpt>
			<trkpt lat="42.952644" lon="-1.546419">
				<ele>949</ele>
				<time>2018-04-28T18:15:11Z</time>
			</trkpt>
			<trkpt lat="42.95262" lon="-1.546364">
				<ele>949</ele>
				<time>2018-04-28T18:15:14Z</time>
			</trkpt>
			<trkpt lat="42.952587" lon="-1.546316">
				<ele>949</ele>
				<time>2018-04-28T18:15:17Z</time>
			</trkpt>
			<trkpt lat="42.952551" lon="-1.546265">
				<ele>949</ele>
				<time>2018-04-28T18:15:20Z</time>
			</trkpt>
			<trkpt lat="42.952508" lon="-1.546202">
				<ele>949</ele>
				<time>2018-04-28T18:15:23Z</time>
			</trkpt>
			<trkpt lat="42.952483" lon="-1.546135">
				<ele>949</ele>
				<time>2018-04-28T18:15:26Z</time>
			</trkpt>
			<trkpt lat="42.952441" lon="-1.546087">
				<ele>949</ele>
				<time>2018-04-28T18:15:30Z</time>
			</trkpt>
			<trkpt lat="42.952401" lon="-1.546025">
				<ele>949</ele>
				<time>2018-04-28T18:15:34Z</time>
			</trkpt>
			<trkpt lat="42.952372" lon="-1.545971">
				<ele>949</ele>
				<time>2018-04-28T18:15:37Z</time>
			</trkpt>
			<trkpt lat="42.952337" lon="-1.545919">
				<ele>949</ele>
				<time>2018-04-28T18:15:40Z</time>
			</trkpt>
			<trkpt lat="42.952292" lon="-1.54587">
				<ele>949</ele>
				<time>2018-04-28T18:15:43Z</time>
			</trkpt>
			<trkpt lat="42.952258" lon="-1.545813">
				<ele>943</ele>
				<time>2018-04-28T18:15:46Z</time>
			</trkpt>
			<trkpt lat="42.952221" lon="-1.545753">
				<ele>943</ele>
				<time>2018-04-28T18:15:49Z</time>
			</trkpt>
			<trkpt lat="42.952185" lon="-1.545711">
				<ele>943</ele>
				<time>2018-04-28T18:15:52Z</time>
			</trkpt>
			<trkpt lat="42.952152" lon="-1.545631">
				<ele>943</ele>
				<time>2018-04-28T18:15:55Z</time>
			</trkpt>
			<trkpt lat="42.952119" lon="-1.545578">
				<ele>943</ele>
				<time>2018-04-28T18:15:58Z</time>
			</trkpt>
			<trkpt lat="42.952093" lon="-1.545519">
				<ele>943</ele>
				<time>2018-04-28T18:16:01Z</time>
			</trkpt>
			<trkpt lat="42.952065" lon="-1.545459">
				<ele>939</ele>
				<time>2018-04-28T18:16:04Z</time>
			</trkpt>
			<trkpt lat="42.952034" lon="-1.545387">
				<ele>939</ele>
				<time>2018-04-28T18:16:07Z</time>
			</trkpt>
			<trkpt lat="42.952005" lon="-1.545337">
				<ele>939</ele>
				<time>2018-04-28T18:16:10Z</time>
			</trkpt>
			<trkpt lat="42.951973" lon="-1.545283">
				<ele>939</ele>
				<time>2018-04-28T18:16:13Z</time>
			</trkpt>
			<trkpt lat="42.951945" lon="-1.545216">
				<ele>939</ele>
				<time>2018-04-28T18:16:16Z</time>
			</trkpt>
			<trkpt lat="42.951917" lon="-1.545151">
				<ele>939</ele>
				<time>2018-04-28T18:16:19Z</time>
			</trkpt>
			<trkpt lat="42.951882" lon="-1.545099">
				<ele>939</ele>
				<time>2018-04-28T18:16:22Z</time>
			</trkpt>
			<trkpt lat="42.951841" lon="-1.545039">
				<ele>939</ele>
				<time>2018-04-28T18:16:26Z</time>
			</trkpt>
			<trkpt lat="42.951807" lon="-1.544987">
				<ele>939</ele>
				<time>2018-04-28T18:16:30Z</time>
			</trkpt>
			<trkpt lat="42.951772" lon="-1.544926">
				<ele>939</ele>
				<time>2018-04-28T18:16:33Z</time>
			</trkpt>
			<trkpt lat="42.951725" lon="-1.544871">
				<ele>939</ele>
				<time>2018-04-28T18:16:36Z</time>
			</trkpt>
			<trkpt lat="42.951696" lon="-1.544813">
				<ele>939</ele>
				<time>2018-04-28T18:16:39Z</time>
			</trkpt>
			<trkpt lat="42.951655" lon="-1.544773">
				<ele>939</ele>
				<time>2018-04-28T18:16:42Z</time>
			</trkpt>
			<trkpt lat="42.951604" lon="-1.544735">
				<ele>939</ele>
				<time>2018-04-28T18:16:45Z</time>
			</trkpt>
			<trkpt lat="42.951557" lon="-1.544681">
				<ele>939</ele>
				<time>2018-04-28T18:16:49Z</time>
			</trkpt>
			<trkpt lat="42.951523" lon="-1.54462">
				<ele>939</ele>
				<time>2018-04-28T18:16:52Z</time>
			</trkpt>
			<trkpt lat="42.951489" lon="-1.544554">
				<ele>939</ele>
				<time>2018-04-28T18:16:55Z</time>
			</trkpt>
			<trkpt lat="42.95145" lon="-1.544501">
				<ele>939</ele>
				<time>2018-04-28T18:16:58Z</time>
			</trkpt>
			<trkpt lat="42.951423" lon="-1.544442">
				<ele>939</ele>
				<time>2018-04-28T18:17:01Z</time>
			</trkpt>
			<trkpt lat="42.951385" lon="-1.544394">
				<ele>939</ele>
				<time>2018-04-28T18:17:04Z</time>
			</trkpt>
			<trkpt lat="42.951357" lon="-1.544331">
				<ele>939</ele>
				<time>2018-04-28T18:17:07Z</time>
			</trkpt>
			<trkpt lat="42.951324" lon="-1.544283">
				<ele>939</ele>
				<time>2018-04-28T18:17:10Z</time>
			</trkpt>
			<trkpt lat="42.951296" lon="-1.544223">
				<ele>939</ele>
				<time>2018-04-28T18:17:15Z</time>
			</trkpt>
			<trkpt lat="42.951269" lon="-1.544154">
				<ele>939</ele>
				<time>2018-04-28T18:17:18Z</time>
			</trkpt>
			<trkpt lat="42.95123" lon="-1.544114">
				<ele>939</ele>
				<time>2018-04-28T18:17:21Z</time>
			</trkpt>
			<trkpt lat="42.951197" lon="-1.544046">
				<ele>939</ele>
				<time>2018-04-28T18:17:24Z</time>
			</trkpt>
			<trkpt lat="42.951169" lon="-1.543966">
				<ele>939</ele>
				<time>2018-04-28T18:17:27Z</time>
			</trkpt>
			<trkpt lat="42.951148" lon="-1.543907">
				<ele>939</ele>
				<time>2018-04-28T18:17:30Z</time>
			</trkpt>
			<trkpt lat="42.951135" lon="-1.543838">
				<ele>939</ele>
				<time>2018-04-28T18:17:33Z</time>
			</trkpt>
			<trkpt lat="42.95114" lon="-1.543777">
				<ele>939</ele>
				<time>2018-04-28T18:17:36Z</time>
			</trkpt>
			<trkpt lat="42.95115" lon="-1.543702">
				<ele>908</ele>
				<time>2018-04-28T18:17:40Z</time>
			</trkpt>
			<trkpt lat="42.951137" lon="-1.543636">
				<ele>908</ele>
				<time>2018-04-28T18:17:43Z</time>
			</trkpt>
			<trkpt lat="42.951169" lon="-1.543568">
				<ele>908</ele>
				<time>2018-04-28T18:17:47Z</time>
			</trkpt>
			<trkpt lat="42.951184" lon="-1.543494">
				<ele>908</ele>
				<time>2018-04-28T18:17:50Z</time>
			</trkpt>
			<trkpt lat="42.951209" lon="-1.543432">
				<ele>908</ele>
				<time>2018-04-28T18:17:53Z</time>
			</trkpt>
			<trkpt lat="42.951225" lon="-1.543368">
				<ele>908</ele>
				<time>2018-04-28T18:17:56Z</time>
			</trkpt>
			<trkpt lat="42.951217" lon="-1.543297">
				<ele>908</ele>
				<time>2018-04-28T18:18:00Z</time>
			</trkpt>
			<trkpt lat="42.951215" lon="-1.543233">
				<ele>908</ele>
				<time>2018-04-28T18:18:03Z</time>
			</trkpt>
			<trkpt lat="42.951203" lon="-1.543155">
				<ele>908</ele>
				<time>2018-04-28T18:18:07Z</time>
			</trkpt>
			<trkpt lat="42.951196" lon="-1.543094">
				<ele>908</ele>
				<time>2018-04-28T18:18:10Z</time>
			</trkpt>
			<trkpt lat="42.951174" lon="-1.543024">
				<ele>908</ele>
				<time>2018-04-28T18:18:13Z</time>
			</trkpt>
			<trkpt lat="42.951166" lon="-1.542953">
				<ele>908</ele>
				<time>2018-04-28T18:18:17Z</time>
			</trkpt>
			<trkpt lat="42.951178" lon="-1.542882">
				<ele>908</ele>
				<time>2018-04-28T18:18:21Z</time>
			</trkpt>
			<trkpt lat="42.951192" lon="-1.542815">
				<ele>908</ele>
				<time>2018-04-28T18:18:24Z</time>
			</trkpt>
			<trkpt lat="42.95117" lon="-1.542737">
				<ele>908</ele>
				<time>2018-04-28T18:18:28Z</time>
			</trkpt>
			<trkpt lat="42.951158" lon="-1.542675">
				<ele>908</ele>
				<time>2018-04-28T18:18:31Z</time>
			</trkpt>
			<trkpt lat="42.95115" lon="-1.542606">
				<ele>908</ele>
				<time>2018-04-28T18:18:35Z</time>
			</trkpt>
			<trkpt lat="42.951135" lon="-1.542532">
				<ele>908</ele>
				<time>2018-04-28T18:18:40Z</time>
			</trkpt>
			<trkpt lat="42.951125" lon="-1.542464">
				<ele>908</ele>
				<time>2018-04-28T18:18:46Z</time>
			</trkpt>
			<trkpt lat="42.951095" lon="-1.542412">
				<ele>908</ele>
				<time>2018-04-28T18:18:52Z</time>
			</trkpt>
			<trkpt lat="42.95112" lon="-1.542341">
				<ele>908</ele>
				<time>2018-04-28T18:18:57Z</time>
			</trkpt>
			<trkpt lat="42.95114" lon="-1.542284">
				<ele>908</ele>
				<time>2018-04-28T18:19:00Z</time>
			</trkpt>
			<trkpt lat="42.951161" lon="-1.542221">
				<ele>908</ele>
				<time>2018-04-28T18:19:04Z</time>
			</trkpt>
			<trkpt lat="42.951185" lon="-1.542151">
				<ele>908</ele>
				<time>2018-04-28T18:19:07Z</time>
			</trkpt>
			<trkpt lat="42.951205" lon="-1.542043">
				<ele>908</ele>
				<time>2018-04-28T18:19:11Z</time>
			</trkpt>
			<trkpt lat="42.951177" lon="-1.541981">
				<ele>908</ele>
				<time>2018-04-28T18:19:22Z</time>
			</trkpt>
			<trkpt lat="42.951142" lon="-1.541921">
				<ele>908</ele>
				<time>2018-04-28T18:19:29Z</time>
			</trkpt>
			<trkpt lat="42.951135" lon="-1.54185">
				<ele>908</ele>
				<time>2018-04-28T18:19:36Z</time>
			</trkpt>
			<trkpt lat="42.951111" lon="-1.541795">
				<ele>908</ele>
				<time>2018-04-28T18:19:43Z</time>
			</trkpt>
			<trkpt lat="42.951069" lon="-1.541763">
				<ele>908</ele>
				<time>2018-04-28T18:19:50Z</time>
			</trkpt>
			<trkpt lat="42.951024" lon="-1.54176">
				<ele>908</ele>
				<time>2018-04-28T18:19:58Z</time>
			</trkpt>
			<trkpt lat="42.950973" lon="-1.541729">
				<ele>908</ele>
				<time>2018-04-28T18:20:05Z</time>
			</trkpt>
			<trkpt lat="42.950933" lon="-1.541684">
				<ele>908</ele>
				<time>2018-04-28T18:20:11Z</time>
			</trkpt>
			<trkpt lat="42.950899" lon="-1.541638">
				<ele>866</ele>
				<time>2018-04-28T18:20:16Z</time>
			</trkpt>
			<trkpt lat="42.950845" lon="-1.541618">
				<ele>866</ele>
				<time>2018-04-28T18:20:20Z</time>
			</trkpt>
			<trkpt lat="42.950792" lon="-1.541575">
				<ele>866</ele>
				<time>2018-04-28T18:20:26Z</time>
			</trkpt>
			<trkpt lat="42.950756" lon="-1.541532">
				<ele>866</ele>
				<time>2018-04-28T18:20:33Z</time>
			</trkpt>
			<trkpt lat="42.950718" lon="-1.541497">
				<ele>866</ele>
				<time>2018-04-28T18:20:37Z</time>
			</trkpt>
			<trkpt lat="42.950701" lon="-1.541421">
				<ele>866</ele>
				<time>2018-04-28T18:20:43Z</time>
			</trkpt>
			<trkpt lat="42.95069" lon="-1.541349">
				<ele>866</ele>
				<time>2018-04-28T18:20:47Z</time>
			</trkpt>
			<trkpt lat="42.950691" lon="-1.541272">
				<ele>866</ele>
				<time>2018-04-28T18:20:51Z</time>
			</trkpt>
			<trkpt lat="42.950687" lon="-1.541193">
				<ele>866</ele>
				<time>2018-04-28T18:20:55Z</time>
			</trkpt>
			<trkpt lat="42.950677" lon="-1.54113">
				<ele>866</ele>
				<time>2018-04-28T18:21:00Z</time>
			</trkpt>
			<trkpt lat="42.950672" lon="-1.541068">
				<ele>866</ele>
				<time>2018-04-28T18:21:04Z</time>
			</trkpt>
			<trkpt lat="42.950672" lon="-1.541004">
				<ele>866</ele>
				<time>2018-04-28T18:21:08Z</time>
			</trkpt>
			<trkpt lat="42.950665" lon="-1.540935">
				<ele>866</ele>
				<time>2018-04-28T18:21:12Z</time>
			</trkpt>
			<trkpt lat="42.950648" lon="-1.54086">
				<ele>866</ele>
				<time>2018-04-28T18:21:16Z</time>
			</trkpt>
			<trkpt lat="42.950655" lon="-1.540788">
				<ele>866</ele>
				<time>2018-04-28T18:21:20Z</time>
			</trkpt>
			<trkpt lat="42.950658" lon="-1.54072">
				<ele>866</ele>
				<time>2018-04-28T18:21:23Z</time>
			</trkpt>
			<trkpt lat="42.95066" lon="-1.540651">
				<ele>866</ele>
				<time>2018-04-28T18:21:27Z</time>
			</trkpt>
			<trkpt lat="42.950643" lon="-1.540588">
				<ele>866</ele>
				<time>2018-04-28T18:21:32Z</time>
			</trkpt>
			<trkpt lat="42.950653" lon="-1.540521">
				<ele>866</ele>
				<time>2018-04-28T18:21:37Z</time>
			</trkpt>
			<trkpt lat="42.950626" lon="-1.540469">
				<ele>866</ele>
				<time>2018-04-28T18:21:44Z</time>
			</trkpt>
			<trkpt lat="42.95058" lon="-1.540498">
				<ele>866</ele>
				<time>2018-04-28T18:21:51Z</time>
			</trkpt>
			<trkpt lat="42.950535" lon="-1.540519">
				<ele>866</ele>
				<time>2018-04-28T18:21:59Z</time>
			</trkpt>
			<trkpt lat="42.950498" lon="-1.540567">
				<ele>866</ele>
				<time>2018-04-28T18:22:03Z</time>
			</trkpt>
			<trkpt lat="42.950473" lon="-1.540625">
				<ele>866</ele>
				<time>2018-04-28T18:22:07Z</time>
			</trkpt>
			<trkpt lat="42.950441" lon="-1.540686">
				<ele>866</ele>
				<time>2018-04-28T18:22:10Z</time>
			</trkpt>
			<trkpt lat="42.950422" lon="-1.540748">
				<ele>866</ele>
				<time>2018-04-28T18:22:16Z</time>
			</trkpt>
			<trkpt lat="42.95037" lon="-1.540774">
				<ele>866</ele>
				<time>2018-04-28T18:22:21Z</time>
			</trkpt>
			<trkpt lat="42.950326" lon="-1.540807">
				<ele>866</ele>
				<time>2018-04-28T18:22:24Z</time>
			</trkpt>
			<trkpt lat="42.950287" lon="-1.540851">
				<ele>866</ele>
				<time>2018-04-28T18:22:29Z</time>
			</trkpt>
			<trkpt lat="42.950235" lon="-1.540843">
				<ele>866</ele>
				<time>2018-04-28T18:22:33Z</time>
			</trkpt>
			<trkpt lat="42.950203" lon="-1.5408">
				<ele>866</ele>
				<time>2018-04-28T18:22:37Z</time>
			</trkpt>
			<trkpt lat="42.950187" lon="-1.540742">
				<ele>866</ele>
				<time>2018-04-28T18:22:40Z</time>
			</trkpt>
			<trkpt lat="42.950188" lon="-1.540665">
				<ele>866</ele>
				<time>2018-04-28T18:22:44Z</time>
			</trkpt>
			<trkpt lat="42.950166" lon="-1.540595">
				<ele>866</ele>
				<time>2018-04-28T18:22:48Z</time>
			</trkpt>
			<trkpt lat="42.950131" lon="-1.540555">
				<ele>866</ele>
				<time>2018-04-28T18:22:52Z</time>
			</trkpt>
			<trkpt lat="42.950124" lon="-1.540479">
				<ele>866</ele>
				<time>2018-04-28T18:22:57Z</time>
			</trkpt>
			<trkpt lat="42.9501" lon="-1.54042">
				<ele>866</ele>
				<time>2018-04-28T18:23:02Z</time>
			</trkpt>
			<trkpt lat="42.950049" lon="-1.540389">
				<ele>866</ele>
				<time>2018-04-28T18:23:07Z</time>
			</trkpt>
			<trkpt lat="42.950008" lon="-1.540361">
				<ele>866</ele>
				<time>2018-04-28T18:23:11Z</time>
			</trkpt>
			<trkpt lat="42.949974" lon="-1.54032">
				<ele>797</ele>
				<time>2018-04-28T18:23:15Z</time>
			</trkpt>
			<trkpt lat="42.949931" lon="-1.540292">
				<ele>797</ele>
				<time>2018-04-28T18:23:20Z</time>
			</trkpt>
			<trkpt lat="42.949895" lon="-1.540238">
				<ele>797</ele>
				<time>2018-04-28T18:23:24Z</time>
			</trkpt>
			<trkpt lat="42.949849" lon="-1.540215">
				<ele>797</ele>
				<time>2018-04-28T18:23:29Z</time>
			</trkpt>
			<trkpt lat="42.949827" lon="-1.540153">
				<ele>797</ele>
				<time>2018-04-28T18:23:34Z</time>
			</trkpt>
			<trkpt lat="42.949814" lon="-1.540088">
				<ele>797</ele>
				<time>2018-04-28T18:23:38Z</time>
			</trkpt>
			<trkpt lat="42.949794" lon="-1.540023">
				<ele>797</ele>
				<time>2018-04-28T18:23:42Z</time>
			</trkpt>
			<trkpt lat="42.949767" lon="-1.539961">
				<ele>797</ele>
				<time>2018-04-28T18:23:48Z</time>
			</trkpt>
			<trkpt lat="42.949748" lon="-1.539898">
				<ele>797</ele>
				<time>2018-04-28T18:23:53Z</time>
			</trkpt>
			<trkpt lat="42.949718" lon="-1.539847">
				<ele>797</ele>
				<time>2018-04-28T18:23:57Z</time>
			</trkpt>
			<trkpt lat="42.949701" lon="-1.539774">
				<ele>797</ele>
				<time>2018-04-28T18:24:01Z</time>
			</trkpt>
			<trkpt lat="42.949683" lon="-1.539712">
				<ele>797</ele>
				<time>2018-04-28T18:24:04Z</time>
			</trkpt>
			<trkpt lat="42.949663" lon="-1.539649">
				<ele>797</ele>
				<time>2018-04-28T18:24:08Z</time>
			</trkpt>
			<trkpt lat="42.949644" lon="-1.539578">
				<ele>777</ele>
				<time>2018-04-28T18:24:13Z</time>
			</trkpt>
			<trkpt lat="42.949615" lon="-1.539509">
				<ele>777</ele>
				<time>2018-04-28T18:24:16Z</time>
			</trkpt>
			<trkpt lat="42.949573" lon="-1.539456">
				<ele>777</ele>
				<time>2018-04-28T18:24:20Z</time>
			</trkpt>
			<trkpt lat="42.949526" lon="-1.539411">
				<ele>777</ele>
				<time>2018-04-28T18:24:24Z</time>
			</trkpt>
			<trkpt lat="42.949493" lon="-1.539364">
				<ele>777</ele>
				<time>2018-04-28T18:24:28Z</time>
			</trkpt>
			<trkpt lat="42.949447" lon="-1.539333">
				<ele>777</ele>
				<time>2018-04-28T18:24:32Z</time>
			</trkpt>
			<trkpt lat="42.9494" lon="-1.53931">
				<ele>777</ele>
				<time>2018-04-28T18:24:35Z</time>
			</trkpt>
			<trkpt lat="42.949361" lon="-1.539267">
				<ele>777</ele>
				<time>2018-04-28T18:24:40Z</time>
			</trkpt>
			<trkpt lat="42.949346" lon="-1.539205">
				<ele>777</ele>
				<time>2018-04-28T18:24:45Z</time>
			</trkpt>
			<trkpt lat="42.949369" lon="-1.539133">
				<ele>777</ele>
				<time>2018-04-28T18:25:14Z</time>
			</trkpt>
			<trkpt lat="42.949409" lon="-1.539075">
				<ele>777</ele>
				<time>2018-04-28T18:25:17Z</time>
			</trkpt>
			<trkpt lat="42.949448" lon="-1.539033">
				<ele>777</ele>
				<time>2018-04-28T18:25:20Z</time>
			</trkpt>
			<trkpt lat="42.949484" lon="-1.538985">
				<ele>777</ele>
				<time>2018-04-28T18:25:24Z</time>
			</trkpt>
			<trkpt lat="42.949523" lon="-1.538926">
				<ele>777</ele>
				<time>2018-04-28T18:25:27Z</time>
			</trkpt>
			<trkpt lat="42.949572" lon="-1.538872">
				<ele>777</ele>
				<time>2018-04-28T18:25:30Z</time>
			</trkpt>
			<trkpt lat="42.949607" lon="-1.538833">
				<ele>777</ele>
				<time>2018-04-28T18:25:33Z</time>
			</trkpt>
			<trkpt lat="42.949651" lon="-1.538783">
				<ele>777</ele>
				<time>2018-04-28T18:25:36Z</time>
			</trkpt>
			<trkpt lat="42.94969" lon="-1.538735">
				<ele>777</ele>
				<time>2018-04-28T18:25:39Z</time>
			</trkpt>
			<trkpt lat="42.949738" lon="-1.538671">
				<ele>777</ele>
				<time>2018-04-28T18:25:42Z</time>
			</trkpt>
			<trkpt lat="42.949776" lon="-1.538626">
				<ele>777</ele>
				<time>2018-04-28T18:25:45Z</time>
			</trkpt>
			<trkpt lat="42.94981" lon="-1.538584">
				<ele>777</ele>
				<time>2018-04-28T18:25:48Z</time>
			</trkpt>
			<trkpt lat="42.949844" lon="-1.538523">
				<ele>777</ele>
				<time>2018-04-28T18:25:52Z</time>
			</trkpt>
			<trkpt lat="42.949868" lon="-1.538465">
				<ele>777</ele>
				<time>2018-04-28T18:25:55Z</time>
			</trkpt>
			<trkpt lat="42.949895" lon="-1.538407">
				<ele>777</ele>
				<time>2018-04-28T18:25:58Z</time>
			</trkpt>
			<trkpt lat="42.949916" lon="-1.538323">
				<ele>777</ele>
				<time>2018-04-28T18:26:02Z</time>
			</trkpt>
			<trkpt lat="42.949939" lon="-1.538257">
				<ele>777</ele>
				<time>2018-04-28T18:26:05Z</time>
			</trkpt>
			<trkpt lat="42.949944" lon="-1.538174">
				<ele>777</ele>
				<time>2018-04-28T18:26:08Z</time>
			</trkpt>
			<trkpt lat="42.949959" lon="-1.538101">
				<ele>777</ele>
				<time>2018-04-28T18:26:11Z</time>
			</trkpt>
			<trkpt lat="42.949957" lon="-1.538034">
				<ele>777</ele>
				<time>2018-04-28T18:26:14Z</time>
			</trkpt>
			<trkpt lat="42.949971" lon="-1.537968">
				<ele>777</ele>
				<time>2018-04-28T18:26:17Z</time>
			</trkpt>
			<trkpt lat="42.949986" lon="-1.537891">
				<ele>777</ele>
				<time>2018-04-28T18:26:21Z</time>
			</trkpt>
			<trkpt lat="42.950007" lon="-1.537814">
				<ele>844</ele>
				<time>2018-04-28T18:26:25Z</time>
			</trkpt>
			<trkpt lat="42.950031" lon="-1.537752">
				<ele>844</ele>
				<time>2018-04-28T18:26:29Z</time>
			</trkpt>
			<trkpt lat="42.95007" lon="-1.537689">
				<ele>844</ele>
				<time>2018-04-28T18:26:32Z</time>
			</trkpt>
			<trkpt lat="42.9501" lon="-1.537635">
				<ele>844</ele>
				<time>2018-04-28T18:26:35Z</time>
			</trkpt>
			<trkpt lat="42.950122" lon="-1.537556">
				<ele>844</ele>
				<time>2018-04-28T18:26:38Z</time>
			</trkpt>
			<trkpt lat="42.950152" lon="-1.537509">
				<ele>844</ele>
				<time>2018-04-28T18:26:40Z</time>
			</trkpt>
			<trkpt lat="42.950179" lon="-1.537445">
				<ele>800</ele>
				<time>2018-04-28T18:26:43Z</time>
			</trkpt>
			<trkpt lat="42.950203" lon="-1.537386">
				<ele>800</ele>
				<time>2018-04-28T18:26:46Z</time>
			</trkpt>
			<trkpt lat="42.950239" lon="-1.537328">
				<ele>800</ele>
				<time>2018-04-28T18:26:49Z</time>
			</trkpt>
			<trkpt lat="42.950279" lon="-1.537263">
				<ele>800</ele>
				<time>2018-04-28T18:26:53Z</time>
			</trkpt>
			<trkpt lat="42.950305" lon="-1.537211">
				<ele>800</ele>
				<time>2018-04-28T18:26:56Z</time>
			</trkpt>
			<trkpt lat="42.950331" lon="-1.537156">
				<ele>800</ele>
				<time>2018-04-28T18:26:59Z</time>
			</trkpt>
			<trkpt lat="42.95036" lon="-1.537099">
				<ele>800</ele>
				<time>2018-04-28T18:27:02Z</time>
			</trkpt>
			<trkpt lat="42.950383" lon="-1.537046">
				<ele>800</ele>
				<time>2018-04-28T18:27:04Z</time>
			</trkpt>
			<trkpt lat="42.950422" lon="-1.537014">
				<ele>800</ele>
				<time>2018-04-28T18:27:06Z</time>
			</trkpt>
			<trkpt lat="42.950448" lon="-1.536949">
				<ele>800</ele>
				<time>2018-04-28T18:27:09Z</time>
			</trkpt>
			<trkpt lat="42.950458" lon="-1.536878">
				<ele>800</ele>
				<time>2018-04-28T18:27:12Z</time>
			</trkpt>
			<trkpt lat="42.950479" lon="-1.536812">
				<ele>800</ele>
				<time>2018-04-28T18:27:15Z</time>
			</trkpt>
			<trkpt lat="42.950497" lon="-1.536753">
				<ele>800</ele>
				<time>2018-04-28T18:27:17Z</time>
			</trkpt>
			<trkpt lat="42.950513" lon="-1.53668">
				<ele>800</ele>
				<time>2018-04-28T18:27:20Z</time>
			</trkpt>
			<trkpt lat="42.950524" lon="-1.536619">
				<ele>800</ele>
				<time>2018-04-28T18:27:23Z</time>
			</trkpt>
			<trkpt lat="42.950513" lon="-1.536546">
				<ele>800</ele>
				<time>2018-04-28T18:27:27Z</time>
			</trkpt>
			<trkpt lat="42.950527" lon="-1.536477">
				<ele>800</ele>
				<time>2018-04-28T18:27:31Z</time>
			</trkpt>
			<trkpt lat="42.950528" lon="-1.536409">
				<ele>800</ele>
				<time>2018-04-28T18:27:34Z</time>
			</trkpt>
			<trkpt lat="42.95053" lon="-1.536339">
				<ele>800</ele>
				<time>2018-04-28T18:27:37Z</time>
			</trkpt>
			<trkpt lat="42.950535" lon="-1.536269">
				<ele>800</ele>
				<time>2018-04-28T18:27:40Z</time>
			</trkpt>
			<trkpt lat="42.950524" lon="-1.536194">
				<ele>800</ele>
				<time>2018-04-28T18:27:43Z</time>
			</trkpt>
			<trkpt lat="42.950501" lon="-1.536116">
				<ele>800</ele>
				<time>2018-04-28T18:27:47Z</time>
			</trkpt>
			<trkpt lat="42.950462" lon="-1.536064">
				<ele>800</ele>
				<time>2018-04-28T18:27:51Z</time>
			</trkpt>
			<trkpt lat="42.950431" lon="-1.536002">
				<ele>800</ele>
				<time>2018-04-28T18:27:54Z</time>
			</trkpt>
			<trkpt lat="42.950394" lon="-1.53594">
				<ele>800</ele>
				<time>2018-04-28T18:27:58Z</time>
			</trkpt>
			<trkpt lat="42.950384" lon="-1.535862">
				<ele>800</ele>
				<time>2018-04-28T18:28:02Z</time>
			</trkpt>
			<trkpt lat="42.950383" lon="-1.535779">
				<ele>800</ele>
				<time>2018-04-28T18:28:05Z</time>
			</trkpt>
			<trkpt lat="42.950381" lon="-1.535717">
				<ele>800</ele>
				<time>2018-04-28T18:28:08Z</time>
			</trkpt>
			<trkpt lat="42.950373" lon="-1.535641">
				<ele>800</ele>
				<time>2018-04-28T18:28:11Z</time>
			</trkpt>
			<trkpt lat="42.950362" lon="-1.535565">
				<ele>800</ele>
				<time>2018-04-28T18:28:14Z</time>
			</trkpt>
			<trkpt lat="42.950369" lon="-1.535494">
				<ele>800</ele>
				<time>2018-04-28T18:28:17Z</time>
			</trkpt>
			<trkpt lat="42.950376" lon="-1.535412">
				<ele>767</ele>
				<time>2018-04-28T18:28:20Z</time>
			</trkpt>
			<trkpt lat="42.950388" lon="-1.535334">
				<ele>767</ele>
				<time>2018-04-28T18:28:23Z</time>
			</trkpt>
			<trkpt lat="42.950395" lon="-1.535271">
				<ele>767</ele>
				<time>2018-04-28T18:28:26Z</time>
			</trkpt>
			<trkpt lat="42.950404" lon="-1.535202">
				<ele>767</ele>
				<time>2018-04-28T18:28:29Z</time>
			</trkpt>
			<trkpt lat="42.950406" lon="-1.535138">
				<ele>767</ele>
				<time>2018-04-28T18:28:31Z</time>
			</trkpt>
			<trkpt lat="42.950413" lon="-1.535069">
				<ele>767</ele>
				<time>2018-04-28T18:28:34Z</time>
			</trkpt>
			<trkpt lat="42.950401" lon="-1.535008">
				<ele>767</ele>
				<time>2018-04-28T18:28:37Z</time>
			</trkpt>
			<trkpt lat="42.9504" lon="-1.534927">
				<ele>767</ele>
				<time>2018-04-28T18:28:40Z</time>
			</trkpt>
			<trkpt lat="42.95039" lon="-1.534859">
				<ele>767</ele>
				<time>2018-04-28T18:28:44Z</time>
			</trkpt>
			<trkpt lat="42.950391" lon="-1.534791">
				<ele>767</ele>
				<time>2018-04-28T18:28:47Z</time>
			</trkpt>
			<trkpt lat="42.950385" lon="-1.534711">
				<ele>767</ele>
				<time>2018-04-28T18:28:50Z</time>
			</trkpt>
			<trkpt lat="42.950384" lon="-1.534635">
				<ele>767</ele>
				<time>2018-04-28T18:28:53Z</time>
			</trkpt>
			<trkpt lat="42.950365" lon="-1.534549">
				<ele>767</ele>
				<time>2018-04-28T18:28:56Z</time>
			</trkpt>
			<trkpt lat="42.95036" lon="-1.53448">
				<ele>767</ele>
				<time>2018-04-28T18:28:58Z</time>
			</trkpt>
			<trkpt lat="42.950354" lon="-1.534399">
				<ele>767</ele>
				<time>2018-04-28T18:29:01Z</time>
			</trkpt>
			<trkpt lat="42.950352" lon="-1.534334">
				<ele>767</ele>
				<time>2018-04-28T18:29:03Z</time>
			</trkpt>
			<trkpt lat="42.950334" lon="-1.53425">
				<ele>767</ele>
				<time>2018-04-28T18:29:06Z</time>
			</trkpt>
			<trkpt lat="42.950339" lon="-1.53417">
				<ele>767</ele>
				<time>2018-04-28T18:29:09Z</time>
			</trkpt>
			<trkpt lat="42.950332" lon="-1.534108">
				<ele>767</ele>
				<time>2018-04-28T18:29:11Z</time>
			</trkpt>
			<trkpt lat="42.950312" lon="-1.534021">
				<ele>767</ele>
				<time>2018-04-28T18:29:14Z</time>
			</trkpt>
			<trkpt lat="42.950312" lon="-1.533956">
				<ele>767</ele>
				<time>2018-04-28T18:29:16Z</time>
			</trkpt>
			<trkpt lat="42.950315" lon="-1.533857">
				<ele>767</ele>
				<time>2018-04-28T18:29:19Z</time>
			</trkpt>
			<trkpt lat="42.95032" lon="-1.533769">
				<ele>767</ele>
				<time>2018-04-28T18:29:22Z</time>
			</trkpt>
			<trkpt lat="42.950343" lon="-1.533686">
				<ele>767</ele>
				<time>2018-04-28T18:29:24Z</time>
			</trkpt>
			<trkpt lat="42.950342" lon="-1.533606">
				<ele>767</ele>
				<time>2018-04-28T18:29:27Z</time>
			</trkpt>
			<trkpt lat="42.95035" lon="-1.533511">
				<ele>767</ele>
				<time>2018-04-28T18:29:30Z</time>
			</trkpt>
			<trkpt lat="42.950365" lon="-1.533438">
				<ele>767</ele>
				<time>2018-04-28T18:29:33Z</time>
			</trkpt>
			<trkpt lat="42.95038" lon="-1.533356">
				<ele>767</ele>
				<time>2018-04-28T18:29:36Z</time>
			</trkpt>
			<trkpt lat="42.95039" lon="-1.533271">
				<ele>775</ele>
				<time>2018-04-28T18:29:40Z</time>
			</trkpt>
			<trkpt lat="42.950408" lon="-1.533194">
				<ele>775</ele>
				<time>2018-04-28T18:29:42Z</time>
			</trkpt>
			<trkpt lat="42.950402" lon="-1.533113">
				<ele>775</ele>
				<time>2018-04-28T18:29:45Z</time>
			</trkpt>
			<trkpt lat="42.950417" lon="-1.53305">
				<ele>775</ele>
				<time>2018-04-28T18:29:48Z</time>
			</trkpt>
			<trkpt lat="42.950426" lon="-1.532986">
				<ele>775</ele>
				<time>2018-04-28T18:29:51Z</time>
			</trkpt>
			<trkpt lat="42.95043" lon="-1.532914">
				<ele>775</ele>
				<time>2018-04-28T18:29:54Z</time>
			</trkpt>
			<trkpt lat="42.950447" lon="-1.532853">
				<ele>775</ele>
				<time>2018-04-28T18:29:56Z</time>
			</trkpt>
			<trkpt lat="42.950464" lon="-1.532773">
				<ele>775</ele>
				<time>2018-04-28T18:29:59Z</time>
			</trkpt>
			<trkpt lat="42.95047" lon="-1.532705">
				<ele>775</ele>
				<time>2018-04-28T18:30:02Z</time>
			</trkpt>
			<trkpt lat="42.950478" lon="-1.532643">
				<ele>775</ele>
				<time>2018-04-28T18:30:05Z</time>
			</trkpt>
			<trkpt lat="42.9505" lon="-1.532584">
				<ele>775</ele>
				<time>2018-04-28T18:30:07Z</time>
			</trkpt>
			<trkpt lat="42.950501" lon="-1.532519">
				<ele>775</ele>
				<time>2018-04-28T18:30:09Z</time>
			</trkpt>
			<trkpt lat="42.950507" lon="-1.532457">
				<ele>775</ele>
				<time>2018-04-28T18:30:11Z</time>
			</trkpt>
			<trkpt lat="42.95053" lon="-1.5324">
				<ele>775</ele>
				<time>2018-04-28T18:30:13Z</time>
			</trkpt>
			<trkpt lat="42.950533" lon="-1.53233">
				<ele>775</ele>
				<time>2018-04-28T18:30:15Z</time>
			</trkpt>
			<trkpt lat="42.950551" lon="-1.532269">
				<ele>775</ele>
				<time>2018-04-28T18:30:18Z</time>
			</trkpt>
			<trkpt lat="42.950552" lon="-1.532185">
				<ele>775</ele>
				<time>2018-04-28T18:30:20Z</time>
			</trkpt>
			<trkpt lat="42.950567" lon="-1.532122">
				<ele>775</ele>
				<time>2018-04-28T18:30:23Z</time>
			</trkpt>
			<trkpt lat="42.950576" lon="-1.532051">
				<ele>775</ele>
				<time>2018-04-28T18:30:25Z</time>
			</trkpt>
			<trkpt lat="42.950596" lon="-1.531966">
				<ele>775</ele>
				<time>2018-04-28T18:30:28Z</time>
			</trkpt>
			<trkpt lat="42.950626" lon="-1.531909">
				<ele>775</ele>
				<time>2018-04-28T18:30:31Z</time>
			</trkpt>
			<trkpt lat="42.950636" lon="-1.531835">
				<ele>775</ele>
				<time>2018-04-28T18:30:34Z</time>
			</trkpt>
			<trkpt lat="42.950639" lon="-1.531769">
				<ele>775</ele>
				<time>2018-04-28T18:30:37Z</time>
			</trkpt>
			<trkpt lat="42.950655" lon="-1.531696">
				<ele>775</ele>
				<time>2018-04-28T18:30:40Z</time>
			</trkpt>
			<trkpt lat="42.950649" lon="-1.53162">
				<ele>775</ele>
				<time>2018-04-28T18:30:43Z</time>
			</trkpt>
			<trkpt lat="42.950672" lon="-1.53153">
				<ele>775</ele>
				<time>2018-04-28T18:30:46Z</time>
			</trkpt>
			<trkpt lat="42.950671" lon="-1.531446">
				<ele>775</ele>
				<time>2018-04-28T18:30:49Z</time>
			</trkpt>
			<trkpt lat="42.950679" lon="-1.531357">
				<ele>775</ele>
				<time>2018-04-28T18:30:52Z</time>
			</trkpt>
			<trkpt lat="42.950676" lon="-1.531278">
				<ele>775</ele>
				<time>2018-04-28T18:30:55Z</time>
			</trkpt>
			<trkpt lat="42.950676" lon="-1.531208">
				<ele>787</ele>
				<time>2018-04-28T18:30:59Z</time>
			</trkpt>
			<trkpt lat="42.95067" lon="-1.531145">
				<ele>787</ele>
				<time>2018-04-28T18:31:01Z</time>
			</trkpt>
			<trkpt lat="42.950688" lon="-1.531086">
				<ele>787</ele>
				<time>2018-04-28T18:31:03Z</time>
			</trkpt>
			<trkpt lat="42.950691" lon="-1.530997">
				<ele>787</ele>
				<time>2018-04-28T18:31:06Z</time>
			</trkpt>
			<trkpt lat="42.950705" lon="-1.530913">
				<ele>787</ele>
				<time>2018-04-28T18:31:09Z</time>
			</trkpt>
			<trkpt lat="42.950685" lon="-1.530841">
				<ele>787</ele>
				<time>2018-04-28T18:31:13Z</time>
			</trkpt>
			<trkpt lat="42.950686" lon="-1.530773">
				<ele>787</ele>
				<time>2018-04-28T18:31:16Z</time>
			</trkpt>
			<trkpt lat="42.950686" lon="-1.530711">
				<ele>787</ele>
				<time>2018-04-28T18:31:19Z</time>
			</trkpt>
			<trkpt lat="42.950679" lon="-1.53062">
				<ele>787</ele>
				<time>2018-04-28T18:31:22Z</time>
			</trkpt>
			<trkpt lat="42.950684" lon="-1.530535">
				<ele>787</ele>
				<time>2018-04-28T18:31:26Z</time>
			</trkpt>
			<trkpt lat="42.950676" lon="-1.530467">
				<ele>787</ele>
				<time>2018-04-28T18:31:28Z</time>
			</trkpt>
			<trkpt lat="42.950666" lon="-1.530389">
				<ele>787</ele>
				<time>2018-04-28T18:31:31Z</time>
			</trkpt>
			<trkpt lat="42.950638" lon="-1.530322">
				<ele>787</ele>
				<time>2018-04-28T18:31:34Z</time>
			</trkpt>
			<trkpt lat="42.950618" lon="-1.53026">
				<ele>787</ele>
				<time>2018-04-28T18:31:36Z</time>
			</trkpt>
			<trkpt lat="42.950614" lon="-1.530198">
				<ele>787</ele>
				<time>2018-04-28T18:31:40Z</time>
			</trkpt>
			<trkpt lat="42.950606" lon="-1.530117">
				<ele>787</ele>
				<time>2018-04-28T18:31:44Z</time>
			</trkpt>
			<trkpt lat="42.950606" lon="-1.530049">
				<ele>787</ele>
				<time>2018-04-28T18:31:47Z</time>
			</trkpt>
			<trkpt lat="42.950599" lon="-1.529983">
				<ele>787</ele>
				<time>2018-04-28T18:31:50Z</time>
			</trkpt>
			<trkpt lat="42.950583" lon="-1.529917">
				<ele>787</ele>
				<time>2018-04-28T18:31:54Z</time>
			</trkpt>
			<trkpt lat="42.950551" lon="-1.529857">
				<ele>787</ele>
				<time>2018-04-28T18:31:58Z</time>
			</trkpt>
			<trkpt lat="42.950519" lon="-1.529787">
				<ele>787</ele>
				<time>2018-04-28T18:32:02Z</time>
			</trkpt>
			<trkpt lat="42.950513" lon="-1.52971">
				<ele>787</ele>
				<time>2018-04-28T18:32:05Z</time>
			</trkpt>
			<trkpt lat="42.950491" lon="-1.52965">
				<ele>787</ele>
				<time>2018-04-28T18:32:08Z</time>
			</trkpt>
			<trkpt lat="42.950477" lon="-1.529578">
				<ele>787</ele>
				<time>2018-04-28T18:32:12Z</time>
			</trkpt>
			<trkpt lat="42.950471" lon="-1.529514">
				<ele>787</ele>
				<time>2018-04-28T18:32:14Z</time>
			</trkpt>
			<trkpt lat="42.950474" lon="-1.529446">
				<ele>787</ele>
				<time>2018-04-28T18:32:18Z</time>
			</trkpt>
			<trkpt lat="42.950487" lon="-1.529366">
				<ele>787</ele>
				<time>2018-04-28T18:32:22Z</time>
			</trkpt>
			<trkpt lat="42.950493" lon="-1.529296">
				<ele>787</ele>
				<time>2018-04-28T18:32:25Z</time>
			</trkpt>
			<trkpt lat="42.950477" lon="-1.529233">
				<ele>787</ele>
				<time>2018-04-28T18:32:28Z</time>
			</trkpt>
			<trkpt lat="42.950482" lon="-1.529169">
				<ele>787</ele>
				<time>2018-04-28T18:32:31Z</time>
			</trkpt>
			<trkpt lat="42.950487" lon="-1.529102">
				<ele>791</ele>
				<time>2018-04-28T18:32:34Z</time>
			</trkpt>
			<trkpt lat="42.950486" lon="-1.529033">
				<ele>791</ele>
				<time>2018-04-28T18:32:37Z</time>
			</trkpt>
			<trkpt lat="42.950498" lon="-1.52895">
				<ele>791</ele>
				<time>2018-04-28T18:32:41Z</time>
			</trkpt>
			<trkpt lat="42.950495" lon="-1.528878">
				<ele>791</ele>
				<time>2018-04-28T18:32:44Z</time>
			</trkpt>
			<trkpt lat="42.950488" lon="-1.528801">
				<ele>791</ele>
				<time>2018-04-28T18:32:48Z</time>
			</trkpt>
			<trkpt lat="42.950486" lon="-1.528716">
				<ele>791</ele>
				<time>2018-04-28T18:32:52Z</time>
			</trkpt>
			<trkpt lat="42.950479" lon="-1.528648">
				<ele>791</ele>
				<time>2018-04-28T18:32:55Z</time>
			</trkpt>
			<trkpt lat="42.950478" lon="-1.528572">
				<ele>791</ele>
				<time>2018-04-28T18:32:58Z</time>
			</trkpt>
			<trkpt lat="42.950459" lon="-1.528511">
				<ele>791</ele>
				<time>2018-04-28T18:33:01Z</time>
			</trkpt>
			<trkpt lat="42.950433" lon="-1.52846">
				<ele>791</ele>
				<time>2018-04-28T18:33:04Z</time>
			</trkpt>
			<trkpt lat="42.950411" lon="-1.52838">
				<ele>791</ele>
				<time>2018-04-28T18:33:07Z</time>
			</trkpt>
			<trkpt lat="42.950394" lon="-1.528321">
				<ele>791</ele>
				<time>2018-04-28T18:33:10Z</time>
			</trkpt>
			<trkpt lat="42.950364" lon="-1.528272">
				<ele>791</ele>
				<time>2018-04-28T18:33:13Z</time>
			</trkpt>
			<trkpt lat="42.950344" lon="-1.52819">
				<ele>791</ele>
				<time>2018-04-28T18:33:17Z</time>
			</trkpt>
			<trkpt lat="42.950344" lon="-1.528112">
				<ele>791</ele>
				<time>2018-04-28T18:33:20Z</time>
			</trkpt>
			<trkpt lat="42.950358" lon="-1.528024">
				<ele>791</ele>
				<time>2018-04-28T18:33:23Z</time>
			</trkpt>
			<trkpt lat="42.950384" lon="-1.527958">
				<ele>791</ele>
				<time>2018-04-28T18:33:26Z</time>
			</trkpt>
			<trkpt lat="42.950411" lon="-1.527906">
				<ele>791</ele>
				<time>2018-04-28T18:33:28Z</time>
			</trkpt>
			<trkpt lat="42.950444" lon="-1.527835">
				<ele>791</ele>
				<time>2018-04-28T18:33:31Z</time>
			</trkpt>
			<trkpt lat="42.950469" lon="-1.527761">
				<ele>791</ele>
				<time>2018-04-28T18:33:34Z</time>
			</trkpt>
			<trkpt lat="42.950499" lon="-1.527689">
				<ele>791</ele>
				<time>2018-04-28T18:33:37Z</time>
			</trkpt>
			<trkpt lat="42.950513" lon="-1.52763">
				<ele>791</ele>
				<time>2018-04-28T18:33:39Z</time>
			</trkpt>
			<trkpt lat="42.95055" lon="-1.527573">
				<ele>791</ele>
				<time>2018-04-28T18:33:43Z</time>
			</trkpt>
			<trkpt lat="42.950585" lon="-1.527521">
				<ele>791</ele>
				<time>2018-04-28T18:33:46Z</time>
			</trkpt>
			<trkpt lat="42.950629" lon="-1.52748">
				<ele>791</ele>
				<time>2018-04-28T18:33:50Z</time>
			</trkpt>
			<trkpt lat="42.950665" lon="-1.527425">
				<ele>791</ele>
				<time>2018-04-28T18:33:53Z</time>
			</trkpt>
			<trkpt lat="42.950686" lon="-1.527351">
				<ele>791</ele>
				<time>2018-04-28T18:33:57Z</time>
			</trkpt>
			<trkpt lat="42.950711" lon="-1.527277">
				<ele>791</ele>
				<time>2018-04-28T18:33:59Z</time>
			</trkpt>
			<trkpt lat="42.950728" lon="-1.527204">
				<ele>791</ele>
				<time>2018-04-28T18:34:02Z</time>
			</trkpt>
			<trkpt lat="42.950723" lon="-1.527121">
				<ele>791</ele>
				<time>2018-04-28T18:34:06Z</time>
			</trkpt>
			<trkpt lat="42.950715" lon="-1.527047">
				<ele>812</ele>
				<time>2018-04-28T18:34:10Z</time>
			</trkpt>
			<trkpt lat="42.950704" lon="-1.526984">
				<ele>812</ele>
				<time>2018-04-28T18:34:14Z</time>
			</trkpt>
			<trkpt lat="42.950731" lon="-1.526918">
				<ele>812</ele>
				<time>2018-04-28T18:34:18Z</time>
			</trkpt>
			<trkpt lat="42.95074" lon="-1.526853">
				<ele>812</ele>
				<time>2018-04-28T18:34:21Z</time>
			</trkpt>
			<trkpt lat="42.95074" lon="-1.526785">
				<ele>812</ele>
				<time>2018-04-28T18:34:24Z</time>
			</trkpt>
			<trkpt lat="42.950745" lon="-1.526711">
				<ele>812</ele>
				<time>2018-04-28T18:34:28Z</time>
			</trkpt>
			<trkpt lat="42.950742" lon="-1.526648">
				<ele>812</ele>
				<time>2018-04-28T18:34:31Z</time>
			</trkpt>
			<trkpt lat="42.950747" lon="-1.526573">
				<ele>812</ele>
				<time>2018-04-28T18:34:35Z</time>
			</trkpt>
			<trkpt lat="42.950755" lon="-1.526509">
				<ele>812</ele>
				<time>2018-04-28T18:34:38Z</time>
			</trkpt>
			<trkpt lat="42.950747" lon="-1.526438">
				<ele>812</ele>
				<time>2018-04-28T18:34:42Z</time>
			</trkpt>
			<trkpt lat="42.950725" lon="-1.526379">
				<ele>812</ele>
				<time>2018-04-28T18:34:46Z</time>
			</trkpt>
			<trkpt lat="42.950708" lon="-1.526307">
				<ele>812</ele>
				<time>2018-04-28T18:34:50Z</time>
			</trkpt>
			<trkpt lat="42.950697" lon="-1.526242">
				<ele>812</ele>
				<time>2018-04-28T18:34:53Z</time>
			</trkpt>
			<trkpt lat="42.950688" lon="-1.52616">
				<ele>812</ele>
				<time>2018-04-28T18:34:58Z</time>
			</trkpt>
			<trkpt lat="42.950682" lon="-1.526084">
				<ele>812</ele>
				<time>2018-04-28T18:35:01Z</time>
			</trkpt>
			<trkpt lat="42.950674" lon="-1.526007">
				<ele>812</ele>
				<time>2018-04-28T18:35:06Z</time>
			</trkpt>
			<trkpt lat="42.950659" lon="-1.52594">
				<ele>812</ele>
				<time>2018-04-28T18:35:11Z</time>
			</trkpt>
			<trkpt lat="42.950642" lon="-1.525883">
				<ele>812</ele>
				<time>2018-04-28T18:35:14Z</time>
			</trkpt>
			<trkpt lat="42.950632" lon="-1.525819">
				<ele>812</ele>
				<time>2018-04-28T18:35:17Z</time>
			</trkpt>
			<trkpt lat="42.950603" lon="-1.525753">
				<ele>812</ele>
				<time>2018-04-28T18:35:20Z</time>
			</trkpt>
			<trkpt lat="42.950586" lon="-1.525695">
				<ele>812</ele>
				<time>2018-04-28T18:35:24Z</time>
			</trkpt>
			<trkpt lat="42.950572" lon="-1.525613">
				<ele>812</ele>
				<time>2018-04-28T18:35:29Z</time>
			</trkpt>
			<trkpt lat="42.95056" lon="-1.525545">
				<ele>812</ele>
				<time>2018-04-28T18:35:33Z</time>
			</trkpt>
			<trkpt lat="42.950527" lon="-1.525498">
				<ele>812</ele>
				<time>2018-04-28T18:35:36Z</time>
			</trkpt>
			<trkpt lat="42.950525" lon="-1.52543">
				<ele>812</ele>
				<time>2018-04-28T18:35:39Z</time>
			</trkpt>
			<trkpt lat="42.950519" lon="-1.525368">
				<ele>812</ele>
				<time>2018-04-28T18:35:42Z</time>
			</trkpt>
			<trkpt lat="42.950507" lon="-1.525298">
				<ele>812</ele>
				<time>2018-04-28T18:35:45Z</time>
			</trkpt>
			<trkpt lat="42.950503" lon="-1.525228">
				<ele>812</ele>
				<time>2018-04-28T18:35:48Z</time>
			</trkpt>
			<trkpt lat="42.950508" lon="-1.525153">
				<ele>812</ele>
				<time>2018-04-28T18:35:52Z</time>
			</trkpt>
			<trkpt lat="42.950498" lon="-1.525069">
				<ele>812</ele>
				<time>2018-04-28T18:35:56Z</time>
			</trkpt>
			<trkpt lat="42.950488" lon="-1.525003">
				<ele>812</ele>
				<time>2018-04-28T18:35:59Z</time>
			</trkpt>
			<trkpt lat="42.950489" lon="-1.524931">
				<ele>807</ele>
				<time>2018-04-28T18:36:02Z</time>
			</trkpt>
			<trkpt lat="42.950486" lon="-1.524866">
				<ele>807</ele>
				<time>2018-04-28T18:36:05Z</time>
			</trkpt>
			<trkpt lat="42.950466" lon="-1.52481">
				<ele>807</ele>
				<time>2018-04-28T18:36:08Z</time>
			</trkpt>
			<trkpt lat="42.950466" lon="-1.524734">
				<ele>807</ele>
				<time>2018-04-28T18:36:11Z</time>
			</trkpt>
			<trkpt lat="42.950452" lon="-1.524671">
				<ele>807</ele>
				<time>2018-04-28T18:36:14Z</time>
			</trkpt>
			<trkpt lat="42.950431" lon="-1.524603">
				<ele>807</ele>
				<time>2018-04-28T18:36:17Z</time>
			</trkpt>
			<trkpt lat="42.950425" lon="-1.524533">
				<ele>807</ele>
				<time>2018-04-28T18:36:20Z</time>
			</trkpt>
			<trkpt lat="42.950409" lon="-1.524474">
				<ele>807</ele>
				<time>2018-04-28T18:36:23Z</time>
			</trkpt>
			<trkpt lat="42.950395" lon="-1.524411">
				<ele>807</ele>
				<time>2018-04-28T18:36:26Z</time>
			</trkpt>
			<trkpt lat="42.950385" lon="-1.524332">
				<ele>807</ele>
				<time>2018-04-28T18:36:29Z</time>
			</trkpt>
			<trkpt lat="42.950384" lon="-1.524265">
				<ele>807</ele>
				<time>2018-04-28T18:36:32Z</time>
			</trkpt>
			<trkpt lat="42.950386" lon="-1.5242">
				<ele>807</ele>
				<time>2018-04-28T18:36:35Z</time>
			</trkpt>
			<trkpt lat="42.95038" lon="-1.52412">
				<ele>807</ele>
				<time>2018-04-28T18:36:38Z</time>
			</trkpt>
			<trkpt lat="42.950358" lon="-1.52405">
				<ele>807</ele>
				<time>2018-04-28T18:36:41Z</time>
			</trkpt>
			<trkpt lat="42.95034" lon="-1.523978">
				<ele>807</ele>
				<time>2018-04-28T18:36:44Z</time>
			</trkpt>
			<trkpt lat="42.950331" lon="-1.523917">
				<ele>807</ele>
				<time>2018-04-28T18:36:47Z</time>
			</trkpt>
			<trkpt lat="42.950318" lon="-1.523847">
				<ele>807</ele>
				<time>2018-04-28T18:36:51Z</time>
			</trkpt>
			<trkpt lat="42.950295" lon="-1.52379">
				<ele>807</ele>
				<time>2018-04-28T18:36:54Z</time>
			</trkpt>
			<trkpt lat="42.950296" lon="-1.523722">
				<ele>807</ele>
				<time>2018-04-28T18:36:56Z</time>
			</trkpt>
			<trkpt lat="42.950308" lon="-1.523649">
				<ele>807</ele>
				<time>2018-04-28T18:36:58Z</time>
			</trkpt>
			<trkpt lat="42.950318" lon="-1.523548">
				<ele>807</ele>
				<time>2018-04-28T18:37:01Z</time>
			</trkpt>
			<trkpt lat="42.950316" lon="-1.523484">
				<ele>807</ele>
				<time>2018-04-28T18:37:03Z</time>
			</trkpt>
			<trkpt lat="42.950317" lon="-1.523416">
				<ele>807</ele>
				<time>2018-04-28T18:37:05Z</time>
			</trkpt>
			<trkpt lat="42.950328" lon="-1.523329">
				<ele>807</ele>
				<time>2018-04-28T18:37:08Z</time>
			</trkpt>
			<trkpt lat="42.950295" lon="-1.523279">
				<ele>807</ele>
				<time>2018-04-28T18:37:10Z</time>
			</trkpt>
			<trkpt lat="42.950304" lon="-1.523214">
				<ele>807</ele>
				<time>2018-04-28T18:37:12Z</time>
			</trkpt>
			<trkpt lat="42.950299" lon="-1.523144">
				<ele>807</ele>
				<time>2018-04-28T18:37:14Z</time>
			</trkpt>
			<trkpt lat="42.950296" lon="-1.523082">
				<ele>807</ele>
				<time>2018-04-28T18:37:16Z</time>
			</trkpt>
			<trkpt lat="42.950267" lon="-1.52301">
				<ele>807</ele>
				<time>2018-04-28T18:37:19Z</time>
			</trkpt>
			<trkpt lat="42.950275" lon="-1.522917">
				<ele>807</ele>
				<time>2018-04-28T18:37:22Z</time>
			</trkpt>
			<trkpt lat="42.950266" lon="-1.522841">
				<ele>803</ele>
				<time>2018-04-28T18:37:25Z</time>
			</trkpt>
			<trkpt lat="42.950261" lon="-1.522761">
				<ele>803</ele>
				<time>2018-04-28T18:37:29Z</time>
			</trkpt>
			<trkpt lat="42.950255" lon="-1.52269">
				<ele>803</ele>
				<time>2018-04-28T18:37:31Z</time>
			</trkpt>
			<trkpt lat="42.950252" lon="-1.522629">
				<ele>803</ele>
				<time>2018-04-28T18:37:33Z</time>
			</trkpt>
			<trkpt lat="42.950272" lon="-1.522542">
				<ele>803</ele>
				<time>2018-04-28T18:37:36Z</time>
			</trkpt>
			<trkpt lat="42.950281" lon="-1.522474">
				<ele>803</ele>
				<time>2018-04-28T18:37:39Z</time>
			</trkpt>
			<trkpt lat="42.950273" lon="-1.5224">
				<ele>803</ele>
				<time>2018-04-28T18:37:43Z</time>
			</trkpt>
			<trkpt lat="42.950294" lon="-1.522336">
				<ele>803</ele>
				<time>2018-04-28T18:37:45Z</time>
			</trkpt>
			<trkpt lat="42.950292" lon="-1.522258">
				<ele>803</ele>
				<time>2018-04-28T18:37:48Z</time>
			</trkpt>
			<trkpt lat="42.950309" lon="-1.522011">
				<ele>803</ele>
				<time>2018-04-28T18:37:55Z</time>
			</trkpt>
			<trkpt lat="42.95032" lon="-1.52193">
				<ele>803</ele>
				<time>2018-04-28T18:37:59Z</time>
			</trkpt>
			<trkpt lat="42.950315" lon="-1.521819">
				<ele>803</ele>
				<time>2018-04-28T18:38:02Z</time>
			</trkpt>
			<trkpt lat="42.950318" lon="-1.521758">
				<ele>803</ele>
				<time>2018-04-28T18:38:09Z</time>
			</trkpt>
			<trkpt lat="42.950326" lon="-1.521686">
				<ele>803</ele>
				<time>2018-04-28T18:38:12Z</time>
			</trkpt>
			<trkpt lat="42.950326" lon="-1.521623">
				<ele>803</ele>
				<time>2018-04-28T18:38:15Z</time>
			</trkpt>
			<trkpt lat="42.950309" lon="-1.521552">
				<ele>803</ele>
				<time>2018-04-28T18:38:18Z</time>
			</trkpt>
			<trkpt lat="42.950298" lon="-1.521471">
				<ele>803</ele>
				<time>2018-04-28T18:38:21Z</time>
			</trkpt>
			<trkpt lat="42.950296" lon="-1.521383">
				<ele>803</ele>
				<time>2018-04-28T18:38:24Z</time>
			</trkpt>
			<trkpt lat="42.950312" lon="-1.521314">
				<ele>803</ele>
				<time>2018-04-28T18:38:30Z</time>
			</trkpt>
			<trkpt lat="42.950296" lon="-1.521241">
				<ele>803</ele>
				<time>2018-04-28T18:38:34Z</time>
			</trkpt>
			<trkpt lat="42.950301" lon="-1.521169">
				<ele>803</ele>
				<time>2018-04-28T18:38:37Z</time>
			</trkpt>
			<trkpt lat="42.950304" lon="-1.521094">
				<ele>803</ele>
				<time>2018-04-28T18:38:39Z</time>
			</trkpt>
			<trkpt lat="42.950307" lon="-1.521021">
				<ele>803</ele>
				<time>2018-04-28T18:38:41Z</time>
			</trkpt>
			<trkpt lat="42.95031" lon="-1.520939">
				<ele>803</ele>
				<time>2018-04-28T18:38:44Z</time>
			</trkpt>
			<trkpt lat="42.950314" lon="-1.520856">
				<ele>803</ele>
				<time>2018-04-28T18:38:47Z</time>
			</trkpt>
			<trkpt lat="42.950326" lon="-1.520777">
				<ele>768</ele>
				<time>2018-04-28T18:38:50Z</time>
			</trkpt>
			<trkpt lat="42.950347" lon="-1.520698">
				<ele>768</ele>
				<time>2018-04-28T18:38:53Z</time>
			</trkpt>
			<trkpt lat="42.950366" lon="-1.520624">
				<ele>768</ele>
				<time>2018-04-28T18:38:56Z</time>
			</trkpt>
			<trkpt lat="42.950396" lon="-1.52057">
				<ele>768</ele>
				<time>2018-04-28T18:38:59Z</time>
			</trkpt>
			<trkpt lat="42.950391" lon="-1.520491">
				<ele>768</ele>
				<time>2018-04-28T18:39:03Z</time>
			</trkpt>
			<trkpt lat="42.950378" lon="-1.52041">
				<ele>768</ele>
				<time>2018-04-28T18:39:06Z</time>
			</trkpt>
			<trkpt lat="42.950357" lon="-1.520344">
				<ele>768</ele>
				<time>2018-04-28T18:39:09Z</time>
			</trkpt>
			<trkpt lat="42.950326" lon="-1.52027">
				<ele>768</ele>
				<time>2018-04-28T18:39:12Z</time>
			</trkpt>
			<trkpt lat="42.950306" lon="-1.520193">
				<ele>768</ele>
				<time>2018-04-28T18:39:15Z</time>
			</trkpt>
			<trkpt lat="42.950285" lon="-1.520126">
				<ele>768</ele>
				<time>2018-04-28T18:39:18Z</time>
			</trkpt>
			<trkpt lat="42.950265" lon="-1.520068">
				<ele>768</ele>
				<time>2018-04-28T18:39:20Z</time>
			</trkpt>
			<trkpt lat="42.950245" lon="-1.520013">
				<ele>768</ele>
				<time>2018-04-28T18:39:23Z</time>
			</trkpt>
			<trkpt lat="42.950209" lon="-1.519958">
				<ele>768</ele>
				<time>2018-04-28T18:39:26Z</time>
			</trkpt>
			<trkpt lat="42.950182" lon="-1.519896">
				<ele>768</ele>
				<time>2018-04-28T18:39:29Z</time>
			</trkpt>
			<trkpt lat="42.95015" lon="-1.51985">
				<ele>768</ele>
				<time>2018-04-28T18:39:33Z</time>
			</trkpt>
			<trkpt lat="42.950128" lon="-1.51979">
				<ele>768</ele>
				<time>2018-04-28T18:39:37Z</time>
			</trkpt>
			<trkpt lat="42.950127" lon="-1.519728">
				<ele>768</ele>
				<time>2018-04-28T18:39:41Z</time>
			</trkpt>
			<trkpt lat="42.950094" lon="-1.519676">
				<ele>768</ele>
				<time>2018-04-28T18:39:45Z</time>
			</trkpt>
			<trkpt lat="42.950069" lon="-1.519615">
				<ele>768</ele>
				<time>2018-04-28T18:39:48Z</time>
			</trkpt>
			<trkpt lat="42.95005" lon="-1.519558">
				<ele>768</ele>
				<time>2018-04-28T18:39:51Z</time>
			</trkpt>
			<trkpt lat="42.950027" lon="-1.519499">
				<ele>768</ele>
				<time>2018-04-28T18:39:54Z</time>
			</trkpt>
			<trkpt lat="42.950004" lon="-1.519431">
				<ele>768</ele>
				<time>2018-04-28T18:39:57Z</time>
			</trkpt>
			<trkpt lat="42.949981" lon="-1.519368">
				<ele>774</ele>
				<time>2018-04-28T18:40:00Z</time>
			</trkpt>
			<trkpt lat="42.949951" lon="-1.519304">
				<ele>774</ele>
				<time>2018-04-28T18:40:03Z</time>
			</trkpt>
			<trkpt lat="42.949942" lon="-1.519229">
				<ele>774</ele>
				<time>2018-04-28T18:40:07Z</time>
			</trkpt>
			<trkpt lat="42.949954" lon="-1.51915">
				<ele>774</ele>
				<time>2018-04-28T18:40:11Z</time>
			</trkpt>
			<trkpt lat="42.949963" lon="-1.519084">
				<ele>774</ele>
				<time>2018-04-28T18:40:14Z</time>
			</trkpt>
			<trkpt lat="42.949951" lon="-1.519015">
				<ele>774</ele>
				<time>2018-04-28T18:40:17Z</time>
			</trkpt>
			<trkpt lat="42.949949" lon="-1.518931">
				<ele>774</ele>
				<time>2018-04-28T18:40:20Z</time>
			</trkpt>
			<trkpt lat="42.949931" lon="-1.518862">
				<ele>774</ele>
				<time>2018-04-28T18:40:23Z</time>
			</trkpt>
			<trkpt lat="42.949918" lon="-1.518798">
				<ele>774</ele>
				<time>2018-04-28T18:40:26Z</time>
			</trkpt>
			<trkpt lat="42.949902" lon="-1.518722">
				<ele>776</ele>
				<time>2018-04-28T18:40:29Z</time>
			</trkpt>
			<trkpt lat="42.949909" lon="-1.518638">
				<ele>776</ele>
				<time>2018-04-28T18:40:32Z</time>
			</trkpt>
			<trkpt lat="42.949932" lon="-1.518565">
				<ele>776</ele>
				<time>2018-04-28T18:40:36Z</time>
			</trkpt>
			<trkpt lat="42.949948" lon="-1.518492">
				<ele>776</ele>
				<time>2018-04-28T18:40:39Z</time>
			</trkpt>
			<trkpt lat="42.949959" lon="-1.518422">
				<ele>776</ele>
				<time>2018-04-28T18:40:42Z</time>
			</trkpt>
			<trkpt lat="42.949967" lon="-1.518357">
				<ele>776</ele>
				<time>2018-04-28T18:40:45Z</time>
			</trkpt>
			<trkpt lat="42.949986" lon="-1.518275">
				<ele>776</ele>
				<time>2018-04-28T18:40:49Z</time>
			</trkpt>
			<trkpt lat="42.950011" lon="-1.518213">
				<ele>759</ele>
				<time>2018-04-28T18:40:52Z</time>
			</trkpt>
			<trkpt lat="42.950023" lon="-1.518145">
				<ele>759</ele>
				<time>2018-04-28T18:40:56Z</time>
			</trkpt>
			<trkpt lat="42.950041" lon="-1.51808">
				<ele>759</ele>
				<time>2018-04-28T18:40:59Z</time>
			</trkpt>
			<trkpt lat="42.950048" lon="-1.517994">
				<ele>759</ele>
				<time>2018-04-28T18:41:02Z</time>
			</trkpt>
			<trkpt lat="42.950063" lon="-1.517909">
				<ele>759</ele>
				<time>2018-04-28T18:41:05Z</time>
			</trkpt>
			<trkpt lat="42.950071" lon="-1.51783">
				<ele>759</ele>
				<time>2018-04-28T18:41:08Z</time>
			</trkpt>
			<trkpt lat="42.950098" lon="-1.517755">
				<ele>759</ele>
				<time>2018-04-28T18:41:11Z</time>
			</trkpt>
			<trkpt lat="42.950119" lon="-1.517676">
				<ele>759</ele>
				<time>2018-04-28T18:41:14Z</time>
			</trkpt>
			<trkpt lat="42.950122" lon="-1.517615">
				<ele>759</ele>
				<time>2018-04-28T18:41:17Z</time>
			</trkpt>
			<trkpt lat="42.950135" lon="-1.517544">
				<ele>759</ele>
				<time>2018-04-28T18:41:20Z</time>
			</trkpt>
			<trkpt lat="42.950154" lon="-1.517482">
				<ele>759</ele>
				<time>2018-04-28T18:41:23Z</time>
			</trkpt>
			<trkpt lat="42.950164" lon="-1.517406">
				<ele>759</ele>
				<time>2018-04-28T18:41:26Z</time>
			</trkpt>
			<trkpt lat="42.950195" lon="-1.517352">
				<ele>759</ele>
				<time>2018-04-28T18:41:29Z</time>
			</trkpt>
			<trkpt lat="42.950229" lon="-1.517307">
				<ele>759</ele>
				<time>2018-04-28T18:41:32Z</time>
			</trkpt>
			<trkpt lat="42.950262" lon="-1.517241">
				<ele>759</ele>
				<time>2018-04-28T18:41:35Z</time>
			</trkpt>
			<trkpt lat="42.950285" lon="-1.517189">
				<ele>759</ele>
				<time>2018-04-28T18:41:37Z</time>
			</trkpt>
			<trkpt lat="42.950299" lon="-1.517104">
				<ele>759</ele>
				<time>2018-04-28T18:41:41Z</time>
			</trkpt>
			<trkpt lat="42.950318" lon="-1.517037">
				<ele>759</ele>
				<time>2018-04-28T18:41:44Z</time>
			</trkpt>
			<trkpt lat="42.950338" lon="-1.516982">
				<ele>759</ele>
				<time>2018-04-28T18:41:47Z</time>
			</trkpt>
			<trkpt lat="42.950361" lon="-1.516919">
				<ele>759</ele>
				<time>2018-04-28T18:41:50Z</time>
			</trkpt>
			<trkpt lat="42.950374" lon="-1.51684">
				<ele>759</ele>
				<time>2018-04-28T18:41:53Z</time>
			</trkpt>
			<trkpt lat="42.950371" lon="-1.516763">
				<ele>759</ele>
				<time>2018-04-28T18:41:56Z</time>
			</trkpt>
			<trkpt lat="42.950361" lon="-1.516698">
				<ele>759</ele>
				<time>2018-04-28T18:41:59Z</time>
			</trkpt>
			<trkpt lat="42.950311" lon="-1.516663">
				<ele>761</ele>
				<time>2018-04-28T18:42:03Z</time>
			</trkpt>
			<trkpt lat="42.950247" lon="-1.516653">
				<ele>761</ele>
				<time>2018-04-28T18:42:07Z</time>
			</trkpt>
			<trkpt lat="42.950194" lon="-1.516676">
				<ele>759</ele>
				<time>2018-04-28T18:42:11Z</time>
			</trkpt>
			<trkpt lat="42.950142" lon="-1.516684">
				<ele>759</ele>
				<time>2018-04-28T18:42:14Z</time>
			</trkpt>
			<trkpt lat="42.950083" lon="-1.516694">
				<ele>759</ele>
				<time>2018-04-28T18:42:18Z</time>
			</trkpt>
			<trkpt lat="42.950035" lon="-1.516725">
				<ele>759</ele>
				<time>2018-04-28T18:42:21Z</time>
			</trkpt>
			<trkpt lat="42.949989" lon="-1.516769">
				<ele>776</ele>
				<time>2018-04-28T18:42:24Z</time>
			</trkpt>
			<trkpt lat="42.949943" lon="-1.516806">
				<ele>776</ele>
				<time>2018-04-28T18:42:28Z</time>
			</trkpt>
			<trkpt lat="42.949887" lon="-1.516818">
				<ele>776</ele>
				<time>2018-04-28T18:42:31Z</time>
			</trkpt>
			<trkpt lat="42.949842" lon="-1.516872">
				<ele>776</ele>
				<time>2018-04-28T18:42:35Z</time>
			</trkpt>
			<trkpt lat="42.949795" lon="-1.516885">
				<ele>776</ele>
				<time>2018-04-28T18:42:37Z</time>
			</trkpt>
			<trkpt lat="42.949734" lon="-1.516897">
				<ele>776</ele>
				<time>2018-04-28T18:42:40Z</time>
			</trkpt>
			<trkpt lat="42.94968" lon="-1.516902">
				<ele>776</ele>
				<time>2018-04-28T18:42:42Z</time>
			</trkpt>
			<trkpt lat="42.949632" lon="-1.516914">
				<ele>776</ele>
				<time>2018-04-28T18:42:45Z</time>
			</trkpt>
			<trkpt lat="42.949582" lon="-1.516939">
				<ele>776</ele>
				<time>2018-04-28T18:42:48Z</time>
			</trkpt>
			<trkpt lat="42.949534" lon="-1.516947">
				<ele>776</ele>
				<time>2018-04-28T18:42:51Z</time>
			</trkpt>
			<trkpt lat="42.949487" lon="-1.516947">
				<ele>776</ele>
				<time>2018-04-28T18:42:53Z</time>
			</trkpt>
			<trkpt lat="42.949443" lon="-1.516974">
				<ele>776</ele>
				<time>2018-04-28T18:42:55Z</time>
			</trkpt>
			<trkpt lat="42.949378" lon="-1.516987">
				<ele>776</ele>
				<time>2018-04-28T18:42:59Z</time>
			</trkpt>
			<trkpt lat="42.949326" lon="-1.517017">
				<ele>776</ele>
				<time>2018-04-28T18:43:02Z</time>
			</trkpt>
			<trkpt lat="42.949268" lon="-1.517006">
				<ele>776</ele>
				<time>2018-04-28T18:43:06Z</time>
			</trkpt>
			<trkpt lat="42.94922" lon="-1.517024">
				<ele>776</ele>
				<time>2018-04-28T18:43:09Z</time>
			</trkpt>
			<trkpt lat="42.949175" lon="-1.517035">
				<ele>776</ele>
				<time>2018-04-28T18:43:11Z</time>
			</trkpt>
			<trkpt lat="42.949118" lon="-1.517048">
				<ele>776</ele>
				<time>2018-04-28T18:43:14Z</time>
			</trkpt>
			<trkpt lat="42.949063" lon="-1.517046">
				<ele>776</ele>
				<time>2018-04-28T18:43:17Z</time>
			</trkpt>
			<trkpt lat="42.949016" lon="-1.517027">
				<ele>776</ele>
				<time>2018-04-28T18:43:19Z</time>
			</trkpt>
			<trkpt lat="42.94897" lon="-1.516967">
				<ele>776</ele>
				<time>2018-04-28T18:43:22Z</time>
			</trkpt>
			<trkpt lat="42.948941" lon="-1.516914">
				<ele>776</ele>
				<time>2018-04-28T18:43:25Z</time>
			</trkpt>
			<trkpt lat="42.94896" lon="-1.516848">
				<ele>776</ele>
				<time>2018-04-28T18:43:28Z</time>
			</trkpt>
			<trkpt lat="42.948969" lon="-1.516776">
				<ele>776</ele>
				<time>2018-04-28T18:43:32Z</time>
			</trkpt>
			<trkpt lat="42.948984" lon="-1.516707">
				<ele>776</ele>
				<time>2018-04-28T18:43:35Z</time>
			</trkpt>
			<trkpt lat="42.94897" lon="-1.516646">
				<ele>764</ele>
				<time>2018-04-28T18:43:38Z</time>
			</trkpt>
			<trkpt lat="42.948985" lon="-1.516579">
				<ele>764</ele>
				<time>2018-04-28T18:43:41Z</time>
			</trkpt>
			<trkpt lat="42.948986" lon="-1.516506">
				<ele>764</ele>
				<time>2018-04-28T18:43:44Z</time>
			</trkpt>
			<trkpt lat="42.948985" lon="-1.516443">
				<ele>764</ele>
				<time>2018-04-28T18:43:46Z</time>
			</trkpt>
			<trkpt lat="42.949016" lon="-1.516386">
				<ele>764</ele>
				<time>2018-04-28T18:43:49Z</time>
			</trkpt>
			<trkpt lat="42.949017" lon="-1.516317">
				<ele>764</ele>
				<time>2018-04-28T18:43:53Z</time>
			</trkpt>
			<trkpt lat="42.949021" lon="-1.516252">
				<ele>764</ele>
				<time>2018-04-28T18:43:56Z</time>
			</trkpt>
			<trkpt lat="42.949065" lon="-1.516205">
				<ele>764</ele>
				<time>2018-04-28T18:43:59Z</time>
			</trkpt>
			<trkpt lat="42.949099" lon="-1.516155">
				<ele>764</ele>
				<time>2018-04-28T18:44:03Z</time>
			</trkpt>
			<trkpt lat="42.949106" lon="-1.516093">
				<ele>764</ele>
				<time>2018-04-28T18:44:05Z</time>
			</trkpt>
			<trkpt lat="42.949088" lon="-1.516027">
				<ele>764</ele>
				<time>2018-04-28T18:44:08Z</time>
			</trkpt>
			<trkpt lat="42.94906" lon="-1.515949">
				<ele>764</ele>
				<time>2018-04-28T18:44:11Z</time>
			</trkpt>
			<trkpt lat="42.949022" lon="-1.515909">
				<ele>764</ele>
				<time>2018-04-28T18:44:14Z</time>
			</trkpt>
			<trkpt lat="42.948992" lon="-1.515852">
				<ele>764</ele>
				<time>2018-04-28T18:44:18Z</time>
			</trkpt>
			<trkpt lat="42.94895" lon="-1.515809">
				<ele>764</ele>
				<time>2018-04-28T18:44:22Z</time>
			</trkpt>
			<trkpt lat="42.948908" lon="-1.515771">
				<ele>764</ele>
				<time>2018-04-28T18:44:25Z</time>
			</trkpt>
			<trkpt lat="42.948853" lon="-1.515756">
				<ele>764</ele>
				<time>2018-04-28T18:44:30Z</time>
			</trkpt>
			<trkpt lat="42.9488" lon="-1.515747">
				<ele>764</ele>
				<time>2018-04-28T18:44:36Z</time>
			</trkpt>
			<trkpt lat="42.948746" lon="-1.515724">
				<ele>764</ele>
				<time>2018-04-28T18:44:40Z</time>
			</trkpt>
			<trkpt lat="42.948688" lon="-1.51573">
				<ele>764</ele>
				<time>2018-04-28T18:44:43Z</time>
			</trkpt>
			<trkpt lat="42.94865" lon="-1.515692">
				<ele>764</ele>
				<time>2018-04-28T18:44:46Z</time>
			</trkpt>
			<trkpt lat="42.948598" lon="-1.515747">
				<ele>764</ele>
				<time>2018-04-28T18:44:49Z</time>
			</trkpt>
			<trkpt lat="42.948548" lon="-1.51578">
				<ele>764</ele>
				<time>2018-04-28T18:44:52Z</time>
			</trkpt>
			<trkpt lat="42.948489" lon="-1.515788">
				<ele>764</ele>
				<time>2018-04-28T18:44:56Z</time>
			</trkpt>
			<trkpt lat="42.948463" lon="-1.515736">
				<ele>764</ele>
				<time>2018-04-28T18:45:00Z</time>
			</trkpt>
			<trkpt lat="42.948456" lon="-1.515674">
				<ele>764</ele>
				<time>2018-04-28T18:45:02Z</time>
			</trkpt>
			<trkpt lat="42.948409" lon="-1.515636">
				<ele>764</ele>
				<time>2018-04-28T18:45:05Z</time>
			</trkpt>
			<trkpt lat="42.948368" lon="-1.515662">
				<ele>764</ele>
				<time>2018-04-28T18:45:08Z</time>
			</trkpt>
			<trkpt lat="42.94833" lon="-1.515698">
				<ele>764</ele>
				<time>2018-04-28T18:45:11Z</time>
			</trkpt>
			<trkpt lat="42.948275" lon="-1.515674">
				<ele>764</ele>
				<time>2018-04-28T18:45:14Z</time>
			</trkpt>
			<trkpt lat="42.948212" lon="-1.515667">
				<ele>764</ele>
				<time>2018-04-28T18:45:17Z</time>
			</trkpt>
			<trkpt lat="42.948149" lon="-1.515681">
				<ele>764</ele>
				<time>2018-04-28T18:45:20Z</time>
			</trkpt>
			<trkpt lat="42.948096" lon="-1.515694">
				<ele>764</ele>
				<time>2018-04-28T18:45:24Z</time>
			</trkpt>
			<trkpt lat="42.94805" lon="-1.515695">
				<ele>764</ele>
				<time>2018-04-28T18:45:27Z</time>
			</trkpt>
			<trkpt lat="42.948001" lon="-1.515678">
				<ele>764</ele>
				<time>2018-04-28T18:45:29Z</time>
			</trkpt>
			<trkpt lat="42.947944" lon="-1.515662">
				<ele>764</ele>
				<time>2018-04-28T18:45:32Z</time>
			</trkpt>
			<trkpt lat="42.9479" lon="-1.515687">
				<ele>753</ele>
				<time>2018-04-28T18:45:36Z</time>
			</trkpt>
			<trkpt lat="42.947857" lon="-1.515708">
				<ele>753</ele>
				<time>2018-04-28T18:45:39Z</time>
			</trkpt>
			<trkpt lat="42.94781" lon="-1.515733">
				<ele>753</ele>
				<time>2018-04-28T18:45:42Z</time>
			</trkpt>
			<trkpt lat="42.947772" lon="-1.515768">
				<ele>753</ele>
				<time>2018-04-28T18:45:45Z</time>
			</trkpt>
			<trkpt lat="42.947749" lon="-1.515831">
				<ele>753</ele>
				<time>2018-04-28T18:45:49Z</time>
			</trkpt>
			<trkpt lat="42.947702" lon="-1.515829">
				<ele>753</ele>
				<time>2018-04-28T18:45:53Z</time>
			</trkpt>
			<trkpt lat="42.947636" lon="-1.515835">
				<ele>753</ele>
				<time>2018-04-28T18:45:56Z</time>
			</trkpt>
			<trkpt lat="42.947568" lon="-1.515822">
				<ele>753</ele>
				<time>2018-04-28T18:45:59Z</time>
			</trkpt>
			<trkpt lat="42.947506" lon="-1.515809">
				<ele>753</ele>
				<time>2018-04-28T18:46:02Z</time>
			</trkpt>
			<trkpt lat="42.947465" lon="-1.515775">
				<ele>753</ele>
				<time>2018-04-28T18:46:05Z</time>
			</trkpt>
			<trkpt lat="42.947418" lon="-1.51576">
				<ele>753</ele>
				<time>2018-04-28T18:46:08Z</time>
			</trkpt>
			<trkpt lat="42.94737" lon="-1.51572">
				<ele>753</ele>
				<time>2018-04-28T18:46:11Z</time>
			</trkpt>
			<trkpt lat="42.94732" lon="-1.515722">
				<ele>753</ele>
				<time>2018-04-28T18:46:14Z</time>
			</trkpt>
			<trkpt lat="42.947274" lon="-1.515729">
				<ele>753</ele>
				<time>2018-04-28T18:46:16Z</time>
			</trkpt>
			<trkpt lat="42.947226" lon="-1.515691">
				<ele>753</ele>
				<time>2018-04-28T18:46:19Z</time>
			</trkpt>
			<trkpt lat="42.947207" lon="-1.515623">
				<ele>753</ele>
				<time>2018-04-28T18:46:23Z</time>
			</trkpt>
			<trkpt lat="42.947168" lon="-1.515581">
				<ele>753</ele>
				<time>2018-04-28T18:46:26Z</time>
			</trkpt>
			<trkpt lat="42.947123" lon="-1.515555">
				<ele>753</ele>
				<time>2018-04-28T18:46:30Z</time>
			</trkpt>
			<trkpt lat="42.947081" lon="-1.515525">
				<ele>753</ele>
				<time>2018-04-28T18:46:33Z</time>
			</trkpt>
			<trkpt lat="42.947038" lon="-1.515483">
				<ele>753</ele>
				<time>2018-04-28T18:46:37Z</time>
			</trkpt>
			<trkpt lat="42.946994" lon="-1.515446">
				<ele>753</ele>
				<time>2018-04-28T18:46:41Z</time>
			</trkpt>
			<trkpt lat="42.94694" lon="-1.515436">
				<ele>753</ele>
				<time>2018-04-28T18:46:44Z</time>
			</trkpt>
			<trkpt lat="42.946885" lon="-1.515438">
				<ele>753</ele>
				<time>2018-04-28T18:46:47Z</time>
			</trkpt>
			<trkpt lat="42.946825" lon="-1.515417">
				<ele>753</ele>
				<time>2018-04-28T18:46:50Z</time>
			</trkpt>
			<trkpt lat="42.946768" lon="-1.515394">
				<ele>753</ele>
				<time>2018-04-28T18:46:53Z</time>
			</trkpt>
			<trkpt lat="42.946722" lon="-1.515366">
				<ele>753</ele>
				<time>2018-04-28T18:46:57Z</time>
			</trkpt>
			<trkpt lat="42.946666" lon="-1.515379">
				<ele>753</ele>
				<time>2018-04-28T18:47:00Z</time>
			</trkpt>
			<trkpt lat="42.946612" lon="-1.515402">
				<ele>753</ele>
				<time>2018-04-28T18:47:04Z</time>
			</trkpt>
			<trkpt lat="42.946563" lon="-1.515416">
				<ele>753</ele>
				<time>2018-04-28T18:47:07Z</time>
			</trkpt>
			<trkpt lat="42.946503" lon="-1.515435">
				<ele>753</ele>
				<time>2018-04-28T18:47:10Z</time>
			</trkpt>
			<trkpt lat="42.946443" lon="-1.515453">
				<ele>753</ele>
				<time>2018-04-28T18:47:14Z</time>
			</trkpt>
			<trkpt lat="42.946387" lon="-1.51542">
				<ele>753</ele>
				<time>2018-04-28T18:47:17Z</time>
			</trkpt>
			<trkpt lat="42.946337" lon="-1.515424">
				<ele>753</ele>
				<time>2018-04-28T18:47:20Z</time>
			</trkpt>
			<trkpt lat="42.946279" lon="-1.515402">
				<ele>753</ele>
				<time>2018-04-28T18:47:24Z</time>
			</trkpt>
			<trkpt lat="42.946232" lon="-1.515364">
				<ele>753</ele>
				<time>2018-04-28T18:47:27Z</time>
			</trkpt>
			<trkpt lat="42.946178" lon="-1.515348">
				<ele>753</ele>
				<time>2018-04-28T18:47:31Z</time>
			</trkpt>
			<trkpt lat="42.946134" lon="-1.515316">
				<ele>753</ele>
				<time>2018-04-28T18:47:35Z</time>
			</trkpt>
			<trkpt lat="42.946098" lon="-1.515276">
				<ele>753</ele>
				<time>2018-04-28T18:47:38Z</time>
			</trkpt>
			<trkpt lat="42.946067" lon="-1.515216">
				<ele>753</ele>
				<time>2018-04-28T18:47:41Z</time>
			</trkpt>
			<trkpt lat="42.946056" lon="-1.515155">
				<ele>753</ele>
				<time>2018-04-28T18:47:44Z</time>
			</trkpt>
			<trkpt lat="42.946027" lon="-1.515103">
				<ele>753</ele>
				<time>2018-04-28T18:47:47Z</time>
			</trkpt>
			<trkpt lat="42.946019" lon="-1.51504">
				<ele>753</ele>
				<time>2018-04-28T18:47:50Z</time>
			</trkpt>
			<trkpt lat="42.945991" lon="-1.514985">
				<ele>753</ele>
				<time>2018-04-28T18:47:53Z</time>
			</trkpt>
			<trkpt lat="42.94595" lon="-1.51495">
				<ele>753</ele>
				<time>2018-04-28T18:47:58Z</time>
			</trkpt>
			<trkpt lat="42.945929" lon="-1.514894">
				<ele>753</ele>
				<time>2018-04-28T18:48:04Z</time>
			</trkpt>
			<trkpt lat="42.945878" lon="-1.514873">
				<ele>753</ele>
				<time>2018-04-28T18:48:16Z</time>
			</trkpt>
			<trkpt lat="42.945821" lon="-1.514873">
				<ele>693</ele>
				<time>2018-04-28T18:48:22Z</time>
			</trkpt>
			<trkpt lat="42.945756" lon="-1.51485">
				<ele>693</ele>
				<time>2018-04-28T18:48:26Z</time>
			</trkpt>
			<trkpt lat="42.945723" lon="-1.514796">
				<ele>693</ele>
				<time>2018-04-28T18:48:29Z</time>
			</trkpt>
			<trkpt lat="42.945671" lon="-1.514748">
				<ele>693</ele>
				<time>2018-04-28T18:48:34Z</time>
			</trkpt>
			<trkpt lat="42.945632" lon="-1.5147">
				<ele>693</ele>
				<time>2018-04-28T18:48:37Z</time>
			</trkpt>
			<trkpt lat="42.9456" lon="-1.514636">
				<ele>693</ele>
				<time>2018-04-28T18:48:40Z</time>
			</trkpt>
			<trkpt lat="42.945558" lon="-1.514593">
				<ele>693</ele>
				<time>2018-04-28T18:48:44Z</time>
			</trkpt>
			<trkpt lat="42.945517" lon="-1.514545">
				<ele>702</ele>
				<time>2018-04-28T18:48:47Z</time>
			</trkpt>
			<trkpt lat="42.945487" lon="-1.514489">
				<ele>702</ele>
				<time>2018-04-28T18:48:50Z</time>
			</trkpt>
			<trkpt lat="42.945468" lon="-1.514432">
				<ele>702</ele>
				<time>2018-04-28T18:48:53Z</time>
			</trkpt>
			<trkpt lat="42.945446" lon="-1.514369">
				<ele>702</ele>
				<time>2018-04-28T18:48:56Z</time>
			</trkpt>
			<trkpt lat="42.94541" lon="-1.514317">
				<ele>702</ele>
				<time>2018-04-28T18:48:59Z</time>
			</trkpt>
			<trkpt lat="42.945386" lon="-1.514256">
				<ele>702</ele>
				<time>2018-04-28T18:49:02Z</time>
			</trkpt>
			<trkpt lat="42.94536" lon="-1.514191">
				<ele>702</ele>
				<time>2018-04-28T18:49:06Z</time>
			</trkpt>
			<trkpt lat="42.945322" lon="-1.514151">
				<ele>702</ele>
				<time>2018-04-28T18:49:11Z</time>
			</trkpt>
			<trkpt lat="42.945281" lon="-1.514099">
				<ele>702</ele>
				<time>2018-04-28T18:49:15Z</time>
			</trkpt>
			<trkpt lat="42.945236" lon="-1.514053">
				<ele>702</ele>
				<time>2018-04-28T18:49:19Z</time>
			</trkpt>
			<trkpt lat="42.945218" lon="-1.513979">
				<ele>702</ele>
				<time>2018-04-28T18:49:22Z</time>
			</trkpt>
			<trkpt lat="42.94523" lon="-1.513905">
				<ele>702</ele>
				<time>2018-04-28T18:49:26Z</time>
			</trkpt>
			<trkpt lat="42.945229" lon="-1.513843">
				<ele>702</ele>
				<time>2018-04-28T18:49:33Z</time>
			</trkpt>
			<trkpt lat="42.9452" lon="-1.513781">
				<ele>702</ele>
				<time>2018-04-28T18:49:39Z</time>
			</trkpt>
			<trkpt lat="42.945163" lon="-1.513744">
				<ele>702</ele>
				<time>2018-04-28T18:49:43Z</time>
			</trkpt>
			<trkpt lat="42.945147" lon="-1.513673">
				<ele>702</ele>
				<time>2018-04-28T18:49:50Z</time>
			</trkpt>
			<trkpt lat="42.945109" lon="-1.513614">
				<ele>702</ele>
				<time>2018-04-28T18:49:55Z</time>
			</trkpt>
			<trkpt lat="42.945081" lon="-1.513563">
				<ele>702</ele>
				<time>2018-04-28T18:49:58Z</time>
			</trkpt>
			<trkpt lat="42.945045" lon="-1.51351">
				<ele>702</ele>
				<time>2018-04-28T18:50:01Z</time>
			</trkpt>
			<trkpt lat="42.94501" lon="-1.513459">
				<ele>702</ele>
				<time>2018-04-28T18:50:04Z</time>
			</trkpt>
			<trkpt lat="42.944973" lon="-1.513417">
				<ele>702</ele>
				<time>2018-04-28T18:50:07Z</time>
			</trkpt>
			<trkpt lat="42.94493" lon="-1.513396">
				<ele>702</ele>
				<time>2018-04-28T18:50:10Z</time>
			</trkpt>
			<trkpt lat="42.944884" lon="-1.513359">
				<ele>702</ele>
				<time>2018-04-28T18:50:12Z</time>
			</trkpt>
			<trkpt lat="42.944835" lon="-1.513328">
				<ele>702</ele>
				<time>2018-04-28T18:50:14Z</time>
			</trkpt>
			<trkpt lat="42.944791" lon="-1.513282">
				<ele>702</ele>
				<time>2018-04-28T18:50:17Z</time>
			</trkpt>
			<trkpt lat="42.944754" lon="-1.513248">
				<ele>702</ele>
				<time>2018-04-28T18:50:20Z</time>
			</trkpt>
			<trkpt lat="42.944711" lon="-1.513222">
				<ele>702</ele>
				<time>2018-04-28T18:50:24Z</time>
			</trkpt>
			<trkpt lat="42.944669" lon="-1.513191">
				<ele>702</ele>
				<time>2018-04-28T18:50:28Z</time>
			</trkpt>
			<trkpt lat="42.944619" lon="-1.513192">
				<ele>702</ele>
				<time>2018-04-28T18:50:33Z</time>
			</trkpt>
			<trkpt lat="42.944571" lon="-1.51318">
				<ele>702</ele>
				<time>2018-04-28T18:50:36Z</time>
			</trkpt>
			<trkpt lat="42.944524" lon="-1.513141">
				<ele>702</ele>
				<time>2018-04-28T18:50:40Z</time>
			</trkpt>
			<trkpt lat="42.944494" lon="-1.513095">
				<ele>702</ele>
				<time>2018-04-28T18:50:43Z</time>
			</trkpt>
			<trkpt lat="42.94446" lon="-1.513054">
				<ele>702</ele>
				<time>2018-04-28T18:50:47Z</time>
			</trkpt>
			<trkpt lat="42.944415" lon="-1.513012">
				<ele>702</ele>
				<time>2018-04-28T18:50:51Z</time>
			</trkpt>
			<trkpt lat="42.94437" lon="-1.512988">
				<ele>702</ele>
				<time>2018-04-28T18:50:55Z</time>
			</trkpt>
			<trkpt lat="42.944312" lon="-1.512982">
				<ele>702</ele>
				<time>2018-04-28T18:50:59Z</time>
			</trkpt>
			<trkpt lat="42.944259" lon="-1.512979">
				<ele>702</ele>
				<time>2018-04-28T18:51:02Z</time>
			</trkpt>
			<trkpt lat="42.944214" lon="-1.51295">
				<ele>702</ele>
				<time>2018-04-28T18:51:05Z</time>
			</trkpt>
			<trkpt lat="42.944158" lon="-1.512921">
				<ele>702</ele>
				<time>2018-04-28T18:51:09Z</time>
			</trkpt>
			<trkpt lat="42.944127" lon="-1.512867">
				<ele>702</ele>
				<time>2018-04-28T18:51:12Z</time>
			</trkpt>
			<trkpt lat="42.944135" lon="-1.51279">
				<ele>702</ele>
				<time>2018-04-28T18:51:16Z</time>
			</trkpt>
			<trkpt lat="42.944144" lon="-1.512713">
				<ele>702</ele>
				<time>2018-04-28T18:51:19Z</time>
			</trkpt>
			<trkpt lat="42.944131" lon="-1.51265">
				<ele>702</ele>
				<time>2018-04-28T18:51:23Z</time>
			</trkpt>
			<trkpt lat="42.944131" lon="-1.512573">
				<ele>702</ele>
				<time>2018-04-28T18:51:27Z</time>
			</trkpt>
			<trkpt lat="42.944094" lon="-1.512517">
				<ele>702</ele>
				<time>2018-04-28T18:51:31Z</time>
			</trkpt>
			<trkpt lat="42.944035" lon="-1.512491">
				<ele>679</ele>
				<time>2018-04-28T18:51:35Z</time>
			</trkpt>
			<trkpt lat="42.944003" lon="-1.512445">
				<ele>679</ele>
				<time>2018-04-28T18:51:38Z</time>
			</trkpt>
			<trkpt lat="42.94396" lon="-1.512417">
				<ele>679</ele>
				<time>2018-04-28T18:51:42Z</time>
			</trkpt>
			<trkpt lat="42.943901" lon="-1.512374">
				<ele>679</ele>
				<time>2018-04-28T18:51:46Z</time>
			</trkpt>
			<trkpt lat="42.943856" lon="-1.512344">
				<ele>679</ele>
				<time>2018-04-28T18:51:49Z</time>
			</trkpt>
			<trkpt lat="42.943814" lon="-1.512289">
				<ele>679</ele>
				<time>2018-04-28T18:51:53Z</time>
			</trkpt>
			<trkpt lat="42.943783" lon="-1.512244">
				<ele>679</ele>
				<time>2018-04-28T18:51:56Z</time>
			</trkpt>
			<trkpt lat="42.943733" lon="-1.512239">
				<ele>669</ele>
				<time>2018-04-28T18:52:00Z</time>
			</trkpt>
			<trkpt lat="42.943684" lon="-1.512213">
				<ele>669</ele>
				<time>2018-04-28T18:52:05Z</time>
			</trkpt>
			<trkpt lat="42.943648" lon="-1.512173">
				<ele>669</ele>
				<time>2018-04-28T18:52:08Z</time>
			</trkpt>
			<trkpt lat="42.9436" lon="-1.512189">
				<ele>669</ele>
				<time>2018-04-28T18:52:12Z</time>
			</trkpt>
			<trkpt lat="42.943552" lon="-1.512206">
				<ele>669</ele>
				<time>2018-04-28T18:52:14Z</time>
			</trkpt>
			<trkpt lat="42.943505" lon="-1.512232">
				<ele>669</ele>
				<time>2018-04-28T18:52:17Z</time>
			</trkpt>
			<trkpt lat="42.943447" lon="-1.512246">
				<ele>669</ele>
				<time>2018-04-28T18:52:20Z</time>
			</trkpt>
			<trkpt lat="42.943393" lon="-1.512247">
				<ele>669</ele>
				<time>2018-04-28T18:52:23Z</time>
			</trkpt>
			<trkpt lat="42.943347" lon="-1.512262">
				<ele>669</ele>
				<time>2018-04-28T18:52:26Z</time>
			</trkpt>
			<trkpt lat="42.943304" lon="-1.512287">
				<ele>669</ele>
				<time>2018-04-28T18:52:29Z</time>
			</trkpt>
			<trkpt lat="42.943245" lon="-1.512312">
				<ele>669</ele>
				<time>2018-04-28T18:52:32Z</time>
			</trkpt>
			<trkpt lat="42.943203" lon="-1.512344">
				<ele>669</ele>
				<time>2018-04-28T18:52:35Z</time>
			</trkpt>
			<trkpt lat="42.943153" lon="-1.512364">
				<ele>669</ele>
				<time>2018-04-28T18:52:38Z</time>
			</trkpt>
			<trkpt lat="42.9431" lon="-1.512374">
				<ele>669</ele>
				<time>2018-04-28T18:52:41Z</time>
			</trkpt>
			<trkpt lat="42.94305" lon="-1.512389">
				<ele>669</ele>
				<time>2018-04-28T18:52:44Z</time>
			</trkpt>
			<trkpt lat="42.942993" lon="-1.512416">
				<ele>669</ele>
				<time>2018-04-28T18:52:48Z</time>
			</trkpt>
			<trkpt lat="42.942944" lon="-1.512435">
				<ele>669</ele>
				<time>2018-04-28T18:52:51Z</time>
			</trkpt>
			<trkpt lat="42.942893" lon="-1.512452">
				<ele>669</ele>
				<time>2018-04-28T18:52:55Z</time>
			</trkpt>
			<trkpt lat="42.942844" lon="-1.512471">
				<ele>669</ele>
				<time>2018-04-28T18:52:58Z</time>
			</trkpt>
			<trkpt lat="42.942789" lon="-1.512474">
				<ele>669</ele>
				<time>2018-04-28T18:53:03Z</time>
			</trkpt>
			<trkpt lat="42.942741" lon="-1.5125">
				<ele>669</ele>
				<time>2018-04-28T18:53:06Z</time>
			</trkpt>
			<trkpt lat="42.942695" lon="-1.512488">
				<ele>669</ele>
				<time>2018-04-28T18:53:09Z</time>
			</trkpt>
			<trkpt lat="42.942644" lon="-1.5125">
				<ele>669</ele>
				<time>2018-04-28T18:53:13Z</time>
			</trkpt>
			<trkpt lat="42.942608" lon="-1.512537">
				<ele>686</ele>
				<time>2018-04-28T18:53:16Z</time>
			</trkpt>
			<trkpt lat="42.942564" lon="-1.512569">
				<ele>686</ele>
				<time>2018-04-28T18:53:19Z</time>
			</trkpt>
			<trkpt lat="42.94252" lon="-1.512599">
				<ele>686</ele>
				<time>2018-04-28T18:53:22Z</time>
			</trkpt>
			<trkpt lat="42.942475" lon="-1.51261">
				<ele>686</ele>
				<time>2018-04-28T18:53:25Z</time>
			</trkpt>
			<trkpt lat="42.942422" lon="-1.512631">
				<ele>686</ele>
				<time>2018-04-28T18:53:28Z</time>
			</trkpt>
			<trkpt lat="42.942376" lon="-1.512636">
				<ele>686</ele>
				<time>2018-04-28T18:53:32Z</time>
			</trkpt>
			<trkpt lat="42.942324" lon="-1.512656">
				<ele>686</ele>
				<time>2018-04-28T18:53:35Z</time>
			</trkpt>
			<trkpt lat="42.942265" lon="-1.512658">
				<ele>686</ele>
				<time>2018-04-28T18:53:39Z</time>
			</trkpt>
			<trkpt lat="42.942216" lon="-1.512678">
				<ele>686</ele>
				<time>2018-04-28T18:53:43Z</time>
			</trkpt>
			<trkpt lat="42.942162" lon="-1.512696">
				<ele>686</ele>
				<time>2018-04-28T18:53:46Z</time>
			</trkpt>
			<trkpt lat="42.942116" lon="-1.512684">
				<ele>686</ele>
				<time>2018-04-28T18:53:49Z</time>
			</trkpt>
			<trkpt lat="42.942074" lon="-1.512645">
				<ele>686</ele>
				<time>2018-04-28T18:53:52Z</time>
			</trkpt>
			<trkpt lat="42.942025" lon="-1.512629">
				<ele>686</ele>
				<time>2018-04-28T18:53:58Z</time>
			</trkpt>
			<trkpt lat="42.941969" lon="-1.512608">
				<ele>686</ele>
				<time>2018-04-28T18:54:04Z</time>
			</trkpt>
			<trkpt lat="42.941918" lon="-1.512596">
				<ele>686</ele>
				<time>2018-04-28T18:54:09Z</time>
			</trkpt>
			<trkpt lat="42.94186" lon="-1.512591">
				<ele>686</ele>
				<time>2018-04-28T18:54:13Z</time>
			</trkpt>
			<trkpt lat="42.941804" lon="-1.512576">
				<ele>686</ele>
				<time>2018-04-28T18:54:16Z</time>
			</trkpt>
			<trkpt lat="42.941755" lon="-1.512547">
				<ele>686</ele>
				<time>2018-04-28T18:54:21Z</time>
			</trkpt>
			<trkpt lat="42.941714" lon="-1.512519">
				<ele>686</ele>
				<time>2018-04-28T18:54:24Z</time>
			</trkpt>
			<trkpt lat="42.941662" lon="-1.512482">
				<ele>654</ele>
				<time>2018-04-28T18:54:27Z</time>
			</trkpt>
			<trkpt lat="42.941622" lon="-1.512445">
				<ele>654</ele>
				<time>2018-04-28T18:54:32Z</time>
			</trkpt>
			<trkpt lat="42.941562" lon="-1.512424">
				<ele>654</ele>
				<time>2018-04-28T18:54:37Z</time>
			</trkpt>
			<trkpt lat="42.941516" lon="-1.512421">
				<ele>654</ele>
				<time>2018-04-28T18:54:40Z</time>
			</trkpt>
			<trkpt lat="42.941461" lon="-1.51242">
				<ele>654</ele>
				<time>2018-04-28T18:54:45Z</time>
			</trkpt>
			<trkpt lat="42.94141" lon="-1.512424">
				<ele>654</ele>
				<time>2018-04-28T18:54:50Z</time>
			</trkpt>
			<trkpt lat="42.941356" lon="-1.512425">
				<ele>654</ele>
				<time>2018-04-28T18:54:53Z</time>
			</trkpt>
			<trkpt lat="42.941309" lon="-1.512425">
				<ele>654</ele>
				<time>2018-04-28T18:54:55Z</time>
			</trkpt>
			<trkpt lat="42.941277" lon="-1.512355">
				<ele>654</ele>
				<time>2018-04-28T18:54:59Z</time>
			</trkpt>
			<trkpt lat="42.941245" lon="-1.512303">
				<ele>654</ele>
				<time>2018-04-28T18:55:02Z</time>
			</trkpt>
			<trkpt lat="42.941206" lon="-1.512261">
				<ele>654</ele>
				<time>2018-04-28T18:55:06Z</time>
			</trkpt>
			<trkpt lat="42.941163" lon="-1.51224">
				<ele>654</ele>
				<time>2018-04-28T18:55:11Z</time>
			</trkpt>
			<trkpt lat="42.941108" lon="-1.512255">
				<ele>654</ele>
				<time>2018-04-28T18:55:16Z</time>
			</trkpt>
			<trkpt lat="42.941041" lon="-1.512244">
				<ele>654</ele>
				<time>2018-04-28T18:55:19Z</time>
			</trkpt>
			<trkpt lat="42.940991" lon="-1.512234">
				<ele>654</ele>
				<time>2018-04-28T18:55:22Z</time>
			</trkpt>
			<trkpt lat="42.940946" lon="-1.512219">
				<ele>654</ele>
				<time>2018-04-28T18:55:25Z</time>
			</trkpt>
			<trkpt lat="42.9409" lon="-1.512233">
				<ele>654</ele>
				<time>2018-04-28T18:55:28Z</time>
			</trkpt>
			<trkpt lat="42.940857" lon="-1.512255">
				<ele>654</ele>
				<time>2018-04-28T18:55:31Z</time>
			</trkpt>
			<trkpt lat="42.940817" lon="-1.512301">
				<ele>654</ele>
				<time>2018-04-28T18:55:35Z</time>
			</trkpt>
			<trkpt lat="42.940773" lon="-1.512316">
				<ele>654</ele>
				<time>2018-04-28T18:55:38Z</time>
			</trkpt>
			<trkpt lat="42.94072" lon="-1.512312">
				<ele>654</ele>
				<time>2018-04-28T18:55:41Z</time>
			</trkpt>
			<trkpt lat="42.94067" lon="-1.512321">
				<ele>654</ele>
				<time>2018-04-28T18:55:43Z</time>
			</trkpt>
			<trkpt lat="42.94061" lon="-1.512327">
				<ele>654</ele>
				<time>2018-04-28T18:55:46Z</time>
			</trkpt>
			<trkpt lat="42.940556" lon="-1.512305">
				<ele>654</ele>
				<time>2018-04-28T18:55:48Z</time>
			</trkpt>
			<trkpt lat="42.940505" lon="-1.512308">
				<ele>654</ele>
				<time>2018-04-28T18:55:51Z</time>
			</trkpt>
			<trkpt lat="42.940442" lon="-1.512328">
				<ele>654</ele>
				<time>2018-04-28T18:55:55Z</time>
			</trkpt>
			<trkpt lat="42.940388" lon="-1.512353">
				<ele>654</ele>
				<time>2018-04-28T18:55:58Z</time>
			</trkpt>
			<trkpt lat="42.940331" lon="-1.51235">
				<ele>654</ele>
				<time>2018-04-28T18:56:02Z</time>
			</trkpt>
			<trkpt lat="42.940284" lon="-1.512328">
				<ele>654</ele>
				<time>2018-04-28T18:56:05Z</time>
			</trkpt>
			<trkpt lat="42.940232" lon="-1.512328">
				<ele>654</ele>
				<time>2018-04-28T18:56:08Z</time>
			</trkpt>
			<trkpt lat="42.940177" lon="-1.512308">
				<ele>654</ele>
				<time>2018-04-28T18:56:11Z</time>
			</trkpt>
			<trkpt lat="42.940128" lon="-1.512333">
				<ele>654</ele>
				<time>2018-04-28T18:56:15Z</time>
			</trkpt>
			<trkpt lat="42.940075" lon="-1.512356">
				<ele>654</ele>
				<time>2018-04-28T18:56:19Z</time>
			</trkpt>
			<trkpt lat="42.940027" lon="-1.512358">
				<ele>654</ele>
				<time>2018-04-28T18:56:23Z</time>
			</trkpt>
			<trkpt lat="42.939977" lon="-1.512352">
				<ele>654</ele>
				<time>2018-04-28T18:56:27Z</time>
			</trkpt>
			<trkpt lat="42.939919" lon="-1.512367">
				<ele>654</ele>
				<time>2018-04-28T18:56:31Z</time>
			</trkpt>
			<trkpt lat="42.93987" lon="-1.512343">
				<ele>654</ele>
				<time>2018-04-28T18:56:34Z</time>
			</trkpt>
			<trkpt lat="42.939817" lon="-1.51231">
				<ele>654</ele>
				<time>2018-04-28T18:56:36Z</time>
			</trkpt>
			<trkpt lat="42.939771" lon="-1.512284">
				<ele>654</ele>
				<time>2018-04-28T18:56:39Z</time>
			</trkpt>
			<trkpt lat="42.939735" lon="-1.512234">
				<ele>654</ele>
				<time>2018-04-28T18:56:43Z</time>
			</trkpt>
			<trkpt lat="42.939701" lon="-1.512193">
				<ele>654</ele>
				<time>2018-04-28T18:56:45Z</time>
			</trkpt>
			<trkpt lat="42.939651" lon="-1.512143">
				<ele>654</ele>
				<time>2018-04-28T18:56:49Z</time>
			</trkpt>
			<trkpt lat="42.939601" lon="-1.512126">
				<ele>654</ele>
				<time>2018-04-28T18:56:52Z</time>
			</trkpt>
			<trkpt lat="42.939555" lon="-1.512124">
				<ele>662</ele>
				<time>2018-04-28T18:56:54Z</time>
			</trkpt>
			<trkpt lat="42.939499" lon="-1.512127">
				<ele>662</ele>
				<time>2018-04-28T18:56:59Z</time>
			</trkpt>
			<trkpt lat="42.939455" lon="-1.512175">
				<ele>662</ele>
				<time>2018-04-28T18:57:06Z</time>
			</trkpt>
			<trkpt lat="42.939422" lon="-1.512238">
				<ele>662</ele>
				<time>2018-04-28T18:57:10Z</time>
			</trkpt>
			<trkpt lat="42.939375" lon="-1.512258">
				<ele>662</ele>
				<time>2018-04-28T18:57:14Z</time>
			</trkpt>
			<trkpt lat="42.939327" lon="-1.512256">
				<ele>662</ele>
				<time>2018-04-28T18:57:17Z</time>
			</trkpt>
			<trkpt lat="42.939267" lon="-1.512228">
				<ele>662</ele>
				<time>2018-04-28T18:57:20Z</time>
			</trkpt>
			<trkpt lat="42.93923" lon="-1.512172">
				<ele>662</ele>
				<time>2018-04-28T18:57:23Z</time>
			</trkpt>
			<trkpt lat="42.9392" lon="-1.512118">
				<ele>662</ele>
				<time>2018-04-28T18:57:26Z</time>
			</trkpt>
			<trkpt lat="42.93922" lon="-1.512049">
				<ele>662</ele>
				<time>2018-04-28T18:57:31Z</time>
			</trkpt>
			<trkpt lat="42.939196" lon="-1.51197">
				<ele>662</ele>
				<time>2018-04-28T18:57:36Z</time>
			</trkpt>
			<trkpt lat="42.939166" lon="-1.511923">
				<ele>662</ele>
				<time>2018-04-28T18:57:43Z</time>
			</trkpt>
			<trkpt lat="42.939114" lon="-1.511883">
				<ele>662</ele>
				<time>2018-04-28T18:57:46Z</time>
			</trkpt>
			<trkpt lat="42.939074" lon="-1.511829">
				<ele>662</ele>
				<time>2018-04-28T18:57:49Z</time>
			</trkpt>
			<trkpt lat="42.939039" lon="-1.511787">
				<ele>662</ele>
				<time>2018-04-28T18:57:52Z</time>
			</trkpt>
			<trkpt lat="42.939008" lon="-1.511741">
				<ele>662</ele>
				<time>2018-04-28T18:57:56Z</time>
			</trkpt>
			<trkpt lat="42.938965" lon="-1.511759">
				<ele>662</ele>
				<time>2018-04-28T18:58:00Z</time>
			</trkpt>
			<trkpt lat="42.938914" lon="-1.511731">
				<ele>662</ele>
				<time>2018-04-28T18:58:04Z</time>
			</trkpt>
			<trkpt lat="42.938878" lon="-1.511695">
				<ele>662</ele>
				<time>2018-04-28T18:58:08Z</time>
			</trkpt>
			<trkpt lat="42.93884" lon="-1.511646">
				<ele>662</ele>
				<time>2018-04-28T18:58:12Z</time>
			</trkpt>
			<trkpt lat="42.938791" lon="-1.511603">
				<ele>662</ele>
				<time>2018-04-28T18:58:15Z</time>
			</trkpt>
			<trkpt lat="42.938762" lon="-1.511537">
				<ele>662</ele>
				<time>2018-04-28T18:58:19Z</time>
			</trkpt>
			<trkpt lat="42.93874" lon="-1.511482">
				<ele>662</ele>
				<time>2018-04-28T18:58:22Z</time>
			</trkpt>
			<trkpt lat="42.938705" lon="-1.511424">
				<ele>662</ele>
				<time>2018-04-28T18:58:25Z</time>
			</trkpt>
			<trkpt lat="42.938653" lon="-1.511373">
				<ele>662</ele>
				<time>2018-04-28T18:58:29Z</time>
			</trkpt>
			<trkpt lat="42.938613" lon="-1.51134">
				<ele>662</ele>
				<time>2018-04-28T18:58:31Z</time>
			</trkpt>
			<trkpt lat="42.938599" lon="-1.511265">
				<ele>662</ele>
				<time>2018-04-28T18:58:34Z</time>
			</trkpt>
			<trkpt lat="42.938555" lon="-1.511234">
				<ele>662</ele>
				<time>2018-04-28T18:58:38Z</time>
			</trkpt>
			<trkpt lat="42.938514" lon="-1.511205">
				<ele>662</ele>
				<time>2018-04-28T18:58:44Z</time>
			</trkpt>
			<trkpt lat="42.938492" lon="-1.511152">
				<ele>662</ele>
				<time>2018-04-28T18:58:47Z</time>
			</trkpt>
			<trkpt lat="42.938466" lon="-1.511087">
				<ele>662</ele>
				<time>2018-04-28T18:58:51Z</time>
			</trkpt>
			<trkpt lat="42.93843" lon="-1.511026">
				<ele>662</ele>
				<time>2018-04-28T18:58:54Z</time>
			</trkpt>
			<trkpt lat="42.938398" lon="-1.510959">
				<ele>662</ele>
				<time>2018-04-28T18:58:58Z</time>
			</trkpt>
			<trkpt lat="42.938385" lon="-1.510893">
				<ele>662</ele>
				<time>2018-04-28T18:59:01Z</time>
			</trkpt>
			<trkpt lat="42.938362" lon="-1.510834">
				<ele>662</ele>
				<time>2018-04-28T18:59:04Z</time>
			</trkpt>
			<trkpt lat="42.93833" lon="-1.510778">
				<ele>662</ele>
				<time>2018-04-28T18:59:07Z</time>
			</trkpt>
			<trkpt lat="42.938329" lon="-1.510703">
				<ele>662</ele>
				<time>2018-04-28T18:59:12Z</time>
			</trkpt>
			<trkpt lat="42.938291" lon="-1.510657">
				<ele>662</ele>
				<time>2018-04-28T18:59:15Z</time>
			</trkpt>
			<trkpt lat="42.93825" lon="-1.510608">
				<ele>662</ele>
				<time>2018-04-28T18:59:18Z</time>
			</trkpt>
			<trkpt lat="42.938199" lon="-1.510578">
				<ele>662</ele>
				<time>2018-04-28T18:59:23Z</time>
			</trkpt>
			<trkpt lat="42.938147" lon="-1.510584">
				<ele>662</ele>
				<time>2018-04-28T18:59:26Z</time>
			</trkpt>
			<trkpt lat="42.938097" lon="-1.510571">
				<ele>662</ele>
				<time>2018-04-28T18:59:29Z</time>
			</trkpt>
			<trkpt lat="42.938051" lon="-1.510524">
				<ele>662</ele>
				<time>2018-04-28T18:59:33Z</time>
			</trkpt>
			<trkpt lat="42.938019" lon="-1.510475">
				<ele>662</ele>
				<time>2018-04-28T18:59:39Z</time>
			</trkpt>
			<trkpt lat="42.937985" lon="-1.510431">
				<ele>662</ele>
				<time>2018-04-28T18:59:43Z</time>
			</trkpt>
			<trkpt lat="42.937939" lon="-1.510405">
				<ele>618</ele>
				<time>2018-04-28T18:59:45Z</time>
			</trkpt>
			<trkpt lat="42.937909" lon="-1.510347">
				<ele>618</ele>
				<time>2018-04-28T18:59:49Z</time>
			</trkpt>
			<trkpt lat="42.937855" lon="-1.510336">
				<ele>618</ele>
				<time>2018-04-28T18:59:54Z</time>
			</trkpt>
			<trkpt lat="42.937798" lon="-1.510349">
				<ele>618</ele>
				<time>2018-04-28T18:59:59Z</time>
			</trkpt>
			<trkpt lat="42.93775" lon="-1.510339">
				<ele>618</ele>
				<time>2018-04-28T19:00:05Z</time>
			</trkpt>
			<trkpt lat="42.937706" lon="-1.510384">
				<ele>618</ele>
				<time>2018-04-28T19:00:10Z</time>
			</trkpt>
			<trkpt lat="42.93765" lon="-1.510402">
				<ele>618</ele>
				<time>2018-04-28T19:00:13Z</time>
			</trkpt>
			<trkpt lat="42.937602" lon="-1.51041">
				<ele>618</ele>
				<time>2018-04-28T19:00:15Z</time>
			</trkpt>
			<trkpt lat="42.937552" lon="-1.510411">
				<ele>618</ele>
				<time>2018-04-28T19:00:18Z</time>
			</trkpt>
			<trkpt lat="42.937513" lon="-1.510347">
				<ele>618</ele>
				<time>2018-04-28T19:00:23Z</time>
			</trkpt>
			<trkpt lat="42.937464" lon="-1.510275">
				<ele>642</ele>
				<time>2018-04-28T19:00:26Z</time>
			</trkpt>
			<trkpt lat="42.937434" lon="-1.510206">
				<ele>642</ele>
				<time>2018-04-28T19:00:29Z</time>
			</trkpt>
			<trkpt lat="42.937416" lon="-1.510132">
				<ele>642</ele>
				<time>2018-04-28T19:00:32Z</time>
			</trkpt>
			<trkpt lat="42.937364" lon="-1.51009">
				<ele>642</ele>
				<time>2018-04-28T19:00:36Z</time>
			</trkpt>
			<trkpt lat="42.937314" lon="-1.510051">
				<ele>642</ele>
				<time>2018-04-28T19:00:39Z</time>
			</trkpt>
			<trkpt lat="42.937292" lon="-1.509972">
				<ele>642</ele>
				<time>2018-04-28T19:00:42Z</time>
			</trkpt>
			<trkpt lat="42.937282" lon="-1.5099">
				<ele>642</ele>
				<time>2018-04-28T19:00:45Z</time>
			</trkpt>
			<trkpt lat="42.937284" lon="-1.509827">
				<ele>642</ele>
				<time>2018-04-28T19:00:49Z</time>
			</trkpt>
			<trkpt lat="42.937293" lon="-1.509763">
				<ele>642</ele>
				<time>2018-04-28T19:00:55Z</time>
			</trkpt>
			<trkpt lat="42.937303" lon="-1.509693">
				<ele>642</ele>
				<time>2018-04-28T19:00:59Z</time>
			</trkpt>
			<trkpt lat="42.937305" lon="-1.509609">
				<ele>642</ele>
				<time>2018-04-28T19:01:03Z</time>
			</trkpt>
			<trkpt lat="42.937311" lon="-1.509542">
				<ele>642</ele>
				<time>2018-04-28T19:01:06Z</time>
			</trkpt>
			<trkpt lat="42.937308" lon="-1.509471">
				<ele>642</ele>
				<time>2018-04-28T19:01:09Z</time>
			</trkpt>
			<trkpt lat="42.937306" lon="-1.5094">
				<ele>642</ele>
				<time>2018-04-28T19:01:13Z</time>
			</trkpt>
			<trkpt lat="42.937319" lon="-1.50933">
				<ele>642</ele>
				<time>2018-04-28T19:01:17Z</time>
			</trkpt>
			<trkpt lat="42.937274" lon="-1.509352">
				<ele>642</ele>
				<time>2018-04-28T19:01:24Z</time>
			</trkpt>
			<trkpt lat="42.93723" lon="-1.509394">
				<ele>642</ele>
				<time>2018-04-28T19:01:28Z</time>
			</trkpt>
			<trkpt lat="42.937194" lon="-1.509435">
				<ele>642</ele>
				<time>2018-04-28T19:01:34Z</time>
			</trkpt>
			<trkpt lat="42.937145" lon="-1.50945">
				<ele>642</ele>
				<time>2018-04-28T19:01:39Z</time>
			</trkpt>
			<trkpt lat="42.937088" lon="-1.509433">
				<ele>642</ele>
				<time>2018-04-28T19:01:44Z</time>
			</trkpt>
			<trkpt lat="42.937028" lon="-1.509433">
				<ele>642</ele>
				<time>2018-04-28T19:01:49Z</time>
			</trkpt>
			<trkpt lat="42.936973" lon="-1.509409">
				<ele>642</ele>
				<time>2018-04-28T19:01:52Z</time>
			</trkpt>
			<trkpt lat="42.936943" lon="-1.509344">
				<ele>642</ele>
				<time>2018-04-28T19:01:56Z</time>
			</trkpt>
			<trkpt lat="42.936921" lon="-1.50927">
				<ele>642</ele>
				<time>2018-04-28T19:02:00Z</time>
			</trkpt>
			<trkpt lat="42.936912" lon="-1.509206">
				<ele>642</ele>
				<time>2018-04-28T19:02:03Z</time>
			</trkpt>
			<trkpt lat="42.936918" lon="-1.509129">
				<ele>642</ele>
				<time>2018-04-28T19:02:05Z</time>
			</trkpt>
			<trkpt lat="42.936908" lon="-1.509063">
				<ele>642</ele>
				<time>2018-04-28T19:02:09Z</time>
			</trkpt>
			<trkpt lat="42.936908" lon="-1.508983">
				<ele>642</ele>
				<time>2018-04-28T19:02:14Z</time>
			</trkpt>
			<trkpt lat="42.936899" lon="-1.50891">
				<ele>642</ele>
				<time>2018-04-28T19:02:17Z</time>
			</trkpt>
			<trkpt lat="42.936891" lon="-1.508842">
				<ele>642</ele>
				<time>2018-04-28T19:02:20Z</time>
			</trkpt>
			<trkpt lat="42.936882" lon="-1.508769">
				<ele>642</ele>
				<time>2018-04-28T19:02:24Z</time>
			</trkpt>
			<trkpt lat="42.936843" lon="-1.508713">
				<ele>642</ele>
				<time>2018-04-28T19:02:28Z</time>
			</trkpt>
			<trkpt lat="42.936799" lon="-1.508671">
				<ele>642</ele>
				<time>2018-04-28T19:02:32Z</time>
			</trkpt>
			<trkpt lat="42.936753" lon="-1.508669">
				<ele>642</ele>
				<time>2018-04-28T19:02:36Z</time>
			</trkpt>
			<trkpt lat="42.936709" lon="-1.508654">
				<ele>642</ele>
				<time>2018-04-28T19:02:40Z</time>
			</trkpt>
			<trkpt lat="42.93668" lon="-1.508603">
				<ele>642</ele>
				<time>2018-04-28T19:02:43Z</time>
			</trkpt>
			<trkpt lat="42.936632" lon="-1.508584">
				<ele>642</ele>
				<time>2018-04-28T19:02:47Z</time>
			</trkpt>
			<trkpt lat="42.936585" lon="-1.508562">
				<ele>642</ele>
				<time>2018-04-28T19:02:50Z</time>
			</trkpt>
			<trkpt lat="42.936543" lon="-1.508529">
				<ele>642</ele>
				<time>2018-04-28T19:02:54Z</time>
			</trkpt>
			<trkpt lat="42.936501" lon="-1.508501">
				<ele>642</ele>
				<time>2018-04-28T19:02:57Z</time>
			</trkpt>
			<trkpt lat="42.936456" lon="-1.508483">
				<ele>642</ele>
				<time>2018-04-28T19:03:02Z</time>
			</trkpt>
			<trkpt lat="42.936413" lon="-1.508443">
				<ele>642</ele>
				<time>2018-04-28T19:03:05Z</time>
			</trkpt>
			<trkpt lat="42.936351" lon="-1.508414">
				<ele>642</ele>
				<time>2018-04-28T19:03:07Z</time>
			</trkpt>
			<trkpt lat="42.936315" lon="-1.508373">
				<ele>642</ele>
				<time>2018-04-28T19:03:09Z</time>
			</trkpt>
			<trkpt lat="42.936262" lon="-1.508342">
				<ele>642</ele>
				<time>2018-04-28T19:03:13Z</time>
			</trkpt>
			<trkpt lat="42.936216" lon="-1.508319">
				<ele>616</ele>
				<time>2018-04-28T19:03:16Z</time>
			</trkpt>
			<trkpt lat="42.936164" lon="-1.508308">
				<ele>616</ele>
				<time>2018-04-28T19:03:20Z</time>
			</trkpt>
			<trkpt lat="42.936122" lon="-1.508282">
				<ele>616</ele>
				<time>2018-04-28T19:03:23Z</time>
			</trkpt>
			<trkpt lat="42.936067" lon="-1.508291">
				<ele>616</ele>
				<time>2018-04-28T19:03:27Z</time>
			</trkpt>
			<trkpt lat="42.936022" lon="-1.508267">
				<ele>616</ele>
				<time>2018-04-28T19:03:30Z</time>
			</trkpt>
			<trkpt lat="42.93597" lon="-1.508239">
				<ele>616</ele>
				<time>2018-04-28T19:03:34Z</time>
			</trkpt>
			<trkpt lat="42.93592" lon="-1.508197">
				<ele>616</ele>
				<time>2018-04-28T19:03:37Z</time>
			</trkpt>
			<trkpt lat="42.93587" lon="-1.508189">
				<ele>616</ele>
				<time>2018-04-28T19:03:40Z</time>
			</trkpt>
			<trkpt lat="42.935819" lon="-1.508157">
				<ele>616</ele>
				<time>2018-04-28T19:03:44Z</time>
			</trkpt>
			<trkpt lat="42.93577" lon="-1.50814">
				<ele>616</ele>
				<time>2018-04-28T19:03:48Z</time>
			</trkpt>
			<trkpt lat="42.935723" lon="-1.508124">
				<ele>616</ele>
				<time>2018-04-28T19:03:52Z</time>
			</trkpt>
			<trkpt lat="42.935672" lon="-1.508113">
				<ele>616</ele>
				<time>2018-04-28T19:03:58Z</time>
			</trkpt>
			<trkpt lat="42.935621" lon="-1.508122">
				<ele>616</ele>
				<time>2018-04-28T19:04:02Z</time>
			</trkpt>
			<trkpt lat="42.93557" lon="-1.50813">
				<ele>616</ele>
				<time>2018-04-28T19:04:04Z</time>
			</trkpt>
			<trkpt lat="42.935523" lon="-1.508118">
				<ele>616</ele>
				<time>2018-04-28T19:04:08Z</time>
			</trkpt>
			<trkpt lat="42.935474" lon="-1.508099">
				<ele>616</ele>
				<time>2018-04-28T19:04:12Z</time>
			</trkpt>
			<trkpt lat="42.935424" lon="-1.508093">
				<ele>616</ele>
				<time>2018-04-28T19:04:15Z</time>
			</trkpt>
			<trkpt lat="42.935378" lon="-1.508092">
				<ele>613</ele>
				<time>2018-04-28T19:04:18Z</time>
			</trkpt>
			<trkpt lat="42.935329" lon="-1.508087">
				<ele>613</ele>
				<time>2018-04-28T19:04:22Z</time>
			</trkpt>
			<trkpt lat="42.935285" lon="-1.508071">
				<ele>613</ele>
				<time>2018-04-28T19:04:27Z</time>
			</trkpt>
			<trkpt lat="42.935234" lon="-1.508041">
				<ele>613</ele>
				<time>2018-04-28T19:04:36Z</time>
			</trkpt>
			<trkpt lat="42.935193" lon="-1.508012">
				<ele>613</ele>
				<time>2018-04-28T19:04:42Z</time>
			</trkpt>
			<trkpt lat="42.935146" lon="-1.508007">
				<ele>613</ele>
				<time>2018-04-28T19:04:48Z</time>
			</trkpt>
			<trkpt lat="42.935099" lon="-1.508014">
				<ele>613</ele>
				<time>2018-04-28T19:04:51Z</time>
			</trkpt>
			<trkpt lat="42.935052" lon="-1.50799">
				<ele>613</ele>
				<time>2018-04-28T19:04:56Z</time>
			</trkpt>
			<trkpt lat="42.935003" lon="-1.507967">
				<ele>613</ele>
				<time>2018-04-28T19:05:04Z</time>
			</trkpt>
			<trkpt lat="42.934943" lon="-1.507954">
				<ele>613</ele>
				<time>2018-04-28T19:05:07Z</time>
			</trkpt>
			<trkpt lat="42.934887" lon="-1.507945">
				<ele>613</ele>
				<time>2018-04-28T19:05:10Z</time>
			</trkpt>
			<trkpt lat="42.934834" lon="-1.507933">
				<ele>613</ele>
				<time>2018-04-28T19:05:14Z</time>
			</trkpt>
			<trkpt lat="42.934773" lon="-1.507908">
				<ele>613</ele>
				<time>2018-04-28T19:05:17Z</time>
			</trkpt>
			<trkpt lat="42.934731" lon="-1.507884">
				<ele>613</ele>
				<time>2018-04-28T19:05:21Z</time>
			</trkpt>
			<trkpt lat="42.934672" lon="-1.507858">
				<ele>613</ele>
				<time>2018-04-28T19:05:24Z</time>
			</trkpt>
			<trkpt lat="42.934623" lon="-1.507835">
				<ele>613</ele>
				<time>2018-04-28T19:05:28Z</time>
			</trkpt>
			<trkpt lat="42.934583" lon="-1.507805">
				<ele>613</ele>
				<time>2018-04-28T19:05:30Z</time>
			</trkpt>
			<trkpt lat="42.934537" lon="-1.507759">
				<ele>613</ele>
				<time>2018-04-28T19:05:33Z</time>
			</trkpt>
			<trkpt lat="42.934487" lon="-1.507734">
				<ele>613</ele>
				<time>2018-04-28T19:05:37Z</time>
			</trkpt>
			<trkpt lat="42.934442" lon="-1.507698">
				<ele>613</ele>
				<time>2018-04-28T19:05:40Z</time>
			</trkpt>
			<trkpt lat="42.934389" lon="-1.507673">
				<ele>613</ele>
				<time>2018-04-28T19:05:44Z</time>
			</trkpt>
			<trkpt lat="42.934341" lon="-1.507683">
				<ele>613</ele>
				<time>2018-04-28T19:05:48Z</time>
			</trkpt>
			<trkpt lat="42.934283" lon="-1.507673">
				<ele>613</ele>
				<time>2018-04-28T19:05:54Z</time>
			</trkpt>
			<trkpt lat="42.934225" lon="-1.507669">
				<ele>613</ele>
				<time>2018-04-28T19:05:57Z</time>
			</trkpt>
			<trkpt lat="42.934178" lon="-1.507654">
				<ele>613</ele>
				<time>2018-04-28T19:05:59Z</time>
			</trkpt>
			<trkpt lat="42.934129" lon="-1.507665">
				<ele>613</ele>
				<time>2018-04-28T19:06:02Z</time>
			</trkpt>
			<trkpt lat="42.934071" lon="-1.507648">
				<ele>613</ele>
				<time>2018-04-28T19:06:05Z</time>
			</trkpt>
			<trkpt lat="42.934021" lon="-1.507638">
				<ele>613</ele>
				<time>2018-04-28T19:06:08Z</time>
			</trkpt>
			<trkpt lat="42.933964" lon="-1.507618">
				<ele>613</ele>
				<time>2018-04-28T19:06:12Z</time>
			</trkpt>
			<trkpt lat="42.933912" lon="-1.507599">
				<ele>613</ele>
				<time>2018-04-28T19:06:15Z</time>
			</trkpt>
			<trkpt lat="42.933863" lon="-1.507571">
				<ele>613</ele>
				<time>2018-04-28T19:06:18Z</time>
			</trkpt>
			<trkpt lat="42.93381" lon="-1.507529">
				<ele>613</ele>
				<time>2018-04-28T19:06:21Z</time>
			</trkpt>
			<trkpt lat="42.933759" lon="-1.507508">
				<ele>613</ele>
				<time>2018-04-28T19:06:27Z</time>
			</trkpt>
			<trkpt lat="42.933695" lon="-1.507515">
				<ele>613</ele>
				<time>2018-04-28T19:06:31Z</time>
			</trkpt>
			<trkpt lat="42.933637" lon="-1.507488">
				<ele>613</ele>
				<time>2018-04-28T19:06:34Z</time>
			</trkpt>
			<trkpt lat="42.933585" lon="-1.507453">
				<ele>613</ele>
				<time>2018-04-28T19:06:37Z</time>
			</trkpt>
			<trkpt lat="42.933539" lon="-1.507419">
				<ele>613</ele>
				<time>2018-04-28T19:06:41Z</time>
			</trkpt>
			<trkpt lat="42.933484" lon="-1.507402">
				<ele>613</ele>
				<time>2018-04-28T19:06:44Z</time>
			</trkpt>
			<trkpt lat="42.933435" lon="-1.507396">
				<ele>613</ele>
				<time>2018-04-28T19:06:47Z</time>
			</trkpt>
			<trkpt lat="42.933372" lon="-1.507387">
				<ele>613</ele>
				<time>2018-04-28T19:06:50Z</time>
			</trkpt>
			<trkpt lat="42.933327" lon="-1.507379">
				<ele>578</ele>
				<time>2018-04-28T19:06:53Z</time>
			</trkpt>
			<trkpt lat="42.933274" lon="-1.507365">
				<ele>578</ele>
				<time>2018-04-28T19:06:58Z</time>
			</trkpt>
			<trkpt lat="42.93322" lon="-1.507314">
				<ele>578</ele>
				<time>2018-04-28T19:07:01Z</time>
			</trkpt>
			<trkpt lat="42.933174" lon="-1.507288">
				<ele>578</ele>
				<time>2018-04-28T19:07:03Z</time>
			</trkpt>
			<trkpt lat="42.933099" lon="-1.507272">
				<ele>578</ele>
				<time>2018-04-28T19:07:06Z</time>
			</trkpt>
			<trkpt lat="42.933047" lon="-1.507287">
				<ele>578</ele>
				<time>2018-04-28T19:07:10Z</time>
			</trkpt>
			<trkpt lat="42.932985" lon="-1.507297">
				<ele>578</ele>
				<time>2018-04-28T19:07:13Z</time>
			</trkpt>
			<trkpt lat="42.932928" lon="-1.507258">
				<ele>578</ele>
				<time>2018-04-28T19:07:16Z</time>
			</trkpt>
			<trkpt lat="42.932878" lon="-1.507219">
				<ele>578</ele>
				<time>2018-04-28T19:07:19Z</time>
			</trkpt>
			<trkpt lat="42.932825" lon="-1.507178">
				<ele>578</ele>
				<time>2018-04-28T19:07:23Z</time>
			</trkpt>
			<trkpt lat="42.932785" lon="-1.507131">
				<ele>578</ele>
				<time>2018-04-28T19:07:27Z</time>
			</trkpt>
			<trkpt lat="42.932739" lon="-1.507102">
				<ele>578</ele>
				<time>2018-04-28T19:07:31Z</time>
			</trkpt>
			<trkpt lat="42.932687" lon="-1.507097">
				<ele>578</ele>
				<time>2018-04-28T19:07:35Z</time>
			</trkpt>
			<trkpt lat="42.932635" lon="-1.507088">
				<ele>578</ele>
				<time>2018-04-28T19:07:38Z</time>
			</trkpt>
			<trkpt lat="42.932595" lon="-1.507055">
				<ele>578</ele>
				<time>2018-04-28T19:07:40Z</time>
			</trkpt>
			<trkpt lat="42.932547" lon="-1.507025">
				<ele>578</ele>
				<time>2018-04-28T19:07:44Z</time>
			</trkpt>
			<trkpt lat="42.932485" lon="-1.50703">
				<ele>578</ele>
				<time>2018-04-28T19:07:48Z</time>
			</trkpt>
			<trkpt lat="42.932434" lon="-1.50704">
				<ele>578</ele>
				<time>2018-04-28T19:07:52Z</time>
			</trkpt>
			<trkpt lat="42.932373" lon="-1.507041">
				<ele>578</ele>
				<time>2018-04-28T19:07:56Z</time>
			</trkpt>
			<trkpt lat="42.932313" lon="-1.507045">
				<ele>578</ele>
				<time>2018-04-28T19:08:03Z</time>
			</trkpt>
			<trkpt lat="42.932269" lon="-1.507029">
				<ele>578</ele>
				<time>2018-04-28T19:08:05Z</time>
			</trkpt>
			<trkpt lat="42.932216" lon="-1.506998">
				<ele>578</ele>
				<time>2018-04-28T19:08:07Z</time>
			</trkpt>
			<trkpt lat="42.932173" lon="-1.506956">
				<ele>578</ele>
				<time>2018-04-28T19:08:11Z</time>
			</trkpt>
			<trkpt lat="42.932124" lon="-1.506912">
				<ele>578</ele>
				<time>2018-04-28T19:08:15Z</time>
			</trkpt>
			<trkpt lat="42.932097" lon="-1.506849">
				<ele>578</ele>
				<time>2018-04-28T19:08:18Z</time>
			</trkpt>
			<trkpt lat="42.932058" lon="-1.506798">
				<ele>578</ele>
				<time>2018-04-28T19:08:22Z</time>
			</trkpt>
			<trkpt lat="42.932027" lon="-1.506738">
				<ele>578</ele>
				<time>2018-04-28T19:08:27Z</time>
			</trkpt>
			<trkpt lat="42.931994" lon="-1.506674">
				<ele>578</ele>
				<time>2018-04-28T19:08:46Z</time>
			</trkpt>
			<trkpt lat="42.931938" lon="-1.506655">
				<ele>578</ele>
				<time>2018-04-28T19:08:52Z</time>
			</trkpt>
			<trkpt lat="42.93188" lon="-1.50666">
				<ele>578</ele>
				<time>2018-04-28T19:08:56Z</time>
			</trkpt>
			<trkpt lat="42.931829" lon="-1.506651">
				<ele>578</ele>
				<time>2018-04-28T19:08:59Z</time>
			</trkpt>
			<trkpt lat="42.931782" lon="-1.506649">
				<ele>578</ele>
				<time>2018-04-28T19:09:02Z</time>
			</trkpt>
			<trkpt lat="42.931708" lon="-1.506664">
				<ele>578</ele>
				<time>2018-04-28T19:09:07Z</time>
			</trkpt>
			<trkpt lat="42.931659" lon="-1.506661">
				<ele>578</ele>
				<time>2018-04-28T19:09:09Z</time>
			</trkpt>
			<trkpt lat="42.931621" lon="-1.506616">
				<ele>578</ele>
				<time>2018-04-28T19:09:12Z</time>
			</trkpt>
			<trkpt lat="42.931567" lon="-1.506611">
				<ele>578</ele>
				<time>2018-04-28T19:09:17Z</time>
			</trkpt>
			<trkpt lat="42.931517" lon="-1.506608">
				<ele>578</ele>
				<time>2018-04-28T19:09:21Z</time>
			</trkpt>
			<trkpt lat="42.931462" lon="-1.50661">
				<ele>578</ele>
				<time>2018-04-28T19:09:25Z</time>
			</trkpt>
			<trkpt lat="42.931404" lon="-1.50658">
				<ele>578</ele>
				<time>2018-04-28T19:09:28Z</time>
			</trkpt>
			<trkpt lat="42.931351" lon="-1.506543">
				<ele>578</ele>
				<time>2018-04-28T19:09:31Z</time>
			</trkpt>
			<trkpt lat="42.931299" lon="-1.506534">
				<ele>578</ele>
				<time>2018-04-28T19:09:34Z</time>
			</trkpt>
			<trkpt lat="42.93124" lon="-1.506525">
				<ele>540</ele>
				<time>2018-04-28T19:09:37Z</time>
			</trkpt>
			<trkpt lat="42.931173" lon="-1.506533">
				<ele>540</ele>
				<time>2018-04-28T19:09:41Z</time>
			</trkpt>
			<trkpt lat="42.931119" lon="-1.506511">
				<ele>540</ele>
				<time>2018-04-28T19:09:44Z</time>
			</trkpt>
			<trkpt lat="42.931072" lon="-1.506452">
				<ele>540</ele>
				<time>2018-04-28T19:09:48Z</time>
			</trkpt>
			<trkpt lat="42.93103" lon="-1.506399">
				<ele>540</ele>
				<time>2018-04-28T19:09:51Z</time>
			</trkpt>
			<trkpt lat="42.931029" lon="-1.50629">
				<ele>540</ele>
				<time>2020-04-20T16:06:08Z</time>
			</trkpt>
			<trkpt lat="42.93108" lon="-1.506216">
				<ele>532</ele>
				<time>2020-04-20T16:06:28Z</time>
			</trkpt>
			<trkpt lat="42.93116" lon="-1.506186">
				<ele>532</ele>
				<time>2020-04-20T16:06:48Z</time>
			</trkpt>
			<trkpt lat="42.93124" lon="-1.506141">
				<ele>532</ele>
				<time>2020-04-20T16:07:08Z</time>
			</trkpt>
			<trkpt lat="42.93131" lon="-1.506106">
				<ele>534</ele>
				<time>2020-04-20T16:07:28Z</time>
			</trkpt>
			<trkpt lat="42.931372" lon="-1.506081">
				<ele>534</ele>
				<time>2020-04-20T16:07:48Z</time>
			</trkpt>
		</trkseg>
	</trk>
</gpx>
